
Distance (Route):
Temperature : 14.5°C
Humidity : 99.6%
Pressure : 930.1hPa| Receiver | Frames | First received | Last received |
|---|---|---|---|
| BIOWL1-15 | 1116 | 2026-09-03 11:41:57 | 2026-09-03 14:43:09 |
| DM0DOS-11 | 1080 | 2026-09-03 11:38:00 | 2026-09-03 14:39:45 |
| DL1XH-west | 643 | 2026-09-03 11:56:29 | 2026-09-03 14:10:25 |
| DO2JMG | 555 | 2026-09-03 12:11:05 | 2026-09-03 14:01:24 |
| AA1-15 | 354 | 2026-09-03 12:30:05 | 2026-09-03 13:45:05 |
| DL1XH-15 | 247 | 2026-09-03 12:19:34 | 2026-09-03 13:59:29 |
| GOEST3-10 | 171 | 2026-09-03 11:53:03 | 2026-09-03 13:49:41 |
| HSKMA3-T | 156 | 2026-09-03 12:34:39 | 2026-09-03 14:29:49 |
| DL3AQ-11 | 105 | 2026-09-03 12:14:42 | 2026-09-03 14:22:50 |
| DO3DL | 91 | 2026-09-03 13:07:32 | 2026-09-03 14:32:19 |
| BIOWL9-15 | 89 | 2026-09-03 11:40:50 | 2026-09-03 14:42:28 |
| DO9LL-15 | 85 | 2026-09-03 11:37:19 | 2026-09-03 14:32:37 |
| DB0UT-7 | 77 | 2026-09-03 11:47:42 | 2026-09-03 14:35:54 |
| KNMI2-11 | 75 | 2026-09-03 11:10:09 | 2026-09-03 11:55:44 |
| DL4BBY-15 | 59 | 2026-09-03 11:59:43 | 2026-09-03 14:30:58 |
| AU51GT2 | 58 | 2026-09-03 11:41:15 | 2026-09-03 14:23:23 |
| HTAHTA | 50 | 2026-09-03 11:41:07 | 2026-09-03 14:07:39 |
| WEDDY | 49 | 2026-09-03 11:37:03 | 2026-09-03 12:30:32 |
| DJ2KF-10 | 47 | 2026-09-03 12:09:15 | 2026-09-03 14:32:44 |
| DD1CC3-15 | 43 | 2026-09-03 13:24:53 | 2026-09-03 14:39:18 |
| DH3RM | 41 | 2026-09-03 12:20:26 | 2026-09-03 13:58:28 |
| DD1CC1-15 | 40 | 2026-09-03 12:28:07 | 2026-09-03 14:28:06 |
| DO1YAY-16 | 39 | 2026-09-03 11:56:58 | 2026-09-03 14:12:04 |
| WPPR-10 | 38 | 2026-09-03 12:03:48 | 2026-09-03 14:30:23 |
| DF5WG-10 | 38 | 2026-09-03 12:33:04 | 2026-09-03 13:58:02 |
| DD1CC8 | 38 | 2026-09-03 12:57:08 | 2026-09-03 14:34:27 |
| BIOWL7-15 | 37 | 2026-09-03 11:44:20 | 2026-09-03 14:42:42 |
| DJ2DS-15 | 34 | 2026-09-03 11:48:49 | 2026-09-03 14:23:17 |
| BUE01 | 34 | 2026-09-03 12:16:24 | 2026-09-03 14:15:31 |
| DL8DAS-14 | 33 | 2026-09-03 12:55:37 | 2026-09-03 14:26:11 |
| SONCRA | 31 | 2026-09-03 12:18:44 | 2026-09-03 13:58:38 |
| DB0NH | 30 | 2026-09-03 12:30:15 | 2026-09-03 14:18:41 |
| DK5PH-5 | 29 | 2026-09-03 12:25:23 | 2026-09-03 13:59:31 |
| DO3MHA-11 | 28 | 2026-09-03 12:47:21 | 2026-09-03 13:34:11 |
| DO2KSM | 28 | 2026-09-03 13:18:44 | 2026-09-03 14:35:09 |
| DL8DAS-15 | 27 | 2026-09-03 12:28:17 | 2026-09-03 14:28:18 |
| MET0W-2 | 24 | 2026-09-03 11:56:17 | 2026-09-03 13:45:36 |
| DL9SK-14 | 23 | 2026-09-03 13:13:45 | 2026-09-03 14:16:56 |
| DB0ND-19 | 17 | 2026-09-03 12:01:17 | 2026-09-03 14:31:53 |
| DJ3KS | 10 | 2026-09-03 12:22:35 | 2026-09-03 13:59:20 |
| DL1LOL-11 | 9 | 2026-09-03 11:49:26 | 2026-09-03 14:21:27 |
| EDDB2-11 | 8 | 2026-09-03 12:57:07 | 2026-09-03 13:31:16 |
| DC6BW-12 | 8 | 2026-09-03 13:20:33 | 2026-09-03 13:58:15 |
| SONDE2-11 | 3 | 2026-09-03 13:18:45 | 2026-09-03 13:25:28 |
| DL1CLM-18 | 3 | 2026-09-03 13:35:54 | 2026-09-03 14:14:25 |
| DO3MHA-12 | 2 | 2026-09-03 12:49:54 | 2026-09-03 12:53:08 |
| DF8AY | 2 | 2026-09-03 12:59:12 | 2026-09-03 12:59:43 |
| NBG1-10 | 2 | 2026-09-03 13:03:43 | 2026-09-03 13:58:03 |
| DO8TBO-1 | 1 | 2026-09-03 13:18:12 | 2026-09-03 13:18:12 |
| Receiver | Date | Latitude | Longitude | Direction | Speed | Altitude | Climb | Temperature | Humidity | Pressure | Voltage | Killtimer | Uptime | BKT | XDATA |
|---|---|---|---|---|---|---|---|---|---|---|---|---|---|---|---|
| BIOWL1-15 | 2026-09-03 14:43:09 | 51.22186 | 8.41382 | 174° | 0km/h | 817m | -0m/s | 14.5°C | 99.6% | 930.1hPa | 2.7V | 07:11:02 | 03:53:32 | 00:00:00 | i |
| BIOWL1-15 | 2026-09-03 14:43:00 | 51.22186 | 8.41382 | 183° | 0km/h | 816m | -0.1m/s | 14.5°C | 99.7% | 929.9hPa | 2.7V | 07:11:02 | 03:53:21 | 00:00:00 | i |
| BIOWL1-15 | 2026-09-03 14:42:47 | 51.22187 | 8.41382 | 208° | 0km/h | 817m | 0m/s | 14.5°C | 99.7% | 930hPa | 2.7V | 07:11:02 | 03:53:10 | 00:00:00 | i |
| BIOWL7-15 | 2026-09-03 14:42:42 | 51.22187 | 8.41382 | 0° | 0km/h | 818m | 0.0m/s | 14.5°C | 97.9% | 929.9hPa | 2.7V | 00:00:00 | 00:00:00 | 00:00:00 | |
| BIOWL1-15 | 2026-09-03 14:42:38 | 51.22187 | 8.41381 | 3° | 0km/h | 818m | 0.1m/s | 14.5°C | 100% | 929.9hPa | 2.7V | 07:11:02 | 03:52:59 | 00:00:00 | i |
| BIOWL9-15 | 2026-09-03 14:42:28 | 51.22187 | 8.41382 | 69° | 0km/h | 818m | -0.0m/s | 14.5°C | 99.7% | 930.0hPa | 2.7V | 00:00:00 | 00:00:00 | 00:00:00 | |
| BIOWL1-15 | 2026-09-03 14:42:25 | 51.22187 | 8.41381 | 42° | 0km/h | 818m | 0m/s | 14.5°C | 100% | 929.9hPa | 2.7V | 07:11:53 | 03:52:48 | 00:00:00 | i |
| BIOWL1-15 | 2026-09-03 14:42:14 | 51.22187 | 8.41381 | 49° | 0km/h | 818m | -0m/s | 14.5°C | 100% | 930hPa | 2.7V | 07:11:53 | 03:52:37 | 00:00:00 | i |
| BIOWL1-15 | 2026-09-03 14:42:06 | 51.22187 | 8.41380 | 60° | 0km/h | 819m | -0m/s | 14.5°C | 96.5% | 930hPa | 2.7V | 07:11:53 | 03:52:27 | 00:00:00 | i |
| BIOWL7-15 | 2026-09-03 14:42:01 | 51.22187 | 8.41380 | 0° | 0km/h | 819m | -0.0m/s | 14.5°C | 99.8% | 930.1hPa | 2.7V | 00:00:00 | 00:00:00 | 00:00:00 | |
| BIOWL9-15 | 2026-09-03 14:41:57 | 51.22187 | 8.41380 | 219° | 0km/h | 818m | 0.1m/s | 14.5°C | 98.7% | 930.0hPa | 2.7V | 00:00:00 | 00:00:00 | 00:00:00 | |
| BIOWL1-15 | 2026-09-03 14:41:55 | 51.22187 | 8.41380 | 308° | 0km/h | 818m | 0.2m/s | 14.4°C | 100% | 929.9hPa | 2.7V | 07:11:53 | 03:52:16 | 00:00:00 | i |
| BIOWL1-15 | 2026-09-03 14:41:45 | 51.22187 | 8.41380 | 254° | 0km/h | 818m | 0.1m/s | 14.5°C | 100% | 930.2hPa | 2.7V | 07:11:53 | 03:52:06 | 00:00:00 | i |
| BIOWL1-15 | 2026-09-03 14:41:32 | 51.22187 | 8.41380 | 351° | 0km/h | 817m | 0.1m/s | 14.5°C | 98.6% | 930.1hPa | 2.7V | 07:12:44 | 03:51:55 | 00:00:00 | i |
| BIOWL9-15 | 2026-09-03 14:41:26 | 51.22187 | 8.41380 | 236° | 0km/h | 817m | 0.0m/s | 14.4°C | 99.7% | 929.9hPa | 2.7V | 00:00:00 | 00:00:00 | 00:00:00 | |
| BIOWL1-15 | 2026-09-03 14:41:23 | 51.22187 | 8.41381 | 332° | 0km/h | 817m | -0.1m/s | 14.4°C | 98.7% | 929.9hPa | 2.7V | 07:12:44 | 03:51:44 | 00:00:00 | i |
| BIOWL1-15 | 2026-09-03 14:41:12 | 51.22187 | 8.41380 | 126° | 0km/h | 817m | -0m/s | 14.4°C | 100% | 930hPa | 2.7V | 07:12:44 | 03:51:33 | 00:00:00 | i |
| BIOWL1-15 | 2026-09-03 14:41:02 | 51.22186 | 8.41380 | 2° | 0km/h | 816m | 0.1m/s | 14.4°C | 100% | 929.9hPa | 2.7V | 07:12:44 | 03:51:23 | 00:00:00 | i |
| BIOWL7-15 | 2026-09-03 14:40:58 | 51.22186 | 8.41380 | 0° | 0km/h | 815m | 0.0m/s | 14.4°C | 99.6% | 930.1hPa | 2.7V | 00:00:00 | 00:00:00 | 00:00:00 | |
| BIOWL9-15 | 2026-09-03 14:40:54 | 51.22186 | 8.41380 | 182° | 0km/h | 815m | -0.0m/s | 14.4°C | 100.0% | 930.1hPa | 2.7V | 00:00:00 | 00:00:00 | 00:00:00 | |
| BIOWL1-15 | 2026-09-03 14:40:49 | 51.22186 | 8.41381 | 204° | 0km/h | 815m | -0m/s | 14.4°C | 92.5% | 930hPa | 2.7V | 07:12:44 | 03:51:12 | 00:00:00 | i |
| BIOWL1-15 | 2026-09-03 14:40:38 | 51.22185 | 8.41381 | 155° | 0km/h | 815m | -0.1m/s | 14.4°C | 100% | 930.2hPa | 2.7V | 07:13:35 | 03:51:01 | 00:00:00 | i |
| BIOWL7-15 | 2026-09-03 14:40:32 | 51.22185 | 8.41381 | 0° | 0km/h | 814m | -0.0m/s | 14.4°C | 99.6% | 930.0hPa | 2.7V | 07:13:00 | 00:00:00 | 00:00:00 | |
| BIOWL1-15 | 2026-09-03 14:40:28 | 51.22185 | 8.41382 | 345° | 0km/h | 814m | 0.1m/s | 14.3°C | 92.5% | 930hPa | 2.7V | 07:13:35 | 03:50:51 | 00:00:00 | i |
| BIOWL1-15 | 2026-09-03 14:40:17 | 51.22181 | 8.41304 | 84° | 29km/h | 835m | -2.6m/s | 14.2°C | 100% | 927.7hPa | 2.7V | 07:13:35 | 03:50:35 | 00:00:00 | i |
| BIOWL1-15 | 2026-09-03 14:40:17 | 51.22181 | 8.41292 | 91° | 29km/h | 837m | -0.7m/s | 14.2°C | 100% | 927.7hPa | 2.7V | 07:13:35 | 03:50:34 | 00:00:00 | i |
| BIOWL1-15 | 2026-09-03 14:40:09 | 51.22178 | 8.41255 | 79° | 31km/h | 843m | -1.6m/s | 14.2°C | 100% | 927hPa | 2.7V | 07:13:35 | 03:50:31 | 00:00:00 | i |
| BIOWL1-15 | 2026-09-03 14:40:09 | 51.22177 | 8.41242 | 80° | 29km/h | 844m | -1.4m/s | 14.2°C | 100% | 926.6hPa | 2.7V | 07:13:35 | 03:50:30 | 00:00:00 | i |
| BIOWL1-15 | 2026-09-03 14:40:05 | 51.22176 | 8.41221 | 92° | 26km/h | 847m | -2.3m/s | 14.1°C | 100% | 926.5hPa | 2.7V | 07:13:35 | 03:50:28 | 00:00:00 | i |
| BIOWL1-15 | 2026-09-03 14:40:03 | 51.22176 | 8.41196 | 90° | 37km/h | 853m | -2.8m/s | 14.1°C | 100% | 925.9hPa | 2.7V | 07:13:35 | 03:50:26 | 00:00:00 | i |
| BIOWL1-15 | 2026-09-03 14:40:01 | 51.22175 | 8.41162 | 83° | 46km/h | 859m | -2.7m/s | 14.1°C | 100% | 925hPa | 2.7V | 07:13:35 | 03:50:24 | 00:00:00 | i |
| BIOWL1-15 | 2026-09-03 14:39:59 | 51.22168 | 8.41125 | 69° | 47km/h | 866m | -4.5m/s | 14°C | 99.4% | 924.2hPa | 2.7V | 07:13:35 | 03:50:22 | 00:00:00 | i |
| BIOWL1-15 | 2026-09-03 14:39:57 | 51.22159 | 8.41091 | 63° | 44km/h | 874m | -3.3m/s | 13.9°C | 99.3% | 923.4hPa | 2.7V | 07:14:26 | 03:50:20 | 00:00:00 | i |
| BIOWL1-15 | 2026-09-03 14:39:56 | 51.22154 | 8.41076 | 66° | 38km/h | 877m | -2.5m/s | 13.9°C | 99.3% | 923.2hPa | 2.7V | 07:14:26 | 03:50:19 | 00:00:00 | i |
| BIOWL1-15 | 2026-09-03 14:39:55 | 51.22151 | 8.41062 | 72° | 33km/h | 879m | -2.7m/s | 13.9°C | 100% | 922.8hPa | 2.7V | 07:14:26 | 03:50:18 | 00:00:00 | i |
| BIOWL1-15 | 2026-09-03 14:39:53 | 51.22149 | 8.41035 | 91° | 38km/h | 885m | -2.9m/s | 13.9°C | 100% | 922.4hPa | 2.7V | 07:14:26 | 03:50:16 | 00:00:00 | i |
| BIOWL1-15 | 2026-09-03 14:39:52 | 51.22149 | 8.41019 | 91° | 44km/h | 888m | -2.6m/s | 14°C | 100% | 921.9hPa | 2.7V | 07:14:26 | 03:50:15 | 00:00:00 | i |
| BIOWL1-15 | 2026-09-03 14:39:51 | 51.22148 | 8.41000 | 86° | 49km/h | 890m | -1.7m/s | 14°C | 100% | 921.9hPa | 2.7V | 07:14:26 | 03:50:14 | 00:00:00 | |
| BIOWL1-15 | 2026-09-03 14:39:49 | 51.22139 | 8.40936 | 70° | 57km/h | 894m | -1.8m/s | 14°C | 99% | 921.3hPa | 2.7V | 07:14:26 | 03:50:11 | 00:00:00 | i |
| BIOWL1-15 | 2026-09-03 14:39:49 | 51.22134 | 8.40915 | 71° | 55km/h | 896m | -1.6m/s | 14°C | 99.3% | 921hPa | 2.7V | 07:14:26 | 03:50:10 | 00:00:00 | i |
| BIOWL1-15 | 2026-09-03 14:39:45 | 51.22128 | 8.40856 | 91° | 46km/h | 902m | -2.7m/s | 13.9°C | 100% | 920.5hPa | 2.7V | 07:14:26 | 03:50:07 | 00:00:00 | i |
| DM0DOS-11 | 2026-09-03 14:39:45 | 51.22129 | 8.40790 | 85° | 33km/h | 915m | -1.3m/s | 13.6°C | 0% | 919hPa | 2.7V | 07:13:53 | 03:50:03 | 00:00:00 | i |
| BIOWL1-15 | 2026-09-03 14:39:45 | 51.22129 | 8.40838 | 94° | 46km/h | 905m | -4m/s | 13.9°C | 100% | 920hPa | 2.7V | 07:14:26 | 03:50:06 | 00:00:00 | i |
| BIOWL1-15 | 2026-09-03 14:39:41 | 51.22130 | 8.40804 | 92° | 37km/h | 913m | -2.5m/s | 13.7°C | 100% | 919.2hPa | 2.7V | 07:14:26 | 03:50:04 | 00:00:00 | i |
| BIOWL1-15 | 2026-09-03 14:39:40 | 51.22129 | 8.40790 | 86° | 33km/h | 915m | -1.3m/s | 13.6°C | 100% | 919hPa | 2.7V | 07:14:26 | 03:50:03 | 00:00:00 | i |
| DM0DOS-11 | 2026-09-03 14:39:39 | 51.22131 | 8.40761 | 104° | 42km/h | 918m | -1.5m/s | 13.6°C | 0% | 918.6hPa | 2.7V | 07:13:55 | 03:50:01 | 00:00:00 | i |
| DM0DOS-11 | 2026-09-03 14:39:39 | 51.22138 | 8.40727 | 106° | 46km/h | 920m | -0.5m/s | 13.6°C | 0% | 918.4hPa | 2.7V | 07:13:57 | 03:49:59 | 00:00:00 | i |
| BIOWL1-15 | 2026-09-03 14:39:39 | 51.22130 | 8.40777 | 97° | 35km/h | 917m | -1.7m/s | 13.6°C | 100% | 918.8hPa | 2.7V | 07:14:26 | 03:50:02 | 00:00:00 | i |
| BIOWL1-15 | 2026-09-03 14:39:37 | 51.22135 | 8.40744 | 110° | 46km/h | 919m | -0.4m/s | 13.6°C | 98.7% | 918.7hPa | 2.7V | 07:14:26 | 03:50:00 | 00:00:00 | i |
| BIOWL1-15 | 2026-09-03 14:39:36 | 51.22138 | 8.40727 | 106° | 46km/h | 920m | -0.5m/s | 13.6°C | 97% | 918.4hPa | 2.7V | 07:14:26 | 03:49:59 | 00:00:00 | i |
| BIOWL1-15 | 2026-09-03 14:39:34 | 51.22141 | 8.40693 | 87° | 38km/h | 919m | 0.7m/s | 13.6°C | 96.5% | 918.7hPa | 2.7V | 07:14:26 | 03:49:57 | 00:00:00 | i |
| DM0DOS-11 | 2026-09-03 14:39:33 | 51.22138 | 8.40666 | 79° | 31km/h | 918m | -0.4m/s | 13.6°C | 99.4% | 918.8hPa | 2.7V | 07:14:01 | 03:49:55 | 00:00:00 | i |
| BIOWL1-15 | 2026-09-03 14:39:33 | 51.22140 | 8.40679 | 76° | 33km/h | 918m | 0.8m/s | 13.6°C | 98.6% | 918.7hPa | 2.7V | 07:14:26 | 03:49:56 | 00:00:00 | i |
| BIOWL1-15 | 2026-09-03 14:39:31 | 51.22138 | 8.40653 | 91° | 35km/h | 919m | -0m/s | 13.5°C | 99.7% | 918.7hPa | 2.7V | 07:14:26 | 03:49:54 | 00:00:00 | i |
| BIOWL1-15 | 2026-09-03 14:39:29 | 51.22140 | 8.40624 | 99° | 37km/h | 919m | -0.7m/s | 13.6°C | 100% | 918.8hPa | 2.7V | 07:14:26 | 03:49:52 | 00:00:00 | i |
| BIOWL1-15 | 2026-09-03 14:39:28 | 51.22141 | 8.40610 | 93° | 35km/h | 920m | -1.7m/s | 13.6°C | 100% | 918.7hPa | 2.7V | 07:14:26 | 03:49:51 | 00:00:00 | i |
| BIOWL1-15 | 2026-09-03 14:39:26 | 51.22141 | 8.40583 | 91° | 33km/h | 923m | 0m/s | 13.6°C | 100% | 918.3hPa | 2.8V | 07:14:26 | 03:49:49 | 00:00:00 | i |
| BIOWL1-15 | 2026-09-03 14:39:25 | 51.22141 | 8.40570 | 85° | 31km/h | 923m | 1.2m/s | 13.6°C | 100% | 918.1hPa | 2.7V | 07:14:26 | 03:49:48 | 00:00:00 | |
| BIOWL1-15 | 2026-09-03 14:39:23 | 51.22140 | 8.40545 | 87° | 33km/h | 924m | -0.2m/s | 13.6°C | 100% | 918hPa | 2.7V | 07:14:26 | 03:49:46 | 00:00:00 | i |
| BIOWL9-15 | 2026-09-03 14:39:21 | 51.22140 | 8.40513 | 90° | 47km/h | 925m | -1.9m/s | 13.5°C | 99.7% | 917.9hPa | 2.7V | 00:00:00 | 00:00:00 | 00:00:00 | i |
| DM0DOS-11 | 2026-09-03 14:39:21 | 51.22136 | 8.40453 | 76° | 49km/h | 933m | -2.4m/s | 13.5°C | 0% | 917.4hPa | 2.7V | 07:14:15 | 03:49:41 | 00:00:00 | i |
| DM0DOS-11 | 2026-09-03 14:39:21 | 51.22132 | 8.40419 | 82° | 35km/h | 938m | -2.2m/s | 13.5°C | 0% | 916.5hPa | 2.7V | 07:14:17 | 03:49:39 | 00:00:00 | i |
| BIOWL1-15 | 2026-09-03 14:39:21 | 51.22140 | 8.40513 | 91° | 49km/h | 926m | -1.9m/s | 13.5°C | 100% | 917.9hPa | 2.7V | 07:14:26 | 03:49:44 | 00:00:00 | i |
| BIOWL1-15 | 2026-09-03 14:39:19 | 51.22136 | 8.40453 | 76° | 49km/h | 933m | -2.4m/s | 13.5°C | 100% | 917.4hPa | 2.7V | 07:14:26 | 03:49:41 | 00:00:00 | i |
| BIOWL1-15 | 2026-09-03 14:39:19 | 51.22134 | 8.40435 | 77° | 44km/h | 936m | -2.2m/s | 13.5°C | 99.8% | 916.9hPa | 2.7V | 07:14:26 | 03:49:40 | 00:00:00 | i |
| DD1CC3-15 | 2026-09-03 14:39:18 | 51.22138 | 8.40472 | 84° | 49km/h | 931m | -2.8m/s | 13.5°C | 100.3% | 917.4hPa | 2.7V | 07:14:00 | 00:00:00 | 00:00:00 | |
| DM0DOS-11 | 2026-09-03 14:39:15 | 51.22133 | 8.40360 | 97° | 47km/h | 948m | -2.4m/s | 13.5°C | 98.8% | 915.6hPa | 2.7V | 07:14:21 | 03:49:35 | 00:00:00 | i |
| BIOWL1-15 | 2026-09-03 14:39:15 | 51.22131 | 8.40406 | 87° | 33km/h | 940m | -2.7m/s | 13.5°C | 99.5% | 916.5hPa | 2.7V | 07:14:26 | 03:49:38 | 00:00:00 | i |
| BIOWL1-15 | 2026-09-03 14:39:14 | 51.22131 | 8.40392 | 95° | 35km/h | 943m | -2.7m/s | 13.5°C | 100% | 916.1hPa | 2.7V | 07:14:26 | 03:49:37 | 00:00:00 | i |
| BIOWL1-15 | 2026-09-03 14:39:12 | 51.22133 | 8.40360 | 97° | 47km/h | 948m | -2.4m/s | 13.5°C | 99.9% | 915.6hPa | 2.7V | 07:14:26 | 03:49:35 | 00:00:00 | i |
| BIOWL1-15 | 2026-09-03 14:39:11 | 51.22135 | 8.40340 | 95° | 53km/h | 951m | -2.6m/s | 13.5°C | 100% | 915.4hPa | 2.7V | 07:14:26 | 03:49:34 | 00:00:00 | i |
| BIOWL1-15 | 2026-09-03 14:39:10 | 51.22136 | 8.40318 | 93° | 57km/h | 953m | -2.7m/s | 13.4°C | 100% | 915.1hPa | 2.7V | 07:14:26 | 03:49:33 | 00:00:00 | i |
| DM0DOS-11 | 2026-09-03 14:39:09 | 51.22122 | 8.40187 | 69° | 42km/h | 971m | -2.8m/s | 13.6°C | 94.6% | 913hPa | 2.7V | 07:14:29 | 03:49:27 | 00:00:00 | i |
| BIOWL1-15 | 2026-09-03 14:39:08 | 51.22136 | 8.40270 | 86° | 60km/h | 959m | -3.5m/s | 13.7°C | 99.1% | 914.3hPa | 2.7V | 07:14:26 | 03:49:31 | 00:00:00 | i |
| BIOWL1-15 | 2026-09-03 14:39:07 | 51.22134 | 8.40246 | 80° | 60km/h | 963m | -3.1m/s | 13.6°C | 99.8% | 914.2hPa | 2.7V | 07:14:26 | 03:49:30 | 00:00:00 | i |
| BIOWL1-15 | 2026-09-03 14:39:06 | 51.22130 | 8.40223 | 72° | 55km/h | 966m | -2.7m/s | 13.6°C | 98.6% | 913.5hPa | 2.7V | 07:15:17 | 03:49:29 | 00:00:00 | i |
| BIOWL1-15 | 2026-09-03 14:39:04 | 51.22122 | 8.40187 | 70° | 42km/h | 971m | -2.8m/s | 13.6°C | 97.1% | 913hPa | 2.7V | 07:15:17 | 03:49:27 | 00:00:00 | i |
| DM0DOS-11 | 2026-09-03 14:39:03 | 51.22118 | 8.40157 | 87° | 38km/h | 978m | -3.1m/s | 13.4°C | 97.2% | 912.4hPa | 2.7V | 07:14:31 | 03:49:25 | 00:00:00 | i |
| DM0DOS-11 | 2026-09-03 14:39:03 | 51.22119 | 8.40120 | 95° | 55km/h | 984m | -2.7m/s | 13.4°C | 97.5% | 911.9hPa | 2.7V | 07:14:33 | 03:49:23 | 00:00:00 | i |
| DM0DOS-11 | 2026-09-03 14:39:03 | 51.22121 | 8.40071 | 89° | 64km/h | 990m | -3.2m/s | 13.2°C | 0% | 911.2hPa | 2.7V | 07:14:35 | 03:49:21 | 00:00:00 | i |
| BIOWL1-15 | 2026-09-03 14:39:03 | 51.22119 | 8.40172 | 77° | 38km/h | 974m | -3.4m/s | 13.5°C | 97.8% | 912.6hPa | 2.7V | 07:15:17 | 03:49:26 | 00:00:00 | i |
| BIOWL1-15 | 2026-09-03 14:39:01 | 51.22118 | 8.40140 | 94° | 46km/h | 981m | -2.9m/s | 13.4°C | 99.9% | 912.1hPa | 2.7V | 07:15:17 | 03:49:24 | 00:00:00 | i |
| BIOWL1-15 | 2026-09-03 14:38:59 | 51.22121 | 8.40071 | 89° | 64km/h | 990m | -3.2m/s | 13.2°C | 100% | 911.2hPa | 2.7V | 07:15:17 | 03:49:21 | 00:00:00 | i |
| BIOWL1-15 | 2026-09-03 14:38:59 | 51.22119 | 8.40045 | 83° | 64km/h | 993m | -3.7m/s | 13.2°C | 100% | 910.8hPa | 2.7V | 07:15:17 | 03:49:20 | 00:00:00 | i |
| DD1CC3-15 | 2026-09-03 14:38:58 | 51.22120 | 8.40097 | 95° | 62km/h | 986m | -3.0m/s | 13.3°C | 97.3% | 911.7hPa | 2.7V | 07:15:00 | 00:00:00 | 00:00:00 | i |
| DM0DOS-11 | 2026-09-03 14:38:57 | 51.22104 | 8.39944 | 88° | 42km/h | 1009m | -3m/s | 13.1°C | 0% | 908.9hPa | 2.7V | 07:14:41 | 03:49:15 | 00:00:00 | |
| BIOWL1-15 | 2026-09-03 14:38:55 | 51.22112 | 8.39998 | 71° | 53km/h | 999m | -3m/s | 13.1°C | 100% | 910hPa | 2.7V | 07:15:17 | 03:49:18 | 00:00:00 | i |
| BIOWL1-15 | 2026-09-03 14:38:54 | 51.22108 | 8.39979 | 72° | 47km/h | 1003m | -3.1m/s | 13.1°C | 100% | 909.8hPa | 2.7V | 07:15:17 | 03:49:17 | 00:00:00 | i |
| BIOWL1-15 | 2026-09-03 14:38:52 | 51.22104 | 8.39944 | 88° | 42km/h | 1009m | -3m/s | 13.1°C | 99.8% | 909hPa | 2.7V | 07:15:17 | 03:49:15 | 00:00:00 | i |
| DM0DOS-11 | 2026-09-03 14:38:51 | 51.22105 | 8.39906 | 91° | 55km/h | 1015m | -2.8m/s | 13.1°C | 97.4% | 908.2hPa | 2.7V | 07:14:43 | 03:49:13 | 00:00:00 | i |
| DM0DOS-11 | 2026-09-03 14:38:51 | 51.22097 | 8.39809 | 74° | 62km/h | 1026m | -3.1m/s | 12.9°C | 0% | 907.2hPa | 2.7V | 07:14:47 | 03:49:09 | 00:00:00 | i |
| BIOWL1-15 | 2026-09-03 14:38:50 | 51.22105 | 8.39906 | 91° | 55km/h | 1015m | -2.8m/s | 13.1°C | 95.6% | 908.2hPa | 2.7V | 07:15:17 | 03:49:13 | 00:00:00 | |
| BIOWL1-15 | 2026-09-03 14:38:49 | 51.22104 | 8.39883 | 87° | 58km/h | 1018m | -2.2m/s | 13°C | 96.3% | 908.1hPa | 2.7V | 07:15:17 | 03:49:12 | 00:00:00 | i |
| BIOWL1-15 | 2026-09-03 14:38:47 | 51.22100 | 8.39834 | 79° | 64km/h | 1023m | -2.9m/s | 12.9°C | 99.7% | 907.5hPa | 2.7V | 07:15:17 | 03:49:10 | 00:00:00 | i |
| DM0DOS-11 | 2026-09-03 14:38:45 | 51.22083 | 8.39732 | 80° | 40km/h | 1034m | -1.9m/s | 12.8°C | 0% | 906.2hPa | 2.7V | 07:14:51 | 03:49:05 | 00:00:00 | i |
| BIOWL1-15 | 2026-09-03 14:38:45 | 51.22092 | 8.39786 | 71° | 57km/h | 1029m | -2.3m/s | 12.9°C | 100% | 906.9hPa | 2.7V | 07:15:17 | 03:49:08 | 00:00:00 | i |
| BIOWL1-15 | 2026-09-03 14:38:43 | 51.22085 | 8.39748 | 77° | 42km/h | 1033m | -1.8m/s | 12.8°C | 100% | 906.4hPa | 2.7V | 07:15:17 | 03:49:06 | 00:00:00 | i |
| BIOWL1-15 | 2026-09-03 14:38:41 | 51.22082 | 8.39715 | 86° | 42km/h | 1037m | -2m/s | 12.8°C | 100% | 906.1hPa | 2.7V | 07:15:17 | 03:49:04 | 00:00:00 | i |
| BIOWL1-15 | 2026-09-03 14:38:40 | 51.22082 | 8.39698 | 93° | 47km/h | 1038m | -2.1m/s | 12.8°C | 100% | 905.8hPa | 2.7V | 07:15:17 | 03:49:03 | 00:00:00 | i |
| DM0DOS-11 | 2026-09-03 14:38:39 | 51.22083 | 8.39654 | 87° | 60km/h | 1043m | -1.8m/s | 12.8°C | 0% | 905.3hPa | 2.7V | 07:14:55 | 03:49:01 | 00:00:00 | i |
| DM0DOS-11 | 2026-09-03 14:38:39 | 51.22072 | 8.39559 | 72° | 49km/h | 1051m | -1.8m/s | 12.8°C | 0% | 904.5hPa | 2.7V | 07:14:59 | 03:48:57 | 00:00:00 | i |
| BIOWL1-15 | 2026-09-03 14:38:38 | 51.22082 | 8.39654 | 88° | 60km/h | 1043m | -1.8m/s | 12.8°C | 100% | 905.3hPa | 2.7V | 07:15:17 | 03:49:01 | 00:00:00 | i |
| BIOWL1-15 | 2026-09-03 14:38:37 | 51.22081 | 8.39629 | 84° | 64km/h | 1045m | -2m/s | 12.8°C | 100% | 905.3hPa | 2.7V | 07:15:17 | 03:49:00 | 00:00:00 | i |
| BIOWL1-15 | 2026-09-03 14:38:35 | 51.22068 | 8.39524 | 88° | 42km/h | 1055m | -2.3m/s | 12.8°C | 100% | 904.1hPa | 2.7V | 07:15:17 | 03:48:55 | 00:00:00 | i |
| BIOWL1-15 | 2026-09-03 14:38:35 | 51.22068 | 8.39507 | 94° | 46km/h | 1057m | -2.5m/s | 12.8°C | 100% | 903.8hPa | 2.7V | 07:15:17 | 03:48:54 | 00:00:00 | i |
| DM0DOS-11 | 2026-09-03 14:38:33 | 51.22069 | 8.39487 | 95° | 51km/h | 1060m | -2.3m/s | 12.7°C | 0% | 903.5hPa | 2.7V | 07:15:03 | 03:48:53 | 00:00:00 | i |
| DM0DOS-11 | 2026-09-03 14:38:33 | 51.22071 | 8.39441 | 91° | 62km/h | 1064m | -2.2m/s | 12.7°C | 0% | 903.1hPa | 2.7V | 07:15:05 | 03:48:51 | 00:00:00 | i |
| BIOWL1-15 | 2026-09-03 14:38:29 | 51.22071 | 8.39441 | 91° | 62km/h | 1064m | -2.2m/s | 12.7°C | 100% | 903.1hPa | 2.7V | 07:15:17 | 03:48:51 | 00:00:00 | i |
| BIOWL1-15 | 2026-09-03 14:38:29 | 51.22071 | 8.39416 | 89° | 64km/h | 1066m | -2.2m/s | 12.8°C | 100% | 902.9hPa | 2.7V | 07:15:17 | 03:48:50 | 00:00:00 | i |
| DM0DOS-11 | 2026-09-03 14:38:27 | 51.22070 | 8.39389 | 86° | 68km/h | 1069m | -2.9m/s | 12.9°C | 96.2% | 902.8hPa | 2.7V | 07:15:07 | 03:48:49 | 00:00:00 | i |
| DM0DOS-11 | 2026-09-03 14:38:27 | 51.22058 | 8.39282 | 71° | 58km/h | 1082m | -2.8m/s | 12.8°C | 97.6% | 901.4hPa | 2.7V | 07:15:11 | 03:48:45 | 00:00:00 | i |
| BIOWL1-15 | 2026-09-03 14:38:25 | 51.22066 | 8.39333 | 81° | 71km/h | 1075m | -3.4m/s | 12.8°C | 99.9% | 902.1hPa | 2.7V | 07:15:17 | 03:48:47 | 00:00:00 | i |
| BIOWL1-15 | 2026-09-03 14:38:25 | 51.22062 | 8.39306 | 76° | 66km/h | 1079m | -3.3m/s | 12.8°C | 98.8% | 901.6hPa | 2.7V | 07:15:17 | 03:48:46 | 00:00:00 | i |
| BIOWL1-15 | 2026-09-03 14:38:21 | 51.22051 | 8.39243 | 81° | 44km/h | 1087m | -2.3m/s | 12.7°C | 97.6% | 900.6hPa | 2.7V | 07:15:17 | 03:48:43 | 00:00:00 | i |
| DM0DOS-11 | 2026-09-03 14:38:21 | 51.22051 | 8.39205 | 95° | 53km/h | 1091m | -2.2m/s | 12.7°C | 97.7% | 900.2hPa | 2.7V | 07:15:15 | 03:48:41 | 00:00:00 | i |
| DM0DOS-11 | 2026-09-03 14:38:21 | 51.22053 | 8.39156 | 90° | 66km/h | 1096m | -1.9m/s | 12.6°C | 98.2% | 899.7hPa | 2.7V | 07:15:17 | 03:48:39 | 00:00:00 | i |
| BIOWL1-15 | 2026-09-03 14:38:21 | 51.22050 | 8.39225 | 90° | 46km/h | 1089m | -2.5m/s | 12.7°C | 97.4% | 900.2hPa | 2.7V | 07:15:17 | 03:48:42 | 00:00:00 | i |
| BIOWL1-15 | 2026-09-03 14:38:17 | 51.22053 | 8.39156 | 91° | 66km/h | 1096m | -1.9m/s | 12.6°C | 97.3% | 899.7hPa | 2.7V | 07:15:17 | 03:48:39 | 00:00:00 | i |
| BIOWL1-15 | 2026-09-03 14:38:17 | 51.22052 | 8.39129 | 87° | 69km/h | 1098m | -1.9m/s | 12.6°C | 97.8% | 899.5hPa | 2.7V | 07:16:08 | 03:48:38 | 00:00:00 | i |
| DD1CC3-15 | 2026-09-03 14:38:16 | 51.22052 | 8.39182 | 95° | 60km/h | 1094m | -2.0m/s | 12.7°C | 96.8% | 899.8hPa | 2.7V | 07:15:00 | 00:00:00 | 00:00:00 | |
| DM0DOS-11 | 2026-09-03 14:38:15 | 51.22050 | 8.39101 | 82° | 71km/h | 1099m | -1.6m/s | 12.5°C | 99.9% | 899.4hPa | 2.7V | 07:15:19 | 03:48:37 | 00:00:00 | i |
| DM0DOS-11 | 2026-09-03 14:38:15 | 51.22043 | 8.39046 | 72° | 66km/h | 1103m | -1.8m/s | 12.6°C | 98.6% | 898.9hPa | 2.7V | 07:15:21 | 03:48:35 | 00:00:00 | i |
| DM0DOS-11 | 2026-09-03 14:38:15 | 51.22034 | 8.39001 | 74° | 51km/h | 1107m | -1.7m/s | 12.7°C | 96.1% | 898.4hPa | 2.7V | 07:15:23 | 03:48:33 | 00:00:00 | i |
| BIOWL1-15 | 2026-09-03 14:38:13 | 51.22048 | 8.39073 | 78° | 71km/h | 1101m | -1.7m/s | 12.5°C | 98.9% | 899.2hPa | 2.7V | 07:16:08 | 03:48:36 | 00:00:00 | i |
| BIOWL1-15 | 2026-09-03 14:38:11 | 51.22031 | 8.38982 | 81° | 47km/h | 1109m | -2.5m/s | 12.6°C | 99.3% | 898.3hPa | 2.7V | 07:16:08 | 03:48:32 | 00:00:00 | i |
| BIOWL1-15 | 2026-09-03 14:38:11 | 51.22030 | 8.38963 | 85° | 47km/h | 1111m | -2.1m/s | 12.5°C | 100% | 898hPa | 2.7V | 07:16:08 | 03:48:31 | 00:00:00 | i |
| DM0DOS-11 | 2026-09-03 14:38:09 | 51.22030 | 8.38963 | 85° | 47km/h | 1111m | -2.1m/s | 12.5°C | 98.6% | 898hPa | 2.7V | 07:15:25 | 03:48:31 | 00:00:00 | i |
| DM0DOS-11 | 2026-09-03 14:38:09 | 51.22033 | 8.38875 | 98° | 62km/h | 1123m | -3.5m/s | 12.7°C | 93.2% | 897hPa | 2.7V | 07:15:29 | 03:48:27 | 00:00:00 | i |
| BIOWL1-15 | 2026-09-03 14:38:09 | 51.22029 | 8.38943 | 90° | 51km/h | 1114m | -2.4m/s | 12.5°C | 100% | 897.8hPa | 2.7V | 07:16:08 | 03:48:30 | 00:00:00 | i |
| BIOWL1-15 | 2026-09-03 14:38:05 | 51.22031 | 8.38899 | 96° | 58km/h | 1119m | -3.2m/s | 12.5°C | 99.2% | 897.1hPa | 2.7V | 07:16:08 | 03:48:28 | 00:00:00 | i |
| BIOWL1-15 | 2026-09-03 14:38:04 | 51.22033 | 8.38875 | 98° | 62km/h | 1123m | -3.5m/s | 12.7°C | 95.2% | 897hPa | 2.7V | 07:16:08 | 03:48:27 | 00:00:00 | i |
| DM0DOS-11 | 2026-09-03 14:38:03 | 51.22029 | 8.38773 | 75° | 58km/h | 1134m | -2.5m/s | 13°C | 87% | 895.5hPa | 2.7V | 07:15:33 | 03:48:23 | 00:00:00 | i |
| DM0DOS-11 | 2026-09-03 14:38:03 | 51.22025 | 8.38731 | 87° | 47km/h | 1139m | -2.5m/s | 12.7°C | 90.5% | 895.1hPa | 2.7V | 07:15:35 | 03:48:21 | 00:00:00 | i |
| BIOWL1-15 | 2026-09-03 14:38:03 | 51.22034 | 8.38850 | 94° | 64km/h | 1126m | -3.4m/s | 12.7°C | 95.6% | 896.4hPa | 2.7V | 07:16:08 | 03:48:26 | 00:00:00 | i |
| BIOWL1-15 | 2026-09-03 14:38:01 | 51.22033 | 8.38797 | 81° | 66km/h | 1132m | -2.1m/s | 13.1°C | 87.7% | 895.8hPa | 2.8V | 07:16:08 | 03:48:24 | 00:00:00 | i |
| BIOWL1-15 | 2026-09-03 14:37:59 | 51.22027 | 8.38751 | 79° | 51km/h | 1137m | -2.6m/s | 13°C | 88.4% | 895.3hPa | 2.7V | 07:16:08 | 03:48:22 | 00:00:00 | i |
| DM0DOS-11 | 2026-09-03 14:37:57 | 51.22030 | 8.38642 | 97° | 64km/h | 1149m | -2.5m/s | 12.5°C | 91.9% | 893.9hPa | 2.7V | 07:15:39 | 03:48:17 | 00:00:00 | i |
| BIOWL1-15 | 2026-09-03 14:37:57 | 51.22025 | 8.38711 | 94° | 51km/h | 1142m | -2.4m/s | 12.8°C | 92.8% | 894.8hPa | 2.7V | 07:16:08 | 03:48:20 | 00:00:00 | i |
| BIOWL1-15 | 2026-09-03 14:37:55 | 51.22028 | 8.38667 | 97° | 60km/h | 1147m | -2.2m/s | 12.7°C | 93.6% | 894.4hPa | 2.7V | 07:16:08 | 03:48:18 | 00:00:00 | i |
| BIOWL1-15 | 2026-09-03 14:37:53 | 51.22032 | 8.38616 | 95° | 69km/h | 1152m | -3m/s | 12.2°C | 100% | 893.6hPa | 2.7V | 07:16:08 | 03:48:16 | 00:00:00 | i |
| BIOWL1-15 | 2026-09-03 14:37:51 | 51.22032 | 8.38528 | 83° | 73km/h | 1160m | -2.9m/s | 12.2°C | 98.9% | 892.8hPa | 2.7V | 07:16:08 | 03:48:13 | 00:00:00 | i |
| DM0DOS-11 | 2026-09-03 14:37:51 | 51.22026 | 8.38475 | 77° | 58km/h | 1166m | -2.6m/s | 12.4°C | 93% | 892hPa | 2.7V | 07:15:45 | 03:48:11 | 00:00:00 | i |
| DM0DOS-11 | 2026-09-03 14:37:51 | 51.22023 | 8.38433 | 91° | 51km/h | 1171m | -2.6m/s | 12.2°C | 97.2% | 891.7hPa | 2.7V | 07:15:47 | 03:48:09 | 00:00:00 | i |
| BIOWL1-15 | 2026-09-03 14:37:51 | 51.22029 | 8.38500 | 78° | 68km/h | 1163m | -2.6m/s | 12.3°C | 97.7% | 892.4hPa | 2.7V | 07:16:08 | 03:48:12 | 00:00:00 | i |
| BIOWL1-15 | 2026-09-03 14:37:47 | 51.22023 | 8.38433 | 92° | 51km/h | 1171m | -2.6m/s | 12.2°C | 97.2% | 891.7hPa | 2.7V | 07:16:08 | 03:48:09 | 00:00:00 | i |
| BIOWL1-15 | 2026-09-03 14:37:47 | 51.22024 | 8.38412 | 98° | 55km/h | 1173m | -2.6m/s | 12.2°C | 97.5% | 891.4hPa | 2.7V | 07:16:08 | 03:48:08 | 00:00:00 | i |
| DM0DOS-11 | 2026-09-03 14:37:45 | 51.22035 | 8.38275 | 88° | 78km/h | 1186m | -2.7m/s | 12.6°C | 86.5% | 889.9hPa | 2.7V | 07:15:53 | 03:48:03 | 00:00:00 | i |
| BIOWL1-15 | 2026-09-03 14:37:43 | 51.22035 | 8.38275 | 89° | 78km/h | 1186m | -2.7m/s | 12.6°C | 88.3% | 889.9hPa | 2.7V | 07:16:08 | 03:48:03 | 00:00:00 | i |
| BIOWL1-15 | 2026-09-03 14:37:43 | 51.22034 | 8.38244 | 83° | 75km/h | 1189m | -2.7m/s | 12.6°C | 88.1% | 889.7hPa | 2.7V | 07:16:08 | 03:48:02 | 00:00:00 | i |
| BIOWL7-15 | 2026-09-03 14:37:40 | 51.22035 | 8.38306 | 95° | 77km/h | 1184m | -2.7m/s | 12.5°C | 87.1% | 890.3hPa | 2.7V | 07:16:00 | 00:00:00 | 00:00:00 | |
| DM0DOS-11 | 2026-09-03 14:37:39 | 51.22028 | 8.38169 | 89° | 53km/h | 1197m | -2.4m/s | 12.6°C | 85.6% | 888.9hPa | 2.7V | 07:15:57 | 03:47:59 | 00:00:00 | i |
| BIOWL1-15 | 2026-09-03 14:37:37 | 51.22028 | 8.38169 | 90° | 53km/h | 1197m | -2.4m/s | 12.6°C | 87.7% | 888.9hPa | 2.7V | 07:16:08 | 03:47:59 | 00:00:00 | i |
| BIOWL1-15 | 2026-09-03 14:37:37 | 51.22029 | 8.38147 | 98° | 55km/h | 1199m | -2.5m/s | 12.6°C | 87.6% | 888.6hPa | 2.7V | 07:16:08 | 03:47:58 | 00:00:00 | i |
| BIOWL1-15 | 2026-09-03 14:37:34 | 51.22031 | 8.38124 | 101° | 62km/h | 1202m | -2.5m/s | 12.6°C | 87.6% | 888.4hPa | 2.7V | 07:16:08 | 03:47:57 | 00:00:00 | i |
| DM0DOS-11 | 2026-09-03 14:37:33 | 51.22039 | 8.38006 | 88° | 78km/h | 1211m | -2.5m/s | 12.5°C | 86.8% | 887.5hPa | 2.7V | 07:16:03 | 03:47:53 | 00:00:00 | i |
| DM0DOS-11 | 2026-09-03 14:37:33 | 51.22035 | 8.37944 | 81° | 73km/h | 1216m | -2.5m/s | 12.5°C | 85.8% | 886.8hPa | 2.7V | 07:16:05 | 03:47:51 | 00:00:00 | i |
| BIOWL1-15 | 2026-09-03 14:37:33 | 51.22034 | 8.38098 | 100° | 69km/h | 1204m | -2.5m/s | 12.6°C | 87.6% | 888hPa | 2.6V | 07:16:08 | 03:47:56 | 00:00:00 | i |
| BIOWL1-15 | 2026-09-03 14:37:31 | 51.22038 | 8.38038 | 92° | 78km/h | 1209m | -2.3m/s | 12.5°C | 88.4% | 887.5hPa | 2.7V | 07:16:08 | 03:47:54 | 00:00:00 | i |
| BIOWL1-15 | 2026-09-03 14:37:29 | 51.22037 | 8.37974 | 85° | 77km/h | 1214m | -2.6m/s | 12.5°C | 87.9% | 887.1hPa | 2.7V | 07:16:08 | 03:47:52 | 00:00:00 | i |
| BIOWL1-15 | 2026-09-03 14:37:28 | 51.22035 | 8.37944 | 81° | 73km/h | 1216m | -2.5m/s | 12.5°C | 87.9% | 886.8hPa | 2.7V | 07:16:08 | 03:47:51 | 00:00:00 | i |
| DM0DOS-11 | 2026-09-03 14:37:27 | 51.22029 | 8.37892 | 81° | 58km/h | 1221m | -2.4m/s | 12.5°C | 85.6% | 886.3hPa | 2.7V | 07:16:07 | 03:47:49 | 00:00:00 | |
| DM0DOS-11 | 2026-09-03 14:37:27 | 51.22028 | 8.37848 | 93° | 53km/h | 1226m | -2.5m/s | 12.5°C | 86% | 885.8hPa | 2.7V | 07:16:09 | 03:47:47 | 00:00:00 | |
| DM0DOS-11 | 2026-09-03 14:37:27 | 51.22033 | 8.37802 | 101° | 64km/h | 1231m | -2.6m/s | 12.5°C | 85.9% | 885.2hPa | 2.7V | 07:16:11 | 03:47:45 | 00:00:00 | |
| BIOWL1-15 | 2026-09-03 14:37:26 | 51.22029 | 8.37892 | 82° | 58km/h | 1221m | -2.4m/s | 12.5°C | 87.7% | 886.3hPa | 2.7V | 07:16:08 | 03:47:49 | 00:00:00 | i |
| BIOWL1-15 | 2026-09-03 14:37:24 | 51.22030 | 8.37826 | 100° | 57km/h | 1229m | -2.6m/s | 12.5°C | 88.1% | 885.5hPa | 2.7V | 07:16:59 | 03:47:46 | 00:00:00 | i |
| BIOWL1-15 | 2026-09-03 14:37:24 | 51.22033 | 8.37802 | 102° | 64km/h | 1231m | -2.6m/s | 12.5°C | 88.3% | 885.2hPa | 2.7V | 07:16:59 | 03:47:45 | 00:00:00 | i |
| DM0DOS-11 | 2026-09-03 14:37:21 | 51.22041 | 8.37683 | 87° | 78km/h | 1241m | -2.6m/s | 12.3°C | 86.5% | 884.1hPa | 2.7V | 07:16:15 | 03:47:41 | 00:00:00 | i |
| BIOWL1-15 | 2026-09-03 14:37:20 | 51.22040 | 8.37715 | 93° | 80km/h | 1239m | -2.5m/s | 12.4°C | 88.5% | 884.5hPa | 2.7V | 07:16:59 | 03:47:42 | 00:00:00 | i |
| BIOWL1-15 | 2026-09-03 14:37:20 | 51.22041 | 8.37683 | 88° | 78km/h | 1241m | -2.6m/s | 12.3°C | 88.3% | 884.1hPa | 2.7V | 07:16:59 | 03:47:41 | 00:00:00 | i |
| BIOWL1-15 | 2026-09-03 14:37:16 | 51.22037 | 8.37624 | 81° | 66km/h | 1247m | -2.4m/s | 12.3°C | 88.7% | 883.6hPa | 2.7V | 07:16:59 | 03:47:39 | 00:00:00 | i |
| DD1CC3-15 | 2026-09-03 14:37:15 | 51.22036 | 8.37624 | 82° | 66km/h | 1247m | -2.4m/s | 12.3°C | 85.9% | 883.6hPa | 2.7V | 00:00:00 | 00:00:00 | 00:00:00 | i |
| DM0DOS-11 | 2026-09-03 14:37:15 | 51.22040 | 8.37483 | 101° | 69km/h | 1262m | -2.7m/s | 12.2°C | 86.9% | 882.1hPa | 2.7V | 07:16:23 | 03:47:33 | 00:00:00 | i |
| BIOWL1-15 | 2026-09-03 14:37:15 | 51.22034 | 8.37599 | 83° | 58km/h | 1249m | -2.4m/s | 12.3°C | 88.7% | 883.4hPa | 2.7V | 07:16:59 | 03:47:38 | 00:00:00 | i |
| BIOWL1-15 | 2026-09-03 14:37:13 | 51.22033 | 8.37554 | 92° | 53km/h | 1254m | -2.5m/s | 12.3°C | 89.2% | 882.9hPa | 2.7V | 07:16:59 | 03:47:36 | 00:00:00 | i |
| BIOWL1-15 | 2026-09-03 14:37:11 | 51.22037 | 8.37509 | 101° | 62km/h | 1259m | -2.7m/s | 12.2°C | 89% | 882.4hPa | 2.7V | 07:16:59 | 03:47:34 | 00:00:00 | i |
| DM0DOS-11 | 2026-09-03 14:37:09 | 51.22046 | 8.37423 | 96° | 80km/h | 1267m | -2.5m/s | 12.2°C | 86.8% | 881.6hPa | 2.7V | 07:16:25 | 03:47:31 | 00:00:00 | i |
| DM0DOS-11 | 2026-09-03 14:37:09 | 51.22043 | 8.37301 | 82° | 64km/h | 1277m | -2.2m/s | 12.1°C | 87.5% | 880.5hPa | 2.7V | 07:16:29 | 03:47:27 | 00:00:00 | i |
| BIOWL1-15 | 2026-09-03 14:37:09 | 51.22044 | 8.37455 | 100° | 75km/h | 1265m | -2.5m/s | 12.2°C | 89% | 881.8hPa | 2.7V | 07:16:59 | 03:47:32 | 00:00:00 | i |
| BIOWL1-15 | 2026-09-03 14:37:07 | 51.22048 | 8.37391 | 92° | 82km/h | 1270m | -2.6m/s | 12.2°C | 89% | 881.3hPa | 2.7V | 07:16:59 | 03:47:30 | 00:00:00 | i |
| BIOWL1-15 | 2026-09-03 14:37:05 | 51.22043 | 8.37301 | 82° | 64km/h | 1277m | -2.2m/s | 12.1°C | 89.2% | 880.5hPa | 2.7V | 07:16:59 | 03:47:27 | 00:00:00 | i |
| BIOWL1-15 | 2026-09-03 14:37:05 | 51.22042 | 8.37277 | 86° | 57km/h | 1280m | -2.2m/s | 12.1°C | 89.4% | 880.1hPa | 2.7V | 07:16:59 | 03:47:26 | 00:00:00 | i |
| BIOWL1-15 | 2026-09-03 14:37:01 | 51.22046 | 8.37210 | 104° | 62km/h | 1287m | -2.8m/s | 12°C | 89.7% | 879.7hPa | 2.7V | 07:16:59 | 03:47:23 | 00:00:00 | i |
| BIOWL1-15 | 2026-09-03 14:37:01 | 51.22050 | 8.37184 | 105° | 69km/h | 1290m | -2.6m/s | 12.1°C | 88.2% | 879.3hPa | 2.7V | 07:16:59 | 03:47:22 | 00:00:00 | i |
| BIOWL1-15 | 2026-09-03 14:36:58 | 51.22054 | 8.37156 | 102° | 77km/h | 1292m | -2.5m/s | 12°C | 88.6% | 879hPa | 2.7V | 07:16:59 | 03:47:21 | 00:00:00 | i |
| BIOWL1-15 | 2026-09-03 14:36:56 | 51.22059 | 8.37092 | 91° | 80km/h | 1298m | -2.9m/s | 12°C | 88.6% | 878.3hPa | 2.7V | 07:16:59 | 03:47:19 | 00:00:00 | i |
| BIOWL1-15 | 2026-09-03 14:36:55 | 51.22058 | 8.37060 | 86° | 77km/h | 1301m | -2.7m/s | 12°C | 88.1% | 878hPa | 2.7V | 07:16:59 | 03:47:18 | 00:00:00 | i |
| BIOWL1-15 | 2026-09-03 14:36:53 | 51.22055 | 8.37005 | 84° | 60km/h | 1306m | -2.6m/s | 12°C | 88.7% | 877.7hPa | 2.7V | 07:16:59 | 03:47:16 | 00:00:00 | i |
| DM0DOS-11 | 2026-09-03 14:36:52 | 51.22057 | 8.36937 | 103° | 58km/h | 1314m | -2.9m/s | 11.9°C | 85.7% | 876.7hPa | 2.7V | 07:16:43 | 03:47:13 | 00:00:00 | i |
| DM0DOS-11 | 2026-09-03 14:36:52 | 51.22065 | 8.36886 | 103° | 73km/h | 1320m | -2.7m/s | 11.8°C | 86.2% | 876.1hPa | 2.7V | 07:16:45 | 03:47:11 | 00:00:00 | i |
| BIOWL1-15 | 2026-09-03 14:36:51 | 51.22055 | 8.36960 | 98° | 55km/h | 1311m | -2.8m/s | 11.9°C | 88.6% | 877.2hPa | 2.7V | 07:16:59 | 03:47:14 | 00:00:00 | i |
| BIOWL1-15 | 2026-09-03 14:36:50 | 51.22057 | 8.36937 | 103° | 58km/h | 1314m | -2.9m/s | 11.9°C | 88.6% | 876.7hPa | 2.7V | 07:16:59 | 03:47:13 | 00:00:00 | i |
| BIOWL1-15 | 2026-09-03 14:36:48 | 51.22072 | 8.36824 | 96° | 80km/h | 1325m | -2.8m/s | 11.8°C | 89.5% | 875.5hPa | 2.7V | 07:16:59 | 03:47:09 | 00:00:00 | i |
| BIOWL1-15 | 2026-09-03 14:36:48 | 51.22073 | 8.36792 | 90° | 80km/h | 1328m | -2.8m/s | 11.7°C | 89.7% | 875.2hPa | 2.7V | 07:16:59 | 03:47:08 | 00:00:00 | i |
| BIOWL1-15 | 2026-09-03 14:36:46 | 51.22072 | 8.36760 | 86° | 77km/h | 1331m | -2.8m/s | 11.7°C | 89.6% | 875hPa | 2.7V | 07:16:59 | 03:47:07 | 00:00:00 | i |
| DM0DOS-11 | 2026-09-03 14:36:45 | 51.22073 | 8.36760 | 85° | 77km/h | 1330m | -2.8m/s | 11.7°C | 86.9% | 875hPa | 2.7V | 07:16:49 | 03:47:07 | 00:00:00 | i |
| DM0DOS-11 | 2026-09-03 14:36:45 | 51.22067 | 8.36657 | 94° | 55km/h | 1342m | -2.7m/s | 11.6°C | 86.7% | 873.7hPa | 2.7V | 07:16:53 | 03:47:03 | 00:00:00 | i |
| BIOWL1-15 | 2026-09-03 14:36:42 | 51.22068 | 8.36703 | 82° | 64km/h | 1337m | -3m/s | 11.7°C | 89.6% | 874.3hPa | 2.7V | 07:16:59 | 03:47:05 | 00:00:00 | i |
| BIOWL1-15 | 2026-09-03 14:36:40 | 51.22067 | 8.36657 | 95° | 55km/h | 1342m | -2.7m/s | 11.6°C | 89.6% | 873.7hPa | 2.7V | 07:16:59 | 03:47:03 | 00:00:00 | i |
| DM0DOS-11 | 2026-09-03 14:36:39 | 51.22073 | 8.36611 | 106° | 66km/h | 1348m | -3m/s | 11.6°C | 87% | 873.1hPa | 2.7V | 07:16:55 | 03:47:01 | 00:00:00 | i |
| DM0DOS-11 | 2026-09-03 14:36:39 | 51.22082 | 8.36554 | 100° | 78km/h | 1354m | -2.9m/s | 11.6°C | 86.8% | 872.6hPa | 2.7V | 07:16:57 | 03:46:59 | 00:00:00 | i |
| BIOWL1-15 | 2026-09-03 14:36:39 | 51.22069 | 8.36635 | 103° | 58km/h | 1345m | -2.8m/s | 11.6°C | 89.8% | 873.5hPa | 2.7V | 07:16:59 | 03:47:02 | 00:00:00 | i |
| BIOWL1-15 | 2026-09-03 14:36:38 | 51.22073 | 8.36611 | 106° | 66km/h | 1348m | -3m/s | 11.6°C | 89.7% | 873.1hPa | 2.7V | 07:16:59 | 03:47:01 | 00:00:00 | i |
| BIOWL1-15 | 2026-09-03 14:36:36 | 51.22082 | 8.36554 | 101° | 78km/h | 1354m | -2.9m/s | 11.6°C | 89.5% | 872.6hPa | 2.7V | 07:16:59 | 03:46:59 | 00:00:00 | i |
| BIOWL1-15 | 2026-09-03 14:36:35 | 51.22085 | 8.36522 | 95° | 82km/h | 1357m | -3m/s | 11.5°C | 89.6% | 872.2hPa | 2.7V | 07:16:59 | 03:46:58 | 00:00:00 | i |
| BIOWL7-15 | 2026-09-03 14:36:34 | 51.22085 | 8.36522 | 96° | 82km/h | 1357m | -3.0m/s | 11.5°C | 85.6% | 872.2hPa | 2.7V | 07:16:00 | 00:00:00 | 00:00:00 | |
| DD1CC3-15 | 2026-09-03 14:36:34 | 51.22085 | 8.36522 | 96° | 82km/h | 1357m | -3.0m/s | 11.5°C | 85.6% | 872.2hPa | 2.7V | 00:00:00 | 00:00:00 | 00:00:00 | |
| DM0DOS-11 | 2026-09-03 14:36:33 | 51.22083 | 8.36429 | 82° | 68km/h | 1366m | -3.1m/s | 11.4°C | 86.9% | 871.3hPa | 2.7V | 07:17:01 | 03:46:55 | 00:00:00 | i |
| BIOWL1-15 | 2026-09-03 14:36:33 | 51.22085 | 8.36458 | 85° | 75km/h | 1363m | -3.1m/s | 11.5°C | 90% | 871.6hPa | 2.8V | 07:17:50 | 03:46:56 | 00:00:00 | i |
| BIOWL1-15 | 2026-09-03 14:36:31 | 51.22081 | 8.36403 | 84° | 60km/h | 1369m | -3m/s | 11.4°C | 89.5% | 871hPa | 2.7V | 07:17:50 | 03:46:54 | 00:00:00 | i |
| BIOWL1-15 | 2026-09-03 14:36:30 | 51.22080 | 8.36380 | 91° | 55km/h | 1372m | -2.9m/s | 11.4°C | 89.4% | 870.5hPa | 2.7V | 07:17:50 | 03:46:53 | 00:00:00 | i |
| BIOWL1-15 | 2026-09-03 14:36:28 | 51.22089 | 8.36309 | 105° | 69km/h | 1380m | -2.8m/s | 11.3°C | 89.5% | 869.9hPa | 2.7V | 07:17:50 | 03:46:50 | 00:00:00 | i |
| BIOWL1-15 | 2026-09-03 14:36:28 | 51.22093 | 8.36280 | 102° | 77km/h | 1383m | -2.8m/s | 11.3°C | 89.8% | 869.6hPa | 2.7V | 07:17:50 | 03:46:49 | 00:00:00 | i |
| BIOWL1-15 | 2026-09-03 14:36:25 | 51.22096 | 8.36249 | 97° | 80km/h | 1386m | -2.7m/s | 11.3°C | 90.1% | 869.2hPa | 2.7V | 07:17:50 | 03:46:48 | 00:00:00 | i |
| BIOWL1-15 | 2026-09-03 14:36:23 | 51.22092 | 8.36056 | 96° | 53km/h | 1406m | -3m/s | 11.1°C | 91% | 867.1hPa | 2.7V | 07:17:50 | 03:46:41 | 00:00:00 | i |
| BIOWL1-15 | 2026-09-03 14:36:23 | 51.22094 | 8.36034 | 104° | 58km/h | 1409m | -2.9m/s | 11.1°C | 90.8% | 866.8hPa | 2.7V | 07:17:50 | 03:46:40 | 00:00:00 | i |
| DM0DOS-11 | 2026-09-03 14:36:21 | 51.22093 | 8.36101 | 83° | 60km/h | 1400m | -2.9m/s | 11.2°C | 88.3% | 867.6hPa | 2.7V | 07:17:13 | 03:46:43 | 00:00:00 | i |
| DM0DOS-11 | 2026-09-03 14:36:21 | 51.22092 | 8.36056 | 95° | 53km/h | 1406m | -3m/s | 11.1°C | 88.8% | 867.1hPa | 2.7V | 07:17:15 | 03:46:41 | 00:00:00 | i |
| BIOWL1-15 | 2026-09-03 14:36:15 | 51.22106 | 8.35952 | 98° | 78km/h | 1418m | -2.8m/s | 11°C | 90.8% | 866hPa | 2.7V | 07:17:50 | 03:46:37 | 00:00:00 | i |
| DM0DOS-11 | 2026-09-03 14:36:15 | 51.22106 | 8.35952 | 97° | 78km/h | 1418m | -2.8m/s | 11°C | 89% | 866hPa | 2.7V | 07:17:19 | 03:46:37 | 00:00:00 | i |
| DM0DOS-11 | 2026-09-03 14:36:15 | 51.22108 | 8.35889 | 87° | 77km/h | 1423m | -2.7m/s | 11°C | 89.4% | 865.4hPa | 2.7V | 07:17:21 | 03:46:35 | 00:00:00 | i |
| DM0DOS-11 | 2026-09-03 14:36:15 | 51.22104 | 8.35831 | 81° | 68km/h | 1429m | -2.9m/s | 10.9°C | 89.4% | 864.8hPa | 2.7V | 07:17:23 | 03:46:33 | 00:00:00 | i |
| BIOWL1-15 | 2026-09-03 14:36:15 | 51.22108 | 8.35921 | 92° | 78km/h | 1420m | -2.7m/s | 11°C | 91.1% | 865.7hPa | 2.7V | 07:17:50 | 03:46:36 | 00:00:00 | i |
| BIOWL1-15 | 2026-09-03 14:36:12 | 51.22108 | 8.35889 | 88° | 77km/h | 1423m | -2.7m/s | 11°C | 91.5% | 865.4hPa | 2.7V | 07:17:50 | 03:46:35 | 00:00:00 | i |
| BIOWL1-15 | 2026-09-03 14:36:10 | 51.22104 | 8.35831 | 82° | 68km/h | 1429m | -2.9m/s | 10.9°C | 91.8% | 864.8hPa | 2.7V | 07:17:50 | 03:46:33 | 00:00:00 | i |
| BIOWL1-15 | 2026-09-03 14:36:08 | 51.22100 | 8.35782 | 87° | 57km/h | 1434m | -2.8m/s | 10.9°C | 91.7% | 864.1hPa | 2.7V | 07:17:50 | 03:46:31 | 00:00:00 | i |
| BIOWL1-15 | 2026-09-03 14:36:06 | 51.22103 | 8.35738 | 103° | 57km/h | 1440m | -2.6m/s | 10.8°C | 91.9% | 863.6hPa | 2.7V | 07:17:50 | 03:46:29 | 00:00:00 | i |
| BIOWL1-15 | 2026-09-03 14:36:05 | 51.22107 | 8.35714 | 106° | 64km/h | 1443m | -2.8m/s | 10.8°C | 92.1% | 863.2hPa | 2.7V | 07:17:50 | 03:46:28 | 00:00:00 | i |
| BIOWL1-15 | 2026-09-03 14:36:03 | 51.22116 | 8.35659 | 102° | 77km/h | 1448m | -2.9m/s | 10.7°C | 92.3% | 862.9hPa | 2.7V | 07:17:50 | 03:46:26 | 00:00:00 | i |
| DM0DOS-11 | 2026-09-03 14:36:02 | 51.22118 | 8.35534 | 83° | 68km/h | 1460m | -2.8m/s | 10.7°C | 90.7% | 861.6hPa | 2.7V | 07:17:34 | 03:46:22 | 00:00:00 | i |
| DM0DOS-11 | 2026-09-03 14:36:02 | 51.22116 | 8.35485 | 94° | 57km/h | 1465m | -2.7m/s | 10.6°C | 90.5% | 861hPa | 2.7V | 07:17:36 | 03:46:20 | 00:00:00 | i |
| BIOWL1-15 | 2026-09-03 14:36:01 | 51.22119 | 8.35563 | 86° | 77km/h | 1457m | -3.1m/s | 10.7°C | 92.4% | 861.9hPa | 2.7V | 07:17:50 | 03:46:23 | 00:00:00 | i |
| BIOWL1-15 | 2026-09-03 14:36:01 | 51.22118 | 8.35534 | 84° | 68km/h | 1460m | -2.8m/s | 10.7°C | 92.3% | 861.6hPa | 2.7V | 07:17:50 | 03:46:22 | 00:00:00 | i |
| BIOWL1-15 | 2026-09-03 14:35:57 | 51.22116 | 8.35485 | 95° | 57km/h | 1465m | -2.7m/s | 10.6°C | 92.6% | 861hPa | 2.7V | 07:17:50 | 03:46:20 | 00:00:00 | i |
| DM0DOS-11 | 2026-09-03 14:35:56 | 51.22131 | 8.35382 | 102° | 77km/h | 1476m | -2.9m/s | 10.5°C | 91.5% | 859.8hPa | 2.7V | 07:17:40 | 03:46:16 | 00:00:00 | i |
| BIOWL1-15 | 2026-09-03 14:35:55 | 51.22135 | 8.35351 | 98° | 80km/h | 1479m | -2.9m/s | 10.6°C | 93.1% | 859.5hPa | 2.7V | 07:17:50 | 03:46:15 | 00:00:00 | i |
| BIOWL1-15 | 2026-09-03 14:35:55 | 51.22137 | 8.35318 | 94° | 80km/h | 1483m | -2.9m/s | 10.6°C | 93.7% | 859.1hPa | 2.7V | 07:17:50 | 03:46:14 | 00:00:00 | i |
| DB0UT-7 | 2026-09-03 14:35:54 | 51.22127 | 8.35411 | 105° | 71km/h | 1474m | -2.8m/s | 10.5°C | 91.3% | 860.0hPa | 2.7V | 00:00:00 | 03:46:17 | 00:00:00 | |
| DD1CC3-15 | 2026-09-03 14:35:53 | 51.22127 | 8.35411 | 106° | 71km/h | 1474m | -2.8m/s | 10.5°C | 90.1% | 860.0hPa | 2.7V | 07:17:00 | 00:00:00 | 00:00:00 | |
| BIOWL7-15 | 2026-09-03 14:35:52 | 51.22131 | 8.35382 | 104° | 77km/h | 1477m | -2.9m/s | 10.5°C | 90.3% | 859.8hPa | 2.7V | 07:17:00 | 00:00:00 | 00:00:00 | |
| DM0DOS-11 | 2026-09-03 14:35:50 | 51.22136 | 8.35255 | 85° | 73km/h | 1488m | -2.9m/s | 10.5°C | 92.1% | 858.6hPa | 2.7V | 07:17:44 | 03:46:12 | 00:00:00 | i |
| DM0DOS-11 | 2026-09-03 14:35:50 | 51.22134 | 8.35200 | 87° | 62km/h | 1494m | -2.9m/s | 10.5°C | 92.6% | 858hPa | 2.7V | 07:17:46 | 03:46:10 | 00:00:00 | i |
| BIOWL1-15 | 2026-09-03 14:35:50 | 51.22137 | 8.35286 | 89° | 78km/h | 1486m | -2.7m/s | 10.6°C | 93.6% | 858.9hPa | 2.7V | 07:17:50 | 03:46:13 | 00:00:00 | i |
| BIOWL1-15 | 2026-09-03 14:35:48 | 51.22135 | 8.35227 | 84° | 69km/h | 1491m | -2.9m/s | 10.5°C | 94% | 858.5hPa | 2.7V | 07:17:50 | 03:46:11 | 00:00:00 | |
| BIOWL1-15 | 2026-09-03 14:35:47 | 51.22134 | 8.35200 | 87° | 62km/h | 1494m | -2.9m/s | 10.5°C | 94.1% | 858hPa | 2.7V | 07:17:50 | 03:46:10 | 00:00:00 | i |
| BIOWL1-15 | 2026-09-03 14:35:45 | 51.22135 | 8.35152 | 99° | 58km/h | 1500m | -2.8m/s | 10.4°C | 94.3% | 857.5hPa | 2.7V | 07:17:50 | 03:46:08 | 00:00:00 | i |
| BIOWL9-15 | 2026-09-03 14:35:44 | 51.22138 | 8.35128 | 103° | 62km/h | 1502m | -2.5m/s | 10.4°C | 91.3% | 857.0hPa | 2.7V | 00:00:00 | 00:00:00 | 00:00:00 | i |
| DM0DOS-11 | 2026-09-03 14:35:44 | 51.22142 | 8.35102 | 105° | 69km/h | 1505m | -2.7m/s | 10.4°C | 92.9% | 856.9hPa | 2.7V | 07:17:50 | 03:46:06 | 00:00:00 | i |
| DM0DOS-11 | 2026-09-03 14:35:44 | 51.22160 | 8.34979 | 95° | 84km/h | 1516m | -2.8m/s | 10.3°C | 93.5% | 855.8hPa | 2.7V | 07:17:54 | 03:46:02 | 00:00:00 | i |
| BIOWL1-15 | 2026-09-03 14:35:44 | 51.22138 | 8.35128 | 104° | 64km/h | 1502m | -2.5m/s | 10.4°C | 94.3% | 857hPa | 2.7V | 07:17:50 | 03:46:07 | 00:00:00 | i |
| BIOWL1-15 | 2026-09-03 14:35:42 | 51.22160 | 8.34979 | 95° | 84km/h | 1516m | -2.8m/s | 10.3°C | 94% | 855.8hPa | 2.7V | 07:18:41 | 03:46:02 | 00:00:00 | i |
| BIOWL1-15 | 2026-09-03 14:35:42 | 51.22161 | 8.34945 | 90° | 82km/h | 1519m | -2.4m/s | 10.3°C | 93.9% | 855.4hPa | 2.7V | 07:18:41 | 03:46:01 | 00:00:00 | i |
| DM0DOS-11 | 2026-09-03 14:35:38 | 51.22164 | 8.34809 | 104° | 66km/h | 1531m | -2.4m/s | 10.2°C | 94.4% | 854hPa | 2.7V | 07:18:00 | 03:45:56 | 00:00:00 | i |
| BIOWL1-15 | 2026-09-03 14:35:36 | 51.22159 | 8.34859 | 91° | 62km/h | 1526m | -2.5m/s | 10.2°C | 94.4% | 854.7hPa | 2.7V | 07:18:41 | 03:45:58 | 00:00:00 | i |
| BIOWL1-15 | 2026-09-03 14:35:36 | 51.22160 | 8.34834 | 99° | 60km/h | 1529m | -2.5m/s | 10.2°C | 95% | 854.4hPa | 2.7V | 07:18:41 | 03:45:57 | 00:00:00 | i |
| DB0UT-7 | 2026-09-03 14:35:34 | 51.22160 | 8.34834 | 100° | 77km/h | 1529m | -2.4m/s | 10.2°C | 94.4% | 854.3hPa | 2.7V | 07:17:00 | 03:45:57 | 00:00:00 | |
| DD1CC3-15 | 2026-09-03 14:35:32 | 51.22164 | 8.34809 | 106° | 66km/h | 1531m | -2.4m/s | 10.2°C | 93.1% | 854.0hPa | 2.7V | 07:18:00 | 00:00:00 | 00:00:00 | i |
| DM0DOS-11 | 2026-09-03 14:35:32 | 51.22174 | 8.34753 | 107° | 78km/h | 1537m | -3.1m/s | 10.2°C | 94.4% | 853.7hPa | 2.7V | 07:18:02 | 03:45:54 | 00:00:00 | i |
| DM0DOS-11 | 2026-09-03 14:35:32 | 51.22186 | 8.34688 | 102° | 88km/h | 1544m | -3.5m/s | 10.3°C | 93.8% | 853hPa | 2.6V | 07:18:04 | 03:45:52 | 00:00:00 | i |
| DM0DOS-11 | 2026-09-03 14:35:32 | 51.22191 | 8.34619 | 91° | 82km/h | 1550m | -2.8m/s | 10.2°C | 94% | 852.2hPa | 2.7V | 07:18:06 | 03:45:50 | 00:00:00 | i |
| BIOWL1-15 | 2026-09-03 14:35:32 | 51.22169 | 8.34782 | 107° | 73km/h | 1534m | -2.9m/s | 10.2°C | 96.1% | 853.9hPa | 2.7V | 07:18:41 | 03:45:55 | 00:00:00 | i |
| BIOWL1-15 | 2026-09-03 14:35:30 | 51.22185 | 8.34688 | 102° | 88km/h | 1544m | -3.5m/s | 10.3°C | 96.2% | 853hPa | 2.6V | 07:18:41 | 03:45:52 | 00:00:00 | i |
| BIOWL1-15 | 2026-09-03 14:35:30 | 51.22189 | 8.34653 | 97° | 88km/h | 1547m | -3.1m/s | 10.2°C | 96.3% | 852.6hPa | 2.7V | 07:18:41 | 03:45:51 | 00:00:00 | i |
| DM0DOS-11 | 2026-09-03 14:35:26 | 51.22203 | 8.34457 | 108° | 75km/h | 1567m | -2.8m/s | 10.1°C | 94.5% | 850.5hPa | 2.7V | 07:18:12 | 03:45:44 | 00:00:00 | i |
| BIOWL1-15 | 2026-09-03 14:35:26 | 51.22191 | 8.34587 | 88° | 75km/h | 1553m | -2.5m/s | 10.2°C | 96.1% | 852.1hPa | 2.7V | 07:18:41 | 03:45:49 | 00:00:00 | i |
| BIOWL1-15 | 2026-09-03 14:35:25 | 51.22191 | 8.34559 | 90° | 66km/h | 1555m | -2.8m/s | 10.2°C | 96.4% | 851.8hPa | 2.7V | 07:18:41 | 03:45:48 | 00:00:00 | i |
| BIOWL1-15 | 2026-09-03 14:35:23 | 51.22198 | 8.34484 | 108° | 68km/h | 1564m | -2.8m/s | 10.1°C | 96.5% | 850.9hPa | 2.7V | 07:18:41 | 03:45:45 | 00:00:00 | i |
| BIOWL1-15 | 2026-09-03 14:35:23 | 51.22203 | 8.34457 | 109° | 75km/h | 1567m | -2.8m/s | 10.1°C | 96.5% | 850.5hPa | 2.7V | 07:18:41 | 03:45:44 | 00:00:00 | i |
| DM0DOS-11 | 2026-09-03 14:35:20 | 51.22215 | 8.34394 | 103° | 86km/h | 1572m | -2.8m/s | 10.1°C | 95% | 850.2hPa | 2.7V | 07:18:14 | 03:45:42 | 00:00:00 | i |
| DM0DOS-11 | 2026-09-03 14:35:20 | 51.22222 | 8.34325 | 94° | 88km/h | 1578m | -3.1m/s | 10°C | 95.2% | 849.6hPa | 2.7V | 07:18:16 | 03:45:40 | 00:00:00 | i |
| BIOWL1-15 | 2026-09-03 14:35:19 | 51.22215 | 8.34394 | 103° | 86km/h | 1572m | -2.8m/s | 10.1°C | 96.8% | 850.2hPa | 2.7V | 07:18:41 | 03:45:42 | 00:00:00 | i |
| BIOWL1-15 | 2026-09-03 14:35:17 | 51.22239 | 8.34130 | 111° | 75km/h | 1599m | -3.1m/s | 9.9°C | 97.6% | 847.5hPa | 2.7V | 07:18:41 | 03:45:33 | 00:00:00 | i |
| BIOWL1-15 | 2026-09-03 14:35:17 | 51.22246 | 8.34100 | 108° | 84km/h | 1602m | -2.9m/s | 9.9°C | 97.2% | 847.1hPa | 2.7V | 07:18:41 | 03:45:32 | 00:00:00 | i |
| DM0DOS-11 | 2026-09-03 14:35:14 | 51.22232 | 8.34157 | 110° | 68km/h | 1596m | -3.1m/s | 9.9°C | 95.5% | 847.7hPa | 2.7V | 07:18:22 | 03:45:34 | 00:00:00 | i |
| BIOWL1-15 | 2026-09-03 14:35:12 | 51.22251 | 8.34067 | 103° | 88km/h | 1605m | -2.7m/s | 9.9°C | 97% | 846.7hPa | 2.7V | 07:18:41 | 03:45:31 | 00:00:00 | i |
| BIOWL1-15 | 2026-09-03 14:35:10 | 51.22255 | 8.34032 | 98° | 88km/h | 1608m | -2.7m/s | 9.8°C | 97.4% | 846.5hPa | 2.7V | 07:18:41 | 03:45:30 | 00:00:00 | i |
| DO2KSM | 2026-09-03 14:35:09 | 51.22239 | 8.34130 | 112° | 75km/h | 1599m | -3.1m/s | 9.9°C | 94.2% | 847.5hPa | 2.7V | 07:18:00 | 00:00:00 | 00:00:00 | |
| DM0DOS-11 | 2026-09-03 14:35:08 | 51.22255 | 8.34032 | 97° | 88km/h | 1608m | -2.7m/s | 9.8°C | 95.5% | 846.5hPa | 2.7V | 07:18:26 | 03:45:30 | 00:00:00 | i |
| DM0DOS-11 | 2026-09-03 14:35:08 | 51.22259 | 8.33908 | 95° | 64km/h | 1619m | -2.8m/s | 9.7°C | 95.9% | 845.4hPa | 2.7V | 07:18:30 | 03:45:26 | 00:00:00 | i |
| BIOWL1-15 | 2026-09-03 14:35:08 | 51.22257 | 8.33997 | 93° | 84km/h | 1611m | -2.9m/s | 9.8°C | 97.6% | 846.3hPa | 2.7V | 07:18:41 | 03:45:29 | 00:00:00 | i |
| BIOWL1-15 | 2026-09-03 14:35:04 | 51.22258 | 8.33935 | 90° | 69km/h | 1616m | -2.8m/s | 9.8°C | 97.9% | 845.6hPa | 2.7V | 07:18:41 | 03:45:27 | 00:00:00 | i |
| DB0UT-7 | 2026-09-03 14:35:04 | 51.22258 | 8.33935 | 91° | 77km/h | 1616m | -2.7m/s | 9.7°C | 95.8% | 845.6hPa | 2.7V | 00:00:00 | 00:00:00 | 00:00:00 | i |
| DM0DOS-11 | 2026-09-03 14:35:02 | 51.22266 | 8.33859 | 109° | 68km/h | 1625m | -2.9m/s | 9.7°C | 96.5% | 844.7hPa | 2.7V | 07:18:32 | 03:45:24 | 00:00:00 | i |
| DM0DOS-11 | 2026-09-03 14:35:02 | 51.22279 | 8.33803 | 109° | 80km/h | 1630m | -2.8m/s | 9.7°C | 96.9% | 844.4hPa | 2.7V | 07:18:34 | 03:45:22 | 00:00:00 | i |
| BIOWL1-15 | 2026-09-03 14:35:02 | 51.22261 | 8.33883 | 103° | 62km/h | 1622m | -2.6m/s | 9.7°C | 98.1% | 845hPa | 2.7V | 07:18:41 | 03:45:25 | 00:00:00 | i |
| BIOWL1-15 | 2026-09-03 14:35:00 | 51.22272 | 8.33832 | 112° | 73km/h | 1627m | -2.7m/s | 9.7°C | 98% | 844.5hPa | 2.7V | 07:18:41 | 03:45:23 | 00:00:00 | i |
| BIOWL1-15 | 2026-09-03 14:34:59 | 51.22279 | 8.33803 | 110° | 80km/h | 1630m | -2.8m/s | 9.7°C | 98.3% | 844.4hPa | 2.7V | 07:18:41 | 03:45:22 | 00:00:00 | i |
| BIOWL1-15 | 2026-09-03 14:34:57 | 51.22291 | 8.33736 | 101° | 89km/h | 1636m | -2.6m/s | 9.6°C | 98.1% | 843.7hPa | 2.7V | 07:18:41 | 03:45:20 | 00:00:00 | i |
| DM0DOS-11 | 2026-09-03 14:34:56 | 51.22297 | 8.33667 | 92° | 84km/h | 1641m | -2.8m/s | 9.5°C | 97.4% | 843.1hPa | 2.7V | 07:18:38 | 03:45:18 | 00:00:00 | i |
| BIOWL1-15 | 2026-09-03 14:34:56 | 51.22295 | 8.33701 | 97° | 88km/h | 1638m | -2.8m/s | 9.6°C | 98.2% | 843.5hPa | 2.7V | 07:18:41 | 03:45:19 | 00:00:00 | i |
| BIOWL1-15 | 2026-09-03 14:34:54 | 51.22297 | 8.33634 | 90° | 77km/h | 1644m | -2.7m/s | 9.5°C | 98.2% | 842.9hPa | 2.7V | 07:18:41 | 03:45:17 | 00:00:00 | i |
| BIOWL1-15 | 2026-09-03 14:34:53 | 51.22297 | 8.33605 | 91° | 69km/h | 1647m | -2.8m/s | 9.5°C | 98% | 842.6hPa | 2.7V | 07:18:41 | 03:45:16 | 00:00:00 | i |
| BIOWL1-15 | 2026-09-03 14:34:51 | 51.22305 | 8.33527 | 109° | 68km/h | 1655m | -2.9m/s | 9.4°C | 98.5% | 841.6hPa | 2.7V | 07:19:32 | 03:45:13 | 00:00:00 | i |
| BIOWL1-15 | 2026-09-03 14:34:51 | 51.22312 | 8.33500 | 111° | 77km/h | 1658m | -3m/s | 9.4°C | 98.5% | 841.4hPa | 2.7V | 07:19:32 | 03:45:12 | 00:00:00 | i |
| DM0DOS-11 | 2026-09-03 14:34:50 | 51.22332 | 8.33366 | 94° | 88km/h | 1668m | -2.8m/s | 9.3°C | 98.7% | 840.4hPa | 2.6V | 07:18:48 | 03:45:08 | 00:00:00 | i |
| BIOWL1-15 | 2026-09-03 14:34:48 | 51.22318 | 8.33470 | 108° | 84km/h | 1661m | -2.7m/s | 9.4°C | 98.7% | 841.2hPa | 2.7V | 07:19:32 | 03:45:11 | 00:00:00 | i |
| BIOWL1-15 | 2026-09-03 14:34:46 | 51.22329 | 8.33401 | 99° | 89km/h | 1666m | -2.7m/s | 9.4°C | 99.1% | 840.7hPa | 2.7V | 07:19:32 | 03:45:09 | 00:00:00 | i |
| DM0DOS-11 | 2026-09-03 14:34:45 | 51.22340 | 8.33223 | 108° | 66km/h | 1683m | -2.9m/s | 9.2°C | 99.1% | 839hPa | 2.7V | 07:18:53 | 03:45:03 | 00:00:00 | i |
| BIOWL1-15 | 2026-09-03 14:34:44 | 51.22333 | 8.33332 | 92° | 82km/h | 1671m | -2.7m/s | 9.3°C | 99.7% | 840.1hPa | 2.7V | 07:19:32 | 03:45:07 | 00:00:00 | i |
| BIOWL1-15 | 2026-09-03 14:34:42 | 51.22334 | 8.33273 | 94° | 66km/h | 1677m | -3m/s | 9.2°C | 100% | 839.5hPa | 2.7V | 07:19:32 | 03:45:05 | 00:00:00 | i |
| BIOWL1-15 | 2026-09-03 14:34:41 | 51.22336 | 8.33247 | 101° | 62km/h | 1680m | -2.7m/s | 9.2°C | 100% | 839.2hPa | 2.7V | 07:19:32 | 03:45:04 | 00:00:00 | i |
| BIOWL1-15 | 2026-09-03 14:34:39 | 51.22353 | 8.33169 | 112° | 78km/h | 1689m | -3m/s | 9.2°C | 100% | 838.4hPa | 2.7V | 07:19:32 | 03:45:01 | 00:00:00 | i |
| BIOWL1-15 | 2026-09-03 14:34:39 | 51.22360 | 8.33138 | 109° | 86km/h | 1692m | -3m/s | 9.1°C | 100% | 838hPa | 2.7V | 07:19:32 | 03:45:00 | 00:00:00 | i |
| DM0DOS-11 | 2026-09-03 14:34:38 | 51.22371 | 8.33069 | 99° | 89km/h | 1697m | -2.9m/s | 9.1°C | 0% | 837.5hPa | 2.7V | 07:18:58 | 03:44:58 | 00:00:00 | i |
| BIOWL1-15 | 2026-09-03 14:34:35 | 51.22371 | 8.33069 | 99° | 89km/h | 1697m | -2.9m/s | 9.1°C | 100% | 837.5hPa | 2.7V | 07:19:32 | 03:44:58 | 00:00:00 | i |
| BIOWL1-15 | 2026-09-03 14:34:33 | 51.22375 | 8.33001 | 92° | 78km/h | 1703m | -2.9m/s | 9.1°C | 100% | 837hPa | 2.7V | 07:19:32 | 03:44:56 | 00:00:00 | i |
| BIOWL1-15 | 2026-09-03 14:34:31 | 51.22377 | 8.32944 | 96° | 64km/h | 1709m | -3m/s | 9.1°C | 100% | 836.3hPa | 2.7V | 07:19:32 | 03:44:54 | 00:00:00 | i |
| BIOWL1-15 | 2026-09-03 14:34:30 | 51.22379 | 8.32919 | 104° | 62km/h | 1712m | -2.9m/s | 9.1°C | 100% | 835.9hPa | 2.7V | 07:19:32 | 03:44:53 | 00:00:00 | i |
| BIOWL1-15 | 2026-09-03 14:34:28 | 51.22391 | 8.32867 | 113° | 77km/h | 1718m | -2.9m/s | 9.1°C | 100% | 835.4hPa | 2.7V | 07:19:32 | 03:44:51 | 00:00:00 | i |
| DD1CC8 | 2026-09-03 14:34:27 | 51.22399 | 8.32837 | 110° | 84km/h | 1721m | -2.8m/s | 9.0°C | 99.6% | 835.2hPa | 2.7V | 00:00:00 | 00:00:00 | 00:00:00 | |
| DM0DOS-11 | 2026-09-03 14:34:26 | 51.22411 | 8.32768 | 101° | 91km/h | 1726m | -2.9m/s | 9°C | 0% | 834.6hPa | 2.7V | 07:19:08 | 03:44:48 | 00:00:00 | i |
| DM0DOS-11 | 2026-09-03 14:34:26 | 51.22419 | 8.32639 | 96° | 66km/h | 1738m | -3m/s | 9°C | 99.9% | 833.4hPa | 2.7V | 07:19:12 | 03:44:44 | 00:00:00 | i |
| BIOWL1-15 | 2026-09-03 14:34:26 | 51.22406 | 8.32804 | 106° | 91km/h | 1723m | -2.9m/s | 9.1°C | 100% | 834.9hPa | 2.7V | 07:19:32 | 03:44:49 | 00:00:00 | i |
| BIOWL1-15 | 2026-09-03 14:34:25 | 51.22411 | 8.32768 | 102° | 91km/h | 1726m | -2.9m/s | 9°C | 100% | 834.6hPa | 2.7V | 07:19:32 | 03:44:48 | 00:00:00 | i |
| BIOWL1-15 | 2026-09-03 14:34:23 | 51.22417 | 8.32698 | 93° | 82km/h | 1732m | -2.7m/s | 9°C | 100% | 834hPa | 2.7V | 07:19:32 | 03:44:46 | 00:00:00 | i |
| BIOWL1-15 | 2026-09-03 14:34:21 | 51.22419 | 8.32639 | 96° | 66km/h | 1738m | -3m/s | 9°C | 100% | 833.4hPa | 2.7V | 07:19:32 | 03:44:44 | 00:00:00 | i |
| DM0DOS-11 | 2026-09-03 14:34:20 | 51.22441 | 8.32530 | 112° | 84km/h | 1749m | -2.9m/s | 8.9°C | 0% | 832.2hPa | 2.7V | 07:19:16 | 03:44:40 | 00:00:00 | i |
| BIOWL1-15 | 2026-09-03 14:34:20 | 51.22421 | 8.32613 | 104° | 64km/h | 1741m | -2.9m/s | 9°C | 100% | 833hPa | 2.7V | 07:19:32 | 03:44:43 | 00:00:00 | i |
| BIOWL1-15 | 2026-09-03 14:34:18 | 51.22441 | 8.32530 | 112° | 84km/h | 1749m | -2.9m/s | 8.9°C | 100% | 832.2hPa | 2.7V | 07:19:32 | 03:44:40 | 00:00:00 | i |
| BIOWL1-15 | 2026-09-03 14:34:18 | 51.22449 | 8.32498 | 109° | 89km/h | 1752m | -3m/s | 8.9°C | 100% | 832hPa | 2.7V | 07:19:32 | 03:44:39 | 00:00:00 | i |
| BIOWL1-15 | 2026-09-03 14:34:15 | 51.22455 | 8.32462 | 104° | 93km/h | 1755m | -3m/s | 8.8°C | 100% | 831.7hPa | 2.7V | 07:19:32 | 03:44:38 | 00:00:00 | i |
| DM0DOS-11 | 2026-09-03 14:34:14 | 51.22464 | 8.32327 | 93° | 69km/h | 1767m | -2.9m/s | 8.8°C | 0% | 830.4hPa | 2.7V | 07:19:22 | 03:44:34 | 00:00:00 | i |
| BIOWL1-15 | 2026-09-03 14:34:13 | 51.22462 | 8.32390 | 94° | 88km/h | 1761m | -2.9m/s | 8.8°C | 100% | 831.1hPa | 2.7V | 07:19:32 | 03:44:36 | 00:00:00 | i |
| BIOWL1-15 | 2026-09-03 14:34:11 | 51.22464 | 8.32327 | 94° | 69km/h | 1767m | -2.9m/s | 8.8°C | 100% | 830.5hPa | 2.7V | 07:19:32 | 03:44:34 | 00:00:00 | i |
| BIOWL1-15 | 2026-09-03 14:34:10 | 51.22466 | 8.32300 | 100° | 64km/h | 1769m | -2.7m/s | 8.8°C | 100% | 830.1hPa | 2.7V | 07:19:32 | 03:44:33 | 00:00:00 | i |
| BIOWL1-15 | 2026-09-03 14:34:08 | 51.22484 | 8.32219 | 112° | 82km/h | 1778m | -2.8m/s | 8.7°C | 100% | 829.5hPa | 2.7V | 07:19:32 | 03:44:30 | 00:00:00 | i |
| DM0DOS-11 | 2026-09-03 14:34:08 | 51.22484 | 8.32219 | 112° | 82km/h | 1778m | -2.8m/s | 8.7°C | 99.9% | 829.5hPa | 2.7V | 07:19:26 | 03:44:30 | 00:00:00 | i |
| DM0DOS-11 | 2026-09-03 14:34:08 | 51.22498 | 8.32151 | 101° | 93km/h | 1783m | -2.7m/s | 8.7°C | 97.9% | 829hPa | 2.6V | 07:19:28 | 03:44:28 | 00:00:00 | i |
| DM0DOS-11 | 2026-09-03 14:34:08 | 51.22503 | 8.32079 | 93° | 86km/h | 1788m | -2.7m/s | 8.8°C | 94.4% | 828.4hPa | 2.7V | 07:19:30 | 03:44:26 | 00:00:00 | i |
| BIOWL1-15 | 2026-09-03 14:34:08 | 51.22492 | 8.32187 | 108° | 89km/h | 1780m | -2.8m/s | 8.7°C | 99.5% | 829.1hPa | 2.7V | 07:19:32 | 03:44:29 | 00:00:00 | i |
| BIOWL1-15 | 2026-09-03 14:34:04 | 51.22501 | 8.32115 | 97° | 91km/h | 1786m | -2.7m/s | 8.7°C | 97.8% | 828.7hPa | 2.7V | 07:19:32 | 03:44:27 | 00:00:00 | i |
| BIOWL1-15 | 2026-09-03 14:34:04 | 51.22503 | 8.32079 | 93° | 86km/h | 1789m | -2.7m/s | 8.8°C | 96% | 828.4hPa | 2.7V | 07:19:32 | 03:44:26 | 00:00:00 | i |
| DB0UT-7 | 2026-09-03 14:34:04 | 51.22501 | 8.32114 | 97° | 78km/h | 1786m | -2.6m/s | 8.7°C | 96.7% | 828.6hPa | 2.7V | 00:00:00 | 00:00:00 | 00:00:00 | i |
| DM0DOS-11 | 2026-09-03 14:34:02 | 51.22506 | 8.32016 | 94° | 71km/h | 1794m | -2.7m/s | 8.8°C | 92.3% | 827.7hPa | 2.7V | 07:19:32 | 03:44:24 | 00:00:00 | i |
| DM0DOS-11 | 2026-09-03 14:34:02 | 51.22512 | 8.31962 | 106° | 69km/h | 1799m | -2.5m/s | 8.7°C | 92.5% | 827.1hPa | 2.7V | 07:19:34 | 03:44:22 | 00:00:00 | i |
| BIOWL1-15 | 2026-09-03 14:34:02 | 51.22504 | 8.32046 | 92° | 78km/h | 1791m | -2.8m/s | 8.8°C | 95.2% | 827.9hPa | 2.7V | 07:19:32 | 03:44:25 | 00:00:00 | i |
| BIOWL1-15 | 2026-09-03 14:34:00 | 51.22508 | 8.31989 | 100° | 68km/h | 1796m | -2.5m/s | 8.8°C | 94.3% | 827.5hPa | 2.7V | 07:20:23 | 03:44:23 | 00:00:00 | i |
| BIOWL1-15 | 2026-09-03 14:33:59 | 51.22512 | 8.31962 | 107° | 69km/h | 1799m | -2.5m/s | 8.7°C | 94.4% | 827.1hPa | 2.7V | 07:20:23 | 03:44:22 | 00:00:00 | i |
| BIOWL1-15 | 2026-09-03 14:33:57 | 51.22525 | 8.31906 | 112° | 80km/h | 1804m | -2.6m/s | 8.7°C | 94.9% | 826.8hPa | 2.7V | 07:20:23 | 03:44:20 | 00:00:00 | i |
| DD1CC8 | 2026-09-03 14:33:56 | 51.22532 | 8.31875 | 110° | 86km/h | 1807m | -2.8m/s | 8.7°C | 91.5% | 826.3hPa | 2.7V | 00:00:00 | 00:00:00 | 00:00:00 | i |
| DM0DOS-11 | 2026-09-03 14:33:56 | 51.22540 | 8.31841 | 107° | 91km/h | 1809m | -2.8m/s | 8.7°C | 92.9% | 826.4hPa | 2.7V | 07:19:38 | 03:44:18 | 00:00:00 | i |
| DM0DOS-11 | 2026-09-03 14:33:56 | 51.22550 | 8.31768 | 97° | 91km/h | 1815m | -2.7m/s | 8.6°C | 93% | 825.6hPa | 2.7V | 07:19:40 | 03:44:16 | 00:00:00 | i |
| BIOWL1-15 | 2026-09-03 14:33:55 | 51.22546 | 8.31805 | 103° | 93km/h | 1812m | -2.7m/s | 8.6°C | 95% | 825.9hPa | 2.7V | 07:20:23 | 03:44:17 | 00:00:00 | i |
| BIOWL1-15 | 2026-09-03 14:33:55 | 51.22550 | 8.31768 | 98° | 91km/h | 1815m | -2.7m/s | 8.6°C | 95.2% | 825.6hPa | 2.7V | 07:20:23 | 03:44:16 | 00:00:00 | i |
| BIOWL1-15 | 2026-09-03 14:33:52 | 51.22552 | 8.31732 | 94° | 88km/h | 1818m | -2.7m/s | 8.6°C | 94.9% | 825.4hPa | 2.7V | 07:20:23 | 03:44:15 | 00:00:00 | i |
| BIOWL1-15 | 2026-09-03 14:33:50 | 51.22554 | 8.31668 | 94° | 71km/h | 1823m | -2.6m/s | 8.6°C | 94.2% | 825hPa | 2.7V | 07:20:23 | 03:44:13 | 00:00:00 | i |
| BIOWL1-15 | 2026-09-03 14:33:48 | 51.22559 | 8.31615 | 105° | 68km/h | 1828m | -2.8m/s | 8.6°C | 92.7% | 824.5hPa | 2.7V | 07:20:23 | 03:44:11 | 00:00:00 | i |
| BIOWL1-15 | 2026-09-03 14:33:46 | 51.22572 | 8.31559 | 112° | 80km/h | 1833m | -2.7m/s | 8.5°C | 92.7% | 823.8hPa | 2.7V | 07:20:23 | 03:44:09 | 00:00:00 | i |
| BIOWL1-15 | 2026-09-03 14:33:44 | 51.22586 | 8.31492 | 105° | 95km/h | 1838m | -2.5m/s | 8.5°C | 92.8% | 823.3hPa | 2.7V | 07:20:23 | 03:44:07 | 00:00:00 | i |
| BIOWL1-15 | 2026-09-03 14:33:42 | 51.22594 | 8.31418 | 95° | 89km/h | 1843m | -2.6m/s | 8.5°C | 91.7% | 822.8hPa | 2.7V | 07:20:23 | 03:44:05 | 00:00:00 | i |
| BIOWL1-15 | 2026-09-03 14:33:41 | 51.22596 | 8.31383 | 93° | 84km/h | 1846m | -2.6m/s | 8.5°C | 92.6% | 822.5hPa | 2.7V | 07:20:23 | 03:44:04 | 00:00:00 | |
| BIOWL1-15 | 2026-09-03 14:33:40 | 51.22597 | 8.31351 | 94° | 77km/h | 1849m | -2.5m/s | 8.4°C | 92.4% | 822.2hPa | 2.7V | 07:20:23 | 03:44:03 | 00:00:00 | i |
| DM0DOS-11 | 2026-09-03 14:33:38 | 51.22620 | 8.31209 | 111° | 82km/h | 1860m | -2.7m/s | 8.3°C | 95.6% | 821.1hPa | 2.7V | 07:19:58 | 03:43:58 | 00:00:00 | i |
| DM0DOS-11 | 2026-09-03 14:33:38 | 51.22635 | 8.31141 | 107° | 95km/h | 1866m | -2.9m/s | 8.3°C | 96.4% | 820.5hPa | 2.7V | 07:20:00 | 03:43:56 | 00:00:00 | i |
| BIOWL1-15 | 2026-09-03 14:33:38 | 51.22602 | 8.31294 | 103° | 69km/h | 1853m | -2.4m/s | 8.4°C | 93.4% | 821.7hPa | 2.7V | 07:20:23 | 03:44:01 | 00:00:00 | i |
| BIOWL1-15 | 2026-09-03 14:33:36 | 51.22612 | 8.31238 | 110° | 75km/h | 1858m | -2.7m/s | 8.3°C | 94.6% | 821.4hPa | 2.7V | 07:20:23 | 03:43:59 | 00:00:00 | i |
| BIOWL1-15 | 2026-09-03 14:33:35 | 51.22620 | 8.31208 | 111° | 82km/h | 1860m | -2.7m/s | 8.3°C | 96.7% | 821.1hPa | 2.7V | 07:20:23 | 03:43:58 | 00:00:00 | i |
| BIOWL1-15 | 2026-09-03 14:33:33 | 51.22641 | 8.31104 | 103° | 97km/h | 1869m | -2.9m/s | 8.3°C | 97.7% | 820.2hPa | 2.7V | 07:20:23 | 03:43:55 | 00:00:00 | i |
| BIOWL1-15 | 2026-09-03 14:33:33 | 51.22645 | 8.31066 | 97° | 95km/h | 1871m | -2.7m/s | 8.2°C | 98% | 819.9hPa | 2.7V | 07:20:23 | 03:43:54 | 00:00:00 | i |
| BIOWL1-15 | 2026-09-03 14:33:29 | 51.22648 | 8.30995 | 92° | 78km/h | 1877m | -2.5m/s | 8.2°C | 99.1% | 819.3hPa | 2.6V | 07:20:23 | 03:43:52 | 00:00:00 | i |
| BIOWL1-15 | 2026-09-03 14:33:27 | 51.22657 | 8.30910 | 110° | 73km/h | 1885m | -2.6m/s | 8.1°C | 100% | 818.6hPa | 2.7V | 07:20:23 | 03:43:49 | 00:00:00 | i |
| BIOWL1-15 | 2026-09-03 14:33:27 | 51.22664 | 8.30881 | 112° | 82km/h | 1887m | -2.6m/s | 8.1°C | 100% | 818.3hPa | 2.7V | 07:20:23 | 03:43:48 | 00:00:00 | i |
| BIOWL1-15 | 2026-09-03 14:33:24 | 51.22671 | 8.30848 | 109° | 91km/h | 1890m | -2.7m/s | 8.1°C | 100% | 818.2hPa | 2.7V | 07:20:23 | 03:43:47 | 00:00:00 | i |
| DB0UT-7 | 2026-09-03 14:33:24 | 51.22671 | 8.30847 | 109° | 82km/h | 1890m | -2.6m/s | 8.0°C | 0% | 818.1hPa | 2.7V | 00:00:00 | 00:00:00 | 00:00:00 | i |
| DM0DOS-11 | 2026-09-03 14:33:23 | 51.22686 | 8.30702 | 91° | 84km/h | 1900m | -2.7m/s | 8°C | 0% | 817.1hPa | 2.7V | 07:20:13 | 03:43:43 | 00:00:00 | i |
| BIOWL1-15 | 2026-09-03 14:33:22 | 51.22683 | 8.30774 | 99° | 95km/h | 1895m | -2.6m/s | 8.1°C | 100% | 817.6hPa | 2.7V | 07:20:23 | 03:43:45 | 00:00:00 | i |
| BIOWL1-15 | 2026-09-03 14:33:20 | 51.22687 | 8.30702 | 92° | 84km/h | 1900m | -2.7m/s | 8°C | 100% | 817.1hPa | 2.7V | 07:20:23 | 03:43:43 | 00:00:00 | i |
| BIOWL1-15 | 2026-09-03 14:33:18 | 51.22689 | 8.30641 | 97° | 69km/h | 1906m | -2.8m/s | 8°C | 100% | 816.7hPa | 2.7V | 07:20:23 | 03:43:41 | 00:00:00 | i |
| BIOWL1-15 | 2026-09-03 14:33:16 | 51.22697 | 8.30587 | 110° | 73km/h | 1911m | -2.8m/s | 8°C | 100% | 815.9hPa | 2.7V | 07:20:23 | 03:43:39 | 00:00:00 | i |
| BIOWL1-15 | 2026-09-03 14:33:14 | 51.22712 | 8.30526 | 110° | 88km/h | 1917m | -2.7m/s | 8°C | 99.2% | 815.3hPa | 2.7V | 07:20:23 | 03:43:37 | 00:00:00 | i |
| BIOWL1-15 | 2026-09-03 14:33:12 | 51.22725 | 8.30454 | 103° | 97km/h | 1922m | -2.7m/s | 8°C | 99.8% | 814.9hPa | 2.6V | 07:20:23 | 03:43:35 | 00:00:00 | i |
| DM0DOS-11 | 2026-09-03 14:33:11 | 51.22732 | 8.30379 | 94° | 89km/h | 1928m | -2.8m/s | 7.9°C | 0% | 814.4hPa | 2.7V | 07:20:23 | 03:43:33 | 00:00:00 | i |
| BIOWL1-15 | 2026-09-03 14:33:10 | 51.22732 | 8.30379 | 95° | 91km/h | 1928m | -2.8m/s | 7.9°C | 99% | 814.4hPa | 2.7V | 07:20:23 | 03:43:33 | 00:00:00 | i |
| BIOWL1-15 | 2026-09-03 14:33:08 | 51.22735 | 8.30312 | 94° | 75km/h | 1933m | -2.7m/s | 7.9°C | 99.1% | 813.8hPa | 2.7V | 07:21:14 | 03:43:31 | 00:00:00 | i |
| BIOWL1-15 | 2026-09-03 14:33:06 | 51.22740 | 8.30256 | 106° | 69km/h | 1939m | -2.7m/s | 7.8°C | 98.7% | 813.4hPa | 2.7V | 07:21:14 | 03:43:29 | 00:00:00 | i |
| BIOWL7-15 | 2026-09-03 14:33:05 | 51.22740 | 8.30256 | 107° | 69km/h | 1939m | -2.7m/s | 7.8°C | 99.0% | 813.4hPa | 2.7V | 07:21:00 | 00:00:00 | 00:00:00 | i |
| DM0DOS-11 | 2026-09-03 14:33:05 | 51.22753 | 8.30199 | 110° | 82km/h | 1944m | -2.7m/s | 7.8°C | 0% | 812.7hPa | 2.7V | 07:20:29 | 03:43:27 | 00:00:00 | i |
| BIOWL1-15 | 2026-09-03 14:33:05 | 51.22746 | 8.30229 | 110° | 75km/h | 1941m | -2.8m/s | 7.8°C | 98.1% | 813.1hPa | 2.7V | 07:21:14 | 03:43:28 | 00:00:00 | i |
| BIOWL1-15 | 2026-09-03 14:33:03 | 51.22767 | 8.30131 | 105° | 93km/h | 1950m | -2.7m/s | 7.8°C | 99.8% | 812.2hPa | 2.7V | 07:21:14 | 03:43:25 | 00:00:00 | i |
| BIOWL1-15 | 2026-09-03 14:33:03 | 51.22772 | 8.30094 | 102° | 95km/h | 1952m | -2.5m/s | 7.7°C | 100% | 812hPa | 2.7V | 07:21:14 | 03:43:24 | 00:00:00 | i |
| BIOWL1-15 | 2026-09-03 14:33:00 | 51.22777 | 8.30057 | 98° | 95km/h | 1955m | -2.7m/s | 7.7°C | 100% | 811.7hPa | 2.7V | 07:21:14 | 03:43:23 | 00:00:00 | i |
| DM0DOS-11 | 2026-09-03 14:32:59 | 51.22781 | 8.29982 | 91° | 88km/h | 1960m | -3m/s | 7.9°C | 0% | 811.1hPa | 2.7V | 07:20:35 | 03:43:21 | 00:00:00 | |
| DM0DOS-11 | 2026-09-03 14:32:59 | 51.22782 | 8.29917 | 92° | 73km/h | 1966m | -2.9m/s | 7.9°C | 0% | 810.5hPa | 2.7V | 07:20:37 | 03:43:19 | 00:00:00 | |
| DM0DOS-11 | 2026-09-03 14:32:59 | 51.22787 | 8.29861 | 106° | 71km/h | 1972m | -2.7m/s | 8°C | 96.8% | 810.1hPa | 2.7V | 07:20:39 | 03:43:17 | 00:00:00 | |
| BIOWL1-15 | 2026-09-03 14:32:58 | 51.22781 | 8.29982 | 92° | 88km/h | 1960m | -3m/s | 7.9°C | 100% | 811.2hPa | 2.7V | 07:21:14 | 03:43:21 | 00:00:00 | i |
| BIOWL1-15 | 2026-09-03 14:32:56 | 51.22782 | 8.29917 | 93° | 73km/h | 1966m | -2.9m/s | 7.9°C | 98.7% | 810.5hPa | 2.7V | 07:21:14 | 03:43:19 | 00:00:00 | i |
| BIOWL1-15 | 2026-09-03 14:32:55 | 51.22784 | 8.29889 | 99° | 69km/h | 1969m | -2.8m/s | 8°C | 96.9% | 810.3hPa | 2.6V | 07:21:14 | 03:43:18 | 00:00:00 | i |
| DD1CC8 | 2026-09-03 14:32:54 | 51.22788 | 8.29861 | 106° | 69km/h | 1972m | -2.7m/s | 8.0°C | 95.3% | 810.1hPa | 2.7V | 00:00:00 | 00:00:00 | 00:00:00 | |
| DB0UT-7 | 2026-09-03 14:32:54 | 51.22788 | 8.29861 | 107° | 84km/h | 1972m | -2.7m/s | 8.0°C | 96.8% | 810.0hPa | 2.7V | 07:20:00 | 03:43:17 | 00:00:00 | |
| DM0DOS-11 | 2026-09-03 14:32:53 | 51.22800 | 8.29802 | 109° | 84km/h | 1978m | -2.9m/s | 8.2°C | 93.8% | 809.5hPa | 2.7V | 07:20:41 | 03:43:15 | 00:00:00 | i |
| DM0DOS-11 | 2026-09-03 14:32:53 | 51.22812 | 8.29732 | 100° | 95km/h | 1983m | -2.4m/s | 8.4°C | 87.7% | 808.9hPa | 2.7V | 07:20:43 | 03:43:13 | 00:00:00 | i |
| DM0DOS-11 | 2026-09-03 14:32:53 | 51.22818 | 8.29657 | 92° | 91km/h | 1988m | -2.8m/s | 8.4°C | 86.3% | 808.4hPa | 2.7V | 07:20:45 | 03:43:11 | 00:00:00 | i |
| BIOWL1-15 | 2026-09-03 14:32:53 | 51.22793 | 8.29833 | 110° | 77km/h | 1975m | -2.9m/s | 8.1°C | 94.1% | 809.8hPa | 2.7V | 07:21:14 | 03:43:16 | 00:00:00 | i |
| BIOWL1-15 | 2026-09-03 14:32:52 | 51.22800 | 8.29802 | 109° | 84km/h | 1978m | -2.9m/s | 8.2°C | 93% | 809.5hPa | 2.7V | 07:21:14 | 03:43:15 | 00:00:00 | i |
| BIOWL1-15 | 2026-09-03 14:32:50 | 51.22812 | 8.29732 | 101° | 95km/h | 1983m | -2.4m/s | 8.4°C | 89% | 808.9hPa | 2.7V | 07:21:14 | 03:43:13 | 00:00:00 | i |
| BIOWL1-15 | 2026-09-03 14:32:48 | 51.22818 | 8.29622 | 91° | 86km/h | 1991m | -2.9m/s | 8.4°C | 89.7% | 808.1hPa | 2.7V | 07:21:14 | 03:43:10 | 00:00:00 | i |
| BIOWL1-15 | 2026-09-03 14:32:48 | 51.22818 | 8.29589 | 89° | 78km/h | 1994m | -2.8m/s | 8.3°C | 89.4% | 807.7hPa | 2.7V | 07:21:14 | 03:43:09 | 00:00:00 | i |
| DM0DOS-11 | 2026-09-03 14:32:47 | 51.22818 | 8.29589 | 89° | 78km/h | 1994m | -2.8m/s | 8.3°C | 86.9% | 807.7hPa | 2.7V | 07:20:47 | 03:43:09 | 00:00:00 | i |
| DM0DOS-11 | 2026-09-03 14:32:47 | 51.22819 | 8.29530 | 93° | 68km/h | 2000m | -2.9m/s | 8.4°C | 81.7% | 807.3hPa | 2.7V | 07:20:49 | 03:43:07 | 00:00:00 | i |
| DM0DOS-11 | 2026-09-03 14:32:47 | 51.22824 | 8.29476 | 105° | 71km/h | 2006m | -2.8m/s | 8.4°C | 81.6% | 806.7hPa | 2.7V | 07:20:51 | 03:43:05 | 00:00:00 | i |
| BIOWL1-15 | 2026-09-03 14:32:44 | 51.22819 | 8.29530 | 93° | 68km/h | 2000m | -2.9m/s | 8.4°C | 84.4% | 807.3hPa | 2.7V | 07:21:14 | 03:43:07 | 00:00:00 | i |
| DJ2KF-10 | 2026-09-03 14:32:44 | 51.22819 | 8.29530 | 94° | 73km/h | 2000m | -2.9m/s | 8.4°C | 81.7% | 807.2hPa | 2.7V | 00:00:00 | 03:43:07 | 00:00:00 | i |
| DB0UT-7 | 2026-09-03 14:32:44 | 51.22819 | 8.29530 | 94° | 80km/h | 2000m | -2.9m/s | 8.4°C | 81.7% | 807.2hPa | 2.7V | 00:00:00 | 00:00:00 | 00:00:00 | i |
| BIOWL7-15 | 2026-09-03 14:32:43 | 51.22819 | 8.29530 | 94° | 68km/h | 2000m | -2.9m/s | 8.4°C | 80.4% | 807.3hPa | 2.7V | 07:21:00 | 00:00:00 | 00:00:00 | |
| DM0DOS-11 | 2026-09-03 14:32:42 | 51.22846 | 8.29307 | 91° | 89km/h | 2019m | -2.7m/s | 8.5°C | 82.5% | 805.5hPa | 2.7V | 07:20:56 | 03:43:00 | 00:00:00 | i |
| BIOWL1-15 | 2026-09-03 14:32:37 | 51.22845 | 8.29239 | 86° | 77km/h | 2024m | -2.6m/s | 8.4°C | 87.5% | 805hPa | 2.7V | 07:21:14 | 03:42:58 | 00:00:00 | i |
| DO9LL-15 | 2026-09-03 14:32:37 | 51.22846 | 8.29306 | 92° | 78km/h | 2019m | -2.6m/s | 8.4°C | 82.5% | 805.4hPa | 2.7V | 07:20:00 | 03:43:00 | 00:00:00 | i |
| DJ2KF-10 | 2026-09-03 14:32:34 | 51.22843 | 8.29210 | 88° | 69km/h | 2027m | -2.9m/s | 8.3°C | 84.6% | 804.9hPa | 2.7V | 00:00:00 | 03:42:57 | 00:00:00 | |
| DM0DOS-11 | 2026-09-03 14:32:32 | 51.22845 | 8.29156 | 97° | 66km/h | 2033m | -2.8m/s | 8.3°C | 85.1% | 804.2hPa | 2.7V | 07:21:01 | 03:42:55 | 00:00:00 | i |
| DM0DOS-11 | 2026-09-03 14:32:32 | 51.22867 | 8.28998 | 99° | 93km/h | 2047m | -3.1m/s | 8.2°C | 87.9% | 802.8hPa | 2.7V | 07:21:06 | 03:42:50 | 00:00:00 | i |
| BIOWL1-15 | 2026-09-03 14:32:25 | 51.22870 | 8.28924 | 89° | 88km/h | 2054m | -3m/s | 8.1°C | 89% | 802.1hPa | 2.7V | 07:21:14 | 03:42:48 | 00:00:00 | i |
| DB0UT-7 | 2026-09-03 14:32:25 | 51.22870 | 8.28924 | 89° | 82km/h | 2054m | -3.0m/s | 8.0°C | 87.6% | 802.0hPa | 2.7V | 00:00:00 | 03:42:48 | 00:00:00 | i |
| DM0DOS-11 | 2026-09-03 14:32:22 | 51.22870 | 8.28833 | 96° | 68km/h | 2062m | -2.8m/s | 8.1°C | 87.6% | 801.1hPa | 2.7V | 07:21:11 | 03:42:45 | 00:00:00 | i |
| DM0DOS-11 | 2026-09-03 14:32:22 | 51.22893 | 8.28677 | 100° | 93km/h | 2077m | -3m/s | 8.1°C | 91.1% | 799.8hPa | 2.7V | 07:21:16 | 03:42:40 | 00:00:00 | i |
| DO2KSM | 2026-09-03 14:32:20 | 51.22873 | 8.28806 | 104° | 69km/h | 2065m | -2.9m/s | 8.1°C | 86.8% | 801.0hPa | 2.7V | 07:21:00 | 00:00:00 | 00:00:00 | |
| DO3DL | 2026-09-03 14:32:19 | 51.22877 | 8.28777 | 107° | 77km/h | 2068m | -3.0m/s | 8.1°C | 86.6% | 800.7hPa | 2.7V | 07:21:00 | 00:00:00 | 00:00:00 | |
| DM0DOS-11 | 2026-09-03 14:32:17 | 51.22898 | 8.28500 | 89° | 71km/h | 2092m | -3m/s | 8°C | 94% | 798.1hPa | 2.7V | 07:21:21 | 03:42:35 | 00:00:00 | i |
| BIOWL1-15 | 2026-09-03 14:32:14 | 51.22899 | 8.28564 | 88° | 89km/h | 2086m | -3.2m/s | 8.1°C | 95.2% | 799hPa | 2.7V | 07:22:05 | 03:42:37 | 00:00:00 | i |
| DO3DL | 2026-09-03 14:32:13 | 51.22899 | 8.28564 | 89° | 89km/h | 2086m | -3.2m/s | 8.1°C | 91.8% | 798.9hPa | 2.7V | 07:22:00 | 00:00:00 | 00:00:00 | |
| DM0DOS-11 | 2026-09-03 14:32:12 | 51.22919 | 8.28349 | 103° | 93km/h | 2108m | -3m/s | 7.9°C | 96.9% | 796.8hPa | 2.7V | 07:21:26 | 03:42:30 | 00:00:00 | i |
| DJ2KF-10 | 2026-09-03 14:32:08 | 51.22913 | 8.28384 | 107° | 78km/h | 2105m | -3.1m/s | 7.9°C | 96.6% | 797.0hPa | 2.7V | 00:00:00 | 03:42:31 | 00:00:00 | |
| DM0DOS-11 | 2026-09-03 14:32:07 | 51.22926 | 8.28172 | 90° | 71km/h | 2123m | -3.1m/s | 7.8°C | 97.8% | 795.3hPa | 2.7V | 07:21:31 | 03:42:25 | 00:00:00 | i |
| BIOWL1-15 | 2026-09-03 14:32:04 | 51.22926 | 8.28202 | 88° | 80km/h | 2120m | -3.1m/s | 7.8°C | 99.1% | 795.5hPa | 2.7V | 07:22:05 | 03:42:26 | 00:00:00 | i |
| DM0DOS-11 | 2026-09-03 14:32:02 | 51.22947 | 8.28023 | 103° | 93km/h | 2139m | -3m/s | 7.6°C | 98.6% | 793.8hPa | 2.7V | 07:21:36 | 03:42:20 | 00:00:00 | i |
| BIOWL1-15 | 2026-09-03 14:31:55 | 51.22954 | 8.27880 | 89° | 78km/h | 2151m | -3m/s | 7.5°C | 99.5% | 792.7hPa | 2.7V | 07:22:05 | 03:42:16 | 00:00:00 | i |
| DB0ND-19 | 2026-09-03 14:31:53 | 51.22954 | 8.27850 | 91° | 71km/h | 2154m | -3.0m/s | 7.5°C | 97.9% | 792.4hPa | 2.7V | 00:00:00 | 00:00:00 | 00:00:00 | |
| DM0DOS-11 | 2026-09-03 14:31:52 | 51.22955 | 8.27850 | 91° | 73km/h | 2154m | -3m/s | 7.5°C | 99.6% | 792.4hPa | 2.7V | 07:21:41 | 03:42:15 | 00:00:00 | i |
| DM0DOS-11 | 2026-09-03 14:31:52 | 51.22973 | 8.27705 | 108° | 82km/h | 2169m | -3.2m/s | 7.4°C | 0% | 791hPa | 2.7V | 07:21:46 | 03:42:10 | 00:00:00 | i |
| DJ2KF-10 | 2026-09-03 14:31:47 | 51.22973 | 8.27705 | 109° | 80km/h | 2169m | -3.1m/s | 7.3°C | 0% | 790.9hPa | 2.7V | 00:00:00 | 03:42:10 | 00:00:00 | |
| DB0UT-7 | 2026-09-03 14:31:45 | 51.22985 | 8.27637 | 103° | 82km/h | 2176m | -3.1m/s | 7.3°C | 0% | 790.3hPa | 2.7V | 00:00:00 | 03:42:08 | 00:00:00 | |
| DM0DOS-11 | 2026-09-03 14:31:42 | 51.22992 | 8.27526 | 89° | 88km/h | 2185m | -3.3m/s | 7.3°C | 0% | 789.4hPa | 2.7V | 07:21:51 | 03:42:05 | 00:00:00 | i |
| DM0DOS-11 | 2026-09-03 14:31:42 | 51.23000 | 8.27377 | 106° | 73km/h | 2201m | -3.3m/s | 7.2°C | 0% | 788hPa | 2.7V | 07:21:56 | 03:42:00 | 00:00:00 | i |
| BIOWL1-15 | 2026-09-03 14:31:42 | 51.22992 | 8.27526 | 89° | 88km/h | 2185m | -3.3m/s | 7.3°C | 99.3% | 789.4hPa | 2.7V | 07:22:05 | 03:42:05 | 00:00:00 | i |
| DO3DL | 2026-09-03 14:31:39 | 51.22991 | 8.27461 | 92° | 73km/h | 2192m | -3.3m/s | 7.2°C | 99.9% | 788.8hPa | 2.7V | 07:22:00 | 00:00:00 | 00:00:00 | |
| DO2KSM | 2026-09-03 14:31:38 | 51.22992 | 8.27433 | 97° | 69km/h | 2195m | -3.2m/s | 7.2°C | 99.3% | 788.5hPa | 2.7V | 07:22:00 | 00:00:00 | 00:00:00 | |
| DM0DOS-11 | 2026-09-03 14:31:37 | 51.23026 | 8.27207 | 94° | 95km/h | 2218m | -3.2m/s | 7.2°C | 99.4% | 786.3hPa | 2.7V | 07:22:01 | 03:41:55 | 00:00:00 | i |
| BIOWL1-15 | 2026-09-03 14:31:32 | 51.23026 | 8.27207 | 95° | 95km/h | 2218m | -3.2m/s | 7.2°C | 96.6% | 786.3hPa | 2.7V | 07:22:05 | 03:41:55 | 00:00:00 | i |
| DM0DOS-11 | 2026-09-03 14:31:27 | 51.23052 | 8.26882 | 96° | 95km/h | 2249m | -3m/s | 8.2°C | 72.6% | 783.4hPa | 2.7V | 07:22:11 | 03:41:45 | 00:00:00 | i |
| DO3DL | 2026-09-03 14:31:26 | 51.23030 | 8.27049 | 103° | 69km/h | 2234m | -3.1m/s | 7.7°C | 84.3% | 784.9hPa | 2.7V | 07:22:00 | 00:00:00 | 00:00:00 | |
| DB0UT-7 | 2026-09-03 14:31:25 | 51.23039 | 8.26989 | 105° | 88km/h | 2240m | -3.0m/s | 7.7°C | 83.8% | 784.1hPa | 2.7V | 00:00:00 | 00:00:00 | 00:00:00 | |
| DM0DOS-11 | 2026-09-03 14:31:22 | 51.23053 | 8.26703 | 89° | 75km/h | 2265m | -2.9m/s | 8.3°C | 68.4% | 781.7hPa | 2.7V | 07:22:16 | 03:41:40 | 00:00:00 | i |
| BIOWL1-15 | 2026-09-03 14:31:22 | 51.23052 | 8.26882 | 96° | 95km/h | 2249m | -3m/s | 8.2°C | 76% | 783.4hPa | 2.7V | 07:22:56 | 03:41:45 | 00:00:00 | i |
| BIOWL1-15 | 2026-09-03 14:31:13 | 51.23074 | 8.26513 | 100° | 95km/h | 2283m | -2.8m/s | 8.2°C | 70.6% | 780.1hPa | 2.7V | 07:22:56 | 03:41:34 | 00:00:00 | i |
| DM0DOS-11 | 2026-09-03 14:31:12 | 51.23070 | 8.26549 | 102° | 89km/h | 2280m | -2.9m/s | 8.2°C | 67.6% | 780.5hPa | 2.7V | 07:22:21 | 03:41:35 | 00:00:00 | i |
| DM0DOS-11 | 2026-09-03 14:31:12 | 51.23080 | 8.26358 | 86° | 89km/h | 2295m | -2.9m/s | 8.1°C | 66.5% | 779.1hPa | 2.7V | 07:22:26 | 03:41:30 | 00:00:00 | i |
| DO3DL | 2026-09-03 14:31:06 | 51.23080 | 8.26358 | 88° | 89km/h | 2295m | -2.9m/s | 8.1°C | 65.4% | 779.1hPa | 2.7V | 07:22:00 | 00:00:00 | 00:00:00 | |
| DB0UT-7 | 2026-09-03 14:31:05 | 51.23078 | 8.26293 | 89° | 84km/h | 2301m | -2.9m/s | 8.0°C | 66.9% | 778.5hPa | 2.7V | 00:00:00 | 03:41:28 | 00:00:00 | |
| DM0DOS-11 | 2026-09-03 14:31:02 | 51.23101 | 8.26024 | 90° | 97km/h | 2326m | -3.4m/s | 7.9°C | 66.7% | 776.4hPa | 2.7V | 07:22:36 | 03:41:20 | 00:00:00 | i |
| BIOWL1-15 | 2026-09-03 14:31:02 | 51.23093 | 8.26140 | 101° | 91km/h | 2316m | -2.9m/s | 8°C | 68.1% | 777.1hPa | 2.6V | 07:22:56 | 03:41:23 | 00:00:00 | i |
| DJ2KF-10 | 2026-09-03 14:31:00 | 51.23093 | 8.26140 | 101° | 82km/h | 2316m | -2.9m/s | 8.0°C | 65.1% | 777.0hPa | 2.7V | 00:00:00 | 03:41:23 | 00:00:00 | |
| DO3DL | 2026-09-03 14:30:59 | 51.23093 | 8.26140 | 102° | 91km/h | 2316m | -2.9m/s | 8.0°C | 64.0% | 777.1hPa | 2.7V | 07:22:00 | 00:00:00 | 00:00:00 | |
| DL4BBY-15 | 2026-09-03 14:30:58 | 51.23099 | 8.26063 | 95° | 80km/h | 2322m | -3.2m/s | 8.1°C | 0% | 0hPa | 2.7V | 00:00:00 | 00:00:00 | 00:00:00 | |
| DM0DOS-11 | 2026-09-03 14:30:57 | 51.23098 | 8.25861 | 96° | 68km/h | 2341m | -3.2m/s | 7.8°C | 68.1% | 774.8hPa | 2.7V | 07:22:41 | 03:41:15 | 00:00:00 | i |
| DO9LL-15 | 2026-09-03 14:30:54 | 51.23098 | 8.25918 | 87° | 78km/h | 2335m | -2.9m/s | 7.8°C | 66.1% | 775.1hPa | 2.7V | 00:00:00 | 03:41:17 | 00:00:00 | |
| DM0DOS-11 | 2026-09-03 14:30:52 | 51.23116 | 8.25697 | 92° | 95km/h | 2357m | -3m/s | 7.9°C | 66.7% | 773.2hPa | 2.6V | 07:22:46 | 03:41:10 | 00:00:00 | i |
| BIOWL1-15 | 2026-09-03 14:30:52 | 51.23106 | 8.25804 | 104° | 80km/h | 2348m | -3.1m/s | 7.9°C | 70.5% | 774.1hPa | 2.7V | 07:22:56 | 03:41:13 | 00:00:00 | i |
| DD1CC8 | 2026-09-03 14:30:50 | 51.23106 | 8.25804 | 103° | 78km/h | 2348m | -3.1m/s | 7.9°C | 65.8% | 774.1hPa | 2.7V | 00:00:00 | 00:00:00 | 00:00:00 | |
| DM0DOS-11 | 2026-09-03 14:30:47 | 51.23112 | 8.25533 | 93° | 68km/h | 2372m | -3m/s | 7.7°C | 68.9% | 771.8hPa | 2.7V | 07:22:51 | 03:41:05 | 00:00:00 | |
| BIOWL1-15 | 2026-09-03 14:30:45 | 51.23122 | 8.25445 | 102° | 84km/h | 2381m | -2.9m/s | 7.7°C | 75.2% | 771hPa | 2.7V | 07:22:56 | 03:41:02 | 00:00:00 | i |
| DB0UT-7 | 2026-09-03 14:30:45 | 51.23114 | 8.25623 | 85° | 78km/h | 2363m | -3.2m/s | 7.8°C | 67.2% | 772.6hPa | 2.7V | 00:00:00 | 00:00:00 | 00:00:00 | i |
| DM0DOS-11 | 2026-09-03 14:30:42 | 51.23129 | 8.25374 | 94° | 93km/h | 2387m | -2.9m/s | 7.7°C | 73.3% | 770.6hPa | 2.7V | 07:22:56 | 03:41:00 | 00:00:00 | i |
| DJ2KF-10 | 2026-09-03 14:30:40 | 51.23118 | 8.25477 | 104° | 82km/h | 2378m | -2.9m/s | 7.7°C | 72.4% | 771.3hPa | 2.7V | 07:22:00 | 03:41:03 | 00:00:00 | |
| DO3DL | 2026-09-03 14:30:39 | 51.23117 | 8.25477 | 104° | 77km/h | 2378m | -3.0m/s | 7.8°C | 71.2% | 771.3hPa | 2.7V | 07:22:00 | 00:00:00 | 00:00:00 | |
| BIOWL7-15 | 2026-09-03 14:30:37 | 51.23126 | 8.25410 | 100° | 89km/h | 2384m | -3.0m/s | 7.7°C | 71.1% | 770.6hPa | 2.7V | 07:22:00 | 00:00:00 | 00:00:00 | |
| DO2KSM | 2026-09-03 14:30:36 | 51.23129 | 8.25374 | 96° | 93km/h | 2387m | -2.9m/s | 7.7°C | 72.0% | 770.6hPa | 2.7V | 07:22:00 | 00:00:00 | 00:00:00 | |
| DO9LL-15 | 2026-09-03 14:30:34 | 51.23127 | 8.25264 | 84° | 82km/h | 2396m | -3.1m/s | 7.5°C | 73.4% | 769.7hPa | 2.7V | 00:00:00 | 03:40:57 | 00:00:00 | |
| DM0DOS-11 | 2026-09-03 14:30:32 | 51.23123 | 8.25204 | 86° | 68km/h | 2402m | -2.9m/s | 7.5°C | 72.4% | 769.1hPa | 2.7V | 07:23:01 | 03:40:55 | 00:00:00 | i |
| DM0DOS-11 | 2026-09-03 14:30:32 | 51.23136 | 8.25062 | 98° | 88km/h | 2418m | -3m/s | 7.4°C | 75.7% | 767.5hPa | 2.7V | 07:23:06 | 03:40:50 | 00:00:00 | i |
| BIOWL1-15 | 2026-09-03 14:30:28 | 51.23132 | 8.25095 | 102° | 80km/h | 2415m | -3.1m/s | 7.4°C | 77.2% | 767.8hPa | 2.7V | 07:23:47 | 03:40:51 | 00:00:00 | i |
| DO3DL | 2026-09-03 14:30:26 | 51.23136 | 8.25062 | 100° | 88km/h | 2418m | -3.0m/s | 7.4°C | 74.4% | 767.6hPa | 2.7V | 07:23:00 | 00:00:00 | 00:00:00 | |
| DB0UT-7 | 2026-09-03 14:30:25 | 51.23138 | 8.24989 | 90° | 80km/h | 2423m | -2.8m/s | 7.3°C | 77.5% | 766.9hPa | 2.7V | 07:23:00 | 03:40:48 | 00:00:00 | |
| WPPR-10 | 2026-09-03 14:30:23 | 51.23133 | 8.24885 | 81° | 77km/h | 2433m | -3.0m/s | 7.2°C | 79.8% | 766.3hPa | 2.7V | 00:00:00 | 00:00:00 | 00:00:00 | |
| DM0DOS-11 | 2026-09-03 14:30:22 | 51.23134 | 8.24744 | 101° | 77km/h | 2448m | -3.2m/s | 7.2°C | 92.9% | 764.8hPa | 2.7V | 07:23:16 | 03:40:40 | 00:00:00 | i |
| DL4BBY-15 | 2026-09-03 14:30:21 | 51.23130 | 8.24855 | 84° | 75km/h | 2436m | -2.9m/s | 7.3°C | 0% | 0hPa | 2.7V | 00:00:00 | 00:00:00 | 00:00:00 | |
| DJ2KF-10 | 2026-09-03 14:30:20 | 51.23129 | 8.24827 | 88° | 77km/h | 2439m | -2.8m/s | 7.1°C | 91.2% | 765.5hPa | 2.7V | 00:00:00 | 03:40:43 | 00:00:00 | |
| DD1CC8 | 2026-09-03 14:30:19 | 51.23129 | 8.24801 | 94° | 66km/h | 2441m | -3.1m/s | 7.1°C | 89.3% | 765.4hPa | 2.7V | 00:00:00 | 00:00:00 | 00:00:00 | |
| DM0DOS-11 | 2026-09-03 14:30:17 | 51.23140 | 8.24563 | 82° | 89km/h | 2463m | -3.2m/s | 7.1°C | 95.9% | 763.4hPa | 2.7V | 07:23:21 | 03:40:35 | 00:00:00 | i |
| BIOWL1-15 | 2026-09-03 14:30:17 | 51.23134 | 8.24744 | 101° | 77km/h | 2448m | -3.3m/s | 7.2°C | 94% | 764.8hPa | 2.7V | 07:23:47 | 03:40:40 | 00:00:00 | i |
| BIOWL7-15 | 2026-09-03 14:30:16 | 51.23134 | 8.24744 | 102° | 77km/h | 2448m | -3.3m/s | 7.2°C | 91.3% | 764.8hPa | 2.7V | 07:23:00 | 00:00:00 | 00:00:00 | |
| DO2KSM | 2026-09-03 14:30:15 | 51.23138 | 8.24712 | 101° | 86km/h | 2451m | -3.3m/s | 7.3°C | 91.0% | 764.6hPa | 2.7V | 07:23:00 | 00:00:00 | 00:00:00 | |
| DM0DOS-11 | 2026-09-03 14:30:12 | 51.23137 | 8.24414 | 99° | 77km/h | 2478m | -3.1m/s | 7°C | 99% | 762hPa | 2.7V | 07:23:26 | 03:40:30 | 00:00:00 | i |
| BIOWL1-15 | 2026-09-03 14:30:08 | 51.23140 | 8.24381 | 99° | 86km/h | 2481m | -2.9m/s | 7°C | 97.9% | 761.7hPa | 2.7V | 07:23:47 | 03:40:29 | 00:00:00 | i |
| DM0DOS-11 | 2026-09-03 14:30:07 | 51.23142 | 8.24234 | 84° | 91km/h | 2493m | -2.8m/s | 6.9°C | 99.2% | 760.8hPa | 2.7V | 07:23:31 | 03:40:25 | 00:00:00 | i |
| DO3DL | 2026-09-03 14:30:06 | 51.23136 | 8.24414 | 100° | 77km/h | 2478m | -3.1m/s | 7.0°C | 97.3% | 762.0hPa | 2.7V | 07:23:00 | 00:00:00 | 00:00:00 | |
| DB0UT-7 | 2026-09-03 14:30:05 | 51.23142 | 8.24346 | 96° | 82km/h | 2484m | -2.8m/s | 7.0°C | 98.9% | 761.4hPa | 2.7V | 00:00:00 | 00:00:00 | 00:00:00 | |
| DD1CC3-15 | 2026-09-03 14:30:04 | 51.23142 | 8.24346 | 97° | 91km/h | 2484m | -2.9m/s | 7.0°C | 97.2% | 761.4hPa | 2.7V | 07:23:00 | 00:00:00 | 00:00:00 | |
| BIOWL9-15 | 2026-09-03 14:30:03 | 51.23142 | 8.24234 | 84° | 91km/h | 2493m | -2.8m/s | 6.9°C | 97.4% | 760.8hPa | 2.7V | 00:00:00 | 00:00:00 | 00:00:00 | |
| DM0DOS-11 | 2026-09-03 14:30:02 | 51.23131 | 8.24075 | 90° | 68km/h | 2508m | -3.1m/s | 6.8°C | 99.8% | 759.3hPa | 2.7V | 07:23:36 | 03:40:20 | 00:00:00 | i |
| BIOWL1-15 | 2026-09-03 14:29:57 | 51.23134 | 8.24019 | 100° | 75km/h | 2514m | -3.2m/s | 6.8°C | 95.8% | 758.7hPa | 2.7V | 07:23:47 | 03:40:18 | 00:00:00 | i |
| BIOWL7-15 | 2026-09-03 14:29:56 | 51.23131 | 8.24075 | 92° | 68km/h | 2508m | -3.1m/s | 6.8°C | 98.1% | 759.3hPa | 2.7V | 07:23:00 | 00:00:00 | 00:00:00 | |
| DO2KSM | 2026-09-03 14:29:55 | 51.23132 | 8.24048 | 97° | 69km/h | 2511m | -3.2m/s | 6.8°C | 97.3% | 759.0hPa | 2.7V | 07:23:00 | 00:00:00 | 00:00:00 | |
| DO3DL | 2026-09-03 14:29:53 | 51.23138 | 8.23988 | 101° | 84km/h | 2517m | -3.2m/s | 6.9°C | 95.7% | 758.4hPa | 2.7V | 07:23:00 | 00:00:00 | 00:00:00 | |
| DM0DOS-11 | 2026-09-03 14:29:52 | 51.23143 | 8.23915 | 92° | 97km/h | 2523m | -3.1m/s | 6.9°C | 94.9% | 757.8hPa | 2.7V | 07:23:41 | 03:40:15 | 00:00:00 | i |
| DM0DOS-11 | 2026-09-03 14:29:52 | 51.23135 | 8.23747 | 90° | 66km/h | 2539m | -2.9m/s | 6.9°C | 89.7% | 756.5hPa | 2.7V | 07:23:46 | 03:40:10 | 00:00:00 | i |
| HSKMA3-T | 2026-09-03 14:29:49 | 51.23139 | 8.23805 | 80° | 80km/h | 2533m | -3.2m/s | 7°C | 88.8% | 757.1hPa | 2.6V | 07:28:02 | 03:40:12 | 00:00:00 | i |
| BIOWL1-15 | 2026-09-03 14:29:47 | 51.23138 | 8.23692 | 100° | 75km/h | 2545m | -3.2m/s | 7°C | 82.1% | 755.9hPa | 2.7V | 07:24:38 | 03:40:08 | 00:00:00 | i |
| DO3DL | 2026-09-03 14:29:46 | 51.23134 | 8.23747 | 91° | 66km/h | 2539m | -2.9m/s | 6.9°C | 88.2% | 756.5hPa | 2.7V | 07:23:00 | 00:00:00 | 00:00:00 | |
| DB0UT-7 | 2026-09-03 14:29:45 | 51.23138 | 8.23692 | 100° | 78km/h | 2545m | -3.1m/s | 7.0°C | 82.0% | 755.8hPa | 2.7V | 00:00:00 | 03:40:08 | 00:00:00 | |
| DD1CC3-15 | 2026-09-03 14:29:44 | 51.23138 | 8.23692 | 101° | 75km/h | 2545m | -3.2m/s | 7.0°C | 80.5% | 755.9hPa | 2.7V | 07:24:00 | 00:00:00 | 00:00:00 | |
| DM0DOS-11 | 2026-09-03 14:29:42 | 51.23145 | 8.23588 | 89° | 93km/h | 2555m | -3m/s | 7.5°C | 53.6% | 754.9hPa | 2.7V | 07:23:51 | 03:40:05 | 00:00:00 | i |
| DM0DOS-11 | 2026-09-03 14:29:42 | 51.23135 | 8.23425 | 90° | 68km/h | 2570m | -2.9m/s | 7.6°C | 39.2% | 753.5hPa | 2.7V | 07:23:56 | 03:40:00 | 00:00:00 | i |
| DO3DL | 2026-09-03 14:29:39 | 51.23141 | 8.23515 | 83° | 86km/h | 2561m | -3.4m/s | 7.7°C | 37.2% | 754.4hPa | 2.7V | 07:24:00 | 00:00:00 | 00:00:00 | |
| DM0DOS-11 | 2026-09-03 14:29:37 | 51.23146 | 8.23279 | 96° | 86km/h | 2586m | -3.5m/s | 7.7°C | 36.1% | 752hPa | 2.7V | 07:24:01 | 03:39:55 | 00:00:00 | i |
| BIOWL1-15 | 2026-09-03 14:29:35 | 51.23137 | 8.23370 | 98° | 69km/h | 2576m | -3m/s | 7.7°C | 42.1% | 753hPa | 2.7V | 07:24:38 | 03:39:58 | 00:00:00 | i |
| BIOWL7-15 | 2026-09-03 14:29:34 | 51.23137 | 8.23370 | 99° | 69km/h | 2576m | -3.0m/s | 7.7°C | 38.0% | 753.1hPa | 2.6V | 07:24:00 | 00:00:00 | 00:00:00 | |
| DO3DL | 2026-09-03 14:29:33 | 51.23140 | 8.23342 | 102° | 73km/h | 2580m | -3.4m/s | 7.7°C | 34.7% | 752.6hPa | 2.6V | 07:24:00 | 00:00:00 | 00:00:00 | |
| DM0DOS-11 | 2026-09-03 14:29:32 | 51.23140 | 8.23111 | 81° | 69km/h | 2603m | -3.2m/s | 7.6°C | 32% | 750.7hPa | 2.6V | 07:24:06 | 03:39:50 | 00:00:00 | i |
| BIOWL9-15 | 2026-09-03 14:29:32 | 51.23148 | 8.23244 | 92° | 88km/h | 2590m | -3.4m/s | 7.7°C | 32.1% | 751.7hPa | 2.7V | 00:00:00 | 00:00:00 | 00:00:00 | i |
| DM0DOS-11 | 2026-09-03 14:29:27 | 51.23147 | 8.22974 | 100° | 82km/h | 2619m | -3.3m/s | 7.5°C | 28.3% | 748.9hPa | 2.7V | 07:24:11 | 03:39:45 | 00:00:00 | i |
| BIOWL1-15 | 2026-09-03 14:29:24 | 51.23140 | 8.23033 | 99° | 66km/h | 2613m | -3.5m/s | 7.6°C | 32.2% | 749.6hPa | 2.7V | 07:24:38 | 03:39:47 | 00:00:00 | i |
| DD1CC3-15 | 2026-09-03 14:29:23 | 51.23140 | 8.23032 | 100° | 66km/h | 2613m | -3.5m/s | 7.6°C | 28.8% | 749.6hPa | 2.6V | 07:24:00 | 00:00:00 | 00:00:00 | |
| DM0DOS-11 | 2026-09-03 14:29:21 | 51.23145 | 8.22778 | 84° | 64km/h | 2637m | -2.5m/s | 7.3°C | 29.1% | 747.4hPa | 2.6V | 07:24:17 | 03:39:39 | 00:00:00 | i |
| BIOWL1-15 | 2026-09-03 14:29:14 | 51.23146 | 8.22728 | 100° | 62km/h | 2643m | -3m/s | 7.5°C | 23.8% | 746.7hPa | 2.7V | 07:24:38 | 03:39:37 | 00:00:00 | |
| DM0DOS-11 | 2026-09-03 14:29:10 | 51.23162 | 8.22609 | 98° | 84km/h | 2655m | -3.2m/s | 7.2°C | 29.5% | 745.8hPa | 2.7V | 07:24:23 | 03:39:33 | 00:00:00 | i |
| DM0DOS-11 | 2026-09-03 14:29:10 | 51.23159 | 8.22452 | 85° | 66km/h | 2670m | -3.1m/s | 7.2°C | 22.9% | 744.6hPa | 2.7V | 07:24:28 | 03:39:28 | 00:00:00 | i |
| DO3DL | 2026-09-03 14:29:08 | 51.23164 | 8.22575 | 94° | 84km/h | 2658m | -2.9m/s | 7.2°C | 29.2% | 745.5hPa | 2.7V | 07:24:00 | 00:00:00 | 00:00:00 | |
| DM0DOS-11 | 2026-09-03 14:29:05 | 51.23173 | 8.22330 | 107° | 73km/h | 2685m | -3.3m/s | 7.9°C | 6.8% | 743.2hPa | 2.7V | 07:24:33 | 03:39:23 | 00:00:00 | i |
| BIOWL1-15 | 2026-09-03 14:29:05 | 51.23160 | 8.22404 | 99° | 57km/h | 2676m | -2.9m/s | 7.1°C | 31% | 743.9hPa | 2.7V | 07:24:38 | 03:39:26 | 00:00:00 | i |
| DB0UT-7 | 2026-09-03 14:29:05 | 51.23159 | 8.22452 | 86° | 71km/h | 2670m | -3.0m/s | 7.2°C | 22.9% | 744.5hPa | 2.7V | 00:00:00 | 03:39:28 | 00:00:00 | i |
| DD1CC3-15 | 2026-09-03 14:29:03 | 51.23159 | 8.22427 | 91° | 58km/h | 2673m | -3.1m/s | 7.0°C | 29.1% | 744.3hPa | 2.7V | 07:24:00 | 00:00:00 | 00:00:00 | |
| BIOWL9-15 | 2026-09-03 14:29:01 | 51.23173 | 8.22330 | 107° | 73km/h | 2685m | -3.3m/s | 7.9°C | 6.7% | 743.2hPa | 2.7V | 00:00:00 | 00:00:00 | 00:00:00 | |
| DM0DOS-11 | 2026-09-03 14:29:00 | 51.23183 | 8.22169 | 84° | 71km/h | 2701m | -3.2m/s | 7.7°C | 7.1% | 741.8hPa | 2.7V | 07:24:38 | 03:39:18 | 00:00:00 | i |
| BIOWL1-15 | 2026-09-03 14:28:55 | 51.23181 | 8.22118 | 93° | 57km/h | 2707m | -3.2m/s | 7.7°C | 5% | 741.2hPa | 2.7V | 07:25:29 | 03:39:16 | 00:00:00 | i |
| WPPR-10 | 2026-09-03 14:28:50 | 51.23198 | 8.22016 | 106° | 80km/h | 2720m | -3.2m/s | 7.6°C | 6.5% | 740.0hPa | 2.7V | 00:00:00 | 00:00:00 | 00:00:00 | |
| DD1CC8 | 2026-09-03 14:28:46 | 51.23207 | 8.21885 | 86° | 73km/h | 2733m | -3.3m/s | 7.5°C | 6.5% | 738.8hPa | 2.7V | 00:00:00 | 00:00:00 | 00:00:00 | |
| DM0DOS-11 | 2026-09-03 14:28:45 | 51.23217 | 8.21761 | 109° | 68km/h | 2749m | -3.2m/s | 7.5°C | 6.7% | 737.5hPa | 2.7V | 07:24:53 | 03:39:03 | 00:00:00 | i |
| BIOWL1-15 | 2026-09-03 14:28:44 | 51.23208 | 8.21809 | 102° | 58km/h | 2743m | -3.1m/s | 7.5°C | 5.8% | 738hPa | 2.7V | 07:25:29 | 03:39:05 | 00:00:00 | i |
| DD1CC3-15 | 2026-09-03 14:28:43 | 51.23206 | 8.21857 | 89° | 64km/h | 2736m | -3.1m/s | 7.5°C | 7.0% | 738.4hPa | 2.7V | 07:25:00 | 00:00:00 | 00:00:00 | |
| DM0DOS-11 | 2026-09-03 14:28:40 | 51.23240 | 8.21604 | 93° | 86km/h | 2765m | -3.5m/s | 7.4°C | 6% | 736hPa | 2.7V | 07:24:58 | 03:38:58 | 00:00:00 | i |
| BIOWL1-15 | 2026-09-03 14:28:33 | 51.23241 | 8.21490 | 99° | 57km/h | 2779m | -3.3m/s | 7.3°C | 5.1% | 734.8hPa | 2.7V | 07:25:29 | 03:38:54 | 00:00:00 | i |
| DM0DOS-11 | 2026-09-03 14:28:30 | 51.23244 | 8.21467 | 107° | 60km/h | 2782m | -3.2m/s | 7.3°C | 7.6% | 734.4hPa | 2.7V | 07:25:03 | 03:38:53 | 00:00:00 | i |
| BIOWL9-15 | 2026-09-03 14:28:30 | 51.23250 | 8.21442 | 110° | 69km/h | 2785m | -3.3m/s | 7.2°C | 7.9% | 734.3hPa | 2.7V | 00:00:00 | 00:00:00 | 00:00:00 | i |
| DO3DL | 2026-09-03 14:28:26 | 51.23262 | 8.21382 | 106° | 84km/h | 2792m | -3.3m/s | 7.2°C | 8.6% | 733.5hPa | 2.7V | 07:25:00 | 00:00:00 | 00:00:00 | |
| DM0DOS-11 | 2026-09-03 14:28:25 | 51.23272 | 8.21173 | 98° | 57km/h | 2815m | -3.5m/s | 7°C | 9.2% | 731.3hPa | 2.7V | 07:25:13 | 03:38:43 | 00:00:00 | i |
| DB0UT-7 | 2026-09-03 14:28:25 | 51.23270 | 8.21315 | 96° | 73km/h | 2799m | -3.3m/s | 7.1°C | 9.2% | 732.9hPa | 2.7V | 00:00:00 | 03:38:48 | 00:00:00 | i |
| DD1CC3-15 | 2026-09-03 14:28:22 | 51.23271 | 8.21251 | 89° | 75km/h | 2805m | -3.4m/s | 7.1°C | 9.1% | 732.4hPa | 2.7V | 07:25:00 | 00:00:00 | 00:00:00 | |
| DM0DOS-11 | 2026-09-03 14:28:20 | 51.23299 | 8.21034 | 100° | 88km/h | 2833m | -3.5m/s | 6.8°C | 9.3% | 729.9hPa | 2.7V | 07:25:18 | 03:38:38 | 00:00:00 | i |
| BIOWL1-15 | 2026-09-03 14:28:20 | 51.23272 | 8.21173 | 99° | 57km/h | 2815m | -3.5m/s | 7°C | 8.5% | 731.4hPa | 2.7V | 07:25:29 | 03:38:43 | 00:00:00 | i |
| DO3DL | 2026-09-03 14:28:19 | 51.23272 | 8.21173 | 100° | 57km/h | 2815m | -3.5m/s | 7.0°C | 9.1% | 731.3hPa | 2.7V | 07:25:00 | 00:00:00 | 00:00:00 | |
| DL8DAS-15 | 2026-09-03 14:28:18 | 51.23275 | 8.21151 | 109° | 60km/h | 2819m | -3.5m/s | 6.9°C | 8.9% | 731.1hPa | 2.7V | 00:00:00 | 00:00:00 | 00:00:00 | |
| DM0DOS-11 | 2026-09-03 14:28:15 | 51.23305 | 8.20889 | 101° | 58km/h | 2850m | -3.4m/s | 6.7°C | 11.3% | 728.3hPa | 2.7V | 07:25:23 | 03:38:33 | 00:00:00 | i |
| DO2KSM | 2026-09-03 14:28:14 | 51.23299 | 8.21034 | 101° | 88km/h | 2833m | -3.5m/s | 6.8°C | 9.2% | 729.9hPa | 2.7V | 07:25:00 | 00:00:00 | 00:00:00 | |
| BIOWL7-15 | 2026-09-03 14:28:13 | 51.23303 | 8.20967 | 90° | 77km/h | 2840m | -3.4m/s | 6.8°C | 10.1% | 729.2hPa | 2.7V | 00:00:00 | 00:00:00 | 00:00:00 | |
| DO3DL | 2026-09-03 14:28:12 | 51.23303 | 8.20967 | 90° | 77km/h | 2840m | -3.4m/s | 6.8°C | 10.1% | 729.2hPa | 2.7V | 07:25:00 | 00:00:00 | 00:00:00 | |
| DM0DOS-11 | 2026-09-03 14:28:10 | 51.23334 | 8.20746 | 99° | 88km/h | 2867m | -3.5m/s | 6.5°C | 12.5% | 727hPa | 2.7V | 07:25:28 | 03:38:28 | 00:00:00 | i |
| BIOWL1-15 | 2026-09-03 14:28:09 | 51.23309 | 8.20866 | 110° | 64km/h | 2853m | -3.4m/s | 6.6°C | 12.4% | 728.1hPa | 2.7V | 07:25:29 | 03:38:32 | 00:00:00 | i |
| DJ2KF-10 | 2026-09-03 14:28:07 | 51.23322 | 8.20812 | 111° | 75km/h | 2860m | -3.3m/s | 6.5°C | 12.5% | 727.4hPa | 2.7V | 00:00:00 | 03:38:30 | 00:00:00 | |
| DD1CC1-15 | 2026-09-03 14:28:06 | 51.23322 | 8.20812 | 112° | 80km/h | 2860m | -3.4m/s | 6.6°C | 12.3% | 727.4hPa | 2.7V | 00:00:00 | 00:00:00 | 00:00:00 | |
| DO9LL-15 | 2026-09-03 14:28:05 | 51.23334 | 8.20745 | 100° | 75km/h | 2867m | -3.5m/s | 6.5°C | 12.5% | 726.9hPa | 2.7V | 00:00:00 | 03:38:28 | 00:00:00 | |
| DD1CC3-15 | 2026-09-03 14:28:02 | 51.23338 | 8.20678 | 92° | 77km/h | 2874m | -3.3m/s | 6.4°C | 13.0% | 726.2hPa | 2.7V | 07:26:00 | 00:00:00 | 00:00:00 | |
| DM0DOS-11 | 2026-09-03 14:28:00 | 51.23341 | 8.20599 | 101° | 58km/h | 2884m | -3.3m/s | 6.3°C | 13.1% | 725.3hPa | 2.7V | 07:25:33 | 03:38:23 | 00:00:00 | i |
| DM0DOS-11 | 2026-09-03 14:28:00 | 51.23371 | 8.20462 | 104° | 88km/h | 2902m | -3.4m/s | 6.2°C | 12.2% | 723.6hPa | 2.7V | 07:25:38 | 03:38:18 | 00:00:00 | i |
| BIOWL1-15 | 2026-09-03 14:27:58 | 51.23351 | 8.20552 | 113° | 68km/h | 2891m | -3.6m/s | 6.3°C | 12.6% | 724.8hPa | 2.6V | 07:26:20 | 03:38:21 | 00:00:00 | i |
| HSKMA3-T | 2026-09-03 14:27:50 | 51.23379 | 8.20306 | 99° | 60km/h | 2918m | -3.3m/s | 6.1°C | 13.1% | 722.3hPa | 2.7V | 07:28:02 | 03:38:13 | 00:00:00 | i |
| DM0DOS-11 | 2026-09-03 14:27:50 | 51.23380 | 8.20306 | 99° | 60km/h | 2918m | -3.3m/s | 6.1°C | 12.7% | 722.3hPa | 2.7V | 07:25:43 | 03:38:13 | 00:00:00 | i |
| DM0DOS-11 | 2026-09-03 14:27:50 | 51.23408 | 8.20163 | 103° | 88km/h | 2935m | -3.2m/s | 5.9°C | 16.3% | 720.9hPa | 2.7V | 07:25:48 | 03:38:08 | 00:00:00 | i |
| BIOWL1-15 | 2026-09-03 14:27:47 | 51.23395 | 8.20228 | 110° | 78km/h | 2928m | -3.2m/s | 6°C | 16.1% | 721.4hPa | 2.7V | 07:26:20 | 03:38:10 | 00:00:00 | i |
| DJ2KF-10 | 2026-09-03 14:27:47 | 51.23395 | 8.20228 | 111° | 71km/h | 2928m | -3.1m/s | 5.9°C | 15.0% | 721.3hPa | 2.6V | 00:00:00 | 03:38:10 | 00:00:00 | i |
| DM0DOS-11 | 2026-09-03 14:27:45 | 51.23415 | 8.20000 | 90° | 66km/h | 2951m | -3.5m/s | 5.7°C | 21.3% | 719.3hPa | 2.6V | 07:25:53 | 03:38:03 | 00:00:00 | i |
| DB0ND-19 | 2026-09-03 14:27:44 | 51.23412 | 8.20129 | 98° | 88km/h | 2938m | -3.3m/s | 5.9°C | 16.6% | 720.6hPa | 2.7V | 00:00:00 | 00:00:00 | 00:00:00 | |
| DL8DAS-15 | 2026-09-03 14:27:43 | 51.23412 | 8.20129 | 100° | 88km/h | 2938m | -3.3m/s | 5.9°C | 16.6% | 720.6hPa | 2.7V | 00:00:00 | 00:00:00 | 00:00:00 | |
| DD1CC3-15 | 2026-09-03 14:27:41 | 51.23415 | 8.20060 | 92° | 82km/h | 2945m | -3.3m/s | 5.8°C | 19.3% | 720.0hPa | 2.7V | 07:26:00 | 00:00:00 | 00:00:00 | |
| DM0DOS-11 | 2026-09-03 14:27:40 | 51.23439 | 8.19873 | 110° | 82km/h | 2968m | -3.2m/s | 5.7°C | 22% | 718hPa | 2.7V | 07:25:58 | 03:37:58 | 00:00:00 | i |
| BIOWL1-15 | 2026-09-03 14:27:37 | 51.23425 | 8.19928 | 113° | 66km/h | 2961m | -3.3m/s | 5.7°C | 24.9% | 718.5hPa | 2.7V | 07:26:20 | 03:38:00 | 00:00:00 | i |
| DM0DOS-11 | 2026-09-03 14:27:35 | 51.23454 | 8.19712 | 91° | 66km/h | 2984m | -3.3m/s | 5.5°C | 24.2% | 716.5hPa | 2.7V | 07:26:03 | 03:37:53 | 00:00:00 | i |
| DO2KSM | 2026-09-03 14:27:32 | 51.23450 | 8.19806 | 100° | 88km/h | 2974m | -3.1m/s | 5.6°C | 22.2% | 717.4hPa | 2.7V | 00:00:00 | 00:00:00 | 00:00:00 | |
| DM0DOS-11 | 2026-09-03 14:27:30 | 51.23478 | 8.19587 | 112° | 80km/h | 3000m | -3.2m/s | 5.4°C | 29.4% | 715.1hPa | 2.7V | 07:26:08 | 03:37:48 | 00:00:00 | i |
| BIOWL1-15 | 2026-09-03 14:27:29 | 51.23463 | 8.19640 | 113° | 64km/h | 2994m | -3.1m/s | 5.4°C | 32.7% | 715.6hPa | 2.7V | 07:26:20 | 03:37:50 | 00:00:00 | i |
| BIOWL1-15 | 2026-09-03 14:27:22 | 51.23509 | 8.19330 | 113° | 64km/h | 3028m | -3.1m/s | 5.1°C | 34.7% | 712.8hPa | 2.7V | 07:26:20 | 03:37:39 | 00:00:00 | i |
| DM0DOS-11 | 2026-09-03 14:27:20 | 51.23498 | 8.19427 | 92° | 69km/h | 3015m | -3m/s | 5.2°C | 30.2% | 713.7hPa | 2.7V | 07:26:13 | 03:37:43 | 00:00:00 | i |
| DM0DOS-11 | 2026-09-03 14:27:20 | 51.23516 | 8.19305 | 114° | 69km/h | 3031m | -3.1m/s | 5.1°C | 35.8% | 712.4hPa | 2.7V | 07:26:18 | 03:37:38 | 00:00:00 | i |
| DO3DL | 2026-09-03 14:27:17 | 51.23501 | 8.19375 | 101° | 58km/h | 3021m | -3.1m/s | 5.2°C | 30.3% | 713.3hPa | 2.7V | 07:26:00 | 00:00:00 | 00:00:00 | |
| WPPR-10 | 2026-09-03 14:27:16 | 51.23524 | 8.19278 | 113° | 77km/h | 3034m | -2.8m/s | 5.1°C | 34.9% | 712.1hPa | 2.7V | 00:00:00 | 00:00:00 | 00:00:00 | |
| DD1CC8 | 2026-09-03 14:27:13 | 51.23539 | 8.19216 | 107° | 86km/h | 3039m | -2.9m/s | 5.0°C | 36.5% | 711.8hPa | 2.7V | 00:00:00 | 00:00:00 | 00:00:00 | |
| DM0DOS-11 | 2026-09-03 14:27:10 | 51.23549 | 8.19149 | 97° | 84km/h | 3046m | -3.1m/s | 4.9°C | 36.2% | 711.2hPa | 2.7V | 07:26:23 | 03:37:33 | 00:00:00 | i |
| DM0DOS-11 | 2026-09-03 14:27:10 | 51.23560 | 8.19012 | 110° | 58km/h | 3061m | -3m/s | 4.7°C | 46.4% | 709.9hPa | 2.6V | 07:26:28 | 03:37:28 | 00:00:00 | i |
| BIOWL1-15 | 2026-09-03 14:27:08 | 51.23556 | 8.19035 | 103° | 58km/h | 3058m | -3m/s | 4.7°C | 48.2% | 710hPa | 2.7V | 07:27:11 | 03:37:29 | 00:00:00 | i |
| DD1CC1-15 | 2026-09-03 14:27:04 | 51.23560 | 8.19012 | 112° | 58km/h | 3061m | -3.1m/s | 4.7°C | 45.4% | 709.9hPa | 2.7V | 00:00:00 | 00:00:00 | 00:00:00 | |
| DO3DL | 2026-09-03 14:27:03 | 51.23566 | 8.18990 | 117° | 64km/h | 3064m | -3.0m/s | 4.6°C | 44.9% | 709.8hPa | 2.7V | 07:27:00 | 00:00:00 | 00:00:00 | |
| DM0DOS-11 | 2026-09-03 14:27:00 | 51.23607 | 8.18723 | 102° | 58km/h | 3092m | -3m/s | 4.2°C | 66% | 707hPa | 2.7V | 07:26:38 | 03:37:18 | 00:00:00 | i |
| BIOWL1-15 | 2026-09-03 14:26:56 | 51.23605 | 8.18748 | 95° | 64km/h | 3089m | -3.1m/s | 4.3°C | 69.8% | 707.4hPa | 2.7V | 07:27:11 | 03:37:19 | 00:00:00 | i |
| DB0UT-7 | 2026-09-03 14:26:56 | 51.23605 | 8.18748 | 96° | 73km/h | 3089m | -3.1m/s | 4.2°C | 66.7% | 707.4hPa | 2.7V | 00:00:00 | 03:37:19 | 00:00:00 | i |
| DM0DOS-11 | 2026-09-03 14:26:55 | 51.23642 | 8.18590 | 108° | 86km/h | 3107m | -3.2m/s | 4.2°C | 66% | 705.8hPa | 2.7V | 07:26:43 | 03:37:13 | 00:00:00 | i |
| HSKMA3-T | 2026-09-03 14:26:55 | 51.23607 | 8.18723 | 103° | 58km/h | 3092m | -3m/s | 4.2°C | 68.9% | 707hPa | 2.7V | 07:28:02 | 03:37:18 | 00:00:00 | i |
| DO9LL-15 | 2026-09-03 14:26:55 | 51.23607 | 8.18723 | 103° | 73km/h | 3092m | -3.0m/s | 4.2°C | 66.0% | 707.0hPa | 2.7V | 07:26:00 | 03:37:18 | 00:00:00 | i |
| DM0DOS-11 | 2026-09-03 14:26:50 | 51.23656 | 8.18432 | 94° | 66km/h | 3122m | -3m/s | 4.1°C | 66.3% | 704.4hPa | 2.7V | 07:26:48 | 03:37:08 | 00:00:00 | i |
| BIOWL1-15 | 2026-09-03 14:26:47 | 51.23656 | 8.18432 | 95° | 66km/h | 3122m | -3m/s | 4.1°C | 69.3% | 704.4hPa | 2.7V | 07:27:11 | 03:37:08 | 00:00:00 | i |
| HSKMA3-T | 2026-09-03 14:26:44 | 51.23658 | 8.18407 | 99° | 60km/h | 3125m | -3m/s | 4.1°C | 68% | 704.2hPa | 2.7V | 07:28:02 | 03:37:07 | 00:00:00 | i |
| BIOWL1-15 | 2026-09-03 14:26:37 | 51.23706 | 8.18148 | 93° | 77km/h | 3153m | -3.1m/s | 4.1°C | 71.8% | 701.8hPa | 2.7V | 07:27:11 | 03:36:58 | 00:00:00 | i |
| DM0DOS-11 | 2026-09-03 14:26:35 | 51.23706 | 8.18148 | 92° | 77km/h | 3153m | -3.1m/s | 4°C | 68.1% | 701.8hPa | 2.7V | 07:26:58 | 03:36:58 | 00:00:00 | i |
| DM0DOS-11 | 2026-09-03 14:26:35 | 51.23725 | 8.18021 | 116° | 73km/h | 3168m | -3.1m/s | 4°C | 62.2% | 700.5hPa | 2.7V | 07:27:03 | 03:36:53 | 00:00:00 | i |
| BIOWL1-15 | 2026-09-03 14:26:28 | 51.23755 | 8.17832 | 93° | 73km/h | 3186m | -2.8m/s | 3.9°C | 68.1% | 698.9hPa | 2.6V | 07:27:11 | 03:36:47 | 00:00:00 | i |
| DM0DOS-11 | 2026-09-03 14:26:25 | 51.23754 | 8.17862 | 95° | 78km/h | 3183m | -2.8m/s | 3.9°C | 62.8% | 699.1hPa | 2.7V | 07:27:08 | 03:36:48 | 00:00:00 | i |
| DM0DOS-11 | 2026-09-03 14:26:25 | 51.23764 | 8.17731 | 110° | 60km/h | 3197m | -3.2m/s | 3.8°C | 65.7% | 697.9hPa | 2.7V | 07:27:13 | 03:36:43 | 00:00:00 | i |
| HSKMA3-T | 2026-09-03 14:26:25 | 51.23754 | 8.17862 | 96° | 78km/h | 3183m | -2.8m/s | 3.9°C | 66.7% | 699.2hPa | 2.7V | 07:28:02 | 03:36:48 | 00:00:00 | i |
| DO3DL | 2026-09-03 14:26:25 | 51.23754 | 8.17862 | 96° | 78km/h | 3183m | -2.8m/s | 3.9°C | 61.4% | 699.2hPa | 2.7V | 07:27:00 | 00:00:00 | 00:00:00 | i |
| DD1CC1-15 | 2026-09-03 14:26:23 | 51.23755 | 8.17832 | 94° | 73km/h | 3186m | -2.8m/s | 3.9°C | 62.6% | 698.9hPa | 2.7V | 00:00:00 | 00:00:00 | 00:00:00 | |
| DM0DOS-11 | 2026-09-03 14:26:20 | 51.23799 | 8.17585 | 100° | 88km/h | 3213m | -3m/s | 3.7°C | 67.2% | 696.7hPa | 2.7V | 07:27:18 | 03:36:38 | 00:00:00 | i |
| DO3DL | 2026-09-03 14:26:18 | 51.23771 | 8.17707 | 117° | 66km/h | 3201m | -3.3m/s | 3.8°C | 64.1% | 697.6hPa | 2.7V | 07:28:00 | 00:00:00 | 00:00:00 | |
| DM0DOS-11 | 2026-09-03 14:26:15 | 51.23811 | 8.17443 | 108° | 62km/h | 3227m | -2.7m/s | 3.5°C | 67.6% | 695.4hPa | 2.7V | 07:27:23 | 03:36:33 | 00:00:00 | i |
| BIOWL1-15 | 2026-09-03 14:26:14 | 51.23803 | 8.17520 | 93° | 73km/h | 3219m | -2.8m/s | 3.6°C | 70.2% | 696.1hPa | 2.7V | 07:28:02 | 03:36:36 | 00:00:00 | i |
| DO3DL | 2026-09-03 14:26:12 | 51.23803 | 8.17519 | 94° | 73km/h | 3219m | -2.8m/s | 3.6°C | 65.8% | 696.1hPa | 2.7V | 07:28:00 | 00:00:00 | 00:00:00 | |
| DL8DAS-14 | 2026-09-03 14:26:11 | 51.23807 | 8.17467 | 102° | 60km/h | 3225m | -2.7m/s | 3.6°C | 66.1% | 695.6hPa | 2.7V | 00:00:00 | 00:00:00 | 00:00:00 | |
| DM0DOS-11 | 2026-09-03 14:26:10 | 51.23847 | 8.17301 | 107° | 89km/h | 3242m | -3.1m/s | 3.4°C | 68.4% | 694.2hPa | 2.7V | 07:27:28 | 03:36:28 | 00:00:00 | i |
| HSKMA3-T | 2026-09-03 14:26:10 | 51.23811 | 8.17443 | 108° | 62km/h | 3228m | -2.7m/s | 3.5°C | 70.4% | 695.4hPa | 2.7V | 07:28:02 | 03:36:33 | 00:00:00 | i |
| BIOWL1-15 | 2026-09-03 14:26:03 | 51.23857 | 8.17231 | 97° | 88km/h | 3248m | -3m/s | 3.4°C | 72.7% | 693.6hPa | 2.7V | 07:28:02 | 03:36:26 | 00:00:00 | i |
| BIOWL7-15 | 2026-09-03 14:26:02 | 51.23857 | 8.17231 | 98° | 88km/h | 3248m | -3.0m/s | 3.4°C | 68.1% | 693.6hPa | 2.6V | 07:28:00 | 00:00:00 | 00:00:00 | |
| DM0DOS-11 | 2026-09-03 14:26:00 | 51.23860 | 8.17140 | 94° | 62km/h | 3257m | -3.1m/s | 3.3°C | 72.5% | 693hPa | 2.6V | 07:27:33 | 03:36:23 | 00:00:00 | i |
| DM0DOS-11 | 2026-09-03 14:26:00 | 51.23890 | 8.17006 | 109° | 88km/h | 3272m | -3m/s | 3.2°C | 73.8% | 691.6hPa | 2.7V | 07:27:38 | 03:36:18 | 00:00:00 | i |
| BIOWL1-15 | 2026-09-03 14:25:53 | 51.23901 | 8.16936 | 97° | 88km/h | 3278m | -3.1m/s | 3.1°C | 76% | 691.2hPa | 2.7V | 07:28:02 | 03:36:16 | 00:00:00 | i |
| HSKMA3-T | 2026-09-03 14:25:51 | 51.23903 | 8.16872 | 92° | 71km/h | 3285m | -3m/s | 3.1°C | 75.3% | 690.6hPa | 2.7V | 07:28:02 | 03:36:14 | 00:00:00 | i |
| DM0DOS-11 | 2026-09-03 14:25:50 | 51.23904 | 8.16844 | 95° | 64km/h | 3287m | -3m/s | 3.1°C | 70.3% | 690.2hPa | 2.7V | 07:27:43 | 03:36:13 | 00:00:00 | i |
| DM0DOS-11 | 2026-09-03 14:25:50 | 51.23932 | 8.16708 | 106° | 88km/h | 3302m | -2.8m/s | 3.1°C | 66.1% | 689.1hPa | 2.7V | 07:27:48 | 03:36:08 | 00:00:00 | i |
| DJ2KF-10 | 2026-09-03 14:25:47 | 51.23918 | 8.16769 | 113° | 73km/h | 3296m | -3.0m/s | 3.1°C | 68.0% | 689.4hPa | 2.7V | 00:00:00 | 03:36:10 | 00:00:00 | |
| DL4BBY-15 | 2026-09-03 14:25:46 | 51.23925 | 8.16740 | 111° | 78km/h | 3300m | -2.9m/s | 3.3°C | 0% | 0hPa | 2.7V | 00:00:00 | 00:00:00 | 00:00:00 | |
| DM0DOS-11 | 2026-09-03 14:25:45 | 51.23945 | 8.16538 | 90° | 73km/h | 3317m | -3.1m/s | 2.9°C | 67.3% | 687.8hPa | 2.7V | 07:27:53 | 03:36:03 | 00:00:00 | i |
| BIOWL1-15 | 2026-09-03 14:25:42 | 51.23944 | 8.16603 | 94° | 88km/h | 3311m | -3m/s | 3°C | 70% | 688.3hPa | 2.7V | 07:28:02 | 03:36:05 | 00:00:00 | i |
| DM0DOS-11 | 2026-09-03 14:25:40 | 51.23965 | 8.16407 | 112° | 78km/h | 3331m | -2.7m/s | 2.8°C | 66.9% | 686.6hPa | 2.7V | 07:27:58 | 03:35:58 | 00:00:00 | i |
| HSKMA3-T | 2026-09-03 14:25:38 | 51.23948 | 8.16485 | 102° | 62km/h | 3323m | -2.8m/s | 2.9°C | 69.7% | 687.4hPa | 2.7V | 07:28:02 | 03:36:01 | 00:00:00 | i |
| DD1CC3-15 | 2026-09-03 14:25:37 | 51.23948 | 8.16485 | 103° | 62km/h | 3323m | -2.8m/s | 2.9°C | 65.6% | 687.4hPa | 2.7V | 07:28:00 | 00:00:00 | 00:00:00 | |
| DM0DOS-11 | 2026-09-03 14:25:35 | 51.23990 | 8.16237 | 92° | 84km/h | 3345m | -3m/s | 2.7°C | 67% | 685.4hPa | 2.7V | 07:28:03 | 03:35:53 | 00:00:00 | i |
| BIOWL1-15 | 2026-09-03 14:25:31 | 51.23988 | 8.16272 | 97° | 89km/h | 3342m | -2.9m/s | 2.7°C | 70.1% | 685.8hPa | 2.7V | 07:28:02 | 03:35:54 | 00:00:00 | i |
| DO3DL | 2026-09-03 14:25:30 | 51.23988 | 8.16272 | 98° | 89km/h | 3342m | -2.9m/s | 2.7°C | 65.1% | 685.8hPa | 2.7V | 07:28:00 | 00:00:00 | 00:00:00 | |
| DL8DAS-15 | 2026-09-03 14:25:28 | 51.23990 | 8.16204 | 91° | 77km/h | 3348m | -3.0m/s | 2.7°C | 65.9% | 685.1hPa | 2.7V | 00:00:00 | 00:00:00 | 00:00:00 | |
| DB0UT-7 | 2026-09-03 14:25:26 | 51.23995 | 8.16125 | 107° | 78km/h | 3357m | -2.9m/s | 2.5°C | 67.6% | 684.4hPa | 2.7V | 00:00:00 | 00:00:00 | 00:00:00 | |
| DM0DOS-11 | 2026-09-03 14:25:25 | 51.24028 | 8.15937 | 93° | 88km/h | 3374m | -3m/s | 2.5°C | 67.1% | 682.9hPa | 2.7V | 07:28:13 | 03:35:43 | 00:00:00 | i |
| HSKMA3-T | 2026-09-03 14:25:25 | 51.24000 | 8.16101 | 112° | 68km/h | 3360m | -2.9m/s | 2.6°C | 71% | 684.3hPa | 2.7V | 07:30:35 | 03:35:48 | 00:00:00 | i |
| BIOWL1-15 | 2026-09-03 14:25:20 | 51.24028 | 8.15937 | 94° | 88km/h | 3375m | -3m/s | 2.5°C | 70.3% | 682.9hPa | 2.7V | 07:28:53 | 03:35:43 | 00:00:00 | i |
| DO9LL-15 | 2026-09-03 14:25:20 | 51.24028 | 8.15937 | 94° | 78km/h | 3375m | -3.0m/s | 2.4°C | 67.1% | 682.8hPa | 2.7V | 00:00:00 | 03:35:43 | 00:00:00 | i |
| DL8DAS-15 | 2026-09-03 14:25:18 | 51.24029 | 8.15903 | 92° | 80km/h | 3378m | -3.0m/s | 2.5°C | 63.9% | 682.5hPa | 2.7V | 00:00:00 | 00:00:00 | 00:00:00 | |
| DO3DL | 2026-09-03 14:25:17 | 51.24030 | 8.15872 | 92° | 71km/h | 3381m | -2.7m/s | 2.5°C | 65.1% | 682.6hPa | 2.7V | 07:28:00 | 00:00:00 | 00:00:00 | |
| DD1CC3-15 | 2026-09-03 14:25:16 | 51.24031 | 8.15845 | 96° | 66km/h | 3383m | -2.5m/s | 2.5°C | 65.5% | 682.3hPa | 2.7V | 07:28:00 | 00:00:00 | 00:00:00 | |
| DM0DOS-11 | 2026-09-03 14:25:15 | 51.24037 | 8.15795 | 108° | 66km/h | 3389m | -2.8m/s | 2.4°C | 65.4% | 681.6hPa | 2.7V | 07:28:18 | 03:35:38 | 00:00:00 | i |
| DM0DOS-11 | 2026-09-03 14:25:15 | 51.24067 | 8.15635 | 100° | 91km/h | 3402m | -2.8m/s | 2.4°C | 69.9% | 680.6hPa | 2.7V | 07:28:23 | 03:35:33 | 00:00:00 | i |
| HSKMA3-T | 2026-09-03 14:25:12 | 51.24057 | 8.15707 | 107° | 88km/h | 3397m | -2.5m/s | 2.5°C | 71.4% | 681hPa | 2.7V | 07:30:35 | 03:35:35 | 00:00:00 | i |
| BIOWL1-15 | 2026-09-03 14:25:11 | 51.24071 | 8.15599 | 97° | 89km/h | 3405m | -2.7m/s | 2.4°C | 72.8% | 680.5hPa | 2.7V | 07:28:53 | 03:35:32 | 00:00:00 | i |
| DO2KSM | 2026-09-03 14:25:10 | 51.24063 | 8.15672 | 104° | 91km/h | 3399m | -2.6m/s | 2.4°C | 68.0% | 680.8hPa | 2.7V | 07:28:00 | 00:00:00 | 00:00:00 | |
| DB0ND-19 | 2026-09-03 14:25:09 | 51.24071 | 8.15599 | 96° | 89km/h | 3405m | -2.7m/s | 2.4°C | 68.6% | 680.5hPa | 2.7V | 00:00:00 | 00:00:00 | 00:00:00 | |
| DD1CC8 | 2026-09-03 14:25:08 | 51.24073 | 8.15564 | 93° | 84km/h | 3408m | -2.8m/s | 2.3°C | 69.3% | 680.1hPa | 2.7V | 00:00:00 | 00:00:00 | 00:00:00 | |
| DM0DOS-11 | 2026-09-03 14:25:05 | 51.24075 | 8.15472 | 93° | 66km/h | 3416m | -2.9m/s | 2.2°C | 72% | 679.4hPa | 2.7V | 07:28:28 | 03:35:28 | 00:00:00 | i |
| DM0DOS-11 | 2026-09-03 14:25:05 | 51.24101 | 8.15334 | 107° | 89km/h | 3431m | -2.8m/s | 2.3°C | 73.4% | 678.3hPa | 2.6V | 07:28:33 | 03:35:23 | 00:00:00 | i |
| DO3DL | 2026-09-03 14:25:04 | 51.24075 | 8.15472 | 94° | 66km/h | 3416m | -2.9m/s | 2.3°C | 70.3% | 679.4hPa | 2.7V | 07:28:00 | 00:00:00 | 00:00:00 | |
| DM0DOS-11 | 2026-09-03 14:25:00 | 51.24115 | 8.15163 | 94° | 68km/h | 3445m | -2.7m/s | 2.2°C | 77.2% | 677hPa | 2.7V | 07:28:38 | 03:35:18 | 00:00:00 | i |
| BIOWL1-15 | 2026-09-03 14:24:58 | 51.24111 | 8.15261 | 98° | 93km/h | 3436m | -2.9m/s | 2.3°C | 78% | 677.7hPa | 2.7V | 07:28:53 | 03:35:21 | 00:00:00 | i |
| HSKMA3-T | 2026-09-03 14:24:57 | 51.24113 | 8.15225 | 93° | 88km/h | 3439m | -3.1m/s | 2.2°C | 78.8% | 677.4hPa | 2.7V | 07:30:35 | 03:35:20 | 00:00:00 | i |
| DB0UT-7 | 2026-09-03 14:24:56 | 51.24114 | 8.15192 | 91° | 77km/h | 3442m | -2.8m/s | 2.2°C | 76.4% | 677.1hPa | 2.7V | 00:00:00 | 03:35:19 | 00:00:00 | |
| DM0DOS-11 | 2026-09-03 14:24:55 | 51.24141 | 8.15028 | 110° | 84km/h | 3459m | -2.8m/s | 2.2°C | 76.1% | 675.7hPa | 2.7V | 07:28:43 | 03:35:13 | 00:00:00 | i |
| BIOWL9-15 | 2026-09-03 14:24:52 | 51.24127 | 8.15086 | 111° | 69km/h | 3453m | -3.0m/s | 2.2°C | 75.5% | 676.4hPa | 2.6V | 00:00:00 | 00:00:00 | 00:00:00 | |
| DM0DOS-11 | 2026-09-03 14:24:50 | 51.24161 | 8.14851 | 90° | 78km/h | 3474m | -3.1m/s | 2°C | 75% | 674.5hPa | 2.6V | 07:28:48 | 03:35:08 | 00:00:00 | i |
| BIOWL1-15 | 2026-09-03 14:24:49 | 51.24158 | 8.14921 | 98° | 93km/h | 3468m | -3m/s | 2.1°C | 78.7% | 675.1hPa | 2.7V | 07:28:53 | 03:35:10 | 00:00:00 | i |
| DO2KSM | 2026-09-03 14:24:47 | 51.24154 | 8.14958 | 104° | 93km/h | 3465m | -2.9m/s | 2.1°C | 73.9% | 675.3hPa | 2.7V | 07:28:00 | 00:00:00 | 00:00:00 | |
| DM0DOS-11 | 2026-09-03 14:24:45 | 51.24180 | 8.14716 | 112° | 80km/h | 3488m | -3.1m/s | 1.9°C | 72.8% | 673.4hPa | 2.7V | 07:28:53 | 03:35:03 | 00:00:00 | |
| BIOWL1-15 | 2026-09-03 14:24:37 | 51.24198 | 8.14614 | 98° | 88km/h | 3497m | -2.8m/s | 1.9°C | 73.8% | 672.6hPa | 2.7V | 07:29:44 | 03:35:00 | 00:00:00 | i |
| DO3DL | 2026-09-03 14:24:36 | 51.24199 | 8.14614 | 99° | 88km/h | 3497m | -2.8m/s | 1.9°C | 69.5% | 672.6hPa | 2.7V | 07:29:00 | 00:00:00 | 00:00:00 | |
| DM0DOS-11 | 2026-09-03 14:24:35 | 51.24202 | 8.14548 | 91° | 77km/h | 3502m | -2.8m/s | 1.8°C | 70.8% | 672.2hPa | 2.7V | 07:28:58 | 03:34:58 | 00:00:00 | i |
| DM0DOS-11 | 2026-09-03 14:24:35 | 51.24216 | 8.14418 | 113° | 69km/h | 3517m | -3m/s | 1.7°C | 74.6% | 671hPa | 2.7V | 07:29:03 | 03:34:53 | 00:00:00 | i |
| BIOWL1-15 | 2026-09-03 14:24:29 | 51.24237 | 8.14327 | 105° | 88km/h | 3526m | -2.9m/s | 1.7°C | 78.4% | 670.1hPa | 2.7V | 07:29:44 | 03:34:50 | 00:00:00 | i |
| DO2KSM | 2026-09-03 14:24:26 | 51.24237 | 8.14327 | 106° | 88km/h | 3526m | -2.9m/s | 1.7°C | 74.7% | 670.1hPa | 2.7V | 07:29:00 | 00:00:00 | 00:00:00 | |
| DM0DOS-11 | 2026-09-03 14:24:25 | 51.24245 | 8.14257 | 95° | 86km/h | 3532m | -2.9m/s | 1.6°C | 76% | 669.8hPa | 2.7V | 07:29:08 | 03:34:48 | 00:00:00 | i |
| DM0DOS-11 | 2026-09-03 14:24:25 | 51.24251 | 8.14116 | 109° | 60km/h | 3547m | -2.9m/s | 1.5°C | 74.9% | 668.3hPa | 2.7V | 07:29:13 | 03:34:43 | 00:00:00 | i |
| DO3DL | 2026-09-03 14:24:22 | 51.24246 | 8.14192 | 90° | 73km/h | 3538m | -3.1m/s | 1.6°C | 73.6% | 669.4hPa | 2.7V | 07:29:00 | 00:00:00 | 00:00:00 | |
| BIOWL9-15 | 2026-09-03 14:24:21 | 51.24247 | 8.14140 | 98° | 58km/h | 3544m | -3.1m/s | 1.5°C | 72.9% | 668.8hPa | 2.7V | 00:00:00 | 00:00:00 | 00:00:00 | |
| DM0DOS-11 | 2026-09-03 14:24:20 | 51.24281 | 8.13964 | 95° | 86km/h | 3562m | -2.9m/s | 1.4°C | 74.7% | 667.2hPa | 2.7V | 07:29:18 | 03:34:38 | 00:00:00 | i |
| BIOWL1-15 | 2026-09-03 14:24:18 | 51.24278 | 8.13999 | 102° | 89km/h | 3559m | -3.3m/s | 1.5°C | 77.5% | 667.6hPa | 2.7V | 07:29:44 | 03:34:39 | 00:00:00 | i |
| DL4BBY-15 | 2026-09-03 14:24:16 | 51.24278 | 8.13999 | 102° | 75km/h | 3559m | -3.2m/s | 1.7°C | 0% | 0hPa | 2.6V | 00:00:00 | 00:00:00 | 00:00:00 | |
| DM0DOS-11 | 2026-09-03 14:24:15 | 51.24288 | 8.13827 | 108° | 64km/h | 3577m | -3m/s | 1.4°C | 72.9% | 665.9hPa | 2.6V | 07:29:23 | 03:34:33 | 00:00:00 | i |
| BIOWL7-15 | 2026-09-03 14:24:14 | 51.24281 | 8.13964 | 96° | 86km/h | 3562m | -2.9m/s | 1.4°C | 72.9% | 667.2hPa | 2.7V | 00:00:00 | 00:00:00 | 00:00:00 | |
| DM0DOS-11 | 2026-09-03 14:24:10 | 51.24319 | 8.13672 | 99° | 89km/h | 3591m | -3.3m/s | 1.2°C | 79% | 664.9hPa | 2.7V | 07:29:28 | 03:34:28 | 00:00:00 | i |
| HSKMA3-T | 2026-09-03 14:24:10 | 51.24288 | 8.13827 | 108° | 64km/h | 3577m | -3m/s | 1.4°C | 75.2% | 666hPa | 2.6V | 07:30:35 | 03:34:33 | 00:00:00 | i |
| BIOWL1-15 | 2026-09-03 14:24:06 | 51.24314 | 8.13708 | 105° | 89km/h | 3588m | -3.1m/s | 1.3°C | 78.8% | 665.2hPa | 2.7V | 07:29:44 | 03:34:29 | 00:00:00 | i |
| DM0DOS-11 | 2026-09-03 14:24:05 | 51.24324 | 8.13525 | 101° | 58km/h | 3606m | -2.9m/s | 1.1°C | 84.5% | 663.7hPa | 2.7V | 07:29:33 | 03:34:23 | 00:00:00 | i |
| BIOWL1-15 | 2026-09-03 14:23:58 | 51.24349 | 8.13414 | 107° | 89km/h | 3618m | -3m/s | 1.1°C | 85.7% | 662.7hPa | 2.6V | 07:29:44 | 03:34:19 | 00:00:00 | i |
| DO3DL | 2026-09-03 14:23:56 | 51.24342 | 8.13446 | 113° | 82km/h | 3615m | -2.8m/s | 1.1°C | 82.0% | 662.8hPa | 2.7V | 07:29:00 | 00:00:00 | 00:00:00 | |
| DM0DOS-11 | 2026-09-03 14:23:55 | 51.24355 | 8.13378 | 101° | 93km/h | 3620m | -3.1m/s | 1.1°C | 84.6% | 662.4hPa | 2.7V | 07:29:38 | 03:34:18 | 00:00:00 | i |
| DM0DOS-11 | 2026-09-03 14:23:55 | 51.24361 | 8.13224 | 101° | 62km/h | 3635m | -2.9m/s | 0.9°C | 83.1% | 661.2hPa | 2.6V | 07:29:43 | 03:34:13 | 00:00:00 | i |
| BIOWL1-15 | 2026-09-03 14:23:46 | 51.24386 | 8.13111 | 108° | 89km/h | 3647m | -3m/s | 0.9°C | 82.5% | 660.2hPa | 2.7V | 07:30:35 | 03:34:09 | 00:00:00 | i |
| DM0DOS-11 | 2026-09-03 14:23:45 | 51.24393 | 8.13076 | 103° | 91km/h | 3650m | -3m/s | 0.9°C | 82.1% | 660hPa | 2.7V | 07:29:48 | 03:34:08 | 00:00:00 | i |
| DO3DL | 2026-09-03 14:23:43 | 51.24397 | 8.13040 | 99° | 91km/h | 3653m | -2.8m/s | 0.8°C | 80.4% | 659.7hPa | 2.7V | 07:30:00 | 00:00:00 | 00:00:00 | |
| DM0DOS-11 | 2026-09-03 14:23:40 | 51.24431 | 8.12774 | 110° | 91km/h | 3679m | -3m/s | 0.9°C | 76.5% | 657.5hPa | 2.7V | 07:29:58 | 03:33:58 | 00:00:00 | i |
| HSKMA3-T | 2026-09-03 14:23:36 | 51.24423 | 8.12807 | 114° | 82km/h | 3676m | -3m/s | 0.9°C | 81.1% | 657.9hPa | 2.7V | 07:30:35 | 03:33:59 | 00:00:00 | i |
| DM0DOS-11 | 2026-09-03 14:23:35 | 51.24449 | 8.12602 | 92° | 69km/h | 3694m | -3m/s | 0.8°C | 73.6% | 656.3hPa | 2.7V | 07:30:03 | 03:33:53 | 00:00:00 | i |
| BIOWL1-15 | 2026-09-03 14:23:35 | 51.24431 | 8.12774 | 110° | 91km/h | 3679m | -3m/s | 0.9°C | 78.7% | 657.6hPa | 2.7V | 07:30:35 | 03:33:58 | 00:00:00 | i |
| DD1CC3-15 | 2026-09-03 14:23:34 | 51.24431 | 8.12774 | 111° | 91km/h | 3679m | -3.0m/s | 0.9°C | 74.6% | 657.6hPa | 2.7V | 07:30:00 | 00:00:00 | 00:00:00 | |
| DJ2KF-10 | 2026-09-03 14:23:32 | 51.24447 | 8.12665 | 95° | 80km/h | 3688m | -3.1m/s | 0.8°C | 73.6% | 656.9hPa | 2.7V | 00:00:00 | 03:33:55 | 00:00:00 | |
| DM0DOS-11 | 2026-09-03 14:23:30 | 51.24478 | 8.12466 | 111° | 89km/h | 3709m | -3m/s | 0.7°C | 72.7% | 655.2hPa | 2.7V | 07:30:08 | 03:33:48 | 00:00:00 | i |
| DO3DL | 2026-09-03 14:23:29 | 51.24449 | 8.12602 | 94° | 69km/h | 3694m | -3.0m/s | 0.8°C | 71.7% | 656.3hPa | 2.6V | 07:30:00 | 00:00:00 | 00:00:00 | |
| BIOWL7-15 | 2026-09-03 14:23:28 | 51.24450 | 8.12575 | 101° | 62km/h | 3697m | -3.1m/s | 0.8°C | 71.8% | 656.1hPa | 2.6V | 00:00:00 | 00:00:00 | 00:00:00 | |
| DB0UT-7 | 2026-09-03 14:23:26 | 51.24469 | 8.12498 | 116° | 78km/h | 3706m | -3.1m/s | 0.7°C | 73.7% | 655.3hPa | 2.6V | 00:00:00 | 00:00:00 | 00:00:00 | |
| DM0DOS-11 | 2026-09-03 14:23:25 | 51.24495 | 8.12301 | 98° | 64km/h | 3724m | -2.8m/s | 0.6°C | 71.2% | 653.9hPa | 2.7V | 07:30:13 | 03:33:43 | 00:00:00 | i |
| BIOWL1-15 | 2026-09-03 14:23:24 | 51.24485 | 8.12431 | 105° | 95km/h | 3712m | -3.1m/s | 0.7°C | 76.1% | 654.9hPa | 2.7V | 07:30:35 | 03:33:47 | 00:00:00 | i |
| AU51GT2 | 2026-09-03 14:23:23 | 51.24490 | 8.12394 | 98° | 91km/h | 3715m | -3.2m/s | 0.7°C | 69.3% | 654.6hPa | 2.6V | 00:00:00 | 00:00:00 | 00:00:00 | |
| BIOWL9-15 | 2026-09-03 14:23:19 | 51.24499 | 8.12276 | 106° | 62km/h | 3727m | -2.9m/s | 0.6°C | 69.8% | 653.9hPa | 2.6V | 00:00:00 | 00:00:00 | 00:00:00 | |
| DJ2DS-15 | 2026-09-03 14:23:17 | 51.24512 | 8.12224 | 114° | 75km/h | 3733m | -2.9m/s | 0.6°C | 68.5% | 653.2hPa | 2.6V | 00:00:00 | 00:00:00 | 00:00:00 | |
| DO3DL | 2026-09-03 14:23:16 | 51.24512 | 8.12224 | 115° | 75km/h | 3733m | -2.9m/s | 0.6°C | 68.5% | 653.2hPa | 2.6V | 07:30:00 | 00:00:00 | 00:00:00 | |
| DM0DOS-11 | 2026-09-03 14:23:15 | 51.24526 | 8.12162 | 105° | 88km/h | 3738m | -2.6m/s | 0.6°C | 70% | 652.7hPa | 2.6V | 07:30:18 | 03:33:38 | 00:00:00 | i |
| DM0DOS-11 | 2026-09-03 14:23:15 | 51.24540 | 8.11994 | 91° | 75km/h | 3753m | -3.3m/s | 0.5°C | 67.6% | 651.6hPa | 2.7V | 07:30:23 | 03:33:33 | 00:00:00 | i |
| BIOWL1-15 | 2026-09-03 14:23:15 | 51.24535 | 8.12093 | 98° | 88km/h | 3744m | -2.7m/s | 0.5°C | 71.1% | 652.2hPa | 2.7V | 07:30:35 | 03:33:36 | 00:00:00 | i |
| HSKMA3-T | 2026-09-03 14:23:11 | 51.24539 | 8.12025 | 93° | 80km/h | 3750m | -3.2m/s | 0.5°C | 71.1% | 651.9hPa | 2.7V | 07:30:35 | 03:33:34 | 00:00:00 | i |
| DO3DL | 2026-09-03 14:23:09 | 51.24540 | 8.11993 | 92° | 75km/h | 3753m | -3.3m/s | 0.5°C | 65.8% | 651.6hPa | 2.7V | 07:30:00 | 00:00:00 | 00:00:00 | |
| BIOWL7-15 | 2026-09-03 14:23:07 | 51.24542 | 8.11939 | 99° | 60km/h | 3759m | -3.2m/s | 0.5°C | 64.9% | 651.1hPa | 2.7V | 00:00:00 | 00:00:00 | 00:00:00 | |
| DM0DOS-11 | 2026-09-03 14:23:05 | 51.24558 | 8.11864 | 113° | 78km/h | 3769m | -3.2m/s | 0.5°C | 66.5% | 650.2hPa | 2.7V | 07:30:28 | 03:33:28 | 00:00:00 | i |
| DM0DOS-11 | 2026-09-03 14:23:05 | 51.24579 | 8.11692 | 89° | 78km/h | 3784m | -3.3m/s | 0.4°C | 70% | 649hPa | 2.7V | 07:30:33 | 03:33:23 | 00:00:00 | i |
| BIOWL1-15 | 2026-09-03 14:23:03 | 51.24572 | 8.11798 | 104° | 91km/h | 3775m | -2.8m/s | 0.5°C | 69.9% | 649.8hPa | 2.7V | 07:30:35 | 03:33:26 | 00:00:00 | i |
| DO3DL | 2026-09-03 14:23:02 | 51.24572 | 8.11798 | 105° | 91km/h | 3775m | -2.8m/s | 0.5°C | 65.5% | 649.8hPa | 2.7V | 07:30:00 | 00:00:00 | 00:00:00 | |
| DM0DOS-11 | 2026-09-03 14:23:00 | 51.24596 | 8.11560 | 113° | 80km/h | 3800m | -3.2m/s | 0.3°C | 80.3% | 647.8hPa | 2.7V | 07:30:38 | 03:33:18 | 00:00:00 | i |
| HSKMA3-T | 2026-09-03 14:22:58 | 51.24580 | 8.11636 | 97° | 62km/h | 3791m | -3.2m/s | 0.4°C | 78.4% | 648.5hPa | 2.6V | 07:30:35 | 03:33:21 | 00:00:00 | i |
| BIOWL1-15 | 2026-09-03 14:22:55 | 51.24610 | 8.11493 | 104° | 93km/h | 3806m | -3.2m/s | 0.3°C | 84.8% | 647.3hPa | 2.7V | 07:31:26 | 03:33:16 | 00:00:00 | i |
| DM0DOS-11 | 2026-09-03 14:22:55 | 51.24617 | 8.11388 | 89° | 75km/h | 3816m | -3.1m/s | 0.2°C | 84.8% | 646.5hPa | 2.7V | 07:30:43 | 03:33:13 | 00:00:00 | i |
| AU51GT2 | 2026-09-03 14:22:52 | 51.24615 | 8.11456 | 97° | 91km/h | 3809m | -3.2m/s | 0.3°C | 82.2% | 647.0hPa | 2.7V | 00:00:00 | 00:00:00 | 00:00:00 | |
| DM0DOS-11 | 2026-09-03 14:22:50 | 51.24639 | 8.11253 | 111° | 84km/h | 3831m | -3.3m/s | 0.1°C | 84.8% | 645.3hPa | 2.7V | 07:30:48 | 03:33:08 | 00:00:00 | i |
| DL3AQ-11 | 2026-09-03 14:22:50 | 51.24617 | 8.11360 | 93° | 64km/h | 3819m | -3.0m/s | 0.2°C | -1.0% | -1.0hPa | 2.7V | 00:00:00 | 00:00:00 | 00:00:00 | i |
| BIOWL9-15 | 2026-09-03 14:22:48 | 51.24620 | 8.11334 | 102° | 60km/h | 3822m | -3.0m/s | 0.1°C | 0% | 646.1hPa | 2.7V | 00:00:00 | 00:00:00 | 00:00:00 | |
| BIOWL7-15 | 2026-09-03 14:22:47 | 51.24620 | 8.11334 | 104° | 62km/h | 3822m | -3.0m/s | 0.1°C | 83.2% | 646.1hPa | 2.7V | 07:31:00 | 00:00:00 | 00:00:00 | |
| DL4BBY-15 | 2026-09-03 14:22:46 | 51.24631 | 8.11283 | 114° | 80km/h | 3827m | -3.3m/s | 0.3°C | 0% | 0hPa | 2.7V | 00:00:00 | 00:00:00 | 00:00:00 | |
| DM0DOS-11 | 2026-09-03 14:22:45 | 51.24656 | 8.11079 | 89° | 77km/h | 3846m | -3.2m/s | 0°C | 80.8% | 644.1hPa | 2.7V | 07:30:53 | 03:33:03 | 00:00:00 | i |
| BIOWL1-15 | 2026-09-03 14:22:42 | 51.24655 | 8.11147 | 95° | 91km/h | 3840m | -3m/s | 0°C | 84.5% | 644.6hPa | 2.7V | 07:31:26 | 03:33:05 | 00:00:00 | i |
| DJ2DS-15 | 2026-09-03 14:22:41 | 51.24656 | 8.11079 | 89° | 77km/h | 3846m | -3.2m/s | 0.0°C | 78.6% | 644.1hPa | 2.7V | 00:00:00 | 00:00:00 | 00:00:00 | |
| DM0DOS-11 | 2026-09-03 14:22:40 | 51.24675 | 8.10940 | 111° | 82km/h | 3862m | -3m/s | -0°C | 79.1% | 642.9hPa | 2.7V | 07:30:58 | 03:32:58 | 00:00:00 | i |
| HSKMA3-T | 2026-09-03 14:22:37 | 51.24661 | 8.10997 | 107° | 68km/h | 3855m | -3.1m/s | -0.1°C | 79.4% | 643.2hPa | 2.6V | 07:32:17 | 03:33:00 | 00:00:00 | i |
| BIOWL1-15 | 2026-09-03 14:22:33 | 51.24695 | 8.10797 | 94° | 91km/h | 3873m | -2.9m/s | 0°C | 75.6% | 641.9hPa | 2.6V | 07:31:26 | 03:32:54 | 00:00:00 | i |
| DD1CC8 | 2026-09-03 14:22:33 | 51.24693 | 8.10834 | 98° | 93km/h | 3870m | -3.0m/s | -0.0°C | 75.3% | 641.9hPa | 2.7V | 00:00:00 | 00:00:00 | 00:00:00 | i |
| DD1CC3-15 | 2026-09-03 14:22:31 | 51.24692 | 8.10834 | 100° | 93km/h | 3870m | -3.0m/s | -0.0°C | 75.3% | 641.9hPa | 2.7V | 07:31:00 | 00:00:00 | 00:00:00 | |
| DM0DOS-11 | 2026-09-03 14:22:30 | 51.24696 | 8.10762 | 90° | 86km/h | 3876m | -2.9m/s | 0.1°C | 67.7% | 641.6hPa | 2.7V | 07:31:03 | 03:32:53 | 00:00:00 | i |
| DO3DL | 2026-09-03 14:22:30 | 51.24696 | 8.10762 | 92° | 86km/h | 3876m | -2.9m/s | 0.1°C | 65.9% | 641.6hPa | 2.6V | 07:31:00 | 00:00:00 | 00:00:00 | i |
| DJ2KF-10 | 2026-09-03 14:22:29 | 51.24696 | 8.10729 | 89° | 84km/h | 3879m | -3.1m/s | 0.1°C | 61.9% | 641.5hPa | 2.6V | 00:00:00 | 03:32:52 | 00:00:00 | |
| DL3AQ-11 | 2026-09-03 14:22:26 | 51.24703 | 8.10619 | 110° | 69km/h | 3892m | -3.1m/s | 0.0°C | -1.0% | -1.0hPa | 2.6V | 00:00:00 | 00:00:00 | 00:00:00 | |
| DM0DOS-11 | 2026-09-03 14:22:25 | 51.24730 | 8.10449 | 90° | 88km/h | 3908m | -3m/s | 0.1°C | 50.4% | 639.1hPa | 2.6V | 07:31:13 | 03:32:43 | 00:00:00 | i |
| BIOWL1-15 | 2026-09-03 14:22:22 | 51.24730 | 8.10449 | 91° | 88km/h | 3908m | -3m/s | 0.1°C | 54.1% | 639.1hPa | 2.6V | 07:31:26 | 03:32:43 | 00:00:00 | i |
| AU51GT2 | 2026-09-03 14:22:21 | 51.24728 | 8.10486 | 96° | 93km/h | 3904m | -3.3m/s | 0.1°C | 50.7% | 639.5hPa | 2.6V | 00:00:00 | 00:00:00 | 00:00:00 | |
| DM0DOS-11 | 2026-09-03 14:22:20 | 51.24738 | 8.10308 | 109° | 71km/h | 3923m | -3m/s | -0°C | 46.9% | 637.9hPa | 2.6V | 07:31:18 | 03:32:38 | 00:00:00 | i |
| HSKMA3-T | 2026-09-03 14:22:17 | 51.24730 | 8.10360 | 96° | 64km/h | 3917m | -3.2m/s | 0°C | 51.3% | 638.6hPa | 2.7V | 07:32:17 | 03:32:40 | 00:00:00 | i |
| DL4BBY-15 | 2026-09-03 14:22:16 | 51.24732 | 8.10334 | 105° | 77km/h | 3920m | -3.0m/s | 0.2°C | 0% | 0hPa | 2.6V | 00:00:00 | 00:00:00 | 00:00:00 | |
| DL8DAS-15 | 2026-09-03 14:22:15 | 51.24732 | 8.10334 | 105° | 66km/h | 3920m | -3.1m/s | -0.0°C | 45.2% | 638.3hPa | 2.6V | 07:31:00 | 00:00:00 | 00:00:00 | |
| DM0DOS-11 | 2026-09-03 14:22:10 | 51.24765 | 8.09991 | 96° | 58km/h | 3953m | -3.2m/s | -0.1°C | 35% | 635.6hPa | 2.6V | 07:31:28 | 03:32:28 | 00:00:00 | i |
| BIOWL1-15 | 2026-09-03 14:22:09 | 51.24765 | 8.10106 | 91° | 86km/h | 3940m | -3.1m/s | -0.1°C | 47% | 636.5hPa | 2.6V | 07:31:26 | 03:32:32 | 00:00:00 | i |
| WPPR-10 | 2026-09-03 14:22:06 | 51.24768 | 8.09967 | 104° | 60km/h | 3956m | -3.2m/s | -0.1°C | 31.8% | 635.4hPa | 2.6V | 00:00:00 | 00:00:00 | 00:00:00 | |
| DM0DOS-11 | 2026-09-03 14:22:05 | 51.24791 | 8.09851 | 102° | 88km/h | 3968m | -2.8m/s | 0.1°C | 19.8% | 634.5hPa | 2.6V | 07:31:33 | 03:32:23 | 00:00:00 | i |
| HSKMA3-T | 2026-09-03 14:22:05 | 51.24765 | 8.09991 | 97° | 58km/h | 3953m | -3.2m/s | -0.1°C | 38.2% | 635.6hPa | 2.6V | 07:32:17 | 03:32:28 | 00:00:00 | i |
| BIOWL1-15 | 2026-09-03 14:21:58 | 51.24797 | 8.09780 | 94° | 88km/h | 3974m | -3.1m/s | 0.1°C | 16.9% | 633.9hPa | 2.6V | 07:32:17 | 03:32:21 | 00:00:00 | i |
| DO3DL | 2026-09-03 14:21:56 | 51.24798 | 8.09746 | 92° | 82km/h | 3977m | -3.2m/s | 0.2°C | 9.4% | 633.6hPa | 2.7V | 07:32:00 | 00:00:00 | 00:00:00 | |
| DM0DOS-11 | 2026-09-03 14:21:55 | 51.24798 | 8.09686 | 89° | 69km/h | 3983m | -3.1m/s | 0.2°C | 7.4% | 633.1hPa | 2.7V | 07:31:38 | 03:32:18 | 00:00:00 | i |
| DM0DOS-11 | 2026-09-03 14:21:55 | 51.24817 | 8.09560 | 112° | 77km/h | 3999m | -3.3m/s | 0.1°C | 7.4% | 632.1hPa | 2.6V | 07:31:43 | 03:32:13 | 00:00:00 | i |
| HSKMA3-T | 2026-09-03 14:21:54 | 51.24799 | 8.09659 | 94° | 62km/h | 3986m | -3m/s | 0.2°C | 6.4% | 632.9hPa | 2.6V | 07:32:17 | 03:32:17 | 00:00:00 | |
| BIOWL1-15 | 2026-09-03 14:21:48 | 51.24830 | 8.09496 | 105° | 91km/h | 4005m | -3m/s | 0.1°C | 6.4% | 631.4hPa | 2.6V | 07:32:17 | 03:32:11 | 00:00:00 | i |
| BIOWL9-15 | 2026-09-03 14:21:46 | 51.24838 | 8.09424 | 93° | 88km/h | 4012m | -3.4m/s | 0.1°C | 7.1% | 631.0hPa | 2.7V | 00:00:00 | 00:00:00 | 00:00:00 | |
| DM0DOS-11 | 2026-09-03 14:21:45 | 51.24838 | 8.09389 | 89° | 80km/h | 4015m | -3.2m/s | 0°C | 7.4% | 630.7hPa | 2.7V | 07:31:48 | 03:32:08 | 00:00:00 | i |
| DM0DOS-11 | 2026-09-03 14:21:45 | 51.24854 | 8.09259 | 114° | 75km/h | 4031m | -3.4m/s | -0.1°C | 7.8% | 629.5hPa | 2.7V | 07:31:53 | 03:32:03 | 00:00:00 | i |
| HSKMA3-T | 2026-09-03 14:21:42 | 51.24842 | 8.09309 | 105° | 60km/h | 4025m | -3.1m/s | -0°C | 6.8% | 630hPa | 2.6V | 07:32:17 | 03:32:05 | 00:00:00 | i |
| DL8DAS-15 | 2026-09-03 14:21:41 | 51.24842 | 8.09309 | 106° | 60km/h | 4025m | -3.1m/s | -0.0°C | 7.4% | 630.0hPa | 2.6V | 00:00:00 | 00:00:00 | 00:00:00 | |
| DM0DOS-11 | 2026-09-03 14:21:40 | 51.24879 | 8.09092 | 91° | 78km/h | 4047m | -3.1m/s | -0.1°C | 7.8% | 628.1hPa | 2.6V | 07:31:58 | 03:31:58 | 00:00:00 | i |
| BIOWL1-15 | 2026-09-03 14:21:38 | 51.24869 | 8.09197 | 107° | 91km/h | 4038m | -3.3m/s | -0°C | 7.1% | 628.9hPa | 2.6V | 07:32:17 | 03:32:01 | 00:00:00 | |
| DM0DOS-11 | 2026-09-03 14:21:35 | 51.24897 | 8.08963 | 115° | 71km/h | 4063m | -3.3m/s | -0.3°C | 7.8% | 627hPa | 2.6V | 07:32:03 | 03:31:53 | 00:00:00 | i |
| DB0ND-19 | 2026-09-03 14:21:32 | 51.24885 | 8.09011 | 105° | 60km/h | 4057m | -3.2m/s | -0.2°C | 7.5% | 627.5hPa | 2.6V | 00:00:00 | 00:00:00 | 00:00:00 | |
| DD1CC8 | 2026-09-03 14:21:31 | 51.24896 | 8.08963 | 115° | 69km/h | 4063m | -3.3m/s | -0.3°C | 7.6% | 627.0hPa | 2.6V | 00:00:00 | 00:00:00 | 00:00:00 | |
| DM0DOS-11 | 2026-09-03 14:21:30 | 51.24926 | 8.08800 | 93° | 82km/h | 4080m | -3.2m/s | -0.4°C | 7.8% | 625.3hPa | 2.6V | 07:32:08 | 03:31:48 | 00:00:00 | i |
| BIOWL1-15 | 2026-09-03 14:21:28 | 51.24913 | 8.08904 | 111° | 88km/h | 4070m | -3.4m/s | -0.3°C | 6.9% | 626.5hPa | 2.6V | 07:32:17 | 03:31:51 | 00:00:00 | i |
| DL1LOL-11 | 2026-09-03 14:21:27 | 51.24913 | 8.08904 | 112° | 88km/h | 4070m | -3.4m/s | -0.3°C | 7.5% | 626.5hPa | 2.6V | 00:00:00 | 00:00:00 | 00:00:00 | |
| DB0UT-7 | 2026-09-03 14:21:26 | 51.24924 | 8.08834 | 99° | 77km/h | 4077m | -3.1m/s | -0.3°C | 7.8% | 625.8hPa | 2.6V | 00:00:00 | 00:00:00 | 00:00:00 | |
| DM0DOS-11 | 2026-09-03 14:21:25 | 51.24942 | 8.08666 | 114° | 71km/h | 4096m | -3.1m/s | -0.5°C | 7.8% | 624.3hPa | 2.6V | 07:32:13 | 03:31:43 | 00:00:00 | i |
| BIOWL1-15 | 2026-09-03 14:21:21 | 51.24966 | 8.08576 | 110° | 89km/h | 4105m | -3.4m/s | -0.5°C | 6.8% | 623.7hPa | 2.7V | 07:32:17 | 03:31:40 | 00:00:00 | i |
| HSKMA3-T | 2026-09-03 14:21:16 | 51.24973 | 8.08541 | 106° | 93km/h | 4109m | -3.3m/s | -0.6°C | 6.8% | 623.5hPa | 2.6V | 07:32:17 | 03:31:39 | 00:00:00 | i |
| DM0DOS-11 | 2026-09-03 14:21:15 | 51.24979 | 8.08505 | 100° | 91km/h | 4112m | -3.4m/s | -0.6°C | 7.6% | 623hPa | 2.6V | 07:32:18 | 03:31:38 | 00:00:00 | i |
| DM0DOS-11 | 2026-09-03 14:21:15 | 51.25022 | 8.08242 | 104° | 93km/h | 4142m | -3.4m/s | -0.8°C | 7.8% | 620.7hPa | 2.6V | 07:32:27 | 03:31:29 | 00:00:00 | i |
| DM0DOS-11 | 2026-09-03 14:21:10 | 51.25034 | 8.08089 | 105° | 58km/h | 4158m | -3.4m/s | -1°C | 7.7% | 619.5hPa | 2.6V | 07:32:32 | 03:31:24 | 00:00:00 | i |
| BIOWL1-15 | 2026-09-03 14:21:07 | 51.25014 | 8.08276 | 111° | 89km/h | 4138m | -3.4m/s | -0.7°C | 7% | 621.1hPa | 2.6V | 07:33:08 | 03:31:30 | 00:00:00 | i |
| DD1CC1-15 | 2026-09-03 14:21:05 | 51.25022 | 8.08242 | 106° | 93km/h | 4142m | -3.4m/s | -0.8°C | 7.5% | 620.7hPa | 2.6V | 00:00:00 | 00:00:00 | 00:00:00 | |
| DO2KSM | 2026-09-03 14:21:02 | 51.25030 | 8.08140 | 94° | 73km/h | 4152m | -3.3m/s | -0.9°C | 7.5% | 620.1hPa | 2.6V | 07:33:00 | 00:00:00 | 00:00:00 | |
| DM0DOS-11 | 2026-09-03 14:21:01 | 51.25071 | 8.07946 | 103° | 91km/h | 4175m | -3.2m/s | -1°C | 7.9% | 618.1hPa | 2.6V | 07:32:37 | 03:31:19 | 00:00:00 | i |
| BIOWL1-15 | 2026-09-03 14:20:57 | 51.25064 | 8.07981 | 111° | 91km/h | 4172m | -3.2m/s | -1°C | 7.3% | 618.4hPa | 2.6V | 07:33:08 | 03:31:20 | 00:00:00 | i |
| DB0UT-7 | 2026-09-03 14:20:56 | 51.25071 | 8.07946 | 104° | 78km/h | 4175m | -3.1m/s | -1.0°C | 7.9% | 618.1hPa | 2.5V | 00:00:00 | 03:31:19 | 00:00:00 | |
| BIOWL7-15 | 2026-09-03 14:20:55 | 51.25075 | 8.07910 | 98° | 88km/h | 4178m | -3.3m/s | -1.1°C | 7.7% | 618.0hPa | 2.5V | 00:00:00 | 00:00:00 | 00:00:00 | |
| DO3DL | 2026-09-03 14:20:54 | 51.25075 | 8.07910 | 98° | 88km/h | 4178m | -3.3m/s | -1.1°C | 7.7% | 618.0hPa | 2.5V | 07:33:00 | 00:00:00 | 00:00:00 | |
| DO9LL-15 | 2026-09-03 14:20:53 | 51.25079 | 8.07847 | 95° | 78km/h | 4185m | -3.2m/s | -1.1°C | 8.0% | 617.4hPa | 2.5V | 00:00:00 | 03:31:16 | 00:00:00 | |
| DM0DOS-11 | 2026-09-03 14:20:51 | 51.25085 | 8.07797 | 109° | 64km/h | 4191m | -3.1m/s | -1.2°C | 8.1% | 616.9hPa | 2.6V | 07:32:42 | 03:31:14 | 00:00:00 | i |
| HSKMA3-T | 2026-09-03 14:20:51 | 51.25085 | 8.07797 | 110° | 64km/h | 4191m | -3.1m/s | -1.2°C | 7.5% | 616.9hPa | 2.6V | 18:12:15 | 03:31:14 | 00:00:00 | i |
| BIOWL1-15 | 2026-09-03 14:20:48 | 51.25126 | 8.07648 | 107° | 95km/h | 4207m | -3.6m/s | -1.2°C | 7.6% | 615.7hPa | 2.6V | 07:33:08 | 03:31:09 | 00:00:00 | i |
| DL4BBY-15 | 2026-09-03 14:20:46 | 51.25126 | 8.07648 | 108° | 82km/h | 4208m | -3.5m/s | -1.0°C | 0% | 0hPa | 2.6V | 00:00:00 | 00:00:00 | 00:00:00 | |
| BIOWL9-15 | 2026-09-03 14:20:44 | 51.25136 | 8.07541 | 92° | 78km/h | 4218m | -3.3m/s | -1.3°C | 7.9% | 615.0hPa | 2.6V | 00:00:00 | 00:00:00 | 00:00:00 | |
| DM0DOS-11 | 2026-09-03 14:20:41 | 51.25140 | 8.07486 | 102° | 62km/h | 4224m | -3.4m/s | -1.4°C | 8.2% | 614.4hPa | 2.6V | 07:32:52 | 03:31:04 | 00:00:00 | i |
| DM0DOS-11 | 2026-09-03 14:20:41 | 51.25176 | 8.07339 | 105° | 95km/h | 4241m | -3.3m/s | -1.4°C | 8.4% | 613hPa | 2.6V | 07:32:57 | 03:30:59 | 00:00:00 | i |
| HSKMA3-T | 2026-09-03 14:20:41 | 51.25140 | 8.07486 | 102° | 62km/h | 4224m | -3.4m/s | -1.4°C | 7.7% | 614.4hPa | 2.6V | 18:12:15 | 03:31:04 | 00:00:00 | i |
| BIOWL1-15 | 2026-09-03 14:20:38 | 51.25176 | 8.07339 | 106° | 95km/h | 4241m | -3.3m/s | -1.5°C | 7.9% | 613hPa | 2.6V | 07:33:08 | 03:30:59 | 00:00:00 | i |
| DO3DL | 2026-09-03 14:20:34 | 51.25182 | 8.07302 | 101° | 93km/h | 4244m | -3.3m/s | -1.5°C | 8.2% | 612.8hPa | 2.6V | 07:33:00 | 00:00:00 | 00:00:00 | |
| DM0DOS-11 | 2026-09-03 14:20:31 | 51.25229 | 8.07039 | 113° | 93km/h | 4274m | -3.5m/s | -1.7°C | 8.9% | 610.5hPa | 2.6V | 07:33:07 | 03:30:49 | 00:00:00 | |
| HSKMA3-T | 2026-09-03 14:20:30 | 51.25195 | 8.07152 | 109° | 66km/h | 4260m | -3.2m/s | -1.7°C | 8.4% | 611.5hPa | 2.6V | 18:12:15 | 03:30:53 | 00:00:00 | i |
| BIOWL1-15 | 2026-09-03 14:20:28 | 51.25229 | 8.07039 | 114° | 93km/h | 4274m | -3.5m/s | -1.7°C | 8.8% | 610.5hPa | 2.6V | 07:33:08 | 03:30:49 | 00:00:00 | |
| DD1CC1-15 | 2026-09-03 14:20:27 | 51.25210 | 8.07100 | 118° | 77km/h | 4267m | -3.6m/s | -1.7°C | 8.4% | 611.1hPa | 2.6V | 00:00:00 | 00:00:00 | 00:00:00 | |
| DB0UT-7 | 2026-09-03 14:20:26 | 51.25229 | 8.07039 | 114° | 82km/h | 4274m | -3.5m/s | -1.6°C | 8.9% | 610.5hPa | 2.6V | 00:00:00 | 00:00:00 | 00:00:00 | |
| DL1LOL-11 | 2026-09-03 14:20:23 | 51.25244 | 8.06965 | 103° | 97km/h | 4281m | -3.5m/s | -1.7°C | 8.9% | 609.9hPa | 2.6V | 07:33:00 | 00:00:00 | 00:00:00 | |
| DO9LL-15 | 2026-09-03 14:20:22 | 51.25249 | 8.06895 | 95° | 82km/h | 4288m | -3.4m/s | -1.8°C | 9.3% | 609.4hPa | 2.6V | 07:33:00 | 03:30:45 | 00:00:00 | |
| DM0DOS-11 | 2026-09-03 14:20:21 | 51.25289 | 8.06725 | 112° | 93km/h | 4308m | -3.5m/s | -1.9°C | 9.5% | 607.9hPa | 2.6V | 07:33:17 | 03:30:39 | 00:00:00 | i |
| BIOWL1-15 | 2026-09-03 14:20:15 | 51.25297 | 8.06689 | 108° | 95km/h | 4311m | -3.3m/s | -2°C | 9.7% | 607.5hPa | 2.6V | 07:33:59 | 03:30:38 | 00:00:00 | i |
| DO3DL | 2026-09-03 14:20:14 | 51.25297 | 8.06689 | 109° | 95km/h | 4311m | -3.3m/s | -2.0°C | 9.3% | 607.5hPa | 2.6V | 07:33:00 | 00:00:00 | 00:00:00 | |
| BIOWL9-15 | 2026-09-03 14:20:13 | 51.25311 | 8.06582 | 96° | 84km/h | 4321m | -3.3m/s | -2.1°C | 9.4% | 607.0hPa | 2.6V | 00:00:00 | 00:00:00 | 00:00:00 | |
| DM0DOS-11 | 2026-09-03 14:20:11 | 51.25341 | 8.06415 | 119° | 84km/h | 4341m | -3.5m/s | -2.3°C | 10.1% | 605.2hPa | 2.6V | 07:33:27 | 03:30:29 | 00:00:00 | i |
| HSKMA3-T | 2026-09-03 14:20:08 | 51.25323 | 8.06468 | 113° | 68km/h | 4335m | -3.3m/s | -2.3°C | 10.3% | 605.8hPa | 2.6V | 18:12:15 | 03:30:31 | 00:00:00 | i |
| BIOWL1-15 | 2026-09-03 14:20:05 | 51.25352 | 8.06383 | 116° | 93km/h | 4345m | -3.6m/s | -2.3°C | 10.3% | 605.1hPa | 2.6V | 07:33:59 | 03:30:28 | 00:00:00 | i |
| DJ2KF-10 | 2026-09-03 14:20:03 | 51.25368 | 8.06310 | 105° | 80km/h | 4352m | -3.4m/s | -2.3°C | 10.3% | 604.5hPa | 2.6V | 00:00:00 | 03:30:26 | 00:00:00 | |
| DM0DOS-11 | 2026-09-03 14:20:01 | 51.25404 | 8.06100 | 118° | 82km/h | 4376m | -3.4m/s | -2.6°C | 11.2% | 602.7hPa | 2.6V | 07:33:37 | 03:30:19 | 00:00:00 | |
| DB0ND-19 | 2026-09-03 14:19:59 | 51.25387 | 8.06153 | 112° | 68km/h | 4369m | -3.5m/s | -2.6°C | 10.2% | 603.2hPa | 2.6V | 00:00:00 | 00:00:00 | 00:00:00 | |
| DD1CC8 | 2026-09-03 14:19:57 | 51.25395 | 8.06128 | 117° | 73km/h | 4372m | -3.6m/s | -2.6°C | 10.6% | 602.8hPa | 2.6V | 00:00:00 | 00:00:00 | 00:00:00 | |
| DM0DOS-11 | 2026-09-03 14:19:56 | 51.25444 | 8.05925 | 98° | 88km/h | 4394m | -3.5m/s | -2.7°C | 11.8% | 601.2hPa | 2.6V | 07:33:42 | 03:30:14 | 00:00:00 | i |
| HSKMA3-T | 2026-09-03 14:19:56 | 51.25404 | 8.06100 | 119° | 82km/h | 4376m | -3.4m/s | -2.6°C | 11.8% | 602.7hPa | 2.6V | 18:12:15 | 03:30:19 | 00:00:00 | i |
| BIOWL1-15 | 2026-09-03 14:19:55 | 51.25414 | 8.06069 | 118° | 89km/h | 4379m | -3.5m/s | -2.6°C | 12% | 602.4hPa | 2.6V | 07:33:59 | 03:30:18 | 00:00:00 | i |
| DO3DL | 2026-09-03 14:19:54 | 51.25414 | 8.06069 | 119° | 89km/h | 4380m | -3.5m/s | -2.6°C | 10.9% | 602.4hPa | 2.6V | 07:33:00 | 00:00:00 | 00:00:00 | |
| DO9LL-15 | 2026-09-03 14:19:52 | 51.25440 | 8.05962 | 104° | 80km/h | 4390m | -3.7m/s | -2.6°C | 11.7% | 601.6hPa | 2.6V | 00:00:00 | 03:30:15 | 00:00:00 | |
| DM0DOS-11 | 2026-09-03 14:19:51 | 51.25468 | 8.05790 | 120° | 73km/h | 4411m | -3.7m/s | -2.9°C | 12% | 600hPa | 2.6V | 07:33:47 | 03:30:09 | 00:00:00 | i |
| DO3DL | 2026-09-03 14:19:48 | 51.25450 | 8.05863 | 101° | 68km/h | 4401m | -3.3m/s | -2.8°C | 11.5% | 600.8hPa | 2.6V | 07:33:00 | 00:00:00 | 00:00:00 | |
| DD1CC3-15 | 2026-09-03 14:19:47 | 51.25453 | 8.05838 | 109° | 62km/h | 4404m | -3.5m/s | -2.8°C | 11.5% | 600.6hPa | 2.6V | 07:33:00 | 00:00:00 | 00:00:00 | |
| DM0DOS-11 | 2026-09-03 14:19:46 | 51.25509 | 8.05623 | 99° | 88km/h | 4429m | -3.5m/s | -3°C | 12% | 598.6hPa | 2.6V | 07:33:52 | 03:30:04 | 00:00:00 | i |
| HSKMA3-T | 2026-09-03 14:19:45 | 51.25478 | 8.05762 | 120° | 84km/h | 4415m | -3.6m/s | -2.9°C | 12.7% | 599.7hPa | 2.6V | 18:12:15 | 03:30:08 | 00:00:00 | i |
| BIOWL1-15 | 2026-09-03 14:19:44 | 51.25488 | 8.05731 | 116° | 91km/h | 4418m | -3.5m/s | -2.9°C | 12.7% | 599.4hPa | 2.6V | 07:33:59 | 03:30:07 | 00:00:00 | i |
| BIOWL9-15 | 2026-09-03 14:19:42 | 51.25509 | 8.05623 | 99° | 88km/h | 4429m | -3.6m/s | -3.0°C | 11.5% | 598.6hPa | 2.6V | 00:00:00 | 00:00:00 | 00:00:00 | |
| DM0DOS-11 | 2026-09-03 14:19:41 | 51.25533 | 8.05487 | 120° | 71km/h | 4447m | -3.6m/s | -3.1°C | 12.1% | 597.4hPa | 2.6V | 07:33:57 | 03:29:59 | 00:00:00 | i |
| BIOWL1-15 | 2026-09-03 14:19:34 | 51.25553 | 8.05431 | 118° | 91km/h | 4454m | -3.7m/s | -3.1°C | 13.1% | 596.7hPa | 2.6V | 07:33:59 | 03:29:57 | 00:00:00 | i |
| DJ2KF-10 | 2026-09-03 14:19:33 | 51.25564 | 8.05396 | 113° | 78km/h | 4458m | -3.6m/s | -3.0°C | 12.0% | 596.6hPa | 2.6V | 00:00:00 | 03:29:56 | 00:00:00 | |
| DM0DOS-11 | 2026-09-03 14:19:31 | 51.25577 | 8.05324 | 100° | 89km/h | 4465m | -3.6m/s | -3.1°C | 12.1% | 595.8hPa | 2.6V | 07:34:02 | 03:29:54 | 00:00:00 | i |
| DM0DOS-11 | 2026-09-03 14:19:31 | 51.25604 | 8.05187 | 122° | 78km/h | 4483m | -3.8m/s | -3.3°C | 12.1% | 594.6hPa | 2.6V | 07:34:07 | 03:29:49 | 00:00:00 | i |
| HSKMA3-T | 2026-09-03 14:19:27 | 51.25595 | 8.05212 | 119° | 68km/h | 4479m | -3.5m/s | -3.3°C | 13.2% | 594.9hPa | 2.6V | 18:12:15 | 03:29:50 | 00:00:00 | i |
| BIOWL1-15 | 2026-09-03 14:19:24 | 51.25625 | 8.05126 | 114° | 93km/h | 4490m | -3.5m/s | -3.3°C | 13.1% | 594.1hPa | 2.6V | 07:34:50 | 03:29:47 | 00:00:00 | i |
| DO3DL | 2026-09-03 14:19:22 | 51.25634 | 8.05090 | 109° | 95km/h | 4494m | -3.4m/s | -3.4°C | 11.8% | 593.8hPa | 2.6V | 07:34:00 | 00:00:00 | 00:00:00 | |
| DM0DOS-11 | 2026-09-03 14:19:21 | 51.25644 | 8.05019 | 99° | 82km/h | 4500m | -3.6m/s | -3.4°C | 12.3% | 593.3hPa | 2.6V | 07:34:12 | 03:29:44 | 00:00:00 | i |
| DM0DOS-11 | 2026-09-03 14:19:21 | 51.25672 | 8.04887 | 122° | 71km/h | 4517m | -3.6m/s | -3.6°C | 12.4% | 592.1hPa | 2.6V | 07:34:17 | 03:29:39 | 00:00:00 | i |
| DO2KSM | 2026-09-03 14:19:19 | 51.25648 | 8.04988 | 100° | 75km/h | 4504m | -3.4m/s | -3.5°C | 11.8% | 593.0hPa | 2.6V | 07:34:00 | 00:00:00 | 00:00:00 | |
| DM0DOS-11 | 2026-09-03 14:19:16 | 51.25719 | 8.04728 | 102° | 89km/h | 4536m | -3.5m/s | -3.8°C | 12.4% | 590.6hPa | 2.6V | 07:34:22 | 03:29:34 | 00:00:00 | i |
| HSKMA3-T | 2026-09-03 14:19:16 | 51.25672 | 8.04887 | 123° | 71km/h | 4517m | -3.6m/s | -3.7°C | 13.4% | 592.1hPa | 2.6V | 18:12:15 | 03:29:39 | 00:00:00 | i |
| BIOWL1-15 | 2026-09-03 14:19:15 | 51.25704 | 8.04800 | 115° | 95km/h | 4529m | -3.6m/s | -3.7°C | 13.2% | 591.2hPa | 2.5V | 07:34:50 | 03:29:36 | 00:00:00 | i |
| DM0DOS-11 | 2026-09-03 14:19:11 | 51.25745 | 8.04588 | 120° | 69km/h | 4553m | -3.6m/s | -4°C | 12.5% | 589.3hPa | 2.6V | 07:34:27 | 03:29:29 | 00:00:00 | i |
| BIOWL9-15 | 2026-09-03 14:19:11 | 51.25724 | 8.04694 | 99° | 82km/h | 4539m | -3.5m/s | -3.8°C | 11.9% | 590.5hPa | 2.6V | 00:00:00 | 00:00:00 | 00:00:00 | i |
| DO3DL | 2026-09-03 14:19:08 | 51.25727 | 8.04663 | 102° | 73km/h | 4543m | -3.6m/s | -3.8°C | 11.9% | 590.0hPa | 2.6V | 07:34:00 | 00:00:00 | 00:00:00 | |
| DM0DOS-11 | 2026-09-03 14:19:06 | 51.25798 | 8.04433 | 107° | 97km/h | 4572m | -4m/s | -4.1°C | 12.1% | 587.8hPa | 2.6V | 07:34:32 | 03:29:24 | 00:00:00 | i |
| BIOWL1-15 | 2026-09-03 14:19:04 | 51.25778 | 8.04505 | 120° | 95km/h | 4564m | -4m/s | -4°C | 13.1% | 588.6hPa | 2.6V | 07:34:50 | 03:29:26 | 00:00:00 | i |
| BIOWL7-15 | 2026-09-03 14:19:03 | 51.25766 | 8.04536 | 125° | 86km/h | 4561m | -3.7m/s | -4.0°C | 11.9% | 588.8hPa | 2.6V | 07:34:00 | 00:00:00 | 00:00:00 | |
| DL8DAS-15 | 2026-09-03 14:19:02 | 51.25778 | 8.04505 | 121° | 95km/h | 4565m | -4.0m/s | -4.0°C | 11.7% | 588.6hPa | 2.6V | 00:00:00 | 00:00:00 | 00:00:00 | |
| DM0DOS-11 | 2026-09-03 14:19:01 | 51.25827 | 8.04286 | 123° | 73km/h | 4590m | -3.9m/s | -4.2°C | 11.6% | 586.5hPa | 2.6V | 07:34:37 | 03:29:19 | 00:00:00 | i |
| HSKMA3-T | 2026-09-03 14:18:54 | 51.25850 | 8.04230 | 122° | 93km/h | 4598m | -3.8m/s | -4.2°C | 11.9% | 586hPa | 2.6V | 18:12:15 | 03:29:17 | 00:00:00 | i |
| BIOWL1-15 | 2026-09-03 14:18:54 | 51.25871 | 8.04159 | 110° | 99km/h | 4605m | -3.6m/s | -4.3°C | 11.5% | 585.4hPa | 2.6V | 07:34:50 | 03:29:15 | 00:00:00 | i |
| DM0DOS-11 | 2026-09-03 14:18:51 | 51.25879 | 8.04122 | 104° | 95km/h | 4609m | -3.4m/s | -4.2°C | 10.7% | 585.2hPa | 2.5V | 07:34:42 | 03:29:14 | 00:00:00 | i |
| DM0DOS-11 | 2026-09-03 14:18:51 | 51.25909 | 8.03977 | 123° | 75km/h | 4627m | -3.4m/s | -4.4°C | 10.8% | 583.8hPa | 2.6V | 07:34:47 | 03:29:09 | 00:00:00 | i |
| AU51GT2 | 2026-09-03 14:18:44 | 51.25933 | 8.03921 | 122° | 91km/h | 4634m | -3.8m/s | -4.4°C | 10.7% | 583.4hPa | 2.5V | 00:00:00 | 00:00:00 | 00:00:00 | |
| BIOWL1-15 | 2026-09-03 14:18:42 | 51.25955 | 8.03851 | 112° | 99km/h | 4641m | -3.8m/s | -4.4°C | 12.6% | 582.6hPa | 2.5V | 07:35:41 | 03:29:05 | 00:00:00 | i |
| DM0DOS-11 | 2026-09-03 14:18:41 | 51.25964 | 8.03814 | 107° | 95km/h | 4645m | -3.6m/s | -4.4°C | 12% | 582.5hPa | 2.5V | 07:34:52 | 03:29:04 | 00:00:00 | i |
| DB0NH | 2026-09-03 14:18:41 | 51.25964 | 8.03814 | 108° | 86km/h | 4645m | -3.6m/s | -4.4°C | 12.0% | 582.4hPa | 2.6V | 00:00:00 | 03:29:04 | 00:00:00 | i |
| BIOWL9-15 | 2026-09-03 14:18:40 | 51.25975 | 8.03745 | 103° | 80km/h | 4652m | -3.3m/s | -4.5°C | 11.7% | 582.0hPa | 2.6V | 00:00:00 | 00:00:00 | 00:00:00 | |
| DO2KSM | 2026-09-03 14:18:37 | 51.25980 | 8.03715 | 106° | 75km/h | 4655m | -3.5m/s | -4.5°C | 11.7% | 581.7hPa | 2.6V | 07:35:00 | 00:00:00 | 00:00:00 | |
| DM0DOS-11 | 2026-09-03 14:18:36 | 51.26050 | 8.03510 | 115° | 104km/h | 4681m | -3.8m/s | -4.7°C | 12.2% | 579.9hPa | 2.6V | 07:35:02 | 03:28:54 | 00:00:00 | i |
| BIOWL1-15 | 2026-09-03 14:18:33 | 51.26050 | 8.03510 | 115° | 104km/h | 4681m | -3.8m/s | -4.7°C | 13.3% | 579.9hPa | 2.6V | 07:35:41 | 03:28:54 | 00:00:00 | i |
| DM0DOS-11 | 2026-09-03 14:18:31 | 51.26083 | 8.03340 | 113° | 69km/h | 4699m | -3.6m/s | -4.8°C | 12.2% | 578.5hPa | 2.6V | 07:35:07 | 03:28:49 | 00:00:00 | i |
| HSKMA3-T | 2026-09-03 14:18:29 | 51.26067 | 8.03434 | 104° | 95km/h | 4688m | -3.8m/s | -4.7°C | 13.4% | 579.2hPa | 2.6V | 18:12:15 | 03:28:52 | 00:00:00 | i |
| DJ2DS-15 | 2026-09-03 14:18:29 | 51.26072 | 8.03399 | 102° | 84km/h | 4692m | -3.7m/s | -4.8°C | 11.7% | 578.9hPa | 2.6V | 00:00:00 | 00:00:00 | 00:00:00 | i |
| WPPR-10 | 2026-09-03 14:18:28 | 51.26072 | 8.03399 | 102° | 84km/h | 4692m | -3.7m/s | -4.8°C | 11.7% | 578.9hPa | 2.6V | 00:00:00 | 00:00:00 | 00:00:00 | |
| DO3DL | 2026-09-03 14:18:27 | 51.26072 | 8.03399 | 103° | 84km/h | 4692m | -3.7m/s | -4.8°C | 11.7% | 578.9hPa | 2.6V | 07:35:00 | 00:00:00 | 00:00:00 | |
| DM0DOS-11 | 2026-09-03 14:18:26 | 51.26138 | 8.03191 | 112° | 102km/h | 4718m | -3.6m/s | -4.9°C | 11.7% | 577hPa | 2.6V | 07:35:12 | 03:28:44 | 00:00:00 | i |
| BIOWL1-15 | 2026-09-03 14:18:24 | 51.26147 | 8.03153 | 107° | 99km/h | 4721m | -3.8m/s | -5°C | 12.7% | 576.8hPa | 2.6V | 07:35:41 | 03:28:43 | 00:00:00 | i |
| DO9LL-15 | 2026-09-03 14:18:22 | 51.26127 | 8.03228 | 120° | 88km/h | 4714m | -3.6m/s | -4.8°C | 11.7% | 577.3hPa | 2.6V | 00:00:00 | 03:28:45 | 00:00:00 | |
| DM0DOS-11 | 2026-09-03 14:18:21 | 51.26171 | 8.03030 | 117° | 69km/h | 4736m | -3.5m/s | -5.1°C | 11.5% | 575.8hPa | 2.6V | 07:35:17 | 03:28:39 | 00:00:00 | i |
| DO3DL | 2026-09-03 14:18:20 | 51.26138 | 8.03191 | 114° | 102km/h | 4718m | -3.7m/s | -4.9°C | 11.2% | 577.1hPa | 2.6V | 07:35:00 | 00:00:00 | 00:00:00 | |
| DO2KSM | 2026-09-03 14:18:17 | 51.26158 | 8.03084 | 105° | 78km/h | 4729m | -3.6m/s | -5.0°C | 11.0% | 576.3hPa | 2.6V | 07:35:00 | 00:00:00 | 00:00:00 | |
| DM0DOS-11 | 2026-09-03 14:18:16 | 51.26229 | 8.02881 | 117° | 102km/h | 4753m | -3.5m/s | -5.1°C | 11.4% | 574.5hPa | 2.6V | 07:35:22 | 03:28:34 | 00:00:00 | i |
| BIOWL1-15 | 2026-09-03 14:18:11 | 51.26249 | 8.02807 | 109° | 97km/h | 4761m | -3.7m/s | -5.1°C | 21.7% | 573.9hPa | 2.6V | 07:35:41 | 03:28:32 | 00:00:00 | i |
| HSKMA3-T | 2026-09-03 14:18:08 | 51.26256 | 8.02771 | 106° | 89km/h | 4764m | -3.7m/s | -5.2°C | 22.9% | 573.7hPa | 2.6V | 18:12:15 | 03:28:31 | 00:00:00 | i |
| DM0DOS-11 | 2026-09-03 14:18:06 | 51.26268 | 8.02708 | 108° | 73km/h | 4771m | -3.5m/s | -5.3°C | 21.7% | 573.2hPa | 2.5V | 07:35:27 | 03:28:29 | 00:00:00 | i |
| DM0DOS-11 | 2026-09-03 14:18:06 | 51.26319 | 8.02575 | 124° | 97km/h | 4789m | -3.5m/s | -5.4°C | 27.7% | 571.8hPa | 2.6V | 07:35:32 | 03:28:24 | 00:00:00 | i |
| DL4BBY-15 | 2026-09-03 14:18:06 | 51.26268 | 8.02708 | 109° | 88km/h | 4771m | -3.4m/s | -5.0°C | 0% | 0hPa | 2.5V | 00:00:00 | 00:00:00 | 00:00:00 | i |
| DD1CC3-15 | 2026-09-03 14:18:04 | 51.26274 | 8.02681 | 116° | 69km/h | 4775m | -3.6m/s | -5.3°C | 21.8% | 573.0hPa | 2.5V | 07:35:00 | 00:00:00 | 00:00:00 | |
| DM0DOS-11 | 2026-09-03 14:18:01 | 51.26367 | 8.02397 | 106° | 80km/h | 4807m | -3.4m/s | -5.6°C | 28.3% | 570.5hPa | 2.5V | 07:35:37 | 03:28:19 | 00:00:00 | i |
| BIOWL1-15 | 2026-09-03 14:17:58 | 51.26354 | 8.02467 | 109° | 99km/h | 4800m | -3.5m/s | -5.5°C | 30.9% | 571.2hPa | 2.6V | 07:35:41 | 03:28:21 | 00:00:00 | i |
| DD1CC1-15 | 2026-09-03 14:17:57 | 51.26354 | 8.02466 | 110° | 99km/h | 4800m | -3.5m/s | -5.5°C | 26.6% | 571.2hPa | 2.5V | 07:35:00 | 00:00:00 | 00:00:00 | |
| DM0DOS-11 | 2026-09-03 14:17:56 | 51.26414 | 8.02263 | 125° | 91km/h | 4824m | -3.2m/s | -5.7°C | 29% | 569.3hPa | 2.5V | 07:35:42 | 03:28:14 | 00:00:00 | i |
| DB0ND-19 | 2026-09-03 14:17:55 | 51.26380 | 8.02342 | 117° | 69km/h | 4813m | -3.5m/s | -5.7°C | 27.4% | 570.2hPa | 2.6V | 00:00:00 | 00:00:00 | 00:00:00 | |
| DJ2DS-15 | 2026-09-03 14:17:53 | 51.26401 | 8.02291 | 126° | 82km/h | 4821m | -3.7m/s | -5.7°C | 27.8% | 569.7hPa | 2.6V | 00:00:00 | 00:00:00 | 00:00:00 | |
| DO9LL-15 | 2026-09-03 14:17:52 | 51.26401 | 8.02291 | 127° | 91km/h | 4821m | -3.6m/s | -5.7°C | 29.0% | 569.6hPa | 2.6V | 00:00:00 | 03:28:15 | 00:00:00 | |
| DM0DOS-11 | 2026-09-03 14:17:51 | 51.26470 | 8.02085 | 105° | 88km/h | 4842m | -3.4m/s | -5.9°C | 29.4% | 568hPa | 2.6V | 07:35:47 | 03:28:09 | 00:00:00 | i |
| BIOWL1-15 | 2026-09-03 14:17:48 | 51.26453 | 8.02159 | 114° | 104km/h | 4835m | -3.9m/s | -5.8°C | 32.9% | 568.7hPa | 2.6V | 07:36:32 | 03:28:11 | 00:00:00 | i |
| DM0DOS-11 | 2026-09-03 14:17:46 | 51.26513 | 8.01948 | 126° | 91km/h | 4859m | -3.1m/s | -6°C | 29.6% | 566.7hPa | 2.6V | 07:35:52 | 03:28:04 | 00:00:00 | i |
| BIOWL1-15 | 2026-09-03 14:17:37 | 51.26560 | 8.01807 | 109° | 93km/h | 4873m | -3.2m/s | -6.2°C | 33% | 565.8hPa | 2.6V | 07:36:32 | 03:28:00 | 00:00:00 | i |
| DM0DOS-11 | 2026-09-03 14:17:36 | 51.26567 | 8.01773 | 107° | 84km/h | 4875m | -2.7m/s | -6.2°C | 30% | 565.5hPa | 2.6V | 07:35:57 | 03:27:59 | 00:00:00 | i |
| DM0DOS-11 | 2026-09-03 14:17:36 | 51.26610 | 8.01638 | 127° | 84km/h | 4891m | -3.1m/s | -6.3°C | 30.1% | 564.4hPa | 2.6V | 07:36:02 | 03:27:54 | 00:00:00 | i |
| BIOWL1-15 | 2026-09-03 14:17:30 | 51.26674 | 8.01466 | 110° | 100km/h | 4908m | -3.6m/s | -6.5°C | 32.9% | 563.3hPa | 2.5V | 07:36:32 | 03:27:49 | 00:00:00 | i |
| DJ2KF-10 | 2026-09-03 14:17:29 | 51.26638 | 8.01577 | 125° | 89km/h | 4897m | -3.3m/s | -6.4°C | 29.6% | 564.0hPa | 2.5V | 00:00:00 | 03:27:52 | 00:00:00 | |
| DM0DOS-11 | 2026-09-03 14:17:26 | 51.26674 | 8.01466 | 109° | 100km/h | 4908m | -3.6m/s | -6.5°C | 29.3% | 563.3hPa | 2.5V | 07:36:07 | 03:27:49 | 00:00:00 | i |
| DM0DOS-11 | 2026-09-03 14:17:26 | 51.26713 | 8.01319 | 127° | 80km/h | 4924m | -3.4m/s | -6.7°C | 30% | 562.1hPa | 2.6V | 07:36:12 | 03:27:44 | 00:00:00 | i |
| DB0UT-7 | 2026-09-03 14:17:26 | 51.26674 | 8.01466 | 110° | 89km/h | 4908m | -3.5m/s | -6.4°C | 29.3% | 563.2hPa | 2.5V | 00:00:00 | 00:00:00 | 00:00:00 | i |
| DB0ND-19 | 2026-09-03 14:17:24 | 51.26694 | 8.01369 | 112° | 69km/h | 4917m | -3.4m/s | -6.6°C | 28.6% | -1.0hPa | 2.6V | 00:00:00 | 00:00:00 | 00:00:00 | |
| DO9LL-15 | 2026-09-03 14:17:22 | 51.26702 | 8.01344 | 122° | 89km/h | 4921m | -3.3m/s | -6.6°C | 29.8% | 562.3hPa | 2.6V | 00:00:00 | 03:27:45 | 00:00:00 | |
| DM0DOS-11 | 2026-09-03 14:17:21 | 51.26773 | 8.01147 | 108° | 99km/h | 4941m | -3.7m/s | -6.7°C | 31.3% | 561hPa | 2.6V | 07:36:17 | 03:27:39 | 00:00:00 | i |
| HSKMA3-T | 2026-09-03 14:17:19 | 51.26740 | 8.01260 | 124° | 100km/h | 4931m | -3.1m/s | -6.6°C | 33.3% | 561.5hPa | 2.6V | 18:12:15 | 03:27:42 | 00:00:00 | i |
| BIOWL1-15 | 2026-09-03 14:17:18 | 51.26774 | 8.01147 | 108° | 99km/h | 4941m | -3.7m/s | -6.7°C | 34.7% | 561hPa | 2.6V | 07:36:32 | 03:27:39 | 00:00:00 | i |
| DM0DOS-11 | 2026-09-03 14:17:16 | 51.26815 | 8.01001 | 128° | 84km/h | 4957m | -3.1m/s | -6.8°C | 32.7% | 559.8hPa | 2.6V | 07:36:22 | 03:27:34 | 00:00:00 | i |
| DO2KSM | 2026-09-03 14:17:15 | 51.26773 | 8.01147 | 109° | 99km/h | 4941m | -3.7m/s | -6.7°C | 30.0% | 561.0hPa | 2.6V | 07:36:00 | 00:00:00 | 00:00:00 | |
| DO3DL | 2026-09-03 14:17:13 | 51.26787 | 8.01079 | 109° | 77km/h | 4948m | -3.1m/s | -6.7°C | 30.8% | 560.4hPa | 2.6V | 07:36:00 | 00:00:00 | 00:00:00 | |
| DM0DOS-11 | 2026-09-03 14:17:11 | 51.26876 | 8.00829 | 106° | 93km/h | 4974m | -3.2m/s | -6.9°C | 34.1% | 558.5hPa | 2.6V | 07:36:27 | 03:27:29 | 00:00:00 | i |
| BIOWL1-15 | 2026-09-03 14:17:08 | 51.26876 | 8.00829 | 107° | 93km/h | 4974m | -3.2m/s | -6.9°C | 37.3% | 558.5hPa | 2.6V | 07:36:32 | 03:27:29 | 00:00:00 | i |
| DL8DAS-15 | 2026-09-03 14:17:06 | 51.26868 | 8.00867 | 112° | 102km/h | 4971m | -3.3m/s | -6.9°C | 32.5% | 558.6hPa | 2.5V | 00:00:00 | 00:00:00 | 00:00:00 | |
| DL4BBY-15 | 2026-09-03 14:17:05 | 51.26882 | 8.00795 | 107° | 91km/h | 4977m | -3.3m/s | -6.7°C | 0% | 0hPa | 2.5V | 00:00:00 | 00:00:00 | 00:00:00 | |
| DD1CC3-15 | 2026-09-03 14:17:03 | 51.26889 | 8.00766 | 113° | 73km/h | 4980m | -3.3m/s | -7.0°C | 33.3% | 558.1hPa | 2.5V | 07:36:00 | 00:00:00 | 00:00:00 | |
| DM0DOS-11 | 2026-09-03 14:17:01 | 51.26921 | 8.00685 | 127° | 91km/h | 4989m | -3.1m/s | -7.1°C | 37.4% | 557.5hPa | 2.5V | 07:36:32 | 03:27:24 | 00:00:00 | i |
| DM0DOS-11 | 2026-09-03 14:17:01 | 51.26982 | 8.00504 | 107° | 95km/h | 5006m | -3.3m/s | -7.2°C | 47.3% | 556.2hPa | 2.6V | 07:36:37 | 03:27:19 | 00:00:00 | i |
| HSKMA3-T | 2026-09-03 14:16:59 | 51.26950 | 8.00619 | 121° | 106km/h | 4996m | -3.3m/s | -7°C | 46% | 556.8hPa | 2.6V | 18:12:15 | 03:27:22 | 00:00:00 | i |
| BIOWL1-15 | 2026-09-03 14:16:58 | 51.26982 | 8.00505 | 108° | 95km/h | 5006m | -3.3m/s | -7.2°C | 50.4% | 556.2hPa | 2.6V | 07:37:23 | 03:27:19 | 00:00:00 | i |
| DL9SK-14 | 2026-09-03 14:16:56 | 51.26988 | 8.00470 | 106° | 82km/h | 5009m | -3.3m/s | -7.2°C | 45.5% | 556.1hPa | 2.6V | 00:00:00 | 00:00:00 | 00:00:00 | |
| DL8DAS-14 | 2026-09-03 14:16:53 | 51.27002 | 8.00413 | 118° | 71km/h | 5016m | -3.4m/s | -7.2°C | 45.6% | 555.6hPa | 2.6V | 00:00:00 | 00:00:00 | 00:00:00 | |
| DO9LL-15 | 2026-09-03 14:16:52 | 51.27012 | 8.00388 | 127° | 95km/h | 5019m | -3.2m/s | -7.2°C | 47.0% | 555.4hPa | 2.6V | 00:00:00 | 03:27:15 | 00:00:00 | |
| DM0DOS-11 | 2026-09-03 14:16:51 | 51.27083 | 8.00184 | 106° | 89km/h | 5038m | -3.2m/s | -7.4°C | 47.9% | 554hPa | 2.6V | 07:36:47 | 03:27:09 | 00:00:00 | i |
| BIOWL1-15 | 2026-09-03 14:16:46 | 51.27083 | 8.00184 | 107° | 89km/h | 5038m | -3.2m/s | -7.4°C | 51.5% | 554hPa | 2.6V | 07:37:23 | 03:27:09 | 00:00:00 | i |
| DB0NH | 2026-09-03 14:16:42 | 51.27118 | 8.00069 | 127° | 93km/h | 5050m | -2.8m/s | -7.5°C | 52.3% | 553.1hPa | 2.5V | 00:00:00 | 03:27:05 | 00:00:00 | |
| DM0DOS-11 | 2026-09-03 14:16:41 | 51.27195 | 7.99858 | 108° | 102km/h | 5069m | -3.3m/s | -7.6°C | 51.7% | 551.8hPa | 2.5V | 07:36:57 | 03:26:59 | 00:00:00 | i |
| BIOWL1-15 | 2026-09-03 14:16:35 | 51.27202 | 7.99820 | 106° | 93km/h | 5072m | -3.2m/s | -7.6°C | 54.3% | 551.5hPa | 2.5V | 07:37:23 | 03:26:58 | 00:00:00 | |
| DL4BBY-15 | 2026-09-03 14:16:35 | 51.27203 | 7.99820 | 106° | 99km/h | 5073m | -3.2m/s | -7.3°C | 0% | 0hPa | 2.6V | 00:00:00 | 00:00:00 | 00:00:00 | |
| DD1CC1-15 | 2026-09-03 14:16:34 | 51.27203 | 7.99820 | 107° | 93km/h | 5072m | -3.2m/s | -7.6°C | 49.6% | 551.5hPa | 2.6V | 07:37:00 | 00:00:00 | 00:00:00 | |
| DO3DL | 2026-09-03 14:16:32 | 51.27215 | 7.99755 | 113° | 77km/h | 5079m | -3.0m/s | -7.6°C | 49.9% | 551.2hPa | 2.6V | 07:37:00 | 00:00:00 | 00:00:00 | |
| DM0DOS-11 | 2026-09-03 14:16:31 | 51.27300 | 7.99519 | 110° | 110km/h | 5099m | -3.1m/s | -7.7°C | 51.6% | 549.6hPa | 2.6V | 07:37:07 | 03:26:49 | 00:00:00 | i |
| HSKMA3-T | 2026-09-03 14:16:28 | 51.27277 | 7.99599 | 119° | 108km/h | 5093m | -2.8m/s | -7.6°C | 53.2% | 550.1hPa | 2.5V | 18:12:15 | 03:26:51 | 00:00:00 | i |
| BIOWL1-15 | 2026-09-03 14:16:25 | 51.27309 | 7.99478 | 107° | 104km/h | 5102m | -3.4m/s | -7.7°C | 54.1% | 549.5hPa | 2.6V | 07:37:23 | 03:26:48 | 00:00:00 | i |
| DL9SK-14 | 2026-09-03 14:16:25 | 51.27316 | 7.99439 | 105° | 97km/h | 5105m | -3.6m/s | -7.7°C | 49.3% | 549.2hPa | 2.6V | 00:00:00 | 00:00:00 | 00:00:00 | i |
| DB0ND-19 | 2026-09-03 14:16:22 | 51.27339 | 7.99342 | 121° | 80km/h | 5115m | -2.7m/s | 0°C | -1.0% | -1.0hPa | 2.6V | 00:00:00 | 00:00:00 | 00:00:00 | |
| DM0DOS-11 | 2026-09-03 14:16:21 | 51.27405 | 7.99165 | 110° | 113km/h | 5130m | -2.9m/s | -7.8°C | 53.2% | 547.4hPa | 2.6V | 07:37:17 | 03:26:39 | 00:00:00 | i |
| BIOWL1-15 | 2026-09-03 14:16:16 | 51.27421 | 7.99083 | 105° | 97km/h | 5136m | -3.2m/s | -7.8°C | 56.4% | 547.1hPa | 2.6V | 07:37:23 | 03:26:37 | 00:00:00 | i |
| DO2KSM | 2026-09-03 14:16:14 | 51.27414 | 7.99123 | 108° | 106km/h | 5133m | -2.9m/s | -7.8°C | 51.3% | 547.3hPa | 2.6V | 07:37:00 | 00:00:00 | 00:00:00 | |
| DD1CC1-15 | 2026-09-03 14:16:13 | 51.27421 | 7.99083 | 106° | 97km/h | 5136m | -3.2m/s | -7.8°C | 51.6% | 547.1hPa | 2.6V | 07:37:00 | 00:00:00 | 00:00:00 | |
| DM0DOS-11 | 2026-09-03 14:16:11 | 51.27509 | 7.98798 | 109° | 113km/h | 5159m | -2.8m/s | -7.8°C | 56% | 545.4hPa | 2.6V | 07:37:27 | 03:26:29 | 00:00:00 | i |
| BIOWL1-15 | 2026-09-03 14:16:03 | 51.27530 | 7.98675 | 103° | 95km/h | 5168m | -3.3m/s | -7.8°C | 60% | 544.8hPa | 2.5V | 07:38:14 | 03:26:26 | 00:00:00 | i |
| DM0DOS-11 | 2026-09-03 14:16:01 | 51.27605 | 7.98426 | 111° | 120km/h | 5190m | -2.9m/s | -7.8°C | 57.3% | 543.2hPa | 2.5V | 07:37:37 | 03:26:19 | 00:00:00 | i |
| BIOWL1-15 | 2026-09-03 14:15:58 | 51.27632 | 7.98264 | 108° | 84km/h | 5203m | -3.1m/s | -7.9°C | 59.4% | 542.4hPa | 2.6V | 07:38:14 | 03:26:15 | 00:00:00 | i |
| HSKMA3-T | 2026-09-03 14:15:54 | 51.27621 | 7.98337 | 102° | 106km/h | 5197m | -3.2m/s | -7.9°C | 59.7% | 0hPa | 2.6V | 18:12:15 | 03:26:17 | 00:00:00 | i |
| DL9SK-14 | 2026-09-03 14:15:54 | 51.27626 | 7.98298 | 102° | 91km/h | 5200m | -2.9m/s | -7.9°C | 54.3% | 542.6hPa | 2.5V | 00:00:00 | 00:00:00 | 00:00:00 | i |
| DD1CC1-15 | 2026-09-03 14:15:53 | 51.27621 | 7.98337 | 103° | 106km/h | 5197m | -3.2m/s | -7.9°C | 54.5% | 542.9hPa | 2.5V | 07:38:00 | 00:00:00 | 00:00:00 | |
| DO9LL-15 | 2026-09-03 14:15:52 | 51.27632 | 7.98264 | 109° | 100km/h | 5203m | -3.1m/s | -7.9°C | 56.6% | 542.4hPa | 2.5V | 00:00:00 | 03:26:15 | 00:00:00 | |
| DM0DOS-11 | 2026-09-03 14:15:51 | 51.27700 | 7.98037 | 106° | 115km/h | 5221m | -3.1m/s | -8°C | 53.6% | 541hPa | 2.5V | 07:37:47 | 03:26:09 | 00:00:00 | i |
| DL8DAS-14 | 2026-09-03 14:15:51 | 51.27665 | 7.98165 | 120° | 108km/h | 5212m | -3.0m/s | -7.9°C | 52.2% | 541.8hPa | 2.6V | 00:00:00 | 00:00:00 | 00:00:00 | i |
| DD1CC8 | 2026-09-03 14:15:49 | 51.27665 | 7.98165 | 120° | 108km/h | 5212m | -3.0m/s | -7.9°C | 52.2% | 541.8hPa | 2.6V | 00:00:00 | 00:00:00 | 00:00:00 | |
| WPPR-10 | 2026-09-03 14:15:48 | 51.27679 | 7.98125 | 116° | 115km/h | 5215m | -3.1m/s | -7.9°C | 51.9% | 541.5hPa | 2.6V | 00:00:00 | 00:00:00 | 00:00:00 | |
| BIOWL1-15 | 2026-09-03 14:15:42 | 51.27725 | 7.97888 | 113° | 82km/h | 5233m | -3.1m/s | -8.1°C | 55% | 540.3hPa | 2.6V | 07:38:14 | 03:26:05 | 00:00:00 | i |
| DM0DOS-11 | 2026-09-03 14:15:41 | 51.27792 | 7.97658 | 105° | 113km/h | 5251m | -3m/s | -8.2°C | 51.6% | 539.1hPa | 2.6V | 07:37:57 | 03:25:59 | 00:00:00 | i |
| HSKMA3-T | 2026-09-03 14:15:39 | 51.27760 | 7.97787 | 119° | 110km/h | 5242m | -3m/s | -8.1°C | 53.2% | 0hPa | 2.5V | 18:12:15 | 03:26:02 | 00:00:00 | i |
| BIOWL1-15 | 2026-09-03 14:15:36 | 51.27816 | 7.97507 | 109° | 84km/h | 5263m | -3.1m/s | -8.3°C | 54.5% | 538.1hPa | 2.5V | 07:38:14 | 03:25:55 | 00:00:00 | i |
| DL4BBY-15 | 2026-09-03 14:15:35 | 51.27799 | 7.97616 | 103° | 99km/h | 5255m | -3.0m/s | -7.9°C | 0% | 0hPa | 2.5V | 00:00:00 | 00:00:00 | 00:00:00 | |
| BIOWL9-15 | 2026-09-03 14:15:34 | 51.27810 | 7.97540 | 104° | 88km/h | 5260m | -3.1m/s | -8.3°C | 49.6% | 538.4hPa | 2.5V | 00:00:00 | 00:00:00 | 00:00:00 | |
| DD1CC1-15 | 2026-09-03 14:15:32 | 51.27810 | 7.97540 | 105° | 88km/h | 5260m | -3.1m/s | -8.3°C | 49.6% | 538.4hPa | 2.5V | 07:38:00 | 00:00:00 | 00:00:00 | |
| BUE01 | 2026-09-03 14:15:31 | 51.27834 | 7.97444 | 119° | 89km/h | 5269m | -3.2m/s | -8.3°C | 49.1% | 537.7hPa | 2.5V | 00:00:00 | 00:00:00 | 00:00:00 | |
| DJ2KF-10 | 2026-09-03 14:15:29 | 51.27846 | 7.97412 | 122° | 95km/h | 5272m | -3.1m/s | -8.3°C | 51.6% | 537.5hPa | 2.5V | 00:00:00 | 03:25:52 | 00:00:00 | |
| DJ2DS-15 | 2026-09-03 14:15:28 | 51.27860 | 7.97376 | 120° | 106km/h | 5275m | -3.3m/s | -8.3°C | 48.5% | 537.2hPa | 2.5V | 00:00:00 | 00:00:00 | 00:00:00 | |
| DB0UT-7 | 2026-09-03 14:15:26 | 51.27886 | 7.97294 | 113° | 100km/h | 5282m | -3.3m/s | -8.3°C | 49.2% | 536.8hPa | 2.5V | 00:00:00 | 00:00:00 | 00:00:00 | |
| DO3DL | 2026-09-03 14:15:25 | 51.27886 | 7.97294 | 114° | 119km/h | 5282m | -3.3m/s | -8.3°C | 47.2% | 536.9hPa | 2.5V | 07:38:00 | 00:00:00 | 00:00:00 | |
| DL8DAS-15 | 2026-09-03 14:15:24 | 51.27896 | 7.97250 | 108° | 115km/h | 5285m | -3.3m/s | -8.4°C | 46.6% | 536.6hPa | 2.5V | 07:38:00 | 00:00:00 | 00:00:00 | |
| DL9SK-14 | 2026-09-03 14:15:23 | 51.27914 | 7.97132 | 106° | 84km/h | 5295m | -3.1m/s | -8.5°C | 44.4% | 535.9hPa | 2.5V | 00:00:00 | 00:00:00 | 00:00:00 | |
| DO9LL-15 | 2026-09-03 14:15:22 | 51.27914 | 7.97132 | 107° | 100km/h | 5295m | -3.1m/s | -8.4°C | 46.3% | 535.9hPa | 2.5V | 00:00:00 | 03:25:45 | 00:00:00 | |
| DM0DOS-11 | 2026-09-03 14:15:21 | 51.27982 | 7.96919 | 109° | 115km/h | 5313m | -2.9m/s | -8.6°C | 39.9% | 534.6hPa | 2.5V | 07:38:17 | 03:25:39 | 00:00:00 | i |
| BIOWL1-15 | 2026-09-03 14:15:21 | 51.27921 | 7.97101 | 114° | 82km/h | 5298m | -3.2m/s | -8.5°C | 48.4% | 535.7hPa | 2.6V | 07:38:14 | 03:25:44 | 00:00:00 | i |
| BIOWL1-15 | 2026-09-03 14:15:12 | 51.28028 | 7.96703 | 121° | 89km/h | 5332m | -3m/s | -8.8°C | 42.4% | 533.4hPa | 2.6V | 07:39:05 | 03:25:33 | 00:00:00 | i |
| DM0DOS-11 | 2026-09-03 14:15:11 | 51.28080 | 7.96553 | 112° | 117km/h | 5344m | -3m/s | -8.8°C | 38.7% | 532.6hPa | 2.6V | 07:38:27 | 03:25:29 | 00:00:00 | i |
| HSKMA3-T | 2026-09-03 14:15:09 | 51.28040 | 7.96670 | 123° | 99km/h | 5335m | -3.1m/s | -8.8°C | 42.3% | 0hPa | 2.6V | 18:12:15 | 03:25:32 | 00:00:00 | i |
| AU51GT2 | 2026-09-03 14:15:07 | 51.28080 | 7.96553 | 112° | 115km/h | 5344m | -3.0m/s | -8.8°C | 37.0% | 532.6hPa | 2.5V | 00:00:00 | 00:00:00 | 00:00:00 | |
| DB0NH | 2026-09-03 14:15:06 | 51.28080 | 7.96553 | 113° | 104km/h | 5344m | -3.0m/s | -8.8°C | 38.7% | 532.6hPa | 2.5V | 00:00:00 | 03:25:29 | 00:00:00 | |
| DL4BBY-15 | 2026-09-03 14:15:05 | 51.28090 | 7.96510 | 109° | 100km/h | 5347m | -3.0m/s | -8.6°C | 0% | 0hPa | 2.5V | 00:00:00 | 00:00:00 | 00:00:00 | |
| DM0DOS-11 | 2026-09-03 14:15:01 | 51.28174 | 7.96177 | 114° | 119km/h | 5375m | -3m/s | -9.1°C | 38.1% | 530.5hPa | 2.5V | 07:38:37 | 03:25:19 | 00:00:00 | i |
| BIOWL1-15 | 2026-09-03 14:15:01 | 51.28134 | 7.96290 | 122° | 91km/h | 5366m | -3.1m/s | -9.1°C | 41% | 531hPa | 2.6V | 07:39:05 | 03:25:22 | 00:00:00 | i |
| HSKMA3-T | 2026-09-03 14:14:54 | 51.28193 | 7.96090 | 105° | 106km/h | 5382m | -3.2m/s | -9.2°C | 40.4% | 0hPa | 2.6V | 18:12:15 | 03:25:17 | 00:00:00 | i |
| DL9SK-14 | 2026-09-03 14:14:52 | 51.28216 | 7.95985 | 117° | 86km/h | 5390m | -2.9m/s | -9.3°C | 36.8% | 529.3hPa | 2.6V | 00:00:00 | 00:00:00 | 00:00:00 | |
| DM0DOS-11 | 2026-09-03 14:14:51 | 51.28283 | 7.95806 | 114° | 120km/h | 5406m | -3.1m/s | -9.2°C | 38.7% | 528.3hPa | 2.6V | 07:38:47 | 03:25:09 | 00:00:00 | i |
| BIOWL1-15 | 2026-09-03 14:14:49 | 51.28240 | 7.95923 | 124° | 99km/h | 5396m | -3.5m/s | -9.4°C | 41.2% | 529hPa | 2.5V | 07:39:05 | 03:25:12 | 00:00:00 | i |
| DD1CC8 | 2026-09-03 14:14:47 | 51.28270 | 7.95849 | 119° | 115km/h | 5403m | -3.2m/s | -9.3°C | 37.1% | 528.5hPa | 2.6V | 00:00:00 | 00:00:00 | 00:00:00 | |
| WPPR-10 | 2026-09-03 14:14:46 | 51.28283 | 7.95806 | 114° | 119km/h | 5406m | -3.2m/s | -9.2°C | 37.0% | 528.3hPa | 2.6V | 00:00:00 | 00:00:00 | 00:00:00 | |
| DO3DL | 2026-09-03 14:14:45 | 51.28283 | 7.95806 | 115° | 120km/h | 5406m | -3.2m/s | -9.2°C | 37.0% | 528.3hPa | 2.6V | 07:39:00 | 00:00:00 | 00:00:00 | |
| BIOWL7-15 | 2026-09-03 14:14:43 | 51.28303 | 7.95718 | 106° | 111km/h | 5413m | -3.4m/s | -9.3°C | 37.3% | 527.8hPa | 2.6V | 07:39:00 | 00:00:00 | 00:00:00 | |
| DM0DOS-11 | 2026-09-03 14:14:41 | 51.28389 | 7.95428 | 114° | 119km/h | 5438m | -3.3m/s | -9.2°C | 37.4% | 526hPa | 2.6V | 07:38:57 | 03:24:59 | 00:00:00 | i |
| BIOWL1-15 | 2026-09-03 14:14:40 | 51.28360 | 7.95509 | 124° | 110km/h | 5432m | -3.2m/s | -9.3°C | 42.3% | 526.5hPa | 2.6V | 07:39:05 | 03:25:01 | 00:00:00 | i |
| DO3DL | 2026-09-03 14:14:39 | 51.28345 | 7.95543 | 125° | 97km/h | 5429m | -3.1m/s | -9.4°C | 38.1% | 526.7hPa | 2.6V | 07:39:00 | 00:00:00 | 00:00:00 | |
| DD1CC3-15 | 2026-09-03 14:14:38 | 51.28345 | 7.95543 | 125° | 97km/h | 5429m | -3.1m/s | -9.4°C | 38.1% | 526.7hPa | 2.6V | 07:39:00 | 00:00:00 | 00:00:00 | |
| AU51GT2 | 2026-09-03 14:14:36 | 51.28400 | 7.95384 | 109° | 115km/h | 5441m | -3.2m/s | -9.3°C | 35.5% | 525.8hPa | 2.6V | 00:00:00 | 00:00:00 | 00:00:00 | |
| DL4BBY-15 | 2026-09-03 14:14:35 | 51.28400 | 7.95384 | 110° | 102km/h | 5442m | -3.1m/s | -9.0°C | 0% | 0hPa | 2.6V | 00:00:00 | 00:00:00 | 00:00:00 | |
| DO2KSM | 2026-09-03 14:14:33 | 51.28408 | 7.95342 | 107° | 104km/h | 5444m | -3.2m/s | -9.3°C | 35.6% | 525.6hPa | 2.6V | 07:39:00 | 00:00:00 | 00:00:00 | |
| DB0NH | 2026-09-03 14:14:32 | 51.28422 | 7.95269 | 111° | 100km/h | 5451m | -3.1m/s | -9.3°C | 44.5% | 525.1hPa | 2.6V | 00:00:00 | 03:24:55 | 00:00:00 | |
| DM0DOS-11 | 2026-09-03 14:14:31 | 51.28500 | 7.95062 | 116° | 117km/h | 5470m | -3m/s | -9.4°C | 67% | 523.9hPa | 2.6V | 07:39:07 | 03:24:49 | 00:00:00 | i |
| BIOWL1-15 | 2026-09-03 14:14:27 | 51.28486 | 7.95103 | 121° | 113km/h | 5467m | -3.1m/s | -9.4°C | 66.8% | 524.1hPa | 2.6V | 07:39:56 | 03:24:50 | 00:00:00 | i |
| DJ2KF-10 | 2026-09-03 14:14:27 | 51.28486 | 7.95103 | 121° | 102km/h | 5467m | -3.0m/s | -9.3°C | 66.5% | 524.0hPa | 2.6V | 00:00:00 | 03:24:50 | 00:00:00 | i |
| DB0UT-7 | 2026-09-03 14:14:26 | 51.28500 | 7.95062 | 117° | 102km/h | 5470m | -2.9m/s | -9.4°C | 67.0% | 523.9hPa | 2.6V | 00:00:00 | 00:00:00 | 00:00:00 | |
| DL1CLM-18 | 2026-09-03 14:14:25 | 51.28512 | 7.95020 | 113° | 115km/h | 5473m | -3.1m/s | -9.5°C | 64.6% | 523.7hPa | 2.5V | 00:00:00 | 00:00:00 | 00:00:00 | |
| DO9LL-15 | 2026-09-03 14:14:22 | 51.28537 | 7.94897 | 106° | 102km/h | 5482m | -3.7m/s | -9.5°C | 71.3% | 523.1hPa | 2.5V | 00:00:00 | 03:24:45 | 00:00:00 | |
| DM0DOS-11 | 2026-09-03 14:14:21 | 51.28607 | 7.94696 | 118° | 117km/h | 5502m | -3.4m/s | -9.7°C | 77.7% | 521.8hPa | 2.5V | 07:39:17 | 03:24:39 | 00:00:00 | i |
| BIOWL1-15 | 2026-09-03 14:14:17 | 51.28592 | 7.94735 | 123° | 111km/h | 5499m | -3.3m/s | -9.7°C | 76.5% | 521.9hPa | 2.6V | 07:39:56 | 03:24:40 | 00:00:00 | i |
| DD1CC8 | 2026-09-03 14:14:16 | 51.28620 | 7.94653 | 112° | 115km/h | 5506m | -3.4m/s | -9.7°C | 74.7% | 521.5hPa | 2.6V | 00:00:00 | 00:00:00 | 00:00:00 | |
| WPPR-10 | 2026-09-03 14:14:15 | 51.28620 | 7.94653 | 112° | 115km/h | 5506m | -3.4m/s | -9.7°C | 74.7% | 521.5hPa | 2.6V | 00:00:00 | 00:00:00 | 00:00:00 | |
| DM0DOS-11 | 2026-09-03 14:14:12 | 51.28719 | 7.94328 | 118° | 117km/h | 5534m | -3.3m/s | -9.7°C | 74.3% | 519.5hPa | 2.6V | 07:39:27 | 03:24:29 | 00:00:00 | i |
| BIOWL1-15 | 2026-09-03 14:14:06 | 51.28719 | 7.94328 | 118° | 117km/h | 5535m | -3.3m/s | -9.7°C | 73.5% | 519.5hPa | 2.6V | 07:39:56 | 03:24:29 | 00:00:00 | i |
| AU51GT2 | 2026-09-03 14:14:05 | 51.28743 | 7.94241 | 110° | 117km/h | 5541m | -3.7m/s | -9.8°C | 72.8% | 519.1hPa | 2.6V | 00:00:00 | 00:00:00 | 00:00:00 | |
| DB0NH | 2026-09-03 14:14:02 | 51.28760 | 7.94156 | 105° | 100km/h | 5549m | -3.6m/s | -9.8°C | 74.1% | 518.5hPa | 2.6V | 07:39:00 | 03:24:25 | 00:00:00 | |
| DM0DOS-11 | 2026-09-03 14:14:01 | 51.28824 | 7.93956 | 122° | 113km/h | 5569m | -3.6m/s | -9.8°C | 71.7% | 517.2hPa | 2.6V | 07:39:37 | 03:24:19 | 00:00:00 | i |
| HSKMA3-T | 2026-09-03 14:13:58 | 51.28795 | 7.94025 | 125° | 93km/h | 5562m | -3.6m/s | -9.8°C | 74.7% | 0hPa | 2.6V | 18:12:15 | 03:24:21 | 00:00:00 | i |
| BIOWL1-15 | 2026-09-03 14:13:55 | 51.28839 | 7.93915 | 117° | 119km/h | 5573m | -3.5m/s | -9.7°C | 70.4% | 516.9hPa | 2.6V | 07:39:56 | 03:24:18 | 00:00:00 | i |
| DJ2KF-10 | 2026-09-03 14:13:54 | 51.28850 | 7.93872 | 111° | 100km/h | 5576m | -3.2m/s | -9.7°C | 68.3% | 516.6hPa | 2.5V | 00:00:00 | 03:24:17 | 00:00:00 | |
| DO9LL-15 | 2026-09-03 14:13:52 | 51.28866 | 7.93789 | 105° | 100km/h | 5583m | -3.4m/s | -9.7°C | 64.9% | 516.1hPa | 2.5V | 00:00:00 | 03:24:15 | 00:00:00 | |
| DM0DOS-11 | 2026-09-03 14:13:51 | 51.28935 | 7.93586 | 117° | 115km/h | 5603m | -3.5m/s | -9.8°C | 70.1% | 515hPa | 2.5V | 07:39:47 | 03:24:09 | 00:00:00 | i |
| BIOWL1-15 | 2026-09-03 14:13:45 | 51.28947 | 7.93544 | 111° | 113km/h | 5606m | -3.5m/s | -9.9°C | 71.7% | 514.7hPa | 2.5V | 07:39:56 | 03:24:08 | 00:00:00 | i |
| HSKMA3-T | 2026-09-03 14:13:44 | 51.28956 | 7.93502 | 108° | 104km/h | 5610m | -3.2m/s | -9.9°C | 72% | 0hPa | 2.6V | 18:12:15 | 03:24:07 | 00:00:00 | i |
| WPPR-10 | 2026-09-03 14:13:44 | 51.28964 | 7.93464 | 107° | 93km/h | 5613m | -3.3m/s | -10.0°C | 67.1% | 514.2hPa | 2.6V | 00:00:00 | 00:00:00 | 00:00:00 | i |
| DM0DOS-11 | 2026-09-03 14:13:41 | 51.29044 | 7.93237 | 121° | 111km/h | 5636m | -3.4m/s | -10.1°C | 71.4% | 512.6hPa | 2.6V | 07:39:57 | 03:23:59 | 00:00:00 | i |
| BIOWL1-15 | 2026-09-03 14:13:34 | 51.29072 | 7.93156 | 115° | 117km/h | 5643m | -3.6m/s | -10.2°C | 74.6% | 512.3hPa | 2.6V | 07:40:47 | 03:23:57 | 00:00:00 | i |
| HSKMA3-T | 2026-09-03 14:13:33 | 51.29083 | 7.93113 | 111° | 113km/h | 5647m | -3.9m/s | 0°C | 0% | 0hPa | 2.6V | 18:12:15 | 03:23:56 | 00:00:00 | |
| DB0NH | 2026-09-03 14:13:32 | 51.29093 | 7.93071 | 108° | 102km/h | 5651m | -3.6m/s | -10.2°C | 75.9% | 511.8hPa | 2.6V | 00:00:00 | 03:23:55 | 00:00:00 | |
| DM0DOS-11 | 2026-09-03 14:13:31 | 51.29154 | 7.92871 | 125° | 104km/h | 5671m | -3.4m/s | -10.4°C | 77.8% | 510.4hPa | 2.6V | 07:40:07 | 03:23:49 | 00:00:00 | i |
| BIOWL1-15 | 2026-09-03 14:13:27 | 51.29199 | 7.92755 | 116° | 119km/h | 5682m | -3.7m/s | -10.5°C | 77.8% | 509.7hPa | 2.6V | 07:40:47 | 03:23:46 | 00:00:00 | i |
| HSKMA3-T | 2026-09-03 14:13:21 | 51.29220 | 7.92668 | 107° | 110km/h | 5689m | -3.6m/s | 0°C | 0% | 0hPa | 2.6V | 18:12:15 | 03:23:44 | 00:00:00 | i |
| DM0DOS-11 | 2026-09-03 14:13:21 | 51.29264 | 7.92495 | 124° | 97km/h | 5707m | -3.4m/s | -10.8°C | 80.4% | 508hPa | 2.6V | 07:40:17 | 03:23:39 | 00:00:00 | i |
| BIOWL1-15 | 2026-09-03 14:13:13 | 51.29310 | 7.92383 | 118° | 120km/h | 5718m | -4m/s | -10.8°C | 79.9% | 507.4hPa | 2.6V | 07:40:47 | 03:23:36 | 00:00:00 | i |
| BIOWL1-15 | 2026-09-03 14:13:04 | 51.29429 | 7.91948 | 109° | 120km/h | 5759m | -3.9m/s | -11.1°C | 81.6% | 504.7hPa | 2.6V | 07:40:47 | 03:23:25 | 00:00:00 | i |
| BIOWL1-15 | 2026-09-03 14:12:51 | 51.29551 | 7.91512 | 108° | 119km/h | 5800m | -4.1m/s | -11.3°C | 81.2% | 502hPa | 2.6V | 07:40:47 | 03:23:14 | 00:00:00 | i |
| HSKMA3-T | 2026-09-03 14:12:50 | 51.29559 | 7.91468 | 105° | 111km/h | 5804m | -3.8m/s | 0°C | 0% | 0hPa | 2.5V | 18:12:15 | 03:23:13 | 00:00:00 | i |
| DL3AQ-11 | 2026-09-03 14:12:50 | 51.29566 | 7.91427 | 105° | 99km/h | 5807m | -3.8m/s | -11.4°C | 78.6% | 501.6hPa | 2.6V | 00:00:00 | 00:00:00 | 00:00:00 | i |
| DL9SK-14 | 2026-09-03 14:12:47 | 51.29582 | 7.91357 | 116° | 89km/h | 5815m | -3.8m/s | -11.5°C | 79.0% | 501.0hPa | 2.6V | 00:00:00 | 00:00:00 | 00:00:00 | |
| DL8DAS-14 | 2026-09-03 14:12:45 | 51.29621 | 7.91253 | 121° | 111km/h | 5826m | -3.6m/s | -11.5°C | 79.1% | 500.2hPa | 2.6V | 00:00:00 | 00:00:00 | 00:00:00 | |
| BIOWL1-15 | 2026-09-03 14:12:42 | 51.29673 | 7.91080 | 109° | 117km/h | 5841m | -3.9m/s | -11.7°C | 82.7% | 499.3hPa | 2.6V | 07:41:38 | 03:23:03 | 00:00:00 | i |
| WPPR-10 | 2026-09-03 14:12:42 | 51.29662 | 7.91126 | 112° | 120km/h | 5837m | -3.9m/s | -11.6°C | 79.7% | 499.6hPa | 2.5V | 00:00:00 | 00:00:00 | 00:00:00 | i |
| DM0DOS-11 | 2026-09-03 14:12:41 | 51.29704 | 7.90923 | 111° | 89km/h | 5856m | -3.9m/s | -11.8°C | 84.1% | 498.3hPa | 2.5V | 07:40:57 | 03:22:59 | 00:00:00 | i |
| HSKMA3-T | 2026-09-03 14:12:35 | 51.29713 | 7.90891 | 117° | 88km/h | 5860m | -4m/s | 0°C | 0% | 0hPa | 2.5V | 18:12:15 | 03:22:58 | 00:00:00 | i |
| DL4BBY-15 | 2026-09-03 14:12:35 | 51.29713 | 7.90890 | 117° | 110km/h | 5860m | -3.9m/s | -11.6°C | 0% | 0hPa | 2.6V | 00:00:00 | 00:00:00 | 00:00:00 | i |
| DD1CC3-15 | 2026-09-03 14:12:34 | 51.29713 | 7.90890 | 118° | 88km/h | 5860m | -4.0m/s | -11.9°C | 80.4% | 498.1hPa | 2.6V | 07:41:00 | 00:00:00 | 00:00:00 | |
| AU51GT2 | 2026-09-03 14:12:32 | 51.29768 | 7.90749 | 120° | 119km/h | 5875m | -3.9m/s | -11.9°C | 80.2% | 497.1hPa | 2.6V | 00:00:00 | 00:00:00 | 00:00:00 | |
| DM0DOS-11 | 2026-09-03 14:12:31 | 51.29823 | 7.90531 | 105° | 102km/h | 5895m | -4m/s | -12.1°C | 84.8% | 495.8hPa | 2.6V | 07:41:07 | 03:22:49 | 00:00:00 | i |
| BIOWL1-15 | 2026-09-03 14:12:30 | 51.29783 | 7.90706 | 117° | 122km/h | 5879m | -4.1m/s | -11.9°C | 82.5% | 496.9hPa | 2.6V | 07:41:38 | 03:22:53 | 00:00:00 | i |
| HSKMA3-T | 2026-09-03 14:12:23 | 51.29849 | 7.90428 | 123° | 93km/h | 5907m | -3.9m/s | 0°C | 0% | 0hPa | 2.5V | 18:12:15 | 03:22:46 | 00:00:00 | i |
| DO9LL-15 | 2026-09-03 14:12:22 | 51.29864 | 7.90396 | 127° | 111km/h | 5911m | -3.9m/s | -12.2°C | 85.0% | 494.8hPa | 2.5V | 07:41:00 | 03:22:45 | 00:00:00 | |
| DM0DOS-11 | 2026-09-03 14:12:21 | 51.29940 | 7.90148 | 107° | 99km/h | 5935m | -4.2m/s | -12.3°C | 83.7% | 493.2hPa | 2.5V | 07:41:17 | 03:22:39 | 00:00:00 | i |
| BIOWL1-15 | 2026-09-03 14:12:19 | 51.29911 | 7.90277 | 115° | 124km/h | 5923m | -4m/s | -12.2°C | 81.5% | 493.9hPa | 2.6V | 07:41:38 | 03:22:42 | 00:00:00 | i |
| DL9SK-14 | 2026-09-03 14:12:16 | 51.29940 | 7.90148 | 107° | 99km/h | 5935m | -4.2m/s | -12.3°C | 80.0% | 493.2hPa | 2.6V | 00:00:00 | 00:00:00 | 00:00:00 | |
| DL8DAS-14 | 2026-09-03 14:12:14 | 51.29972 | 7.90046 | 123° | 100km/h | 5947m | -3.7m/s | -12.4°C | 80.4% | 492.4hPa | 2.6V | 00:00:00 | 00:00:00 | 00:00:00 | |
| DO3DL | 2026-09-03 14:12:12 | 51.29972 | 7.90045 | 125° | 100km/h | 5947m | -3.7m/s | -12.4°C | 80.4% | 492.4hPa | 2.6V | 07:41:00 | 00:00:00 | 00:00:00 | |
| DM0DOS-11 | 2026-09-03 14:12:11 | 51.30067 | 7.89745 | 107° | 115km/h | 5975m | -4.3m/s | -12.4°C | 85.3% | 490.7hPa | 2.6V | 07:41:27 | 03:22:29 | 00:00:00 | i |
| BIOWL1-15 | 2026-09-03 14:12:08 | 51.30046 | 7.89838 | 113° | 128km/h | 5966m | -4.2m/s | -12.3°C | 83.4% | 491.3hPa | 2.5V | 07:41:38 | 03:22:31 | 00:00:00 | i |
| DD1CC1-15 | 2026-09-03 14:12:06 | 51.30058 | 7.89790 | 110° | 124km/h | 5970m | -4.4m/s | -12.4°C | 81.3% | 490.9hPa | 2.5V | 07:41:00 | 00:00:00 | 00:00:00 | |
| DL4BBY-15 | 2026-09-03 14:12:05 | 51.30075 | 7.89702 | 108° | 111km/h | 5979m | -4.0m/s | -12.2°C | 0% | 0hPa | 2.5V | 00:00:00 | 00:00:00 | 00:00:00 | |
| DO1YAY-16 | 2026-09-03 14:12:04 | 51.30083 | 7.89664 | 110° | 97km/h | 5983m | -4.0m/s | -12.5°C | 81.4% | 490.1hPa | 2.5V | 00:00:00 | 00:00:00 | 00:00:00 | |
| BIOWL7-15 | 2026-09-03 14:12:03 | 51.30083 | 7.89664 | 111° | 97km/h | 5983m | -4.0m/s | -12.5°C | 81.5% | 490.1hPa | 2.5V | 00:00:00 | 00:00:00 | 00:00:00 | |
| DM0DOS-11 | 2026-09-03 14:12:01 | 51.30188 | 7.89343 | 107° | 117km/h | 6016m | -4.2m/s | -12.5°C | 82.7% | 488hPa | 2.5V | 07:41:37 | 03:22:19 | 00:00:00 | i |
| BIOWL1-15 | 2026-09-03 14:12:00 | 51.30165 | 7.89438 | 116° | 130km/h | 6008m | -4.1m/s | -12.5°C | 81.8% | 488.5hPa | 2.6V | 07:41:38 | 03:22:21 | 00:00:00 | i |
| DL3AQ-11 | 2026-09-03 14:11:57 | 51.30188 | 7.89343 | 107° | 117km/h | 6016m | -4.2m/s | -12.5°C | 78.9% | 488.1hPa | 2.6V | 00:00:00 | 00:00:00 | 00:00:00 | |
| DB0UT-7 | 2026-09-03 14:11:56 | 51.30188 | 7.89343 | 108° | 111km/h | 6016m | -4.1m/s | -12.5°C | 82.7% | 488.0hPa | 2.6V | 07:41:00 | 03:22:19 | 00:00:00 | |
| DJ2KF-10 | 2026-09-03 14:11:54 | 51.30206 | 7.89261 | 113° | 113km/h | 6024m | -4.1m/s | -12.6°C | 81.8% | 487.4hPa | 2.6V | 00:00:00 | 03:22:17 | 00:00:00 | |
| DD1CC3-15 | 2026-09-03 14:11:53 | 51.30206 | 7.89261 | 113° | 99km/h | 6024m | -4.1m/s | -12.6°C | 78.1% | 487.5hPa | 2.6V | 07:42:00 | 00:00:00 | 00:00:00 | |
| DO9LL-15 | 2026-09-03 14:11:52 | 51.30228 | 7.89192 | 124° | 111km/h | 6032m | -4.0m/s | -12.6°C | 81.2% | 486.8hPa | 2.6V | 00:00:00 | 03:22:15 | 00:00:00 | |
| DM0DOS-11 | 2026-09-03 14:11:51 | 51.30317 | 7.88946 | 107° | 119km/h | 6058m | -4.1m/s | -12.8°C | 80.2% | 485.4hPa | 2.6V | 07:41:47 | 03:22:09 | 00:00:00 | i |
| BIOWL1-15 | 2026-09-03 14:11:48 | 51.30293 | 7.89039 | 118° | 130km/h | 6050m | -4.3m/s | -12.7°C | 78.4% | 485.7hPa | 2.5V | 07:42:29 | 03:22:11 | 00:00:00 | i |
| DL9SK-14 | 2026-09-03 14:11:45 | 51.30326 | 7.88903 | 107° | 104km/h | 6062m | -4.5m/s | -12.9°C | 76.7% | 485.1hPa | 2.5V | 00:00:00 | 00:00:00 | 00:00:00 | |
| DL8DAS-14 | 2026-09-03 14:11:43 | 51.30357 | 7.88797 | 125° | 99km/h | 6075m | -4.1m/s | -13.0°C | 76.9% | 484.4hPa | 2.5V | 00:00:00 | 00:00:00 | 00:00:00 | |
| DM0DOS-11 | 2026-09-03 14:11:41 | 51.30441 | 7.88545 | 107° | 108km/h | 6101m | -4.2m/s | -13.1°C | 82.2% | 482.6hPa | 2.5V | 07:41:57 | 03:21:59 | 00:00:00 | |
| BIOWL1-15 | 2026-09-03 14:11:37 | 51.30432 | 7.88589 | 109° | 119km/h | 6097m | -4.2m/s | -13.1°C | 80.2% | 482.8hPa | 2.6V | 07:42:29 | 03:22:00 | 00:00:00 | i |
| HSKMA3-T | 2026-09-03 14:11:36 | 51.30441 | 7.88545 | 108° | 108km/h | 6101m | -4.2m/s | 0°C | 0% | 0hPa | 2.5V | 18:12:15 | 03:21:59 | 00:00:00 | |
| DL4BBY-15 | 2026-09-03 14:11:35 | 51.30449 | 7.88506 | 111° | 113km/h | 6105m | -4.2m/s | -12.8°C | 0% | 0hPa | 2.6V | 00:00:00 | 00:00:00 | 00:00:00 | |
| DD1CC3-15 | 2026-09-03 14:11:32 | 51.30471 | 7.88437 | 123° | 97km/h | 6113m | -4.2m/s | -13.2°C | 78.6% | 481.9hPa | 2.6V | 07:42:00 | 00:00:00 | 00:00:00 | |
| DM0DOS-11 | 2026-09-03 14:11:31 | 51.30577 | 7.88146 | 109° | 117km/h | 6143m | -4m/s | -13.2°C | 79.9% | 479.9hPa | 2.6V | 07:42:07 | 03:21:49 | 00:00:00 | i |
| BIOWL1-15 | 2026-09-03 14:11:28 | 51.30577 | 7.88146 | 110° | 117km/h | 6143m | -4m/s | -13.2°C | 79.1% | 479.9hPa | 2.6V | 07:42:29 | 03:21:49 | 00:00:00 | i |
| DB0UT-7 | 2026-09-03 14:11:26 | 51.30577 | 7.88145 | 110° | 113km/h | 6143m | -4.0m/s | -13.2°C | 79.9% | 479.8hPa | 2.6V | 00:00:00 | 00:00:00 | 00:00:00 | |
| BIOWL9-15 | 2026-09-03 14:11:25 | 51.30586 | 7.88103 | 108° | 108km/h | 6147m | -4.2m/s | -13.2°C | 75.9% | 479.8hPa | 2.5V | 00:00:00 | 00:00:00 | 00:00:00 | |
| DJ2KF-10 | 2026-09-03 14:11:24 | 51.30595 | 7.88063 | 112° | 113km/h | 6151m | -4.4m/s | -13.2°C | 79.3% | 479.2hPa | 2.5V | 00:00:00 | 03:21:47 | 00:00:00 | |
| DO9LL-15 | 2026-09-03 14:11:22 | 51.30617 | 7.87993 | 123° | 115km/h | 6160m | -4.2m/s | -13.3°C | 79.2% | 478.8hPa | 2.5V | 00:00:00 | 03:21:45 | 00:00:00 | |
| DM0DOS-11 | 2026-09-03 14:11:21 | 51.30713 | 7.87751 | 113° | 128km/h | 6185m | -4.3m/s | -13.4°C | 79.4% | 477.2hPa | 2.5V | 07:42:17 | 03:21:39 | 00:00:00 | i |
| BIOWL1-15 | 2026-09-03 14:11:16 | 51.30713 | 7.87751 | 113° | 128km/h | 6185m | -4.4m/s | -13.5°C | 78.7% | 477.2hPa | 2.5V | 07:42:29 | 03:21:39 | 00:00:00 | i |
| BIOWL7-15 | 2026-09-03 14:11:14 | 51.30734 | 7.87658 | 109° | 113km/h | 6194m | -4.6m/s | -13.5°C | 75.0% | 476.7hPa | 2.6V | 00:00:00 | 00:00:00 | 00:00:00 | |
| DO3DL | 2026-09-03 14:11:13 | 51.30734 | 7.87658 | 109° | 113km/h | 6194m | -4.6m/s | -13.5°C | 75.0% | 476.7hPa | 2.6V | 07:42:00 | 00:00:00 | 00:00:00 | |
| DM0DOS-11 | 2026-09-03 14:11:11 | 51.30847 | 7.87347 | 116° | 130km/h | 6228m | -4.4m/s | -13.7°C | 81.6% | 474.5hPa | 2.6V | 07:42:27 | 03:21:29 | 00:00:00 | i |
| BIOWL1-15 | 2026-09-03 14:11:05 | 51.30860 | 7.87300 | 112° | 126km/h | 6232m | -4m/s | -13.7°C | 79.6% | 474.2hPa | 2.6V | 07:42:29 | 03:21:28 | 00:00:00 | i |
| DL4BBY-15 | 2026-09-03 14:11:05 | 51.30860 | 7.87300 | 112° | 115km/h | 6232m | -4.0m/s | -13.4°C | 0% | 0hPa | 2.5V | 00:00:00 | 00:00:00 | 00:00:00 | i |
| DO1YAY-16 | 2026-09-03 14:11:02 | 51.30889 | 7.87170 | 110° | 100km/h | 6245m | -4.5m/s | -13.8°C | 79.6% | 473.6hPa | 2.5V | 00:00:00 | 00:00:00 | 00:00:00 | |
| DM0DOS-11 | 2026-09-03 14:11:01 | 51.30977 | 7.86951 | 123° | 128km/h | 6272m | -4.7m/s | -13.9°C | 84.1% | 471.8hPa | 2.5V | 07:42:37 | 03:21:19 | 00:00:00 | i |
| BIOWL1-15 | 2026-09-03 14:10:56 | 51.31008 | 7.86858 | 114° | 130km/h | 6281m | -4.5m/s | -14°C | 82.5% | 471.4hPa | 2.6V | 07:43:20 | 03:21:17 | 00:00:00 | i |
| DB0UT-7 | 2026-09-03 14:10:56 | 51.30977 | 7.86951 | 124° | 117km/h | 6272m | -4.6m/s | -13.9°C | 84.1% | 471.7hPa | 2.6V | 00:00:00 | 03:21:19 | 00:00:00 | i |
| DJ2KF-10 | 2026-09-03 14:10:54 | 51.31008 | 7.86858 | 114° | 117km/h | 6281m | -4.4m/s | -13.9°C | 84.3% | 471.4hPa | 2.6V | 00:00:00 | 03:21:17 | 00:00:00 | |
| DO3DL | 2026-09-03 14:10:53 | 51.31008 | 7.86858 | 114° | 130km/h | 6281m | -4.5m/s | -14.0°C | 80.3% | 471.4hPa | 2.6V | 07:43:00 | 00:00:00 | 00:00:00 | |
| DO9LL-15 | 2026-09-03 14:10:52 | 51.31030 | 7.86768 | 109° | 120km/h | 6290m | -4.6m/s | -14.0°C | 83.8% | 470.7hPa | 2.6V | 00:00:00 | 03:21:15 | 00:00:00 | |
| DM0DOS-11 | 2026-09-03 14:10:51 | 51.31114 | 7.86545 | 120° | 130km/h | 6317m | -4.4m/s | -14.2°C | 83.7% | 469hPa | 2.6V | 07:42:47 | 03:21:09 | 00:00:00 | i |
| BIOWL1-15 | 2026-09-03 14:10:46 | 51.31142 | 7.86451 | 111° | 124km/h | 6325m | -4.5m/s | -14.3°C | 79.8% | 468.7hPa | 2.5V | 07:43:20 | 03:21:07 | 00:00:00 | i |
| DD1CC1-15 | 2026-09-03 14:10:44 | 51.31129 | 7.86499 | 116° | 131km/h | 6321m | -4.2m/s | -14.3°C | 79.4% | 468.8hPa | 2.6V | 07:43:00 | 00:00:00 | 00:00:00 | |
| DL9SK-14 | 2026-09-03 14:10:43 | 51.31152 | 7.86406 | 109° | 113km/h | 6329m | -4.6m/s | -14.3°C | 78.9% | 468.3hPa | 2.6V | 00:00:00 | 00:00:00 | 00:00:00 | |
| DM0DOS-11 | 2026-09-03 14:10:41 | 51.31253 | 7.86135 | 122° | 131km/h | 6359m | -4.3m/s | -14.4°C | 83.3% | 466.7hPa | 2.6V | 07:42:57 | 03:20:59 | 00:00:00 | i |
| HSKMA3-T | 2026-09-03 14:10:41 | 51.31172 | 7.86327 | 117° | 100km/h | 6338m | -4.3m/s | 0°C | 0% | 0hPa | 2.6V | 18:12:15 | 03:21:04 | 00:00:00 | i |
| BIOWL1-15 | 2026-09-03 14:10:33 | 51.31299 | 7.85992 | 112° | 128km/h | 6372m | -4.2m/s | -14.4°C | 79.7% | 465.6hPa | 2.6V | 07:43:20 | 03:20:56 | 00:00:00 | i |
| DM0DOS-11 | 2026-09-03 14:10:31 | 51.31382 | 7.85714 | 126° | 120km/h | 6403m | -4.2m/s | -14.6°C | 79.7% | 463.8hPa | 2.6V | 07:43:07 | 03:20:49 | 00:00:00 | i |
| HSKMA3-T | 2026-09-03 14:10:28 | 51.31351 | 7.85787 | 121° | 100km/h | 6394m | -4.7m/s | 0°C | 0% | 0hPa | 2.6V | 18:12:15 | 03:20:51 | 00:00:00 | i |
| DL1XH-west | 2026-09-03 14:10:25 | 51.31400 | 7.85673 | 124° | 130km/h | 6407m | -4.4m/s | -14.5°C | 76.4% | 463.6hPa | 2.5V | 07:43:20 | 03:20:48 | 00:00:00 | i |
| BIOWL1-15 | 2026-09-03 14:10:25 | 51.31433 | 7.85579 | 115° | 133km/h | 6415m | -4.3m/s | -14.6°C | 78.4% | 463hPa | 2.6V | 07:43:20 | 03:20:46 | 00:00:00 | i |
| DJ2KF-10 | 2026-09-03 14:10:24 | 51.31417 | 7.85627 | 120° | 119km/h | 6411m | -4.4m/s | -14.4°C | 78.6% | 463.2hPa | 2.5V | 00:00:00 | 03:20:47 | 00:00:00 | |
| BIOWL9-15 | 2026-09-03 14:10:23 | 51.31433 | 7.85579 | 115° | 133km/h | 6415m | -4.3m/s | -14.6°C | 76.4% | 463.0hPa | 2.6V | 00:00:00 | 00:00:00 | 00:00:00 | |
| DO9LL-15 | 2026-09-03 14:10:22 | 51.31446 | 7.85530 | 112° | 120km/h | 6420m | -4.1m/s | -14.5°C | 80.3% | 462.7hPa | 2.6V | 00:00:00 | 03:20:45 | 00:00:00 | |
| DM0DOS-11 | 2026-09-03 14:10:21 | 51.31513 | 7.85285 | 124° | 110km/h | 6445m | -4.1m/s | -14.7°C | 78.5% | 461.1hPa | 2.6V | 07:43:17 | 03:20:39 | 00:00:00 | i |
| DL1XH-west | 2026-09-03 14:10:14 | 51.31547 | 7.85207 | 124° | 128km/h | 6454m | -4.7m/s | -14.7°C | 74.7% | 460.7hPa | 2.6V | 07:43:20 | 03:20:37 | 00:00:00 | i |
| BIOWL1-15 | 2026-09-03 14:10:12 | 51.31581 | 7.85114 | 115° | 135km/h | 6463m | -4.3m/s | -14.7°C | 76.4% | 460hPa | 2.5V | 07:44:11 | 03:20:35 | 00:00:00 | i |
| DM0DOS-11 | 2026-09-03 14:10:11 | 51.31645 | 7.84854 | 120° | 104km/h | 6489m | -4.5m/s | -14.9°C | 80% | 458.4hPa | 2.5V | 07:43:27 | 03:20:29 | 00:00:00 | i |
| HSKMA3-T | 2026-09-03 14:10:06 | 51.31645 | 7.84854 | 120° | 104km/h | 6489m | -4.5m/s | 0°C | 0% | 0hPa | 2.5V | 18:12:15 | 03:20:29 | 00:00:00 | i |
| BIOWL1-15 | 2026-09-03 14:10:03 | 51.31727 | 7.84645 | 117° | 137km/h | 6511m | -4.5m/s | -15°C | 78.4% | 457.2hPa | 2.6V | 07:44:11 | 03:20:24 | 00:00:00 | i |
| DL1XH-west | 2026-09-03 14:10:03 | 51.31693 | 7.84738 | 124° | 128km/h | 6503m | -4.4m/s | -15°C | 78% | 457.7hPa | 2.6V | 07:44:11 | 03:20:26 | 00:00:00 | i |
| DO1YAY-16 | 2026-09-03 14:10:00 | 51.31753 | 7.84545 | 108° | 128km/h | 6520m | -4.4m/s | -15.1°C | 76.3% | 456.6hPa | 2.6V | 00:00:00 | 00:00:00 | 00:00:00 | |
| DL3AQ-11 | 2026-09-03 14:09:57 | 51.31781 | 7.84412 | 111° | 102km/h | 6534m | -4.6m/s | -15.1°C | 75.7% | 455.8hPa | 2.6V | 00:00:00 | 00:00:00 | 00:00:00 | |
| AU51GT2 | 2026-09-03 14:09:56 | 51.31781 | 7.84412 | 111° | 102km/h | 6534m | -4.6m/s | -15.1°C | 75.7% | 455.8hPa | 2.6V | 00:00:00 | 00:00:00 | 00:00:00 | |
| BIOWL9-15 | 2026-09-03 14:09:52 | 51.31840 | 7.84259 | 124° | 130km/h | 6552m | -4.8m/s | -15.3°C | 76.7% | 454.8hPa | 2.6V | 00:00:00 | 00:00:00 | 00:00:00 | i |
| DL1XH-west | 2026-09-03 14:09:52 | 51.31840 | 7.84259 | 124° | 130km/h | 6552m | -4.8m/s | -15.3°C | 77.9% | 454.8hPa | 2.6V | 07:44:11 | 03:20:15 | 00:00:00 | i |
| DM0DOS-11 | 2026-09-03 14:09:51 | 51.31918 | 7.83980 | 113° | 102km/h | 6578m | -4.5m/s | -15.3°C | 78.6% | 453.2hPa | 2.6V | 07:43:47 | 03:20:09 | 00:00:00 | i |
| BIOWL1-15 | 2026-09-03 14:09:51 | 51.31858 | 7.84214 | 120° | 137km/h | 6556m | -4.8m/s | -15.2°C | 77.9% | 454.5hPa | 2.6V | 07:44:11 | 03:20:14 | 00:00:00 | i |
| DL3AQ-11 | 2026-09-03 14:09:46 | 51.31930 | 7.83944 | 120° | 102km/h | 6583m | -4.6m/s | -15.4°C | 73.9% | 453.0hPa | 2.5V | 00:00:00 | 00:00:00 | 00:00:00 | |
| DO2KSM | 2026-09-03 14:09:45 | 51.31918 | 7.83980 | 115° | 102km/h | 6578m | -4.6m/s | -15.3°C | 74.6% | 453.2hPa | 2.5V | 07:44:00 | 00:00:00 | 00:00:00 | |
| DD1CC1-15 | 2026-09-03 14:09:43 | 51.31945 | 7.83907 | 127° | 111km/h | 6587m | -4.6m/s | -15.4°C | 72.9% | 452.5hPa | 2.5V | 07:44:00 | 00:00:00 | 00:00:00 | |
| DL8DAS-15 | 2026-09-03 14:09:42 | 51.31962 | 7.83869 | 128° | 122km/h | 6592m | -4.5m/s | -15.4°C | 72.9% | 452.3hPa | 2.5V | 00:00:00 | 00:00:00 | 00:00:00 | |
| DM0DOS-11 | 2026-09-03 14:09:41 | 51.32057 | 7.83549 | 113° | 102km/h | 6623m | -4.7m/s | -15.6°C | 72.9% | 450.6hPa | 2.5V | 07:43:57 | 03:19:59 | 00:00:00 | i |
| BIOWL1-15 | 2026-09-03 14:09:40 | 51.32015 | 7.83731 | 115° | 137km/h | 6605m | -4.4m/s | -15.4°C | 72.7% | 451.6hPa | 2.6V | 07:44:11 | 03:20:03 | 00:00:00 | i |
| DB0ND-19 | 2026-09-03 14:09:38 | 51.32038 | 7.83633 | 108° | 120km/h | 6614m | -4.5m/s | -15.5°C | 69.0% | 450.9hPa | 2.6V | 00:00:00 | 00:00:00 | 00:00:00 | |
| DD1CC8 | 2026-09-03 14:09:36 | 51.32057 | 7.83549 | 113° | 102km/h | 6623m | -4.7m/s | -15.6°C | 69.1% | 450.6hPa | 2.6V | 00:00:00 | 00:00:00 | 00:00:00 | |
| DL4BBY-15 | 2026-09-03 14:09:35 | 51.32069 | 7.83512 | 122° | 120km/h | 6628m | -4.4m/s | -15.3°C | 0% | 0hPa | 2.6V | 00:00:00 | 00:00:00 | 00:00:00 | |
| DO3DL | 2026-09-03 14:09:34 | 51.32069 | 7.83512 | 122° | 102km/h | 6628m | -4.4m/s | -15.6°C | 69.2% | 450.1hPa | 2.6V | 07:44:00 | 00:00:00 | 00:00:00 | |
| DM0DOS-11 | 2026-09-03 14:09:31 | 51.32198 | 7.83127 | 117° | 102km/h | 6666m | -4.3m/s | -15.8°C | 66.3% | 447.9hPa | 2.6V | 07:44:07 | 03:19:49 | 00:00:00 | i |
| BIOWL1-15 | 2026-09-03 14:09:29 | 51.32166 | 7.83250 | 111° | 124km/h | 6653m | -4.1m/s | -15.8°C | 70.9% | 448.6hPa | 2.5V | 07:44:11 | 03:19:52 | 00:00:00 | i |
| DJ2DS-15 | 2026-09-03 14:09:28 | 51.32177 | 7.83206 | 110° | 111km/h | 6657m | -4.1m/s | -15.8°C | 65.5% | 448.4hPa | 2.6V | 00:00:00 | 00:00:00 | 00:00:00 | |
| DO3DL | 2026-09-03 14:09:27 | 51.32177 | 7.83206 | 112° | 111km/h | 6658m | -4.1m/s | -15.8°C | 65.5% | 448.4hPa | 2.6V | 07:44:00 | 00:00:00 | 00:00:00 | |
| DB0UT-7 | 2026-09-03 14:09:25 | 51.32212 | 7.83092 | 124° | 122km/h | 6670m | -4.4m/s | -15.8°C | 65.2% | 447.6hPa | 2.6V | 00:00:00 | 00:00:00 | 00:00:00 | |
| DJ2KF-10 | 2026-09-03 14:09:24 | 51.32227 | 7.83056 | 127° | 122km/h | 6675m | -4.4m/s | -15.8°C | 64.6% | 447.3hPa | 2.6V | 00:00:00 | 03:19:47 | 00:00:00 | |
| DD1CC1-15 | 2026-09-03 14:09:22 | 51.32245 | 7.83018 | 128° | 122km/h | 6679m | -4.2m/s | -15.9°C | 60.5% | 447.0hPa | 2.6V | 07:44:00 | 00:00:00 | 00:00:00 | |
| DM0DOS-11 | 2026-09-03 14:09:21 | 51.32348 | 7.82701 | 114° | 106km/h | 6709m | -4m/s | -16.1°C | 64.4% | 445.3hPa | 2.6V | 07:44:17 | 03:19:39 | 00:00:00 | i |
| BIOWL1-15 | 2026-09-03 14:09:18 | 51.32327 | 7.82786 | 111° | 124km/h | 6701m | -4.2m/s | -16°C | 64.6% | 445.8hPa | 2.5V | 07:45:02 | 03:19:41 | 00:00:00 | |
| DL1XH-west | 2026-09-03 14:09:13 | 51.32388 | 7.82593 | 127° | 110km/h | 6721m | -4.6m/s | -16.3°C | 64.8% | 444.7hPa | 2.6V | 07:45:53 | 03:19:36 | 00:00:00 | i |
| DM0DOS-11 | 2026-09-03 14:09:11 | 51.32494 | 7.82279 | 111° | 110km/h | 6752m | -4.2m/s | -16.4°C | 64.5% | 442.8hPa | 2.5V | 07:44:27 | 03:19:29 | 00:00:00 | i |
| BIOWL1-15 | 2026-09-03 14:09:07 | 51.32483 | 7.82322 | 110° | 119km/h | 6748m | -4.4m/s | -16.4°C | 64.6% | 443.1hPa | 2.6V | 07:45:02 | 03:19:30 | 00:00:00 | i |
| DL4BBY-15 | 2026-09-03 14:09:05 | 51.32505 | 7.82240 | 117° | 122km/h | 6757m | -4.1m/s | -16.2°C | 0% | 0hPa | 2.6V | 00:00:00 | 00:00:00 | 00:00:00 | |
| WPPR-10 | 2026-09-03 14:09:04 | 51.32518 | 7.82203 | 122° | 106km/h | 6760m | -4.0m/s | -16.6°C | 61.2% | 442.2hPa | 2.6V | 00:00:00 | 00:00:00 | 00:00:00 | |
| DD1CC1-15 | 2026-09-03 14:09:01 | 51.32551 | 7.82128 | 128° | 122km/h | 6769m | -4.3m/s | -16.6°C | 61.4% | 441.8hPa | 2.6V | 07:45:00 | 00:00:00 | 00:00:00 | |
| DM0DOS-11 | 2026-09-03 14:08:59 | 51.32643 | 7.81844 | 108° | 120km/h | 6794m | -4.6m/s | -16.8°C | 64.3% | 440.3hPa | 2.6V | 07:44:37 | 03:19:19 | 00:00:00 | i |
| DL1XH-west | 2026-09-03 14:08:59 | 51.32605 | 7.81993 | 117° | 139km/h | 6781m | -4.2m/s | -16.7°C | 64.1% | 441hPa | 2.5V | 07:45:53 | 03:19:22 | 00:00:00 | i |
| BIOWL1-15 | 2026-09-03 14:08:57 | 51.32632 | 7.81892 | 110° | 130km/h | 6790m | -4.4m/s | -16.7°C | 64% | 440.5hPa | 2.6V | 07:45:02 | 03:19:20 | 00:00:00 | i |
| AU51GT2 | 2026-09-03 14:08:54 | 51.32663 | 7.81761 | 115° | 100km/h | 6803m | -4.3m/s | -16.8°C | 60.4% | 439.6hPa | 2.6V | 00:00:00 | 00:00:00 | 00:00:00 | |
| DJ2DS-15 | 2026-09-03 14:08:52 | 51.32708 | 7.81650 | 125° | 124km/h | 6816m | -4.3m/s | -16.9°C | 60.5% | 439.0hPa | 2.6V | 00:00:00 | 00:00:00 | 00:00:00 | |
| BIOWL9-15 | 2026-09-03 14:08:50 | 51.32744 | 7.81558 | 117° | 139km/h | 6825m | -4.0m/s | -16.9°C | 60.3% | 438.4hPa | 2.6V | 00:00:00 | 00:00:00 | 00:00:00 | |
| DL3AQ-11 | 2026-09-03 14:08:49 | 51.32744 | 7.81558 | 117° | 139km/h | 6825m | -4.0m/s | -16.9°C | 60.3% | 438.4hPa | 2.6V | 00:00:00 | 00:00:00 | 00:00:00 | |
| DM0DOS-11 | 2026-09-03 14:08:48 | 51.32780 | 7.81411 | 108° | 117km/h | 6837m | -4.4m/s | -17°C | 62.8% | 437.8hPa | 2.6V | 07:44:47 | 03:19:09 | 00:00:00 | i |
| BIOWL1-15 | 2026-09-03 14:08:46 | 51.32780 | 7.81411 | 109° | 117km/h | 6837m | -4.4m/s | -17°C | 62.8% | 437.8hPa | 2.6V | 07:45:02 | 03:19:09 | 00:00:00 | i |
| DL1XH-west | 2026-09-03 14:08:43 | 51.32815 | 7.81295 | 125° | 108km/h | 6850m | -4.1m/s | -17.1°C | 61.8% | 437.1hPa | 2.6V | 07:45:53 | 03:19:06 | 00:00:00 | i |
| DM0DOS-11 | 2026-09-03 14:08:41 | 51.32922 | 7.80975 | 108° | 120km/h | 6880m | -4.7m/s | -17.3°C | 60.9% | 435.4hPa | 2.5V | 07:44:57 | 03:18:59 | 00:00:00 | i |
| BIOWL1-15 | 2026-09-03 14:08:36 | 51.32922 | 7.80975 | 108° | 120km/h | 6880m | -4.7m/s | -17.3°C | 61% | 435.4hPa | 2.5V | 07:45:02 | 03:18:59 | 00:00:00 | i |
| DL4BBY-15 | 2026-09-03 14:08:35 | 51.32932 | 7.80931 | 111° | 119km/h | 6885m | -4.1m/s | -17.0°C | 0% | 0hPa | 2.6V | 00:00:00 | 00:00:00 | 00:00:00 | |
| DD1CC8 | 2026-09-03 14:08:34 | 51.32942 | 7.80893 | 116° | 99km/h | 6888m | -3.8m/s | -17.4°C | 57.1% | 434.7hPa | 2.6V | 00:00:00 | 00:00:00 | 00:00:00 | |
| WPPR-10 | 2026-09-03 14:08:33 | 51.32954 | 7.80857 | 123° | 102km/h | 6892m | -3.9m/s | -17.4°C | 56.8% | 434.6hPa | 2.6V | 00:00:00 | 00:00:00 | 00:00:00 | |
| DM0DOS-11 | 2026-09-03 14:08:29 | 51.33057 | 7.80545 | 107° | 120km/h | 6920m | -4.8m/s | -17.5°C | 57.4% | 433hPa | 2.6V | 07:45:07 | 03:18:49 | 00:00:00 | i |
| BIOWL1-15 | 2026-09-03 14:08:25 | 51.33066 | 7.80501 | 108° | 110km/h | 6925m | -4.6m/s | -17.5°C | 57.4% | 432.8hPa | 2.6V | 07:45:53 | 03:18:48 | 00:00:00 | i |
| BIOWL1-15 | 2026-09-03 14:08:19 | 51.33202 | 7.80083 | 115° | 99km/h | 6966m | -4m/s | -17.8°C | 56.3% | 430.4hPa | 2.6V | 07:45:53 | 03:18:38 | 00:00:00 | i |
| DM0DOS-11 | 2026-09-03 14:08:17 | 51.33192 | 7.80121 | 109° | 108km/h | 6962m | -3.9m/s | -17.7°C | 55.8% | 430.5hPa | 2.6V | 07:45:17 | 03:18:39 | 00:00:00 | i |
| DL1XH-west | 2026-09-03 14:08:13 | 51.33229 | 7.80013 | 127° | 110km/h | 6974m | -4.2m/s | -17.9°C | 55.5% | 429.9hPa | 2.5V | 07:45:53 | 03:18:36 | 00:00:00 | i |
| BIOWL1-15 | 2026-09-03 14:08:04 | 51.33356 | 7.79635 | 124° | 102km/h | 7009m | -4m/s | -18.2°C | 55.8% | 427.8hPa | 2.6V | 07:45:53 | 03:18:27 | 00:00:00 | i |
| DL1XH-west | 2026-09-03 14:08:02 | 51.33388 | 7.79563 | 127° | 119km/h | 7017m | -4.1m/s | -18.2°C | 55.5% | 427.3hPa | 2.6V | 07:45:53 | 03:18:25 | 00:00:00 | i |
| DO3DL | 2026-09-03 14:08:01 | 51.33388 | 7.79563 | 128° | 119km/h | 7018m | -4.1m/s | -18.2°C | 52.7% | 427.3hPa | 2.6V | 07:45:00 | 00:00:00 | 00:00:00 | |
| DD1CC1-15 | 2026-09-03 14:07:59 | 51.33424 | 7.79477 | 122° | 133km/h | 7025m | -3.7m/s | -18.3°C | 52.4% | 426.9hPa | 2.6V | 07:45:00 | 00:00:00 | 00:00:00 | |
| DM0DOS-11 | 2026-09-03 14:07:58 | 51.33498 | 7.79212 | 119° | 95km/h | 7049m | -4.1m/s | -18.5°C | 54.5% | 425.6hPa | 2.6V | 07:45:39 | 03:18:17 | 00:00:00 | i |
| BIOWL1-15 | 2026-09-03 14:07:53 | 51.33511 | 7.79179 | 126° | 102km/h | 7053m | -4m/s | -18.5°C | 53.4% | 425.4hPa | 2.6V | 07:45:53 | 03:18:16 | 00:00:00 | i |
| DL1XH-west | 2026-09-03 14:07:51 | 51.33545 | 7.79104 | 124° | 126km/h | 7061m | -3.7m/s | -18.5°C | 52.6% | 424.7hPa | 2.6V | 07:45:53 | 03:18:14 | 00:00:00 | i |
| BIOWL1-15 | 2026-09-03 14:07:49 | 51.33641 | 7.78767 | 122° | 95km/h | 7093m | -4.4m/s | -18.7°C | 53.1% | 423.2hPa | 2.5V | 07:45:53 | 03:18:06 | 00:00:00 | i |
| BIOWL9-15 | 2026-09-03 14:07:48 | 51.33602 | 7.78919 | 109° | 117km/h | 7077m | -3.8m/s | -18.6°C | 49.6% | 424.1hPa | 2.6V | 00:00:00 | 00:00:00 | 00:00:00 | |
| DL3AQ-11 | 2026-09-03 14:07:46 | 51.33620 | 7.78836 | 110° | 99km/h | 7084m | -4.0m/s | -18.7°C | 49.3% | 423.5hPa | 2.6V | 00:00:00 | 00:00:00 | 00:00:00 | |
| DM0DOS-11 | 2026-09-03 14:07:45 | 51.33690 | 7.78658 | 123° | 128km/h | 7105m | -4m/s | -18.8°C | 52.7% | 422.4hPa | 2.6V | 07:45:53 | 03:18:03 | 00:00:00 | i |
| DL1XH-west | 2026-09-03 14:07:40 | 51.33690 | 7.78659 | 123° | 128km/h | 7105m | -4m/s | -18.8°C | 52.6% | 422.4hPa | 2.6V | 07:45:53 | 03:18:03 | 00:00:00 | i |
| DJ2DS-15 | 2026-09-03 14:07:40 | 51.33690 | 7.78659 | 123° | 128km/h | 7105m | -4.0m/s | -18.8°C | 49.4% | 422.4hPa | 2.6V | 00:00:00 | 00:00:00 | 00:00:00 | i |
| HTAHTA | 2026-09-03 14:07:39 | 51.33707 | 7.78613 | 117° | 131km/h | 7108m | -3.9m/s | -18.8°C | 49.5% | 422.2hPa | 2.6V | 00:00:00 | 00:00:00 | 00:00:00 | |
| DD1CC1-15 | 2026-09-03 14:07:38 | 51.33706 | 7.78613 | 119° | 131km/h | 7109m | -3.9m/s | -18.8°C | 49.5% | 422.2hPa | 2.6V | 07:46:00 | 00:00:00 | 00:00:00 | |
| DL9SK-14 | 2026-09-03 14:07:37 | 51.33740 | 7.78478 | 109° | 102km/h | 7120m | -3.7m/s | -18.9°C | 49.8% | 421.6hPa | 2.6V | 00:00:00 | 00:00:00 | 00:00:00 | |
| DB0NH | 2026-09-03 14:07:36 | 51.33740 | 7.78478 | 110° | 113km/h | 7120m | -3.7m/s | -18.9°C | 53.1% | 421.6hPa | 2.6V | 00:00:00 | 03:17:59 | 00:00:00 | |
| DM0DOS-11 | 2026-09-03 14:07:35 | 51.33826 | 7.78257 | 122° | 130km/h | 7142m | -4m/s | -19.1°C | 53.4% | 420.3hPa | 2.6V | 07:46:03 | 03:17:53 | 00:00:00 | i |
| BIOWL1-15 | 2026-09-03 14:07:33 | 51.33775 | 7.78373 | 126° | 104km/h | 7131m | -3.7m/s | -19.1°C | 53.1% | 420.9hPa | 2.5V | 07:46:44 | 03:17:56 | 00:00:00 | i |
| DL1XH-west | 2026-09-03 14:07:30 | 51.33826 | 7.78257 | 122° | 130km/h | 7143m | -4m/s | -19.1°C | 53% | 420.3hPa | 2.6V | 07:46:44 | 03:17:53 | 00:00:00 | i |
| DL3AQ-11 | 2026-09-03 14:07:30 | 51.33843 | 7.78211 | 117° | 131km/h | 7146m | -4.0m/s | -19.1°C | 50.1% | 420.1hPa | 2.6V | 00:00:00 | 00:00:00 | 00:00:00 | i |
| DO3DL | 2026-09-03 14:07:27 | 51.33857 | 7.78163 | 114° | 131km/h | 7151m | -4.2m/s | -19.2°C | 50.3% | 419.9hPa | 2.6V | 07:46:00 | 00:00:00 | 00:00:00 | |
| DD1CC3-15 | 2026-09-03 14:07:26 | 51.33869 | 7.78115 | 111° | 124km/h | 7155m | -4.3m/s | -19.2°C | 50.5% | 419.6hPa | 2.6V | 07:46:00 | 00:00:00 | 00:00:00 | |
| DM0DOS-11 | 2026-09-03 14:07:25 | 51.33960 | 7.77847 | 123° | 130km/h | 7182m | -3.9m/s | -19.4°C | 54% | 418.1hPa | 2.6V | 07:46:13 | 03:17:43 | 00:00:00 | i |
| BIOWL1-15 | 2026-09-03 14:07:24 | 51.33924 | 7.77925 | 127° | 108km/h | 7174m | -3.9m/s | -19.5°C | 53.3% | 418.4hPa | 2.5V | 07:46:44 | 03:17:45 | 00:00:00 | i |
| DL1XH-west | 2026-09-03 14:07:20 | 51.33960 | 7.77847 | 123° | 130km/h | 7182m | -3.9m/s | -19.5°C | 53.2% | 418.1hPa | 2.6V | 07:46:44 | 03:17:43 | 00:00:00 | i |
| DO9LL-15 | 2026-09-03 14:07:20 | 51.33960 | 7.77847 | 124° | 113km/h | 7182m | -3.8m/s | -19.4°C | 54.0% | 418.0hPa | 2.5V | 00:00:00 | 03:17:43 | 00:00:00 | i |
| DD1CC1-15 | 2026-09-03 14:07:18 | 51.33976 | 7.77801 | 119° | 133km/h | 7186m | -3.9m/s | -19.5°C | 50.7% | 417.8hPa | 2.5V | 07:46:00 | 00:00:00 | 00:00:00 | |
| BIOWL9-15 | 2026-09-03 14:07:17 | 51.34012 | 7.77665 | 110° | 106km/h | 7198m | -3.8m/s | -19.6°C | 50.1% | 417.0hPa | 2.5V | 00:00:00 | 00:00:00 | 00:00:00 | |
| DL3AQ-11 | 2026-09-03 14:07:16 | 51.34012 | 7.77665 | 110° | 106km/h | 7198m | -3.8m/s | -19.6°C | 50.1% | 417.0hPa | 2.5V | 00:00:00 | 00:00:00 | 00:00:00 | |
| DM0DOS-11 | 2026-09-03 14:07:15 | 51.34099 | 7.77452 | 125° | 126km/h | 7221m | -4m/s | -19.6°C | 51.9% | 415.7hPa | 2.5V | 07:46:23 | 03:17:33 | 00:00:00 | i |
| BIOWL1-15 | 2026-09-03 14:07:14 | 51.34062 | 7.77526 | 129° | 108km/h | 7212m | -4m/s | -19.7°C | 52.3% | 416.4hPa | 2.6V | 07:46:44 | 03:17:35 | 00:00:00 | i |
| DL1XH-west | 2026-09-03 14:07:09 | 51.34117 | 7.77409 | 122° | 131km/h | 7224m | -3.8m/s | -19.7°C | 51.7% | 415.7hPa | 2.6V | 07:46:44 | 03:17:32 | 00:00:00 | i |
| DB0NH | 2026-09-03 14:07:06 | 51.34158 | 7.77272 | 112° | 113km/h | 7236m | -3.8m/s | -19.7°C | 51.9% | 414.9hPa | 2.5V | 00:00:00 | 03:17:29 | 00:00:00 | |
| DM0DOS-11 | 2026-09-03 14:07:05 | 51.34241 | 7.77060 | 129° | 120km/h | 7259m | -3.9m/s | -19.9°C | 51.6% | 413.6hPa | 2.5V | 07:46:33 | 03:17:23 | 00:00:00 | i |
| BIOWL1-15 | 2026-09-03 14:07:01 | 51.34222 | 7.77096 | 130° | 110km/h | 7255m | -4.2m/s | -19.9°C | 51.5% | 413.9hPa | 2.6V | 07:46:44 | 03:17:24 | 00:00:00 | i |
| DL1XH-west | 2026-09-03 14:06:58 | 51.34279 | 7.76977 | 123° | 133km/h | 7267m | -4.1m/s | -20°C | 51.8% | 413.2hPa | 2.6V | 07:46:44 | 03:17:21 | 00:00:00 | i |
| BIOWL1-15 | 2026-09-03 14:06:54 | 51.34388 | 7.76663 | 132° | 115km/h | 7300m | -3.9m/s | -20.3°C | 52.1% | 411.3hPa | 2.6V | 07:46:44 | 03:17:13 | 00:00:00 | i |
| DJ2KF-10 | 2026-09-03 14:06:54 | 51.34332 | 7.76799 | 113° | 117km/h | 7283m | -3.7m/s | 0°C | 0% | 0hPa | 2.6V | 00:00:00 | 03:17:17 | 00:00:00 | i |
| DM0DOS-11 | 2026-09-03 14:06:53 | 51.34388 | 7.76663 | 131° | 115km/h | 7300m | -3.9m/s | -20.3°C | 52.1% | 411.3hPa | 2.6V | 07:46:43 | 03:17:13 | 00:00:00 | i |
| DL1XH-west | 2026-09-03 14:06:48 | 51.34428 | 7.76583 | 124° | 133km/h | 7307m | -3.9m/s | -20.3°C | 52.5% | 411.1hPa | 2.5V | 07:47:35 | 03:17:11 | 00:00:00 | i |
| BIOWL9-15 | 2026-09-03 14:06:46 | 51.34470 | 7.76449 | 112° | 108km/h | 7319m | -3.7m/s | -20.4°C | 49.0% | 410.3hPa | 2.6V | 00:00:00 | 00:00:00 | 00:00:00 | |
| DM0DOS-11 | 2026-09-03 14:06:45 | 51.34544 | 7.76275 | 129° | 124km/h | 7338m | -3.9m/s | -20.6°C | 53.1% | 409.3hPa | 2.6V | 07:46:53 | 03:17:03 | 00:00:00 | i |
| BIOWL1-15 | 2026-09-03 14:06:40 | 51.34544 | 7.76275 | 129° | 124km/h | 7338m | -3.9m/s | -20.6°C | 53.1% | 409.3hPa | 2.6V | 07:47:35 | 03:17:03 | 00:00:00 | i |
| DL1XH-west | 2026-09-03 14:06:38 | 51.34581 | 7.76189 | 120° | 131km/h | 7346m | -3.6m/s | -20.7°C | 53.4% | 408.9hPa | 2.5V | 07:47:35 | 03:17:01 | 00:00:00 | i |
| DD1CC1-15 | 2026-09-03 14:06:37 | 51.34581 | 7.76188 | 121° | 131km/h | 7346m | -3.6m/s | -20.7°C | 50.0% | 408.9hPa | 2.6V | 07:47:00 | 00:00:00 | 00:00:00 | |
| DO3DL | 2026-09-03 14:06:36 | 51.34596 | 7.76143 | 117° | 124km/h | 7350m | -3.6m/s | -20.7°C | 50.0% | 408.6hPa | 2.6V | 07:47:00 | 00:00:00 | 00:00:00 | i |
| DM0DOS-11 | 2026-09-03 14:06:35 | 51.34707 | 7.75887 | 130° | 122km/h | 7374m | -4.2m/s | -20.9°C | 54% | 407.3hPa | 2.6V | 07:47:03 | 03:16:53 | 00:00:00 | |
| BIOWL1-15 | 2026-09-03 14:06:29 | 51.34727 | 7.75848 | 128° | 130km/h | 7378m | -3.8m/s | -20.9°C | 53.2% | 407hPa | 2.6V | 07:47:35 | 03:16:52 | 00:00:00 | i |
| DL1XH-west | 2026-09-03 14:06:27 | 51.34764 | 7.75759 | 120° | 133km/h | 7386m | -3.8m/s | -21°C | 53.7% | 406.8hPa | 2.5V | 07:47:35 | 03:16:50 | 00:00:00 | i |
| DM0DOS-11 | 2026-09-03 14:06:25 | 51.34867 | 7.75491 | 133° | 117km/h | 7414m | -4m/s | -21.2°C | 54.9% | 405.2hPa | 2.5V | 07:47:13 | 03:16:43 | 00:00:00 | i |
| BIOWL1-15 | 2026-09-03 14:06:18 | 51.34947 | 7.75323 | 120° | 133km/h | 7430m | -4.4m/s | -21.4°C | 54.7% | 404.3hPa | 2.5V | 07:47:35 | 03:16:39 | 00:00:00 | |
| DL1XH-west | 2026-09-03 14:06:17 | 51.34929 | 7.75370 | 124° | 137km/h | 7426m | -4.2m/s | -21.3°C | 54.5% | 404.5hPa | 2.6V | 07:47:35 | 03:16:40 | 00:00:00 | i |
| DD1CC1-15 | 2026-09-03 14:06:16 | 51.34929 | 7.75369 | 125° | 137km/h | 7426m | -4.2m/s | -21.3°C | 51.4% | 404.5hPa | 2.5V | 07:47:00 | 00:00:00 | 00:00:00 | |
| DM0DOS-11 | 2026-09-03 14:06:15 | 51.35034 | 7.75099 | 134° | 113km/h | 7454m | -4.1m/s | -21.6°C | 56.2% | 402.9hPa | 2.5V | 07:47:23 | 03:16:33 | 00:00:00 | i |
| DL1XH-west | 2026-09-03 14:06:06 | 51.35117 | 7.74934 | 121° | 133km/h | 7471m | -4.6m/s | -21.6°C | 57.3% | 402.1hPa | 2.6V | 07:47:35 | 03:16:29 | 00:00:00 | i |
| DM0DOS-11 | 2026-09-03 14:06:05 | 51.35207 | 7.74709 | 132° | 111km/h | 7495m | -4m/s | -21.8°C | 59.6% | 400.7hPa | 2.5V | 07:47:33 | 03:16:23 | 00:00:00 | i |
| DL1XH-west | 2026-09-03 14:05:56 | 51.35290 | 7.74550 | 124° | 137km/h | 7510m | -4.3m/s | -21.9°C | 59.4% | 399.9hPa | 2.6V | 07:48:26 | 03:16:19 | 00:00:00 | i |
| BIOWL1-15 | 2026-09-03 14:05:56 | 51.35350 | 7.74375 | 117° | 106km/h | 7526m | -3.8m/s | -22.1°C | 61% | 399hPa | 2.6V | 07:48:26 | 03:16:15 | 00:00:00 | i |
| DB0UT-7 | 2026-09-03 14:05:55 | 51.35308 | 7.74504 | 121° | 119km/h | 7515m | -4.2m/s | -21.9°C | 60.6% | 399.7hPa | 2.5V | 00:00:00 | 03:16:18 | 00:00:00 | |
| DJ2KF-10 | 2026-09-03 14:05:54 | 51.35323 | 7.74458 | 118° | 119km/h | 7519m | -3.9m/s | -22.0°C | 60.8% | 399.3hPa | 2.5V | 00:00:00 | 03:16:17 | 00:00:00 | |
| DM0DOS-11 | 2026-09-03 14:05:52 | 51.35375 | 7.74305 | 125° | 97km/h | 7534m | -4.4m/s | -22.2°C | 61.4% | 398.7hPa | 2.6V | 07:47:43 | 03:16:13 | 00:00:00 | i |
| DL1XH-west | 2026-09-03 14:05:45 | 51.35470 | 7.74119 | 123° | 135km/h | 7554m | -4.1m/s | -22.3°C | 60.4% | 397.5hPa | 2.6V | 07:48:26 | 03:16:08 | 00:00:00 | i |
| DL1XH-west | 2026-09-03 14:05:35 | 51.35628 | 7.73717 | 127° | 135km/h | 7595m | -4.1m/s | -22.4°C | 59.3% | 395.2hPa | 2.5V | 07:48:26 | 03:15:58 | 00:00:00 | i |
| BIOWL1-15 | 2026-09-03 14:05:29 | 51.35728 | 7.73410 | 124° | 99km/h | 7624m | -4.3m/s | -22.6°C | 60.7% | 393.8hPa | 2.5V | 07:48:26 | 03:15:51 | 00:00:00 | i |
| DL1XH-west | 2026-09-03 14:05:24 | 51.35801 | 7.73255 | 121° | 139km/h | 7641m | -3.9m/s | -22.7°C | 61% | 392.8hPa | 2.6V | 07:48:26 | 03:15:47 | 00:00:00 | i |
| BIOWL1-15 | 2026-09-03 14:05:17 | 51.35898 | 7.72963 | 129° | 119km/h | 7670m | -4.2m/s | -22.9°C | 59.2% | 391.3hPa | 2.5V | 07:48:26 | 03:15:40 | 00:00:00 | i |
| DL1XH-west | 2026-09-03 14:05:14 | 51.35954 | 7.72832 | 118° | 137km/h | 7682m | -3.9m/s | -23°C | 59.6% | 390.6hPa | 2.6V | 07:48:26 | 03:15:37 | 00:00:00 | i |
| BIOWL1-15 | 2026-09-03 14:05:09 | 51.36040 | 7.72536 | 128° | 108km/h | 7711m | -4.1m/s | -23.2°C | 59.8% | 389.1hPa | 2.5V | 07:48:26 | 03:15:30 | 00:00:00 | i |
| DO3DL | 2026-09-03 14:05:08 | 51.36012 | 7.72605 | 116° | 100km/h | 7703m | -4.4m/s | -23.1°C | 55.3% | 389.4hPa | 2.5V | 07:48:00 | 00:00:00 | 00:00:00 | |
| DB0NH | 2026-09-03 14:05:05 | 51.36077 | 7.72459 | 126° | 120km/h | 7720m | -4.3m/s | -23.2°C | 60.6% | 388.7hPa | 2.5V | 00:00:00 | 03:15:28 | 00:00:00 | |
| DM0DOS-11 | 2026-09-03 14:05:04 | 51.36145 | 7.72227 | 112° | 106km/h | 7740m | -4.1m/s | -23.5°C | 61.5% | 387.6hPa | 2.5V | 07:48:33 | 03:15:23 | 00:00:00 | i |
| DL1XH-west | 2026-09-03 14:05:04 | 51.36096 | 7.72413 | 120° | 137km/h | 7724m | -4m/s | -23.3°C | 60.2% | 388.4hPa | 2.6V | 07:49:17 | 03:15:27 | 00:00:00 | i |
| BIOWL1-15 | 2026-09-03 14:04:56 | 51.36241 | 7.71996 | 122° | 135km/h | 7765m | -4.4m/s | -23.7°C | 61.7% | 386.2hPa | 2.5V | 07:49:17 | 03:15:17 | 00:00:00 | i |
| WPPR-10 | 2026-09-03 14:04:56 | 51.36223 | 7.72040 | 125° | 128km/h | 7760m | -4.6m/s | -23.7°C | 58.2% | 386.6hPa | 2.5V | 00:00:00 | 00:00:00 | 00:00:00 | i |
| DB0UT-7 | 2026-09-03 14:04:55 | 51.36223 | 7.72040 | 126° | 122km/h | 7761m | -4.6m/s | -23.7°C | 62.6% | 386.5hPa | 2.5V | 00:00:00 | 03:15:18 | 00:00:00 | |
| DM0DOS-11 | 2026-09-03 14:04:54 | 51.36296 | 7.71800 | 108° | 120km/h | 7782m | -4.8m/s | -23.9°C | 63% | 385.4hPa | 2.5V | 07:48:43 | 03:15:13 | 00:00:00 | i |
| DL1XH-west | 2026-09-03 14:04:53 | 51.36259 | 7.71948 | 117° | 137km/h | 7769m | -4.2m/s | -23.7°C | 62% | 386hPa | 2.6V | 07:49:17 | 03:15:16 | 00:00:00 | i |
| BIOWL1-15 | 2026-09-03 14:04:46 | 51.36345 | 7.71646 | 127° | 113km/h | 7799m | -4.1m/s | -24.1°C | 62.5% | 384.4hPa | 2.6V | 07:49:17 | 03:15:09 | 00:00:00 | i |
| DM0DOS-11 | 2026-09-03 14:04:44 | 51.36443 | 7.71376 | 109° | 126km/h | 7825m | -4.3m/s | -24.3°C | 64.3% | 383.1hPa | 2.5V | 07:48:53 | 03:15:03 | 00:00:00 | i |
| DL1XH-west | 2026-09-03 14:04:43 | 51.36400 | 7.71523 | 121° | 135km/h | 7813m | -4.3m/s | -24.1°C | 62.6% | 383.7hPa | 2.6V | 07:49:17 | 03:15:06 | 00:00:00 | i |
| BIOWL1-15 | 2026-09-03 14:04:36 | 51.36486 | 7.71212 | 123° | 104km/h | 7842m | -4m/s | -24.4°C | 62.9% | 382.1hPa | 2.6V | 07:49:17 | 03:14:59 | 00:00:00 | i |
| DB0NH | 2026-09-03 14:04:35 | 51.36501 | 7.71176 | 127° | 122km/h | 7846m | -4.0m/s | -24.4°C | 62.9% | 381.9hPa | 2.5V | 00:00:00 | 03:14:58 | 00:00:00 | |
| DM0DOS-11 | 2026-09-03 14:04:34 | 51.36591 | 7.70963 | 115° | 135km/h | 7868m | -4.1m/s | -24.6°C | 63.4% | 380.8hPa | 2.5V | 07:49:03 | 03:14:53 | 00:00:00 | i |
| DL1XH-west | 2026-09-03 14:04:32 | 51.36557 | 7.71058 | 124° | 133km/h | 7860m | -4.6m/s | -24.5°C | 61.8% | 381.4hPa | 2.6V | 07:49:17 | 03:14:55 | 00:00:00 | i |
| BIOWL1-15 | 2026-09-03 14:04:26 | 51.36637 | 7.70782 | 114° | 104km/h | 7885m | -4.6m/s | -24.8°C | 62.5% | 380hPa | 2.6V | 07:49:17 | 03:14:49 | 00:00:00 | i |
| DL3AQ-11 | 2026-09-03 14:04:26 | 51.36649 | 7.70745 | 119° | 100km/h | 7890m | -4.8m/s | -24.8°C | 58.2% | 379.7hPa | 2.4V | 00:00:00 | 00:00:00 | 00:00:00 | i |
| DB0UT-7 | 2026-09-03 14:04:25 | 51.36649 | 7.70745 | 120° | 119km/h | 7890m | -4.8m/s | -24.8°C | 62.8% | 379.7hPa | 2.4V | 00:00:00 | 00:00:00 | 00:00:00 | |
| DM0DOS-11 | 2026-09-03 14:04:24 | 51.36738 | 7.70555 | 124° | 137km/h | 7912m | -4.5m/s | -25°C | 64.5% | 378.6hPa | 2.4V | 07:49:13 | 03:14:43 | 00:00:00 | i |
| DL1XH-west | 2026-09-03 14:04:21 | 51.36718 | 7.70598 | 128° | 130km/h | 7907m | -4.4m/s | -25°C | 62.8% | 378.8hPa | 2.6V | 07:49:17 | 03:14:44 | 00:00:00 | i |
| BIOWL1-15 | 2026-09-03 14:04:15 | 51.36809 | 7.70322 | 113° | 108km/h | 7934m | -4.4m/s | -25.2°C | 65.3% | 377.4hPa | 2.4V | 07:50:08 | 03:14:38 | 00:00:00 | i |
| DL1XH-west | 2026-09-03 14:04:11 | 51.36864 | 7.70181 | 130° | 113km/h | 7951m | -4.4m/s | -25.4°C | 64.5% | 376.5hPa | 2.6V | 07:50:08 | 03:14:34 | 00:00:00 | i |
| BIOWL1-15 | 2026-09-03 14:04:05 | 51.36959 | 7.69916 | 115° | 108km/h | 7976m | -3.9m/s | -25.6°C | 66.1% | 375.2hPa | 2.4V | 07:50:08 | 03:14:28 | 00:00:00 | i |
| DL1XH-west | 2026-09-03 14:04:00 | 51.37038 | 7.69739 | 130° | 126km/h | 7997m | -4.7m/s | -25.9°C | 66.2% | 374.1hPa | 2.5V | 07:50:08 | 03:14:23 | 00:00:00 | i |
| DL9SK-14 | 2026-09-03 14:03:59 | 51.37059 | 7.69697 | 126° | 135km/h | 8001m | -4.4m/s | -25.8°C | 62.5% | 373.9hPa | 2.4V | 00:00:00 | 00:00:00 | 00:00:00 | |
| DL3AQ-11 | 2026-09-03 14:03:58 | 51.37078 | 7.69651 | 120° | 139km/h | 8006m | -4.1m/s | -25.9°C | 62.9% | 373.5hPa | 2.4V | 00:00:00 | 00:00:00 | 00:00:00 | |
| DL8DAS-14 | 2026-09-03 14:03:57 | 51.37094 | 7.69602 | 114° | 133km/h | 8010m | -4.1m/s | -25.9°C | 63.1% | 373.4hPa | 2.4V | 00:00:00 | 00:00:00 | 00:00:00 | |
| DO3DL | 2026-09-03 14:03:56 | 51.37094 | 7.69602 | 116° | 135km/h | 8010m | -4.1m/s | -25.9°C | 63.1% | 373.4hPa | 2.4V | 07:50:00 | 00:00:00 | 00:00:00 | |
| DM0DOS-11 | 2026-09-03 14:03:55 | 51.37201 | 7.69325 | 128° | 133km/h | 8041m | -5m/s | -26.2°C | 68.5% | 371.8hPa | 2.4V | 07:49:43 | 03:14:13 | 00:00:00 | i |
| BIOWL1-15 | 2026-09-03 14:03:54 | 51.37130 | 7.69472 | 119° | 102km/h | 8023m | -4.5m/s | -26.1°C | 67.4% | 372.7hPa | 2.5V | 07:50:08 | 03:14:17 | 00:00:00 | i |
| DL1XH-west | 2026-09-03 14:03:47 | 51.37256 | 7.69182 | 114° | 135km/h | 8055m | -4.4m/s | -26.3°C | 68.1% | 371.2hPa | 2.6V | 07:50:08 | 03:14:10 | 00:00:00 | i |
| BIOWL1-15 | 2026-09-03 14:03:46 | 51.37291 | 7.69051 | 118° | 102km/h | 8069m | -4.6m/s | -26.5°C | 68.4% | 370.3hPa | 2.4V | 07:50:08 | 03:14:07 | 00:00:00 | i |
| DM0DOS-11 | 2026-09-03 14:03:44 | 51.37362 | 7.68898 | 125° | 139km/h | 8088m | -4.8m/s | -26.6°C | 70.2% | 369.5hPa | 2.6V | 07:49:53 | 03:14:03 | 00:00:00 | i |
| AU51GT2 | 2026-09-03 14:03:44 | 51.37291 | 7.69051 | 118° | 102km/h | 8069m | -4.6m/s | -26.5°C | 64.6% | 370.3hPa | 2.6V | 00:00:00 | 00:00:00 | 00:00:00 | i |
| DL1XH-west | 2026-09-03 14:03:36 | 51.37423 | 7.68704 | 112° | 120km/h | 8106m | -5.1m/s | -26.8°C | 69.2% | 368.4hPa | 2.6V | 07:50:08 | 03:13:59 | 00:00:00 | i |
| BIOWL1-15 | 2026-09-03 14:03:33 | 51.37464 | 7.68588 | 128° | 110km/h | 8121m | -4.8m/s | -27°C | 69.5% | 367.6hPa | 2.4V | 07:50:08 | 03:13:56 | 00:00:00 | i |
| DL1XH-west | 2026-09-03 14:03:25 | 51.37605 | 7.68230 | 115° | 115km/h | 8160m | -5.1m/s | -27.3°C | 67.9% | 365.7hPa | 2.6V | 07:50:08 | 03:13:48 | 00:00:00 | i |
| BIOWL1-15 | 2026-09-03 14:03:25 | 51.37633 | 7.68154 | 126° | 108km/h | 8170m | -4.7m/s | -27.4°C | 67.6% | 365.3hPa | 2.4V | 07:50:59 | 03:13:46 | 00:00:00 | i |
| DM0DOS-11 | 2026-09-03 14:03:25 | 51.37691 | 7.68042 | 130° | 135km/h | 8184m | -4.8m/s | -27.5°C | 68.9% | 364.5hPa | 2.6V | 07:50:13 | 03:13:43 | 00:00:00 | i |
| DL1XH-west | 2026-09-03 14:03:14 | 51.37799 | 7.67757 | 116° | 117km/h | 8212m | -4.5m/s | -27.8°C | 68.6% | 363.1hPa | 2.6V | 07:50:59 | 03:13:37 | 00:00:00 | i |
| DM0DOS-11 | 2026-09-03 14:03:14 | 51.37866 | 7.67609 | 132° | 124km/h | 8231m | -5m/s | -28°C | 69.8% | 362.2hPa | 2.5V | 07:50:23 | 03:13:33 | 00:00:00 | i |
| BIOWL1-15 | 2026-09-03 14:03:12 | 51.37828 | 7.67680 | 126° | 108km/h | 8221m | -4.8m/s | -27.8°C | 68.4% | 362.6hPa | 2.6V | 07:50:59 | 03:13:35 | 00:00:00 | i |
| DL3AQ-11 | 2026-09-03 14:03:09 | 51.37911 | 7.67526 | 128° | 144km/h | 8241m | -4.7m/s | -28.0°C | 64.3% | 361.6hPa | 2.5V | 00:00:00 | 00:00:00 | 00:00:00 | |
| BIOWL9-15 | 2026-09-03 14:03:08 | 51.37911 | 7.67526 | 128° | 144km/h | 8241m | -4.7m/s | -28.0°C | 64.3% | 361.6hPa | 2.5V | 00:00:00 | 00:00:00 | 00:00:00 | |
| BUE01 | 2026-09-03 14:03:06 | 51.37998 | 7.67291 | 121° | 110km/h | 8265m | -4.5m/s | -28.2°C | 62.7% | 360.4hPa | 2.5V | 00:00:00 | 00:00:00 | 00:00:00 | |
| DM0DOS-11 | 2026-09-03 14:03:04 | 51.38053 | 7.67181 | 133° | 130km/h | 8279m | -4.7m/s | -28.3°C | 68% | 359.7hPa | 2.5V | 07:50:33 | 03:13:23 | 00:00:00 | i |
| BIOWL1-15 | 2026-09-03 14:03:03 | 51.38032 | 7.67218 | 132° | 119km/h | 8274m | -4.6m/s | -28.3°C | 66.8% | 360hPa | 2.6V | 07:50:59 | 03:13:24 | 00:00:00 | i |
| DL1XH-west | 2026-09-03 14:03:03 | 51.37998 | 7.67291 | 121° | 111km/h | 8265m | -4.5m/s | -28.2°C | 67% | 360.4hPa | 2.4V | 07:50:59 | 03:13:26 | 00:00:00 | i |
| DB0NH | 2026-09-03 14:03:03 | 51.37997 | 7.67291 | 122° | 130km/h | 8265m | -4.5m/s | -28.1°C | 68.1% | 360.4hPa | 2.6V | 00:00:00 | 03:13:26 | 00:00:00 | i |
| DL1CLM-18 | 2026-09-03 14:03:02 | 51.37997 | 7.67291 | 122° | 111km/h | 8265m | -4.5m/s | -28.2°C | 62.7% | 360.4hPa | 2.6V | 00:00:00 | 00:00:00 | 00:00:00 | |
| DD1CC3-15 | 2026-09-03 14:03:01 | 51.38013 | 7.67254 | 128° | 111km/h | 8270m | -4.8m/s | -28.2°C | 62.5% | 360.3hPa | 2.6V | 07:50:00 | 00:00:00 | 00:00:00 | |
| HTAHTA | 2026-09-03 14:03:00 | 51.38053 | 7.67181 | 133° | 130km/h | 8279m | -4.7m/s | -28.3°C | 62.6% | 359.7hPa | 2.6V | 00:00:00 | 00:00:00 | 00:00:00 | |
| DL9SK-14 | 2026-09-03 14:02:57 | 51.38123 | 7.67048 | 125° | 150km/h | 8293m | -4.9m/s | -28.3°C | 62.3% | 359.1hPa | 2.6V | 00:00:00 | 00:00:00 | 00:00:00 | |
| DB0ND-19 | 2026-09-03 14:02:55 | 51.38177 | 7.66899 | 116° | 128km/h | 8307m | -4.5m/s | -28.4°C | 60.8% | 358.2hPa | 2.6V | 00:00:00 | 00:00:00 | 00:00:00 | |
| DM0DOS-11 | 2026-09-03 14:02:54 | 51.38241 | 7.66742 | 131° | 117km/h | 8326m | -4.8m/s | -28.5°C | 63.4% | 357.4hPa | 2.6V | 07:50:43 | 03:13:13 | 00:00:00 | i |
| DL1XH-west | 2026-09-03 14:02:52 | 51.38206 | 7.66815 | 122° | 113km/h | 8316m | -4.9m/s | -28.4°C | 63.8% | 357.9hPa | 2.4V | 07:50:59 | 03:13:15 | 00:00:00 | i |
| BIOWL1-15 | 2026-09-03 14:02:51 | 51.38222 | 7.66778 | 128° | 111km/h | 8321m | -5.1m/s | -28.4°C | 63.2% | 357.7hPa | 2.5V | 07:50:59 | 03:13:14 | 00:00:00 | i |
| DO1YAY-16 | 2026-09-03 14:02:45 | 51.38353 | 7.66530 | 122° | 144km/h | 8350m | -4.8m/s | -28.6°C | 59.6% | 356.2hPa | 2.5V | 00:00:00 | 00:00:00 | 00:00:00 | |
| DM0DOS-11 | 2026-09-03 14:02:44 | 51.38430 | 7.66310 | 125° | 110km/h | 8374m | -4.8m/s | -28.8°C | 67.8% | 355hPa | 2.5V | 07:50:53 | 03:13:03 | 00:00:00 | i |
| DL1XH-west | 2026-09-03 14:02:41 | 51.38415 | 7.66348 | 121° | 111km/h | 8369m | -4.9m/s | -28.7°C | 67.5% | 355.4hPa | 2.4V | 07:50:59 | 03:13:04 | 00:00:00 | i |
| BIOWL1-15 | 2026-09-03 14:02:40 | 51.38430 | 7.66310 | 126° | 110km/h | 8374m | -4.8m/s | -28.8°C | 67.9% | 355hPa | 2.5V | 07:50:59 | 03:13:03 | 00:00:00 | i |
| BIOWL7-15 | 2026-09-03 14:02:38 | 51.38447 | 7.66276 | 133° | 111km/h | 8379m | -4.6m/s | -28.9°C | 63.2% | 354.8hPa | 2.6V | 00:00:00 | 00:00:00 | 00:00:00 | |
| BIOWL9-15 | 2026-09-03 14:02:37 | 51.38490 | 7.66206 | 135° | 128km/h | 8388m | -5.3m/s | -28.9°C | 63.9% | 354.4hPa | 2.6V | 00:00:00 | 00:00:00 | 00:00:00 | |
| DM0DOS-11 | 2026-09-03 14:02:35 | 51.38620 | 7.65897 | 122° | 110km/h | 8422m | -4.8m/s | -29.2°C | 69.4% | 352.5hPa | 2.6V | 07:51:03 | 03:12:53 | 00:00:00 | i |
| BIOWL1-15 | 2026-09-03 14:02:31 | 51.38636 | 7.65861 | 129° | 110km/h | 8427m | -4.8m/s | -29.3°C | 67.6% | 352.3hPa | 2.6V | 07:51:50 | 03:12:52 | 00:00:00 | i |
| DL1XH-west | 2026-09-03 14:02:31 | 51.38605 | 7.65936 | 119° | 115km/h | 8417m | -4.9m/s | -29.1°C | 68.4% | 352.9hPa | 2.6V | 07:51:50 | 03:12:54 | 00:00:00 | i |
| DB0NH | 2026-09-03 14:02:29 | 51.38636 | 7.65861 | 129° | 120km/h | 8427m | -4.8m/s | -29.2°C | 69.2% | 352.2hPa | 2.4V | 00:00:00 | 03:12:52 | 00:00:00 | |
| DO3DL | 2026-09-03 14:02:28 | 51.38636 | 7.65861 | 130° | 110km/h | 8427m | -4.8m/s | -29.3°C | 63.6% | 352.3hPa | 2.4V | 07:51:00 | 00:00:00 | 00:00:00 | |
| DL9SK-14 | 2026-09-03 14:02:26 | 51.38699 | 7.65755 | 133° | 135km/h | 8442m | -5.0m/s | -29.4°C | 62.9% | 351.7hPa | 2.4V | 00:00:00 | 00:00:00 | 00:00:00 | |
| DL3AQ-11 | 2026-09-03 14:02:25 | 51.38722 | 7.65712 | 130° | 144km/h | 8447m | -4.7m/s | -29.4°C | 62.6% | 351.3hPa | 2.4V | 00:00:00 | 00:00:00 | 00:00:00 | |
| DM0DOS-11 | 2026-09-03 14:02:24 | 51.38814 | 7.65478 | 118° | 113km/h | 8471m | -5m/s | -29.6°C | 62.8% | 350.1hPa | 2.4V | 07:51:13 | 03:12:43 | 00:00:00 | i |
| DL1XH-west | 2026-09-03 14:02:21 | 51.38800 | 7.65521 | 118° | 126km/h | 8466m | -5m/s | -29.6°C | 64.9% | 350.5hPa | 2.5V | 07:51:50 | 03:12:44 | 00:00:00 | i |
| BIOWL1-15 | 2026-09-03 14:02:20 | 51.38845 | 7.65406 | 130° | 106km/h | 8481m | -5.3m/s | -29.7°C | 59.3% | 349.8hPa | 2.4V | 07:51:50 | 03:12:41 | 00:00:00 | i |
| DO9LL-15 | 2026-09-03 14:02:18 | 51.38845 | 7.65406 | 131° | 128km/h | 8481m | -5.2m/s | -29.6°C | 58.4% | 349.7hPa | 2.4V | 00:00:00 | 03:12:41 | 00:00:00 | |
| DJ2DS-15 | 2026-09-03 14:02:15 | 51.38910 | 7.65300 | 132° | 142km/h | 8497m | -4.8m/s | -29.8°C | 52.7% | 348.8hPa | 2.6V | 00:00:00 | 00:00:00 | 00:00:00 | |
| DM0DOS-11 | 2026-09-03 14:02:14 | 51.39004 | 7.65072 | 123° | 111km/h | 8521m | -4.6m/s | -30°C | 53.3% | 347.7hPa | 2.6V | 07:51:23 | 03:12:33 | 00:00:00 | i |
| BIOWL1-15 | 2026-09-03 14:02:10 | 51.39040 | 7.65003 | 135° | 115km/h | 8530m | -5m/s | -30.1°C | 53.9% | 347.2hPa | 2.6V | 07:51:50 | 03:12:31 | 00:00:00 | i |
| DL1XH-west | 2026-09-03 14:02:10 | 51.39004 | 7.65072 | 124° | 111km/h | 8521m | -4.6m/s | -30°C | 54.2% | 347.7hPa | 2.6V | 07:51:50 | 03:12:33 | 00:00:00 | i |
| DO3DL | 2026-09-03 14:02:09 | 51.39004 | 7.65072 | 125° | 111km/h | 8521m | -4.6m/s | -30.0°C | 48.6% | 347.7hPa | 2.5V | 07:51:00 | 00:00:00 | 00:00:00 | |
| BIOWL9-15 | 2026-09-03 14:02:06 | 51.39085 | 7.64934 | 135° | 133km/h | 8540m | -5.0m/s | -30.2°C | 49.0% | 346.8hPa | 2.5V | 00:00:00 | 00:00:00 | 00:00:00 | |
| DM0DOS-11 | 2026-09-03 14:02:03 | 51.39207 | 7.64661 | 119° | 119km/h | 8570m | -4.9m/s | -30.4°C | 54.8% | 345.2hPa | 2.5V | 07:51:33 | 03:12:23 | 00:00:00 | |
| DL1XH-west | 2026-09-03 14:01:59 | 51.39223 | 7.64621 | 124° | 110km/h | 8575m | -4.9m/s | -30.5°C | 55.7% | 345hPa | 2.4V | 07:51:50 | 03:12:22 | 00:00:00 | i |
| BIOWL1-15 | 2026-09-03 14:01:57 | 51.39258 | 7.64553 | 135° | 115km/h | 8585m | -5.3m/s | -30.6°C | 55.9% | 344.7hPa | 2.5V | 07:51:50 | 03:12:20 | 00:00:00 | i |
| DL9SK-14 | 2026-09-03 14:01:55 | 51.39304 | 7.64481 | 134° | 141km/h | 8595m | -5.1m/s | -30.6°C | 51.5% | 344.1hPa | 2.4V | 00:00:00 | 00:00:00 | 00:00:00 | |
| DJ2KF-10 | 2026-09-03 14:01:54 | 51.39329 | 7.64437 | 130° | 133km/h | 8601m | -4.7m/s | -30.6°C | 57.2% | 343.7hPa | 2.4V | 00:00:00 | 03:12:17 | 00:00:00 | |
| DM0DOS-11 | 2026-09-03 14:01:53 | 51.39405 | 7.64247 | 120° | 120km/h | 8620m | -5.1m/s | -30.8°C | 57.6% | 342.9hPa | 2.4V | 07:51:43 | 03:12:13 | 00:00:00 | i |
| DL1XH-west | 2026-09-03 14:01:49 | 51.39420 | 7.64208 | 124° | 111km/h | 8625m | -4.8m/s | -30.9°C | 58.3% | 342.6hPa | 2.6V | 07:51:50 | 03:12:12 | 00:00:00 | i |
| BIOWL1-15 | 2026-09-03 14:01:46 | 51.39479 | 7.64104 | 137° | 128km/h | 8639m | -5m/s | -31.1°C | 59% | 341.9hPa | 2.6V | 07:51:50 | 03:12:09 | 00:00:00 | i |
| DL3AQ-11 | 2026-09-03 14:01:46 | 51.39504 | 7.64066 | 135° | 141km/h | 8644m | -4.9m/s | -31.1°C | 54.0% | 341.7hPa | 2.5V | 00:00:00 | 00:00:00 | 00:00:00 | i |
| DL1XH-west | 2026-09-03 14:01:39 | 51.39629 | 7.63785 | 124° | 117km/h | 8675m | -4.6m/s | -31.3°C | 64.6% | 340.2hPa | 2.5V | 07:52:41 | 03:12:02 | 00:00:00 | i |
| BIOWL1-15 | 2026-09-03 14:01:35 | 51.39712 | 7.63640 | 136° | 139km/h | 8695m | -5.4m/s | -31.5°C | 65.4% | 339.3hPa | 2.6V | 07:52:41 | 03:11:58 | 00:00:00 | i |
| DO3DL | 2026-09-03 14:01:34 | 51.39712 | 7.63639 | 137° | 139km/h | 8695m | -5.4m/s | -31.5°C | 61.0% | 339.3hPa | 2.5V | 07:52:00 | 00:00:00 | 00:00:00 | |
| DM0DOS-11 | 2026-09-03 14:01:33 | 51.39828 | 7.63401 | 120° | 139km/h | 8720m | -5.2m/s | -31.7°C | 68.5% | 338.2hPa | 2.5V | 07:52:03 | 03:11:53 | 00:00:00 | i |
| DL1XH-west | 2026-09-03 14:01:29 | 51.39845 | 7.63355 | 121° | 128km/h | 8725m | -4.7m/s | -31.8°C | 67.3% | 337.8hPa | 2.4V | 07:52:41 | 03:11:52 | 00:00:00 | i |
| BIOWL1-15 | 2026-09-03 14:01:25 | 51.39920 | 7.63204 | 136° | 128km/h | 8744m | -5.1m/s | -32°C | 68% | 337.1hPa | 2.5V | 07:52:41 | 03:11:48 | 00:00:00 | |
| DO2JMG | 2026-09-03 14:01:24 | 51.39945 | 7.63166 | 136° | 139km/h | 8750m | -5.2m/s | -32°C | 68.1% | 336.6hPa | 2.5V | 07:52:41 | 03:11:47 | 00:00:00 | |
| DB0UT-7 | 2026-09-03 14:01:24 | 51.39945 | 7.63166 | 137° | 141km/h | 8750m | -5.1m/s | -32.0°C | 69.9% | 336.6hPa | 2.4V | 00:00:00 | 00:00:00 | 00:00:00 | |
| DM0DOS-11 | 2026-09-03 14:01:23 | 51.40044 | 7.62981 | 123° | 151km/h | 8769m | -5.2m/s | -32.2°C | 71% | 335.8hPa | 2.4V | 07:52:13 | 03:11:43 | 00:00:00 | i |
| DL1XH-west | 2026-09-03 14:01:18 | 51.40081 | 7.62883 | 120° | 131km/h | 8780m | -5.2m/s | -32.3°C | 70% | 335.1hPa | 2.6V | 07:52:41 | 03:11:41 | 00:00:00 | i |
| BIOWL1-15 | 2026-09-03 14:01:14 | 51.40207 | 7.62645 | 133° | 153km/h | 8810m | -5.1m/s | -32.5°C | 70.4% | 333.8hPa | 2.6V | 07:52:41 | 03:11:35 | 00:00:00 | |
| DO3DL | 2026-09-03 14:01:13 | 51.40156 | 7.62726 | 137° | 131km/h | 8800m | -4.9m/s | -32.5°C | 65.0% | 334.2hPa | 2.6V | 07:52:00 | 00:00:00 | 00:00:00 | |
| DM0DOS-11 | 2026-09-03 14:01:12 | 51.40257 | 7.62548 | 125° | 157km/h | 8820m | -5.3m/s | -32.5°C | 72.7% | 333.3hPa | 2.6V | 07:52:23 | 03:11:33 | 00:00:00 | i |
| DL1XH-west | 2026-09-03 14:01:08 | 51.40297 | 7.62446 | 119° | 139km/h | 8830m | -4.8m/s | -32.7°C | 71.9% | 332.8hPa | 2.4V | 07:52:41 | 03:11:31 | 00:00:00 | i |
| DO2JMG | 2026-09-03 14:01:02 | 51.40416 | 7.62203 | 136° | 144km/h | 8860m | -4.9m/s | -33°C | 72.3% | 331.5hPa | 2.6V | 07:52:41 | 03:11:25 | 00:00:00 | i |
| BIOWL1-15 | 2026-09-03 14:01:01 | 51.40493 | 7.62063 | 126° | 159km/h | 8875m | -5.1m/s | -33°C | 72.6% | 330.6hPa | 2.5V | 07:52:41 | 03:11:22 | 00:00:00 | i |
| DM0DOS-11 | 2026-09-03 14:01:01 | 51.40493 | 7.62063 | 125° | 159km/h | 8875m | -5m/s | -33°C | 75.1% | 330.6hPa | 2.5V | 07:52:34 | 03:11:22 | 00:00:00 | i |
| DL1XH-west | 2026-09-03 14:00:58 | 51.40515 | 7.62011 | 121° | 153km/h | 8880m | -4.8m/s | -33.1°C | 72.8% | 330.4hPa | 2.6V | 07:52:41 | 03:11:21 | 00:00:00 | i |
| DO2JMG | 2026-09-03 14:00:52 | 51.40631 | 7.61753 | 136° | 142km/h | 8909m | -4.5m/s | -33.4°C | 72.8% | 329.1hPa | 2.5V | 07:52:41 | 03:11:15 | 00:00:00 | i |
| DB0NH | 2026-09-03 14:00:52 | 51.40631 | 7.61753 | 136° | 146km/h | 8909m | -4.5m/s | -33.3°C | 75.8% | 329.0hPa | 2.4V | 00:00:00 | 03:11:15 | 00:00:00 | i |
| DM0DOS-11 | 2026-09-03 14:00:51 | 51.40709 | 7.61615 | 126° | 159km/h | 8924m | -5m/s | -33.4°C | 76.3% | 328.5hPa | 2.4V | 07:52:44 | 03:11:12 | 00:00:00 | i |
| BIOWL1-15 | 2026-09-03 14:00:50 | 51.40732 | 7.61563 | 123° | 155km/h | 8929m | -4.8m/s | -33.5°C | 73.6% | 328.1hPa | 2.4V | 07:53:32 | 03:11:11 | 00:00:00 | i |
| DL1XH-west | 2026-09-03 14:00:47 | 51.40752 | 7.61510 | 120° | 148km/h | 8934m | -4.8m/s | -33.5°C | 73.9% | 327.9hPa | 2.6V | 07:53:32 | 03:11:10 | 00:00:00 | i |
| BIOWL1-15 | 2026-09-03 14:00:42 | 51.40953 | 7.61118 | 127° | 164km/h | 8979m | -5.1m/s | -33.9°C | 74.4% | 325.7hPa | 2.5V | 07:53:32 | 03:11:01 | 00:00:00 | i |
| DM0DOS-11 | 2026-09-03 14:00:42 | 51.40926 | 7.61169 | 131° | 161km/h | 8974m | -5.2m/s | -33.8°C | 76.5% | 326.2hPa | 2.6V | 07:52:54 | 03:11:02 | 00:00:00 | i |
| DO2JMG | 2026-09-03 14:00:40 | 51.40899 | 7.61214 | 135° | 151km/h | 8969m | -5.4m/s | -33.8°C | 74.5% | 326.4hPa | 2.6V | 07:59:29 | 03:11:03 | 00:00:00 | i |
| DL1XH-west | 2026-09-03 14:00:37 | 51.40976 | 7.61065 | 123° | 159km/h | 8984m | -4.9m/s | -33.9°C | 74.5% | 325.6hPa | 2.4V | 07:53:32 | 03:11:00 | 00:00:00 | i |
| DD1CC3-15 | 2026-09-03 14:00:36 | 51.40976 | 7.61064 | 124° | 159km/h | 8984m | -4.9m/s | -33.9°C | 70.0% | 325.5hPa | 2.6V | 07:53:00 | 00:00:00 | 00:00:00 | |
| BIOWL9-15 | 2026-09-03 14:00:33 | 51.41051 | 7.60876 | 131° | 124km/h | 9004m | -4.6m/s | -34.1°C | 70.1% | 324.6hPa | 2.6V | 00:00:00 | 00:00:00 | 00:00:00 | |
| DM0DOS-11 | 2026-09-03 14:00:31 | 51.41153 | 7.60705 | 129° | 162km/h | 9023m | -4.9m/s | -34.1°C | 78.6% | 323.9hPa | 2.6V | 07:53:04 | 03:10:52 | 00:00:00 | i |
| BIOWL1-15 | 2026-09-03 14:00:28 | 51.41178 | 7.60653 | 125° | 162km/h | 9028m | -4.9m/s | -34.2°C | 75.7% | 323.5hPa | 2.5V | 07:53:32 | 03:10:51 | 00:00:00 | i |
| DL1XH-west | 2026-09-03 14:00:26 | 51.41221 | 7.60546 | 120° | 150km/h | 9038m | -5.1m/s | -34.3°C | 75.9% | 323.2hPa | 2.6V | 07:53:32 | 03:10:49 | 00:00:00 | i |
| DL3AQ-11 | 2026-09-03 14:00:26 | 51.41239 | 7.60495 | 119° | 137km/h | 9043m | -5.2m/s | -34.4°C | 69.9% | 322.9hPa | 2.6V | 00:00:00 | 00:00:00 | 00:00:00 | i |
| HTAHTA | 2026-09-03 14:00:25 | 51.41256 | 7.60449 | 122° | 128km/h | 9048m | -4.9m/s | -34.4°C | 69.3% | 322.7hPa | 2.6V | 00:00:00 | 00:00:00 | 00:00:00 | |
| DB0UT-7 | 2026-09-03 14:00:24 | 51.41256 | 7.60449 | 123° | 141km/h | 9048m | -4.8m/s | -34.3°C | 76.4% | 322.6hPa | 2.6V | 00:00:00 | 00:00:00 | 00:00:00 | |
| DB0NH | 2026-09-03 14:00:22 | 51.41293 | 7.60368 | 132° | 144km/h | 9058m | -4.9m/s | -34.4°C | 76.9% | 322.1hPa | 2.6V | 00:00:00 | 03:10:45 | 00:00:00 | |
| DM0DOS-11 | 2026-09-03 14:00:21 | 51.41366 | 7.60248 | 132° | 153km/h | 9073m | -4.8m/s | -34.5°C | 78.4% | 321.5hPa | 2.4V | 07:53:14 | 03:10:42 | 00:00:00 | i |
| BIOWL1-15 | 2026-09-03 14:00:17 | 51.41416 | 7.60148 | 125° | 161km/h | 9082m | -4.6m/s | -34.6°C | 75.8% | 321hPa | 2.6V | 07:53:32 | 03:10:40 | 00:00:00 | i |
| DL1XH-west | 2026-09-03 14:00:15 | 51.41458 | 7.60041 | 119° | 150km/h | 9092m | -5.1m/s | -34.7°C | 76.2% | 320.6hPa | 2.5V | 07:53:32 | 03:10:38 | 00:00:00 | i |
| DO2JMG | 2026-09-03 14:00:08 | 51.41596 | 7.59740 | 134° | 148km/h | 9127m | -5.2m/s | -35°C | 73.9% | 319.1hPa | 2.5V | 07:59:29 | 03:10:31 | 00:00:00 | i |
| BIOWL1-15 | 2026-09-03 14:00:07 | 51.41622 | 7.59694 | 131° | 157km/h | 9132m | -4.7m/s | -35°C | 73.9% | 318.7hPa | 2.4V | 07:53:32 | 03:10:30 | 00:00:00 | i |
| DL1XH-west | 2026-09-03 14:00:05 | 51.41691 | 7.59536 | 120° | 153km/h | 9146m | -5.1m/s | -35.2°C | 75.4% | 318.2hPa | 2.6V | 07:53:32 | 03:10:27 | 00:00:00 | i |
| DM0DOS-11 | 2026-09-03 14:00:04 | 51.41779 | 7.59311 | 131° | 126km/h | 9171m | -5m/s | -35.5°C | 78.9% | 317.1hPa | 2.5V | 07:53:34 | 03:10:22 | 00:00:00 | |
| BIOWL1-15 | 2026-09-03 13:59:56 | 51.41853 | 7.59185 | 131° | 157km/h | 9185m | -4.8m/s | -35.6°C | 76.6% | 316.3hPa | 2.4V | 07:54:23 | 03:10:19 | 00:00:00 | i |
| DL1XH-west | 2026-09-03 13:59:53 | 51.41923 | 7.59028 | 120° | 153km/h | 9200m | -4.8m/s | -35.7°C | 77.8% | 315.6hPa | 2.6V | 07:54:23 | 03:10:16 | 00:00:00 | i |
| DM0DOS-11 | 2026-09-03 13:59:52 | 51.41990 | 7.58839 | 125° | 120km/h | 9220m | -5.3m/s | -35.9°C | 78.9% | 314.9hPa | 2.5V | 07:53:44 | 03:10:12 | 00:00:00 | i |
| BIOWL1-15 | 2026-09-03 13:59:46 | 51.42056 | 7.58719 | 134° | 150km/h | 9235m | -4.7m/s | -36.1°C | 75.1% | 314.1hPa | 2.5V | 07:54:23 | 03:10:09 | 00:00:00 | i |
| WPPR-10 | 2026-09-03 13:59:45 | 51.42083 | 7.58673 | 130° | 157km/h | 9240m | -5.1m/s | -36.1°C | 70.7% | 313.9hPa | 2.6V | 00:00:00 | 00:00:00 | 00:00:00 | |
| DL1XH-west | 2026-09-03 13:59:42 | 51.42152 | 7.58515 | 120° | 151km/h | 9255m | -4.7m/s | -36.2°C | 75.3% | 313.1hPa | 2.6V | 07:54:23 | 03:10:05 | 00:00:00 | |
| BIOWL1-15 | 2026-09-03 13:59:35 | 51.42317 | 7.58162 | 132° | 159km/h | 9294m | -5.2m/s | -36.5°C | 77.7% | 311.4hPa | 2.4V | 07:54:23 | 03:09:57 | 00:00:00 | i |
| DL1XH-west | 2026-09-03 13:59:32 | 51.42367 | 7.58059 | 124° | 162km/h | 9304m | -4.8m/s | -36.6°C | 78% | 310.9hPa | 2.5V | 07:54:23 | 03:09:55 | 00:00:00 | i |
| DK5PH-5 | 2026-09-03 13:59:31 | 51.42388 | 7.58004 | 121° | 139km/h | 9309m | -4.7m/s | -36.6°C | 80.9% | 310.6hPa | 2.5V | 00:00:00 | 03:09:54 | 00:00:00 | |
| DL1XH-15 | 2026-09-03 13:59:29 | 51.42527 | 7.57693 | 134° | 148km/h | 9343m | -5.2m/s | -37°C | 79.6% | 309.2hPa | 2.5V | 07:54:09 | 03:09:47 | 00:00:00 | i |
| BIOWL1-15 | 2026-09-03 13:59:23 | 51.42554 | 7.57648 | 132° | 159km/h | 9348m | -5m/s | -36.9°C | 75.5% | 309hPa | 2.4V | 07:54:23 | 03:09:46 | 00:00:00 | |
| DL1XH-west | 2026-09-03 13:59:21 | 51.42604 | 7.57544 | 124° | 164km/h | 9358m | -4.7m/s | -37°C | 76.6% | 308.5hPa | 2.5V | 07:54:23 | 03:09:44 | 00:00:00 | i |
| DJ3KS | 2026-09-03 13:59:20 | 51.42604 | 7.57544 | 125° | 164km/h | 9358m | -4.7m/s | -37.0°C | 72.7% | 308.5hPa | 2.5V | 00:00:00 | 00:00:00 | 00:00:00 | |
| DO3DL | 2026-09-03 13:59:19 | 51.42626 | 7.57489 | 121° | 159km/h | 9363m | -5.0m/s | -37.0°C | 72.1% | 308.4hPa | 2.5V | 07:54:00 | 00:00:00 | 00:00:00 | |
| DB0NH | 2026-09-03 13:59:18 | 51.42662 | 7.57384 | 119° | 144km/h | 9373m | -5.0m/s | -37.1°C | 79.2% | 307.9hPa | 2.5V | 00:00:00 | 03:09:41 | 00:00:00 | |
| DL1XH-15 | 2026-09-03 13:59:17 | 51.42766 | 7.57178 | 134° | 150km/h | 9397m | -5.2m/s | -37.5°C | 82% | 306.9hPa | 2.5V | 07:54:20 | 03:09:36 | 00:00:00 | i |
| BIOWL1-15 | 2026-09-03 13:59:13 | 51.42766 | 7.57178 | 135° | 150km/h | 9397m | -5.2m/s | -37.5°C | 77.2% | 306.9hPa | 2.5V | 07:54:23 | 03:09:36 | 00:00:00 | i |
| DM0DOS-11 | 2026-09-03 13:59:12 | 51.42865 | 7.56972 | 120° | 159km/h | 9417m | -5m/s | -37.5°C | 81% | 306hPa | 2.6V | 07:54:24 | 03:09:32 | 00:00:00 | i |
| DO2JMG | 2026-09-03 13:59:12 | 51.42793 | 7.57132 | 132° | 161km/h | 9402m | -5m/s | -37.4°C | 77.3% | 306.6hPa | 2.4V | 07:59:29 | 03:09:35 | 00:00:00 | i |
| DL1XH-west | 2026-09-03 13:59:11 | 51.42819 | 7.57081 | 128° | 164km/h | 9407m | -4.8m/s | -37.4°C | 77.6% | 306.2hPa | 2.4V | 07:54:23 | 03:09:34 | 00:00:00 | i |
| BIOWL1-15 | 2026-09-03 13:59:04 | 51.42983 | 7.56700 | 135° | 142km/h | 9447m | -4.9m/s | -37.9°C | 77.6% | 304.7hPa | 2.6V | 07:55:14 | 03:09:26 | 00:00:00 | i |
| DM0DOS-11 | 2026-09-03 13:59:02 | 51.43087 | 7.56505 | 123° | 166km/h | 9466m | -4.8m/s | -38°C | 82% | 303.7hPa | 2.4V | 07:54:34 | 03:09:22 | 00:00:00 | i |
| DL1XH-west | 2026-09-03 13:59:01 | 51.43036 | 7.56611 | 132° | 162km/h | 9456m | -5m/s | -37.9°C | 77.4% | 304.2hPa | 2.4V | 07:55:14 | 03:09:24 | 00:00:00 | i |
| DO2JMG | 2026-09-03 13:58:58 | 51.43109 | 7.56449 | 121° | 161km/h | 9471m | -4.9m/s | -38°C | 78% | 303.6hPa | 2.5V | 07:59:29 | 03:09:21 | 00:00:00 | i |
| BUE01 | 2026-09-03 13:58:57 | 51.43128 | 7.56395 | 118° | 150km/h | 9476m | -4.9m/s | -38.1°C | 73.3% | 303.3hPa | 2.4V | 00:00:00 | 00:00:00 | 00:00:00 | |
| DL3AQ-11 | 2026-09-03 13:58:53 | 51.43226 | 7.56177 | 134° | 141km/h | 9500m | -5.0m/s | -38.4°C | 74.6% | 302.2hPa | 2.4V | 00:00:00 | 00:00:00 | 00:00:00 | |
| DM0DOS-11 | 2026-09-03 13:58:52 | 51.43306 | 7.56035 | 127° | 168km/h | 9515m | -4.9m/s | -38.4°C | 84.7% | 301.5hPa | 2.4V | 07:54:44 | 03:09:12 | 00:00:00 | i |
| BIOWL1-15 | 2026-09-03 13:58:52 | 51.43226 | 7.56177 | 134° | 141km/h | 9500m | -5m/s | -38.4°C | 77.8% | 302.2hPa | 2.6V | 07:55:14 | 03:09:15 | 00:00:00 | i |
| DL1XH-west | 2026-09-03 13:58:50 | 51.43280 | 7.56087 | 131° | 162km/h | 9510m | -4.8m/s | -38.4°C | 78.3% | 301.7hPa | 2.4V | 07:55:14 | 03:09:13 | 00:00:00 | i |
| DL9SK-14 | 2026-09-03 13:58:49 | 51.43331 | 7.55980 | 124° | 166km/h | 9520m | -5.1m/s | -38.5°C | 76.0% | 301.4hPa | 2.4V | 00:00:00 | 00:00:00 | 00:00:00 | |
| DB0NH | 2026-09-03 13:58:48 | 51.43331 | 7.55980 | 125° | 159km/h | 9520m | -5.1m/s | -38.4°C | 84.6% | 301.4hPa | 2.4V | 00:00:00 | 03:09:11 | 00:00:00 | |
| DL1XH-15 | 2026-09-03 13:58:47 | 51.43449 | 7.55693 | 131° | 130km/h | 9549m | -5.3m/s | -38.8°C | 82.7% | 300hPa | 2.6V | 07:54:51 | 03:09:05 | 00:00:00 | i |
| DO2JMG | 2026-09-03 13:58:47 | 51.43353 | 7.55925 | 121° | 159km/h | 9525m | -5.3m/s | -38.5°C | 79.7% | 301.2hPa | 2.6V | 07:59:29 | 03:09:10 | 00:00:00 | i |
| DL8DAS-14 | 2026-09-03 13:58:47 | 51.43373 | 7.55871 | 119° | 148km/h | 9530m | -5.0m/s | -38.6°C | 76.0% | 301.0hPa | 2.4V | 00:00:00 | 00:00:00 | 00:00:00 | i |
| DO9LL-15 | 2026-09-03 13:58:46 | 51.43373 | 7.55871 | 120° | 148km/h | 9530m | -5.0m/s | -38.6°C | 84.6% | 300.9hPa | 2.4V | 00:00:00 | 03:09:09 | 00:00:00 | |
| DD1CC1-15 | 2026-09-03 13:58:45 | 51.43373 | 7.55871 | 121° | 150km/h | 9530m | -5.0m/s | -38.6°C | 76.1% | 301.0hPa | 2.4V | 07:55:00 | 00:00:00 | 00:00:00 | |
| DM0DOS-11 | 2026-09-03 13:58:44 | 51.43526 | 7.55565 | 131° | 166km/h | 9565m | -4.7m/s | -38.9°C | 82.1% | 299.3hPa | 2.4V | 07:54:54 | 03:09:02 | 00:00:00 | i |
| DD1CC8 | 2026-09-03 13:58:44 | 51.43409 | 7.55775 | 123° | 128km/h | 9540m | -4.6m/s | -38.7°C | 75.2% | 300.4hPa | 2.6V | 00:00:00 | 00:00:00 | 00:00:00 | i |
| BIOWL1-15 | 2026-09-03 13:58:41 | 51.43472 | 7.55654 | 135° | 139km/h | 9555m | -5.4m/s | -38.9°C | 79.2% | 299.9hPa | 2.6V | 07:55:14 | 03:09:04 | 00:00:00 | i |
| DL1XH-west | 2026-09-03 13:58:40 | 51.43498 | 7.55612 | 135° | 153km/h | 9560m | -5.1m/s | -38.9°C | 78.6% | 299.6hPa | 2.4V | 07:55:14 | 03:09:03 | 00:00:00 | i |
| DJ2DS-15 | 2026-09-03 13:58:39 | 51.43526 | 7.55565 | 131° | 164km/h | 9565m | -4.7m/s | -38.9°C | 73.7% | 299.3hPa | 2.4V | 00:00:00 | 00:00:00 | 00:00:00 | |
| SONCRA | 2026-09-03 13:58:38 | 51.43553 | 7.55512 | 127° | 170km/h | 9570m | -4.8m/s | -38.9°C | 73.0% | 299.3hPa | 2.4V | 00:00:00 | 00:00:00 | 00:00:00 | |
| DL8DAS-15 | 2026-09-03 13:58:36 | 51.43577 | 7.55457 | 124° | 166km/h | 9575m | -5.2m/s | -38.9°C | 72.0% | 299.0hPa | 2.4V | 00:00:00 | 00:00:00 | 00:00:00 | |
| AU51GT2 | 2026-09-03 13:58:34 | 51.43635 | 7.55302 | 123° | 131km/h | 9589m | -4.5m/s | -39.1°C | 69.4% | 298.3hPa | 2.4V | 00:00:00 | 00:00:00 | 00:00:00 | |
| DD1CC3-15 | 2026-09-03 13:58:33 | 51.43635 | 7.55302 | 124° | 131km/h | 9589m | -4.5m/s | -39.1°C | 69.5% | 298.3hPa | 2.4V | 07:55:00 | 00:00:00 | 00:00:00 | |
| DM0DOS-11 | 2026-09-03 13:58:32 | 51.43752 | 7.55089 | 132° | 162km/h | 9613m | -4.6m/s | -39.2°C | 79.4% | 297.3hPa | 2.4V | 07:55:04 | 03:08:52 | 00:00:00 | i |
| BIOWL1-15 | 2026-09-03 13:58:30 | 51.43724 | 7.55135 | 134° | 153km/h | 9608m | -4.6m/s | -39.2°C | 74.2% | 297.5hPa | 2.5V | 07:55:14 | 03:08:53 | 00:00:00 | i |
| DL1XH-west | 2026-09-03 13:58:29 | 51.43751 | 7.55089 | 132° | 162km/h | 9613m | -4.6m/s | -39.2°C | 74.4% | 297.3hPa | 2.4V | 07:55:14 | 03:08:52 | 00:00:00 | i |
| DL4BBY-15 | 2026-09-03 13:58:29 | 51.43751 | 7.55089 | 133° | 151km/h | 9613m | -4.6m/s | -39.0°C | 0% | 0hPa | 2.5V | 00:00:00 | 00:00:00 | 00:00:00 | i |
| DH3RM | 2026-09-03 13:58:28 | 51.43751 | 7.55088 | 133° | 162km/h | 9613m | -4.6m/s | -39.2°C | 71.1% | 297.3hPa | 2.5V | 07:55:00 | 00:00:00 | 00:00:00 | |
| DJ3KS | 2026-09-03 13:58:27 | 51.43779 | 7.55038 | 130° | 168km/h | 9617m | -4.9m/s | -39.3°C | 71.8% | 297.1hPa | 2.5V | 00:00:00 | 00:00:00 | 00:00:00 | |
| BUE01 | 2026-09-03 13:58:26 | 51.43829 | 7.54928 | 122° | 164km/h | 9627m | -5.1m/s | -39.4°C | 72.2% | 296.7hPa | 2.5V | 00:00:00 | 00:00:00 | 00:00:00 | |
| DL3AQ-11 | 2026-09-03 13:58:25 | 51.43850 | 7.54872 | 119° | 157km/h | 9632m | -5.1m/s | -39.4°C | 72.0% | 296.4hPa | 2.5V | 00:00:00 | 00:00:00 | 00:00:00 | |
| DB0UT-7 | 2026-09-03 13:58:24 | 51.43869 | 7.54818 | 119° | 151km/h | 9637m | -4.7m/s | -39.4°C | 80.4% | 296.1hPa | 2.5V | 00:00:00 | 00:00:00 | 00:00:00 | |
| DM0DOS-11 | 2026-09-03 13:58:22 | 51.43969 | 7.54593 | 134° | 148km/h | 9662m | -4.6m/s | -39.6°C | 80.3% | 295.1hPa | 2.5V | 07:55:14 | 03:08:42 | 00:00:00 | i |
| BIOWL1-15 | 2026-09-03 13:58:21 | 51.43969 | 7.54593 | 134° | 148km/h | 9662m | -4.6m/s | -39.7°C | 77% | 295.1hPa | 2.5V | 07:55:14 | 03:08:42 | 00:00:00 | i |
| DL1XH-west | 2026-09-03 13:58:18 | 51.43996 | 7.54548 | 134° | 161km/h | 9666m | -4.7m/s | -39.7°C | 77% | 295hPa | 2.4V | 07:56:05 | 03:08:41 | 00:00:00 | i |
| DL9SK-14 | 2026-09-03 13:58:18 | 51.44025 | 7.54500 | 132° | 168km/h | 9671m | -5.3m/s | -39.8°C | 72.7% | 294.9hPa | 2.4V | 00:00:00 | 00:00:00 | 00:00:00 | i |
| DO9LL-15 | 2026-09-03 13:58:16 | 51.44053 | 7.54447 | 129° | 153km/h | 9677m | -5.8m/s | -39.8°C | 81.5% | 294.5hPa | 2.4V | 00:00:00 | 03:08:39 | 00:00:00 | |
| DC6BW-12 | 2026-09-03 13:58:15 | 51.44053 | 7.54447 | 129° | 173km/h | 9677m | -5.8m/s | -39.8°C | 72.9% | 294.5hPa | 2.4V | 07:56:00 | 00:00:00 | 00:00:00 | |
| DO3DL | 2026-09-03 13:58:14 | 51.44078 | 7.54391 | 125° | 170km/h | 9683m | -5.6m/s | -39.8°C | 72.6% | 294.3hPa | 2.4V | 07:56:00 | 00:00:00 | 00:00:00 | |
| DD1CC8 | 2026-09-03 13:58:13 | 51.44119 | 7.54281 | 118° | 142km/h | 9692m | -4.4m/s | -39.9°C | 72.3% | 293.8hPa | 2.4V | 00:00:00 | 00:00:00 | 00:00:00 | |
| DM0DOS-11 | 2026-09-03 13:58:12 | 51.44199 | 7.54106 | 134° | 146km/h | 9712m | -5.1m/s | -40.1°C | 81.5% | 292.9hPa | 2.4V | 07:55:24 | 03:08:32 | 00:00:00 | i |
| BIOWL1-15 | 2026-09-03 13:58:10 | 51.44227 | 7.54062 | 134° | 161km/h | 9717m | -4.8m/s | -40.2°C | 77.8% | 292.8hPa | 2.4V | 07:56:05 | 03:08:31 | 00:00:00 | i |
| DL1XH-west | 2026-09-03 13:58:07 | 51.44255 | 7.54012 | 131° | 172km/h | 9722m | -5.2m/s | -40.2°C | 78.2% | 292.6hPa | 2.4V | 07:56:05 | 03:08:30 | 00:00:00 | i |
| DO2KSM | 2026-09-03 13:58:06 | 51.44255 | 7.54012 | 132° | 172km/h | 9722m | -5.2m/s | -40.2°C | 75.2% | 292.6hPa | 2.4V | 07:56:00 | 00:00:00 | 00:00:00 | |
| DO1YAY-16 | 2026-09-03 13:58:05 | 51.44306 | 7.53900 | 121° | 164km/h | 9733m | -5.3m/s | -40.3°C | 74.6% | 292.0hPa | 2.4V | 00:00:00 | 00:00:00 | 00:00:00 | |
| DJ2DS-15 | 2026-09-03 13:58:04 | 51.44344 | 7.53793 | 120° | 137km/h | 9742m | -4.9m/s | -40.4°C | 75.3% | 291.7hPa | 2.4V | 00:00:00 | 00:00:00 | 00:00:00 | |
| NBG1-10 | 2026-09-03 13:58:03 | 51.44344 | 7.53793 | 121° | 151km/h | 9743m | -4.8m/s | 0°C | 0% | 0hPa | 2.4V | 00:00:00 | 03:08:26 | 00:00:00 | |
| DF5WG-10 | 2026-09-03 13:58:02 | 51.44362 | 7.53748 | 126° | 157km/h | 9748m | -4.9m/s | -40.4°C | 84.4% | 291.5hPa | 2.4V | 00:00:00 | 03:08:25 | 00:00:00 | |
| DK5PH-5 | 2026-09-03 13:58:01 | 51.44383 | 7.53705 | 131° | 141km/h | 9752m | -4.9m/s | -40.4°C | 84.4% | 291.2hPa | 2.4V | 07:55:00 | 03:08:24 | 00:00:00 | |
| DM0DOS-11 | 2026-09-03 13:58:00 | 51.44434 | 7.53619 | 134° | 159km/h | 9762m | -4.8m/s | -40.5°C | 84.6% | 290.8hPa | 2.4V | 07:55:34 | 03:08:22 | 00:00:00 | i |
| BIOWL1-15 | 2026-09-03 13:57:58 | 51.44462 | 7.53571 | 132° | 168km/h | 9767m | -4.9m/s | -40.6°C | 79.4% | 290.6hPa | 2.4V | 07:56:05 | 03:08:21 | 00:00:00 | i |
| DL1XH-west | 2026-09-03 13:57:56 | 51.44517 | 7.53463 | 126° | 173km/h | 9777m | -5.3m/s | -40.6°C | 79.2% | 290.2hPa | 2.5V | 07:56:05 | 03:08:19 | 00:00:00 | i |
| BIOWL1-15 | 2026-09-03 13:57:53 | 51.44691 | 7.53074 | 134° | 161km/h | 9817m | -4.7m/s | -41°C | 79.3% | 288.4hPa | 2.4V | 07:56:05 | 03:08:11 | 00:00:00 | i |
| DF5WG-10 | 2026-09-03 13:57:51 | 51.44619 | 7.53203 | 126° | 153km/h | 9802m | -5.4m/s | -40.8°C | 84.2% | 289.1hPa | 2.6V | 00:00:00 | 03:08:14 | 00:00:00 | |
| DM0DOS-11 | 2026-09-03 13:57:50 | 51.44664 | 7.53118 | 134° | 146km/h | 9812m | -5.2m/s | -41°C | 83.8% | 288.7hPa | 2.5V | 07:55:44 | 03:08:12 | 00:00:00 | i |
| DO2JMG | 2026-09-03 13:57:49 | 51.44664 | 7.53118 | 134° | 146km/h | 9812m | -5.2m/s | -41°C | 79.6% | 288.7hPa | 2.5V | 07:59:29 | 03:08:12 | 00:00:00 | i |
| DL1XH-west | 2026-09-03 13:57:45 | 51.44774 | 7.52914 | 124° | 172km/h | 9832m | -5.1m/s | -41°C | 78.8% | 287.9hPa | 2.6V | 07:56:05 | 03:08:08 | 00:00:00 | i |
| DL8DAS-14 | 2026-09-03 13:57:45 | 51.44796 | 7.52857 | 120° | 161km/h | 9837m | -4.8m/s | -41.1°C | 73.5% | 287.7hPa | 2.5V | 00:00:00 | 00:00:00 | 00:00:00 | i |
| DD1CC1-15 | 2026-09-03 13:57:44 | 51.44773 | 7.52914 | 125° | 172km/h | 9833m | -5.1m/s | -41.0°C | 74.2% | 287.9hPa | 2.5V | 07:56:00 | 00:00:00 | 00:00:00 | |
| DD1CC8 | 2026-09-03 13:57:42 | 51.44834 | 7.52753 | 122° | 139km/h | 9846m | -4.2m/s | -41.2°C | 73.2% | 287.3hPa | 2.5V | 00:00:00 | 00:00:00 | 00:00:00 | |
| DF5WG-10 | 2026-09-03 13:57:41 | 51.44854 | 7.52708 | 126° | 162km/h | 9851m | -4.6m/s | -41.1°C | 81.8% | 287.1hPa | 2.5V | 07:55:00 | 03:08:04 | 00:00:00 | |
| DM0DOS-11 | 2026-09-03 13:57:40 | 51.44899 | 7.52620 | 132° | 146km/h | 9860m | -4.9m/s | -41.3°C | 82.2% | 286.7hPa | 2.5V | 07:55:54 | 03:08:02 | 00:00:00 | i |
| BIOWL1-15 | 2026-09-03 13:57:37 | 51.44953 | 7.52526 | 132° | 170km/h | 9869m | -4.5m/s | -41.3°C | 77.5% | 286.3hPa | 2.4V | 07:56:05 | 03:08:00 | 00:00:00 | i |
| DL1XH-west | 2026-09-03 13:57:35 | 51.45009 | 7.52416 | 127° | 179km/h | 9879m | -5m/s | -41.4°C | 77% | 285.9hPa | 2.4V | 07:56:05 | 03:07:58 | 00:00:00 | i |
| DM0DOS-11 | 2026-09-03 13:57:34 | 51.45139 | 7.52085 | 126° | 141km/h | 9908m | -5.1m/s | -41.6°C | 78.5% | 284.7hPa | 2.5V | 07:56:04 | 03:07:52 | 00:00:00 | i |
| BIOWL1-15 | 2026-09-03 13:57:27 | 51.45187 | 7.51995 | 133° | 155km/h | 9918m | -4.8m/s | -41.7°C | 74.1% | 284.2hPa | 2.5V | 07:56:56 | 03:07:50 | 00:00:00 | i |
| DL1XH-west | 2026-09-03 13:57:25 | 51.45244 | 7.51897 | 132° | 175km/h | 9928m | -5.3m/s | -41.9°C | 73.6% | 283.9hPa | 2.4V | 07:56:56 | 03:07:48 | 00:00:00 | i |
| BIOWL1-15 | 2026-09-03 13:57:18 | 51.45455 | 7.51409 | 133° | 157km/h | 9974m | -4.6m/s | -42.2°C | 68.2% | 281.9hPa | 2.6V | 07:56:56 | 03:07:39 | 00:00:00 | i |
| DL1XH-west | 2026-09-03 13:57:14 | 51.45513 | 7.51310 | 132° | 179km/h | 9984m | -5.5m/s | -42.2°C | 66.5% | 281.6hPa | 2.4V | 07:56:56 | 03:07:37 | 00:00:00 | i |
| BIOWL1-15 | 2026-09-03 13:57:06 | 51.45703 | 7.50870 | 133° | 162km/h | 10024m | -4.6m/s | -42.5°C | 65.9% | 279.8hPa | 2.6V | 07:56:56 | 03:07:29 | 00:00:00 | i |
| DO2JMG | 2026-09-03 13:57:05 | 51.45732 | 7.50820 | 132° | 173km/h | 10029m | -4.8m/s | -42.6°C | 65.9% | 279.7hPa | 2.5V | 07:59:29 | 03:07:28 | 00:00:00 | i |
| DL1XH-west | 2026-09-03 13:57:04 | 51.45791 | 7.50707 | 127° | 186km/h | 10039m | -5.3m/s | -42.5°C | 65.7% | 279.3hPa | 2.4V | 07:56:56 | 03:07:26 | 00:00:00 | i |
| BIOWL1-15 | 2026-09-03 13:56:58 | 51.45948 | 7.50313 | 131° | 153km/h | 10074m | -5.1m/s | -42.9°C | 65.9% | 277.7hPa | 2.4V | 07:56:56 | 03:07:19 | 00:00:00 | i |
| DF5WG-10 | 2026-09-03 13:56:56 | 51.45948 | 7.50313 | 131° | 161km/h | 10075m | -5.1m/s | -42.9°C | 68.2% | 277.7hPa | 2.4V | 00:00:00 | 03:07:19 | 00:00:00 | |
| DM0DOS-11 | 2026-09-03 13:56:55 | 51.46032 | 7.50160 | 129° | 183km/h | 10089m | -4.8m/s | -42.9°C | 69.8% | 277.2hPa | 2.4V | 07:56:40 | 03:07:16 | 00:00:00 | i |
| DO2JMG | 2026-09-03 13:56:54 | 51.46003 | 7.50215 | 132° | 173km/h | 10084m | -4.6m/s | -43°C | 66.2% | 277.4hPa | 2.5V | 07:59:29 | 03:07:17 | 00:00:00 | i |
| DL1XH-west | 2026-09-03 13:56:54 | 51.46032 | 7.50160 | 130° | 183km/h | 10089m | -4.9m/s | -42.9°C | 66.5% | 277.2hPa | 2.4V | 07:56:56 | 03:07:16 | 00:00:00 | i |
| BIOWL1-15 | 2026-09-03 13:56:51 | 51.46219 | 7.49698 | 129° | 148km/h | 10128m | -5.2m/s | -43.3°C | 67.1% | 275.6hPa | 2.6V | 07:56:56 | 03:07:08 | 00:00:00 | |
| DJ2DS-15 | 2026-09-03 13:56:51 | 51.46113 | 7.49975 | 120° | 183km/h | 10103m | -4.9m/s | -43.1°C | 61.5% | 276.7hPa | 2.5V | 00:00:00 | 00:00:00 | 00:00:00 | |
| DL1XH-15 | 2026-09-03 13:56:48 | 51.46244 | 7.49651 | 132° | 155km/h | 10133m | -5.2m/s | -43.4°C | 69.4% | 275.4hPa | 2.5V | 07:56:49 | 03:07:07 | 00:00:00 | i |
| HTAHTA | 2026-09-03 13:56:47 | 51.46176 | 7.49796 | 120° | 151km/h | 10118m | -4.9m/s | -43.2°C | 60.2% | 276.0hPa | 2.5V | 00:00:00 | 00:00:00 | 00:00:00 | |
| DO9LL-15 | 2026-09-03 13:56:46 | 51.46196 | 7.49745 | 125° | 172km/h | 10123m | -4.9m/s | -43.2°C | 69.1% | 275.7hPa | 2.5V | 00:00:00 | 03:07:09 | 00:00:00 | |
| DM0DOS-11 | 2026-09-03 13:56:45 | 51.46272 | 7.49603 | 132° | 168km/h | 10138m | -5.1m/s | -43.4°C | 70.5% | 275.2hPa | 2.5V | 07:56:50 | 03:07:06 | 00:00:00 | i |
| DL9SK-14 | 2026-09-03 13:56:44 | 51.46244 | 7.49651 | 132° | 155km/h | 10133m | -5.2m/s | -43.4°C | 60.9% | 275.4hPa | 2.5V | 00:00:00 | 00:00:00 | 00:00:00 | |
| DL1XH-west | 2026-09-03 13:56:43 | 51.46271 | 7.49603 | 133° | 168km/h | 10138m | -5.1m/s | -43.4°C | 67.1% | 275.2hPa | 2.5V | 07:56:56 | 03:07:06 | 00:00:00 | i |
| DL8DAS-14 | 2026-09-03 13:56:43 | 51.46271 | 7.49603 | 132° | 168km/h | 10138m | -5.1m/s | -43.4°C | 61.9% | 275.2hPa | 2.6V | 00:00:00 | 00:00:00 | 00:00:00 | i |
| DB0ND-19 | 2026-09-03 13:56:42 | 51.46301 | 7.49550 | 131° | 179km/h | 10143m | -4.9m/s | -43.4°C | 62.0% | 274.9hPa | 2.6V | 00:00:00 | 00:00:00 | 00:00:00 | |
| DH3RM | 2026-09-03 13:56:41 | 51.46301 | 7.49550 | 132° | 181km/h | 10143m | -4.9m/s | -43.4°C | 62.1% | 274.9hPa | 2.6V | 00:00:00 | 00:00:00 | 00:00:00 | |
| DD1CC8 | 2026-09-03 13:56:40 | 51.46386 | 7.49367 | 121° | 186km/h | 10158m | -5.3m/s | -43.5°C | 61.6% | 274.4hPa | 2.6V | 00:00:00 | 00:00:00 | 00:00:00 | |
| WPPR-10 | 2026-09-03 13:56:39 | 51.46470 | 7.49137 | 125° | 146km/h | 10178m | -5.1m/s | -43.7°C | 60.7% | 273.6hPa | 2.6V | 00:00:00 | 00:00:00 | 00:00:00 | |
| DM0DOS-11 | 2026-09-03 13:56:35 | 51.46519 | 7.49041 | 132° | 161km/h | 10189m | -5.1m/s | -43.9°C | 69.7% | 273.2hPa | 2.6V | 07:57:00 | 03:06:56 | 00:00:00 | i |
| BIOWL1-15 | 2026-09-03 13:56:34 | 51.46493 | 7.49089 | 130° | 151km/h | 10184m | -5.3m/s | -43.8°C | 66.8% | 273.3hPa | 2.5V | 07:57:47 | 03:06:57 | 00:00:00 | i |
| DL1XH-west | 2026-09-03 13:56:33 | 51.46519 | 7.49041 | 133° | 161km/h | 10189m | -5.1m/s | -43.9°C | 66.9% | 273.2hPa | 2.6V | 07:57:47 | 03:06:56 | 00:00:00 | i |
| DO2JMG | 2026-09-03 13:56:32 | 51.46548 | 7.48991 | 133° | 173km/h | 10194m | -5.1m/s | -43.8°C | 66.7% | 272.8hPa | 2.4V | 07:59:29 | 03:06:55 | 00:00:00 | i |
| DD1CC3-15 | 2026-09-03 13:56:31 | 51.46548 | 7.48991 | 134° | 173km/h | 10194m | -5.1m/s | -43.8°C | 60.9% | 272.8hPa | 2.6V | 07:57:00 | 00:00:00 | 00:00:00 | |
| AU51GT2 | 2026-09-03 13:56:30 | 51.46637 | 7.48815 | 123° | 192km/h | 10210m | -5.5m/s | -43.9°C | 60.4% | 272.3hPa | 2.6V | 00:00:00 | 00:00:00 | 00:00:00 | |
| DL4BBY-15 | 2026-09-03 13:56:29 | 51.46637 | 7.48815 | 124° | 172km/h | 10210m | -5.5m/s | -43.7°C | 0% | 0hPa | 2.6V | 00:00:00 | 00:00:00 | 00:00:00 | |
| DL3AQ-11 | 2026-09-03 13:56:26 | 51.46725 | 7.48581 | 125° | 148km/h | 10230m | -5.1m/s | -44.1°C | 60.6% | 271.5hPa | 2.6V | 00:00:00 | 00:00:00 | 00:00:00 | |
| DM0DOS-11 | 2026-09-03 13:56:25 | 51.46774 | 7.48484 | 132° | 164km/h | 10240m | -5.1m/s | -44.3°C | 70.6% | 271hPa | 2.6V | 07:57:10 | 03:06:46 | 00:00:00 | i |
| DL1XH-15 | 2026-09-03 13:56:24 | 51.46834 | 7.48378 | 129° | 188km/h | 10250m | -4.8m/s | -44.3°C | 71% | 270.6hPa | 2.4V | 07:57:12 | 03:06:44 | 00:00:00 | |
| DL1XH-west | 2026-09-03 13:56:23 | 51.46774 | 7.48484 | 133° | 164km/h | 10240m | -5.1m/s | -44.3°C | 67.2% | 271hPa | 2.6V | 07:57:47 | 03:06:46 | 00:00:00 | i |
| BUE01 | 2026-09-03 13:56:22 | 51.46804 | 7.48433 | 132° | 177km/h | 10245m | -4.9m/s | -44.3°C | 61.9% | 270.8hPa | 2.5V | 00:00:00 | 00:00:00 | 00:00:00 | |
| DD1CC1-15 | 2026-09-03 13:56:21 | 51.46803 | 7.48433 | 133° | 177km/h | 10246m | -4.9m/s | -44.3°C | 61.9% | 270.7hPa | 2.5V | 07:57:00 | 00:00:00 | 00:00:00 | |
| DO3DL | 2026-09-03 13:56:20 | 51.46834 | 7.48377 | 131° | 188km/h | 10250m | -4.8m/s | -44.3°C | 62.2% | 270.7hPa | 2.5V | 07:57:00 | 00:00:00 | 00:00:00 | |
| DH3RM | 2026-09-03 13:56:19 | 51.46864 | 7.48317 | 128° | 193km/h | 10255m | -5.0m/s | -44.3°C | 62.1% | 270.5hPa | 2.5V | 00:00:00 | 00:00:00 | 00:00:00 | |
| DO9LL-15 | 2026-09-03 13:56:16 | 51.46958 | 7.48066 | 119° | 173km/h | 10275m | -4.7m/s | -44.5°C | 69.6% | 269.5hPa | 2.5V | 00:00:00 | 03:06:39 | 00:00:00 | |
| DM0DOS-11 | 2026-09-03 13:56:15 | 51.47023 | 7.47912 | 130° | 157km/h | 10290m | -5m/s | -44.7°C | 70% | 269hPa | 2.6V | 07:57:20 | 03:06:36 | 00:00:00 | i |
| BIOWL1-15 | 2026-09-03 13:56:15 | 51.47023 | 7.47912 | 130° | 157km/h | 10290m | -5m/s | -44.7°C | 67.5% | 269hPa | 2.6V | 07:57:47 | 03:06:36 | 00:00:00 | i |
| DB0UT-7 | 2026-09-03 13:56:15 | 51.46978 | 7.48012 | 122° | 172km/h | 10280m | -5.2m/s | -44.5°C | 69.7% | 269.5hPa | 2.4V | 00:00:00 | 00:00:00 | 00:00:00 | i |
| DO3DL | 2026-09-03 13:56:13 | 51.46999 | 7.47961 | 127° | 151km/h | 10285m | -5.2m/s | -44.6°C | 60.7% | 269.2hPa | 2.4V | 07:57:00 | 00:00:00 | 00:00:00 | |
| DL8DAS-14 | 2026-09-03 13:56:12 | 51.47080 | 7.47809 | 131° | 181km/h | 10300m | -4.6m/s | -44.7°C | 60.9% | 268.6hPa | 2.4V | 00:00:00 | 00:00:00 | 00:00:00 | i |
| DL1XH-west | 2026-09-03 13:56:12 | 51.47050 | 7.47862 | 132° | 170km/h | 10295m | -4.7m/s | -44.7°C | 67.3% | 268.7hPa | 2.5V | 07:57:47 | 03:06:35 | 00:00:00 | i |
| DF5WG-10 | 2026-09-03 13:56:11 | 51.47080 | 7.47809 | 132° | 186km/h | 10300m | -4.6m/s | -44.7°C | 69.7% | 268.5hPa | 2.4V | 00:00:00 | 03:06:34 | 00:00:00 | |
| DD1CC8 | 2026-09-03 13:56:09 | 51.47167 | 7.47625 | 122° | 190km/h | 10315m | -5.1m/s | -44.8°C | 60.0% | 268.1hPa | 2.6V | 00:00:00 | 00:00:00 | 00:00:00 | |
| WPPR-10 | 2026-09-03 13:56:08 | 51.47192 | 7.47560 | 119° | 184km/h | 10320m | -5.0m/s | -44.9°C | 59.5% | 267.8hPa | 2.6V | 00:00:00 | 00:00:00 | 00:00:00 | |
| DO3DL | 2026-09-03 13:56:06 | 51.47192 | 7.47560 | 120° | 184km/h | 10320m | -5.0m/s | -44.9°C | 59.5% | 267.8hPa | 2.6V | 07:57:00 | 00:00:00 | 00:00:00 | |
| DM0DOS-11 | 2026-09-03 13:56:05 | 51.47273 | 7.47328 | 125° | 151km/h | 10340m | -5.2m/s | -45.1°C | 68% | 267hPa | 2.6V | 07:57:30 | 03:06:26 | 00:00:00 | i |
| BIOWL1-15 | 2026-09-03 13:56:03 | 51.47273 | 7.47328 | 126° | 151km/h | 10340m | -5.2m/s | -45.1°C | 66.8% | 267hPa | 2.6V | 07:57:47 | 03:06:26 | 00:00:00 | i |
| DL1XH-west | 2026-09-03 13:56:01 | 51.47325 | 7.47228 | 132° | 170km/h | 10350m | -5m/s | -45.2°C | 67% | 266.5hPa | 2.4V | 07:57:47 | 03:06:24 | 00:00:00 | |
| DL1LOL-11 | 2026-09-03 13:56:01 | 51.47325 | 7.47228 | 133° | 170km/h | 10350m | -5.0m/s | -45.2°C | 60.0% | 266.5hPa | 2.6V | 00:00:00 | 00:00:00 | 00:00:00 | |
| DD1CC1-15 | 2026-09-03 13:56:00 | 51.47325 | 7.47228 | 133° | 170km/h | 10350m | -5.0m/s | -45.2°C | 60.0% | 266.5hPa | 2.6V | 07:57:00 | 00:00:00 | 00:00:00 | |
| DL4BBY-15 | 2026-09-03 13:55:59 | 51.47385 | 7.47118 | 130° | 173km/h | 10361m | -5.8m/s | -45.1°C | 0% | 0hPa | 2.6V | 00:00:00 | 00:00:00 | 00:00:00 | |
| DM0DOS-11 | 2026-09-03 13:55:55 | 51.47522 | 7.46757 | 125° | 153km/h | 10391m | -5.2m/s | -45.5°C | 69.8% | 265hPa | 2.6V | 07:57:40 | 03:06:16 | 00:00:00 | i |
| DO2JMG | 2026-09-03 13:55:51 | 51.47573 | 7.46656 | 131° | 172km/h | 10401m | -4.6m/s | -45.6°C | 67.5% | 264.5hPa | 2.5V | 07:59:29 | 03:06:14 | 00:00:00 | i |
| DL1XH-west | 2026-09-03 13:55:50 | 51.47603 | 7.46601 | 130° | 184km/h | 10406m | -4.9m/s | -45.7°C | 67.4% | 264.4hPa | 2.4V | 07:57:47 | 03:06:13 | 00:00:00 | i |
| DF5WG-10 | 2026-09-03 13:55:49 | 51.47632 | 7.46542 | 128° | 192km/h | 10411m | -5.2m/s | -45.7°C | 71.1% | 264.2hPa | 2.5V | 00:00:00 | 03:06:12 | 00:00:00 | |
| DO9LL-15 | 2026-09-03 13:55:46 | 51.47710 | 7.46344 | 118° | 175km/h | 10427m | -5.1m/s | -45.7°C | 68.9% | 263.5hPa | 2.5V | 07:57:00 | 03:06:09 | 00:00:00 | |
| DM0DOS-11 | 2026-09-03 13:55:45 | 51.47769 | 7.46164 | 121° | 151km/h | 10442m | -5.3m/s | -45.9°C | 66.1% | 263hPa | 2.5V | 07:57:50 | 03:06:06 | 00:00:00 | i |
| BIOWL1-15 | 2026-09-03 13:55:42 | 51.47791 | 7.46113 | 127° | 153km/h | 10448m | -5.1m/s | -46°C | 65.5% | 262.7hPa | 2.4V | 07:58:38 | 03:06:05 | 00:00:00 | i |
| DO2JMG | 2026-09-03 13:55:41 | 51.47816 | 7.46063 | 131° | 164km/h | 10453m | -5m/s | -46.1°C | 65.3% | 262.5hPa | 2.4V | 07:59:29 | 03:06:04 | 00:00:00 | i |
| DL1XH-west | 2026-09-03 13:55:40 | 51.47845 | 7.46011 | 131° | 179km/h | 10458m | -5.1m/s | -46.1°C | 65% | 262.4hPa | 2.6V | 07:58:38 | 03:06:03 | 00:00:00 | i |
| DJ2DS-15 | 2026-09-03 13:55:39 | 51.47903 | 7.45891 | 124° | 193km/h | 10468m | -5.0m/s | -46.1°C | 57.7% | 261.9hPa | 2.5V | 00:00:00 | 00:00:00 | 00:00:00 | |
| DM0DOS-11 | 2026-09-03 13:55:38 | 51.48011 | 7.45581 | 122° | 155km/h | 10491m | -4.8m/s | -46.4°C | 63.6% | 261.1hPa | 2.5V | 07:58:00 | 03:05:56 | 00:00:00 | i |
| BIOWL1-15 | 2026-09-03 13:55:32 | 51.48034 | 7.45530 | 127° | 157km/h | 10496m | -4.7m/s | -46.5°C | 62.4% | 260.8hPa | 2.6V | 07:58:38 | 03:05:55 | 00:00:00 | i |
| DO2JMG | 2026-09-03 13:55:30 | 51.48088 | 7.45426 | 131° | 179km/h | 10505m | -5m/s | -46.6°C | 62.3% | 260.5hPa | 2.4V | 07:59:29 | 03:05:53 | 00:00:00 | i |
| DL1XH-west | 2026-09-03 13:55:29 | 51.48118 | 7.45369 | 130° | 188km/h | 10510m | -5.3m/s | -46.6°C | 62.2% | 260.3hPa | 2.4V | 07:58:38 | 03:05:52 | 00:00:00 | i |
| DL4BBY-15 | 2026-09-03 13:55:29 | 51.48118 | 7.45369 | 130° | 181km/h | 10510m | -5.2m/s | -46.4°C | 0% | 0hPa | 2.6V | 00:00:00 | 00:00:00 | 00:00:00 | i |
| AU51GT2 | 2026-09-03 13:55:28 | 51.48177 | 7.45243 | 122° | 197km/h | 10521m | -4.9m/s | -46.6°C | 54.8% | 259.8hPa | 2.6V | 00:00:00 | 00:00:00 | 00:00:00 | |
| DH3RM | 2026-09-03 13:55:26 | 51.48177 | 7.45243 | 124° | 197km/h | 10521m | -4.9m/s | -46.6°C | 54.8% | 259.8hPa | 2.6V | 07:58:00 | 00:00:00 | 00:00:00 | |
| DO3DL | 2026-09-03 13:55:25 | 51.48203 | 7.45175 | 120° | 193km/h | 10526m | -4.9m/s | -46.6°C | 54.5% | 259.6hPa | 2.6V | 07:58:00 | 00:00:00 | 00:00:00 | |
| DM0DOS-11 | 2026-09-03 13:55:24 | 51.48266 | 7.44984 | 119° | 162km/h | 10541m | -5.1m/s | -46.8°C | 61.8% | 259.1hPa | 2.6V | 07:58:10 | 03:05:46 | 00:00:00 | i |
| BIOWL1-15 | 2026-09-03 13:55:21 | 51.48310 | 7.44877 | 128° | 159km/h | 10551m | -4.7m/s | -46.9°C | 61.7% | 258.7hPa | 2.4V | 07:58:38 | 03:05:44 | 00:00:00 | i |
| DO2JMG | 2026-09-03 13:55:19 | 51.48365 | 7.44773 | 131° | 179km/h | 10561m | -5.3m/s | -47°C | 61.9% | 258.3hPa | 2.6V | 07:59:29 | 03:05:42 | 00:00:00 | i |
| DO3DL | 2026-09-03 13:55:18 | 51.48365 | 7.44773 | 132° | 179km/h | 10561m | -5.3m/s | -47.0°C | 54.8% | 258.3hPa | 2.6V | 07:58:00 | 00:00:00 | 00:00:00 | |
| BIOWL7-15 | 2026-09-03 13:55:17 | 51.48395 | 7.44716 | 131° | 190km/h | 10566m | -5.2m/s | -47.0°C | 55.4% | 258.2hPa | 2.6V | 07:58:00 | 00:00:00 | 00:00:00 | |
| DO9LL-15 | 2026-09-03 13:55:16 | 51.48455 | 7.44588 | 124° | 179km/h | 10576m | -5.1m/s | -47.0°C | 64.0% | 257.6hPa | 2.6V | 00:00:00 | 03:05:39 | 00:00:00 | |
| DM0DOS-11 | 2026-09-03 13:55:15 | 51.48527 | 7.44387 | 117° | 175km/h | 10591m | -5.1m/s | -47.2°C | 63.8% | 257.1hPa | 2.6V | 07:58:20 | 03:05:36 | 00:00:00 | i |
| BIOWL1-15 | 2026-09-03 13:55:12 | 51.48593 | 7.44219 | 128° | 159km/h | 10606m | -4.8m/s | -47.4°C | 63% | 256.5hPa | 2.4V | 07:58:38 | 03:05:33 | 00:00:00 | i |
| DL1XH-west | 2026-09-03 13:55:08 | 51.48647 | 7.44116 | 132° | 177km/h | 10616m | -5.4m/s | -47.5°C | 63.5% | 256.1hPa | 2.6V | 07:58:38 | 03:05:31 | 00:00:00 | i |
| DL3AQ-11 | 2026-09-03 13:55:06 | 51.48738 | 7.43934 | 124° | 201km/h | 10631m | -4.7m/s | -47.6°C | 58.5% | 255.6hPa | 2.4V | 00:00:00 | 00:00:00 | 00:00:00 | |
| DL1XH-15 | 2026-09-03 13:55:05 | 51.48852 | 7.43612 | 121° | 159km/h | 10656m | -4.8m/s | -47.8°C | 66.9% | 254.6hPa | 2.4V | 07:58:33 | 03:05:23 | 00:00:00 | i |
| DO2JMG | 2026-09-03 13:55:00 | 51.48852 | 7.43612 | 122° | 159km/h | 10656m | -4.8m/s | -47.8°C | 66.1% | 254.6hPa | 2.4V | 07:59:29 | 03:05:23 | 00:00:00 | i |
| DL1XH-west | 2026-09-03 13:54:58 | 51.48900 | 7.43508 | 130° | 166km/h | 10666m | -5.2m/s | -48°C | 66.5% | 254.3hPa | 2.5V | 07:58:38 | 03:05:21 | 00:00:00 | i |
| AU51GT2 | 2026-09-03 13:54:57 | 51.48959 | 7.43399 | 130° | 192km/h | 10676m | -4.8m/s | -48.0°C | 59.3% | 253.8hPa | 2.6V | 00:00:00 | 00:00:00 | 00:00:00 | |
| DF5WG-10 | 2026-09-03 13:54:55 | 51.48990 | 7.43337 | 128° | 181km/h | 10681m | -4.9m/s | -48.0°C | 69.4% | 253.6hPa | 2.6V | 07:58:00 | 03:05:18 | 00:00:00 | |
| DL1XH-15 | 2026-09-03 13:54:54 | 51.49110 | 7.43010 | 118° | 162km/h | 10706m | -4.9m/s | -48.3°C | 69.9% | 252.7hPa | 2.5V | 07:58:43 | 03:05:13 | 00:00:00 | i |
| BIOWL1-15 | 2026-09-03 13:54:51 | 51.49131 | 7.42954 | 123° | 157km/h | 10711m | -5m/s | -48.3°C | 68.2% | 252.6hPa | 2.5V | 07:59:29 | 03:05:12 | 00:00:00 | i |
| DO2JMG | 2026-09-03 13:54:50 | 51.49110 | 7.43010 | 119° | 162km/h | 10706m | -4.9m/s | -48.3°C | 68% | 252.7hPa | 2.5V | 07:59:29 | 03:05:13 | 00:00:00 | i |
| DL1XH-west | 2026-09-03 13:54:47 | 51.49180 | 7.42850 | 130° | 170km/h | 10721m | -4.8m/s | -48.5°C | 69% | 252.2hPa | 2.6V | 07:59:29 | 03:05:10 | 00:00:00 | i |
| DO2JMG | 2026-09-03 13:54:39 | 51.49381 | 7.42343 | 118° | 159km/h | 10759m | -4.9m/s | -48.8°C | 71% | 250.8hPa | 2.5V | 07:59:29 | 03:05:02 | 00:00:00 | i |
| BIOWL1-15 | 2026-09-03 13:54:38 | 51.49401 | 7.42289 | 123° | 155km/h | 10764m | -5.1m/s | -48.8°C | 70.9% | 250.5hPa | 2.6V | 07:59:29 | 03:05:01 | 00:00:00 | i |
| DL1XH-west | 2026-09-03 13:54:37 | 51.49423 | 7.42237 | 128° | 159km/h | 10769m | -4.9m/s | -48.9°C | 71% | 250.3hPa | 2.6V | 07:59:29 | 03:05:00 | 00:00:00 | i |
| DD1CC8 | 2026-09-03 13:54:35 | 51.49479 | 7.42129 | 130° | 184km/h | 10778m | -4.6m/s | -49.0°C | 63.4% | 249.9hPa | 2.5V | 00:00:00 | 00:00:00 | 00:00:00 | |
| DM0DOS-11 | 2026-09-03 13:54:34 | 51.49538 | 7.42004 | 124° | 201km/h | 10788m | -5.2m/s | -49°C | 73.7% | 249.6hPa | 2.5V | 07:59:00 | 03:04:56 | 00:00:00 | i |
| BIOWL1-15 | 2026-09-03 13:54:28 | 51.49648 | 7.41683 | 121° | 157km/h | 10812m | -4.8m/s | -49.3°C | 71.2% | 248.7hPa | 2.4V | 07:59:29 | 03:04:51 | 00:00:00 | i |
| DL1XH-west | 2026-09-03 13:54:27 | 51.49670 | 7.41630 | 125° | 157km/h | 10816m | -4.6m/s | -49.4°C | 71.2% | 248.5hPa | 2.5V | 07:59:29 | 03:04:50 | 00:00:00 | i |
| DO2JMG | 2026-09-03 13:54:25 | 51.49721 | 7.41525 | 130° | 175km/h | 10825m | -4.5m/s | -49.5°C | 71.2% | 248.1hPa | 2.6V | 07:59:29 | 03:04:48 | 00:00:00 | i |
| DJ2KF-10 | 2026-09-03 13:54:23 | 51.49780 | 7.41408 | 128° | 179km/h | 10834m | -4.4m/s | -49.5°C | 75.1% | 247.8hPa | 2.5V | 00:00:00 | 03:04:46 | 00:00:00 | |
| BIOWL9-15 | 2026-09-03 13:54:21 | 51.49860 | 7.41208 | 117° | 192km/h | 10848m | -4.8m/s | -49.6°C | 63.3% | 247.2hPa | 2.5V | 00:00:00 | 00:00:00 | 00:00:00 | |
| DL1XH-15 | 2026-09-03 13:54:19 | 51.49901 | 7.41075 | 115° | 172km/h | 10858m | -5.2m/s | -49.7°C | 72.8% | 247hPa | 2.5V | 07:59:15 | 03:04:41 | 00:00:00 | i |
| DL1XH-west | 2026-09-03 13:54:16 | 51.49940 | 7.40960 | 123° | 157km/h | 10868m | -4.6m/s | -49.9°C | 70.3% | 246.6hPa | 2.5V | 07:59:29 | 03:04:39 | 00:00:00 | |
| BIOWL1-15 | 2026-09-03 13:54:07 | 51.50172 | 7.40413 | 117° | 170km/h | 10911m | -4.6m/s | -50.2°C | 68.1% | 244.9hPa | 2.6V | 07:59:29 | 03:04:30 | 00:00:00 | i |
| DO2JMG | 2026-09-03 13:54:05 | 51.50212 | 7.40300 | 124° | 155km/h | 10920m | -4.7m/s | -50.4°C | 67.6% | 244.5hPa | 2.6V | 07:59:29 | 03:04:28 | 00:00:00 | i |
| DD1CC8 | 2026-09-03 13:54:04 | 51.50235 | 7.40249 | 127° | 157km/h | 10925m | -5.0m/s | -50.4°C | 59.5% | 244.5hPa | 2.6V | 00:00:00 | 00:00:00 | 00:00:00 | |
| DF5WG-10 | 2026-09-03 13:54:03 | 51.50261 | 7.40197 | 131° | 175km/h | 10930m | -5.1m/s | -50.3°C | 70.4% | 244.2hPa | 2.6V | 00:00:00 | 03:04:26 | 00:00:00 | |
| DL3AQ-11 | 2026-09-03 13:54:01 | 51.50319 | 7.40084 | 128° | 193km/h | 10940m | -4.6m/s | -50.4°C | 60.7% | 243.8hPa | 2.6V | 00:00:00 | 00:00:00 | 00:00:00 | |
| DL1XH-15 | 2026-09-03 13:53:59 | 51.50483 | 7.39642 | 124° | 153km/h | 10974m | -5m/s | -50.8°C | 67.6% | 242.6hPa | 2.6V | 07:59:39 | 03:04:17 | 00:00:00 | i |
| BIOWL1-15 | 2026-09-03 13:53:57 | 51.50423 | 7.39816 | 117° | 181km/h | 10960m | -5.2m/s | -50.6°C | 66.5% | 243.2hPa | 2.4V | 08:00:20 | 03:04:20 | 00:00:00 | |
| DO2JMG | 2026-09-03 13:53:54 | 51.50483 | 7.39642 | 125° | 153km/h | 10974m | -5m/s | -50.8°C | 65.8% | 242.6hPa | 2.6V | 08:00:20 | 03:04:17 | 00:00:00 | i |
| DJ2DS-15 | 2026-09-03 13:53:51 | 51.50594 | 7.39424 | 127° | 197km/h | 10995m | -5.1m/s | -50.9°C | 57.5% | 241.8hPa | 2.6V | 00:00:00 | 00:00:00 | 00:00:00 | |
| BIOWL9-15 | 2026-09-03 13:53:50 | 51.50624 | 7.39359 | 124° | 203km/h | 11000m | -5.4m/s | -51.0°C | 57.3% | 241.7hPa | 2.6V | 00:00:00 | 00:00:00 | 00:00:00 | |
| DL1XH-15 | 2026-09-03 13:53:49 | 51.50736 | 7.39047 | 126° | 155km/h | 11026m | -5.1m/s | -51.3°C | 65.8% | 240.7hPa | 2.6V | 07:59:49 | 03:04:07 | 00:00:00 | i |
| BIOWL1-15 | 2026-09-03 13:53:47 | 51.50674 | 7.39222 | 117° | 186km/h | 11011m | -5.6m/s | -51.1°C | 65% | 241.3hPa | 2.6V | 08:00:20 | 03:04:10 | 00:00:00 | i |
| DL1XH-west | 2026-09-03 13:53:44 | 51.50736 | 7.39047 | 127° | 155km/h | 11026m | -5.1m/s | -51.3°C | 64% | 240.7hPa | 2.6V | 08:00:20 | 03:04:07 | 00:00:00 | i |
| DM0DOS-11 | 2026-09-03 13:53:44 | 51.50761 | 7.38997 | 130° | 164km/h | 11031m | -5.4m/s | -51.3°C | 66.2% | 240.5hPa | 2.6V | 07:59:50 | 03:04:06 | 00:00:00 | i |
| DO2JMG | 2026-09-03 13:53:43 | 51.50761 | 7.38997 | 130° | 164km/h | 11031m | -5.4m/s | -51.3°C | 63.8% | 240.5hPa | 2.6V | 08:00:20 | 03:04:06 | 00:00:00 | i |
| BIOWL1-15 | 2026-09-03 13:53:37 | 51.50918 | 7.38619 | 117° | 173km/h | 11061m | -5.5m/s | -51.5°C | 61.3% | 239.3hPa | 2.5V | 08:00:20 | 03:04:00 | 00:00:00 | i |
| DL8DAS-14 | 2026-09-03 13:53:37 | 51.50937 | 7.38558 | 117° | 161km/h | 11067m | -5.1m/s | -51.6°C | 51.7% | 239.2hPa | 2.4V | 00:00:00 | 00:00:00 | 00:00:00 | i |
| DB0ND-19 | 2026-09-03 13:53:36 | 51.50937 | 7.38558 | 117° | 161km/h | 11067m | -5.1m/s | -51.6°C | 51.7% | 239.2hPa | 2.4V | 00:00:00 | 00:00:00 | 00:00:00 | |
| DH3RM | 2026-09-03 13:53:35 | 51.50938 | 7.38558 | 119° | 161km/h | 11067m | -5.1m/s | -51.6°C | 51.8% | 239.2hPa | 2.4V | 08:00:00 | 00:00:00 | 00:00:00 | |
| DL1XH-15 | 2026-09-03 13:53:34 | 51.51005 | 7.38401 | 130° | 164km/h | 11081m | -5.2m/s | -51.7°C | 63.3% | 238.7hPa | 2.4V | 08:00:00 | 03:03:56 | 00:00:00 | i |
| DO2JMG | 2026-09-03 13:53:33 | 51.51005 | 7.38401 | 131° | 164km/h | 11082m | -5.2m/s | -51.7°C | 61.3% | 238.7hPa | 2.4V | 08:00:20 | 03:03:56 | 00:00:00 | i |
| BIOWL1-15 | 2026-09-03 13:53:26 | 51.51188 | 7.37968 | 117° | 170km/h | 11117m | -5.1m/s | -52.1°C | 61.5% | 237.3hPa | 2.5V | 08:00:20 | 03:03:49 | 00:00:00 | i |
| DL1XH-15 | 2026-09-03 13:53:24 | 51.51250 | 7.37806 | 127° | 153km/h | 11132m | -5.2m/s | -52.2°C | 63% | 236.8hPa | 2.6V | 08:00:10 | 03:03:46 | 00:00:00 | i |
| DO2JMG | 2026-09-03 13:53:23 | 51.51250 | 7.37806 | 128° | 153km/h | 11132m | -5.2m/s | -52.2°C | 61.3% | 236.8hPa | 2.6V | 08:00:20 | 03:03:46 | 00:00:00 | i |
| DL1XH-west | 2026-09-03 13:53:22 | 51.51276 | 7.37757 | 131° | 164km/h | 11137m | -5.2m/s | -52.3°C | 61.2% | 236.6hPa | 2.6V | 08:00:20 | 03:03:45 | 00:00:00 | i |
| BIOWL1-15 | 2026-09-03 13:53:15 | 51.51457 | 7.37325 | 117° | 164km/h | 11173m | -5.1m/s | -52.6°C | 60% | 235.2hPa | 2.4V | 08:00:20 | 03:03:38 | 00:00:00 | i |
| DL1XH-15 | 2026-09-03 13:53:14 | 51.51496 | 7.37216 | 123° | 150km/h | 11183m | -5.1m/s | -52.6°C | 61.5% | 235hPa | 2.5V | 08:00:20 | 03:03:36 | 00:00:00 | |
| DL1XH-west | 2026-09-03 13:53:12 | 51.51518 | 7.37166 | 128° | 153km/h | 11189m | -5.1m/s | -52.7°C | 59.5% | 234.7hPa | 2.6V | 08:01:11 | 03:03:35 | 00:00:00 | i |
| DK5PH-5 | 2026-09-03 13:53:12 | 51.51518 | 7.37166 | 129° | 162km/h | 11189m | -5.1m/s | -52.6°C | 61.4% | 234.7hPa | 2.6V | 00:00:00 | 03:03:35 | 00:00:00 | i |
| HTAHTA | 2026-09-03 13:53:10 | 51.51573 | 7.37064 | 130° | 177km/h | 11199m | -5.2m/s | -52.8°C | 51.9% | 234.2hPa | 2.6V | 00:00:00 | 00:00:00 | 00:00:00 | |
| DL8DAS-15 | 2026-09-03 13:53:09 | 51.51572 | 7.37064 | 132° | 179km/h | 11199m | -5.2m/s | -52.8°C | 51.9% | 234.2hPa | 2.6V | 08:01:00 | 00:00:00 | 00:00:00 | |
| DH3RM | 2026-09-03 13:53:08 | 51.51602 | 7.37006 | 129° | 190km/h | 11204m | -5.0m/s | -52.8°C | 51.7% | 234.0hPa | 2.6V | 08:01:00 | 00:00:00 | 00:00:00 | |
| DL9SK-14 | 2026-09-03 13:53:07 | 51.51658 | 7.36878 | 121° | 192km/h | 11215m | -5.3m/s | -52.8°C | 51.0% | 233.8hPa | 2.6V | 00:00:00 | 00:00:00 | 00:00:00 | |
| DL3AQ-11 | 2026-09-03 13:53:06 | 51.51703 | 7.36747 | 116° | 172km/h | 11225m | -4.8m/s | -53.0°C | 49.9% | 233.3hPa | 2.6V | 00:00:00 | 00:00:00 | 00:00:00 | |
| DL1XH-15 | 2026-09-03 13:53:05 | 51.51740 | 7.36631 | 119° | 150km/h | 11234m | -5m/s | -53.1°C | 60.6% | 233hPa | 2.6V | 08:00:30 | 03:03:26 | 00:00:00 | i |
| BIOWL1-15 | 2026-09-03 13:53:04 | 51.51722 | 7.36686 | 117° | 161km/h | 11229m | -4.9m/s | -53°C | 59.2% | 233.2hPa | 2.4V | 08:01:11 | 03:03:27 | 00:00:00 | i |
| DO2JMG | 2026-09-03 13:53:02 | 51.51760 | 7.36579 | 124° | 148km/h | 11240m | -5.6m/s | -53.1°C | 59% | 232.9hPa | 2.6V | 08:01:11 | 03:03:25 | 00:00:00 | i |
| DL1XH-west | 2026-09-03 13:53:02 | 51.51782 | 7.36529 | 128° | 155km/h | 11245m | -5.4m/s | -53.2°C | 58.9% | 232.7hPa | 2.5V | 08:01:11 | 03:03:24 | 00:00:00 | i |
| BIOWL1-15 | 2026-09-03 13:52:55 | 51.51980 | 7.36048 | 117° | 153km/h | 11286m | -4.9m/s | -53.6°C | 58.4% | 231.2hPa | 2.6V | 08:01:11 | 03:03:16 | 00:00:00 | i |
| DO1YAY-16 | 2026-09-03 13:52:55 | 51.51943 | 7.36169 | 116° | 181km/h | 11276m | -5.1m/s | -53.5°C | 50.7% | 231.5hPa | 2.6V | 00:00:00 | 00:00:00 | 00:00:00 | i |
| DM0DOS-11 | 2026-09-03 13:52:54 | 51.51980 | 7.36048 | 116° | 153km/h | 11286m | -4.9m/s | -53.5°C | 60.6% | 231.1hPa | 2.6V | 08:00:40 | 03:03:16 | 00:00:00 | i |
| DO2JMG | 2026-09-03 13:52:52 | 51.51998 | 7.35995 | 121° | 148km/h | 11291m | -5.5m/s | -53.6°C | 58.2% | 231hPa | 2.6V | 08:01:11 | 03:03:15 | 00:00:00 | i |
| DL1XH-west | 2026-09-03 13:52:51 | 51.52019 | 7.35945 | 126° | 150km/h | 11297m | -5.7m/s | -53.7°C | 58.1% | 230.9hPa | 2.6V | 08:01:11 | 03:03:14 | 00:00:00 | i |
| BIOWL9-15 | 2026-09-03 13:52:48 | 51.52129 | 7.35725 | 125° | 193km/h | 11317m | -5.3m/s | -53.9°C | 50.6% | 230.1hPa | 2.5V | 00:00:00 | 00:00:00 | 00:00:00 | |
| DC6BW-12 | 2026-09-03 13:52:47 | 51.52099 | 7.35787 | 130° | 188km/h | 11312m | -4.9m/s | -53.8°C | 51.0% | 230.2hPa | 2.5V | 08:01:00 | 00:00:00 | 00:00:00 | |
| DO9LL-15 | 2026-09-03 13:52:46 | 51.52156 | 7.35659 | 122° | 173km/h | 11323m | -5.6m/s | -53.8°C | 60.0% | 229.9hPa | 2.5V | 00:00:00 | 03:03:09 | 00:00:00 | |
| DD1CC3-15 | 2026-09-03 13:52:45 | 51.52156 | 7.35659 | 122° | 195km/h | 11323m | -5.7m/s | -53.8°C | 49.9% | 229.9hPa | 2.5V | 08:01:00 | 00:00:00 | 00:00:00 | |
| DM0DOS-11 | 2026-09-03 13:52:44 | 51.52217 | 7.35462 | 114° | 161km/h | 11339m | -5.4m/s | -54°C | 58.4% | 229.4hPa | 2.5V | 08:00:50 | 03:03:06 | 00:00:00 | i |
| BIOWL1-15 | 2026-09-03 13:52:42 | 51.52387 | 7.35060 | 118° | 188km/h | 11376m | -5.3m/s | -54.2°C | 54.9% | 227.9hPa | 2.6V | 08:01:11 | 03:02:59 | 00:00:00 | i |
| DO2JMG | 2026-09-03 13:52:42 | 51.52235 | 7.35405 | 119° | 150km/h | 11345m | -5.6m/s | -54°C | 55.7% | 229.1hPa | 2.4V | 08:01:11 | 03:03:05 | 00:00:00 | i |
| DK5PH-5 | 2026-09-03 13:52:42 | 51.52235 | 7.35405 | 119° | 153km/h | 11345m | -5.6m/s | -54.0°C | 57.5% | 229.0hPa | 2.4V | 00:00:00 | 03:03:05 | 00:00:00 | i |
| DL3AQ-11 | 2026-09-03 13:52:41 | 51.52255 | 7.35354 | 124° | 148km/h | 11350m | -5.4m/s | -54.0°C | 47.2% | 228.9hPa | 2.4V | 00:00:00 | 00:00:00 | 00:00:00 | |
| DL1XH-west | 2026-09-03 13:52:41 | 51.52255 | 7.35354 | 125° | 150km/h | 11350m | -5.4m/s | -54°C | 55.5% | 228.9hPa | 2.6V | 08:01:11 | 03:03:04 | 00:00:00 | |
| HTAHTA | 2026-09-03 13:52:39 | 51.52306 | 7.35251 | 129° | 179km/h | 11361m | -4.8m/s | -54.1°C | 47.6% | 228.4hPa | 2.4V | 00:00:00 | 00:00:00 | 00:00:00 | |
| DO3DL | 2026-09-03 13:52:38 | 51.52306 | 7.35251 | 131° | 179km/h | 11361m | -4.8m/s | -54.1°C | 47.6% | 228.4hPa | 2.4V | 08:01:00 | 00:00:00 | 00:00:00 | |
| DH3RM | 2026-09-03 13:52:35 | 51.52387 | 7.35060 | 119° | 188km/h | 11376m | -5.3m/s | -54.2°C | 46.8% | 227.9hPa | 2.4V | 08:01:00 | 00:00:00 | 00:00:00 | |
| DL1XH-15 | 2026-09-03 13:52:34 | 51.52444 | 7.34879 | 120° | 151km/h | 11391m | -5.2m/s | -54.2°C | 56.2% | 227.5hPa | 2.4V | 08:01:00 | 03:02:56 | 00:00:00 | i |
| BIOWL1-15 | 2026-09-03 13:52:32 | 51.52465 | 7.34828 | 126° | 153km/h | 11396m | -5.2m/s | -54.2°C | 54.4% | 227.2hPa | 2.6V | 08:01:11 | 03:02:55 | 00:00:00 | i |
| DL1XH-west | 2026-09-03 13:52:31 | 51.52490 | 7.34777 | 130° | 162km/h | 11402m | -5.1m/s | -54.3°C | 54.6% | 227.1hPa | 2.6V | 08:01:11 | 03:02:54 | 00:00:00 | i |
| WPPR-10 | 2026-09-03 13:52:30 | 51.52517 | 7.34724 | 130° | 175km/h | 11407m | -4.8m/s | -54.3°C | 46.8% | 226.8hPa | 2.5V | 00:00:00 | 00:00:00 | 00:00:00 | |
| DL4BBY-15 | 2026-09-03 13:52:29 | 51.52547 | 7.34668 | 130° | 181km/h | 11412m | -4.8m/s | -54.1°C | 0% | 0hPa | 2.5V | 00:00:00 | 00:00:00 | 00:00:00 | |
| DH3RM | 2026-09-03 13:52:28 | 51.52547 | 7.34668 | 130° | 188km/h | 11412m | -4.9m/s | -54.3°C | 47.6% | 226.7hPa | 2.5V | 08:01:00 | 00:00:00 | 00:00:00 | |
| SONCRA | 2026-09-03 13:52:26 | 51.52654 | 7.34408 | 117° | 181km/h | 11433m | -5.1m/s | -54.4°C | 47.1% | 225.9hPa | 2.5V | 00:00:00 | 00:00:00 | 00:00:00 | |
| DL3AQ-11 | 2026-09-03 13:52:25 | 51.52654 | 7.34408 | 117° | 181km/h | 11433m | -5.1m/s | -54.4°C | 47.1% | 225.9hPa | 2.5V | 00:00:00 | 00:00:00 | 00:00:00 | |
| DL1XH-15 | 2026-09-03 13:52:24 | 51.52694 | 7.34287 | 119° | 157km/h | 11442m | -4.9m/s | -54.5°C | 56.9% | 225.7hPa | 2.5V | 08:01:10 | 03:02:46 | 00:00:00 | |
| BIOWL1-15 | 2026-09-03 13:52:21 | 51.52737 | 7.34181 | 127° | 155km/h | 11453m | -5.4m/s | -54.6°C | 55% | 225.3hPa | 2.6V | 08:02:02 | 03:02:44 | 00:00:00 | i |
| DL1XH-west | 2026-09-03 13:52:21 | 51.52762 | 7.34131 | 130° | 162km/h | 11458m | -5.3m/s | -54.7°C | 55.1% | 225hPa | 2.5V | 08:02:02 | 03:02:43 | 00:00:00 | i |
| DL8DAS-15 | 2026-09-03 13:52:18 | 51.52790 | 7.34080 | 133° | 175km/h | 11464m | -5.2m/s | -54.8°C | 47.4% | 224.8hPa | 2.5V | 08:02:00 | 00:00:00 | 00:00:00 | |
| BIOWL9-15 | 2026-09-03 13:52:17 | 51.52881 | 7.33898 | 123° | 201km/h | 11480m | -5.5m/s | -54.7°C | 47.4% | 224.3hPa | 2.5V | 00:00:00 | 00:00:00 | 00:00:00 | |
| DH3RM | 2026-09-03 13:52:15 | 51.52881 | 7.33898 | 125° | 201km/h | 11480m | -5.5m/s | -54.7°C | 47.4% | 224.3hPa | 2.5V | 08:02:00 | 00:00:00 | 00:00:00 | |
| DL1XH-15 | 2026-09-03 13:52:14 | 51.52971 | 7.33638 | 119° | 161km/h | 11502m | -5.7m/s | -54.9°C | 56% | 223.6hPa | 2.5V | 08:01:21 | 03:02:35 | 00:00:00 | i |
| DM0DOS-11 | 2026-09-03 13:52:14 | 51.52951 | 7.33697 | 116° | 172km/h | 11496m | -5.4m/s | -54.9°C | 56.8% | 223.8hPa | 2.4V | 08:01:20 | 03:02:36 | 00:00:00 | i |
| DO2JMG | 2026-09-03 13:52:11 | 51.52993 | 7.33583 | 125° | 159km/h | 11507m | -5.5m/s | -55°C | 55.2% | 223.4hPa | 2.5V | 08:02:53 | 03:02:34 | 00:00:00 | i |
| DL1XH-west | 2026-09-03 13:52:10 | 51.53018 | 7.33531 | 130° | 164km/h | 11512m | -5.1m/s | -55.1°C | 55.2% | 223.2hPa | 2.6V | 08:02:02 | 03:02:33 | 00:00:00 | i |
| HTAHTA | 2026-09-03 13:52:08 | 51.53078 | 7.33424 | 132° | 190km/h | 11523m | -5.3m/s | -55.1°C | 47.7% | 222.9hPa | 2.5V | 00:00:00 | 00:00:00 | 00:00:00 | |
| DO9LL-15 | 2026-09-03 13:52:07 | 51.53110 | 7.33364 | 131° | 188km/h | 11528m | -5.8m/s | -55.1°C | 58.6% | 222.6hPa | 2.5V | 00:00:00 | 03:02:30 | 00:00:00 | |
| DC6BW-12 | 2026-09-03 13:52:06 | 51.53110 | 7.33364 | 131° | 201km/h | 11528m | -5.9m/s | -55.1°C | 48.2% | 222.7hPa | 2.5V | 00:00:00 | 00:00:00 | 00:00:00 | |
| DL9SK-14 | 2026-09-03 13:52:05 | 51.53197 | 7.33160 | 118° | 193km/h | 11545m | -5.0m/s | -55.2°C | 48.3% | 222.0hPa | 2.5V | 00:00:00 | 00:00:00 | 00:00:00 | |
| DL1XH-15 | 2026-09-03 13:52:04 | 51.53239 | 7.33033 | 121° | 164km/h | 11556m | -5.5m/s | -55.4°C | 58.2% | 221.7hPa | 2.5V | 08:01:31 | 03:02:25 | 00:00:00 | i |
| DM0DOS-11 | 2026-09-03 13:52:03 | 51.53218 | 7.33094 | 117° | 177km/h | 11550m | -5.2m/s | -55.3°C | 58.7% | 221.9hPa | 2.5V | 08:01:30 | 03:02:26 | 00:00:00 | i |
| DO2JMG | 2026-09-03 13:52:00 | 51.53290 | 7.32925 | 131° | 177km/h | 11566m | -5m/s | -55.5°C | 55.5% | 221.3hPa | 2.6V | 08:02:53 | 03:02:23 | 00:00:00 | i |
| DL1XH-west | 2026-09-03 13:51:59 | 51.53321 | 7.32868 | 131° | 195km/h | 11571m | -4.8m/s | -55.5°C | 55.6% | 221.1hPa | 2.4V | 08:02:02 | 03:02:22 | 00:00:00 | i |
| DL4BBY-15 | 2026-09-03 13:51:59 | 51.53321 | 7.32868 | 132° | 186km/h | 11571m | -4.8m/s | -55.3°C | 0% | 0hPa | 2.4V | 00:00:00 | 00:00:00 | 00:00:00 | i |
| DM0DOS-11 | 2026-09-03 13:51:58 | 51.53484 | 7.32465 | 120° | 170km/h | 11603m | -5.2m/s | -55.7°C | 56.7% | 220hPa | 2.4V | 08:01:40 | 03:02:16 | 00:00:00 | i |
| DO2JMG | 2026-09-03 13:51:50 | 51.53560 | 7.32302 | 132° | 177km/h | 11619m | -5.5m/s | -55.8°C | 55.5% | 219.5hPa | 2.6V | 08:02:53 | 03:02:13 | 00:00:00 | i |
| DL1XH-west | 2026-09-03 13:51:49 | 51.53591 | 7.32247 | 133° | 192km/h | 11625m | -5.3m/s | -55.9°C | 55.9% | 219.4hPa | 2.6V | 08:02:02 | 03:02:12 | 00:00:00 | i |
| DL1XH-15 | 2026-09-03 13:51:46 | 51.53808 | 7.31737 | 127° | 159km/h | 11668m | -5.9m/s | -56°C | 57.9% | 217.9hPa | 2.4V | 08:01:52 | 03:02:04 | 00:00:00 | i |
| DL3AQ-11 | 2026-09-03 13:51:46 | 51.53716 | 7.31981 | 120° | 199km/h | 11646m | -5.4m/s | -55.8°C | 48.9% | 218.6hPa | 2.6V | 00:00:00 | 00:00:00 | 00:00:00 | i |
| DL1XH-west | 2026-09-03 13:51:38 | 51.53897 | 7.31577 | 132° | 201km/h | 11685m | -5m/s | -56.1°C | 56% | 217.2hPa | 2.6V | 08:02:02 | 03:02:01 | 00:00:00 | i |
| BIOWL1-15 | 2026-09-03 13:51:38 | 51.53959 | 7.31444 | 122° | 204km/h | 11695m | -5.3m/s | -56.1°C | 55.8% | 217hPa | 2.5V | 08:02:02 | 03:01:59 | 00:00:00 | i |
| DO9LL-15 | 2026-09-03 13:51:37 | 51.53930 | 7.31513 | 127° | 179km/h | 11690m | -4.9m/s | -56.1°C | 59.2% | 216.9hPa | 2.6V | 00:00:00 | 03:02:00 | 00:00:00 | |
| DL1LOL-11 | 2026-09-03 13:51:36 | 51.53930 | 7.31513 | 128° | 208km/h | 11690m | -4.9m/s | -56.1°C | 48.4% | 217.0hPa | 2.4V | 00:00:00 | 00:00:00 | 00:00:00 | |
| DL1XH-15 | 2026-09-03 13:51:34 | 51.54080 | 7.31149 | 131° | 166km/h | 11720m | -5.2m/s | -56.4°C | 58.4% | 216.1hPa | 2.4V | 08:02:02 | 03:01:54 | 00:00:00 | i |
| DL1XH-west | 2026-09-03 13:51:28 | 51.54172 | 7.30982 | 129° | 201km/h | 11736m | -4.9m/s | -56.4°C | 54.5% | 215.4hPa | 2.4V | 08:02:53 | 03:01:51 | 00:00:00 | i |
| BIOWL1-15 | 2026-09-03 13:51:27 | 51.54203 | 7.30917 | 126° | 206km/h | 11741m | -4.7m/s | -56.5°C | 54.3% | 215.2hPa | 2.5V | 08:02:53 | 03:01:50 | 00:00:00 | i |
| DO2JMG | 2026-09-03 13:51:20 | 51.54369 | 7.30488 | 130° | 161km/h | 11777m | -5.5m/s | -56.6°C | 51.2% | 214hPa | 2.6V | 08:02:53 | 03:01:43 | 00:00:00 | i |
| BIOWL1-15 | 2026-09-03 13:51:19 | 51.54458 | 7.30322 | 128° | 197km/h | 11793m | -5m/s | -56.6°C | 50.8% | 213.4hPa | 2.4V | 08:02:53 | 03:01:40 | 00:00:00 | |
| DL1XH-west | 2026-09-03 13:51:18 | 51.54427 | 7.30382 | 131° | 186km/h | 11788m | -5.2m/s | -56.6°C | 50.9% | 213.6hPa | 2.6V | 08:02:53 | 03:01:41 | 00:00:00 | i |
| DO2JMG | 2026-09-03 13:51:09 | 51.54646 | 7.29838 | 130° | 159km/h | 11835m | -5.4m/s | -57°C | 49.3% | 212.1hPa | 2.5V | 08:02:53 | 03:01:32 | 00:00:00 | i |
| DL1XH-west | 2026-09-03 13:51:08 | 51.54704 | 7.29734 | 132° | 184km/h | 11846m | -5.2m/s | -57°C | 49.2% | 211.7hPa | 2.6V | 08:02:53 | 03:01:30 | 00:00:00 | i |
| BIOWL1-15 | 2026-09-03 13:51:06 | 51.54735 | 7.29675 | 129° | 195km/h | 11851m | -5.5m/s | -57°C | 49.2% | 211.6hPa | 2.6V | 08:02:53 | 03:01:29 | 00:00:00 | i |
| DO2JMG | 2026-09-03 13:50:59 | 51.54899 | 7.29252 | 129° | 153km/h | 11888m | -5.4m/s | -57.2°C | 47.8% | 210.4hPa | 2.6V | 08:02:53 | 03:01:22 | 00:00:00 | i |
| DL1XH-west | 2026-09-03 13:50:57 | 51.54955 | 7.29152 | 133° | 179km/h | 11899m | -5.4m/s | -57.2°C | 47.7% | 209.9hPa | 2.5V | 08:02:53 | 03:01:20 | 00:00:00 | i |
| DM0DOS-11 | 2026-09-03 13:50:57 | 51.55072 | 7.28900 | 118° | 192km/h | 11921m | -5.3m/s | -57.2°C | 49.6% | 209.1hPa | 2.6V | 08:02:40 | 03:01:16 | 00:00:00 | i |
| BIOWL1-15 | 2026-09-03 13:50:55 | 51.55018 | 7.29034 | 127° | 199km/h | 11910m | -5.5m/s | -57.1°C | 47.7% | 209.6hPa | 2.6V | 08:02:53 | 03:01:18 | 00:00:00 | i |
| DO2JMG | 2026-09-03 13:50:48 | 51.55180 | 7.28612 | 131° | 161km/h | 11948m | -5.4m/s | -57.4°C | 47.4% | 208.3hPa | 2.6V | 08:02:53 | 03:01:11 | 00:00:00 | i |
| DL1XH-west | 2026-09-03 13:50:47 | 51.55208 | 7.28560 | 132° | 173km/h | 11953m | -5.3m/s | -57.4°C | 47.5% | 208.1hPa | 2.6V | 08:02:53 | 03:01:10 | 00:00:00 | i |
| DM0DOS-11 | 2026-09-03 13:50:47 | 51.55325 | 7.28312 | 119° | 195km/h | 11976m | -5.7m/s | -57.3°C | 49.4% | 207.4hPa | 2.6V | 08:02:50 | 03:01:06 | 00:00:00 | i |
| BIOWL1-15 | 2026-09-03 13:50:45 | 51.55269 | 7.28445 | 128° | 197km/h | 11964m | -5.9m/s | -57.5°C | 47.7% | 207.8hPa | 2.5V | 08:02:53 | 03:01:08 | 00:00:00 | i |
| DO2JMG | 2026-09-03 13:50:38 | 51.55424 | 7.28009 | 126° | 155km/h | 12004m | -5.6m/s | -57.6°C | 48.3% | 206.4hPa | 2.6V | 08:03:44 | 03:01:01 | 00:00:00 | i |
| DL1XH-west | 2026-09-03 13:50:36 | 51.55477 | 7.27904 | 130° | 181km/h | 12014m | -5.3m/s | -57.7°C | 49% | 206.1hPa | 2.5V | 08:03:44 | 03:00:59 | 00:00:00 | i |
| BIOWL1-15 | 2026-09-03 13:50:35 | 51.55507 | 7.27845 | 128° | 192km/h | 12020m | -5.7m/s | -57.7°C | 49.4% | 206hPa | 2.5V | 08:03:44 | 03:00:58 | 00:00:00 | i |
| DO2JMG | 2026-09-03 13:50:28 | 51.55662 | 7.27399 | 125° | 157km/h | 12060m | -5.1m/s | -58°C | 50.6% | 204.6hPa | 2.6V | 08:03:44 | 03:00:51 | 00:00:00 | i |
| DL1XH-west | 2026-09-03 13:50:26 | 51.55714 | 7.27290 | 129° | 183km/h | 12070m | -5.1m/s | -58.1°C | 51.2% | 204.2hPa | 2.6V | 08:03:44 | 03:00:49 | 00:00:00 | i |
| BIOWL1-15 | 2026-09-03 13:50:25 | 51.55744 | 7.27230 | 127° | 193km/h | 12075m | -5.8m/s | -58.2°C | 51.6% | 204.2hPa | 2.5V | 08:03:44 | 03:00:48 | 00:00:00 | i |
| BIOWL1-15 | 2026-09-03 13:50:18 | 51.55995 | 7.26550 | 125° | 197km/h | 12137m | -5.9m/s | -58.7°C | 54.1% | 202.2hPa | 2.5V | 08:03:44 | 03:00:37 | 00:00:00 | i |
| DM0DOS-11 | 2026-09-03 13:50:17 | 51.56022 | 7.26482 | 120° | 201km/h | 12143m | -5.8m/s | -58.7°C | 57.9% | 202hPa | 2.6V | 08:03:20 | 03:00:36 | 00:00:00 | i |
| DO2JMG | 2026-09-03 13:50:17 | 51.55914 | 7.26724 | 126° | 161km/h | 12120m | -5.5m/s | -58.6°C | 53% | 202.7hPa | 2.6V | 08:03:44 | 03:00:40 | 00:00:00 | i |
| DL1XH-west | 2026-09-03 13:50:15 | 51.55966 | 7.26613 | 128° | 186km/h | 12131m | -6.1m/s | -58.7°C | 53.8% | 202.4hPa | 2.5V | 08:03:44 | 03:00:38 | 00:00:00 | i |
| DO2JMG | 2026-09-03 13:50:07 | 51.56135 | 7.26088 | 122° | 155km/h | 12181m | -6.3m/s | -59.1°C | 55% | 200.8hPa | 2.6V | 08:03:44 | 03:00:30 | 00:00:00 | i |
| DK5PH-5 | 2026-09-03 13:50:06 | 51.56158 | 7.26034 | 126° | 179km/h | 12187m | -6.1m/s | -59.2°C | 57.9% | 200.5hPa | 2.6V | 08:03:00 | 03:00:29 | 00:00:00 | |
| DM0DOS-11 | 2026-09-03 13:50:04 | 51.56319 | 7.25566 | 110° | 172km/h | 12231m | -6.4m/s | -59.5°C | 57.4% | 199.2hPa | 2.6V | 08:03:34 | 03:00:22 | 00:00:00 | i |
| BIOWL1-15 | 2026-09-03 13:50:04 | 51.56212 | 7.25917 | 125° | 193km/h | 12200m | -6.3m/s | -59.3°C | 55.8% | 200.1hPa | 2.5V | 08:03:44 | 03:00:27 | 00:00:00 | i |
| DO2JMG | 2026-09-03 13:49:56 | 51.56373 | 7.25392 | 124° | 161km/h | 12250m | -6.2m/s | -59.8°C | 56.5% | 198.5hPa | 2.6V | 08:03:44 | 03:00:19 | 00:00:00 | i |
| WPPR-10 | 2026-09-03 13:49:55 | 51.56398 | 7.25337 | 126° | 175km/h | 12257m | -6.1m/s | -59.8°C | 48.6% | 198.4hPa | 2.5V | 00:00:00 | 00:00:00 | 00:00:00 | |
| DM0DOS-11 | 2026-09-03 13:49:54 | 51.56533 | 7.24921 | 110° | 173km/h | 12292m | -6.3m/s | -60.1°C | 60.3% | 197.3hPa | 2.5V | 08:03:44 | 03:00:12 | 00:00:00 | i |
| BIOWL1-15 | 2026-09-03 13:49:53 | 51.56452 | 7.25209 | 121° | 203km/h | 12269m | -5.6m/s | -59.8°C | 57.1% | 198hPa | 2.5V | 08:03:44 | 03:00:16 | 00:00:00 | i |
| DO2JMG | 2026-09-03 13:49:46 | 51.56586 | 7.24746 | 124° | 161km/h | 12310m | -5.7m/s | -60.4°C | 57.5% | 196.6hPa | 2.6V | 08:04:35 | 03:00:09 | 00:00:00 | i |
| DL3AQ-11 | 2026-09-03 13:49:46 | 51.56610 | 7.24691 | 126° | 172km/h | 12316m | -6.2m/s | -60.4°C | 49.3% | 196.5hPa | 2.5V | 00:00:00 | 00:00:00 | 00:00:00 | i |
| BIOWL1-15 | 2026-09-03 13:49:42 | 51.56689 | 7.24497 | 118° | 204km/h | 12334m | -5.6m/s | -60.5°C | 57.7% | 195.8hPa | 2.5V | 08:04:35 | 03:00:05 | 00:00:00 | |
| BIOWL9-15 | 2026-09-03 13:49:42 | 51.56712 | 7.24423 | 114° | 203km/h | 12340m | -5.9m/s | -60.6°C | 49.0% | 195.7hPa | 2.5V | 00:00:00 | 00:00:00 | 00:00:00 | |
| GOEST3-10 | 2026-09-03 13:49:41 | 51.56712 | 7.24423 | 115° | 179km/h | 12340m | -5.8m/s | -60.5°C | 61.5% | 195.6hPa | 2.5V | 00:00:00 | 00:00:00 | 00:00:00 | |
| DD1CC3-15 | 2026-09-03 13:49:40 | 51.56712 | 7.24423 | 115° | 203km/h | 12340m | -5.9m/s | -60.6°C | 49.0% | 195.7hPa | 2.6V | 08:04:00 | 00:00:00 | 00:00:00 | |
| DM0DOS-11 | 2026-09-03 13:49:39 | 51.56747 | 7.24278 | 109° | 179km/h | 12352m | -6.6m/s | -60.7°C | 59.4% | 195.3hPa | 2.6V | 08:03:54 | 03:00:02 | 00:00:00 | i |
| DO2JMG | 2026-09-03 13:49:35 | 51.56823 | 7.24043 | 126° | 170km/h | 12376m | -6.1m/s | -60.9°C | 56.9% | 194.6hPa | 2.6V | 08:04:35 | 02:59:58 | 00:00:00 | i |
| DL1XH-west | 2026-09-03 13:49:32 | 51.56902 | 7.23852 | 119° | 204km/h | 12395m | -5.8m/s | -61°C | 56.9% | 194hPa | 2.5V | 08:04:35 | 02:59:55 | 00:00:00 | i |
| BIOWL1-15 | 2026-09-03 13:49:31 | 51.56926 | 7.23778 | 115° | 203km/h | 12400m | -5.7m/s | -61.1°C | 56.8% | 193.8hPa | 2.6V | 08:04:35 | 02:59:54 | 00:00:00 | i |
| DB0UT-7 | 2026-09-03 13:49:31 | 51.56926 | 7.23778 | 116° | 184km/h | 12400m | -5.6m/s | -61.1°C | 62.1% | 193.8hPa | 2.6V | 00:00:00 | 02:59:54 | 00:00:00 | i |
| DM0DOS-11 | 2026-09-03 13:49:29 | 51.56963 | 7.23632 | 109° | 184km/h | 12412m | -5.9m/s | -61.2°C | 60.8% | 193.5hPa | 2.6V | 08:04:04 | 02:59:52 | 00:00:00 | i |
| DL8DAS-14 | 2026-09-03 13:49:29 | 51.56978 | 7.23565 | 110° | 168km/h | 12418m | -6.2m/s | -61.3°C | 47.4% | 193.3hPa | 2.5V | 00:00:00 | 00:00:00 | 00:00:00 | i |
| DO2KSM | 2026-09-03 13:49:27 | 51.56978 | 7.23565 | 112° | 170km/h | 12418m | -6.2m/s | -61.3°C | 47.5% | 193.3hPa | 2.5V | 08:04:00 | 00:00:00 | 00:00:00 | |
| GOEST3-10 | 2026-09-03 13:49:26 | 51.57012 | 7.23445 | 120° | 179km/h | 12430m | -5.8m/s | -61.3°C | 59.5% | 192.9hPa | 2.5V | 08:04:00 | 02:59:49 | 00:00:00 | |
| DD1CC8 | 2026-09-03 13:49:25 | 51.57058 | 7.23331 | 125° | 177km/h | 12442m | -5.7m/s | -61.6°C | 47.7% | 192.6hPa | 2.6V | 00:00:00 | 00:00:00 | 00:00:00 | |
| DM0DOS-11 | 2026-09-03 13:49:24 | 51.57182 | 7.22982 | 111° | 195km/h | 12472m | -6.2m/s | -61.7°C | 57.1% | 191.6hPa | 2.6V | 08:04:14 | 02:59:42 | 00:00:00 | i |
| DL1XH-west | 2026-09-03 13:49:22 | 51.57139 | 7.23132 | 119° | 208km/h | 12460m | -6.2m/s | -61.6°C | 54.4% | 192hPa | 2.5V | 08:04:35 | 02:59:44 | 00:00:00 | i |
| BIOWL1-15 | 2026-09-03 13:49:20 | 51.57162 | 7.23057 | 115° | 206km/h | 12466m | -6.3m/s | -61.6°C | 54% | 191.8hPa | 2.6V | 08:04:35 | 02:59:43 | 00:00:00 | i |
| SONCRA | 2026-09-03 13:49:20 | 51.57182 | 7.22982 | 111° | 193km/h | 12472m | -6.2m/s | -61.7°C | 44.8% | 191.6hPa | 2.5V | 00:00:00 | 00:00:00 | 00:00:00 | i |
| DL1XH-15 | 2026-09-03 13:49:19 | 51.57215 | 7.22846 | 113° | 164km/h | 12484m | -5.9m/s | -61.9°C | 56.8% | 191.2hPa | 2.5V | 08:04:16 | 02:59:40 | 00:00:00 | i |
| DO2JMG | 2026-09-03 13:49:16 | 51.57233 | 7.22787 | 119° | 161km/h | 12490m | -5.6m/s | -61.9°C | 52.6% | 191.1hPa | 2.6V | 08:04:35 | 02:59:39 | 00:00:00 | |
| GOEST3-10 | 2026-09-03 13:49:16 | 51.57233 | 7.22787 | 120° | 184km/h | 12490m | -5.6m/s | -61.8°C | 57.3% | 191.0hPa | 2.6V | 00:00:00 | 02:59:39 | 00:00:00 | |
| AU51GT2 | 2026-09-03 13:49:15 | 51.57308 | 7.22605 | 123° | 197km/h | 12506m | -5.7m/s | 0°C | -1.0% | -1.0hPa | 2.6V | 00:00:00 | 00:00:00 | 00:00:00 | |
| DM0DOS-11 | 2026-09-03 13:49:13 | 51.57403 | 7.22312 | 111° | 195km/h | 12530m | -6.3m/s | -62.2°C | 56.5% | 189.8hPa | 2.6V | 08:04:24 | 02:59:32 | 00:00:00 | i |
| BIOWL1-15 | 2026-09-03 13:49:11 | 51.57403 | 7.22312 | 111° | 195km/h | 12531m | -6.3m/s | -62.2°C | 51% | 189.8hPa | 2.6V | 08:04:35 | 02:59:32 | 00:00:00 | i |
| DL1XH-west | 2026-09-03 13:49:11 | 51.57361 | 7.22462 | 118° | 210km/h | 12518m | -6.3m/s | -62.1°C | 51.5% | 190.2hPa | 2.5V | 08:04:35 | 02:59:34 | 00:00:00 | i |
| DF5WG-10 | 2026-09-03 13:49:11 | 51.57360 | 7.22462 | 118° | 183km/h | 12518m | -6.2m/s | -62.0°C | 57.6% | 190.1hPa | 2.5V | 00:00:00 | 02:59:34 | 00:00:00 | i |
| BIOWL9-15 | 2026-09-03 13:49:10 | 51.57383 | 7.22387 | 114° | 204km/h | 12524m | -6.3m/s | -62.1°C | 44.4% | 190.0hPa | 2.5V | 00:00:00 | 00:00:00 | 00:00:00 | |
| DL1XH-15 | 2026-09-03 13:49:09 | 51.57436 | 7.22176 | 112° | 164km/h | 12543m | -5.9m/s | -62.4°C | 56.5% | 189.3hPa | 2.5V | 08:04:26 | 02:59:30 | 00:00:00 | |
| DO2JMG | 2026-09-03 13:49:06 | 51.57453 | 7.22116 | 117° | 159km/h | 12549m | -6.1m/s | -62.4°C | 50.6% | 189.2hPa | 2.5V | 08:04:35 | 02:59:29 | 00:00:00 | i |
| GOEST3-10 | 2026-09-03 13:49:06 | 51.57453 | 7.22116 | 117° | 177km/h | 12549m | -6.0m/s | -62.4°C | 56.7% | 189.2hPa | 2.6V | 00:00:00 | 02:59:29 | 00:00:00 | i |
| DL3AQ-11 | 2026-09-03 13:49:05 | 51.57472 | 7.22060 | 121° | 161km/h | 12555m | -6.5m/s | -62.5°C | 44.3% | 189.0hPa | 2.6V | 00:00:00 | 00:00:00 | 00:00:00 | |
| DO3DL | 2026-09-03 13:49:04 | 51.57473 | 7.22060 | 123° | 161km/h | 12555m | -6.5m/s | -62.5°C | 44.3% | 189.0hPa | 2.6V | 08:04:00 | 00:00:00 | 00:00:00 | |
| DM0DOS-11 | 2026-09-03 13:49:03 | 51.57621 | 7.21656 | 111° | 193km/h | 12593m | -6.5m/s | -62.7°C | 57.4% | 187.9hPa | 2.6V | 08:04:34 | 02:59:22 | 00:00:00 | i |
| DL1XH-west | 2026-09-03 13:49:00 | 51.57601 | 7.21730 | 114° | 206km/h | 12587m | -6.5m/s | -62.6°C | 49.9% | 188.1hPa | 2.6V | 08:04:35 | 02:59:23 | 00:00:00 | i |
| BIOWL1-15 | 2026-09-03 13:49:00 | 51.57638 | 7.21586 | 111° | 177km/h | 12600m | -6.2m/s | -62.7°C | 48.9% | 187.6hPa | 2.4V | 08:04:35 | 02:59:21 | 00:00:00 | i |
| DL1XH-15 | 2026-09-03 13:48:59 | 51.57673 | 7.21464 | 119° | 159km/h | 12612m | -6.1m/s | -62.6°C | 56% | 187.3hPa | 2.5V | 08:04:37 | 02:59:19 | 00:00:00 | i |
| DO2JMG | 2026-09-03 13:48:55 | 51.57694 | 7.21408 | 124° | 162km/h | 12618m | -6.3m/s | -62.6°C | 47.6% | 187.1hPa | 2.6V | 08:05:26 | 02:59:18 | 00:00:00 | i |
| DD1CC8 | 2026-09-03 13:48:54 | 51.57718 | 7.21353 | 126° | 173km/h | 12624m | -6.3m/s | -62.6°C | 42.5% | 186.9hPa | 2.6V | 00:00:00 | 00:00:00 | 00:00:00 | |
| DM0DOS-11 | 2026-09-03 13:48:53 | 51.57851 | 7.21011 | 114° | 197km/h | 12656m | -6.5m/s | -62.4°C | 50.3% | 186hPa | 2.6V | 08:04:44 | 02:59:12 | 00:00:00 | i |
| DL1XH-west | 2026-09-03 13:48:50 | 51.57828 | 7.21085 | 117° | 206km/h | 12649m | -6.4m/s | -62.5°C | 44.8% | 186.1hPa | 2.6V | 08:05:26 | 02:59:13 | 00:00:00 | i |
| DL1XH-15 | 2026-09-03 13:48:49 | 51.57906 | 7.20816 | 118° | 159km/h | 12674m | -5.9m/s | -62.5°C | 49.2% | 185.4hPa | 2.6V | 08:04:47 | 02:59:09 | 00:00:00 | |
| BIOWL1-15 | 2026-09-03 13:48:47 | 51.57888 | 7.20875 | 114° | 168km/h | 12668m | -5.8m/s | -62.5°C | 42.9% | 185.5hPa | 2.5V | 08:05:26 | 02:59:10 | 00:00:00 | i |
| DO2JMG | 2026-09-03 13:48:45 | 51.57926 | 7.20761 | 123° | 159km/h | 12680m | -6.2m/s | -62.4°C | 42% | 185.3hPa | 2.6V | 08:05:26 | 02:59:08 | 00:00:00 | i |
| AU51GT2 | 2026-09-03 13:48:44 | 51.57949 | 7.20706 | 126° | 166km/h | 12686m | -6.4m/s | 0°C | -1.0% | -1.0hPa | 2.6V | 00:00:00 | 00:00:00 | 00:00:00 | |
| DM0DOS-11 | 2026-09-03 13:48:43 | 51.58079 | 7.20376 | 114° | 199km/h | 12716m | -6m/s | -61.7°C | 42.5% | 184.2hPa | 2.6V | 08:04:54 | 02:59:02 | 00:00:00 | i |
| DL1XH-west | 2026-09-03 13:48:39 | 51.58079 | 7.20376 | 115° | 199km/h | 12716m | -6m/s | -61.7°C | 38.3% | 184.2hPa | 2.6V | 08:05:26 | 02:59:02 | 00:00:00 | i |
| DL1XH-15 | 2026-09-03 13:48:39 | 51.58132 | 7.20170 | 112° | 164km/h | 12734m | -5.9m/s | -61.9°C | 41% | 183.6hPa | 2.5V | 08:04:57 | 02:58:59 | 00:00:00 | i |
| BIOWL1-15 | 2026-09-03 13:48:38 | 51.58132 | 7.20170 | 112° | 164km/h | 12734m | -5.9m/s | -61.9°C | 36.8% | 183.6hPa | 2.5V | 08:05:26 | 02:58:59 | 00:00:00 | i |
| DO2JMG | 2026-09-03 13:48:35 | 51.58148 | 7.20110 | 116° | 155km/h | 12740m | -6.1m/s | -61.9°C | 36.3% | 183.5hPa | 2.6V | 08:05:26 | 02:58:58 | 00:00:00 | i |
| DM0DOS-11 | 2026-09-03 13:48:33 | 51.58293 | 7.19744 | 117° | 203km/h | 12777m | -6.1m/s | -61.7°C | 38.9% | 182.4hPa | 2.6V | 08:05:04 | 02:58:52 | 00:00:00 | i |
| DC6BW-12 | 2026-09-03 13:48:32 | 51.58188 | 7.20000 | 126° | 164km/h | 12753m | -6.1m/s | -62.0°C | 30.4% | 183.2hPa | 2.5V | 08:05:00 | 00:00:00 | 00:00:00 | |
| DL1XH-15 | 2026-09-03 13:48:31 | 51.58347 | 7.19529 | 108° | 173km/h | 12795m | -5.7m/s | -61.9°C | 37.6% | 181.8hPa | 2.5V | 08:05:07 | 02:58:49 | 00:00:00 | i |
| DL1XH-west | 2026-09-03 13:48:28 | 51.58314 | 7.19671 | 113° | 197km/h | 12783m | -6.1m/s | -61.8°C | 33.8% | 182.2hPa | 2.5V | 08:05:26 | 02:58:51 | 00:00:00 | |
| BIOWL1-15 | 2026-09-03 13:48:26 | 51.58347 | 7.19529 | 109° | 173km/h | 12795m | -5.7m/s | -61.9°C | 33% | 181.8hPa | 2.5V | 08:05:26 | 02:58:49 | 00:00:00 | i |
| DO2JMG | 2026-09-03 13:48:24 | 51.58377 | 7.19407 | 115° | 153km/h | 12807m | -6.5m/s | -61.8°C | 32.3% | 181.5hPa | 2.6V | 08:05:26 | 02:58:47 | 00:00:00 | i |
| DD1CC8 | 2026-09-03 13:48:23 | 51.58417 | 7.19296 | 124° | 168km/h | 12819m | -5.6m/s | -61.8°C | 27.4% | 181.1hPa | 2.5V | 00:00:00 | 00:00:00 | 00:00:00 | |
| DJ2KF-10 | 2026-09-03 13:48:21 | 51.58442 | 7.19238 | 126° | 179km/h | 12825m | -5.3m/s | -61.6°C | 36.7% | 180.8hPa | 2.5V | 00:00:00 | 02:58:44 | 00:00:00 | |
| BIOWL7-15 | 2026-09-03 13:48:20 | 51.58442 | 7.19238 | 127° | 183km/h | 12825m | -5.3m/s | -61.6°C | 27.1% | 180.9hPa | 2.5V | 08:05:00 | 00:00:00 | 00:00:00 | |
| DL1XH-15 | 2026-09-03 13:48:19 | 51.58565 | 7.18896 | 113° | 179km/h | 12856m | -5.4m/s | -61.2°C | 33.4% | 180hPa | 2.5V | 08:05:17 | 02:58:39 | 00:00:00 | i |
| DL1XH-west | 2026-09-03 13:48:17 | 51.58545 | 7.18965 | 115° | 193km/h | 12850m | -6.2m/s | -61.3°C | 30.1% | 180.3hPa | 2.5V | 08:05:26 | 02:58:40 | 00:00:00 | i |
| BIOWL1-15 | 2026-09-03 13:48:16 | 51.58565 | 7.18896 | 113° | 179km/h | 12856m | -5.4m/s | -61.2°C | 29.6% | 180hPa | 2.5V | 08:05:26 | 02:58:39 | 00:00:00 | i |
| DO2JMG | 2026-09-03 13:48:14 | 51.58599 | 7.18773 | 117° | 155km/h | 12866m | -5.5m/s | -61.2°C | 28.9% | 179.8hPa | 2.6V | 08:05:26 | 02:58:37 | 00:00:00 | i |
| DH3RM | 2026-09-03 13:48:12 | 51.58618 | 7.18719 | 122° | 151km/h | 12872m | -6.3m/s | -61.1°C | 22.9% | 179.7hPa | 2.5V | 08:05:00 | 00:00:00 | 00:00:00 | |
| GOEST3-10 | 2026-09-03 13:48:11 | 51.58663 | 7.18616 | 130° | 186km/h | 12885m | -5.9m/s | -60.9°C | 30.5% | 179.2hPa | 2.5V | 00:00:00 | 00:00:00 | 00:00:00 | |
| DL1XH-15 | 2026-09-03 13:48:09 | 51.58804 | 7.18305 | 117° | 190km/h | 12916m | -6.2m/s | -60.5°C | 28.9% | 178.3hPa | 2.5V | 08:05:27 | 02:58:29 | 00:00:00 | i |
| DL1XH-west | 2026-09-03 13:48:07 | 51.58779 | 7.18374 | 122° | 199km/h | 12909m | -6.5m/s | -60.6°C | 26.8% | 178.6hPa | 2.5V | 08:05:26 | 02:58:30 | 00:00:00 | i |
| BIOWL1-15 | 2026-09-03 13:48:05 | 51.58824 | 7.18239 | 116° | 175km/h | 12922m | -6.1m/s | -60.4°C | 26.1% | 178.1hPa | 2.6V | 08:06:17 | 02:58:28 | 00:00:00 | i |
| DO2JMG | 2026-09-03 13:48:03 | 51.58862 | 7.18125 | 122° | 148km/h | 12934m | -6.1m/s | -60.3°C | 25.6% | 177.9hPa | 2.6V | 08:06:17 | 02:58:26 | 00:00:00 | i |
| DL3AQ-11 | 2026-09-03 13:48:02 | 51.58908 | 7.18029 | 132° | 157km/h | 12947m | -6.2m/s | -60.4°C | 19.5% | 177.5hPa | 2.5V | 00:00:00 | 00:00:00 | 00:00:00 | |
| HTAHTA | 2026-09-03 13:48:00 | 51.58967 | 7.17927 | 131° | 186km/h | 12959m | -6.1m/s | -60.4°C | 20.0% | 177.1hPa | 2.5V | 00:00:00 | 00:00:00 | 00:00:00 | |
| DL1XH-15 | 2026-09-03 13:47:59 | 51.59053 | 7.17738 | 119° | 188km/h | 12978m | -6.4m/s | -60.3°C | 26.3% | 176.6hPa | 2.5V | 08:05:37 | 02:58:19 | 00:00:00 | i |
| DL1XH-west | 2026-09-03 13:47:56 | 51.59053 | 7.17738 | 120° | 188km/h | 12978m | -6.4m/s | -60.3°C | 24.6% | 176.6hPa | 2.5V | 08:06:17 | 02:58:19 | 00:00:00 | i |
| BIOWL1-15 | 2026-09-03 13:47:54 | 51.59094 | 7.17614 | 117° | 157km/h | 12991m | -5.9m/s | -60.4°C | 23.9% | 176.3hPa | 2.6V | 08:06:17 | 02:58:17 | 00:00:00 | i |
| DM0DOS-11 | 2026-09-03 13:47:53 | 51.59212 | 7.17375 | 134° | 177km/h | 13022m | -6m/s | -60.6°C | 24.9% | 175.4hPa | 2.5V | 08:05:44 | 02:58:12 | 00:00:00 | i |
| DO2JMG | 2026-09-03 13:47:53 | 51.59113 | 7.17560 | 121° | 144km/h | 12997m | -6.2m/s | -60.4°C | 23.6% | 176.1hPa | 2.6V | 08:06:17 | 02:58:16 | 00:00:00 | i |
| DD1CC8 | 2026-09-03 13:47:52 | 51.59155 | 7.17468 | 132° | 146km/h | 13009m | -6.4m/s | -60.5°C | 17.0% | 175.7hPa | 2.6V | 00:00:00 | 00:00:00 | 00:00:00 | |
| WPPR-10 | 2026-09-03 13:47:51 | 51.59182 | 7.17423 | 135° | 159km/h | 13016m | -6.0m/s | -60.6°C | 17.2% | 175.6hPa | 2.6V | 00:00:00 | 00:00:00 | 00:00:00 | |
| GOEST3-10 | 2026-09-03 13:47:50 | 51.59182 | 7.17423 | 136° | 179km/h | 13016m | -6.0m/s | -60.5°C | 24.4% | 175.5hPa | 2.6V | 00:00:00 | 00:00:00 | 00:00:00 | |
| DL1XH-15 | 2026-09-03 13:47:49 | 51.59301 | 7.17199 | 122° | 183km/h | 13041m | -6m/s | -60.6°C | 24.7% | 174.8hPa | 2.6V | 08:05:47 | 02:58:09 | 00:00:00 | i |
| DL1XH-west | 2026-09-03 13:47:46 | 51.59300 | 7.17199 | 122° | 183km/h | 13041m | -6m/s | -60.6°C | 22.6% | 174.8hPa | 2.6V | 08:06:17 | 02:58:09 | 00:00:00 | i |
| DO1YAY-16 | 2026-09-03 13:47:44 | 51.59343 | 7.17082 | 119° | 151km/h | 13052m | -5.6m/s | -60.7°C | 16.5% | 174.5hPa | 2.5V | 00:00:00 | 00:00:00 | 00:00:00 | |
| DM0DOS-11 | 2026-09-03 13:47:43 | 51.59459 | 7.16852 | 136° | 168km/h | 13083m | -5.6m/s | -61°C | 23.3% | 173.7hPa | 2.5V | 08:05:54 | 02:58:02 | 00:00:00 | i |
| BIOWL1-15 | 2026-09-03 13:47:43 | 51.59362 | 7.17030 | 122° | 141km/h | 13058m | -5.9m/s | -60.8°C | 21.7% | 174.4hPa | 2.6V | 08:06:17 | 02:58:06 | 00:00:00 | i |
| DO2JMG | 2026-09-03 13:47:42 | 51.59381 | 7.16984 | 127° | 137km/h | 13064m | -6.5m/s | -60.8°C | 21.6% | 174.2hPa | 2.6V | 08:06:17 | 02:58:05 | 00:00:00 | i |
| DF5WG-10 | 2026-09-03 13:47:41 | 51.59403 | 7.16940 | 132° | 162km/h | 13071m | -6.5m/s | -60.8°C | 23.1% | 173.9hPa | 2.6V | 00:00:00 | 02:58:04 | 00:00:00 | |
| GOEST3-10 | 2026-09-03 13:47:40 | 51.59429 | 7.16897 | 136° | 175km/h | 13077m | -5.8m/s | -60.9°C | 23.2% | 173.8hPa | 2.5V | 00:00:00 | 00:00:00 | 00:00:00 | |
| DL1XH-15 | 2026-09-03 13:47:39 | 51.59552 | 7.16690 | 127° | 186km/h | 13102m | -7.2m/s | -61°C | 22.4% | 173.2hPa | 2.6V | 08:05:57 | 02:57:59 | 00:00:00 | i |
| DL1XH-west | 2026-09-03 13:47:36 | 51.59552 | 7.16690 | 127° | 186km/h | 13102m | -7.2m/s | -61°C | 20.2% | 173.2hPa | 2.6V | 08:06:17 | 02:57:59 | 00:00:00 | i |
| DB0NH | 2026-09-03 13:47:35 | 51.59578 | 7.16630 | 123° | 146km/h | 13109m | -6.5m/s | -61.0°C | 21.8% | 172.9hPa | 2.5V | 00:00:00 | 02:57:58 | 00:00:00 | |
| BUE01 | 2026-09-03 13:47:34 | 51.59600 | 7.16572 | 119° | 157km/h | 13115m | -5.8m/s | -61.1°C | 14.5% | 172.7hPa | 2.5V | 00:00:00 | 00:00:00 | 00:00:00 | |
| DM0DOS-11 | 2026-09-03 13:47:33 | 51.59718 | 7.16354 | 137° | 164km/h | 13147m | -6.3m/s | -61.3°C | 21.1% | 171.9hPa | 2.5V | 08:06:04 | 02:57:52 | 00:00:00 | i |
| BIOWL1-15 | 2026-09-03 13:47:32 | 51.59639 | 7.16476 | 129° | 131km/h | 13127m | -6m/s | -61.2°C | 18.9% | 172.3hPa | 2.6V | 08:06:17 | 02:57:55 | 00:00:00 | i |
| DO2JMG | 2026-09-03 13:47:31 | 51.59662 | 7.16436 | 136° | 135km/h | 13133m | -6.5m/s | -61.2°C | 18.6% | 172.2hPa | 2.6V | 08:06:17 | 02:57:54 | 00:00:00 | i |
| DF5WG-10 | 2026-09-03 13:47:31 | 51.59662 | 7.16436 | 136° | 155km/h | 13134m | -6.5m/s | -61.2°C | 21.0% | 172.2hPa | 2.6V | 00:00:00 | 02:57:54 | 00:00:00 | i |
| GOEST3-10 | 2026-09-03 13:47:30 | 51.59688 | 7.16397 | 139° | 170km/h | 13140m | -6.6m/s | -61.2°C | 20.9% | 172.0hPa | 2.6V | 00:00:00 | 00:00:00 | 00:00:00 | |
| HTAHTA | 2026-09-03 13:47:29 | 51.59749 | 7.16306 | 133° | 177km/h | 13153m | -6.2m/s | -61.2°C | 13.9% | 171.7hPa | 2.6V | 00:00:00 | 00:00:00 | 00:00:00 | |
| GOEST3-10 | 2026-09-03 13:47:25 | 51.59828 | 7.16134 | 120° | 139km/h | 13172m | -6.4m/s | -61.2°C | 19.1% | 171.2hPa | 2.6V | 00:00:00 | 02:57:48 | 00:00:00 | i |
| DL1XH-west | 2026-09-03 13:47:25 | 51.59828 | 7.16134 | 120° | 162km/h | 13172m | -6.4m/s | -61.3°C | 16.7% | 171.2hPa | 2.6V | 08:06:17 | 02:57:48 | 00:00:00 | i |
| DL8DAS-14 | 2026-09-03 13:47:24 | 51.59847 | 7.16080 | 118° | 144km/h | 13178m | -6.6m/s | -61.4°C | 12.2% | 171.0hPa | 2.6V | 00:00:00 | 00:00:00 | 00:00:00 | |
| DM0DOS-11 | 2026-09-03 13:47:23 | 51.59959 | 7.15873 | 137° | 159km/h | 13209m | -6.3m/s | -61.5°C | 18.3% | 170.2hPa | 2.6V | 08:06:14 | 02:57:42 | 00:00:00 | i |
| DO2JMG | 2026-09-03 13:47:21 | 51.59906 | 7.15952 | 136° | 130km/h | 13197m | -6m/s | -61.4°C | 15.4% | 170.5hPa | 2.6V | 08:06:17 | 02:57:44 | 00:00:00 | i |
| DL1XH-west | 2026-09-03 13:47:15 | 51.60064 | 7.15662 | 120° | 157km/h | 13234m | -6.1m/s | -61.4°C | 13.5% | 169.4hPa | 2.6V | 08:07:08 | 02:57:38 | 00:00:00 | i |
| DO2JMG | 2026-09-03 13:47:11 | 51.60134 | 7.15481 | 129° | 115km/h | 13258m | -6.3m/s | -61.3°C | 12.1% | 168.8hPa | 2.5V | 08:07:08 | 02:57:34 | 00:00:00 | i |
| DL1XH-west | 2026-09-03 13:47:04 | 51.60299 | 7.15160 | 117° | 153km/h | 13303m | -6.8m/s | -61.2°C | 9.6% | 167.6hPa | 2.6V | 08:07:08 | 02:57:27 | 00:00:00 | i |
| BIOWL1-15 | 2026-09-03 13:47:00 | 51.60436 | 7.14864 | 133° | 159km/h | 13348m | -6.3m/s | -60.2°C | 7.7% | 166.4hPa | 2.6V | 08:07:08 | 02:57:20 | 00:00:00 | i |
| DO2JMG | 2026-09-03 13:47:00 | 51.60362 | 7.14982 | 132° | 117km/h | 13329m | -6.8m/s | -60.3°C | 8.1% | 166.9hPa | 2.5V | 08:07:08 | 02:57:23 | 00:00:00 | i |
| HTAHTA | 2026-09-03 13:46:58 | 51.60462 | 7.14814 | 126° | 162km/h | 13355m | -6.2m/s | -60.1°C | 6.2% | 166.2hPa | 2.6V | 00:00:00 | 00:00:00 | 00:00:00 | |
| DL9SK-14 | 2026-09-03 13:46:55 | 51.60504 | 7.14706 | 117° | 142km/h | 13368m | -6.8m/s | -59.8°C | 5.6% | 165.9hPa | 2.6V | 00:00:00 | 00:00:00 | 00:00:00 | |
| DL1XH-15 | 2026-09-03 13:46:54 | 51.60550 | 7.14581 | 130° | 106km/h | 13387m | -5.8m/s | -59.6°C | 9.5% | 165.3hPa | 2.6V | 08:06:42 | 02:57:14 | 00:00:00 | i |
| DL1XH-west | 2026-09-03 13:46:53 | 51.60519 | 7.14658 | 117° | 126km/h | 13374m | -6.7m/s | -59.7°C | 6.5% | 165.7hPa | 2.6V | 08:07:08 | 02:57:16 | 00:00:00 | i |
| DM0DOS-11 | 2026-09-03 13:46:53 | 51.60593 | 7.14518 | 140° | 126km/h | 13399m | -6.8m/s | -59.6°C | 9.4% | 165.1hPa | 2.5V | 08:06:44 | 02:57:12 | 00:00:00 | i |
| DO2JMG | 2026-09-03 13:46:50 | 51.60570 | 7.14549 | 139° | 113km/h | 13393m | -6.2m/s | -59.6°C | 6% | 165.2hPa | 2.5V | 08:07:08 | 02:57:13 | 00:00:00 | i |
| BIOWL1-15 | 2026-09-03 13:46:47 | 51.60645 | 7.14443 | 134° | 150km/h | 13413m | -6.5m/s | -59.6°C | 5.6% | 164.6hPa | 2.6V | 08:07:08 | 02:57:10 | 00:00:00 | i |
| DL1XH-15 | 2026-09-03 13:46:44 | 51.60748 | 7.14185 | 128° | 91km/h | 13451m | -6.5m/s | -59°C | 7.6% | 163.7hPa | 2.6V | 08:06:52 | 02:57:04 | 00:00:00 | i |
| DL1XH-west | 2026-09-03 13:46:43 | 51.60722 | 7.14255 | 117° | 113km/h | 13438m | -6.3m/s | -59.3°C | 4.5% | 164hPa | 2.5V | 08:07:08 | 02:57:06 | 00:00:00 | i |
| DM0DOS-11 | 2026-09-03 13:46:43 | 51.60785 | 7.14129 | 141° | 111km/h | 13464m | -6m/s | -58.9°C | 7.6% | 163.3hPa | 2.6V | 08:06:54 | 02:57:02 | 00:00:00 | i |
| DO2JMG | 2026-09-03 13:46:39 | 51.60785 | 7.14129 | 142° | 111km/h | 13464m | -6m/s | -59°C | 4% | 163.3hPa | 2.6V | 08:07:08 | 02:57:02 | 00:00:00 | i |
| DJ2DS-15 | 2026-09-03 13:46:38 | 51.60808 | 7.14099 | 140° | 126km/h | 13470m | -6.1m/s | -58.9°C | 3.7% | 163.2hPa | 2.5V | 00:00:00 | 00:00:00 | 00:00:00 | |
| DO9LL-15 | 2026-09-03 13:46:37 | 51.60833 | 7.14063 | 137° | 113km/h | 13476m | -6.3m/s | -58.8°C | 7.5% | 162.9hPa | 2.5V | 00:00:00 | 02:57:00 | 00:00:00 | |
| GOEST3-10 | 2026-09-03 13:46:36 | 51.60856 | 7.14023 | 131° | 137km/h | 13483m | -6.2m/s | -58.7°C | 7.4% | 162.8hPa | 2.5V | 00:00:00 | 00:00:00 | 00:00:00 | i |
| BIOWL1-15 | 2026-09-03 13:46:36 | 51.60857 | 7.14023 | 130° | 139km/h | 13482m | -6.3m/s | -58.8°C | 3.8% | 162.8hPa | 2.5V | 08:07:08 | 02:56:59 | 00:00:00 | i |
| BIOWL9-15 | 2026-09-03 13:46:35 | 51.60878 | 7.13978 | 124° | 133km/h | 13488m | -5.8m/s | -58.8°C | 3.4% | 162.7hPa | 2.6V | 00:00:00 | 00:00:00 | 00:00:00 | |
| DM0DOS-11 | 2026-09-03 13:46:34 | 51.60960 | 7.13760 | 134° | 93km/h | 13525m | -6.6m/s | -58.9°C | 7.1% | 161.7hPa | 2.6V | 08:07:04 | 02:56:52 | 00:00:00 | i |
| DL1XH-west | 2026-09-03 13:46:32 | 51.60921 | 7.13852 | 116° | 102km/h | 13505m | -5.8m/s | -58.9°C | 3.5% | 162.2hPa | 2.5V | 08:07:08 | 02:56:55 | 00:00:00 | i |
| DO2JMG | 2026-09-03 13:46:29 | 51.60960 | 7.13760 | 135° | 93km/h | 13525m | -6.6m/s | -58.9°C | 3.5% | 161.7hPa | 2.6V | 08:07:08 | 02:56:52 | 00:00:00 | i |
| BIOWL1-15 | 2026-09-03 13:46:26 | 51.61021 | 7.13665 | 132° | 131km/h | 13543m | -5.8m/s | -58.8°C | 3.5% | 161.2hPa | 2.5V | 08:07:08 | 02:56:49 | 00:00:00 | i |
| DL3AQ-11 | 2026-09-03 13:46:26 | 51.61042 | 7.13623 | 125° | 133km/h | 13549m | -5.8m/s | -58.8°C | 3.3% | 161.1hPa | 2.6V | 00:00:00 | 00:00:00 | 00:00:00 | i |
| DM0DOS-11 | 2026-09-03 13:46:23 | 51.61115 | 7.13373 | 120° | 84km/h | 13587m | -6.7m/s | -58.9°C | 7% | 160.2hPa | 2.6V | 08:07:14 | 02:56:42 | 00:00:00 | i |
| DL1XH-west | 2026-09-03 13:46:22 | 51.61088 | 7.13485 | 111° | 119km/h | 13567m | -6.3m/s | -58.9°C | 3.2% | 160.6hPa | 2.6V | 08:07:59 | 02:56:45 | 00:00:00 | i |
| DL1XH-15 | 2026-09-03 13:46:21 | 51.61097 | 7.13443 | 108° | 104km/h | 13573m | -6.8m/s | -58.9°C | 7.1% | 160.4hPa | 2.5V | 08:07:12 | 02:56:44 | 00:00:00 | i |
| DO2JMG | 2026-09-03 13:46:19 | 51.61115 | 7.13373 | 121° | 84km/h | 13587m | -6.7m/s | -58.9°C | 3.2% | 160.2hPa | 2.6V | 08:07:59 | 02:56:42 | 00:00:00 | i |
| BIOWL1-15 | 2026-09-03 13:46:15 | 51.61186 | 7.13246 | 130° | 130km/h | 13612m | -6.7m/s | -59°C | 3.2% | 159.5hPa | 2.5V | 08:07:59 | 02:56:38 | 00:00:00 | i |
| DL1XH-west | 2026-09-03 13:46:11 | 51.61243 | 7.13061 | 105° | 108km/h | 13639m | -6.3m/s | -58.8°C | 3% | 158.8hPa | 2.6V | 08:07:59 | 02:56:34 | 00:00:00 | i |
| DO2JMG | 2026-09-03 13:46:08 | 51.61270 | 7.12964 | 129° | 86km/h | 13658m | -6.7m/s | -58.4°C | 2.9% | 158.3hPa | 2.5V | 08:07:59 | 02:56:31 | 00:00:00 | i |
| BIOWL1-15 | 2026-09-03 13:46:04 | 51.61342 | 7.12820 | 119° | 135km/h | 13685m | -6.5m/s | -58°C | 2.8% | 157.7hPa | 2.6V | 08:07:59 | 02:56:27 | 00:00:00 | i |
| DL1XH-west | 2026-09-03 13:46:01 | 51.61374 | 7.12675 | 102° | 110km/h | 13704m | -6.6m/s | -57.6°C | 2.5% | 157.2hPa | 2.6V | 08:07:59 | 02:56:24 | 00:00:00 | i |
| DM0DOS-11 | 2026-09-03 13:46:00 | 51.61386 | 7.12600 | 109° | 84km/h | 13717m | -6.7m/s | -57.3°C | 6% | 156.8hPa | 2.6V | 08:07:34 | 02:56:22 | 00:00:00 | i |
| DO2JMG | 2026-09-03 13:45:57 | 51.61408 | 7.12538 | 127° | 97km/h | 13731m | -6.9m/s | -57.3°C | 2.4% | 156.5hPa | 2.5V | 08:07:59 | 02:56:20 | 00:00:00 | i |
| BIOWL1-15 | 2026-09-03 13:45:53 | 51.61471 | 7.12365 | 109° | 139km/h | 13757m | -6.5m/s | -57.1°C | 2.3% | 155.8hPa | 2.6V | 08:07:59 | 02:56:16 | 00:00:00 | i |
| DL1XH-west | 2026-09-03 13:45:51 | 51.61487 | 7.12262 | 99° | 119km/h | 13771m | -6.9m/s | -56.9°C | 2.1% | 155.5hPa | 2.5V | 08:07:59 | 02:56:14 | 00:00:00 | i |
| DJ2KF-10 | 2026-09-03 13:45:51 | 51.61487 | 7.12262 | 100° | 120km/h | 13771m | -6.8m/s | -56.8°C | 5.8% | 155.5hPa | 2.5V | 00:00:00 | 02:56:14 | 00:00:00 | i |
| DM0DOS-11 | 2026-09-03 13:45:50 | 51.61497 | 7.12180 | 106° | 89km/h | 13785m | -6.5m/s | -56.8°C | 5.8% | 155.1hPa | 2.5V | 08:07:44 | 02:56:12 | 00:00:00 | i |
| DL1XH-15 | 2026-09-03 13:45:49 | 51.61505 | 7.12147 | 117° | 88km/h | 13791m | -6.4m/s | -56.8°C | 5.8% | 155hPa | 2.6V | 08:07:45 | 02:56:11 | 00:00:00 | i |
| DO2JMG | 2026-09-03 13:45:47 | 51.61518 | 7.12115 | 125° | 100km/h | 13797m | -6.7m/s | -56.8°C | 2.1% | 154.9hPa | 2.6V | 08:07:59 | 02:56:10 | 00:00:00 | i |
| WPPR-10 | 2026-09-03 13:45:46 | 51.61533 | 7.12079 | 125° | 117km/h | 13804m | -7.0m/s | -56.8°C | 2.4% | 154.7hPa | 2.6V | 00:00:00 | 00:00:00 | 00:00:00 | |
| DL3AQ-11 | 2026-09-03 13:45:45 | 51.61551 | 7.12037 | 122° | 131km/h | 13811m | -6.7m/s | -56.7°C | 2.4% | 154.6hPa | 2.6V | 00:00:00 | 00:00:00 | 00:00:00 | |
| BIOWL1-15 | 2026-09-03 13:45:44 | 51.61594 | 7.11881 | 104° | 135km/h | 13832m | -7m/s | -56.5°C | 2.1% | 154.1hPa | 2.6V | 08:07:59 | 02:56:05 | 00:00:00 | i |
| DF5WG-10 | 2026-09-03 13:45:44 | 51.61569 | 7.11988 | 118° | 124km/h | 13818m | -6.5m/s | -56.6°C | 5.7% | 154.2hPa | 2.5V | 00:00:00 | 02:56:07 | 00:00:00 | i |
| SONCRA | 2026-09-03 13:45:42 | 51.61594 | 7.11881 | 104° | 135km/h | 13832m | -7.0m/s | -56.5°C | 2.3% | 154.1hPa | 2.5V | 00:00:00 | 00:00:00 | 00:00:00 | |
| DM0DOS-11 | 2026-09-03 13:45:40 | 51.61613 | 7.11749 | 109° | 89km/h | 13851m | -6.5m/s | -56.7°C | 5.6% | 153.5hPa | 2.5V | 08:07:54 | 02:56:02 | 00:00:00 | i |
| DL1XH-west | 2026-09-03 13:45:40 | 51.61607 | 7.11786 | 102° | 102km/h | 13845m | -6.4m/s | -56.7°C | 2% | 153.7hPa | 2.5V | 08:07:59 | 02:56:03 | 00:00:00 | i |
| DO2JMG | 2026-09-03 13:45:37 | 51.61636 | 7.11683 | 127° | 102km/h | 13865m | -6.7m/s | -56.6°C | 2% | 153.3hPa | 2.6V | 08:07:59 | 02:56:00 | 00:00:00 | i |
| DO9LL-15 | 2026-09-03 13:45:37 | 51.61636 | 7.11683 | 127° | 124km/h | 13865m | -6.6m/s | -56.5°C | 5.6% | 153.2hPa | 2.6V | 08:07:00 | 02:56:00 | 00:00:00 | i |
| MET0W-2 | 2026-09-03 13:45:36 | 51.61672 | 7.11605 | 123° | 133km/h | 13878m | -6.6m/s | -56.5°C | 2.3% | 152.9hPa | 2.6V | 00:00:00 | 00:00:00 | 00:00:00 | |
| DM0DOS-11 | 2026-09-03 13:45:35 | 51.61737 | 7.11314 | 108° | 93km/h | 13918m | -6.7m/s | -56.3°C | 5.4% | 151.9hPa | 2.6V | 08:08:04 | 02:55:52 | 00:00:00 | i |
| BIOWL1-15 | 2026-09-03 13:45:31 | 51.61724 | 7.11398 | 103° | 122km/h | 13905m | -6.8m/s | -56.4°C | 1.9% | 152.2hPa | 2.5V | 08:08:50 | 02:55:54 | 00:00:00 | i |
| DL1XH-west | 2026-09-03 13:45:29 | 51.61737 | 7.11314 | 109° | 93km/h | 13918m | -6.7m/s | -56.3°C | 1.9% | 151.9hPa | 2.6V | 08:08:50 | 02:55:52 | 00:00:00 | i |
| DO2JMG | 2026-09-03 13:45:26 | 51.61776 | 7.11211 | 127° | 117km/h | 13938m | -6.6m/s | -56.2°C | 1.9% | 151.4hPa | 2.5V | 08:08:50 | 02:55:49 | 00:00:00 | i |
| BIOWL1-15 | 2026-09-03 13:45:23 | 51.61853 | 7.10964 | 106° | 135km/h | 13970m | -6.5m/s | -56.3°C | 1.8% | 150.7hPa | 2.5V | 08:08:50 | 02:55:44 | 00:00:00 | i |
| DF5WG-10 | 2026-09-03 13:45:23 | 51.61829 | 7.11071 | 115° | 102km/h | 13957m | -6.1m/s | -56.3°C | 5.4% | 150.9hPa | 2.6V | 00:00:00 | 02:55:46 | 00:00:00 | i |
| DO3DL | 2026-09-03 13:45:22 | 51.61829 | 7.11071 | 116° | 144km/h | 13957m | -6.2m/s | -56.3°C | 2.2% | 150.9hPa | 2.6V | 08:08:00 | 00:00:00 | 00:00:00 | |
| DJ2KF-10 | 2026-09-03 13:45:21 | 51.61853 | 7.10964 | 106° | 119km/h | 13970m | -6.5m/s | -56.3°C | 5.2% | 150.7hPa | 2.6V | 00:00:00 | 02:55:44 | 00:00:00 | |
| DM0DOS-11 | 2026-09-03 13:45:20 | 51.61868 | 7.10866 | 103° | 111km/h | 13984m | -7.3m/s | -56.5°C | 5.3% | 150.4hPa | 2.6V | 08:08:14 | 02:55:42 | 00:00:00 | i |
| DL1XH-west | 2026-09-03 13:45:18 | 51.61876 | 7.10825 | 109° | 99km/h | 13991m | -7m/s | -56.5°C | 1.8% | 150.2hPa | 2.6V | 08:08:50 | 02:55:41 | 00:00:00 | i |
| DL1XH-15 | 2026-09-03 13:45:18 | 51.61916 | 7.10718 | 127° | 119km/h | 14011m | -6.8m/s | -56.6°C | 5.5% | 149.7hPa | 2.5V | 08:08:18 | 02:55:38 | 00:00:00 | i |
| DO2JMG | 2026-09-03 13:45:16 | 51.61899 | 7.10755 | 126° | 104km/h | 14004m | -6.6m/s | -56.6°C | 1.9% | 149.9hPa | 2.6V | 08:08:50 | 02:55:39 | 00:00:00 | i |
| BIOWL1-15 | 2026-09-03 13:45:13 | 51.61986 | 7.10524 | 110° | 144km/h | 14036m | -6.1m/s | -56.8°C | 1.9% | 149.1hPa | 2.6V | 08:08:50 | 02:55:34 | 00:00:00 | i |
| DL1XH-west | 2026-09-03 13:45:08 | 51.62015 | 7.10372 | 107° | 113km/h | 14056m | -6.3m/s | -57°C | 1.9% | 148.6hPa | 2.5V | 08:08:50 | 02:55:31 | 00:00:00 | i |
| AA1-15 | 2026-09-03 13:45:05 | 51.62061 | 7.10230 | 129° | 104km/h | 14082m | -7.7m/s | -57°C | 1.9% | 148hPa | 2.5V | 08:08:50 | 02:55:27 | 00:00:00 | i |
| DO2JMG | 2026-09-03 13:45:05 | 51.62046 | 7.10262 | 124° | 95km/h | 14074m | -6.9m/s | -57°C | 2% | 148.3hPa | 2.6V | 08:08:50 | 02:55:28 | 00:00:00 | i |
| BIOWL1-15 | 2026-09-03 13:45:00 | 51.62133 | 7.10055 | 114° | 142km/h | 14109m | -6.7m/s | -57°C | 1.9% | 147.3hPa | 2.6V | 08:08:50 | 02:55:23 | 00:00:00 | i |
| DL1XH-west | 2026-09-03 13:44:57 | 51.62163 | 7.09909 | 106° | 102km/h | 14131m | -7.1m/s | -57°C | 1.9% | 146.9hPa | 2.5V | 08:08:50 | 02:55:20 | 00:00:00 | i |
| DB0UT-7 | 2026-09-03 13:44:56 | 51.62170 | 7.09872 | 113° | 111km/h | 14138m | -6.5m/s | -57.0°C | 5.5% | 146.7hPa | 2.6V | 00:00:00 | 00:00:00 | 00:00:00 | |
| DK5PH-5 | 2026-09-03 13:44:55 | 51.62180 | 7.09842 | 125° | 104km/h | 14145m | -6.2m/s | -57.0°C | 5.6% | 146.4hPa | 2.6V | 00:00:00 | 02:55:18 | 00:00:00 | |
| DM0DOS-11 | 2026-09-03 13:44:54 | 51.62277 | 7.09613 | 109° | 130km/h | 14185m | -6.3m/s | -56.8°C | 5.7% | 145.6hPa | 2.6V | 08:08:44 | 02:55:12 | 00:00:00 | i |
| DO2JMG | 2026-09-03 13:44:54 | 51.62194 | 7.09813 | 131° | 93km/h | 14151m | -6.7m/s | -57°C | 1.9% | 146.4hPa | 2.6V | 08:08:50 | 02:55:17 | 00:00:00 | i |
| AA1-15 | 2026-09-03 13:44:53 | 51.62211 | 7.09783 | 132° | 106km/h | 14158m | -7.4m/s | -56.9°C | 1.9% | 146.3hPa | 2.6V | 08:08:50 | 02:55:16 | 00:00:00 | i |
| BIOWL1-15 | 2026-09-03 13:44:51 | 51.62277 | 7.09613 | 110° | 130km/h | 14185m | -6.3m/s | -56.8°C | 1.9% | 145.6hPa | 2.6V | 08:08:50 | 02:55:12 | 00:00:00 | i |
| DL1XH-west | 2026-09-03 13:44:47 | 51.62294 | 7.09519 | 104° | 110km/h | 14198m | -7.4m/s | -56.7°C | 1.8% | 145.3hPa | 2.6V | 08:08:50 | 02:55:10 | 00:00:00 | i |
| DD1CC8 | 2026-09-03 13:44:45 | 51.62308 | 7.09443 | 112° | 88km/h | 14212m | -5.9m/s | -56.8°C | 2.2% | 145.0hPa | 2.6V | 00:00:00 | 00:00:00 | 00:00:00 | |
| WPPR-10 | 2026-09-03 13:44:44 | 51.62318 | 7.09411 | 121° | 86km/h | 14218m | -5.8m/s | -56.8°C | 2.1% | 144.9hPa | 2.6V | 00:00:00 | 00:00:00 | 00:00:00 | |
| DO2JMG | 2026-09-03 13:44:43 | 51.62331 | 7.09382 | 129° | 91km/h | 14224m | -6.3m/s | -56.6°C | 1.7% | 144.7hPa | 2.6V | 08:08:50 | 02:55:06 | 00:00:00 | i |
| AA1-15 | 2026-09-03 13:44:42 | 51.62347 | 7.09352 | 132° | 102km/h | 14231m | -6.8m/s | -56.4°C | 1.7% | 144.6hPa | 2.6V | 08:17:20 | 02:55:05 | 00:00:00 | i |
| DJ3KS | 2026-09-03 13:44:41 | 51.62347 | 7.09352 | 133° | 102km/h | 14231m | -6.8m/s | -56.4°C | 2.1% | 144.6hPa | 2.5V | 00:00:00 | 00:00:00 | 00:00:00 | |
| DM0DOS-11 | 2026-09-03 13:44:40 | 51.62402 | 7.09237 | 120° | 135km/h | 14253m | -7m/s | -56.2°C | 5.4% | 144.1hPa | 2.5V | 08:08:54 | 02:55:02 | 00:00:00 | i |
| BIOWL1-15 | 2026-09-03 13:44:39 | 51.62402 | 7.09237 | 121° | 135km/h | 14253m | -7m/s | -56.3°C | 1.7% | 144.1hPa | 2.5V | 08:09:41 | 02:55:02 | 00:00:00 | i |
| DL1XH-west | 2026-09-03 13:44:36 | 51.62436 | 7.09090 | 102° | 111km/h | 14275m | -7.6m/s | -55.9°C | 1.6% | 143.6hPa | 2.6V | 08:09:41 | 02:54:59 | 00:00:00 | i |
| DO2JMG | 2026-09-03 13:44:32 | 51.62475 | 7.08956 | 131° | 102km/h | 14303m | -6.5m/s | -56.2°C | 1.6% | 142.9hPa | 2.5V | 08:09:41 | 02:54:55 | 00:00:00 | i |
| AA1-15 | 2026-09-03 13:44:31 | 51.62493 | 7.08923 | 130° | 115km/h | 14310m | -7.1m/s | -56.3°C | 1.7% | 142.8hPa | 2.6V | 08:17:20 | 02:54:54 | 00:00:00 | i |
| DM0DOS-11 | 2026-09-03 13:44:30 | 51.62528 | 7.08839 | 117° | 130km/h | 14325m | -7.7m/s | -56.3°C | 5.4% | 142.4hPa | 2.6V | 08:09:04 | 02:54:52 | 00:00:00 | i |
| BIOWL1-15 | 2026-09-03 13:44:28 | 51.62541 | 7.08792 | 110° | 128km/h | 14332m | -7.1m/s | -56.4°C | 1.7% | 142.4hPa | 2.5V | 08:09:41 | 02:54:51 | 00:00:00 | i |
| DL1XH-west | 2026-09-03 13:44:25 | 51.62559 | 7.08663 | 103° | 86km/h | 14354m | -7.4m/s | -56.3°C | 1.7% | 141.8hPa | 2.6V | 08:09:41 | 02:54:48 | 00:00:00 | i |
| DO2JMG | 2026-09-03 13:44:22 | 51.62588 | 7.08575 | 131° | 93km/h | 14374m | -6.4m/s | -56.2°C | 1.6% | 141.3hPa | 2.6V | 08:09:41 | 02:54:45 | 00:00:00 | i |
| AA1-15 | 2026-09-03 13:44:21 | 51.62605 | 7.08544 | 131° | 108km/h | 14381m | -6.8m/s | -56.3°C | 1.7% | 141.2hPa | 2.6V | 08:17:20 | 02:54:44 | 00:00:00 | i |
| BIOWL1-15 | 2026-09-03 13:44:19 | 51.62667 | 7.08374 | 108° | 124km/h | 14409m | -7m/s | -56.2°C | 1.6% | 140.6hPa | 2.6V | 08:09:41 | 02:54:40 | 00:00:00 | i |
| DL1XH-west | 2026-09-03 13:44:14 | 51.62687 | 7.08252 | 106° | 82km/h | 14430m | -6.2m/s | -56.2°C | 1.6% | 140.1hPa | 2.5V | 08:09:41 | 02:54:37 | 00:00:00 | i |
| DJ2DS-15 | 2026-09-03 13:44:14 | 51.62694 | 7.08222 | 114° | 73km/h | 14436m | -6.0m/s | -56.3°C | 2.0% | 140.0hPa | 2.6V | 00:00:00 | 00:00:00 | 00:00:00 | i |
| DL1XH-15 | 2026-09-03 13:44:13 | 51.62760 | 7.08082 | 123° | 115km/h | 14471m | -6.1m/s | -56°C | 5.3% | 139.2hPa | 2.6V | 08:09:25 | 02:54:31 | 00:00:00 | i |
| DO2JMG | 2026-09-03 13:44:11 | 51.62714 | 7.08173 | 130° | 77km/h | 14449m | -7.7m/s | -56.2°C | 1.7% | 139.6hPa | 2.6V | 08:09:41 | 02:54:34 | 00:00:00 | i |
| AA1-15 | 2026-09-03 13:44:11 | 51.62728 | 7.08148 | 132° | 88km/h | 14457m | -8.1m/s | -56.1°C | 1.7% | 139.6hPa | 2.6V | 08:17:20 | 02:54:33 | 00:00:00 | i |
| BIOWL1-15 | 2026-09-03 13:44:07 | 51.62775 | 7.08040 | 116° | 122km/h | 14477m | -6.3m/s | -55.9°C | 1.6% | 139.1hPa | 2.5V | 08:09:41 | 02:54:30 | 00:00:00 | i |
| DL1XH-west | 2026-09-03 13:44:03 | 51.62807 | 7.07874 | 103° | 80km/h | 14506m | -7m/s | -56°C | 1.5% | 138.4hPa | 2.6V | 08:09:41 | 02:54:26 | 00:00:00 | i |
| DH3RM | 2026-09-03 13:44:01 | 51.62812 | 7.07847 | 114° | 64km/h | 14513m | -6.5m/s | -56.0°C | 1.9% | 138.2hPa | 2.6V | 08:09:00 | 00:00:00 | 00:00:00 | |
| DM0DOS-11 | 2026-09-03 13:44:00 | 51.62848 | 7.07777 | 132° | 95km/h | 14535m | -7.5m/s | -56°C | 5.2% | 137.8hPa | 2.6V | 08:09:34 | 02:54:22 | 00:00:00 | i |
| DO2JMG | 2026-09-03 13:44:00 | 51.62833 | 7.07802 | 135° | 78km/h | 14527m | -7.7m/s | -56°C | 1.6% | 138hPa | 2.5V | 08:09:41 | 02:54:23 | 00:00:00 | i |
| BIOWL1-15 | 2026-09-03 13:43:56 | 51.62892 | 7.07664 | 110° | 115km/h | 14557m | -7m/s | -55.8°C | 1.5% | 137.4hPa | 2.5V | 08:09:41 | 02:54:19 | 00:00:00 | i |
| DL1XH-west | 2026-09-03 13:43:53 | 51.62906 | 7.07545 | 95° | 80km/h | 14578m | -7.2m/s | -55.7°C | 1.5% | 136.9hPa | 2.6V | 08:09:41 | 02:54:16 | 00:00:00 | i |
| HTAHTA | 2026-09-03 13:43:51 | 51.62914 | 7.07492 | 115° | 58km/h | 14593m | -7.3m/s | -55.8°C | 2.0% | 136.7hPa | 2.5V | 00:00:00 | 00:00:00 | 00:00:00 | |
| DM0DOS-11 | 2026-09-03 13:43:50 | 51.62935 | 7.07444 | 128° | 88km/h | 14608m | -8.1m/s | -55.9°C | 5.3% | 136.2hPa | 2.5V | 08:09:44 | 02:54:12 | 00:00:00 | i |
| DO2JMG | 2026-09-03 13:43:49 | 51.62935 | 7.07444 | 129° | 88km/h | 14608m | -8.1m/s | -55.9°C | 1.6% | 136.2hPa | 2.5V | 08:10:32 | 02:54:12 | 00:00:00 | i |
| BIOWL1-15 | 2026-09-03 13:43:47 | 51.62981 | 7.07284 | 100° | 113km/h | 14636m | -7.6m/s | -56°C | 1.5% | 135.6hPa | 2.6V | 08:10:32 | 02:54:08 | 00:00:00 | i |
| DL3AQ-11 | 2026-09-03 13:43:45 | 51.62981 | 7.07284 | 99° | 113km/h | 14636m | -7.6m/s | -56.0°C | 1.9% | 135.6hPa | 2.6V | 00:00:00 | 00:00:00 | 00:00:00 | |
| DM0DOS-11 | 2026-09-03 13:43:44 | 51.63015 | 7.07090 | 128° | 86km/h | 14680m | -7.5m/s | -56°C | 5.1% | 134.8hPa | 2.6V | 08:09:54 | 02:54:02 | 00:00:00 | i |
| DL1XH-west | 2026-09-03 13:43:42 | 51.62989 | 7.07169 | 101° | 73km/h | 14660m | -6.4m/s | -56°C | 1.5% | 135.1hPa | 2.5V | 08:10:32 | 02:54:05 | 00:00:00 | i |
| DL8DAS-15 | 2026-09-03 13:43:40 | 51.62994 | 7.07142 | 115° | 68km/h | 14666m | -6.3m/s | -56.0°C | 1.9% | 135.0hPa | 2.5V | 08:10:00 | 00:00:00 | 00:00:00 | |
| DL1XH-15 | 2026-09-03 13:43:39 | 51.63045 | 7.07024 | 122° | 113km/h | 14696m | -7.8m/s | -55.9°C | 5.4% | 134.5hPa | 2.5V | 08:09:56 | 02:54:00 | 00:00:00 | i |
| DO2JMG | 2026-09-03 13:43:39 | 51.63015 | 7.07090 | 128° | 86km/h | 14680m | -7.5m/s | -56°C | 1.4% | 134.8hPa | 2.6V | 08:10:32 | 02:54:02 | 00:00:00 | i |
| BIOWL1-15 | 2026-09-03 13:43:37 | 51.63070 | 7.06936 | 106° | 119km/h | 14710m | -6.5m/s | -55.7°C | 1.4% | 134hPa | 2.5V | 08:10:32 | 02:53:58 | 00:00:00 | i |
| DO9LL-15 | 2026-09-03 13:43:37 | 51.63045 | 7.07023 | 123° | 88km/h | 14696m | -7.8m/s | -55.9°C | 5.4% | 134.4hPa | 2.6V | 00:00:00 | 02:54:00 | 00:00:00 | i |
| DO1YAY-16 | 2026-09-03 13:43:36 | 51.63059 | 7.06981 | 114° | 120km/h | 14703m | -6.8m/s | -55.6°C | 1.9% | 134.2hPa | 2.6V | 00:00:00 | 00:00:00 | 00:00:00 | |
| DM0DOS-11 | 2026-09-03 13:43:34 | 51.63104 | 7.06737 | 131° | 75km/h | 14752m | -6.5m/s | -55.3°C | 5.1% | 133.2hPa | 2.6V | 08:10:04 | 02:53:52 | 00:00:00 | i |
| GOEST3-10 | 2026-09-03 13:43:34 | 51.63076 | 7.06890 | 100° | 88km/h | 14717m | -7.4m/s | -55.5°C | 5.1% | 134.0hPa | 2.6V | 00:00:00 | 02:53:57 | 00:00:00 | i |
| DL3AQ-11 | 2026-09-03 13:43:33 | 51.63082 | 7.06813 | 98° | 78km/h | 14733m | -7.4m/s | -55.5°C | 1.9% | 133.5hPa | 2.6V | 00:00:00 | 00:00:00 | 00:00:00 | |
| DL1XH-15 | 2026-09-03 13:43:32 | 51.63133 | 7.06684 | 128° | 99km/h | 14768m | -8.7m/s | -55.1°C | 5.1% | 132.8hPa | 2.6V | 08:10:06 | 02:53:50 | 00:00:00 | i |
| DL1XH-west | 2026-09-03 13:43:31 | 51.63086 | 7.06784 | 107° | 66km/h | 14740m | -6.7m/s | -55.1°C | 1.4% | 133.4hPa | 2.5V | 08:10:32 | 02:53:54 | 00:00:00 | i |
| DO2JMG | 2026-09-03 13:43:28 | 51.63118 | 7.06713 | 133° | 86km/h | 14760m | -8.1m/s | -55°C | 1.4% | 133hPa | 2.6V | 08:10:32 | 02:53:51 | 00:00:00 | i |
| BIOWL1-15 | 2026-09-03 13:43:25 | 51.63161 | 7.06608 | 111° | 117km/h | 14784m | -6.5m/s | -54.7°C | 1.3% | 132.5hPa | 2.5V | 08:10:32 | 02:53:48 | 00:00:00 | i |
| DM0DOS-11 | 2026-09-03 13:43:24 | 51.63191 | 7.06419 | 133° | 69km/h | 14828m | -7.8m/s | -54.8°C | 4.9% | 131.6hPa | 2.5V | 08:10:14 | 02:53:42 | 00:00:00 | i |
| DL1XH-west | 2026-09-03 13:43:20 | 51.63181 | 7.06440 | 123° | 58km/h | 14820m | -7.3m/s | -54.9°C | 1.3% | 131.7hPa | 2.5V | 08:10:32 | 02:53:43 | 00:00:00 | i |
| DO2JMG | 2026-09-03 13:43:18 | 51.63204 | 7.06396 | 131° | 88km/h | 14836m | -8m/s | -54.8°C | 1.3% | 131.4hPa | 2.6V | 08:10:32 | 02:53:41 | 00:00:00 | i |
| DL1XH-15 | 2026-09-03 13:43:17 | 51.63219 | 7.06366 | 126° | 100km/h | 14844m | -7.9m/s | -54.7°C | 4.8% | 131.4hPa | 2.6V | 08:10:16 | 02:53:40 | 00:00:00 | i |
| BIOWL1-15 | 2026-09-03 13:43:14 | 51.63248 | 7.06249 | 99° | 99km/h | 14866m | -7.7m/s | -54.6°C | 1.3% | 130.9hPa | 2.5V | 08:10:32 | 02:53:37 | 00:00:00 | i |
| DL1XH-west | 2026-09-03 13:43:10 | 51.63259 | 7.06139 | 123° | 55km/h | 14896m | -7.1m/s | -54.7°C | 1.3% | 130.3hPa | 2.6V | 08:10:32 | 02:53:33 | 00:00:00 | i |
| DD1CC3-15 | 2026-09-03 13:43:10 | 51.63259 | 7.06139 | 124° | 55km/h | 14896m | -7.1m/s | -54.7°C | 1.8% | 130.3hPa | 2.5V | 08:10:00 | 00:00:00 | 00:00:00 | i |
| DH3RM | 2026-09-03 13:43:09 | 51.63259 | 7.06139 | 124° | 55km/h | 14896m | -7.1m/s | -54.7°C | 1.8% | 130.3hPa | 2.5V | 08:10:00 | 00:00:00 | 00:00:00 | |
| DL1XH-15 | 2026-09-03 13:43:07 | 51.63296 | 7.06069 | 127° | 97km/h | 14918m | -7.5m/s | -54.7°C | 4.9% | 129.9hPa | 2.5V | 08:10:26 | 02:53:30 | 00:00:00 | i |
| DO2JMG | 2026-09-03 13:43:07 | 51.63296 | 7.06069 | 127° | 97km/h | 14918m | -7.5m/s | -54.7°C | 1.3% | 129.9hPa | 2.5V | 08:10:32 | 02:53:30 | 00:00:00 | i |
| SONCRA | 2026-09-03 13:43:07 | 51.63310 | 7.06035 | 119° | 106km/h | 14925m | -7.3m/s | -54.7°C | 1.8% | 129.6hPa | 2.5V | 00:00:00 | 00:00:00 | 00:00:00 | i |
| DO1YAY-16 | 2026-09-03 13:43:05 | 51.63329 | 7.05953 | 102° | 104km/h | 14940m | -7.2m/s | -54.7°C | 1.7% | 129.3hPa | 2.5V | 00:00:00 | 00:00:00 | 00:00:00 | |
| DM0DOS-11 | 2026-09-03 13:43:04 | 51.63345 | 7.05804 | 124° | 58km/h | 14977m | -7.9m/s | -54.8°C | 4.8% | 128.6hPa | 2.5V | 08:10:34 | 02:53:22 | 00:00:00 | i |
| BIOWL1-15 | 2026-09-03 13:43:04 | 51.63329 | 7.05953 | 103° | 104km/h | 14940m | -7.2m/s | -54.7°C | 1.2% | 129.3hPa | 2.6V | 08:10:32 | 02:53:27 | 00:00:00 | i |
| DL1XH-west | 2026-09-03 13:42:59 | 51.63345 | 7.05804 | 124° | 58km/h | 14977m | -7.9m/s | -54.8°C | 1.3% | 128.6hPa | 2.5V | 08:11:23 | 02:53:22 | 00:00:00 | i |
| BIOWL9-15 | 2026-09-03 13:42:58 | 51.63355 | 7.05783 | 130° | 71km/h | 14985m | -7.7m/s | -54.8°C | 1.7% | 128.4hPa | 2.6V | 00:00:00 | 00:00:00 | 00:00:00 | |
| DL1XH-15 | 2026-09-03 13:42:57 | 51.63369 | 7.05759 | 130° | 89km/h | 14993m | -8m/s | -54.7°C | 4.8% | 128.4hPa | 2.6V | 08:10:36 | 02:53:20 | 00:00:00 | i |
| DO2JMG | 2026-09-03 13:42:56 | 51.63383 | 7.05727 | 123° | 102km/h | 15000m | -7.8m/s | -54.6°C | 1.3% | 128hPa | 2.6V | 08:11:23 | 02:53:19 | 00:00:00 | i |
| BIOWL1-15 | 2026-09-03 13:42:55 | 51.63410 | 7.05607 | 97° | 95km/h | 15023m | -7.6m/s | -54.6°C | 1.2% | 127.6hPa | 2.5V | 08:11:23 | 02:53:16 | 00:00:00 | i |
| BUE01 | 2026-09-03 13:42:55 | 51.63405 | 7.05648 | 104° | 106km/h | 15015m | -7.6m/s | -54.6°C | 1.7% | 127.8hPa | 2.6V | 00:00:00 | 00:00:00 | 00:00:00 | i |
| DM0DOS-11 | 2026-09-03 13:42:54 | 51.63424 | 7.05498 | 126° | 64km/h | 15053m | -6.9m/s | -54.7°C | 4.8% | 127.1hPa | 2.6V | 08:10:44 | 02:53:12 | 00:00:00 | i |
| AA1-15 | 2026-09-03 13:42:50 | 51.63417 | 7.05519 | 113° | 57km/h | 15046m | -7.1m/s | -54.7°C | 1.2% | 127.3hPa | 2.6V | 08:17:20 | 02:53:13 | 00:00:00 | i |
| DL1XH-west | 2026-09-03 13:42:49 | 51.63424 | 7.05498 | 127° | 64km/h | 15053m | -6.9m/s | -54.7°C | 1.3% | 127.1hPa | 2.6V | 08:11:23 | 02:53:12 | 00:00:00 | i |
| DL1XH-15 | 2026-09-03 13:42:47 | 51.63449 | 7.05449 | 130° | 91km/h | 15066m | -7m/s | -54.8°C | 4.8% | 126.9hPa | 2.6V | 08:10:46 | 02:53:10 | 00:00:00 | i |
| DO2JMG | 2026-09-03 13:42:46 | 51.63465 | 7.05418 | 126° | 104km/h | 15074m | -7.6m/s | -54.8°C | 1.3% | 126.6hPa | 2.5V | 08:11:23 | 02:53:09 | 00:00:00 | i |
| DF5WG-10 | 2026-09-03 13:42:46 | 51.63465 | 7.05418 | 127° | 89km/h | 15074m | -7.6m/s | -54.7°C | 4.8% | 126.5hPa | 2.5V | 00:00:00 | 02:53:09 | 00:00:00 | i |
| GOEST3-10 | 2026-09-03 13:42:45 | 51.63479 | 7.05382 | 120° | 111km/h | 15082m | -7.8m/s | -54.8°C | 4.8% | 126.5hPa | 2.5V | 00:00:00 | 00:00:00 | 00:00:00 | |
| DM0DOS-11 | 2026-09-03 13:42:44 | 51.63514 | 7.05167 | 117° | 66km/h | 15128m | -7m/s | -54.5°C | 4.7% | 125.5hPa | 2.5V | 08:10:54 | 02:53:02 | 00:00:00 | i |
| BIOWL1-15 | 2026-09-03 13:42:42 | 51.63504 | 7.05257 | 96° | 97km/h | 15104m | -7.5m/s | -55°C | 1.3% | 126.1hPa | 2.6V | 08:11:23 | 02:53:05 | 00:00:00 | i |
| AA1-15 | 2026-09-03 13:42:40 | 51.63508 | 7.05192 | 102° | 68km/h | 15120m | -8.2m/s | -55°C | 1.4% | 125.9hPa | 2.6V | 08:17:20 | 02:53:03 | 00:00:00 | i |
| DL1XH-west | 2026-09-03 13:42:38 | 51.63523 | 7.05143 | 129° | 77km/h | 15135m | -6.1m/s | -54.9°C | 1.3% | 125.4hPa | 2.5V | 08:11:23 | 02:53:01 | 00:00:00 | i |
| DO2JMG | 2026-09-03 13:42:36 | 51.63554 | 7.05088 | 131° | 102km/h | 15147m | -7.2m/s | -55.2°C | 1.3% | 125.2hPa | 2.6V | 08:11:23 | 02:52:59 | 00:00:00 | i |
| SONCRA | 2026-09-03 13:42:36 | 51.63571 | 7.05054 | 126° | 110km/h | 15155m | -8.3m/s | -55.1°C | 1.8% | 125.0hPa | 2.6V | 00:00:00 | 00:00:00 | 00:00:00 | i |
| GOEST3-10 | 2026-09-03 13:42:35 | 51.63571 | 7.05054 | 127° | 113km/h | 15155m | -8.3m/s | -55.1°C | 4.9% | 125.0hPa | 2.6V | 00:00:00 | 00:00:00 | 00:00:00 | |
| DM0DOS-11 | 2026-09-03 13:42:34 | 51.63617 | 7.04843 | 109° | 60km/h | 15200m | -8.9m/s | -54.8°C | 4.9% | 124.1hPa | 2.6V | 08:11:04 | 02:52:52 | 00:00:00 | i |
| BIOWL1-15 | 2026-09-03 13:42:32 | 51.63606 | 7.04934 | 103° | 99km/h | 15179m | -6.1m/s | -54.6°C | 1.2% | 124.6hPa | 2.5V | 08:11:23 | 02:52:55 | 00:00:00 | i |
| DL1XH-15 | 2026-09-03 13:42:31 | 51.63635 | 7.04800 | 134° | 77km/h | 15217m | -7.2m/s | -54.2°C | 4.8% | 123.8hPa | 2.6V | 08:11:06 | 02:52:50 | 00:00:00 | i |
| AA1-15 | 2026-09-03 13:42:30 | 51.63613 | 7.04868 | 99° | 68km/h | 15192m | -7.6m/s | -54.5°C | 1.2% | 124.3hPa | 2.5V | 08:17:20 | 02:52:53 | 00:00:00 | i |
| DL1XH-west | 2026-09-03 13:42:27 | 51.63635 | 7.04800 | 134° | 77km/h | 15218m | -7.2m/s | -54.2°C | 1.3% | 123.8hPa | 2.6V | 08:11:23 | 02:52:50 | 00:00:00 | i |
| DO2JMG | 2026-09-03 13:42:26 | 51.63650 | 7.04774 | 132° | 99km/h | 15225m | -6.8m/s | -54.3°C | 1.4% | 123.7hPa | 2.6V | 08:11:23 | 02:52:49 | 00:00:00 | i |
| DJ2DS-15 | 2026-09-03 13:42:26 | 51.63666 | 7.04740 | 122° | 111km/h | 15232m | -7.4m/s | -54.5°C | 1.8% | 123.5hPa | 2.5V | 00:00:00 | 00:00:00 | 00:00:00 | i |
| GOEST3-10 | 2026-09-03 13:42:25 | 51.63666 | 7.04740 | 123° | 97km/h | 15232m | -7.4m/s | -54.5°C | 4.9% | 123.4hPa | 2.5V | 08:11:00 | 00:00:00 | 00:00:00 | |
| DM0DOS-11 | 2026-09-03 13:42:24 | 51.63705 | 7.04547 | 123° | 49km/h | 15277m | -6.5m/s | -54.8°C | 4.8% | 122.8hPa | 2.6V | 08:11:14 | 02:52:42 | 00:00:00 | i |
| BIOWL1-15 | 2026-09-03 13:42:23 | 51.63696 | 7.04590 | 98° | 69km/h | 15263m | -7m/s | -54.5°C | 1.4% | 122.9hPa | 2.6V | 08:11:23 | 02:52:44 | 00:00:00 | i |
| AA1-15 | 2026-09-03 13:42:19 | 51.63705 | 7.04547 | 124° | 49km/h | 15277m | -6.6m/s | -54.8°C | 1.3% | 122.8hPa | 2.6V | 08:17:20 | 02:52:42 | 00:00:00 | i |
| DL1XH-15 | 2026-09-03 13:42:19 | 51.63724 | 7.04514 | 137° | 68km/h | 15292m | -8.6m/s | -54.8°C | 4.8% | 122.5hPa | 2.5V | 08:11:16 | 02:52:40 | 00:00:00 | i |
| DL1XH-west | 2026-09-03 13:42:17 | 51.63724 | 7.04514 | 138° | 68km/h | 15292m | -8.6m/s | -54.8°C | 1.3% | 122.6hPa | 2.5V | 08:11:23 | 02:52:40 | 00:00:00 | i |
| DO2JMG | 2026-09-03 13:42:15 | 51.63752 | 7.04465 | 126° | 95km/h | 15308m | -7.1m/s | -54.7°C | 1.3% | 122.1hPa | 2.6V | 08:11:23 | 02:52:38 | 00:00:00 | i |
| DM0DOS-11 | 2026-09-03 13:42:14 | 51.63782 | 7.04277 | 99° | 42km/h | 15354m | -7.9m/s | -54.5°C | 4.8% | 121.2hPa | 2.5V | 08:11:24 | 02:52:32 | 00:00:00 | i |
| DL3AQ-11 | 2026-09-03 13:42:13 | 51.63779 | 7.04357 | 99° | 89km/h | 15330m | -8.0m/s | -54.6°C | 1.7% | 121.8hPa | 2.6V | 00:00:00 | 00:00:00 | 00:00:00 | |
| DL1XH-15 | 2026-09-03 13:42:12 | 51.63794 | 7.04248 | 138° | 55km/h | 15370m | -8.3m/s | -54.5°C | 4.9% | 121.1hPa | 2.6V | 08:11:26 | 02:52:30 | 00:00:00 | i |
| BIOWL1-15 | 2026-09-03 13:42:12 | 51.63781 | 7.04297 | 90° | 57km/h | 15346m | -7.7m/s | -54.7°C | 1.3% | 121.3hPa | 2.5V | 08:11:23 | 02:52:33 | 00:00:00 | i |
| AA1-15 | 2026-09-03 13:42:09 | 51.63782 | 7.04277 | 99° | 42km/h | 15354m | -7.9m/s | -54.5°C | 1.3% | 121.2hPa | 2.5V | 08:17:20 | 02:52:32 | 00:00:00 | i |
| DL1XH-west | 2026-09-03 13:42:06 | 51.63806 | 7.04230 | 135° | 75km/h | 15378m | -8.2m/s | -54.1°C | 1.2% | 120.7hPa | 2.6V | 08:12:14 | 02:52:29 | 00:00:00 | i |
| DO2JMG | 2026-09-03 13:42:05 | 51.63819 | 7.04205 | 126° | 88km/h | 15386m | -7.8m/s | -54.5°C | 1.3% | 120.5hPa | 2.6V | 08:12:14 | 02:52:28 | 00:00:00 | i |
| SONCRA | 2026-09-03 13:42:05 | 51.63831 | 7.04173 | 114° | 95km/h | 15394m | -6.9m/s | -54.8°C | 1.7% | 120.5hPa | 2.6V | 00:00:00 | 00:00:00 | 00:00:00 | i |
| DM0DOS-11 | 2026-09-03 13:42:04 | 51.63842 | 7.04011 | 90° | 49km/h | 15432m | -8.4m/s | -54.8°C | 4.9% | 119.7hPa | 2.6V | 08:11:34 | 02:52:22 | 00:00:00 | i |
| DO1YAY-16 | 2026-09-03 13:42:03 | 51.63843 | 7.04099 | 95° | 89km/h | 15408m | -7.2m/s | -54.8°C | 1.7% | 120.2hPa | 2.5V | 00:00:00 | 00:00:00 | 00:00:00 | |
| DL1XH-15 | 2026-09-03 13:42:02 | 51.63851 | 7.03976 | 131° | 57km/h | 15448m | -7.3m/s | -54°C | 4.6% | 119.4hPa | 2.5V | 08:11:36 | 02:52:20 | 00:00:00 | i |
| BIOWL1-15 | 2026-09-03 13:42:00 | 51.63843 | 7.04034 | 84° | 66km/h | 15423m | -8.5m/s | -54.5°C | 1.2% | 119.9hPa | 2.6V | 08:12:14 | 02:52:23 | 00:00:00 | i |
| AA1-15 | 2026-09-03 13:41:58 | 51.63844 | 7.03993 | 114° | 44km/h | 15440m | -8.4m/s | -54.3°C | 1.2% | 119.6hPa | 2.6V | 08:17:20 | 02:52:21 | 00:00:00 | i |
| DL1XH-west | 2026-09-03 13:41:55 | 51.63876 | 7.03929 | 126° | 93km/h | 15462m | -7m/s | -54.3°C | 1.3% | 119.2hPa | 2.5V | 08:12:14 | 02:52:18 | 00:00:00 | i |
| DF5WG-10 | 2026-09-03 13:41:55 | 51.63876 | 7.03929 | 126° | 71km/h | 15463m | -6.9m/s | -54.3°C | 4.8% | 119.2hPa | 2.5V | 08:11:00 | 02:52:18 | 00:00:00 | i |
| DM0DOS-11 | 2026-09-03 13:41:54 | 51.63909 | 7.03738 | 101° | 46km/h | 15509m | -7.2m/s | -53.8°C | 4.4% | 118.2hPa | 2.5V | 08:11:44 | 02:52:12 | 00:00:00 | i |
| DO2JMG | 2026-09-03 13:41:54 | 51.63888 | 7.03895 | 117° | 99km/h | 15470m | -7.6m/s | -54°C | 1.2% | 119hPa | 2.6V | 08:12:14 | 02:52:17 | 00:00:00 | i |
| BIOWL1-15 | 2026-09-03 13:41:52 | 51.63908 | 7.03759 | 92° | 60km/h | 15502m | -7.3m/s | -53.8°C | 1.1% | 118.4hPa | 2.5V | 08:12:14 | 02:52:13 | 00:00:00 | i |
| DJ2KF-10 | 2026-09-03 13:41:50 | 51.63908 | 7.03759 | 92° | 73km/h | 15502m | -7.3m/s | -53.8°C | 4.4% | 118.3hPa | 2.5V | 00:00:00 | 02:52:13 | 00:00:00 | |
| DL1XH-15 | 2026-09-03 13:41:47 | 51.63920 | 7.03707 | 134° | 51km/h | 15523m | -7.6m/s | -54.1°C | 4.5% | 118hPa | 2.6V | 08:11:46 | 02:52:10 | 00:00:00 | |
| AA1-15 | 2026-09-03 13:41:45 | 51.63944 | 7.03669 | 134° | 82km/h | 15539m | -8.6m/s | -54.2°C | 1.2% | 117.7hPa | 2.6V | 08:17:20 | 02:52:08 | 00:00:00 | i |
| DO2JMG | 2026-09-03 13:41:44 | 51.63958 | 7.03641 | 124° | 95km/h | 15548m | -8.8m/s | -54.4°C | 1.3% | 117.6hPa | 2.6V | 08:12:14 | 02:52:07 | 00:00:00 | i |
| DF5WG-10 | 2026-09-03 13:41:44 | 51.63958 | 7.03641 | 124° | 84km/h | 15548m | -8.8m/s | -54.3°C | 4.8% | 117.6hPa | 2.6V | 00:00:00 | 02:52:07 | 00:00:00 | i |
| DB0ND-19 | 2026-09-03 13:41:43 | 51.63977 | 7.03532 | 87° | 80km/h | 15572m | -7.3m/s | 0°C | -1.0% | -1.0hPa | 2.6V | 00:00:00 | 00:00:00 | 00:00:00 | |
| DL1XH-15 | 2026-09-03 13:41:42 | 51.63990 | 7.03446 | 129° | 71km/h | 15604m | -7.4m/s | -54.5°C | 4.7% | 116.5hPa | 2.6V | 08:11:56 | 02:52:00 | 00:00:00 | i |
| BIOWL1-15 | 2026-09-03 13:41:41 | 51.63976 | 7.03483 | 99° | 46km/h | 15589m | -8.5m/s | -54.7°C | 1.3% | 116.8hPa | 2.6V | 08:12:14 | 02:52:02 | 00:00:00 | i |
| DO2JMG | 2026-09-03 13:41:34 | 51.64021 | 7.03349 | 104° | 97km/h | 15628m | -8.6m/s | -54.5°C | 1.2% | 116.1hPa | 2.5V | 08:12:14 | 02:51:57 | 00:00:00 | i |
| SONCRA | 2026-09-03 13:41:34 | 51.64025 | 7.03311 | 94° | 89km/h | 15636m | -7.9m/s | -54.4°C | 1.6% | 116.0hPa | 2.6V | 00:00:00 | 00:00:00 | 00:00:00 | i |
| DL3AQ-11 | 2026-09-03 13:41:33 | 51.64025 | 7.03278 | 86° | 75km/h | 15644m | -7.2m/s | -54.5°C | 1.6% | 115.8hPa | 2.6V | 00:00:00 | 00:00:00 | 00:00:00 | |
| DL1XH-15 | 2026-09-03 13:41:32 | 51.64040 | 7.03179 | 133° | 64km/h | 15682m | -7.1m/s | -54.7°C | 4.7% | 115.1hPa | 2.6V | 08:12:06 | 02:51:50 | 00:00:00 | i |
| BIOWL1-15 | 2026-09-03 13:41:29 | 51.64025 | 7.03213 | 109° | 42km/h | 15666m | -8.1m/s | -54.7°C | 1.2% | 115.4hPa | 2.5V | 08:12:14 | 02:51:52 | 00:00:00 | i |
| DO2JMG | 2026-09-03 13:41:23 | 51.64085 | 7.03062 | 107° | 93km/h | 15713m | -8.1m/s | -54.9°C | 1.2% | 114.7hPa | 2.6V | 08:12:14 | 02:51:46 | 00:00:00 | i |
| BIOWL1-15 | 2026-09-03 13:41:19 | 51.64092 | 7.02946 | 96° | 47km/h | 15743m | -8m/s | -55.2°C | 1.3% | 114.1hPa | 2.5V | 08:12:14 | 02:51:42 | 00:00:00 | i |
| DL1XH-west | 2026-09-03 13:41:13 | 51.64152 | 7.02826 | 121° | 91km/h | 15790m | -8.6m/s | -55.1°C | 1.3% | 113.2hPa | 2.6V | 08:13:05 | 02:51:36 | 00:00:00 | i |
| DO2JMG | 2026-09-03 13:41:12 | 51.64162 | 7.02793 | 111° | 89km/h | 15798m | -7.9m/s | -55°C | 1.3% | 113.1hPa | 2.6V | 08:13:05 | 02:51:35 | 00:00:00 | i |
| DL1XH-15 | 2026-09-03 13:41:11 | 51.64171 | 7.02669 | 115° | 35km/h | 15838m | -9.2m/s | -55.1°C | 4.8% | 112.3hPa | 2.6V | 08:12:26 | 02:51:30 | 00:00:00 | i |
| BIOWL1-15 | 2026-09-03 13:41:09 | 51.64169 | 7.02703 | 87° | 57km/h | 15821m | -7.7m/s | -55°C | 1.3% | 112.7hPa | 2.5V | 08:13:05 | 02:51:32 | 00:00:00 | i |
| DD1CC8 | 2026-09-03 13:41:08 | 51.64171 | 7.02669 | 115° | 33km/h | 15838m | -9.2m/s | -55.1°C | 1.6% | 112.3hPa | 2.6V | 00:00:00 | 00:00:00 | 00:00:00 | |
| DF5WG-10 | 2026-09-03 13:41:07 | 51.64171 | 7.02669 | 116° | 66km/h | 15838m | -9.1m/s | -55.0°C | 4.8% | 112.3hPa | 2.6V | 00:00:00 | 02:51:30 | 00:00:00 | |
| DO3DL | 2026-09-03 13:41:06 | 51.64171 | 7.02669 | 117° | 35km/h | 15838m | -9.2m/s | -55.1°C | 1.6% | 112.3hPa | 2.6V | 08:13:00 | 00:00:00 | 00:00:00 | |
| GOEST3-10 | 2026-09-03 13:41:05 | 51.64188 | 7.02642 | 142° | 86km/h | 15855m | -7.7m/s | -55.0°C | 4.8% | 112.1hPa | 2.6V | 00:00:00 | 00:00:00 | 00:00:00 | |
| DM0DOS-11 | 2026-09-03 13:41:04 | 51.64233 | 7.02462 | 88° | 57km/h | 15903m | -7.3m/s | -55°C | 4.7% | 111.2hPa | 2.6V | 08:12:34 | 02:51:22 | 00:00:00 | i |
| DL1XH-west | 2026-09-03 13:41:03 | 51.64215 | 7.02591 | 121° | 93km/h | 15870m | -7.6m/s | -54.9°C | 1.2% | 111.9hPa | 2.5V | 08:13:05 | 02:51:26 | 00:00:00 | i |
| DO2JMG | 2026-09-03 13:41:01 | 51.64231 | 7.02521 | 101° | 88km/h | 15886m | -8.9m/s | -54.9°C | 1.1% | 111.7hPa | 2.5V | 08:13:05 | 02:51:24 | 00:00:00 | i |
| BIOWL1-15 | 2026-09-03 13:41:00 | 51.64234 | 7.02442 | 96° | 40km/h | 15911m | -7.4m/s | -55°C | 1.1% | 111.2hPa | 2.6V | 08:13:05 | 02:51:21 | 00:00:00 | i |
| GOEST3-10 | 2026-09-03 13:41:00 | 51.64233 | 7.02488 | 92° | 51km/h | 15895m | -8.5m/s | -54.9°C | 4.6% | 111.3hPa | 2.6V | 00:00:00 | 02:51:23 | 00:00:00 | i |
| DL4BBY-15 | 2026-09-03 13:40:59 | 51.64234 | 7.02462 | 89° | 73km/h | 15904m | -7.3m/s | -54.8°C | 0% | 0hPa | 2.6V | 00:00:00 | 00:00:00 | 00:00:00 | |
| DL8DAS-15 | 2026-09-03 13:40:58 | 51.64233 | 7.02462 | 90° | 57km/h | 15903m | -7.3m/s | -55.0°C | 1.6% | 111.2hPa | 2.6V | 00:00:00 | 00:00:00 | 00:00:00 | |
| DB0UT-7 | 2026-09-03 13:40:57 | 51.64236 | 7.02428 | 118° | 69km/h | 15918m | -7.9m/s | -55.0°C | 4.7% | 110.9hPa | 2.6V | 00:00:00 | 00:00:00 | 00:00:00 | |
| GOEST3-10 | 2026-09-03 13:40:55 | 51.64252 | 7.02400 | 139° | 84km/h | 15936m | -8.9m/s | -55.1°C | 4.8% | 110.7hPa | 2.6V | 08:12:00 | 00:00:00 | 00:00:00 | |
| DM0DOS-11 | 2026-09-03 13:40:54 | 51.64298 | 7.02215 | 86° | 73km/h | 15984m | -8.1m/s | -55.3°C | 4.8% | 109.8hPa | 2.5V | 08:12:44 | 02:51:12 | 00:00:00 | i |
| DL1XH-west | 2026-09-03 13:40:53 | 51.64277 | 7.02353 | 123° | 91km/h | 15952m | -7.8m/s | -55.2°C | 1.2% | 110.5hPa | 2.6V | 08:13:05 | 02:51:16 | 00:00:00 | i |
| DO3DL | 2026-09-03 13:40:52 | 51.64277 | 7.02353 | 124° | 91km/h | 15952m | -7.8m/s | -55.2°C | 1.7% | 110.5hPa | 2.5V | 08:13:00 | 00:00:00 | 00:00:00 | |
| DL1XH-15 | 2026-09-03 13:40:51 | 51.64298 | 7.02247 | 93° | 86km/h | 15976m | -8m/s | -55.2°C | 4.8% | 110.1hPa | 2.5V | 08:12:43 | 02:51:13 | 00:00:00 | i |
| BIOWL1-15 | 2026-09-03 13:40:51 | 51.64297 | 7.02168 | 97° | 46km/h | 16000m | -8.5m/s | -55.2°C | 1.2% | 109.6hPa | 2.6V | 08:13:05 | 02:51:10 | 00:00:00 | i |
| DO2JMG | 2026-09-03 13:40:50 | 51.64298 | 7.02247 | 93° | 86km/h | 15976m | -8m/s | -55.2°C | 1.2% | 110.1hPa | 2.5V | 08:13:05 | 02:51:13 | 00:00:00 | i |
| DJ2KF-10 | 2026-09-03 13:40:50 | 51.64298 | 7.02247 | 94° | 75km/h | 15976m | -7.9m/s | -55.2°C | 4.8% | 110.0hPa | 2.5V | 00:00:00 | 02:51:13 | 00:00:00 | i |
| DO2KSM | 2026-09-03 13:40:49 | 51.64298 | 7.02247 | 94° | 86km/h | 15976m | -8.0m/s | -55.2°C | 1.6% | 110.1hPa | 2.5V | 08:13:00 | 00:00:00 | 00:00:00 | |
| DB0NH | 2026-09-03 13:40:48 | 51.64297 | 7.02188 | 87° | 78km/h | 15992m | -8.1m/s | -55.2°C | 4.8% | 109.7hPa | 2.5V | 00:00:00 | 02:51:11 | 00:00:00 | |
| DF5WG-10 | 2026-09-03 13:40:47 | 51.64297 | 7.02168 | 97° | 71km/h | 16000m | -8.5m/s | -55.2°C | 4.8% | 109.6hPa | 2.5V | 00:00:00 | 02:51:10 | 00:00:00 | |
| DD1CC3-15 | 2026-09-03 13:40:46 | 51.64297 | 7.02168 | 98° | 46km/h | 16000m | -8.5m/s | -55.2°C | 1.7% | 109.6hPa | 2.5V | 08:13:00 | 00:00:00 | 00:00:00 | |
| DK5PH-5 | 2026-09-03 13:40:45 | 51.64308 | 7.02136 | 136° | 62km/h | 16017m | -8.3m/s | -55.2°C | 4.8% | 109.3hPa | 2.5V | 08:12:00 | 02:51:08 | 00:00:00 | |
| DM0DOS-11 | 2026-09-03 13:40:44 | 51.64370 | 7.01949 | 92° | 86km/h | 16066m | -7.6m/s | -55.4°C | 4.8% | 108.5hPa | 2.5V | 08:12:54 | 02:51:02 | 00:00:00 | i |
| DL1XH-west | 2026-09-03 13:40:42 | 51.64349 | 7.02061 | 121° | 100km/h | 16043m | -8.5m/s | -55.4°C | 1.2% | 109hPa | 2.6V | 08:13:05 | 02:51:05 | 00:00:00 | i |
| DL1XH-15 | 2026-09-03 13:40:41 | 51.64367 | 7.01985 | 100° | 97km/h | 16059m | -7.5m/s | -55.3°C | 4.8% | 108.5hPa | 2.6V | 08:12:53 | 02:51:03 | 00:00:00 | i |
| DO2JMG | 2026-09-03 13:40:39 | 51.64370 | 7.01949 | 93° | 86km/h | 16067m | -7.6m/s | -55.4°C | 1.1% | 108.6hPa | 2.5V | 08:13:05 | 02:51:02 | 00:00:00 | i |
| BIOWL1-15 | 2026-09-03 13:40:36 | 51.64370 | 7.01869 | 102° | 47km/h | 16092m | -9.5m/s | -55.4°C | 1.2% | 108hPa | 2.6V | 08:13:05 | 02:50:59 | 00:00:00 | i |
| DF5WG-10 | 2026-09-03 13:40:36 | 51.64370 | 7.01869 | 103° | 88km/h | 16092m | -9.4m/s | -55.3°C | 4.8% | 108.0hPa | 2.6V | 00:00:00 | 02:50:59 | 00:00:00 | i |
| GOEST3-10 | 2026-09-03 13:40:35 | 51.64375 | 7.01851 | 124° | 84km/h | 16101m | -8.8m/s | -55.3°C | 4.7% | 107.8hPa | 2.6V | 00:00:00 | 00:00:00 | 00:00:00 | |
| DM0DOS-11 | 2026-09-03 13:40:34 | 51.64442 | 7.01665 | 99° | 89km/h | 16152m | -8.1m/s | -55.4°C | 4.8% | 107hPa | 2.6V | 08:13:04 | 02:50:52 | 00:00:00 | i |
| DL1XH-west | 2026-09-03 13:40:31 | 51.64426 | 7.01742 | 117° | 108km/h | 16134m | -9.4m/s | -55.5°C | 1.1% | 107.3hPa | 2.6V | 08:13:05 | 02:50:54 | 00:00:00 | i |
| DO2JMG | 2026-09-03 13:40:29 | 51.64442 | 7.01665 | 99° | 91km/h | 16152m | -8.1m/s | -55.4°C | 1.1% | 107hPa | 2.6V | 08:13:05 | 02:50:52 | 00:00:00 | i |
| BIOWL1-15 | 2026-09-03 13:40:27 | 51.64453 | 7.01569 | 124° | 47km/h | 16183m | -8.6m/s | -55.4°C | 1.1% | 106.5hPa | 2.5V | 08:13:56 | 02:50:48 | 00:00:00 | i |
| DB0UT-7 | 2026-09-03 13:40:27 | 51.64445 | 7.01606 | 96° | 68km/h | 16168m | -7.4m/s | -55.5°C | 4.8% | 106.6hPa | 2.5V | 00:00:00 | 02:50:50 | 00:00:00 | i |
| DO3DL | 2026-09-03 13:40:26 | 51.64445 | 7.01606 | 97° | 57km/h | 16168m | -7.5m/s | -55.5°C | 1.6% | 106.7hPa | 2.5V | 08:13:00 | 00:00:00 | 00:00:00 | |
| DF5WG-10 | 2026-09-03 13:40:25 | 51.64453 | 7.01569 | 124° | 64km/h | 16184m | -8.6m/s | -55.4°C | 4.8% | 106.4hPa | 2.5V | 00:00:00 | 02:50:48 | 00:00:00 | |
| BIOWL9-15 | 2026-09-03 13:40:23 | 51.64487 | 7.01508 | 130° | 89km/h | 16208m | -7.7m/s | -55.3°C | 1.5% | 106.0hPa | 2.5V | 00:00:00 | 00:00:00 | 00:00:00 | |
| DL1XH-15 | 2026-09-03 13:40:21 | 51.64513 | 7.01442 | 114° | 100km/h | 16225m | -8.9m/s | -55.3°C | 4.6% | 105.9hPa | 2.5V | 08:13:13 | 02:50:43 | 00:00:00 | i |
| DL1XH-west | 2026-09-03 13:40:21 | 51.64501 | 7.01478 | 123° | 99km/h | 16216m | -8.3m/s | -55.3°C | 1% | 106hPa | 2.5V | 08:13:56 | 02:50:44 | 00:00:00 | i |
| DO2JMG | 2026-09-03 13:40:19 | 51.64521 | 7.01404 | 105° | 97km/h | 16234m | -9m/s | -55.3°C | 1% | 105.6hPa | 2.6V | 08:13:56 | 02:50:42 | 00:00:00 | i |
| DB0NH | 2026-09-03 13:40:16 | 51.64527 | 7.01313 | 92° | 71km/h | 16258m | -7.3m/s | -55.4°C | 4.6% | 105.1hPa | 2.6V | 00:00:00 | 02:50:39 | 00:00:00 | |
| DK5PH-5 | 2026-09-03 13:40:15 | 51.64528 | 7.01295 | 105° | 60km/h | 16266m | -7.6m/s | -55.4°C | 4.7% | 105.1hPa | 2.5V | 00:00:00 | 02:50:38 | 00:00:00 | |
| DM0DOS-11 | 2026-09-03 13:40:14 | 51.64581 | 7.01166 | 99° | 91km/h | 16320m | -8.7m/s | -55.1°C | 4.5% | 104.3hPa | 2.5V | 08:13:24 | 02:50:32 | 00:00:00 | i |
| BIOWL1-15 | 2026-09-03 13:40:14 | 51.64532 | 7.01282 | 127° | 35km/h | 16274m | -9m/s | -55.4°C | 1% | 105.1hPa | 2.5V | 08:13:56 | 02:50:37 | 00:00:00 | i |
| DL1XH-west | 2026-09-03 13:40:10 | 51.64574 | 7.01202 | 113° | 93km/h | 16311m | -8.5m/s | -55.2°C | 1% | 104.4hPa | 2.6V | 08:13:56 | 02:50:33 | 00:00:00 | i |
| DO2JMG | 2026-09-03 13:40:08 | 51.64582 | 7.01132 | 88° | 80km/h | 16328m | -8.5m/s | -55.2°C | 0.9% | 104.2hPa | 2.5V | 08:13:56 | 02:50:31 | 00:00:00 | i |
| BIOWL1-15 | 2026-09-03 13:40:03 | 51.64588 | 7.01039 | 134° | 53km/h | 16371m | -8.1m/s | -55.5°C | 1% | 103.4hPa | 2.5V | 08:13:56 | 02:50:26 | 00:00:00 | i |
| DL1XH-15 | 2026-09-03 13:40:01 | 51.64618 | 7.00963 | 109° | 91km/h | 16398m | -8.7m/s | -55.5°C | 4.7% | 103hPa | 2.6V | 08:13:33 | 02:50:23 | 00:00:00 | i |
| DL1XH-west | 2026-09-03 13:39:59 | 51.64624 | 7.00927 | 98° | 91km/h | 16406m | -8.5m/s | -55.5°C | 0.9% | 102.9hPa | 2.6V | 08:13:56 | 02:50:22 | 00:00:00 | i |
| DO2JMG | 2026-09-03 13:39:58 | 51.64624 | 7.00892 | 85° | 84km/h | 16415m | -9m/s | -55.5°C | 1% | 102.7hPa | 2.6V | 08:13:56 | 02:50:21 | 00:00:00 | i |
| BIOWL1-15 | 2026-09-03 13:39:56 | 51.64640 | 7.00772 | 129° | 71km/h | 16467m | -8.3m/s | -55.5°C | 1% | 101.9hPa | 2.6V | 08:13:56 | 02:50:15 | 00:00:00 | i |
| AA1-15 | 2026-09-03 13:39:54 | 51.64621 | 7.00807 | 125° | 42km/h | 16450m | -7.9m/s | -55.5°C | 0.9% | 102.2hPa | 2.6V | 08:17:20 | 02:50:17 | 00:00:00 | i |
| DM0DOS-11 | 2026-09-03 13:39:54 | 51.64671 | 7.00679 | 105° | 95km/h | 16491m | -8.4m/s | -55.4°C | 4.6% | 101.6hPa | 2.5V | 08:13:44 | 02:50:12 | 00:00:00 | i |
| BIOWL9-15 | 2026-09-03 13:39:52 | 51.64651 | 7.00746 | 123° | 84km/h | 16475m | -8.4m/s | -55.5°C | 1.5% | 101.8hPa | 2.5V | 00:00:00 | 00:00:00 | 00:00:00 | |
| DL1XH-15 | 2026-09-03 13:39:51 | 51.64662 | 7.00714 | 114° | 93km/h | 16483m | -8.1m/s | -55.4°C | 4.7% | 101.5hPa | 2.5V | 08:13:43 | 02:50:13 | 00:00:00 | i |
| DL1XH-west | 2026-09-03 13:39:49 | 51.64671 | 7.00679 | 106° | 95km/h | 16491m | -8.4m/s | -55.4°C | 0.9% | 101.6hPa | 2.5V | 08:13:56 | 02:50:12 | 00:00:00 | i |
| DO2JMG | 2026-09-03 13:39:47 | 51.64677 | 7.00607 | 89° | 80km/h | 16508m | -8.4m/s | -55.3°C | 0.8% | 101.2hPa | 2.6V | 08:13:56 | 02:50:10 | 00:00:00 | i |
| DL3AQ-11 | 2026-09-03 13:39:45 | 51.64675 | 7.00553 | 87° | 49km/h | 16526m | -8.8m/s | -55.4°C | 1.5% | 100.9hPa | 2.5V | 00:00:00 | 00:00:00 | 00:00:00 | |
| DM0DOS-11 | 2026-09-03 13:39:44 | 51.64729 | 7.00417 | 116° | 102km/h | 16577m | -8.2m/s | -55.2°C | 4.6% | 100hPa | 2.5V | 08:13:54 | 02:50:02 | 00:00:00 | i |
| AA1-15 | 2026-09-03 13:39:43 | 51.64681 | 7.00519 | 128° | 47km/h | 16543m | -8.8m/s | -55.4°C | 0.9% | 100.7hPa | 2.6V | 08:17:20 | 02:50:06 | 00:00:00 | i |
| BIOWL1-15 | 2026-09-03 13:39:43 | 51.64702 | 7.00480 | 131° | 80km/h | 16560m | -8.2m/s | -55.4°C | 1% | 100.4hPa | 2.6V | 08:13:56 | 02:50:04 | 00:00:00 | i |
| DL1XH-15 | 2026-09-03 13:39:41 | 51.64716 | 7.00451 | 124° | 95km/h | 16568m | -7.7m/s | -55.3°C | 4.7% | 100.2hPa | 2.5V | 08:13:53 | 02:50:03 | 00:00:00 | i |
| DL1XH-west | 2026-09-03 13:39:39 | 51.64728 | 7.00417 | 117° | 102km/h | 16577m | -8.2m/s | -55.2°C | 0.9% | 100hPa | 2.5V | 08:13:56 | 02:50:02 | 00:00:00 | i |
| DO2JMG | 2026-09-03 13:39:36 | 51.64748 | 7.00302 | 93° | 86km/h | 16603m | -8.7m/s | -55.1°C | 0.8% | 99.7hPa | 2.6V | 08:14:47 | 02:49:59 | 00:00:00 | i |
| DB0NH | 2026-09-03 13:39:36 | 51.64748 | 7.00302 | 94° | 60km/h | 16603m | -8.6m/s | -55.1°C | 4.6% | 99.7hPa | 2.6V | 00:00:00 | 02:49:59 | 00:00:00 | i |
| DD1CC8 | 2026-09-03 13:39:35 | 51.64748 | 7.00246 | 92° | 53km/h | 16620m | -8.1m/s | -55.3°C | 1.4% | 99.4hPa | 2.6V | 00:00:00 | 00:00:00 | 00:00:00 | |
| DM0DOS-11 | 2026-09-03 13:39:34 | 51.64790 | 7.00143 | 124° | 93km/h | 16663m | -7.5m/s | -55.1°C | 4.8% | 98.7hPa | 2.6V | 08:14:04 | 02:49:52 | 00:00:00 | i |
| AA1-15 | 2026-09-03 13:39:32 | 51.64756 | 7.00210 | 126° | 49km/h | 16637m | -9.5m/s | -55.3°C | 0.9% | 99.2hPa | 2.5V | 08:17:20 | 02:49:55 | 00:00:00 | i |
| BIOWL1-15 | 2026-09-03 13:39:32 | 51.64777 | 7.00171 | 131° | 78km/h | 16655m | -8.3m/s | -55.2°C | 0.9% | 99hPa | 2.6V | 08:14:47 | 02:49:53 | 00:00:00 | i |
| DL1XH-15 | 2026-09-03 13:39:31 | 51.64777 | 7.00171 | 130° | 78km/h | 16655m | -8.3m/s | -55.2°C | 4.8% | 99hPa | 2.6V | 08:14:03 | 02:49:53 | 00:00:00 | i |
| DL1XH-west | 2026-09-03 13:39:28 | 51.64802 | 7.00109 | 116° | 100km/h | 16671m | -7.7m/s | -55.1°C | 0.9% | 98.7hPa | 2.5V | 08:14:47 | 02:49:51 | 00:00:00 | i |
| DO2JMG | 2026-09-03 13:39:26 | 51.64819 | 7.00034 | 103° | 95km/h | 16687m | -8.8m/s | -55.1°C | 0.9% | 98.4hPa | 2.6V | 08:14:47 | 02:49:49 | 00:00:00 | i |
| AU51GT2 | 2026-09-03 13:39:26 | 51.64823 | 6.99998 | 96° | 84km/h | 16696m | -8.8m/s | -55.1°C | 1.4% | 98.2hPa | 2.6V | 00:00:00 | 00:00:00 | 00:00:00 | i |
| DJ2DS-15 | 2026-09-03 13:39:25 | 51.64823 | 6.99998 | 96° | 84km/h | 16696m | -8.8m/s | -55.1°C | 1.4% | 98.2hPa | 2.6V | 00:00:00 | 00:00:00 | 00:00:00 | |
| DM0DOS-11 | 2026-09-03 13:39:24 | 51.64849 | 6.99879 | 138° | 60km/h | 16746m | -9.9m/s | -54.4°C | 4.5% | 97.5hPa | 2.6V | 08:14:14 | 02:49:42 | 00:00:00 | i |
| AA1-15 | 2026-09-03 13:39:20 | 51.64839 | 6.99893 | 138° | 47km/h | 16737m | -9.2m/s | -54.5°C | 0.8% | 97.6hPa | 2.6V | 08:17:20 | 02:49:43 | 00:00:00 | i |
| BIOWL1-15 | 2026-09-03 13:39:19 | 51.64849 | 6.99879 | 139° | 60km/h | 16747m | -9.9m/s | -54.4°C | 0.8% | 97.5hPa | 2.6V | 08:14:47 | 02:49:42 | 00:00:00 | i |
| DL1XH-west | 2026-09-03 13:39:17 | 51.64874 | 6.99833 | 123° | 88km/h | 16765m | -8m/s | -54.2°C | 0.8% | 97.2hPa | 2.5V | 08:14:47 | 02:49:40 | 00:00:00 | i |
| DO2JMG | 2026-09-03 13:39:15 | 51.64891 | 6.99765 | 102° | 91km/h | 16781m | -8.6m/s | -53.9°C | 0.6% | 97hPa | 2.6V | 08:14:47 | 02:49:38 | 00:00:00 | i |
| DO3DL | 2026-09-03 13:39:14 | 51.64891 | 6.99765 | 103° | 91km/h | 16781m | -8.6m/s | -53.9°C | 1.3% | 97.0hPa | 2.5V | 08:14:00 | 00:00:00 | 00:00:00 | |
| GOEST3-10 | 2026-09-03 13:39:13 | 51.64893 | 6.99699 | 84° | 58km/h | 16800m | -10.0m/s | -53.7°C | 4.1% | 96.7hPa | 2.5V | 00:00:00 | 02:49:36 | 00:00:00 | |
| BUE01 | 2026-09-03 13:39:12 | 51.64891 | 6.99675 | 81° | 49km/h | 16809m | -9.1m/s | -53.8°C | 1.2% | 96.5hPa | 2.5V | 00:00:00 | 00:00:00 | 00:00:00 | |
| DL1XH-15 | 2026-09-03 13:39:11 | 51.64895 | 6.99646 | 131° | 38km/h | 16826m | -8.6m/s | -53.8°C | 4.2% | 96.3hPa | 2.5V | 08:14:23 | 02:49:33 | 00:00:00 | i |
| BIOWL1-15 | 2026-09-03 13:39:08 | 51.64914 | 6.99613 | 130° | 71km/h | 16844m | -8.6m/s | -54°C | 0.8% | 96.1hPa | 2.6V | 08:14:47 | 02:49:31 | 00:00:00 | i |
| DL1XH-west | 2026-09-03 13:39:07 | 51.64925 | 6.99587 | 121° | 84km/h | 16852m | -8.4m/s | -53.9°C | 0.7% | 95.9hPa | 2.6V | 08:14:47 | 02:49:30 | 00:00:00 | i |
| AA1-15 | 2026-09-03 13:39:06 | 51.64935 | 6.99556 | 111° | 89km/h | 16861m | -8.9m/s | -53.9°C | 0.7% | 95.8hPa | 2.5V | 08:17:20 | 02:49:29 | 00:00:00 | i |
| DO2JMG | 2026-09-03 13:39:04 | 51.64943 | 6.99487 | 90° | 80km/h | 16880m | -9.5m/s | -54°C | 0.7% | 95.5hPa | 2.6V | 08:14:47 | 02:49:27 | 00:00:00 | i |
| DD1CC3-15 | 2026-09-03 13:39:03 | 51.64942 | 6.99487 | 91° | 80km/h | 16880m | -9.5m/s | -54.0°C | 1.3% | 95.5hPa | 2.5V | 08:14:00 | 00:00:00 | 00:00:00 | |
| WPPR-10 | 2026-09-03 13:39:02 | 51.64938 | 6.99436 | 75° | 47km/h | 16898m | -8.3m/s | -54.2°C | 1.3% | 95.2hPa | 2.5V | 00:00:00 | 00:00:00 | 00:00:00 | |
| DL1XH-15 | 2026-09-03 13:39:01 | 51.64938 | 6.99408 | 116° | 27km/h | 16915m | -9.3m/s | -54.3°C | 4.4% | 95.1hPa | 2.5V | 08:14:33 | 02:49:23 | 00:00:00 | i |
| BIOWL1-15 | 2026-09-03 13:38:58 | 51.64951 | 6.99383 | 132° | 58km/h | 16935m | -10m/s | -54.5°C | 0.8% | 94.8hPa | 2.6V | 08:14:47 | 02:49:21 | 00:00:00 | |
| DL1XH-west | 2026-09-03 13:38:56 | 51.64970 | 6.99331 | 110° | 88km/h | 16953m | -8m/s | -54.5°C | 0.9% | 94.4hPa | 2.5V | 08:14:47 | 02:49:19 | 00:00:00 | i |
| AA1-15 | 2026-09-03 13:38:55 | 51.64975 | 6.99296 | 97° | 89km/h | 16961m | -8.6m/s | -54.5°C | 0.8% | 94.3hPa | 2.5V | 08:17:20 | 02:49:18 | 00:00:00 | i |
| DO2JMG | 2026-09-03 13:38:53 | 51.64973 | 6.99229 | 76° | 73km/h | 16980m | -10m/s | -53.6°C | 0.6% | 94.1hPa | 2.6V | 08:14:47 | 02:49:16 | 00:00:00 | i |
| BIOWL1-15 | 2026-09-03 13:38:48 | 51.64983 | 6.99143 | 130° | 73km/h | 17027m | -7.9m/s | -53.8°C | 0.6% | 93.4hPa | 2.6V | 08:14:47 | 02:49:11 | 00:00:00 | i |
| DL1XH-west | 2026-09-03 13:38:46 | 51.65003 | 6.99084 | 108° | 89km/h | 17046m | -10.7m/s | -53.9°C | 0.7% | 93hPa | 2.5V | 08:14:47 | 02:49:09 | 00:00:00 | i |
| AA1-15 | 2026-09-03 13:38:45 | 51.65008 | 6.99049 | 96° | 84km/h | 17057m | -10m/s | -53.9°C | 0.7% | 92.9hPa | 2.5V | 08:17:20 | 02:49:08 | 00:00:00 | i |
| DO2JMG | 2026-09-03 13:38:43 | 51.65005 | 6.98994 | 75° | 47km/h | 17075m | -8.7m/s | -54°C | 0.6% | 92.7hPa | 2.6V | 08:15:38 | 02:49:06 | 00:00:00 | i |
| DD1CC3-15 | 2026-09-03 13:38:42 | 51.65005 | 6.98994 | 76° | 47km/h | 17075m | -8.7m/s | -54.0°C | 1.3% | 92.7hPa | 2.5V | 08:15:00 | 00:00:00 | 00:00:00 | |
| DL1XH-15 | 2026-09-03 13:38:41 | 51.65013 | 6.98957 | 139° | 49km/h | 17103m | -8.8m/s | -54°C | 4.3% | 92.2hPa | 2.5V | 08:14:53 | 02:49:03 | 00:00:00 | i |
| BIOWL1-15 | 2026-09-03 13:38:37 | 51.65049 | 6.98889 | 120° | 91km/h | 17129m | -9.4m/s | -54.1°C | 0.8% | 91.9hPa | 2.6V | 08:15:38 | 02:49:00 | 00:00:00 | i |
| AA1-15 | 2026-09-03 13:38:34 | 51.65065 | 6.98769 | 86° | 46km/h | 17165m | -8.1m/s | -54.2°C | 0.6% | 91.3hPa | 2.6V | 08:17:20 | 02:48:56 | 00:00:00 | i |
| DL1XH-west | 2026-09-03 13:38:34 | 51.65066 | 6.98792 | 89° | 66km/h | 17157m | -8.2m/s | -54.2°C | 0.7% | 91.5hPa | 2.6V | 08:16:29 | 02:48:57 | 00:00:00 | i |
| DO2JMG | 2026-09-03 13:38:32 | 51.65065 | 6.98754 | 98° | 33km/h | 17174m | -8.4m/s | -54.4°C | 0.7% | 91.2hPa | 2.6V | 08:15:38 | 02:48:55 | 00:00:00 | i |
| DL1XH-15 | 2026-09-03 13:38:32 | 51.65075 | 6.98733 | 145° | 42km/h | 17192m | -9.9m/s | -54.5°C | 4.3% | 90.9hPa | 2.5V | 08:15:03 | 02:48:53 | 00:00:00 | i |
| DM0DOS-11 | 2026-09-03 13:38:32 | 51.65085 | 6.98722 | 145° | 60km/h | 17202m | -9.4m/s | -54.5°C | 4.3% | 90.9hPa | 2.6V | 08:15:04 | 02:48:52 | 00:00:00 | i |
| BIOWL1-15 | 2026-09-03 13:38:26 | 51.65124 | 6.98648 | 115° | 91km/h | 17228m | -9.4m/s | -54.2°C | 0.6% | 90.4hPa | 2.5V | 08:15:38 | 02:48:49 | 00:00:00 | i |
| AA1-15 | 2026-09-03 13:38:23 | 51.65135 | 6.98556 | 85° | 55km/h | 17257m | -8.9m/s | -53.9°C | 0.6% | 90hPa | 2.6V | 08:17:20 | 02:48:46 | 00:00:00 | i |
| DL1XH-west | 2026-09-03 13:38:22 | 51.65134 | 6.98539 | 88° | 33km/h | 17265m | -8.3m/s | -54.1°C | 0.6% | 89.9hPa | 2.6V | 08:16:29 | 02:48:45 | 00:00:00 | i |
| DM0DOS-11 | 2026-09-03 13:38:21 | 51.65150 | 6.98511 | 146° | 53km/h | 17293m | -10m/s | -53.9°C | 4.2% | 89.5hPa | 2.6V | 08:15:14 | 02:48:42 | 00:00:00 | i |
| DO2JMG | 2026-09-03 13:38:21 | 51.65136 | 6.98528 | 123° | 26km/h | 17274m | -8.5m/s | -54.4°C | 0.7% | 89.8hPa | 2.5V | 08:15:38 | 02:48:44 | 00:00:00 | i |
| BIOWL1-15 | 2026-09-03 13:38:15 | 51.65189 | 6.98410 | 97° | 78km/h | 17330m | -9.1m/s | -54.3°C | 0.7% | 89hPa | 2.5V | 08:15:38 | 02:48:38 | 00:00:00 | i |
| DL1XH-west | 2026-09-03 13:38:11 | 51.65183 | 6.98328 | 87° | 20km/h | 17366m | -9.6m/s | -54.8°C | 0.8% | 88.6hPa | 2.5V | 08:16:29 | 02:48:34 | 00:00:00 | i |
| DM0DOS-11 | 2026-09-03 13:38:11 | 51.65192 | 6.98314 | 152° | 42km/h | 17385m | -9.3m/s | -54.9°C | 4.5% | 88.3hPa | 2.6V | 08:15:24 | 02:48:32 | 00:00:00 | i |
| DO2JMG | 2026-09-03 13:38:10 | 51.65185 | 6.98321 | 139° | 22km/h | 17376m | -9.6m/s | -54.6°C | 0.6% | 88.3hPa | 2.5V | 08:15:38 | 02:48:33 | 00:00:00 | i |
| BIOWL1-15 | 2026-09-03 13:38:04 | 51.65232 | 6.98202 | 88° | 62km/h | 17431m | -9.5m/s | -54.6°C | 0.7% | 87.6hPa | 2.6V | 08:15:38 | 02:48:27 | 00:00:00 | i |
| GOEST3-10 | 2026-09-03 13:38:02 | 51.65229 | 6.98165 | 79° | 44km/h | 17450m | -9.0m/s | -54.3°C | 4.3% | 87.3hPa | 2.5V | 00:00:00 | 00:00:00 | 00:00:00 | |
| DL1XH-15 | 2026-09-03 13:38:01 | 51.65234 | 6.98153 | 160° | 27km/h | 17467m | -8.6m/s | -54.6°C | 4.6% | 87.1hPa | 2.5V | 08:15:33 | 02:48:23 | 00:00:00 | i |
| DL1XH-west | 2026-09-03 13:38:01 | 51.65229 | 6.98157 | 124° | 15km/h | 17459m | -8.5m/s | -54.3°C | 0.8% | 87.2hPa | 2.5V | 08:16:29 | 02:48:24 | 00:00:00 | i |
| DO2JMG | 2026-09-03 13:38:00 | 51.65234 | 6.98153 | 161° | 27km/h | 17467m | -8.6m/s | -54.6°C | 0.8% | 87.1hPa | 2.5V | 08:15:38 | 02:48:23 | 00:00:00 | i |
| SONCRA | 2026-09-03 13:37:56 | 51.65277 | 6.98096 | 117° | 77km/h | 17505m | -7.6m/s | -54.5°C | 1.2% | 86.6hPa | 2.5V | 00:00:00 | 00:00:00 | 00:00:00 | |
| DO1YAY-16 | 2026-09-03 13:37:54 | 51.65287 | 6.98034 | 93° | 77km/h | 17521m | -9.6m/s | -54.6°C | 0% | 86.4hPa | 2.5V | 00:00:00 | 00:00:00 | 00:00:00 | i |
| BIOWL1-15 | 2026-09-03 13:37:54 | 51.65287 | 6.98034 | 93° | 77km/h | 17521m | -9.6m/s | -54.6°C | 0.6% | 86.4hPa | 2.6V | 08:16:29 | 02:48:17 | 00:00:00 | i |
| AU51GT2 | 2026-09-03 13:37:53 | 51.65285 | 6.97982 | 79° | 47km/h | 17543m | -11.1m/s | -54.6°C | 1.2% | 86.1hPa | 2.5V | 00:00:00 | 00:00:00 | 00:00:00 | |
| GOEST3-10 | 2026-09-03 13:37:52 | 51.65284 | 6.97982 | 80° | 46km/h | 17543m | -11.1m/s | -54.6°C | 4.2% | 86.0hPa | 2.5V | 00:00:00 | 00:00:00 | 00:00:00 | |
| DL1XH-15 | 2026-09-03 13:37:51 | 51.65287 | 6.97957 | 143° | 29km/h | 17562m | -8.6m/s | -54.5°C | 4.3% | 85.8hPa | 2.5V | 08:15:43 | 02:48:13 | 00:00:00 | i |
| AA1-15 | 2026-09-03 13:37:50 | 51.65287 | 6.97957 | 143° | 29km/h | 17562m | -8.6m/s | -54.5°C | 0.7% | 85.9hPa | 2.5V | 08:17:20 | 02:48:13 | 00:00:00 | i |
| DO2JMG | 2026-09-03 13:37:50 | 51.65295 | 6.97948 | 149° | 53km/h | 17571m | -9.1m/s | -54.4°C | 0.7% | 85.7hPa | 2.6V | 08:16:29 | 02:48:12 | 00:00:00 | i |
| BIOWL9-15 | 2026-09-03 13:37:48 | 51.65321 | 6.97911 | 127° | 80km/h | 17591m | -10.3m/s | -53.9°C | 1.2% | 85.4hPa | 2.6V | 00:00:00 | 00:00:00 | 00:00:00 | |
| BIOWL1-15 | 2026-09-03 13:37:43 | 51.65338 | 6.97791 | 80° | 60km/h | 17627m | -9.1m/s | -54.5°C | 0.7% | 84.9hPa | 2.6V | 08:16:29 | 02:48:06 | 00:00:00 | i |
| DM0DOS-11 | 2026-09-03 13:37:41 | 51.65345 | 6.97729 | 138° | 49km/h | 17665m | -8.8m/s | -54.6°C | 4.3% | 84.4hPa | 2.6V | 08:15:54 | 02:48:02 | 00:00:00 | i |
| DL1XH-west | 2026-09-03 13:37:40 | 51.65337 | 6.97741 | 124° | 35km/h | 17656m | -9.3m/s | -54.3°C | 0.6% | 84.5hPa | 2.5V | 08:16:29 | 02:48:03 | 00:00:00 | i |
| DL1XH-15 | 2026-09-03 13:37:40 | 51.65337 | 6.97741 | 124° | 35km/h | 17656m | -9.3m/s | -54.3°C | 4.2% | 84.5hPa | 2.5V | 08:15:53 | 02:48:03 | 00:00:00 | i |
| DO2JMG | 2026-09-03 13:37:39 | 51.65344 | 6.97729 | 139° | 49km/h | 17665m | -8.8m/s | -54.6°C | 0.6% | 84.4hPa | 2.6V | 08:16:29 | 02:48:02 | 00:00:00 | i |
| AA1-15 | 2026-09-03 13:37:38 | 51.65355 | 6.97714 | 139° | 68km/h | 17674m | -8.7m/s | -55°C | 0.8% | 84.4hPa | 2.6V | 08:17:20 | 02:48:01 | 00:00:00 | i |
| BIOWL1-15 | 2026-09-03 13:37:33 | 51.65402 | 6.97559 | 90° | 80km/h | 17723m | -8.9m/s | -55°C | 0.7% | 83.8hPa | 2.7V | 08:16:29 | 02:47:56 | 00:00:00 | i |
| DL3AQ-11 | 2026-09-03 13:37:33 | 51.65401 | 6.97530 | 83° | 62km/h | 17732m | -9.3m/s | -55.0°C | 1.2% | 83.6hPa | 2.5V | 00:00:00 | 00:00:00 | 00:00:00 | i |
| DL1XH-15 | 2026-09-03 13:37:32 | 51.65400 | 6.97493 | 102° | 31km/h | 17751m | -9.7m/s | -55°C | 4.4% | 83.4hPa | 2.5V | 08:16:03 | 02:47:53 | 00:00:00 | i |
| DM0DOS-11 | 2026-09-03 13:37:32 | 51.65405 | 6.97482 | 139° | 37km/h | 17761m | -10m/s | -54.8°C | 4.3% | 83.2hPa | 2.6V | 08:16:04 | 02:47:52 | 00:00:00 | i |
| DL1XH-west | 2026-09-03 13:37:29 | 51.65405 | 6.97482 | 140° | 37km/h | 17761m | -10m/s | -54.8°C | 0.6% | 83.2hPa | 2.6V | 08:16:29 | 02:47:52 | 00:00:00 | i |
| DO2JMG | 2026-09-03 13:37:28 | 51.65414 | 6.97471 | 146° | 57km/h | 17771m | -10m/s | -54.7°C | 0.6% | 83.2hPa | 2.6V | 08:16:29 | 02:47:51 | 00:00:00 | i |
| AA1-15 | 2026-09-03 13:37:27 | 51.65427 | 6.97454 | 139° | 75km/h | 17781m | -9.7m/s | -54.6°C | 0.7% | 82.9hPa | 2.6V | 08:17:20 | 02:47:50 | 00:00:00 | i |
| DD1CC1-15 | 2026-09-03 13:37:27 | 51.65427 | 6.97454 | 140° | 75km/h | 17781m | -9.7m/s | -54.6°C | 1.2% | 82.9hPa | 2.5V | 08:16:00 | 00:00:00 | 00:00:00 | i |
| GOEST3-10 | 2026-09-03 13:37:26 | 51.65441 | 6.97430 | 128° | 57km/h | 17791m | -9.5m/s | -54.6°C | 4.3% | 82.8hPa | 2.5V | 00:00:00 | 02:47:49 | 00:00:00 | |
| DL1XH-15 | 2026-09-03 13:37:25 | 51.65463 | 6.97291 | 134° | 24km/h | 17846m | -8.9m/s | -54.8°C | 4.4% | 82hPa | 2.5V | 08:16:13 | 02:47:43 | 00:00:00 | i |
| BIOWL1-15 | 2026-09-03 13:37:22 | 51.65461 | 6.97315 | 86° | 46km/h | 17829m | -8.3m/s | -54.7°C | 0.6% | 82.4hPa | 2.6V | 08:16:29 | 02:47:45 | 00:00:00 | i |
| DL3AQ-11 | 2026-09-03 13:37:22 | 51.65461 | 6.97300 | 96° | 26km/h | 17838m | -8.4m/s | -54.4°C | 1.2% | 82.2hPa | 2.6V | 00:00:00 | 00:00:00 | 00:00:00 | i |
| DM0DOS-11 | 2026-09-03 13:37:21 | 51.65469 | 6.97285 | 156° | 33km/h | 17856m | -10.1m/s | -54.7°C | 4.5% | 82.1hPa | 2.6V | 08:16:14 | 02:47:42 | 00:00:00 | i |
| DL1XH-west | 2026-09-03 13:37:18 | 51.65478 | 6.97278 | 153° | 51km/h | 17866m | -10.7m/s | -54.3°C | 0.6% | 81.8hPa | 2.6V | 08:16:29 | 02:47:41 | 00:00:00 | i |
| DO2JMG | 2026-09-03 13:37:17 | 51.65491 | 6.97265 | 143° | 66km/h | 17877m | -9.7m/s | -54.5°C | 0.7% | 81.7hPa | 2.6V | 08:16:29 | 02:47:40 | 00:00:00 | i |
| BIOWL1-15 | 2026-09-03 13:37:13 | 51.65524 | 6.97120 | 76° | 27km/h | 17934m | -8.5m/s | -55.3°C | 0.8% | 81hPa | 2.5V | 08:16:29 | 02:47:34 | 00:00:00 | i |
| DL1XH-15 | 2026-09-03 13:37:12 | 51.65524 | 6.97113 | 120° | 11km/h | 17943m | -8.2m/s | -55.4°C | 4.7% | 80.8hPa | 2.5V | 08:16:23 | 02:47:33 | 00:00:00 | i |
| DM0DOS-11 | 2026-09-03 13:37:11 | 51.65527 | 6.97110 | 170° | 22km/h | 17952m | -9.6m/s | -55.2°C | 4.7% | 80.9hPa | 2.6V | 08:16:24 | 02:47:32 | 00:00:00 | i |
| AA1-15 | 2026-09-03 13:37:09 | 51.65527 | 6.97110 | 171° | 22km/h | 17952m | -9.6m/s | -55.2°C | 0.8% | 80.9hPa | 2.6V | 08:17:20 | 02:47:32 | 00:00:00 | i |
| DL1XH-west | 2026-09-03 13:37:08 | 51.65534 | 6.97107 | 164° | 37km/h | 17962m | -11.5m/s | -55°C | 0.8% | 80.6hPa | 2.6V | 08:16:29 | 02:47:31 | 00:00:00 | i |
| DO2JMG | 2026-09-03 13:37:07 | 51.65545 | 6.97100 | 149° | 53km/h | 17973m | -11.5m/s | -54.8°C | 0.8% | 80.5hPa | 2.6V | 08:16:29 | 02:47:30 | 00:00:00 | |
| DO9LL-15 | 2026-09-03 13:37:07 | 51.65545 | 6.97099 | 149° | 40km/h | 17973m | -11.4m/s | -54.8°C | 4.6% | 80.4hPa | 2.6V | 00:00:00 | 02:47:30 | 00:00:00 | |
| DL3AQ-11 | 2026-09-03 13:37:06 | 51.65569 | 6.97034 | 93° | 69km/h | 18001m | -8.6m/s | -54.6°C | 1.2% | 80.2hPa | 2.6V | 00:00:00 | 00:00:00 | 00:00:00 | |
| DL8DAS-14 | 2026-09-03 13:37:04 | 51.65569 | 6.97034 | 93° | 69km/h | 18001m | -8.6m/s | -54.6°C | 1.2% | 80.2hPa | 2.6V | 00:00:00 | 00:00:00 | 00:00:00 | |
| DH3RM | 2026-09-03 13:37:03 | 51.65569 | 6.97034 | 95° | 69km/h | 18001m | -8.6m/s | -54.6°C | 1.2% | 80.2hPa | 2.6V | 08:16:00 | 00:00:00 | 00:00:00 | |
| DO2KSM | 2026-09-03 13:37:02 | 51.65568 | 6.97007 | 81° | 60km/h | 18011m | -10.1m/s | -54.6°C | 1.2% | 80.1hPa | 2.6V | 08:17:00 | 00:00:00 | 00:00:00 | |
| DM0DOS-11 | 2026-09-03 13:37:01 | 51.65562 | 6.96965 | 174° | 20km/h | 18050m | -8.6m/s | -55°C | 4.5% | 79.6hPa | 2.6V | 08:16:34 | 02:47:22 | 00:00:00 | i |
| BIOWL1-15 | 2026-09-03 13:37:01 | 51.65561 | 6.96973 | 61° | 27km/h | 18032m | -10.3m/s | -54.8°C | 0.7% | 79.8hPa | 2.5V | 08:17:20 | 02:47:24 | 00:00:00 | i |
| DL1XH-15 | 2026-09-03 13:37:00 | 51.65559 | 6.96966 | 90° | 7km/h | 18041m | -8.9m/s | -54.9°C | 4.5% | 79.7hPa | 2.5V | 08:16:33 | 02:47:23 | 00:00:00 | i |
| AA1-15 | 2026-09-03 13:36:59 | 51.65562 | 6.96965 | 175° | 22km/h | 18050m | -8.6m/s | -55°C | 0.7% | 79.6hPa | 2.6V | 08:17:20 | 02:47:22 | 00:00:00 | i |
| DL1XH-west | 2026-09-03 13:36:57 | 51.65580 | 6.96955 | 151° | 51km/h | 18069m | -10.5m/s | -54.7°C | 0.7% | 79.4hPa | 2.6V | 08:17:20 | 02:47:20 | 00:00:00 | i |
| DO2JMG | 2026-09-03 13:36:56 | 51.65591 | 6.96941 | 133° | 60km/h | 18080m | -11.2m/s | -54.3°C | 0.7% | 79.2hPa | 2.5V | 08:17:20 | 02:47:19 | 00:00:00 | i |
| BIOWL1-15 | 2026-09-03 13:36:53 | 51.65591 | 6.96855 | 30° | 13km/h | 18129m | -9.1m/s | -54.4°C | 0.6% | 78.6hPa | 2.5V | 08:17:20 | 02:47:14 | 00:00:00 | i |
| DO1YAY-16 | 2026-09-03 13:36:52 | 51.65595 | 6.96861 | 47° | 31km/h | 18120m | -9.6m/s | -54.3°C | 1.2% | 78.8hPa | 2.6V | 00:00:00 | 00:00:00 | 00:00:00 | |
| DM0DOS-11 | 2026-09-03 13:36:51 | 51.65593 | 6.96852 | 163° | 22km/h | 18147m | -9.3m/s | -54.2°C | 4.2% | 78.4hPa | 2.6V | 08:16:44 | 02:47:12 | 00:00:00 | i |
| AA1-15 | 2026-09-03 13:36:49 | 51.65594 | 6.96852 | 163° | 22km/h | 18148m | -9.3m/s | -54.2°C | 0.6% | 78.4hPa | 2.6V | 08:17:20 | 02:47:12 | 00:00:00 | i |
| DL1XH-west | 2026-09-03 13:36:46 | 51.65615 | 6.96817 | 116° | 57km/h | 18176m | -9.7m/s | -54.1°C | 0.7% | 78.1hPa | 2.5V | 08:17:20 | 02:47:09 | 00:00:00 | i |
| DO2JMG | 2026-09-03 13:36:45 | 51.65620 | 6.96794 | 99° | 62km/h | 18185m | -9m/s | -54.1°C | 0.6% | 77.9hPa | 2.5V | 08:17:20 | 02:47:08 | 00:00:00 | i |
| BIOWL1-15 | 2026-09-03 13:36:40 | 51.65596 | 6.96708 | 36° | 18km/h | 18233m | -11m/s | -54.3°C | 0.7% | 77.3hPa | 2.5V | 08:17:20 | 02:47:03 | 00:00:00 | i |
| AA1-15 | 2026-09-03 13:36:38 | 51.65599 | 6.96701 | 151° | 31km/h | 18252m | -9.2m/s | -54.2°C | 0.7% | 77.2hPa | 2.6V | 08:17:20 | 02:47:01 | 00:00:00 | i |
| DL1XH-west | 2026-09-03 13:36:34 | 51.65622 | 6.96626 | 88° | 62km/h | 18291m | -10m/s | -54.1°C | 0.6% | 76.5hPa | 2.6V | 08:17:20 | 02:46:57 | 00:00:00 | i |
| BIOWL1-15 | 2026-09-03 13:36:30 | 51.65606 | 6.96573 | 30° | 2km/h | 18332m | -10.1m/s | -53.8°C | 0.5% | 76.2hPa | 2.5V | 08:17:20 | 02:46:53 | 00:00:00 | i |
| DO2JMG | 2026-09-03 13:36:24 | 51.65649 | 6.96498 | 101° | 64km/h | 18390m | -10.7m/s | -53.8°C | 0.6% | 75.5hPa | 2.5V | 08:17:20 | 02:46:47 | 00:00:00 | i |
| DL1XH-west | 2026-09-03 13:36:23 | 51.65650 | 6.96474 | 84° | 55km/h | 18401m | -10.1m/s | -53.8°C | 0.5% | 75.2hPa | 2.5V | 08:17:20 | 02:46:46 | 00:00:00 | i |
| AA1-15 | 2026-09-03 13:36:20 | 51.65640 | 6.96442 | 337° | 4km/h | 18430m | -11.2m/s | -53.7°C | 0.5% | 75hPa | 2.6V | 08:17:20 | 02:46:43 | 00:00:00 | i |
| BIOWL1-15 | 2026-09-03 13:36:19 | 51.65641 | 6.96442 | 187° | 16km/h | 18442m | -11.6m/s | -53.8°C | 0.5% | 75hPa | 2.6V | 08:17:20 | 02:46:42 | 00:00:00 | i |
| DO2JMG | 2026-09-03 13:36:14 | 51.65675 | 6.96365 | 85° | 57km/h | 18493m | -10.8m/s | -53.6°C | 0.5% | 74.3hPa | 2.6V | 08:17:20 | 02:46:37 | 00:00:00 | i |
| DL1XH-west | 2026-09-03 13:36:13 | 51.65672 | 6.96345 | 67° | 44km/h | 18503m | -9.4m/s | -53.7°C | 0.4% | 74.1hPa | 2.5V | 08:17:20 | 02:46:36 | 00:00:00 | i |
| BIOWL1-15 | 2026-09-03 13:36:11 | 51.65670 | 6.96326 | 164° | 29km/h | 18543m | -10m/s | -54.1°C | 0.6% | 73.8hPa | 2.6V | 08:18:11 | 02:46:32 | 00:00:00 | i |
| DL1XH-15 | 2026-09-03 13:36:10 | 51.65670 | 6.96326 | 163° | 29km/h | 18543m | -10m/s | -54.1°C | 4.2% | 73.8hPa | 2.6V | 08:17:24 | 02:46:32 | 00:00:00 | i |
| AA1-15 | 2026-09-03 13:36:10 | 51.65665 | 6.96328 | 172° | 11km/h | 18532m | -10.8m/s | -54°C | 0.5% | 73.8hPa | 2.6V | 08:19:53 | 02:46:33 | 00:00:00 | i |
| DL1XH-west | 2026-09-03 13:36:03 | 51.65702 | 6.96208 | 73° | 57km/h | 18600m | -9.7m/s | -54.6°C | 0.6% | 73hPa | 2.5V | 08:18:11 | 02:46:26 | 00:00:00 | i |
| DL8DAS-14 | 2026-09-03 13:36:02 | 51.65697 | 6.96189 | 59° | 44km/h | 18610m | -10.1m/s | -54.7°C | 1.2% | 72.9hPa | 2.6V | 00:00:00 | 00:00:00 | 00:00:00 | |
| DO2KSM | 2026-09-03 13:36:01 | 51.65697 | 6.96189 | 61° | 46km/h | 18610m | -10.1m/s | -54.7°C | 1.2% | 72.9hPa | 2.6V | 08:18:00 | 00:00:00 | 00:00:00 | |
| DL1XH-15 | 2026-09-03 13:36:00 | 51.65690 | 6.96166 | 150° | 16km/h | 18641m | -9.8m/s | -54.7°C | 4.5% | 72.5hPa | 2.6V | 08:17:34 | 02:46:22 | 00:00:00 | i |
| AA1-15 | 2026-09-03 13:36:00 | 51.65689 | 6.96170 | 69° | 11km/h | 18631m | -10.4m/s | -54.7°C | 0.7% | 72.7hPa | 2.6V | 08:19:53 | 02:46:23 | 00:00:00 | i |
| BIOWL1-15 | 2026-09-03 13:35:58 | 51.65696 | 6.96161 | 156° | 35km/h | 18650m | -9.1m/s | -54.7°C | 0.7% | 72.5hPa | 2.5V | 08:18:11 | 02:46:21 | 00:00:00 | i |
| GOEST3-10 | 2026-09-03 13:35:57 | 51.65706 | 6.96153 | 148° | 62km/h | 18660m | -9.3m/s | -54.6°C | 4.5% | 72.3hPa | 2.6V | 00:00:00 | 02:46:20 | 00:00:00 | |
| DL1CLM-18 | 2026-09-03 13:35:54 | 51.65728 | 6.96118 | 125° | 68km/h | 18679m | -10.2m/s | 0°C | 0% | 0hPa | 2.6V | 00:00:00 | 00:00:00 | 00:00:00 | |
| DL1XH-15 | 2026-09-03 13:35:53 | 51.65730 | 6.96028 | 285° | 7km/h | 18739m | -10.8m/s | -54.1°C | 4.2% | 71.6hPa | 2.6V | 08:17:44 | 02:46:12 | 00:00:00 | i |
| DO2JMG | 2026-09-03 13:35:52 | 51.65739 | 6.96048 | 80° | 46km/h | 18710m | -10.1m/s | -54.2°C | 0.6% | 71.8hPa | 2.5V | 08:18:11 | 02:46:15 | 00:00:00 | i |
| AA1-15 | 2026-09-03 13:35:49 | 51.65730 | 6.96028 | 285° | 9km/h | 18739m | -10.8m/s | -54.1°C | 0.6% | 71.6hPa | 2.6V | 08:19:53 | 02:46:12 | 00:00:00 | i |
| BIOWL1-15 | 2026-09-03 13:35:48 | 51.65732 | 6.96031 | 212° | 18km/h | 18751m | -12m/s | -54.1°C | 0.6% | 71.4hPa | 2.6V | 08:18:11 | 02:46:11 | 00:00:00 | i |
| MET0W-2 | 2026-09-03 13:35:47 | 51.65747 | 6.96029 | 158° | 46km/h | 18773m | -9.5m/s | -54.3°C | 1.2% | 71.0hPa | 2.6V | 00:00:00 | 00:00:00 | 00:00:00 | |
| DL3AQ-11 | 2026-09-03 13:35:46 | 51.65758 | 6.96017 | 135° | 58km/h | 18782m | -8.7m/s | -54.3°C | 1.2% | 71.0hPa | 2.6V | 00:00:00 | 00:00:00 | 00:00:00 | |
| DL1XH-west | 2026-09-03 13:35:42 | 51.65774 | 6.95955 | 88° | 46km/h | 18814m | -11.3m/s | -53.8°C | 0.5% | 70.7hPa | 2.6V | 08:18:11 | 02:46:05 | 00:00:00 | i |
| DO2JMG | 2026-09-03 13:35:41 | 51.65773 | 6.95940 | 69° | 31km/h | 18824m | -9.7m/s | -53.8°C | 0.5% | 70.6hPa | 2.6V | 08:18:11 | 02:46:04 | 00:00:00 | i |
| DL1XH-15 | 2026-09-03 13:35:40 | 51.65768 | 6.95932 | 281° | 7km/h | 18843m | -10.5m/s | -53.8°C | 4.1% | 70.4hPa | 2.5V | 08:17:54 | 02:46:02 | 00:00:00 | i |
| AA1-15 | 2026-09-03 13:35:38 | 51.65770 | 6.95936 | 218° | 20km/h | 18855m | -12m/s | -53.9°C | 0.6% | 70.3hPa | 2.6V | 08:19:53 | 02:46:01 | 00:00:00 | i |
| BIOWL1-15 | 2026-09-03 13:35:37 | 51.65776 | 6.95940 | 188° | 35km/h | 18867m | -12m/s | -53.9°C | 0.7% | 70.1hPa | 2.6V | 08:18:11 | 02:46:00 | 00:00:00 | i |
| DO2JMG | 2026-09-03 13:35:31 | 51.65804 | 6.95880 | 288° | 5km/h | 18930m | -10.1m/s | -54.1°C | 0.7% | 69.4hPa | 2.6V | 08:18:11 | 02:45:54 | 00:00:00 | i |
| DL1XH-15 | 2026-09-03 13:35:30 | 51.65812 | 6.95891 | 203° | 38km/h | 18950m | -11.4m/s | -54.2°C | 4.3% | 69.2hPa | 2.5V | 08:18:04 | 02:45:52 | 00:00:00 | i |
| BIOWL1-15 | 2026-09-03 13:35:29 | 51.65835 | 6.95891 | 158° | 53km/h | 18973m | -10.9m/s | -54.2°C | 0.7% | 68.9hPa | 2.5V | 08:18:11 | 02:45:50 | 00:00:00 | i |
| AA1-15 | 2026-09-03 13:35:28 | 51.65823 | 6.95895 | 181° | 47km/h | 18962m | -12m/s | -54.3°C | 0.7% | 69.1hPa | 2.5V | 08:19:53 | 02:45:51 | 00:00:00 | i |
| GOEST3-10 | 2026-09-03 13:35:26 | 51.65846 | 6.95878 | 133° | 38km/h | 18984m | -9.9m/s | -54.1°C | 4.4% | 68.8hPa | 2.6V | 00:00:00 | 02:45:49 | 00:00:00 | |
| WPPR-10 | 2026-09-03 13:35:25 | 51.65853 | 6.95859 | 107° | 51km/h | 18994m | -11.1m/s | -54.1°C | 1.2% | 68.8hPa | 2.6V | 00:00:00 | 00:00:00 | 00:00:00 | |
| BIOWL7-15 | 2026-09-03 13:35:23 | 51.65855 | 6.95841 | 85° | 42km/h | 19005m | -11.1m/s | -54.2°C | 1.2% | 68.6hPa | 2.6V | 00:00:00 | 00:00:00 | 00:00:00 | |
| DB0UT-7 | 2026-09-03 13:35:22 | 51.65848 | 6.95822 | 14° | 44km/h | 19026m | -9.0m/s | -54.1°C | 4.3% | 68.3hPa | 2.6V | 00:00:00 | 00:00:00 | 00:00:00 | |
| SONCRA | 2026-09-03 13:35:21 | 51.65846 | 6.95824 | 294° | 13km/h | 19035m | -9.5m/s | -54.1°C | 1.2% | 68.3hPa | 2.6V | 00:00:00 | 00:00:00 | 00:00:00 | |
| DL1XH-15 | 2026-09-03 13:35:20 | 51.65850 | 6.95837 | 203° | 27km/h | 19057m | -12.9m/s | -54.1°C | 4.3% | 68.1hPa | 2.6V | 08:18:14 | 02:45:42 | 00:00:00 | i |
| DL1XH-west | 2026-09-03 13:35:20 | 51.65846 | 6.95831 | 242° | 22km/h | 19045m | -11m/s | -54.1°C | 0.6% | 68.2hPa | 2.6V | 08:19:02 | 02:45:43 | 00:00:00 | i |
| BIOWL1-15 | 2026-09-03 13:35:16 | 51.65872 | 6.95816 | 105° | 49km/h | 19090m | -8.3m/s | -53.9°C | 0.6% | 67.7hPa | 2.5V | 08:19:02 | 02:45:39 | 00:00:00 | i |
| DH3RM | 2026-09-03 13:35:15 | 51.65872 | 6.95816 | 105° | 49km/h | 19090m | -8.3m/s | -53.9°C | 1.2% | 67.7hPa | 2.5V | 08:19:00 | 00:00:00 | 00:00:00 | |
| GOEST3-10 | 2026-09-03 13:35:13 | 51.65860 | 6.95773 | 24° | 16km/h | 19122m | -11.1m/s | -53.7°C | 4.2% | 67.2hPa | 2.5V | 00:00:00 | 02:45:36 | 00:00:00 | |
| DL1XH-15 | 2026-09-03 13:35:12 | 51.65864 | 6.95774 | 145° | 38km/h | 19166m | -12.1m/s | -53.7°C | 4.2% | 66.9hPa | 2.5V | 08:18:24 | 02:45:32 | 00:00:00 | i |
| DL1XH-west | 2026-09-03 13:35:10 | 51.65857 | 6.95779 | 182° | 26km/h | 19154m | -12.1m/s | -53.7°C | 0.6% | 67hPa | 2.5V | 08:19:02 | 02:45:33 | 00:00:00 | i |
| DO2JMG | 2026-09-03 13:35:09 | 51.65864 | 6.95774 | 146° | 38km/h | 19166m | -12.1m/s | -53.7°C | 0.6% | 66.9hPa | 2.5V | 08:19:02 | 02:45:32 | 00:00:00 | i |
| BIOWL1-15 | 2026-09-03 13:35:05 | 51.65868 | 6.95693 | 58° | 57km/h | 19208m | -11.9m/s | -53.5°C | 0.5% | 66.4hPa | 2.6V | 08:19:02 | 02:45:28 | 00:00:00 | i |
| BUE01 | 2026-09-03 13:35:04 | 51.65860 | 6.95678 | 41° | 42km/h | 19220m | -11.2m/s | -53.5°C | 1.1% | 66.4hPa | 2.5V | 00:00:00 | 00:00:00 | 00:00:00 | |
| DD1CC1-15 | 2026-09-03 13:35:02 | 51.65852 | 6.95670 | 20° | 27km/h | 19230m | -9.1m/s | -53.5°C | 1.1% | 66.2hPa | 2.5V | 08:19:00 | 00:00:00 | 00:00:00 | |
| DO3DL | 2026-09-03 13:35:01 | 51.65848 | 6.95669 | 334° | 11km/h | 19240m | -9.4m/s | -53.5°C | 1.1% | 66.1hPa | 2.5V | 08:19:00 | 00:00:00 | 00:00:00 | |
| DL1XH-15 | 2026-09-03 13:35:00 | 51.65855 | 6.95660 | 120° | 38km/h | 19275m | -12.3m/s | -53.5°C | 4.1% | 65.8hPa | 2.5V | 08:18:34 | 02:45:22 | 00:00:00 | i |
| DL1XH-west | 2026-09-03 13:34:59 | 51.65855 | 6.95660 | 120° | 38km/h | 19276m | -12.3m/s | -53.6°C | 0.6% | 65.8hPa | 2.5V | 08:19:02 | 02:45:22 | 00:00:00 | i |
| DO2JMG | 2026-09-03 13:34:58 | 51.65859 | 6.95643 | 102° | 55km/h | 19286m | -9m/s | -53.6°C | 0.6% | 65.7hPa | 2.5V | 08:19:02 | 02:45:21 | 00:00:00 | i |
| BIOWL1-15 | 2026-09-03 13:34:57 | 51.65845 | 6.95568 | 53° | 62km/h | 19316m | -12.8m/s | -53.6°C | 0.6% | 65.5hPa | 2.6V | 08:19:02 | 02:45:18 | 00:00:00 | i |
| DD1CC3-15 | 2026-09-03 13:34:56 | 51.65859 | 6.95618 | 81° | 71km/h | 19295m | -8.2m/s | -53.6°C | 1.1% | 65.6hPa | 2.6V | 08:19:00 | 00:00:00 | 00:00:00 | |
| GOEST3-10 | 2026-09-03 13:34:55 | 51.65845 | 6.95568 | 54° | 47km/h | 19316m | -12.8m/s | -53.6°C | 4.1% | 65.4hPa | 2.6V | 08:18:00 | 02:45:18 | 00:00:00 | |
| DM0DOS-11 | 2026-09-03 13:34:54 | 51.65843 | 6.95489 | 100° | 66km/h | 19382m | -11.3m/s | -54°C | 4.2% | 64.8hPa | 2.6V | 08:18:44 | 02:45:12 | 00:00:00 | i |
| WPPR-10 | 2026-09-03 13:34:54 | 51.65836 | 6.95551 | 43° | 44km/h | 19329m | -12.5m/s | -53.8°C | 1.1% | 65.3hPa | 2.6V | 00:00:00 | 00:00:00 | 00:00:00 | i |
| DL3AQ-11 | 2026-09-03 13:34:53 | 51.65828 | 6.95536 | 126° | 11km/h | 19350m | -9.2m/s | -53.9°C | 1.1% | 65.1hPa | 2.6V | 00:00:00 | 00:00:00 | 00:00:00 | |
| DH3RM | 2026-09-03 13:34:51 | 51.65827 | 6.95536 | 128° | 13km/h | 19350m | -9.2m/s | -53.9°C | 1.1% | 65.1hPa | 2.6V | 08:19:00 | 00:00:00 | 00:00:00 | |
| DL1XH-15 | 2026-09-03 13:34:50 | 51.65844 | 6.95461 | 83° | 73km/h | 19392m | -9.9m/s | -54.1°C | 4.2% | 64.6hPa | 2.6V | 08:18:45 | 02:45:11 | 00:00:00 | i |
| DO2JMG | 2026-09-03 13:34:47 | 51.65839 | 6.95433 | 67° | 73km/h | 19402m | -9.6m/s | -54.1°C | 0.6% | 64.5hPa | 2.6V | 08:19:02 | 02:45:10 | 00:00:00 | i |
| DL1XH-west | 2026-09-03 13:34:45 | 51.65821 | 6.95392 | 41° | 49km/h | 19424m | -12.1m/s | -54.2°C | 0.6% | 64.3hPa | 2.5V | 08:19:02 | 02:45:08 | 00:00:00 | i |
| BIOWL1-15 | 2026-09-03 13:34:44 | 51.65813 | 6.95382 | 38° | 29km/h | 19436m | -11.9m/s | -54.2°C | 0.6% | 64.2hPa | 2.6V | 08:19:02 | 02:45:07 | 00:00:00 | i |
| GOEST3-10 | 2026-09-03 13:34:43 | 51.65810 | 6.95376 | 84° | 35km/h | 19447m | -10.7m/s | -54.2°C | 4.2% | 64.0hPa | 2.6V | 00:00:00 | 00:00:00 | 00:00:00 | |
| BIOWL9-15 | 2026-09-03 13:34:41 | 51.65819 | 6.95353 | 116° | 58km/h | 19469m | -10.4m/s | -54.3°C | 1.2% | 63.9hPa | 2.6V | 00:00:00 | 00:00:00 | 00:00:00 | |
| DL1XH-15 | 2026-09-03 13:34:40 | 51.65805 | 6.95243 | 52° | 20km/h | 19525m | -11.1m/s | -54.4°C | 4.3% | 63.3hPa | 2.6V | 08:18:57 | 02:44:59 | 00:00:00 | i |
| DO2JMG | 2026-09-03 13:34:37 | 51.65810 | 6.95253 | 53° | 42km/h | 19513m | -12.7m/s | -54.4°C | 0.7% | 63.5hPa | 2.6V | 08:19:02 | 02:45:00 | 00:00:00 | i |
| DL1XH-west | 2026-09-03 13:34:34 | 51.65829 | 6.95137 | 51° | 38km/h | 19601m | -10.5m/s | -54.7°C | 0.6% | 62.5hPa | 2.6V | 08:19:53 | 02:44:52 | 00:00:00 | i |
| BIOWL1-15 | 2026-09-03 13:34:34 | 51.65811 | 6.95233 | 155° | 40km/h | 19545m | -10.9m/s | -54.4°C | 0.7% | 63hPa | 2.5V | 08:19:02 | 02:44:57 | 00:00:00 | i |
| GOEST3-10 | 2026-09-03 13:34:33 | 51.65821 | 6.95222 | 138° | 46km/h | 19557m | -12.4m/s | -54.3°C | 4.3% | 62.9hPa | 2.5V | 00:00:00 | 00:00:00 | 00:00:00 | |
| DH3RM | 2026-09-03 13:34:31 | 51.65830 | 6.95203 | 119° | 64km/h | 19569m | -12.1m/s | -54.4°C | 1.2% | 62.9hPa | 2.6V | 08:19:00 | 00:00:00 | 00:00:00 | |
| DL1XH-15 | 2026-09-03 13:34:30 | 51.65834 | 6.95122 | 153° | 46km/h | 19646m | -10.1m/s | -55°C | 4.5% | 62.1hPa | 2.6V | 08:19:08 | 02:44:48 | 00:00:00 | i |
| DO2JMG | 2026-09-03 13:34:26 | 51.65825 | 6.95127 | 169° | 24km/h | 19635m | -11.3m/s | -54.9°C | 0.7% | 62.2hPa | 2.6V | 08:19:53 | 02:44:49 | 00:00:00 | i |
| DL3AQ-11 | 2026-09-03 13:34:26 | 51.65834 | 6.95122 | 153° | 46km/h | 19646m | -10.1m/s | -55.0°C | 1.2% | 62.1hPa | 2.6V | 00:00:00 | 00:00:00 | 00:00:00 | i |
| DM0DOS-11 | 2026-09-03 13:34:24 | 51.65855 | 6.95007 | 38° | 20km/h | 19713m | -11.8m/s | -55.1°C | 4.5% | 61.5hPa | 2.6V | 08:19:14 | 02:44:42 | 00:00:00 | i |
| DL1XH-west | 2026-09-03 13:34:24 | 51.65845 | 6.95108 | 136° | 64km/h | 19656m | -9.9m/s | -55°C | 0.7% | 62hPa | 2.6V | 08:19:53 | 02:44:47 | 00:00:00 | i |
| BIOWL1-15 | 2026-09-03 13:34:23 | 51.65855 | 6.95087 | 118° | 71km/h | 19667m | -11.9m/s | -55°C | 0.8% | 61.8hPa | 2.6V | 08:19:53 | 02:44:46 | 00:00:00 | i |
| GOEST3-10 | 2026-09-03 13:34:22 | 51.65861 | 6.95061 | 102° | 47km/h | 19679m | -11.8m/s | -55.0°C | 4.6% | 61.7hPa | 2.5V | 00:00:00 | 00:00:00 | 00:00:00 | |
| DL1XH-15 | 2026-09-03 13:34:20 | 51.65876 | 6.94997 | 143° | 58km/h | 19758m | -12.7m/s | -54.7°C | 4.5% | 60.9hPa | 2.5V | 08:19:18 | 02:44:38 | 00:00:00 | i |
| AA1-15 | 2026-09-03 13:34:19 | 51.65853 | 6.95006 | 232° | 4km/h | 19725m | -12.2m/s | -54.9°C | 0.8% | 61.2hPa | 2.6V | 08:19:53 | 02:44:41 | 00:00:00 | i |
| DO2JMG | 2026-09-03 13:34:15 | 51.65876 | 6.94997 | 144° | 58km/h | 19758m | -12.7m/s | -54.7°C | 0.8% | 61hPa | 2.5V | 08:19:53 | 02:44:38 | 00:00:00 | i |
| DM0DOS-11 | 2026-09-03 13:34:14 | 51.65877 | 6.94931 | 242° | 13km/h | 19828m | -10.9m/s | -54.7°C | 4.5% | 60.4hPa | 2.5V | 08:19:24 | 02:44:32 | 00:00:00 | i |
| BIOWL1-15 | 2026-09-03 13:34:13 | 51.65890 | 6.94960 | 95° | 53km/h | 19782m | -10.9m/s | -54.7°C | 0.8% | 60.7hPa | 2.6V | 08:19:53 | 02:44:36 | 00:00:00 | i |
| DL3AQ-11 | 2026-09-03 13:34:13 | 51.65883 | 6.94930 | 29° | 29km/h | 19804m | -12.0m/s | -54.7°C | 1.3% | 60.6hPa | 2.5V | 00:00:00 | 00:00:00 | 00:00:00 | i |
| DO3MHA-11 | 2026-09-03 13:34:11 | 51.65883 | 6.94930 | 30° | 29km/h | 19804m | -12.0m/s | -54.7°C | 4.6% | 60.6hPa | 2.5V | 00:00:00 | 02:44:34 | 00:00:00 | |
| DL1XH-15 | 2026-09-03 13:34:10 | 51.65910 | 6.94910 | 121° | 49km/h | 19871m | -11.4m/s | -54.7°C | 4.6% | 60hPa | 2.5V | 08:19:28 | 02:44:28 | 00:00:00 | |
| AA1-15 | 2026-09-03 13:34:08 | 51.65882 | 6.94934 | 194° | 31km/h | 19839m | -9.9m/s | -54.7°C | 0.8% | 60.2hPa | 2.6V | 08:19:53 | 02:44:31 | 00:00:00 | i |
| DO2JMG | 2026-09-03 13:34:05 | 51.65910 | 6.94911 | 122° | 49km/h | 19871m | -11.4m/s | -54.7°C | 0.9% | 60hPa | 2.5V | 08:19:53 | 02:44:28 | 00:00:00 | |
| DM0DOS-11 | 2026-09-03 13:34:04 | 51.65902 | 6.94877 | 213° | 26km/h | 19939m | -11.9m/s | -54.2°C | 4.4% | 59.3hPa | 2.5V | 08:19:34 | 02:44:22 | 00:00:00 | i |
| BIOWL1-15 | 2026-09-03 13:34:02 | 51.65907 | 6.94866 | 29° | 29km/h | 19906m | -12.2m/s | -54.5°C | 0.7% | 59.6hPa | 2.6V | 08:19:53 | 02:44:25 | 00:00:00 | i |
| DL1XH-west | 2026-09-03 13:34:01 | 51.65901 | 6.94864 | 344° | 22km/h | 19917m | -10.5m/s | -54.4°C | 0.7% | 59.5hPa | 2.6V | 08:19:53 | 02:44:24 | 00:00:00 | i |
| AA1-15 | 2026-09-03 13:33:58 | 51.65908 | 6.94879 | 172° | 29km/h | 19952m | -13.1m/s | -54.2°C | 0.7% | 59.2hPa | 2.5V | 08:19:53 | 02:44:21 | 00:00:00 | i |
| DO2JMG | 2026-09-03 13:33:54 | 51.65912 | 6.94824 | 46° | 47km/h | 19997m | -12.2m/s | -53.6°C | 0.5% | 58.7hPa | 2.5V | 08:19:53 | 02:44:17 | 00:00:00 | i |
| BIOWL1-15 | 2026-09-03 13:33:52 | 51.65897 | 6.94812 | 353° | 24km/h | 20022m | -11.9m/s | -53.8°C | 0.6% | 58.5hPa | 2.6V | 08:19:53 | 02:44:15 | 00:00:00 | i |
| DL1XH-west | 2026-09-03 13:33:50 | 51.65897 | 6.94820 | 199° | 24km/h | 20044m | -10.7m/s | -53.7°C | 0.6% | 58.4hPa | 2.6V | 08:19:53 | 02:44:13 | 00:00:00 | i |
| AA1-15 | 2026-09-03 13:33:47 | 51.65921 | 6.94796 | 120° | 55km/h | 20078m | -11.7m/s | -53.7°C | 0.6% | 58.1hPa | 2.6V | 08:19:53 | 02:44:10 | 00:00:00 | i |
| DO2JMG | 2026-09-03 13:33:44 | 51.65919 | 6.94738 | 48° | 42km/h | 20113m | -12.2m/s | -53.7°C | 0.6% | 57.8hPa | 2.6V | 08:19:53 | 02:44:07 | 00:00:00 | i |
| BIOWL1-15 | 2026-09-03 13:33:41 | 51.65908 | 6.94734 | 216° | 18km/h | 20149m | -11.5m/s | -53.8°C | 0.7% | 57.4hPa | 2.6V | 08:19:53 | 02:44:04 | 00:00:00 | i |
| DL1XH-west | 2026-09-03 13:33:39 | 51.65922 | 6.94728 | 142° | 46km/h | 20172m | -11.8m/s | -53.8°C | 0.6% | 57.3hPa | 2.6V | 08:20:44 | 02:44:02 | 00:00:00 | i |
| AA1-15 | 2026-09-03 13:33:37 | 51.65934 | 6.94690 | 95° | 60km/h | 20195m | -10.8m/s | -53.7°C | 0.6% | 57hPa | 2.5V | 08:20:44 | 02:44:00 | 00:00:00 | i |
| DO9LL-15 | 2026-09-03 13:33:37 | 51.65934 | 6.94690 | 96° | 37km/h | 20195m | -10.7m/s | -53.7°C | 4.2% | 57.0hPa | 2.5V | 00:00:00 | 02:44:00 | 00:00:00 | i |
| DO2KSM | 2026-09-03 13:33:36 | 51.65934 | 6.94690 | 96° | 60km/h | 20195m | -10.8m/s | -53.7°C | 1.1% | 57.0hPa | 2.6V | 00:00:00 | 00:00:00 | 00:00:00 | |
| DL1XH-15 | 2026-09-03 13:33:35 | 51.65928 | 6.94648 | 56° | 47km/h | 20218m | -12.3m/s | -53.9°C | 4.2% | 56.8hPa | 2.6V | 08:19:58 | 02:43:58 | 00:00:00 | i |
| DO2JMG | 2026-09-03 13:33:33 | 51.65917 | 6.94633 | 359° | 11km/h | 20242m | -12.2m/s | -54°C | 0.6% | 56.6hPa | 2.5V | 08:20:44 | 02:43:56 | 00:00:00 | i |
| BIOWL1-15 | 2026-09-03 13:33:31 | 51.65923 | 6.94633 | 167° | 33km/h | 20266m | -11.4m/s | -54°C | 0.6% | 56.4hPa | 2.6V | 08:20:44 | 02:43:54 | 00:00:00 | i |
| DL1XH-west | 2026-09-03 13:33:29 | 51.65940 | 6.94608 | 118° | 55km/h | 20290m | -12.7m/s | -53.5°C | 0.5% | 56.2hPa | 2.6V | 08:20:44 | 02:43:52 | 00:00:00 | i |
| AA1-15 | 2026-09-03 13:33:26 | 51.65935 | 6.94550 | 42° | 46km/h | 20325m | -11m/s | -53.5°C | 0.5% | 55.9hPa | 2.5V | 08:20:44 | 02:43:49 | 00:00:00 | i |
| DO2JMG | 2026-09-03 13:33:23 | 51.65917 | 6.94542 | 236° | 4km/h | 20362m | -12.4m/s | -53.6°C | 0.6% | 55.6hPa | 2.6V | 08:20:44 | 02:43:46 | 00:00:00 | i |
| BIOWL1-15 | 2026-09-03 13:33:20 | 51.65932 | 6.94512 | 101° | 57km/h | 20398m | -12.6m/s | -53.7°C | 0.6% | 55.3hPa | 2.5V | 08:20:44 | 02:43:43 | 00:00:00 | i |
| DL1XH-west | 2026-09-03 13:33:18 | 51.65925 | 6.94469 | 48° | 51km/h | 20421m | -11m/s | -54.1°C | 0.7% | 55hPa | 2.6V | 08:20:44 | 02:43:41 | 00:00:00 | i |
| AA1-15 | 2026-09-03 13:33:16 | 51.65910 | 6.94457 | 353° | 15km/h | 20444m | -12.9m/s | -54.2°C | 0.8% | 54.7hPa | 2.6V | 08:20:44 | 02:43:39 | 00:00:00 | i |
| GOEST3-10 | 2026-09-03 13:33:16 | 51.65910 | 6.94457 | 354° | 46km/h | 20445m | -12.8m/s | -54.2°C | 4.5% | 54.7hPa | 2.6V | 00:00:00 | 02:43:39 | 00:00:00 | i |
| DH3RM | 2026-09-03 13:33:15 | 51.65910 | 6.94457 | 354° | 15km/h | 20445m | -12.9m/s | -54.2°C | 1.2% | 54.7hPa | 2.6V | 08:20:00 | 00:00:00 | 00:00:00 | |
| DM0DOS-11 | 2026-09-03 13:33:14 | 51.65927 | 6.94355 | 56° | 46km/h | 20530m | -11.5m/s | -53.9°C | 4.4% | 54.1hPa | 2.6V | 08:20:24 | 02:43:32 | 00:00:00 | i |
| DO2JMG | 2026-09-03 13:33:13 | 51.65921 | 6.94444 | 133° | 51km/h | 20481m | -10.4m/s | -54.3°C | 0.8% | 54.5hPa | 2.5V | 08:20:44 | 02:43:36 | 00:00:00 | i |
| DD1CC3-15 | 2026-09-03 13:33:12 | 51.65921 | 6.94444 | 134° | 51km/h | 20481m | -10.4m/s | -54.3°C | 1.2% | 54.5hPa | 2.5V | 08:20:00 | 00:00:00 | 00:00:00 | |
| MET0W-2 | 2026-09-03 13:33:11 | 51.65933 | 6.94399 | 95° | 64km/h | 20505m | -13.6m/s | -54.2°C | -1.0% | 54.3hPa | 2.5V | 00:00:00 | 00:00:00 | 00:00:00 | |
| DL1XH-15 | 2026-09-03 13:33:10 | 51.65925 | 6.94340 | 156° | 37km/h | 20579m | -11.6m/s | -53.1°C | 4.3% | 53.6hPa | 2.5V | 08:20:28 | 02:43:28 | 00:00:00 | i |
| BIOWL1-15 | 2026-09-03 13:33:09 | 51.65927 | 6.94355 | 56° | 46km/h | 20530m | -11.5m/s | -53.9°C | 0.7% | 54.1hPa | 2.6V | 08:20:44 | 02:43:32 | 00:00:00 | i |
| DL1XH-west | 2026-09-03 13:33:07 | 51.65917 | 6.94343 | 346° | 5km/h | 20554m | -12.7m/s | -53.4°C | 0.6% | 53.9hPa | 2.6V | 08:20:44 | 02:43:30 | 00:00:00 | i |
| AA1-15 | 2026-09-03 13:33:05 | 51.65925 | 6.94340 | 156° | 37km/h | 20579m | -11.6m/s | -53.1°C | 0.6% | 53.6hPa | 2.5V | 08:20:44 | 02:43:28 | 00:00:00 | i |
| DM0DOS-11 | 2026-09-03 13:33:04 | 51.65940 | 6.94215 | 48° | 35km/h | 20651m | -13.7m/s | -52.6°C | 4.1% | 53hPa | 2.6V | 08:20:34 | 02:43:22 | 00:00:00 | i |
| DO2JMG | 2026-09-03 13:33:03 | 51.65944 | 6.94309 | 118° | 69km/h | 20602m | -12.5m/s | -52.9°C | 0.6% | 53.6hPa | 2.5V | 08:20:44 | 02:43:26 | 00:00:00 | i |
| BIOWL1-15 | 2026-09-03 13:32:59 | 51.65940 | 6.94215 | 48° | 35km/h | 20651m | -13.7m/s | -52.6°C | 0.6% | 53hPa | 2.6V | 08:20:44 | 02:43:22 | 00:00:00 | i |
| DL1XH-west | 2026-09-03 13:32:57 | 51.65938 | 6.94200 | 143° | 24km/h | 20678m | -11.3m/s | -52.3°C | 0.6% | 52.8hPa | 2.5V | 08:20:44 | 02:43:20 | 00:00:00 | i |
| AA1-15 | 2026-09-03 13:32:55 | 51.65956 | 6.94174 | 129° | 69km/h | 20700m | -11.4m/s | -52.6°C | 0.6% | 52.7hPa | 2.6V | 08:20:44 | 02:43:18 | 00:00:00 | i |
| DM0DOS-11 | 2026-09-03 13:32:54 | 51.65968 | 6.94059 | 174° | 16km/h | 20774m | -12m/s | -52.3°C | 4.1% | 52.1hPa | 2.6V | 08:20:44 | 02:43:12 | 00:00:00 | |
| DO2JMG | 2026-09-03 13:32:52 | 51.65972 | 6.94094 | 85° | 62km/h | 20737m | -12.6m/s | -52.4°C | 0.5% | 52.4hPa | 2.5V | 08:20:44 | 02:43:15 | 00:00:00 | i |
| BIOWL1-15 | 2026-09-03 13:32:48 | 51.65975 | 6.94057 | 170° | 38km/h | 20786m | -11.8m/s | -52.2°C | 0.5% | 52hPa | 2.6V | 08:21:35 | 02:43:11 | 00:00:00 | i |
| DL1XH-west | 2026-09-03 13:32:47 | 51.65986 | 6.94052 | 158° | 57km/h | 20798m | -11.8m/s | -52°C | 0.5% | 52hPa | 2.5V | 08:21:35 | 02:43:10 | 00:00:00 | i |
| SONCRA | 2026-09-03 13:32:46 | 51.66012 | 6.94018 | 124° | 69km/h | 20824m | -13.5m/s | -51.7°C | 1.0% | 51.7hPa | 2.6V | 00:00:00 | 00:00:00 | 00:00:00 | |
| DM0DOS-11 | 2026-09-03 13:32:44 | 51.66022 | 6.93957 | 190° | 35km/h | 20900m | -13.2m/s | -51°C | 3.7% | 51.1hPa | 2.6V | 08:20:54 | 02:43:02 | 00:00:00 | i |
| AA1-15 | 2026-09-03 13:32:44 | 51.66019 | 6.93993 | 107° | 64km/h | 20837m | -13.4m/s | -51.5°C | 0.4% | 51.6hPa | 2.6V | 08:21:35 | 02:43:07 | 00:00:00 | i |
| DO2JMG | 2026-09-03 13:32:41 | 51.66016 | 6.93950 | 1° | 9km/h | 20875m | -12.5m/s | -51.1°C | 0.3% | 51.2hPa | 2.5V | 08:21:35 | 02:43:04 | 00:00:00 | i |
| BIOWL1-15 | 2026-09-03 13:32:38 | 51.66033 | 6.93955 | 166° | 51km/h | 20913m | -12.8m/s | -50.9°C | 0.2% | 50.9hPa | 2.6V | 08:21:35 | 02:43:01 | 00:00:00 | i |
| DL1XH-west | 2026-09-03 13:32:37 | 51.66045 | 6.93945 | 142° | 60km/h | 20925m | -12.1m/s | -50.9°C | 0.3% | 50.9hPa | 2.5V | 08:21:35 | 02:43:00 | 00:00:00 | i |
| DO9LL-15 | 2026-09-03 13:32:36 | 51.66055 | 6.93927 | 120° | 38km/h | 20938m | -11.8m/s | -50.8°C | 3.5% | 50.8hPa | 2.6V | 00:00:00 | 02:42:59 | 00:00:00 | |
| DM0DOS-11 | 2026-09-03 13:32:34 | 51.66083 | 6.93878 | 163° | 60km/h | 21027m | -12.9m/s | -50.9°C | 3.6% | 50hPa | 2.6V | 08:21:04 | 02:42:52 | 00:00:00 | i |
| AA1-15 | 2026-09-03 13:32:34 | 51.66059 | 6.93886 | 76° | 38km/h | 20964m | -14m/s | -51.1°C | 0.2% | 50.6hPa | 2.6V | 08:21:35 | 02:42:57 | 00:00:00 | i |
| DO2JMG | 2026-09-03 13:32:31 | 51.66059 | 6.93877 | 206° | 31km/h | 21002m | -12m/s | -51.3°C | 0.3% | 50.3hPa | 2.5V | 08:21:35 | 02:42:54 | 00:00:00 | i |
| DO3MHA-11 | 2026-09-03 13:32:31 | 51.66059 | 6.93877 | 207° | 40km/h | 21002m | -12.0m/s | -51.3°C | 3.7% | 50.2hPa | 2.6V | 00:00:00 | 02:42:54 | 00:00:00 | i |
| DD1CC3-15 | 2026-09-03 13:32:30 | 51.66059 | 6.93877 | 207° | 31km/h | 21002m | -12.0m/s | -51.3°C | 1.0% | 50.3hPa | 2.6V | 08:21:00 | 00:00:00 | 00:00:00 | |
| BUE01 | 2026-09-03 13:32:29 | 51.66097 | 6.93867 | 142° | 60km/h | 21040m | -12.8m/s | -51.3°C | 0.9% | 49.9hPa | 2.6V | 00:00:00 | 00:00:00 | 00:00:00 | |
| DL1XH-15 | 2026-09-03 13:32:28 | 51.66106 | 6.93810 | 269° | 15km/h | 21104m | -13.6m/s | -50.7°C | 3.6% | 49.5hPa | 2.6V | 08:21:10 | 02:42:46 | 00:00:00 | i |
| BIOWL1-15 | 2026-09-03 13:32:27 | 51.66107 | 6.93850 | 123° | 57km/h | 21053m | -13.1m/s | -51.3°C | 0.3% | 49.9hPa | 2.6V | 08:21:35 | 02:42:50 | 00:00:00 | i |
| DL1XH-west | 2026-09-03 13:32:27 | 51.66111 | 6.93830 | 97° | 47km/h | 21066m | -12.4m/s | -51.1°C | 0.3% | 49.7hPa | 2.5V | 08:21:35 | 02:42:49 | 00:00:00 | i |
| DO3DL | 2026-09-03 13:32:25 | 51.66111 | 6.93830 | 98° | 47km/h | 21066m | -12.4m/s | -51.1°C | 0.9% | 49.7hPa | 2.5V | 08:21:00 | 00:00:00 | 00:00:00 | |
| DM0DOS-11 | 2026-09-03 13:32:24 | 51.66139 | 6.93806 | 128° | 53km/h | 21156m | -14m/s | -51.1°C | 3.6% | 49.2hPa | 2.5V | 08:21:14 | 02:42:42 | 00:00:00 | i |
| BIOWL1-15 | 2026-09-03 13:32:21 | 51.66145 | 6.93777 | 70° | 24km/h | 21184m | -13m/s | -51.2°C | 0.3% | 48.9hPa | 2.6V | 08:21:35 | 02:42:40 | 00:00:00 | i |
| DO2JMG | 2026-09-03 13:32:21 | 51.66117 | 6.93821 | 186° | 42km/h | 21131m | -11.9m/s | -50.5°C | 0.2% | 49.2hPa | 2.6V | 08:21:35 | 02:42:44 | 00:00:00 | i |
| DL1XH-west | 2026-09-03 13:32:15 | 51.66140 | 6.93780 | 270° | 29km/h | 21208m | -12.7m/s | -51.5°C | 0.3% | 48.7hPa | 2.5V | 08:21:35 | 02:42:38 | 00:00:00 | i |
| DL1XH-15 | 2026-09-03 13:32:14 | 51.66150 | 6.93799 | 196° | 40km/h | 21235m | -13.3m/s | -51.5°C | 3.9% | 48.6hPa | 2.6V | 08:21:20 | 02:42:36 | 00:00:00 | i |
| DM0DOS-11 | 2026-09-03 13:32:14 | 51.66174 | 6.93756 | 68° | 40km/h | 21288m | -13.3m/s | -51.4°C | 3.8% | 48.1hPa | 2.5V | 08:21:24 | 02:42:32 | 00:00:00 | i |
| DO2JMG | 2026-09-03 13:32:10 | 51.66175 | 6.93773 | 102° | 44km/h | 21274m | -13.9m/s | -51.5°C | 0.4% | 48.3hPa | 2.5V | 08:21:35 | 02:42:33 | 00:00:00 | i |
| GOEST3-10 | 2026-09-03 13:32:09 | 51.66174 | 6.93756 | 69° | 33km/h | 21288m | -13.3m/s | -51.4°C | 3.8% | 48.0hPa | 2.5V | 00:00:00 | 00:00:00 | 00:00:00 | |
| DL1XH-15 | 2026-09-03 13:32:08 | 51.66164 | 6.93771 | 161° | 27km/h | 21368m | -13.7m/s | -51.4°C | 3.8% | 47.5hPa | 2.5V | 08:21:30 | 02:42:26 | 00:00:00 | i |
| BIOWL1-15 | 2026-09-03 13:32:06 | 51.66155 | 6.93750 | 300° | 29km/h | 21326m | -12.7m/s | -51.4°C | 0.3% | 47.8hPa | 2.6V | 08:21:35 | 02:42:29 | 00:00:00 | i |
| DL1XH-west | 2026-09-03 13:32:05 | 51.66154 | 6.93761 | 260° | 29km/h | 21339m | -14.4m/s | -51.5°C | 0.4% | 47.8hPa | 2.6V | 08:21:35 | 02:42:28 | 00:00:00 | i |
| DO2JMG | 2026-09-03 13:32:00 | 51.66162 | 6.93733 | 35° | 46km/h | 21406m | -12.9m/s | -51.3°C | 0.4% | 47.2hPa | 2.6V | 08:21:35 | 02:42:23 | 00:00:00 | i |
| BIOWL1-15 | 2026-09-03 13:31:56 | 51.66141 | 6.93739 | 206° | 22km/h | 21461m | -12.7m/s | -51.3°C | 0.4% | 46.9hPa | 2.6V | 08:22:26 | 02:42:19 | 00:00:00 | i |
| AA1-15 | 2026-09-03 13:31:56 | 51.66148 | 6.93738 | 162° | 35km/h | 21473m | -12.3m/s | -50.8°C | 0.4% | 46.7hPa | 2.6V | 08:22:26 | 02:42:18 | 00:00:00 | i |
| DL1XH-west | 2026-09-03 13:31:54 | 51.66156 | 6.93729 | 133° | 47km/h | 21486m | -12.8m/s | -50.7°C | 0.3% | 46.6hPa | 2.6V | 08:22:26 | 02:42:17 | 00:00:00 | i |
| DL1XH-15 | 2026-09-03 13:31:54 | 51.66162 | 6.93712 | 109° | 53km/h | 21499m | -13.4m/s | -51°C | 3.7% | 46.5hPa | 2.5V | 08:21:40 | 02:42:16 | 00:00:00 | i |
| DO2JMG | 2026-09-03 13:31:50 | 51.66155 | 6.93659 | 32° | 35km/h | 21540m | -13.8m/s | -50.8°C | 0.2% | 46.2hPa | 2.6V | 08:22:26 | 02:42:13 | 00:00:00 | i |
| DL8DAS-14 | 2026-09-03 13:31:49 | 51.66147 | 6.93659 | 259° | 13km/h | 21567m | -12.0m/s | -50.3°C | 0.9% | 46.0hPa | 2.6V | 00:00:00 | 00:00:00 | 00:00:00 | |
| DL1XH-15 | 2026-09-03 13:31:48 | 51.66182 | 6.93636 | 98° | 38km/h | 21634m | -13.5m/s | -50.8°C | 3.5% | 45.6hPa | 2.6V | 08:21:50 | 02:42:06 | 00:00:00 | i |
| BIOWL1-15 | 2026-09-03 13:31:47 | 51.66170 | 6.93662 | 155° | 46km/h | 21605m | -15.1m/s | -50.9°C | 0.2% | 45.8hPa | 2.6V | 08:22:26 | 02:42:08 | 00:00:00 | i |
| AA1-15 | 2026-09-03 13:31:44 | 51.66178 | 6.93651 | 126° | 44km/h | 21620m | -15.5m/s | -50.9°C | 0.2% | 45.7hPa | 2.6V | 08:22:26 | 02:42:07 | 00:00:00 | i |
| DL1XH-west | 2026-09-03 13:31:43 | 51.66182 | 6.93636 | 99° | 38km/h | 21634m | -13.5m/s | -50.8°C | 0.2% | 45.6hPa | 2.6V | 08:22:26 | 02:42:06 | 00:00:00 | i |
| DO2JMG | 2026-09-03 13:31:39 | 51.66166 | 6.93626 | 262° | 22km/h | 21686m | -14.2m/s | -50.9°C | 0.3% | 45.3hPa | 2.6V | 08:22:26 | 02:42:02 | 00:00:00 | i |
| GOEST3-10 | 2026-09-03 13:31:39 | 51.66166 | 6.93626 | 263° | 35km/h | 21686m | -14.2m/s | -50.8°C | 3.6% | 45.2hPa | 2.6V | 00:00:00 | 00:00:00 | 00:00:00 | i |
| MET0W-2 | 2026-09-03 13:31:38 | 51.66170 | 6.93633 | 210° | 26km/h | 21700m | -13.3m/s | -50.8°C | -1.0% | -1.0hPa | 2.6V | 00:00:00 | 00:00:00 | 00:00:00 | |
| DL1XH-15 | 2026-09-03 13:31:37 | 51.66174 | 6.93569 | 6° | 33km/h | 21781m | -13.6m/s | -51.4°C | 3.7% | 44.7hPa | 2.6V | 08:22:01 | 02:41:55 | 00:00:00 | i |
| BIOWL1-15 | 2026-09-03 13:31:35 | 51.66189 | 6.93609 | 98° | 47km/h | 21739m | -13.1m/s | -51°C | 0.3% | 44.9hPa | 2.6V | 08:22:26 | 02:41:58 | 00:00:00 | i |
| DK5PH-5 | 2026-09-03 13:31:35 | 51.66189 | 6.93609 | 99° | 37km/h | 21739m | -13.1m/s | -51.0°C | 3.6% | 44.9hPa | 2.6V | 08:21:00 | 02:41:58 | 00:00:00 | i |
| DM0DOS-11 | 2026-09-03 13:31:34 | 51.66172 | 6.93582 | 177° | 27km/h | 21821m | -14.1m/s | -51.8°C | 3.8% | 44.4hPa | 2.6V | 08:22:04 | 02:41:52 | 00:00:00 | i |
| AA1-15 | 2026-09-03 13:31:34 | 51.66188 | 6.93590 | 71° | 47km/h | 21753m | -13.9m/s | -51.1°C | 0.2% | 44.9hPa | 2.6V | 08:22:26 | 02:41:57 | 00:00:00 | i |
| DL1XH-west | 2026-09-03 13:31:33 | 51.66182 | 6.93575 | 39° | 42km/h | 21767m | -14.5m/s | -51.2°C | 0.3% | 44.7hPa | 2.6V | 08:22:26 | 02:41:56 | 00:00:00 | i |
| DO2JMG | 2026-09-03 13:31:29 | 51.66172 | 6.93582 | 177° | 27km/h | 21821m | -14.1m/s | -51.8°C | 0.4% | 44.4hPa | 2.6V | 08:22:26 | 02:41:52 | 00:00:00 | i |
| GOEST3-10 | 2026-09-03 13:31:29 | 51.66172 | 6.93582 | 178° | 35km/h | 21821m | -14.0m/s | -51.7°C | 3.8% | 44.4hPa | 2.6V | 00:00:00 | 00:00:00 | 00:00:00 | i |
| DL4BBY-15 | 2026-09-03 13:31:28 | 51.66179 | 6.93577 | 136° | 38km/h | 21836m | -14.5m/s | -51.6°C | 0% | 0hPa | 2.6V | 00:00:00 | 00:00:00 | 00:00:00 | |
| DL1XH-15 | 2026-09-03 13:31:27 | 51.66151 | 6.93518 | 293° | 16km/h | 21918m | -13.7m/s | -52°C | 3.9% | 43.7hPa | 2.6V | 08:22:11 | 02:41:45 | 00:00:00 | i |
| BIOWL1-15 | 2026-09-03 13:31:27 | 51.66176 | 6.93524 | 44° | 55km/h | 21877m | -13.3m/s | -51.9°C | 0.4% | 44hPa | 2.5V | 08:22:26 | 02:41:48 | 00:00:00 | i |
| AA1-15 | 2026-09-03 13:31:23 | 51.66156 | 6.93513 | 345° | 31km/h | 21905m | -14m/s | -52°C | 0.4% | 43.8hPa | 2.6V | 08:22:26 | 02:41:46 | 00:00:00 | i |
| DL1XH-west | 2026-09-03 13:31:22 | 51.66151 | 6.93518 | 294° | 16km/h | 21918m | -13.7m/s | -52°C | 0.4% | 43.7hPa | 2.6V | 08:22:26 | 02:41:45 | 00:00:00 | |
| DO2JMG | 2026-09-03 13:31:18 | 51.66170 | 6.93494 | 99° | 53km/h | 21974m | -13.8m/s | -51.8°C | 0.4% | 43.3hPa | 2.6V | 08:22:26 | 02:41:41 | 00:00:00 | i |
| BIOWL1-15 | 2026-09-03 13:31:16 | 51.66148 | 6.93448 | 322° | 20km/h | 22032m | -13.8m/s | -51.9°C | 0.5% | 42.9hPa | 2.5V | 08:22:26 | 02:41:37 | 00:00:00 | i |
| EDDB2-11 | 2026-09-03 13:31:16 | 51.66155 | 6.93447 | 13° | 33km/h | 22018m | -15.0m/s | -51.9°C | 1.0% | 43.1hPa | 2.5V | 00:00:00 | 00:00:00 | 00:00:00 | i |
| DM0DOS-11 | 2026-09-03 13:31:14 | 51.66178 | 6.93418 | 101° | 51km/h | 22099m | -15m/s | -51.6°C | 3.9% | 42.5hPa | 2.5V | 08:22:24 | 02:41:32 | 00:00:00 | i |
| DO3DL | 2026-09-03 13:31:13 | 51.66148 | 6.93448 | 323° | 20km/h | 22032m | -13.8m/s | -51.9°C | 1.0% | 42.9hPa | 2.6V | 08:22:00 | 00:00:00 | 00:00:00 | |
| DL1XH-15 | 2026-09-03 13:31:12 | 51.66154 | 6.93456 | 176° | 35km/h | 22057m | -12.6m/s | -51.9°C | 4% | 42.8hPa | 2.6V | 08:22:21 | 02:41:35 | 00:00:00 | i |
| AA1-15 | 2026-09-03 13:31:12 | 51.66155 | 6.93456 | 176° | 35km/h | 22057m | -12.6m/s | -51.9°C | 0.5% | 42.8hPa | 2.6V | 08:22:26 | 02:41:35 | 00:00:00 | i |
| DO2JMG | 2026-09-03 13:31:08 | 51.66178 | 6.93399 | 74° | 44km/h | 22114m | -14.2m/s | -51.5°C | 0.4% | 42.4hPa | 2.5V | 08:22:26 | 02:41:31 | 00:00:00 | i |
| DD1CC3-15 | 2026-09-03 13:31:07 | 51.66178 | 6.93399 | 75° | 44km/h | 22114m | -14.2m/s | -51.5°C | 1.0% | 42.4hPa | 2.6V | 08:22:00 | 00:00:00 | 00:00:00 | |
| DL3AQ-11 | 2026-09-03 13:31:06 | 51.66166 | 6.93390 | 262° | 22km/h | 22157m | -14.3m/s | -51.4°C | 0.9% | 42.2hPa | 2.6V | 00:00:00 | 00:00:00 | 00:00:00 | |
| DK5PH-5 | 2026-09-03 13:31:05 | 51.66166 | 6.93390 | 263° | 31km/h | 22157m | -14.3m/s | -51.4°C | 3.8% | 42.1hPa | 2.6V | 00:00:00 | 02:41:28 | 00:00:00 | |
| DL1XH-15 | 2026-09-03 13:31:04 | 51.66191 | 6.93403 | 160° | 53km/h | 22198m | -14.2m/s | -51.1°C | 3.7% | 41.9hPa | 2.6V | 08:22:31 | 02:41:25 | 00:00:00 | i |
| BIOWL1-15 | 2026-09-03 13:31:03 | 51.66179 | 6.93406 | 188° | 49km/h | 22185m | -13.6m/s | -51.3°C | 0.3% | 41.9hPa | 2.5V | 08:23:17 | 02:41:26 | 00:00:00 | |
| AA1-15 | 2026-09-03 13:31:02 | 51.66192 | 6.93403 | 161° | 53km/h | 22198m | -14.2m/s | -51.1°C | 0.4% | 41.9hPa | 2.6V | 08:23:17 | 02:41:25 | 00:00:00 | i |
| DM0DOS-11 | 2026-09-03 13:31:01 | 51.66209 | 6.93364 | 70° | 29km/h | 22242m | -13.9m/s | -50.9°C | 3.6% | 41.6hPa | 2.6V | 08:22:34 | 02:41:22 | 00:00:00 | i |
| DO2JMG | 2026-09-03 13:30:58 | 51.66205 | 6.93357 | 11° | 22km/h | 22256m | -13.7m/s | -51°C | 0.2% | 41.5hPa | 2.5V | 08:23:17 | 02:41:21 | 00:00:00 | i |
| BIOWL1-15 | 2026-09-03 13:30:54 | 51.66228 | 6.93373 | 111° | 44km/h | 22342m | -14.1m/s | -50.9°C | 0.3% | 41hPa | 2.5V | 08:23:17 | 02:41:15 | 00:00:00 | i |
| DL3AQ-11 | 2026-09-03 13:30:53 | 51.66228 | 6.93373 | 110° | 44km/h | 22342m | -14.1m/s | -50.9°C | 0.9% | 41.0hPa | 2.6V | 00:00:00 | 00:00:00 | 00:00:00 | |
| DM0DOS-11 | 2026-09-03 13:30:51 | 51.66219 | 6.93341 | 357° | 26km/h | 22384m | -14.2m/s | -50.9°C | 3.5% | 40.7hPa | 2.6V | 08:22:44 | 02:41:12 | 00:00:00 | i |
| AA1-15 | 2026-09-03 13:30:51 | 51.66229 | 6.93357 | 80° | 38km/h | 22356m | -14.2m/s | -50.9°C | 0.3% | 40.9hPa | 2.6V | 08:23:17 | 02:41:14 | 00:00:00 | i |
| DO3MHA-11 | 2026-09-03 13:30:50 | 51.66225 | 6.93345 | 41° | 31km/h | 22370m | -13.8m/s | -50.8°C | 3.6% | 40.8hPa | 2.6V | 00:00:00 | 02:41:13 | 00:00:00 | |
| DL1XH-15 | 2026-09-03 13:30:49 | 51.66214 | 6.93345 | 305° | 26km/h | 22398m | -14.4m/s | -51°C | 3.6% | 40.6hPa | 2.6V | 08:22:45 | 02:41:11 | 00:00:00 | i |
| DO2JMG | 2026-09-03 13:30:47 | 51.66213 | 6.93355 | 254° | 27km/h | 22413m | -14.8m/s | -51.1°C | 0.3% | 40.5hPa | 2.5V | 08:23:17 | 02:41:10 | 00:00:00 | i |
| DL8DAS-14 | 2026-09-03 13:30:47 | 51.66218 | 6.93364 | 210° | 35km/h | 22428m | -14.7m/s | -51.1°C | 0.9% | 40.4hPa | 2.6V | 00:00:00 | 00:00:00 | 00:00:00 | i |
| WPPR-10 | 2026-09-03 13:30:46 | 51.66236 | 6.93358 | 135° | 46km/h | 22456m | -14.3m/s | -51.3°C | 0.9% | 40.3hPa | 2.6V | 00:00:00 | 00:00:00 | 00:00:00 | |
| GOEST3-10 | 2026-09-03 13:30:44 | 51.66236 | 6.93358 | 136° | 37km/h | 22457m | -14.2m/s | -51.2°C | 3.8% | 40.2hPa | 2.6V | 00:00:00 | 02:41:07 | 00:00:00 | |
| DL3AQ-11 | 2026-09-03 13:30:42 | 51.66233 | 6.93318 | 16° | 33km/h | 22499m | -14.5m/s | -51.4°C | 0.9% | 40.0hPa | 2.6V | 00:00:00 | 00:00:00 | 00:00:00 | |
| DM0DOS-11 | 2026-09-03 13:30:41 | 51.66223 | 6.93326 | 277° | 26km/h | 22528m | -14.2m/s | -51.4°C | 3.7% | 39.8hPa | 2.6V | 08:22:54 | 02:41:02 | 00:00:00 | i |
| AA1-15 | 2026-09-03 13:30:41 | 51.66233 | 6.93318 | 16° | 35km/h | 22499m | -14.5m/s | -51.4°C | 0.3% | 40hPa | 2.5V | 08:23:17 | 02:41:04 | 00:00:00 | i |
| DL1XH-west | 2026-09-03 13:30:40 | 51.66226 | 6.93319 | 334° | 27km/h | 22514m | -14.8m/s | -51.4°C | 0.3% | 39.9hPa | 2.6V | 08:23:17 | 02:41:03 | 00:00:00 | i |
| DO3MHA-11 | 2026-09-03 13:30:40 | 51.66226 | 6.93319 | 334° | 29km/h | 22514m | -14.8m/s | -51.4°C | 3.7% | 39.9hPa | 2.6V | 00:00:00 | 02:41:03 | 00:00:00 | i |
| DL1XH-15 | 2026-09-03 13:30:39 | 51.66225 | 6.93335 | 220° | 27km/h | 22543m | -14.7m/s | -51.5°C | 3.7% | 39.7hPa | 2.6V | 08:22:55 | 02:41:01 | 00:00:00 | i |
| DO2JMG | 2026-09-03 13:30:37 | 51.66232 | 6.93338 | 176° | 35km/h | 22557m | -14.5m/s | -51.5°C | 0.4% | 39.6hPa | 2.6V | 08:23:17 | 02:41:00 | 00:00:00 | i |
| DD1CC1-15 | 2026-09-03 13:30:35 | 51.66240 | 6.93332 | 139° | 42km/h | 22572m | -15.0m/s | -51.4°C | 0.9% | 39.5hPa | 2.6V | 08:23:00 | 00:00:00 | 00:00:00 | |
| DM0DOS-11 | 2026-09-03 13:30:34 | 51.66238 | 6.93299 | 164° | 33km/h | 22675m | -16.2m/s | -51.5°C | 3.8% | 39hPa | 2.6V | 08:23:04 | 02:40:52 | 00:00:00 | i |
| AA1-15 | 2026-09-03 13:30:31 | 51.66228 | 6.93291 | 272° | 22km/h | 22645m | -13.5m/s | -51.5°C | 0.3% | 39.1hPa | 2.5V | 08:23:17 | 02:40:54 | 00:00:00 | i |
| BIOWL1-15 | 2026-09-03 13:30:30 | 51.66231 | 6.93298 | 207° | 27km/h | 22659m | -15m/s | -51.6°C | 0.4% | 39hPa | 2.5V | 08:23:17 | 02:40:53 | 00:00:00 | i |
| DL1XH-west | 2026-09-03 13:30:29 | 51.66238 | 6.93299 | 165° | 33km/h | 22675m | -16.2m/s | -51.5°C | 0.4% | 39hPa | 2.6V | 08:23:17 | 02:40:52 | 00:00:00 | i |
| DL1XH-15 | 2026-09-03 13:30:29 | 51.66246 | 6.93290 | 127° | 42km/h | 22691m | -15.5m/s | -51.5°C | 3.8% | 38.9hPa | 2.6V | 08:23:05 | 02:40:51 | 00:00:00 | i |
| DO2JMG | 2026-09-03 13:30:26 | 51.66248 | 6.93254 | 65° | 53km/h | 22719m | -13.8m/s | -51.6°C | 0.4% | 38.7hPa | 2.6V | 08:23:17 | 02:40:49 | 00:00:00 | i |
| DL3AQ-11 | 2026-09-03 13:30:26 | 51.66241 | 6.93239 | 35° | 44km/h | 22734m | -15.6m/s | -51.7°C | 0.9% | 38.6hPa | 2.6V | 00:00:00 | 00:00:00 | 00:00:00 | i |
| DJ2DS-15 | 2026-09-03 13:30:25 | 51.66232 | 6.93233 | 5° | 29km/h | 22749m | -16.2m/s | -51.6°C | 0.9% | 38.5hPa | 2.6V | 00:00:00 | 00:00:00 | 00:00:00 | |
| HTAHTA | 2026-09-03 13:30:24 | 51.66227 | 6.93235 | 306° | 13km/h | 22766m | -15.8m/s | -51.6°C | 0.9% | 38.4hPa | 2.6V | 00:00:00 | 00:00:00 | 00:00:00 | |
| GOEST3-10 | 2026-09-03 13:30:23 | 51.66227 | 6.93235 | 307° | 38km/h | 22766m | -15.8m/s | -51.6°C | 3.7% | 38.4hPa | 2.6V | 00:00:00 | 02:40:46 | 00:00:00 | |
| DM0DOS-11 | 2026-09-03 13:30:22 | 51.66254 | 6.93211 | 112° | 60km/h | 22823m | -15.1m/s | -51.6°C | 3.8% | 38.1hPa | 2.5V | 08:23:14 | 02:40:42 | 00:00:00 | i |
| AA1-15 | 2026-09-03 13:30:20 | 51.66246 | 6.93230 | 138° | 55km/h | 22808m | -14.7m/s | -51.7°C | 0.4% | 38.2hPa | 2.5V | 08:23:17 | 02:40:43 | 00:00:00 | i |
| BIOWL1-15 | 2026-09-03 13:30:19 | 51.66254 | 6.93211 | 113° | 60km/h | 22823m | -15.1m/s | -51.6°C | 0.4% | 38.1hPa | 2.5V | 08:23:17 | 02:40:42 | 00:00:00 | i |
| DL1XH-west | 2026-09-03 13:30:19 | 51.66257 | 6.93188 | 89° | 57km/h | 22838m | -15.3m/s | -51.7°C | 0.3% | 38hPa | 2.6V | 08:23:17 | 02:40:41 | 00:00:00 | i |
| GOEST3-10 | 2026-09-03 13:30:18 | 51.66257 | 6.93188 | 90° | 35km/h | 22839m | -15.2m/s | -51.7°C | 3.7% | 37.9hPa | 2.6V | 00:00:00 | 00:00:00 | 00:00:00 | |
| DO3MHA-11 | 2026-09-03 13:30:17 | 51.66254 | 6.93169 | 63° | 27km/h | 22854m | -14.9m/s | -51.8°C | 3.7% | 37.8hPa | 2.6V | 00:00:00 | 02:40:40 | 00:00:00 | |
| DL8DAS-14 | 2026-09-03 13:30:16 | 51.66243 | 6.93156 | 329° | 15km/h | 22884m | -15.4m/s | -51.9°C | 1.0% | 37.7hPa | 2.5V | 00:00:00 | 00:00:00 | 00:00:00 | i |
| DO2JMG | 2026-09-03 13:30:16 | 51.66248 | 6.93157 | 30° | 31km/h | 22869m | -15.3m/s | -51.9°C | 0.4% | 37.8hPa | 2.6V | 08:23:17 | 02:40:39 | 00:00:00 | i |
| WPPR-10 | 2026-09-03 13:30:15 | 51.66243 | 6.93161 | 236° | 18km/h | 22899m | -15.0m/s | -51.9°C | 1.0% | 37.6hPa | 2.5V | 00:00:00 | 00:00:00 | 00:00:00 | i |
| DM0DOS-11 | 2026-09-03 13:30:14 | 51.66282 | 6.93113 | 86° | 49km/h | 22975m | -15.4m/s | -51.9°C | 3.8% | 37.1hPa | 2.5V | 08:23:24 | 02:40:32 | 00:00:00 | |
| AA1-15 | 2026-09-03 13:30:10 | 51.66279 | 6.93134 | 113° | 57km/h | 22960m | -15.4m/s | -51.9°C | 0.4% | 37.3hPa | 2.6V | 08:24:08 | 02:40:33 | 00:00:00 | i |
| BIOWL1-15 | 2026-09-03 13:30:09 | 51.66282 | 6.93113 | 87° | 49km/h | 22975m | -15.4m/s | -51.9°C | 0.4% | 37.1hPa | 2.5V | 08:24:08 | 02:40:32 | 00:00:00 | i |
| DL1XH-west | 2026-09-03 13:30:07 | 51.66273 | 6.93090 | 12° | 24km/h | 23005m | -14.6m/s | -52°C | 0.3% | 37hPa | 2.6V | 08:24:08 | 02:40:30 | 00:00:00 | i |
| DO2JMG | 2026-09-03 13:30:06 | 51.66270 | 6.93092 | 299° | 16km/h | 23020m | -14.8m/s | -52°C | 0.3% | 37hPa | 2.6V | 08:24:08 | 02:40:29 | 00:00:00 | i |
| MET0W-2 | 2026-09-03 13:30:05 | 51.66280 | 6.93003 | 282° | 22km/h | 23296m | -15.6m/s | -52.4°C | -1.0% | -1.0hPa | 2.6V | 00:00:00 | 00:00:00 | 00:00:00 | |
| DM0DOS-11 | 2026-09-03 13:30:04 | 51.66299 | 6.93045 | 42° | 40km/h | 23127m | -15.1m/s | -52°C | 3.8% | 36.3hPa | 2.6V | 08:23:34 | 02:40:22 | 00:00:00 | i |
| GOEST3-10 | 2026-09-03 13:30:03 | 51.66287 | 6.93105 | 167° | 35km/h | 23066m | -15.9m/s | -52.1°C | 3.9% | 36.6hPa | 2.6V | 00:00:00 | 02:40:26 | 00:00:00 | |
| DL3AQ-11 | 2026-09-03 13:30:01 | 51.66304 | 6.93079 | 108° | 51km/h | 23097m | -14.9m/s | -51.9°C | 0.9% | 36.5hPa | 2.6V | 00:00:00 | 00:00:00 | 00:00:00 | |
| DL1XH-15 | 2026-09-03 13:30:00 | 51.66291 | 6.93055 | 188° | 31km/h | 23189m | -15.6m/s | -52.3°C | 3.9% | 36hPa | 2.6V | 08:23:38 | 02:40:18 | 00:00:00 | i |
| BIOWL1-15 | 2026-09-03 13:30:00 | 51.66292 | 6.93039 | 4° | 29km/h | 23142m | -15.2m/s | -52.1°C | 0.4% | 36.2hPa | 2.5V | 08:24:08 | 02:40:21 | 00:00:00 | i |
| AA1-15 | 2026-09-03 13:29:59 | 51.66299 | 6.93045 | 43° | 40km/h | 23127m | -15.1m/s | -52°C | 0.4% | 36.3hPa | 2.6V | 08:24:08 | 02:40:22 | 00:00:00 | i |
| DL1XH-west | 2026-09-03 13:29:56 | 51.66286 | 6.93050 | 242° | 24km/h | 23173m | -15.6m/s | -52.2°C | 0.5% | 36.1hPa | 2.6V | 08:24:08 | 02:40:19 | 00:00:00 | i |
| DO2JMG | 2026-09-03 13:29:55 | 51.66291 | 6.93055 | 189° | 31km/h | 23189m | -15.6m/s | -52.3°C | 0.5% | 36hPa | 2.6V | 08:24:08 | 02:40:18 | 00:00:00 | i |
| BUE01 | 2026-09-03 13:29:54 | 51.66308 | 6.93018 | 78° | 51km/h | 23236m | -15.0m/s | -52.3°C | 1.0% | 35.7hPa | 2.6V | 00:00:00 | 00:00:00 | 00:00:00 | |
| DD1CC1-15 | 2026-09-03 13:29:53 | 51.66300 | 6.93051 | 149° | 42km/h | 23205m | -15.7m/s | -52.3°C | 1.0% | 35.9hPa | 2.6V | 08:24:00 | 00:00:00 | 00:00:00 | |
| DC6BW-12 | 2026-09-03 13:29:52 | 51.66307 | 6.93038 | 113° | 47km/h | 23221m | -15.6m/s | -52.3°C | 1.0% | 35.8hPa | 2.6V | 08:24:00 | 00:00:00 | 00:00:00 | |
| DM0DOS-11 | 2026-09-03 13:29:50 | 51.66284 | 6.92995 | 330° | 31km/h | 23281m | -15.6m/s | -52.3°C | 3.9% | 35.5hPa | 2.6V | 08:23:44 | 02:40:12 | 00:00:00 | i |
| AA1-15 | 2026-09-03 13:29:49 | 51.66284 | 6.92995 | 331° | 31km/h | 23281m | -15.6m/s | -52.3°C | 0.5% | 35.5hPa | 2.6V | 08:24:08 | 02:40:12 | 00:00:00 | i |
| DL9SK-14 | 2026-09-03 13:29:48 | 51.66280 | 6.93003 | 282° | 22km/h | 23296m | -15.6m/s | -52.4°C | 1.0% | 35.4hPa | 2.5V | 00:00:00 | 00:00:00 | 00:00:00 | i |
| BIOWL1-15 | 2026-09-03 13:29:48 | 51.66280 | 6.93003 | 282° | 22km/h | 23296m | -15.6m/s | -52.4°C | 0.5% | 35.4hPa | 2.6V | 08:24:08 | 02:40:11 | 00:00:00 | i |
| DL1XH-15 | 2026-09-03 13:29:47 | 51.66266 | 6.92940 | 1° | 46km/h | 23404m | -15.6m/s | -52.3°C | 4% | 34.8hPa | 2.5V | 08:23:52 | 02:40:04 | 00:00:00 | i |
| DL1XH-west | 2026-09-03 13:29:45 | 51.66292 | 6.92998 | 113° | 40km/h | 23342m | -15.5m/s | -52.5°C | 0.5% | 35.1hPa | 2.5V | 08:24:08 | 02:40:08 | 00:00:00 | i |
| DO2JMG | 2026-09-03 13:29:44 | 51.66293 | 6.92980 | 83° | 49km/h | 23358m | -15.4m/s | -52.5°C | 0.5% | 35hPa | 2.6V | 08:24:08 | 02:40:07 | 00:00:00 | i |
| DD1CC8 | 2026-09-03 13:29:44 | 51.66293 | 6.92980 | 82° | 49km/h | 23358m | -15.4m/s | -52.5°C | 1.0% | 35.0hPa | 2.6V | 00:00:00 | 00:00:00 | 00:00:00 | i |
| AA1-15 | 2026-09-03 13:29:38 | 51.66257 | 6.92954 | 179° | 22km/h | 23453m | -15.8m/s | -52.1°C | 0.4% | 34.5hPa | 2.6V | 08:24:08 | 02:40:01 | 00:00:00 | i |
| DO2JMG | 2026-09-03 13:29:34 | 51.66267 | 6.92891 | 58° | 51km/h | 23514m | -16.8m/s | -52°C | 0.4% | 34.2hPa | 2.5V | 08:24:08 | 02:39:57 | 00:00:00 | i |
| DL3AQ-11 | 2026-09-03 13:29:33 | 51.66252 | 6.92875 | 349° | 24km/h | 23547m | -15.2m/s | -52.2°C | 1.0% | 33.9hPa | 2.5V | 00:00:00 | 00:00:00 | 00:00:00 | |
| DH3RM | 2026-09-03 13:29:31 | 51.66253 | 6.92875 | 351° | 24km/h | 23547m | -15.2m/s | -52.2°C | 1.0% | 33.9hPa | 2.5V | 08:24:00 | 00:00:00 | 00:00:00 | |
| DM0DOS-11 | 2026-09-03 13:29:30 | 51.66261 | 6.92885 | 168° | 44km/h | 23593m | -16.1m/s | -52.2°C | 4% | 33.8hPa | 2.5V | 08:24:04 | 02:39:52 | 00:00:00 | i |
| AA1-15 | 2026-09-03 13:29:28 | 51.66271 | 6.92877 | 138° | 51km/h | 23610m | -16.7m/s | -52.3°C | 0.5% | 33.7hPa | 2.6V | 08:24:08 | 02:39:51 | 00:00:00 | i |
| BIOWL1-15 | 2026-09-03 13:29:27 | 51.66279 | 6.92859 | 113° | 57km/h | 23626m | -15.3m/s | -52.3°C | 0.5% | 33.6hPa | 2.6V | 08:24:08 | 02:39:50 | 00:00:00 | i |
| DL1XH-15 | 2026-09-03 13:29:26 | 51.66290 | 6.92816 | 168° | 57km/h | 23720m | -16.1m/s | -52.1°C | 4% | 33.1hPa | 2.6V | 08:24:12 | 02:39:44 | 00:00:00 | i |
| DO2JMG | 2026-09-03 13:29:24 | 51.66273 | 6.92813 | 29° | 16km/h | 23674m | -16.6m/s | -52.4°C | 0.6% | 33.4hPa | 2.5V | 08:24:59 | 02:39:47 | 00:00:00 | i |
| DL1XH-west | 2026-09-03 13:29:23 | 51.66273 | 6.92813 | 222° | 13km/h | 23689m | -15.6m/s | -52.3°C | 0.5% | 33.3hPa | 2.5V | 08:24:59 | 02:39:46 | 00:00:00 | i |
| BIOWL1-15 | 2026-09-03 13:29:19 | 51.66316 | 6.92757 | 255° | 20km/h | 23815m | -15.8m/s | -51.5°C | 0.3% | 32.7hPa | 2.6V | 08:24:59 | 02:39:38 | 00:00:00 | i |
| AA1-15 | 2026-09-03 13:29:17 | 51.66319 | 6.92757 | 66° | 26km/h | 23784m | -15.7m/s | -51.5°C | 0.3% | 32.8hPa | 2.5V | 08:24:59 | 02:39:40 | 00:00:00 | i |
| DO2JMG | 2026-09-03 13:29:15 | 51.66320 | 6.92766 | 224° | 38km/h | 23831m | -15.5m/s | -51.6°C | 0.4% | 32.5hPa | 2.6V | 08:24:59 | 02:39:37 | 00:00:00 | i |
| DL1XH-west | 2026-09-03 13:29:12 | 51.66343 | 6.92777 | 175° | 57km/h | 23864m | -17.4m/s | -51.5°C | 0.3% | 32.4hPa | 2.5V | 08:24:59 | 02:39:35 | 00:00:00 | i |
| DL1XH-15 | 2026-09-03 13:29:11 | 51.66356 | 6.92771 | 149° | 53km/h | 23881m | -17.5m/s | -51.5°C | 3.8% | 32.3hPa | 2.6V | 08:24:22 | 02:39:34 | 00:00:00 | i |
| AA1-15 | 2026-09-03 13:29:06 | 51.66355 | 6.92747 | 268° | 29km/h | 23962m | -16.7m/s | -51.7°C | 0.5% | 31.9hPa | 2.5V | 08:24:59 | 02:39:29 | 00:00:00 | i |
| DL3AQ-11 | 2026-09-03 13:29:06 | 51.66358 | 6.92758 | 227° | 37km/h | 23979m | -17.1m/s | -51.7°C | 1.0% | 31.8hPa | 2.6V | 00:00:00 | 00:00:00 | 00:00:00 | i |
| GOEST3-10 | 2026-09-03 13:29:05 | 51.66358 | 6.92758 | 228° | 40km/h | 23979m | -17.1m/s | -51.7°C | 4.0% | 31.8hPa | 2.6V | 08:24:00 | 00:00:00 | 00:00:00 | |
| DM0DOS-11 | 2026-09-03 13:29:04 | 51.66368 | 6.92715 | 354° | 35km/h | 24078m | -16.6m/s | -51.7°C | 3.9% | 31.4hPa | 2.6V | 08:24:34 | 02:39:22 | 00:00:00 | i |
| BIOWL1-15 | 2026-09-03 13:29:04 | 51.66366 | 6.92765 | 189° | 38km/h | 23995m | -17.3m/s | -51.8°C | 0.5% | 31.7hPa | 2.6V | 08:24:59 | 02:39:27 | 00:00:00 | i |
| DO2JMG | 2026-09-03 13:29:03 | 51.66376 | 6.92762 | 149° | 44km/h | 24012m | -16.6m/s | -51.8°C | 0.4% | 31.7hPa | 2.6V | 08:24:59 | 02:39:26 | 00:00:00 | i |
| DL1XH-west | 2026-09-03 13:29:01 | 51.66383 | 6.92732 | 71° | 44km/h | 24046m | -16.5m/s | -51.8°C | 0.5% | 31.4hPa | 2.5V | 08:24:59 | 02:39:24 | 00:00:00 | i |
| AA1-15 | 2026-09-03 13:28:56 | 51.66365 | 6.92739 | 206° | 35km/h | 24129m | -16.7m/s | -51.2°C | 0.4% | 31.1hPa | 2.5V | 08:24:59 | 02:39:19 | 00:00:00 | i |
| BIOWL1-15 | 2026-09-03 13:28:53 | 51.66387 | 6.92716 | 97° | 42km/h | 24178m | -16.3m/s | -51.2°C | 0.4% | 30.8hPa | 2.6V | 08:24:59 | 02:39:16 | 00:00:00 | i |
| DO2JMG | 2026-09-03 13:28:52 | 51.66385 | 6.92702 | 56° | 35km/h | 24195m | -17.8m/s | -51.3°C | 0.4% | 30.7hPa | 2.6V | 08:24:59 | 02:39:15 | 00:00:00 | i |
| DL1XH-west | 2026-09-03 13:28:51 | 51.66380 | 6.92695 | 9° | 22km/h | 24213m | -18.1m/s | -51.3°C | 0.4% | 30.7hPa | 2.6V | 08:24:59 | 02:39:14 | 00:00:00 | i |
| DL1XH-15 | 2026-09-03 13:28:51 | 51.66380 | 6.92695 | 8° | 22km/h | 24213m | -18.1m/s | -51.3°C | 3.8% | 30.7hPa | 2.6V | 08:24:42 | 02:39:14 | 00:00:00 | i |
| HTAHTA | 2026-09-03 13:28:51 | 51.66380 | 6.92695 | 8° | 20km/h | 24213m | -18.1m/s | -51.3°C | 0.9% | 30.7hPa | 2.5V | 00:00:00 | 00:00:00 | 00:00:00 | i |
| DD1CC1-15 | 2026-09-03 13:28:50 | 51.66380 | 6.92695 | 10° | 22km/h | 24213m | -18.1m/s | -51.3°C | 0.9% | 30.7hPa | 2.5V | 08:24:00 | 00:00:00 | 00:00:00 | |
| DM0DOS-11 | 2026-09-03 13:28:49 | 51.66378 | 6.92709 | 237° | 35km/h | 24246m | -15.4m/s | -51°C | 3.7% | 30.4hPa | 2.5V | 08:24:44 | 02:39:12 | 00:00:00 | i |
| DB0ND-19 | 2026-09-03 13:28:47 | 51.66418 | 6.92704 | 118° | 38km/h | 24315m | -17.1m/s | -50.9°C | 0.9% | 30.3hPa | 2.6V | 00:00:00 | 00:00:00 | 00:00:00 | |
| DL1XH-15 | 2026-09-03 13:28:46 | 51.66409 | 6.92705 | 261° | 37km/h | 24381m | -17.1m/s | -50.9°C | 3.7% | 29.9hPa | 2.6V | 08:24:52 | 02:39:04 | 00:00:00 | i |
| AA1-15 | 2026-09-03 13:28:45 | 51.66418 | 6.92704 | 119° | 38km/h | 24315m | -17.1m/s | -50.9°C | 0.3% | 30.3hPa | 2.6V | 08:24:59 | 02:39:08 | 00:00:00 | i |
| GOEST3-10 | 2026-09-03 13:28:45 | 51.66418 | 6.92704 | 119° | 37km/h | 24315m | -17.1m/s | -50.8°C | 3.7% | 30.2hPa | 2.5V | 00:00:00 | 00:00:00 | 00:00:00 | i |
| DM0DOS-11 | 2026-09-03 13:28:44 | 51.66422 | 6.92724 | 185° | 38km/h | 24417m | -17.5m/s | -51.1°C | 3.8% | 29.8hPa | 2.5V | 08:24:54 | 02:39:02 | 00:00:00 | i |
| BIOWL1-15 | 2026-09-03 13:28:42 | 51.66410 | 6.92692 | 303° | 29km/h | 24364m | -16.9m/s | -50.8°C | 0.3% | 30hPa | 2.6V | 08:24:59 | 02:39:05 | 00:00:00 | i |
| DO2JMG | 2026-09-03 13:28:41 | 51.66409 | 6.92705 | 262° | 37km/h | 24381m | -17.1m/s | -50.9°C | 0.3% | 30hPa | 2.6V | 08:24:59 | 02:39:04 | 00:00:00 | i |
| DL1XH-west | 2026-09-03 13:28:40 | 51.66413 | 6.92718 | 223° | 40km/h | 24399m | -18.1m/s | -51°C | 0.4% | 29.8hPa | 2.6V | 08:24:59 | 02:39:03 | 00:00:00 | i |
| AA1-15 | 2026-09-03 13:28:34 | 51.66421 | 6.92681 | 349° | 31km/h | 24501m | -18.4m/s | -50.9°C | 0.3% | 29.4hPa | 2.6V | 08:24:59 | 02:38:57 | 00:00:00 | i |
| BIOWL1-15 | 2026-09-03 13:28:32 | 51.66416 | 6.92697 | 242° | 27km/h | 24537m | -16.8m/s | -50.9°C | 0.4% | 29.2hPa | 2.5V | 08:25:50 | 02:38:55 | 00:00:00 | i |
| DL1XH-15 | 2026-09-03 13:28:31 | 51.66422 | 6.92703 | 187° | 37km/h | 24553m | -16.4m/s | -50.9°C | 3.8% | 29.2hPa | 2.6V | 08:25:02 | 02:38:54 | 00:00:00 | i |
| DO2JMG | 2026-09-03 13:28:30 | 51.66431 | 6.92699 | 145° | 42km/h | 24571m | -17.8m/s | -50.8°C | 0.4% | 29.1hPa | 2.6V | 08:25:50 | 02:38:53 | 00:00:00 | i |
| DL1XH-west | 2026-09-03 13:28:29 | 51.66437 | 6.92685 | 107° | 44km/h | 24589m | -18.6m/s | -50.7°C | 0.4% | 29hPa | 2.6V | 08:25:50 | 02:38:52 | 00:00:00 | i |
| GOEST3-10 | 2026-09-03 13:28:29 | 51.66437 | 6.92685 | 107° | 37km/h | 24589m | -18.6m/s | -50.6°C | 3.7% | 29.0hPa | 2.6V | 00:00:00 | 02:38:52 | 00:00:00 | i |
| DL4BBY-15 | 2026-09-03 13:28:28 | 51.66437 | 6.92670 | 71° | 35km/h | 24607m | -17.8m/s | -50.5°C | 0% | 0hPa | 2.6V | 00:00:00 | 00:00:00 | 00:00:00 | |
| DC6BW-12 | 2026-09-03 13:28:25 | 51.66423 | 6.92659 | 338° | 37km/h | 24641m | -16.7m/s | -50.7°C | 0.9% | 28.8hPa | 2.6V | 08:25:00 | 00:00:00 | 00:00:00 | |
| DM0DOS-11 | 2026-09-03 13:28:24 | 51.66426 | 6.92657 | 18° | 40km/h | 24764m | -17.3m/s | -50.2°C | 3.5% | 28.2hPa | 2.6V | 08:25:14 | 02:38:42 | 00:00:00 | i |
| AA1-15 | 2026-09-03 13:28:24 | 51.66416 | 6.92682 | 249° | 35km/h | 24677m | -18.5m/s | -50.6°C | 0.3% | 28.6hPa | 2.6V | 08:25:50 | 02:38:47 | 00:00:00 | i |
| BIOWL1-15 | 2026-09-03 13:28:24 | 51.66429 | 6.92691 | 153° | 35km/h | 24712m | -17.8m/s | -50.4°C | 0.3% | 28.5hPa | 2.5V | 08:25:50 | 02:38:45 | 00:00:00 | i |
| DL1XH-15 | 2026-09-03 13:28:23 | 51.66417 | 6.92657 | 338° | 37km/h | 24782m | -18m/s | -50.2°C | 3.5% | 28.2hPa | 2.6V | 08:25:15 | 02:38:41 | 00:00:00 | i |
| DO2JMG | 2026-09-03 13:28:19 | 51.66426 | 6.92657 | 19° | 40km/h | 24764m | -17.3m/s | -50.2°C | 0.2% | 28.2hPa | 2.6V | 08:25:50 | 02:38:42 | 00:00:00 | i |
| DL1XH-west | 2026-09-03 13:28:18 | 51.66417 | 6.92657 | 339° | 37km/h | 24782m | -18m/s | -50.2°C | 0.2% | 28.2hPa | 2.6V | 08:25:50 | 02:38:41 | 00:00:00 | i |
| AA1-15 | 2026-09-03 13:28:13 | 51.66431 | 6.92674 | 112° | 40km/h | 24872m | -17.4m/s | -50.1°C | 0.3% | 27.8hPa | 2.6V | 08:25:50 | 02:38:36 | 00:00:00 | i |
| DL3AQ-11 | 2026-09-03 13:28:13 | 51.66425 | 6.92644 | 33° | 42km/h | 24907m | -19.4m/s | -50.2°C | 0.8% | 27.6hPa | 2.6V | 00:00:00 | 00:00:00 | 00:00:00 | i |
| DL8DAS-14 | 2026-09-03 13:28:12 | 51.66425 | 6.92644 | 33° | 42km/h | 24907m | -19.4m/s | -50.2°C | 0.8% | 27.6hPa | 2.6V | 00:00:00 | 00:00:00 | 00:00:00 | |
| DL1XH-15 | 2026-09-03 13:28:11 | 51.66411 | 6.92651 | 234° | 27km/h | 24962m | -15.5m/s | -50.4°C | 3.7% | 27.4hPa | 2.6V | 08:25:25 | 02:38:31 | 00:00:00 | i |
| BIOWL1-15 | 2026-09-03 13:28:10 | 51.66417 | 6.92639 | 359° | 31km/h | 24927m | -19.8m/s | -50.3°C | 0.3% | 27.6hPa | 2.5V | 08:25:50 | 02:38:33 | 00:00:00 | i |
| DM0DOS-11 | 2026-09-03 13:28:09 | 51.66411 | 6.92643 | 308° | 22km/h | 24945m | -17.4m/s | -50.3°C | 3.6% | 27.4hPa | 2.5V | 08:25:24 | 02:38:32 | 00:00:00 | i |
| DO2JMG | 2026-09-03 13:28:08 | 51.66411 | 6.92651 | 234° | 27km/h | 24962m | -15.5m/s | -50.4°C | 0.3% | 27.4hPa | 2.6V | 08:25:50 | 02:38:31 | 00:00:00 | i |
| DL1XH-west | 2026-09-03 13:28:07 | 51.66418 | 6.92656 | 183° | 38km/h | 24978m | -17.4m/s | -50.4°C | 0.4% | 27.3hPa | 2.6V | 08:25:50 | 02:38:30 | 00:00:00 | i |
| SONCRA | 2026-09-03 13:28:06 | 51.66427 | 6.92652 | 149° | 38km/h | 24996m | -18.5m/s | -50.3°C | 0.8% | 27.3hPa | 2.5V | 00:00:00 | 00:00:00 | 00:00:00 | |
| GOEST3-10 | 2026-09-03 13:28:05 | 51.66434 | 6.92641 | 116° | 40km/h | 25015m | -18.2m/s | -50.2°C | 3.6% | 27.1hPa | 2.5V | 00:00:00 | 00:00:00 | 00:00:00 | |
| DM0DOS-11 | 2026-09-03 13:28:04 | 51.66429 | 6.92647 | 195° | 42km/h | 25122m | -18.5m/s | -50°C | 3.6% | 26.7hPa | 2.5V | 08:25:34 | 02:38:22 | 00:00:00 | i |
| DO1YAY-16 | 2026-09-03 13:28:04 | 51.66435 | 6.92627 | 77° | 35km/h | 25033m | -17.5m/s | -50.3°C | 0.9% | 27.1hPa | 2.5V | 00:00:00 | 00:00:00 | 00:00:00 | i |
| DL1XH-15 | 2026-09-03 13:28:03 | 51.66439 | 6.92646 | 161° | 42km/h | 25141m | -18.1m/s | -49.8°C | 3.5% | 26.6hPa | 2.5V | 08:25:35 | 02:38:21 | 00:00:00 | i |
| AA1-15 | 2026-09-03 13:28:01 | 51.66419 | 6.92626 | 281° | 29km/h | 25087m | -17.9m/s | -50.1°C | 0.2% | 26.9hPa | 2.6V | 08:25:50 | 02:38:24 | 00:00:00 | |
| BIOWL1-15 | 2026-09-03 13:28:00 | 51.66421 | 6.92638 | 237° | 37km/h | 25105m | -17.2m/s | -50.1°C | 0.3% | 26.8hPa | 2.6V | 08:25:50 | 02:38:23 | 00:00:00 | i |
| DO2JMG | 2026-09-03 13:27:58 | 51.66439 | 6.92646 | 161° | 44km/h | 25141m | -18.2m/s | -49.8°C | 0.2% | 26.6hPa | 2.5V | 08:25:50 | 02:38:21 | 00:00:00 | i |
| DL1XH-west | 2026-09-03 13:27:57 | 51.66447 | 6.92637 | 119° | 37km/h | 25159m | -18.6m/s | -49.7°C | 0.2% | 26.6hPa | 2.6V | 08:25:50 | 02:38:20 | 00:00:00 | i |
| GOEST3-10 | 2026-09-03 13:27:57 | 51.66447 | 6.92636 | 120° | 38km/h | 25159m | -18.6m/s | -49.6°C | 3.5% | 26.5hPa | 2.6V | 00:00:00 | 02:38:20 | 00:00:00 | i |
| DO3DL | 2026-09-03 13:27:55 | 51.66447 | 6.92623 | 73° | 33km/h | 25178m | -17.8m/s | -49.6°C | 0.8% | 26.5hPa | 2.6V | 00:00:00 | 00:00:00 | 00:00:00 | |
| DM0DOS-11 | 2026-09-03 13:27:54 | 51.66452 | 6.92651 | 132° | 37km/h | 25304m | -18.7m/s | -49.5°C | 3.5% | 26hPa | 2.6V | 08:25:44 | 02:38:12 | 00:00:00 | i |
| AA1-15 | 2026-09-03 13:27:51 | 51.66445 | 6.92657 | 175° | 37km/h | 25286m | -18.6m/s | -49.5°C | 0.2% | 26.1hPa | 2.6V | 08:25:50 | 02:38:13 | 00:00:00 | i |
| DJ2KF-10 | 2026-09-03 13:27:50 | 51.66445 | 6.92657 | 175° | 37km/h | 25286m | -18.5m/s | -49.5°C | 3.5% | 26.0hPa | 2.6V | 00:00:00 | 02:38:13 | 00:00:00 | |
| GOEST3-10 | 2026-09-03 13:27:49 | 51.66452 | 6.92651 | 133° | 37km/h | 25304m | -18.7m/s | -49.4°C | 3.5% | 26.0hPa | 2.6V | 00:00:00 | 00:00:00 | 00:00:00 | i |
| BIOWL1-15 | 2026-09-03 13:27:49 | 51.66452 | 6.92651 | 133° | 37km/h | 25304m | -18.7m/s | -49.5°C | 0.2% | 26hPa | 2.6V | 08:25:50 | 02:38:12 | 00:00:00 | i |
| DL1XH-15 | 2026-09-03 13:27:47 | 51.66452 | 6.92627 | 41° | 37km/h | 25342m | -18.8m/s | -49.5°C | 3.4% | 25.9hPa | 2.5V | 08:25:46 | 02:38:10 | 00:00:00 | i |
| DO2JMG | 2026-09-03 13:27:47 | 51.66452 | 6.92627 | 41° | 37km/h | 25342m | -18.8m/s | -49.5°C | 0.1% | 25.9hPa | 2.5V | 08:25:50 | 02:38:10 | 00:00:00 | i |
| DL1XH-west | 2026-09-03 13:27:46 | 51.66444 | 6.92622 | 360° | 38km/h | 25360m | -18m/s | -49.6°C | 0.1% | 25.8hPa | 2.6V | 08:25:50 | 02:38:09 | 00:00:00 | i |
| DJ3KS | 2026-09-03 13:27:45 | 51.66443 | 6.92622 | 361° | 38km/h | 25361m | -18.0m/s | -49.6°C | 0.8% | 25.8hPa | 2.6V | 00:00:00 | 00:00:00 | 00:00:00 | |
| DM0DOS-11 | 2026-09-03 13:27:44 | 51.66447 | 6.92641 | 58° | 37km/h | 25490m | -18.4m/s | -49.2°C | 3.2% | 25.3hPa | 2.6V | 08:25:54 | 02:38:02 | 00:00:00 | i |
| BIOWL1-15 | 2026-09-03 13:27:40 | 51.66439 | 6.92633 | 17° | 38km/h | 25509m | -19.1m/s | -49.2°C | 0% | 25.2hPa | 2.6V | 08:26:41 | 02:38:01 | 00:00:00 | i |
| AA1-15 | 2026-09-03 13:27:40 | 51.66448 | 6.92654 | 100° | 35km/h | 25472m | -18.5m/s | -49.2°C | 0% | 25.3hPa | 2.6V | 08:26:41 | 02:38:03 | 00:00:00 | i |
| DD1CC8 | 2026-09-03 13:27:40 | 51.66447 | 6.92641 | 58° | 37km/h | 25490m | -18.4m/s | -49.2°C | 0.7% | 25.3hPa | 2.6V | 00:00:00 | 00:00:00 | 00:00:00 | i |
| WPPR-10 | 2026-09-03 13:27:39 | 51.66447 | 6.92641 | 58° | 37km/h | 25490m | -18.4m/s | -49.2°C | 0.7% | 25.3hPa | 2.6V | 00:00:00 | 00:00:00 | 00:00:00 | |
| DD1CC3-15 | 2026-09-03 13:27:38 | 51.66447 | 6.92641 | 60° | 37km/h | 25490m | -18.4m/s | -49.2°C | 0.8% | 25.3hPa | 2.6V | 08:26:00 | 00:00:00 | 00:00:00 | |
| DL1XH-15 | 2026-09-03 13:27:37 | 51.66430 | 6.92633 | 339° | 38km/h | 25528m | -18.4m/s | -49.3°C | 3.2% | 25.1hPa | 2.6V | 08:25:56 | 02:38:00 | 00:00:00 | i |
| DO2JMG | 2026-09-03 13:27:37 | 51.66430 | 6.92633 | 340° | 38km/h | 25528m | -18.4m/s | -49.3°C | 0% | 25.1hPa | 2.6V | 08:26:41 | 02:38:00 | 00:00:00 | i |
| DL1XH-west | 2026-09-03 13:27:36 | 51.66424 | 6.92642 | 295° | 35km/h | 25547m | -18.8m/s | -49.3°C | 0% | 25hPa | 2.5V | 08:26:41 | 02:37:59 | 00:00:00 | i |
| BIOWL1-15 | 2026-09-03 13:27:32 | 51.66421 | 6.92625 | 296° | 27km/h | 25698m | -19.5m/s | -50.2°C | 0.2% | 24.4hPa | 2.6V | 08:26:41 | 02:37:51 | 00:00:00 | i |
| AU51GT2 | 2026-09-03 13:27:32 | 51.66442 | 6.92650 | 107° | 40km/h | 25621m | -19.0m/s | -49.7°C | 0.8% | 24.8hPa | 2.6V | 00:00:00 | 00:00:00 | 00:00:00 | i |
| DL1XH-15 | 2026-09-03 13:27:31 | 51.66421 | 6.92635 | 236° | 31km/h | 25717m | -18.6m/s | -50.2°C | 3.6% | 24.4hPa | 2.6V | 08:26:06 | 02:37:50 | 00:00:00 | i |
| AA1-15 | 2026-09-03 13:27:29 | 51.66427 | 6.92618 | 348° | 37km/h | 25679m | -19.5m/s | -50.1°C | 0.2% | 24.5hPa | 2.6V | 08:26:41 | 02:37:52 | 00:00:00 | i |
| DM0DOS-11 | 2026-09-03 13:27:29 | 51.66427 | 6.92618 | 348° | 37km/h | 25679m | -19.5m/s | -50.1°C | 3.5% | 24.5hPa | 2.6V | 08:26:04 | 02:37:52 | 00:00:00 | i |
| DO2JMG | 2026-09-03 13:27:27 | 51.66421 | 6.92635 | 237° | 31km/h | 25717m | -18.6m/s | -50.2°C | 0.2% | 24.4hPa | 2.6V | 08:26:41 | 02:37:50 | 00:00:00 | i |
| DL1XH-west | 2026-09-03 13:27:25 | 51.66437 | 6.92637 | 145° | 42km/h | 25755m | -20.1m/s | -50.2°C | 0.3% | 24.3hPa | 2.5V | 08:26:41 | 02:37:48 | 00:00:00 | i |
| GOEST3-10 | 2026-09-03 13:27:24 | 51.66442 | 6.92625 | 110° | 35km/h | 25775m | -20.5m/s | -50.2°C | 3.6% | 24.2hPa | 2.6V | 00:00:00 | 00:00:00 | 00:00:00 | |
| DC6BW-12 | 2026-09-03 13:27:23 | 51.66442 | 6.92625 | 111° | 37km/h | 25775m | -20.6m/s | -50.2°C | 0.9% | 24.2hPa | 2.6V | 08:26:00 | 00:00:00 | 00:00:00 | |
| DL1XH-15 | 2026-09-03 13:27:22 | 51.66444 | 6.92643 | 144° | 31km/h | 25910m | -20.1m/s | -50.3°C | 3.6% | 23.6hPa | 2.6V | 08:26:16 | 02:37:40 | 00:00:00 | i |
| BIOWL1-15 | 2026-09-03 13:27:18 | 51.66436 | 6.92645 | 193° | 35km/h | 25890m | -19.6m/s | -50.3°C | 0.3% | 23.8hPa | 2.5V | 08:26:41 | 02:37:41 | 00:00:00 | i |
| DO2JMG | 2026-09-03 13:27:16 | 51.66447 | 6.92632 | 94° | 31km/h | 25931m | -20.5m/s | -50.3°C | 0.2% | 23.6hPa | 2.7V | 08:26:41 | 02:37:39 | 00:00:00 | i |
| DL1XH-west | 2026-09-03 13:27:14 | 51.66437 | 6.92616 | 3° | 38km/h | 25970m | -19m/s | -50.4°C | 0.3% | 23.4hPa | 2.6V | 08:26:41 | 02:37:37 | 00:00:00 | i |
| DM0DOS-11 | 2026-09-03 13:27:14 | 51.66436 | 6.92645 | 114° | 27km/h | 26067m | -18.6m/s | -50.2°C | 3.7% | 23.1hPa | 2.6V | 08:26:24 | 02:37:32 | 00:00:00 | i |
| AA1-15 | 2026-09-03 13:27:08 | 51.66435 | 6.92633 | 68° | 40km/h | 26086m | -18.1m/s | -50°C | 0.3% | 23.1hPa | 2.5V | 08:26:41 | 02:37:31 | 00:00:00 | i |
| DL1XH-15 | 2026-09-03 13:27:07 | 51.66418 | 6.92616 | 0° | 44km/h | 26124m | -19.3m/s | -49.9°C | 3.6% | 22.9hPa | 2.6V | 08:26:27 | 02:37:29 | 00:00:00 | i |
| BIOWL1-15 | 2026-09-03 13:27:07 | 51.66428 | 6.92621 | 31° | 44km/h | 26105m | -19.6m/s | -50°C | 0.3% | 23hPa | 2.5V | 08:26:41 | 02:37:30 | 00:00:00 | i |
| DO2JMG | 2026-09-03 13:27:05 | 51.66409 | 6.92620 | 326° | 40km/h | 26143m | -19.3m/s | -49.8°C | 0.3% | 22.9hPa | 2.6V | 08:26:41 | 02:37:28 | 00:00:00 | i |
| DO9LL-15 | 2026-09-03 13:27:05 | 51.66408 | 6.92620 | 326° | 35km/h | 26144m | -19.2m/s | -49.8°C | 3.6% | 22.8hPa | 2.6V | 08:26:00 | 02:37:28 | 00:00:00 | i |
| DM0DOS-11 | 2026-09-03 13:27:04 | 51.66416 | 6.92623 | 58° | 40km/h | 26261m | -20.2m/s | -49.3°C | 3.4% | 22.4hPa | 2.6V | 08:26:34 | 02:37:22 | 00:00:00 | i |
| DL1XH-west | 2026-09-03 13:27:03 | 51.66403 | 6.92644 | 245° | 29km/h | 26182m | -19.8m/s | -49.8°C | 0.2% | 22.7hPa | 2.6V | 08:26:41 | 02:37:26 | 00:00:00 | i |
| AA1-15 | 2026-09-03 13:26:58 | 51.66408 | 6.92612 | 24° | 42km/h | 26281m | -20.4m/s | -49.4°C | 0.1% | 22.4hPa | 2.6V | 08:26:41 | 02:37:21 | 00:00:00 | i |
| BIOWL1-15 | 2026-09-03 13:26:58 | 51.66390 | 6.92619 | 309° | 40km/h | 26321m | -19.3m/s | -49.4°C | 0.2% | 22.2hPa | 2.5V | 08:26:41 | 02:37:19 | 00:00:00 | i |
| DL1XH-15 | 2026-09-03 13:26:57 | 51.66390 | 6.92619 | 309° | 40km/h | 26321m | -19.3m/s | -49.4°C | 3.4% | 22.2hPa | 2.5V | 08:26:37 | 02:37:19 | 00:00:00 | i |
| BIOWL9-15 | 2026-09-03 13:26:56 | 51.66387 | 6.92632 | 269° | 35km/h | 26340m | -19.5m/s | -49.3°C | 0.8% | 22.2hPa | 2.6V | 00:00:00 | 00:00:00 | 00:00:00 | |
| DM0DOS-11 | 2026-09-03 13:26:54 | 51.66389 | 6.92614 | 357° | 47km/h | 26461m | -19.6m/s | -49.4°C | 3.6% | 21.8hPa | 2.6V | 08:26:44 | 02:37:12 | 00:00:00 | i |
| DO2JMG | 2026-09-03 13:26:54 | 51.66390 | 6.92644 | 225° | 33km/h | 26360m | -19.9m/s | -49.3°C | 0.2% | 22.1hPa | 2.6V | 08:26:41 | 02:37:17 | 00:00:00 | i |
| DL1XH-west | 2026-09-03 13:26:52 | 51.66403 | 6.92643 | 126° | 31km/h | 26401m | -20.9m/s | -49.4°C | 0.2% | 22hPa | 2.6V | 08:26:41 | 02:37:15 | 00:00:00 | |
| AA1-15 | 2026-09-03 13:26:47 | 51.66372 | 6.92634 | 288° | 42km/h | 26501m | -20.4m/s | -49.3°C | 0.3% | 21.6hPa | 2.6V | 08:27:32 | 02:37:10 | 00:00:00 | i |
| BIOWL1-15 | 2026-09-03 13:26:46 | 51.66371 | 6.92647 | 250° | 29km/h | 26521m | -20.4m/s | -49.3°C | 0.3% | 21.6hPa | 2.6V | 08:28:23 | 02:37:09 | 00:00:00 | i |
| DO2JMG | 2026-09-03 13:26:44 | 51.66379 | 6.92649 | 108° | 26km/h | 26561m | -19.6m/s | -48.9°C | 0.2% | 21.4hPa | 2.5V | 08:27:32 | 02:37:07 | 00:00:00 | i |
| DL1XH-west | 2026-09-03 13:26:41 | 51.66357 | 6.92618 | 1° | 57km/h | 26622m | -21.1m/s | -48.9°C | 0.1% | 21.2hPa | 2.6V | 08:27:32 | 02:37:04 | 00:00:00 | i |
| DL8DAS-14 | 2026-09-03 13:26:39 | 51.66334 | 6.92648 | 253° | 27km/h | 26684m | -20.8m/s | -48.7°C | 0.7% | 21.0hPa | 2.5V | 00:00:00 | 00:00:00 | 00:00:00 | |
| GOEST3-10 | 2026-09-03 13:26:38 | 51.66334 | 6.92647 | 254° | 33km/h | 26685m | -20.8m/s | -48.6°C | 3.4% | 21.0hPa | 2.5V | 00:00:00 | 02:37:01 | 00:00:00 | |
| DL1XH-15 | 2026-09-03 13:26:37 | 51.66326 | 6.92613 | 8° | 46km/h | 26786m | -20.2m/s | -48.6°C | 3.4% | 20.7hPa | 2.5V | 08:27:00 | 02:36:56 | 00:00:00 | i |
| BIOWL1-15 | 2026-09-03 13:26:37 | 51.66342 | 6.92635 | 75° | 42km/h | 26745m | -20.1m/s | -48.5°C | 0.1% | 20.9hPa | 2.6V | 08:28:23 | 02:36:58 | 00:00:00 | i |
| AA1-15 | 2026-09-03 13:26:36 | 51.66342 | 6.92648 | 117° | 29km/h | 26725m | -19.9m/s | -48.5°C | 0.1% | 20.9hPa | 2.6V | 08:27:32 | 02:36:59 | 00:00:00 | i |
| DO2JMG | 2026-09-03 13:26:34 | 51.66336 | 6.92620 | 41° | 46km/h | 26765m | -20.7m/s | -48.6°C | 0.1% | 20.8hPa | 2.6V | 08:27:32 | 02:36:57 | 00:00:00 | i |
| DL1XH-west | 2026-09-03 13:26:30 | 51.66311 | 6.92633 | 232° | 22km/h | 26846m | -21.1m/s | -48.6°C | 0.2% | 20.5hPa | 2.6V | 08:27:32 | 02:36:53 | 00:00:00 | i |
| GOEST3-10 | 2026-09-03 13:26:28 | 51.66322 | 6.92628 | 125° | 42km/h | 26889m | -19.9m/s | -48.5°C | 3.5% | 20.4hPa | 2.6V | 00:00:00 | 02:36:51 | 00:00:00 | |
| DL1XH-15 | 2026-09-03 13:26:27 | 51.66296 | 6.92580 | 306° | 27km/h | 26992m | -21.1m/s | -48.4°C | 3.6% | 20.1hPa | 2.6V | 08:27:10 | 02:36:46 | 00:00:00 | i |
| AA1-15 | 2026-09-03 13:26:25 | 51.66313 | 6.92580 | 30° | 47km/h | 26950m | -21.8m/s | -48.4°C | 0.2% | 20.2hPa | 2.6V | 08:27:32 | 02:36:48 | 00:00:00 | i |
| DL4BBY-15 | 2026-09-03 13:26:25 | 51.66313 | 6.92580 | 31° | 37km/h | 26950m | -21.7m/s | -48.2°C | 0% | 0hPa | 2.6V | 00:00:00 | 00:00:00 | 00:00:00 | i |
| DM0DOS-11 | 2026-09-03 13:26:24 | 51.66316 | 6.92575 | 113° | 49km/h | 27075m | -20.9m/s | -48°C | 3.4% | 19.8hPa | 2.6V | 08:27:14 | 02:36:42 | 00:00:00 | i |
| DO2JMG | 2026-09-03 13:26:23 | 51.66296 | 6.92580 | 307° | 27km/h | 26992m | -21.1m/s | -48.4°C | 0.3% | 20.1hPa | 2.6V | 08:27:32 | 02:36:46 | 00:00:00 | i |
| DL1XH-west | 2026-09-03 13:26:19 | 51.66316 | 6.92574 | 113° | 49km/h | 27075m | -21m/s | -48°C | 0.2% | 19.8hPa | 2.6V | 08:27:32 | 02:36:42 | 00:00:00 | i |
| BIOWL1-15 | 2026-09-03 13:26:17 | 51.66304 | 6.92537 | 293° | 22km/h | 27159m | -21.4m/s | -47.8°C | 0.2% | 19.5hPa | 2.5V | 08:28:23 | 02:36:38 | 00:00:00 | i |
| HSKMA3-T | 2026-09-03 13:26:16 | 51.66308 | 6.92534 | 8° | 26km/h | 27138m | -21m/s | -47.8°C | 0.2% | 19.6hPa | 2.5V | 08:28:23 | 02:36:39 | 00:00:00 | i |
| AA1-15 | 2026-09-03 13:26:14 | 51.66305 | 6.92547 | 237° | 31km/h | 27181m | -21.6m/s | -47.6°C | 0.1% | 19.5hPa | 2.6V | 08:27:32 | 02:36:37 | 00:00:00 | i |
| DL1XH-15 | 2026-09-03 13:26:13 | 51.66325 | 6.92518 | 328° | 27km/h | 27310m | -21.9m/s | -46.1°C | 2.9% | 19.1hPa | 2.6V | 08:27:25 | 02:36:31 | 00:00:00 | i |
| DO2JMG | 2026-09-03 13:26:13 | 51.66312 | 6.92554 | 195° | 42km/h | 27202m | -21.5m/s | -47.3°C | 0.1% | 19.4hPa | 2.6V | 08:27:32 | 02:36:36 | 00:00:00 | i |
| DL1XH-west | 2026-09-03 13:26:08 | 51.66325 | 6.92518 | 329° | 27km/h | 27310m | -21.9m/s | -46.2°C | 0% | 19.1hPa | 2.6V | 08:27:32 | 02:36:31 | 00:00:00 | i |
| HSKMA3-T | 2026-09-03 13:26:06 | 51.66324 | 6.92544 | 237° | 47km/h | 27353m | -21.1m/s | -46°C | 0% | 19hPa | 2.6V | 08:28:23 | 02:36:29 | 00:00:00 | i |
| BIOWL1-15 | 2026-09-03 13:26:04 | 51.66345 | 6.92558 | 171° | 47km/h | 27396m | -21.7m/s | -46.1°C | 0% | 18.8hPa | 2.5V | 08:28:23 | 02:36:27 | 00:00:00 | i |
| DO2JMG | 2026-09-03 13:26:02 | 51.66358 | 6.92539 | 92° | 31km/h | 27440m | -21.8m/s | -45.9°C | 0% | 18.8hPa | 2.6V | 08:27:32 | 02:36:25 | 00:00:00 | i |
| DL1XH-west | 2026-09-03 13:25:57 | 51.66344 | 6.92563 | 227° | 38km/h | 27550m | -22m/s | -45.9°C | 0% | 18.4hPa | 2.6V | 08:28:23 | 02:36:20 | 00:00:00 | i |
| BIOWL1-15 | 2026-09-03 13:25:54 | 51.66364 | 6.92552 | 92° | 38km/h | 27616m | -21.9m/s | -45.8°C | 0% | 18.3hPa | 2.6V | 08:28:23 | 02:36:17 | 00:00:00 | i |
| AA1-15 | 2026-09-03 13:25:53 | 51.66361 | 6.92538 | 53° | 37km/h | 27638m | -22.2m/s | -45.8°C | 0% | 18.2hPa | 2.5V | 08:28:23 | 02:36:16 | 00:00:00 | i |
| DO2JMG | 2026-09-03 13:25:51 | 51.66346 | 6.92534 | 324° | 31km/h | 27684m | -23m/s | -45.8°C | 0% | 18.1hPa | 2.6V | 08:28:23 | 02:36:14 | 00:00:00 | i |
| DH3RM | 2026-09-03 13:25:50 | 51.66346 | 6.92534 | 325° | 31km/h | 27684m | -23.0m/s | -45.8°C | 0.6% | 18.0hPa | 2.6V | 00:00:00 | 00:00:00 | 00:00:00 | |
| DK5PH-5 | 2026-09-03 13:25:49 | 51.66347 | 6.92552 | 211° | 37km/h | 27729m | -21.8m/s | -45.8°C | 3.0% | 17.8hPa | 2.6V | 00:00:00 | 02:36:12 | 00:00:00 | |
| DO3DL | 2026-09-03 13:25:48 | 51.66347 | 6.92552 | 211° | 33km/h | 27729m | -21.8m/s | -45.9°C | 0.6% | 17.9hPa | 2.6V | 08:28:00 | 00:00:00 | 00:00:00 | |
| DL1XH-15 | 2026-09-03 13:25:47 | 51.66352 | 6.92507 | 0° | 37km/h | 27842m | -23.2m/s | -45.7°C | 2.9% | 17.6hPa | 2.6V | 08:27:49 | 02:36:07 | 00:00:00 | i |
| DL1XH-west | 2026-09-03 13:25:47 | 51.66363 | 6.92543 | 120° | 42km/h | 27774m | -22.7m/s | -45.8°C | 0% | 17.9hPa | 2.6V | 08:28:23 | 02:36:10 | 00:00:00 | i |
| HTAHTA | 2026-09-03 13:25:45 | 51.66352 | 6.92507 | 0° | 35km/h | 27842m | -23.2m/s | -45.7°C | 0.6% | 17.6hPa | 2.6V | 00:00:00 | 00:00:00 | 00:00:00 | |
| DM0DOS-11 | 2026-09-03 13:25:44 | 51.66364 | 6.92533 | 143° | 46km/h | 27956m | -23.4m/s | -45.3°C | 2.8% | 17.3hPa | 2.6V | 08:27:54 | 02:36:02 | 00:00:00 | i |
| AA1-15 | 2026-09-03 13:25:43 | 51.66344 | 6.92511 | 319° | 33km/h | 27865m | -23.2m/s | -45.6°C | 0% | 17.6hPa | 2.6V | 08:28:23 | 02:36:06 | 00:00:00 | i |
| DO2JMG | 2026-09-03 13:25:41 | 51.66345 | 6.92534 | 221° | 37km/h | 27910m | -22.4m/s | -45.5°C | 0% | 17.5hPa | 2.5V | 08:28:23 | 02:36:04 | 00:00:00 | i |
| GOEST3-10 | 2026-09-03 13:25:40 | 51.66353 | 6.92539 | 182° | 40km/h | 27933m | -22.9m/s | -45.4°C | 2.9% | 17.3hPa | 2.6V | 00:00:00 | 00:00:00 | 00:00:00 | |
| DB0UT-7 | 2026-09-03 13:25:39 | 51.66364 | 6.92533 | 144° | 35km/h | 27957m | -23.4m/s | -45.3°C | 2.8% | 17.3hPa | 2.6V | 00:00:00 | 00:00:00 | 00:00:00 | |
| DL1XH-15 | 2026-09-03 13:25:37 | 51.66362 | 6.92518 | 243° | 40km/h | 28073m | -22.7m/s | -45.3°C | 2.9% | 17.1hPa | 2.6V | 08:27:59 | 02:35:57 | 00:00:00 | i |
| DL1XH-west | 2026-09-03 13:25:36 | 51.66365 | 6.92501 | 4° | 24km/h | 28027m | -23.7m/s | -45.2°C | 0% | 17.1hPa | 2.5V | 08:28:23 | 02:35:59 | 00:00:00 | i |
| BIOWL1-15 | 2026-09-03 13:25:35 | 51.66370 | 6.92531 | 208° | 51km/h | 28095m | -22.3m/s | -45.3°C | 0% | 17hPa | 2.6V | 08:28:23 | 02:35:56 | 00:00:00 | i |
| AA1-15 | 2026-09-03 13:25:32 | 51.66382 | 6.92535 | 178° | 55km/h | 28118m | -23.2m/s | -45.3°C | 0% | 16.9hPa | 2.6V | 08:28:23 | 02:35:55 | 00:00:00 | i |
| DM0DOS-11 | 2026-09-03 13:25:31 | 51.66404 | 6.92506 | 75° | 24km/h | 28190m | -23.1m/s | -45.2°C | 2.8% | 16.7hPa | 2.6V | 08:28:04 | 02:35:52 | 00:00:00 | i |
| DO2JMG | 2026-09-03 13:25:30 | 51.66402 | 6.92518 | 119° | 38km/h | 28166m | -24.4m/s | -45.3°C | 0% | 16.8hPa | 2.5V | 08:28:23 | 02:35:53 | 00:00:00 | i |
| GOEST3-10 | 2026-09-03 13:25:30 | 51.66402 | 6.92518 | 120° | 31km/h | 28167m | -24.3m/s | -45.2°C | 2.9% | 16.7hPa | 2.5V | 08:28:00 | 00:00:00 | 00:00:00 | i |
| DO1YAY-16 | 2026-09-03 13:25:29 | 51.66401 | 6.92502 | 349° | 20km/h | 28214m | -23.2m/s | -45.2°C | 0.6% | 16.7hPa | 2.6V | 00:00:00 | 00:00:00 | 00:00:00 | |
| SONDE2-11 | 2026-09-03 13:25:28 | 51.66399 | 6.92522 | 243° | 42km/h | 28260m | -24.3m/s | -45.3°C | 0.6% | 16.5hPa | 2.6V | 00:00:00 | 00:00:00 | 00:00:00 | |
| DL1XH-15 | 2026-09-03 13:25:27 | 51.66431 | 6.92520 | 88° | 33km/h | 28357m | -24.2m/s | -45.2°C | 2.8% | 16.4hPa | 2.6V | 08:28:11 | 02:35:45 | 00:00:00 | i |
| DL1XH-west | 2026-09-03 13:25:25 | 51.66406 | 6.92535 | 211° | 46km/h | 28285m | -24.5m/s | -45.4°C | 0% | 16.5hPa | 2.5V | 08:28:23 | 02:35:48 | 00:00:00 | i |
| GOEST3-10 | 2026-09-03 13:25:25 | 51.66406 | 6.92534 | 212° | 42km/h | 28285m | -24.5m/s | -45.3°C | 2.8% | 16.5hPa | 2.5V | 00:00:00 | 02:35:48 | 00:00:00 | i |
| DM0DOS-11 | 2026-09-03 13:25:24 | 51.66417 | 6.92519 | 286° | 35km/h | 28429m | -23.9m/s | -45.4°C | 2.8% | 16.2hPa | 2.5V | 08:28:14 | 02:35:42 | 00:00:00 | i |
| BIOWL1-15 | 2026-09-03 13:25:22 | 51.66431 | 6.92520 | 88° | 33km/h | 28357m | -24.2m/s | -45.2°C | 0% | 16.4hPa | 2.6V | 08:28:23 | 02:35:45 | 00:00:00 | i |
| DO2JMG | 2026-09-03 13:25:19 | 51.66417 | 6.92519 | 286° | 35km/h | 28429m | -23.9m/s | -45.4°C | 0% | 16.2hPa | 2.5V | 08:28:23 | 02:35:42 | 00:00:00 | i |
| DK5PH-5 | 2026-09-03 13:25:18 | 51.66418 | 6.92533 | 241° | 37km/h | 28454m | -23.9m/s | -45.5°C | 2.9% | 16.0hPa | 2.5V | 00:00:00 | 02:35:41 | 00:00:00 | |
| DL1XH-15 | 2026-09-03 13:25:17 | 51.66426 | 6.92510 | 335° | 33km/h | 28598m | -23.9m/s | -45.5°C | 2.9% | 15.8hPa | 2.5V | 08:28:21 | 02:35:35 | 00:00:00 | i |
| BIOWL1-15 | 2026-09-03 13:25:16 | 51.66426 | 6.92510 | 335° | 33km/h | 28598m | -23.9m/s | -45.5°C | 0% | 15.8hPa | 2.5V | 08:28:23 | 02:35:35 | 00:00:00 | i |
| DL1XH-west | 2026-09-03 13:25:14 | 51.66441 | 6.92518 | 66° | 35km/h | 28550m | -23.8m/s | -45.4°C | 0% | 15.8hPa | 2.6V | 08:28:23 | 02:35:37 | 00:00:00 | i |
| HTAHTA | 2026-09-03 13:25:14 | 51.66426 | 6.92510 | 335° | 33km/h | 28598m | -23.9m/s | -45.5°C | 0.6% | 15.8hPa | 2.6V | 00:00:00 | 00:00:00 | 00:00:00 | i |
| DM0DOS-11 | 2026-09-03 13:25:11 | 51.66428 | 6.92538 | 189° | 31km/h | 28670m | -24.8m/s | -45.5°C | 2.9% | 15.6hPa | 2.6V | 08:28:24 | 02:35:32 | 00:00:00 | i |
| AA1-15 | 2026-09-03 13:25:11 | 51.66422 | 6.92520 | 286° | 35km/h | 28622m | -23.6m/s | -45.5°C | 0% | 15.6hPa | 2.6V | 08:28:23 | 02:35:34 | 00:00:00 | i |
| DO2JMG | 2026-09-03 13:25:09 | 51.66428 | 6.92538 | 190° | 31km/h | 28670m | -24.8m/s | -45.5°C | 0% | 15.6hPa | 2.6V | 08:29:14 | 02:35:32 | 00:00:00 | i |
| DL1XH-west | 2026-09-03 13:25:04 | 51.66420 | 6.92495 | 342° | 37km/h | 28794m | -25.1m/s | -45.5°C | 0% | 15.2hPa | 2.6V | 08:29:14 | 02:35:27 | 00:00:00 | i |
| BIOWL1-15 | 2026-09-03 13:25:01 | 51.66422 | 6.92519 | 173° | 33km/h | 28868m | -25.6m/s | -45.5°C | 0% | 15.1hPa | 2.5V | 08:29:14 | 02:35:24 | 00:00:00 | i |
| DO2JMG | 2026-09-03 13:24:58 | 51.66425 | 6.92486 | 37° | 42km/h | 28944m | -23.8m/s | -45.6°C | 0% | 14.9hPa | 2.6V | 08:29:14 | 02:35:21 | 00:00:00 | i |
| HSKMA3-T | 2026-09-03 13:24:57 | 51.66416 | 6.92482 | 355° | 42km/h | 28968m | -24.8m/s | -45.6°C | 0% | 14.9hPa | 2.6V | 08:29:14 | 02:35:20 | 00:00:00 | i |
| DO3MHA-11 | 2026-09-03 13:24:56 | 51.66408 | 6.92488 | 317° | 38km/h | 28993m | -25.5m/s | -45.5°C | 3.0% | 14.8hPa | 2.5V | 00:00:00 | 02:35:19 | 08:30:00 | |
| DL1XH-15 | 2026-09-03 13:24:55 | 51.66424 | 6.92463 | 64° | 46km/h | 29140m | -21.7m/s | -45.3°C | 3% | 14.5hPa | 2.5V | 08:28:43 | 02:35:13 | 00:00:00 | i |
| DL1XH-west | 2026-09-03 13:24:54 | 51.66407 | 6.92507 | 210° | 27km/h | 29044m | -24.6m/s | -45.4°C | 0% | 14.7hPa | 2.6V | 08:29:14 | 02:35:17 | 00:00:00 | i |
| DL4BBY-15 | 2026-09-03 13:24:54 | 51.66407 | 6.92506 | 210° | 44km/h | 29044m | -24.6m/s | -45.2°C | 0% | 0hPa | 2.6V | 00:00:00 | 00:00:00 | 00:00:00 | i |
| DD1CC3-15 | 2026-09-03 13:24:53 | 51.66407 | 6.92506 | 211° | 27km/h | 29044m | -24.6m/s | -45.4°C | 0.7% | 14.7hPa | 2.6V | 08:29:00 | 00:00:00 | 00:00:00 | |
| DM0DOS-11 | 2026-09-03 13:24:51 | 51.66417 | 6.92448 | 40° | 44km/h | 29161m | -19.1m/s | -45.1°C | 2.9% | 14.5hPa | 2.6V | 08:28:44 | 02:35:12 | 00:00:00 | i |
| AA1-15 | 2026-09-03 13:24:51 | 51.66426 | 6.92480 | 95° | 46km/h | 29117m | -23.8m/s | -45.4°C | 0% | 14.5hPa | 2.5V | 08:29:14 | 02:35:14 | 00:00:00 | i |
| DO2JMG | 2026-09-03 13:24:48 | 51.66407 | 6.92439 | 19° | 47km/h | 29180m | -20.1m/s | -44.7°C | 0% | 14.4hPa | 2.6V | 08:29:14 | 02:35:11 | 00:00:00 | i |
| HSKMA3-T | 2026-09-03 13:24:46 | 51.66384 | 6.92422 | 30° | 51km/h | 29223m | -23m/s | -45.4°C | 0% | 14.4hPa | 2.6V | 08:29:14 | 02:35:09 | 00:00:00 | i |
| DL1XH-west | 2026-09-03 13:24:43 | 51.66365 | 6.92369 | 95° | 53km/h | 29299m | -26.6m/s | -45.2°C | 0% | 14.2hPa | 2.6V | 08:29:14 | 02:35:06 | 00:00:00 | i |
| BIOWL1-15 | 2026-09-03 13:24:40 | 51.66389 | 6.92339 | 200° | 40km/h | 29378m | -26.1m/s | -45°C | 0% | 14.1hPa | 2.6V | 08:29:14 | 02:35:03 | 00:00:00 | i |
| DO2JMG | 2026-09-03 13:24:37 | 51.66390 | 6.92368 | 347° | 33km/h | 29456m | -26.2m/s | -44.7°C | 0% | 13.8hPa | 2.6V | 08:29:14 | 02:35:00 | 00:00:00 | i |
| HSKMA3-T | 2026-09-03 13:24:36 | 51.66381 | 6.92365 | 32° | 40km/h | 29483m | -26.4m/s | -44.4°C | 0% | 13.8hPa | 2.6V | 08:29:14 | 02:34:59 | 00:00:00 | i |
| DL1XH-west | 2026-09-03 13:24:32 | 51.66390 | 6.92304 | 168° | 49km/h | 29588m | -26.7m/s | -44.1°C | 0% | 13.5hPa | 2.6V | 08:29:14 | 02:34:55 | 00:00:00 | i |
| EDDB2-11 | 2026-09-03 13:24:32 | 51.66390 | 6.92304 | 167° | 49km/h | 29588m | -26.7m/s | -44.1°C | 0.6% | 13.5hPa | 2.6V | 00:00:00 | 00:00:00 | 00:00:00 | i |
| DM0DOS-11 | 2026-09-03 13:24:31 | 51.66408 | 6.92326 | 298° | 29km/h | 29669m | -26.6m/s | -43.9°C | 2.7% | 13.4hPa | 2.6V | 08:29:04 | 02:34:52 | 00:00:00 | i |
| BIOWL1-15 | 2026-09-03 13:24:29 | 51.66396 | 6.92253 | 152° | 49km/h | 29827m | -26.3m/s | -44.1°C | 0% | 13.1hPa | 2.6V | 08:29:14 | 02:34:46 | 00:00:00 | i |
| AA1-15 | 2026-09-03 13:24:29 | 51.66408 | 6.92326 | 299° | 29km/h | 29669m | -26.6m/s | -43.9°C | 0% | 13.4hPa | 2.6V | 08:29:14 | 02:34:52 | 00:00:00 | i |
| DO2JMG | 2026-09-03 13:24:26 | 51.66384 | 6.92312 | 65° | 57km/h | 29748m | -26.4m/s | -44.1°C | 0% | 13.2hPa | 2.6V | 08:29:14 | 02:34:49 | 00:00:00 | i |
| DM0DOS-11 | 2026-09-03 13:24:24 | 51.66408 | 6.92265 | 3° | 31km/h | 29934m | -27.5m/s | -44.3°C | 2.8% | 12.9hPa | 2.7V | 08:29:14 | 02:34:42 | 00:00:00 | i |
| HSKMA3-T | 2026-09-03 13:24:22 | 51.66407 | 6.92249 | 188° | 38km/h | 29853m | -26.8m/s | -43.9°C | 0% | 13hPa | 2.5V | 08:29:14 | 02:34:45 | 00:00:00 | i |
| DL1XH-west | 2026-09-03 13:24:21 | 51.66413 | 6.92254 | 234° | 26km/h | 29880m | -26.9m/s | -43.8°C | 0% | 12.9hPa | 2.5V | 08:29:14 | 02:34:44 | 00:00:00 | i |
| AA1-15 | 2026-09-03 13:24:19 | 51.66408 | 6.92265 | 3° | 31km/h | 29934m | -27.5m/s | -44.3°C | 0% | 12.9hPa | 2.7V | 08:29:14 | 02:34:42 | 00:00:00 | i |
| DO3DL | 2026-09-03 13:24:18 | 51.66408 | 6.92265 | 4° | 31km/h | 29935m | -27.5m/s | -44.3°C | 0.6% | 12.9hPa | 2.5V | 08:29:00 | 00:00:00 | 00:00:00 | |
| DL1XH-15 | 2026-09-03 13:24:17 | 51.66391 | 6.92216 | 98° | 64km/h | 30017m | -27.2m/s | -44.1°C | 2.7% | 12.7hPa | 2.5V | 08:30:00 | 02:34:39 | 00:00:00 | i |
| BIOWL1-15 | 2026-09-03 13:24:16 | 51.66391 | 6.92216 | 99° | 64km/h | 30017m | -27.2m/s | -44.1°C | 0% | 12.7hPa | 2.5V | 18:12:15 | 02:34:39 | 00:00:00 | i |
| HSKMA3-T | 2026-09-03 13:24:10 | 51.66424 | 6.92194 | 353° | 29km/h | 30182m | -28m/s | -44.3°C | 0% | 12.4hPa | 2.5V | 18:12:15 | 02:34:33 | 00:00:00 | i |
| AA1-15 | 2026-09-03 13:24:08 | 51.66411 | 6.92175 | 75° | 47km/h | 30237m | -27.9m/s | -44.3°C | 0% | 12.4hPa | 2.6V | 18:12:15 | 02:34:31 | 00:00:00 | i |
| BIOWL1-15 | 2026-09-03 13:24:06 | 51.66419 | 6.92139 | 142° | 49km/h | 30293m | -28.5m/s | -44.2°C | 0% | 12.3hPa | 2.6V | 18:12:15 | 02:34:29 | 00:00:00 | i |
| DO2JMG | 2026-09-03 13:24:05 | 51.66430 | 6.92133 | 180° | 46km/h | 30322m | -28m/s | -44°C | 0% | 12.1hPa | 2.5V | 18:12:15 | 02:34:28 | 00:00:00 | i |
| DO9LL-15 | 2026-09-03 13:24:05 | 51.66430 | 6.92133 | 180° | 42km/h | 30322m | -28.0m/s | -43.9°C | 2.8% | 12.0hPa | 2.5V | 00:00:00 | 02:34:28 | 00:00:00 | i |
| DM0DOS-11 | 2026-09-03 13:24:04 | 51.66413 | 6.92153 | 63° | 44km/h | 30488m | -27.2m/s | -43.6°C | 2.8% | 11.8hPa | 2.5V | 08:30:00 | 02:34:22 | 00:00:00 | i |
| DL1XH-west | 2026-09-03 13:24:00 | 51.66413 | 6.92153 | 64° | 46km/h | 30488m | -27.2m/s | -43.6°C | 0% | 11.9hPa | 2.5V | 18:12:15 | 02:34:22 | 00:00:00 | i |
| AA1-15 | 2026-09-03 13:23:58 | 51.66411 | 6.92135 | 98° | 46km/h | 30515m | -27.6m/s | -43.2°C | 0% | 11.8hPa | 2.6V | 18:12:15 | 02:34:21 | 00:00:00 | |
| BIOWL1-15 | 2026-09-03 13:23:56 | 51.66423 | 6.92114 | 175° | 35km/h | 30571m | -27.7m/s | -43°C | 0% | 11.7hPa | 2.6V | 18:12:15 | 02:34:19 | 00:00:00 | i |
| DO2JMG | 2026-09-03 13:23:55 | 51.66431 | 6.92117 | 218° | 31km/h | 30599m | -28.4m/s | -43°C | 0% | 11.7hPa | 2.6V | 18:12:15 | 02:34:18 | 00:00:00 | i |
| HSKMA3-T | 2026-09-03 13:23:53 | 51.66431 | 6.92141 | 311° | 38km/h | 30656m | -29.1m/s | -42.7°C | 0% | 11.5hPa | 2.5V | 18:12:15 | 02:34:16 | 00:00:00 | i |
| GOEST3-10 | 2026-09-03 13:23:52 | 51.66422 | 6.92148 | 352° | 53km/h | 30685m | -28.5m/s | -42.7°C | 2.6% | 11.4hPa | 2.6V | 00:00:00 | 02:34:15 | 00:00:00 | |
| DM0DOS-11 | 2026-09-03 13:23:51 | 51.66396 | 6.92109 | 85° | 58km/h | 30770m | -28.5m/s | -42.4°C | 2.5% | 11.3hPa | 2.6V | 08:30:00 | 02:34:12 | 00:00:00 | i |
| AA1-15 | 2026-09-03 13:23:48 | 51.66399 | 6.92087 | 114° | 55km/h | 30799m | -28.8m/s | -42.4°C | 0% | 11.3hPa | 2.5V | 18:12:15 | 02:34:11 | 00:00:00 | i |
| DO2JMG | 2026-09-03 13:23:45 | 51.66423 | 6.92072 | 234° | 31km/h | 30885m | -28.2m/s | -42.3°C | 0% | 11.1hPa | 2.6V | 18:12:15 | 02:34:08 | 00:00:00 | i |
| DL1XH-west | 2026-09-03 13:23:38 | 51.66390 | 6.92039 | 125° | 44km/h | 31082m | -28.7m/s | -42.5°C | 0% | 10.8hPa | 2.6V | 18:12:15 | 02:34:01 | 00:00:00 | i |
| DL1XH-15 | 2026-09-03 13:23:37 | 51.66397 | 6.92029 | 161° | 37km/h | 31111m | -28.4m/s | -43°C | 2.8% | 10.7hPa | 2.5V | 08:30:00 | 02:34:00 | 00:00:00 | i |
| AA1-15 | 2026-09-03 13:23:37 | 51.66398 | 6.92029 | 162° | 37km/h | 31111m | -28.4m/s | -43°C | 0% | 10.7hPa | 2.5V | 18:12:15 | 02:34:00 | 00:00:00 | i |
| DO2JMG | 2026-09-03 13:23:34 | 51.66409 | 6.92052 | 296° | 38km/h | 31196m | -28.3m/s | -42.6°C | 0% | 10.6hPa | 2.6V | 18:12:15 | 02:33:57 | 00:00:00 | i |
| DL1XH-west | 2026-09-03 13:23:28 | 51.66358 | 6.92011 | 94° | 49km/h | 31364m | -28.1m/s | -41.6°C | 0% | 10.3hPa | 2.6V | 18:12:15 | 02:33:51 | 00:00:00 | i |
| AA1-15 | 2026-09-03 13:23:26 | 51.66366 | 6.91984 | 150° | 27km/h | 31419m | -27.5m/s | -41.6°C | 0% | 10.3hPa | 2.5V | 18:12:15 | 02:33:49 | 00:00:00 | i |
| DO2JMG | 2026-09-03 13:23:24 | 51.66374 | 6.91988 | 259° | 22km/h | 31474m | -26.1m/s | -41.6°C | 0% | 10.2hPa | 2.6V | 18:12:15 | 02:33:47 | 00:00:00 | i |
| BIOWL1-15 | 2026-09-03 13:23:23 | 51.66374 | 6.91998 | 295° | 27km/h | 31500m | -25.7m/s | -41.3°C | 0% | 10.1hPa | 2.6V | 18:12:15 | 02:33:46 | 00:00:00 | i |
| DL1XH-west | 2026-09-03 13:23:18 | 51.66321 | 6.92020 | 5° | 55km/h | 31624m | -26.9m/s | -40.9°C | 0% | 9.9hPa | 2.6V | 18:12:15 | 02:33:41 | 00:00:00 | i |
| AA1-15 | 2026-09-03 13:23:15 | 51.66293 | 6.92009 | 36° | 26km/h | 31705m | -26.7m/s | -40.9°C | 0% | 9.8hPa | 2.5V | 18:12:15 | 02:33:38 | 00:00:00 | i |
| DO2JMG | 2026-09-03 13:23:13 | 51.66289 | 6.91993 | 89° | 20km/h | 31760m | -28.5m/s | -41°C | 0% | 9.8hPa | 2.6V | 18:12:15 | 02:33:36 | 00:00:00 | i |
| BIOWL1-15 | 2026-09-03 13:23:13 | 51.66293 | 6.91953 | 95° | 46km/h | 31846m | -30.7m/s | -40.6°C | 0% | 9.7hPa | 2.6V | 18:12:15 | 02:33:33 | 00:00:00 | i |
| HSKMA3-T | 2026-09-03 13:23:13 | 51.66289 | 6.91984 | 94° | 27km/h | 31788m | -28.3m/s | -40.9°C | 0% | 9.8hPa | 2.6V | 18:12:15 | 02:33:35 | 00:00:00 | i |
| DL1XH-west | 2026-09-03 13:23:07 | 51.66285 | 6.91898 | 56° | 37km/h | 31953m | -37m/s | -40.1°C | 0% | 9.5hPa | 2.6V | 18:12:15 | 02:33:30 | 00:00:00 | i |
| AA1-15 | 2026-09-03 13:23:05 | 51.66276 | 6.91878 | 57° | 27km/h | 32011m | -20.3m/s | -40.2°C | 0% | 9.4hPa | 2.6V | 18:12:15 | 02:33:28 | 00:00:00 | i |
| DO2JMG | 2026-09-03 13:23:03 | 51.66269 | 6.91860 | 56° | 27km/h | 32033m | -1.2m/s | -40°C | 0% | 9.4hPa | 2.5V | 18:12:15 | 02:33:26 | 00:00:00 | i |
| DM0DOS-11 | 2026-09-03 13:23:01 | 51.66276 | 6.91792 | 149° | 33km/h | 32009m | 4.3m/s | -40.1°C | 2.2% | 9.4hPa | 2.5V | 08:30:00 | 02:33:21 | 00:00:00 | i |
| HSKMA3-T | 2026-09-03 13:23:01 | 51.66263 | 6.91835 | 87° | 42km/h | 32024m | 6.4m/s | -40°C | 0% | 9.4hPa | 2.6V | 18:12:15 | 02:33:24 | 00:00:00 | i |
| BIOWL1-15 | 2026-09-03 13:22:59 | 51.66269 | 6.91802 | 127° | 42km/h | 32013m | 4.3m/s | -40°C | 0% | 9.4hPa | 2.6V | 18:12:15 | 02:33:22 | 00:00:00 | i |
| DL1XH-west | 2026-09-03 13:22:55 | 51.66285 | 6.91798 | 300° | 20km/h | 31992m | 6.6m/s | -40.1°C | 0% | 9.4hPa | 2.6V | 18:12:15 | 02:33:18 | 00:00:00 | i |
| AA1-15 | 2026-09-03 13:22:53 | 51.66274 | 6.91805 | 10° | 24km/h | 31982m | 3m/s | -40.1°C | 0% | 9.5hPa | 2.6V | 18:12:15 | 02:33:16 | 00:00:00 | i |
| DO2JMG | 2026-09-03 13:22:52 | 51.66269 | 6.91800 | 53° | 24km/h | 31979m | 3.1m/s | -40.1°C | 0% | 9.5hPa | 2.5V | 18:12:15 | 02:33:15 | 00:00:00 | |
| DM0DOS-11 | 2026-09-03 13:22:51 | 51.66286 | 6.91765 | 171° | 37km/h | 31958m | 5.7m/s | -40.4°C | 2.3% | 9.5hPa | 2.6V | 08:30:00 | 02:33:11 | 00:00:00 | i |
| HSKMA3-T | 2026-09-03 13:22:50 | 51.66270 | 6.91780 | 124° | 33km/h | 31970m | 6m/s | -40.2°C | 0% | 9.5hPa | 2.7V | 18:12:15 | 02:33:13 | 00:00:00 | i |
| BIOWL1-15 | 2026-09-03 13:22:49 | 51.66277 | 6.91771 | 149° | 38km/h | 31963m | 6.3m/s | -40.3°C | 0% | 9.5hPa | 2.6V | 18:12:15 | 02:33:12 | 00:00:00 | |
| DL1XH-west | 2026-09-03 13:22:44 | 51.66298 | 6.91775 | 11° | 18km/h | 31938m | 6.2m/s | -40.3°C | 0% | 9.6hPa | 2.6V | 18:12:15 | 02:33:07 | 00:00:00 | i |
| AA1-15 | 2026-09-03 13:22:43 | 51.66292 | 6.91770 | 40° | 31km/h | 31931m | 7.1m/s | -40.3°C | 0% | 9.5hPa | 2.6V | 18:12:15 | 02:33:06 | 00:00:00 | i |
| DM0DOS-11 | 2026-09-03 13:22:41 | 51.66290 | 6.91703 | 145° | 22km/h | 31905m | 6m/s | -40.4°C | 2.3% | 9.6hPa | 2.6V | 08:30:00 | 02:33:01 | 00:00:00 | i |
| DO2JMG | 2026-09-03 13:22:41 | 51.66283 | 6.91743 | 80° | 46km/h | 31919m | 4.9m/s | -40.2°C | 0% | 9.6hPa | 2.5V | 18:12:15 | 02:33:04 | 00:00:00 | i |
| HSKMA3-T | 2026-09-03 13:22:40 | 51.66283 | 6.91725 | 99° | 42km/h | 31914m | 3.9m/s | -40.2°C | 0% | 9.6hPa | 2.5V | 18:12:15 | 02:33:03 | 00:00:00 | |
| BIOWL1-15 | 2026-09-03 13:22:39 | 51.66286 | 6.91711 | 119° | 33km/h | 31910m | 4.5m/s | -40.3°C | 0% | 9.6hPa | 2.6V | 18:12:15 | 02:33:02 | 00:00:00 | i |
| DL1XH-west | 2026-09-03 13:22:34 | 51.66290 | 6.91712 | 356° | 24km/h | 31880m | 3.9m/s | -40.2°C | 0% | 9.6hPa | 2.5V | 18:12:15 | 02:32:57 | 00:00:00 | i |
| AA1-15 | 2026-09-03 13:22:33 | 51.66284 | 6.91710 | 31° | 29km/h | 31877m | 3.6m/s | -40.2°C | 0% | 9.6hPa | 2.6V | 18:12:15 | 02:32:56 | 00:00:00 | i |
| DO2JMG | 2026-09-03 13:22:31 | 51.66276 | 6.91685 | 84° | 42km/h | 31868m | 4.8m/s | -40.3°C | 0% | 9.6hPa | 2.6V | 18:12:15 | 02:32:54 | 00:00:00 | i |
| HSKMA3-T | 2026-09-03 13:22:29 | 51.66280 | 6.91655 | 127° | 35km/h | 31858m | 5.7m/s | -40.5°C | 0% | 9.6hPa | 2.5V | 18:12:15 | 02:32:52 | 00:00:00 | i |
| BIOWL1-15 | 2026-09-03 13:22:28 | 51.66293 | 6.91648 | 264° | 11km/h | 31841m | 4.8m/s | -40.4°C | 0% | 9.7hPa | 2.6V | 18:12:15 | 02:32:49 | 00:00:00 | i |
| DL1XH-15 | 2026-09-03 13:22:27 | 51.66291 | 6.91645 | 194° | 16km/h | 31846m | 5.5m/s | -40.5°C | 2.3% | 9.7hPa | 2.6V | 08:30:00 | 02:32:50 | 00:00:00 | i |
| DL1XH-west | 2026-09-03 13:22:24 | 51.66287 | 6.91651 | 20° | 26km/h | 31832m | 4.6m/s | -40.4°C | 0% | 9.7hPa | 2.5V | 18:12:15 | 02:32:47 | 00:00:00 | i |
| AA1-15 | 2026-09-03 13:22:23 | 51.66281 | 6.91644 | 49° | 37km/h | 31827m | 6m/s | -40.4°C | 0% | 9.7hPa | 2.5V | 18:12:15 | 02:32:46 | 00:00:00 | i |
| DO2JMG | 2026-09-03 13:22:21 | 51.66273 | 6.91609 | 85° | 57km/h | 31814m | 6.3m/s | -40.4°C | 0% | 9.7hPa | 2.6V | 18:12:15 | 02:32:44 | 00:00:00 | i |
| HSKMA3-T | 2026-09-03 13:22:19 | 51.66275 | 6.91567 | 107° | 42km/h | 31805m | 2.6m/s | -40.4°C | 0% | 9.7hPa | 2.5V | 18:12:15 | 02:32:42 | 00:00:00 | i |
| BIOWL1-15 | 2026-09-03 13:22:18 | 51.66278 | 6.91554 | 110° | 24km/h | 31802m | 3.8m/s | -40.6°C | 0% | 9.8hPa | 2.5V | 18:12:15 | 02:32:41 | 00:00:00 | i |
| DL1XH-15 | 2026-09-03 13:22:17 | 51.66279 | 6.91548 | 79° | 7km/h | 31797m | 6.2m/s | -40.7°C | 2.3% | 9.7hPa | 2.6V | 08:30:00 | 02:32:40 | 00:00:00 | i |
| DL1XH-west | 2026-09-03 13:22:13 | 51.66255 | 6.91547 | 28° | 35km/h | 31774m | 3.1m/s | -40.6°C | 0% | 9.8hPa | 2.5V | 18:12:15 | 02:32:36 | 00:00:00 | i |
| AA1-15 | 2026-09-03 13:22:12 | 51.66249 | 6.91538 | 60° | 35km/h | 31771m | 4.6m/s | -40.6°C | 0% | 9.8hPa | 2.5V | 18:12:15 | 02:32:35 | 00:00:00 | i |
| BIOWL1-15 | 2026-09-03 13:22:11 | 51.66262 | 6.91467 | 42° | 18km/h | 31739m | 6m/s | -40.8°C | 0% | 9.8hPa | 2.6V | 18:12:15 | 02:32:29 | 00:00:00 | i |
| DO2JMG | 2026-09-03 13:22:10 | 51.66248 | 6.91508 | 112° | 44km/h | 31758m | 7.2m/s | -40.8°C | 0% | 9.8hPa | 2.6V | 18:12:15 | 02:32:33 | 00:00:00 | i |
| HSKMA3-T | 2026-09-03 13:22:10 | 51.66254 | 6.91492 | 127° | 44km/h | 31752m | 5.2m/s | -40.9°C | 0% | 9.8hPa | 2.6V | 18:12:15 | 02:32:32 | 00:00:00 | i |
| DO2KSM | 2026-09-03 13:22:09 | 51.66248 | 6.91508 | 113° | 44km/h | 31758m | 7.2m/s | -40.8°C | 0.5% | 9.8hPa | 2.6V | 00:00:00 | 00:00:00 | 00:00:00 | |
| BUE01 | 2026-09-03 13:22:08 | 51.66260 | 6.91480 | 131° | 31km/h | 31748m | 3.2m/s | -40.9°C | 0.5% | 9.8hPa | 2.6V | 00:00:00 | 00:00:00 | 00:00:00 | |
| DL1XH-15 | 2026-09-03 13:22:07 | 51.66262 | 6.91467 | 41° | 18km/h | 31739m | 6m/s | -40.8°C | 2.3% | 9.8hPa | 2.6V | 08:30:00 | 02:32:29 | 00:00:00 | i |
| AA1-15 | 2026-09-03 13:22:02 | 51.66228 | 6.91434 | 54° | 42km/h | 31717m | 3.4m/s | -41°C | 0% | 9.9hPa | 2.5V | 18:12:15 | 02:32:25 | 00:00:00 | i |
| DO2JMG | 2026-09-03 13:21:59 | 51.66231 | 6.91400 | 147° | 31km/h | 31699m | 7m/s | -40.8°C | 0% | 9.9hPa | 2.6V | 18:12:15 | 02:32:22 | 00:00:00 | i |
| HSKMA3-T | 2026-09-03 13:21:58 | 51.66237 | 6.91395 | 166° | 27km/h | 31693m | 4.6m/s | -40.9°C | 0% | 9.9hPa | 2.6V | 18:12:15 | 02:32:21 | 00:00:00 | i |
| BIOWL1-15 | 2026-09-03 13:21:57 | 51.66242 | 6.91393 | 166° | 11km/h | 31689m | 3.1m/s | -41°C | 0% | 9.9hPa | 2.6V | 18:12:15 | 02:32:20 | 00:00:00 | |
| AA1-15 | 2026-09-03 13:21:52 | 51.66210 | 6.91342 | 57° | 58km/h | 31660m | 3.8m/s | -41°C | 0% | 9.9hPa | 2.6V | 18:12:15 | 02:32:15 | 00:00:00 | i |
| DL1XH-west | 2026-09-03 13:21:51 | 51.66204 | 6.91323 | 71° | 46km/h | 31657m | 3.8m/s | -41°C | 0% | 9.9hPa | 2.5V | 18:12:15 | 02:32:14 | 00:00:00 | i |
| GOEST3-10 | 2026-09-03 13:21:51 | 51.66204 | 6.91323 | 71° | 24km/h | 31657m | 3.7m/s | -41.0°C | 2.3% | 9.9hPa | 2.6V | 00:00:00 | 02:32:14 | 00:00:00 | i |
| DM0DOS-11 | 2026-09-03 13:21:50 | 51.66206 | 6.91296 | 186° | 13km/h | 31638m | 6.5m/s | -41.3°C | 2.4% | 9.9hPa | 2.6V | 08:30:00 | 02:32:11 | 00:00:00 | i |
| DO2JMG | 2026-09-03 13:21:49 | 51.66203 | 6.91299 | 126° | 18km/h | 31645m | 7.5m/s | -41.3°C | 0% | 10hPa | 2.6V | 18:12:15 | 02:32:12 | 00:00:00 | i |
| DO2KSM | 2026-09-03 13:21:48 | 51.66203 | 6.91299 | 127° | 18km/h | 31646m | 7.5m/s | -41.3°C | 0.5% | 10.0hPa | 2.6V | 00:00:00 | 00:00:00 | 00:00:00 | |
| DL1XH-15 | 2026-09-03 13:21:47 | 51.66207 | 6.91300 | 354° | 13km/h | 31629m | 3.5m/s | -41.1°C | 2.4% | 10hPa | 2.6V | 08:30:00 | 02:32:09 | 00:00:00 | i |
| BIOWL1-15 | 2026-09-03 13:21:47 | 51.66208 | 6.91298 | 249° | 9km/h | 31633m | 4.3m/s | -41.2°C | 0% | 10hPa | 2.6V | 18:12:15 | 02:32:10 | 00:00:00 | i |
| BIOWL9-15 | 2026-09-03 13:21:45 | 51.66202 | 6.91298 | 29° | 27km/h | 31625m | 5.0m/s | -41.2°C | 0.5% | 10.0hPa | 2.6V | 00:00:00 | 00:00:00 | 00:00:00 | |
| AA1-15 | 2026-09-03 13:21:42 | 51.66179 | 6.91251 | 65° | 64km/h | 31605m | 5.4m/s | -41.1°C | 0% | 10hPa | 2.6V | 18:12:15 | 02:32:05 | 00:00:00 | i |
| DL1XH-west | 2026-09-03 13:21:40 | 51.66172 | 6.91211 | 83° | 37km/h | 31596m | 4.4m/s | -41.1°C | 0% | 10hPa | 2.5V | 18:12:15 | 02:32:03 | 00:00:00 | i |
| DM0DOS-11 | 2026-09-03 13:21:40 | 51.66171 | 6.91196 | 353° | 4km/h | 31583m | 7.3m/s | -41.3°C | 2.4% | 10hPa | 2.6V | 08:30:00 | 02:32:01 | 00:00:00 | i |
| DO2JMG | 2026-09-03 13:21:39 | 51.66171 | 6.91200 | 87° | 18km/h | 31590m | 6.5m/s | -41.2°C | 0% | 10hPa | 2.5V | 18:12:15 | 02:32:02 | 00:00:00 | i |
| BIOWL1-15 | 2026-09-03 13:21:37 | 51.66168 | 6.91199 | 318° | 16km/h | 31577m | 6.1m/s | -41.2°C | 0% | 10.1hPa | 2.6V | 18:12:15 | 02:32:00 | 00:00:00 | i |
| BUE01 | 2026-09-03 13:21:37 | 51.66164 | 6.91202 | 342° | 24km/h | 31572m | 4.4m/s | -41.1°C | 0.5% | 10.1hPa | 2.6V | 00:00:00 | 00:00:00 | 00:00:00 | i |
| AU51GT2 | 2026-09-03 13:21:36 | 51.66157 | 6.91202 | 13° | 29km/h | 31568m | 4.3m/s | -41.0°C | 0.5% | 10.1hPa | 2.6V | 00:00:00 | 00:00:00 | 00:00:00 | |
| DO9LL-15 | 2026-09-03 13:21:35 | 51.66157 | 6.91202 | 14° | 35km/h | 31568m | 4.2m/s | -41.0°C | 2.3% | 10.0hPa | 2.6V | 00:00:00 | 02:31:58 | 00:00:00 | |
| DO3MHA-11 | 2026-09-03 13:21:34 | 51.66150 | 6.91196 | 40° | 38km/h | 31563m | 5.8m/s | -40.9°C | 2.3% | 10.0hPa | 2.6V | 00:00:00 | 02:31:57 | 00:00:00 | |
| DL1XH-15 | 2026-09-03 13:21:31 | 51.66136 | 6.91123 | 93° | 40km/h | 31538m | 3.9m/s | -41.2°C | 2.3% | 10.1hPa | 2.6V | 08:30:00 | 02:31:53 | 00:00:00 | i |
| AA1-15 | 2026-09-03 13:21:31 | 51.66136 | 6.91142 | 87° | 53km/h | 31542m | 5.4m/s | -41.1°C | 0% | 10.1hPa | 2.6V | 18:12:15 | 02:31:54 | 00:00:00 | i |
| GOEST3-10 | 2026-09-03 13:21:31 | 51.66136 | 6.91142 | 88° | 31km/h | 31543m | 5.4m/s | -41.1°C | 2.3% | 10.1hPa | 2.5V | 00:00:00 | 02:31:54 | 00:00:00 | i |
| DM0DOS-11 | 2026-09-03 13:21:30 | 51.66135 | 6.91104 | 42° | 15km/h | 31529m | 5.5m/s | -41.5°C | 2.5% | 10.1hPa | 2.5V | 08:30:00 | 02:31:51 | 00:00:00 | i |
| DL1XH-west | 2026-09-03 13:21:29 | 51.66137 | 6.91110 | 89° | 24km/h | 31534m | 4.2m/s | -41.4°C | 0% | 10.1hPa | 2.5V | 18:12:15 | 02:31:52 | 00:00:00 | i |
| BIOWL1-15 | 2026-09-03 13:21:28 | 51.66123 | 6.91101 | 1° | 38km/h | 31516m | 6.8m/s | -41.4°C | 0% | 10.1hPa | 2.6V | 18:12:15 | 02:31:49 | 00:00:00 | i |
| DO2JMG | 2026-09-03 13:21:28 | 51.66135 | 6.91103 | 43° | 15km/h | 31529m | 5.5m/s | -41.5°C | 0% | 10.1hPa | 2.5V | 18:12:15 | 02:31:51 | 00:00:00 | i |
| HSKMA3-T | 2026-09-03 13:21:27 | 51.66131 | 6.91101 | 2° | 26km/h | 31523m | 6.7m/s | -41.5°C | 0% | 10.1hPa | 2.6V | 18:12:15 | 02:31:50 | 00:00:00 | i |
| WPPR-10 | 2026-09-03 13:21:27 | 51.66123 | 6.91101 | 0° | 38km/h | 31516m | 6.8m/s | -41.4°C | 0.5% | 10.1hPa | 2.6V | 00:00:00 | 00:00:00 | 00:00:00 | i |
| GOEST3-10 | 2026-09-03 13:21:26 | 51.66123 | 6.91101 | 1° | 46km/h | 31516m | 6.7m/s | -41.4°C | 2.4% | 10.1hPa | 2.6V | 00:00:00 | 00:00:00 | 00:00:00 | |
| DL1XH-15 | 2026-09-03 13:21:25 | 51.66078 | 6.91046 | 99° | 22km/h | 31484m | 6.4m/s | -41.4°C | 2.4% | 10.2hPa | 2.6V | 08:30:00 | 02:31:43 | 00:00:00 | i |
| AA1-15 | 2026-09-03 13:21:21 | 51.66078 | 6.91056 | 78° | 31km/h | 31490m | 5.9m/s | -41.3°C | 0% | 10.2hPa | 2.6V | 18:12:15 | 02:31:44 | 00:00:00 | i |
| DO2JMG | 2026-09-03 13:21:18 | 51.66079 | 6.91039 | 335° | 4km/h | 31472m | 4.8m/s | -41.4°C | 0% | 10.2hPa | 2.5V | 18:12:15 | 02:31:41 | 00:00:00 | i |
| HSKMA3-T | 2026-09-03 13:21:16 | 51.66071 | 6.91039 | 9° | 29km/h | 31464m | 4.6m/s | -41.3°C | 0% | 10.2hPa | 2.6V | 18:12:15 | 02:31:39 | 00:00:00 | i |
| DK5PH-5 | 2026-09-03 13:21:16 | 51.66071 | 6.91039 | 9° | 29km/h | 31464m | 4.6m/s | -41.2°C | 2.4% | 10.2hPa | 2.6V | 00:00:00 | 02:31:39 | 00:00:00 | i |
| DD1CC1-15 | 2026-09-03 13:21:15 | 51.66071 | 6.91039 | 10° | 29km/h | 31464m | 4.6m/s | -41.3°C | 0.5% | 10.2hPa | 2.6V | 00:00:00 | 00:00:00 | 00:00:00 | |
| DO3MHA-11 | 2026-09-03 13:21:14 | 51.66053 | 6.91026 | 37° | 38km/h | 31453m | 6.8m/s | -41.3°C | 2.4% | 10.2hPa | 2.6V | 00:00:00 | 02:31:37 | 00:00:00 | |
| DL1XH-15 | 2026-09-03 13:21:11 | 51.66021 | 6.90966 | 6° | 16km/h | 31428m | 5.2m/s | -41.7°C | 2.4% | 10.3hPa | 2.6V | 08:30:00 | 02:31:32 | 00:00:00 | i |
| AA1-15 | 2026-09-03 13:21:11 | 51.66029 | 6.90980 | 60° | 38km/h | 31436m | 3.3m/s | -41.6°C | 0% | 10.3hPa | 2.5V | 18:12:15 | 02:31:34 | 00:00:00 | i |
| DM0DOS-11 | 2026-09-03 13:21:10 | 51.66016 | 6.90968 | 333° | 24km/h | 31423m | 6.3m/s | -41.6°C | 2.5% | 10.3hPa | 2.6V | 08:30:00 | 02:31:31 | 00:00:00 | i |
| DL1XH-west | 2026-09-03 13:21:08 | 51.66016 | 6.90968 | 334° | 24km/h | 31423m | 6.3m/s | -41.6°C | 0% | 10.3hPa | 2.6V | 18:12:15 | 02:31:31 | 00:00:00 | i |
| DO2JMG | 2026-09-03 13:21:07 | 51.66010 | 6.90973 | 332° | 35km/h | 31416m | 6m/s | -41.4°C | 0% | 10.3hPa | 2.5V | 18:12:15 | 02:31:30 | 00:00:00 | i |
| HSKMA3-T | 2026-09-03 13:21:07 | 51.66001 | 6.90979 | 343° | 38km/h | 31411m | 4.5m/s | -41.3°C | 0% | 10.3hPa | 2.5V | 18:12:15 | 02:31:29 | 00:00:00 | i |
| GOEST3-10 | 2026-09-03 13:21:07 | 51.66001 | 6.90979 | 343° | 33km/h | 31411m | 4.4m/s | -41.3°C | 2.4% | 10.2hPa | 2.6V | 00:00:00 | 00:00:00 | 00:00:00 | i |
| BIOWL1-15 | 2026-09-03 13:21:06 | 51.65975 | 6.90959 | 85° | 31km/h | 31391m | 6.8m/s | -41.4°C | 0% | 10.3hPa | 2.6V | 18:12:15 | 02:31:25 | 00:00:00 | |
| DB0UT-7 | 2026-09-03 13:21:06 | 51.66001 | 6.90979 | 343° | 24km/h | 31411m | 4.4m/s | -41.3°C | 2.4% | 10.2hPa | 2.6V | 00:00:00 | 02:31:29 | 00:00:00 | |
| AU51GT2 | 2026-09-03 13:21:05 | 51.65984 | 6.90978 | 25° | 31km/h | 31403m | 4.9m/s | -41.5°C | 0.5% | 10.3hPa | 2.6V | 00:00:00 | 00:00:00 | 00:00:00 | |
| DL1XH-15 | 2026-09-03 13:21:04 | 51.65980 | 6.90932 | 114° | 9km/h | 31373m | 4.4m/s | -41.5°C | 2.4% | 10.3hPa | 2.6V | 08:30:00 | 02:31:22 | 00:00:00 | i |
| AA1-15 | 2026-09-03 13:21:01 | 51.65976 | 6.90947 | 107° | 29km/h | 31384m | 6.3m/s | -41.3°C | 0% | 10.3hPa | 2.5V | 18:12:15 | 02:31:24 | 00:00:00 | i |
| DL9SK-14 | 2026-09-03 13:21:01 | 51.65978 | 6.90937 | 120° | 20km/h | 31379m | 5.1m/s | -41.4°C | 0.5% | 10.4hPa | 2.6V | 00:00:00 | 00:00:00 | 00:00:00 | i |
| DM0DOS-11 | 2026-09-03 13:21:00 | 51.65979 | 6.90930 | 6° | 9km/h | 31369m | 5.1m/s | -41.5°C | 2.4% | 10.4hPa | 2.6V | 08:30:00 | 02:31:21 | 00:00:00 | i |
| DL1XH-west | 2026-09-03 13:20:58 | 51.65975 | 6.90930 | 358° | 24km/h | 31363m | 6.2m/s | -41.3°C | 0% | 10.4hPa | 2.6V | 18:12:15 | 02:31:20 | 00:00:00 | i |
| HSKMA3-T | 2026-09-03 13:20:56 | 51.65968 | 6.90929 | 5° | 37km/h | 31357m | 6.8m/s | -41.3°C | 0% | 10.4hPa | 2.5V | 18:12:15 | 02:31:19 | 00:00:00 | |
| BIOWL1-15 | 2026-09-03 13:20:55 | 51.65958 | 6.90926 | 17° | 40km/h | 31351m | 5.8m/s | -41.4°C | 0% | 10.4hPa | 2.5V | 18:12:15 | 02:31:18 | 00:00:00 | i |
| EDDB2-11 | 2026-09-03 13:20:55 | 51.65949 | 6.90920 | 30° | 37km/h | 31346m | 4.2m/s | -41.4°C | 0.5% | 10.4hPa | 2.5V | 00:00:00 | 00:00:00 | 00:00:00 | i |
| SONCRA | 2026-09-03 13:20:52 | 51.65940 | 6.90901 | 135° | 7km/h | 31332m | 5.7m/s | -41.6°C | 0.5% | 10.4hPa | 2.5V | 00:00:00 | 00:00:00 | 00:00:00 | |
| DL1XH-15 | 2026-09-03 13:20:51 | 51.65944 | 6.90905 | 244° | 16km/h | 31320m | 5.9m/s | -41.7°C | 2.5% | 10.4hPa | 2.5V | 08:30:00 | 02:31:12 | 00:00:00 | i |
| DO3DL | 2026-09-03 13:20:51 | 51.65940 | 6.90901 | 137° | 9km/h | 31332m | 5.7m/s | -41.6°C | 0.5% | 10.4hPa | 2.6V | 00:00:00 | 00:00:00 | 00:00:00 | i |
| DM0DOS-11 | 2026-09-03 13:20:50 | 51.65945 | 6.90912 | 275° | 18km/h | 31314m | 4.8m/s | -41.6°C | 2.4% | 10.5hPa | 2.6V | 08:30:00 | 02:31:11 | 00:00:00 | i |
| AA1-15 | 2026-09-03 13:20:50 | 51.65942 | 6.90901 | 209° | 13km/h | 31326m | 6.3m/s | -41.8°C | 0% | 10.4hPa | 2.5V | 18:12:15 | 02:31:13 | 00:00:00 | i |
| BIOWL1-15 | 2026-09-03 13:20:46 | 51.65932 | 6.90905 | 69° | 31km/h | 31293m | 7m/s | -41.8°C | 0% | 10.5hPa | 2.5V | 18:12:15 | 02:31:07 | 00:00:00 | i |
| DO2JMG | 2026-09-03 13:20:46 | 51.65940 | 6.90919 | 10° | 16km/h | 31305m | 5.1m/s | -41.7°C | 0% | 10.5hPa | 2.6V | 18:12:15 | 02:31:09 | 00:00:00 | i |
| HSKMA3-T | 2026-09-03 13:20:45 | 51.65936 | 6.90915 | 47° | 24km/h | 31299m | 6.3m/s | -41.8°C | 0% | 10.5hPa | 2.5V | 18:12:15 | 02:31:08 | 00:00:00 | i |
| DL1XH-15 | 2026-09-03 13:20:44 | 51.65928 | 6.90870 | 323° | 16km/h | 31267m | 6.8m/s | -42.1°C | 2.5% | 10.5hPa | 2.5V | 08:30:00 | 02:31:02 | 00:00:00 | i |
| DO3MHA-11 | 2026-09-03 13:20:44 | 51.65932 | 6.90905 | 69° | 24km/h | 31293m | 7.0m/s | -41.8°C | 2.4% | 10.4hPa | 2.6V | 00:00:00 | 02:31:07 | 00:00:00 | i |
| BIOWL9-15 | 2026-09-03 13:20:43 | 51.65930 | 6.90892 | 84° | 33km/h | 31287m | 5.7m/s | -41.7°C | 0.5% | 10.5hPa | 2.6V | 00:00:00 | 00:00:00 | 00:00:00 | |
| GOEST3-10 | 2026-09-03 13:20:41 | 51.65931 | 6.90871 | 97° | 20km/h | 31278m | 3.5m/s | -41.8°C | 2.4% | 10.5hPa | 2.6V | 00:00:00 | 02:31:04 | 00:00:00 | |
| DM0DOS-11 | 2026-09-03 13:20:40 | 51.65924 | 6.90875 | 327° | 29km/h | 31261m | 6.9m/s | -42°C | 2.5% | 10.5hPa | 2.5V | 08:30:00 | 02:31:01 | 00:00:00 | i |
| AA1-15 | 2026-09-03 13:20:40 | 51.65931 | 6.90868 | 6° | 4km/h | 31273m | 5.1m/s | -42°C | 0% | 10.5hPa | 2.6V | 18:12:15 | 02:31:03 | 00:00:00 | i |
| DL1XH-west | 2026-09-03 13:20:36 | 51.65910 | 6.90883 | 356° | 27km/h | 31250m | 3.7m/s | -42°C | 0% | 10.6hPa | 2.6V | 18:12:15 | 02:30:59 | 00:00:00 | i |
| DO2JMG | 2026-09-03 13:20:35 | 51.65904 | 6.90882 | 29° | 20km/h | 31246m | 4.4m/s | -42°C | 0% | 10.5hPa | 2.6V | 18:12:15 | 02:30:58 | 00:00:00 | i |
| HSKMA3-T | 2026-09-03 13:20:34 | 51.65901 | 6.90876 | 78° | 20km/h | 31241m | 6.1m/s | -42.1°C | 0% | 10.6hPa | 2.5V | 18:12:15 | 02:30:57 | 00:00:00 | i |
| DO3MHA-11 | 2026-09-03 13:20:34 | 51.65901 | 6.90876 | 79° | 27km/h | 31241m | 6.1m/s | -42.1°C | 2.5% | 10.5hPa | 2.5V | 00:00:00 | 02:30:57 | 08:30:00 | i |
| DC6BW-12 | 2026-09-03 13:20:33 | 51.65901 | 6.90876 | 79° | 20km/h | 31241m | 6.1m/s | -42.1°C | 0.6% | 10.6hPa | 2.5V | 00:00:00 | 00:00:00 | 00:00:00 | |
| GOEST3-10 | 2026-09-03 13:20:31 | 51.65909 | 6.90850 | 131° | 24km/h | 31223m | 4.0m/s | -42.3°C | 2.5% | 10.6hPa | 2.5V | 00:00:00 | 02:30:54 | 00:00:00 | |
| DM0DOS-11 | 2026-09-03 13:20:30 | 51.65903 | 6.90839 | 12° | 31km/h | 31208m | 6.6m/s | -42.1°C | 2.5% | 10.6hPa | 2.5V | 08:30:00 | 02:30:51 | 00:00:00 | i |
| AA1-15 | 2026-09-03 13:20:29 | 51.65909 | 6.90841 | 24° | 16km/h | 31214m | 5.4m/s | -42.1°C | 0% | 10.6hPa | 2.6V | 18:12:15 | 02:30:52 | 00:00:00 | i |
| DL1XH-west | 2026-09-03 13:20:25 | 51.65875 | 6.90821 | 35° | 37km/h | 31192m | 3.8m/s | -42.2°C | 0% | 10.7hPa | 2.6V | 18:12:15 | 02:30:48 | 00:00:00 | |
| HSKMA3-T | 2026-09-03 13:20:24 | 51.65870 | 6.90813 | 55° | 22km/h | 31187m | 4.8m/s | -42.2°C | 0% | 10.6hPa | 2.6V | 18:12:15 | 02:30:47 | 00:00:00 | i |
| AA1-15 | 2026-09-03 13:20:18 | 51.65875 | 6.90805 | 31° | 22km/h | 31155m | 5.4m/s | -42.4°C | 0% | 10.7hPa | 2.6V | 18:12:15 | 02:30:41 | 00:00:00 | i |
| HSKMA3-T | 2026-09-03 13:20:14 | 51.65851 | 6.90759 | 67° | 31km/h | 31133m | 3.8m/s | -42.4°C | 0% | 10.7hPa | 2.6V | 18:12:15 | 02:30:37 | 00:00:00 | i |
| DO2JMG | 2026-09-03 13:20:13 | 51.65849 | 6.90750 | 81° | 15km/h | 31128m | 5m/s | -42.5°C | 0% | 10.8hPa | 2.6V | 18:12:15 | 02:30:36 | 00:00:00 | i |
| AA1-15 | 2026-09-03 13:20:07 | 51.65843 | 6.90767 | 49° | 26km/h | 31097m | 6.3m/s | -42.3°C | 0% | 10.8hPa | 2.6V | 18:12:15 | 02:30:30 | 00:00:00 | i |
| DL1XH-west | 2026-09-03 13:20:04 | 51.65837 | 6.90723 | 95° | 37km/h | 31079m | 3.5m/s | -42.4°C | 0% | 10.8hPa | 2.6V | 18:12:15 | 02:30:27 | 00:00:00 | i |
| BUE01 | 2026-09-03 13:20:04 | 51.65838 | 6.90712 | 103° | 20km/h | 31076m | 3.3m/s | -42.5°C | 0.5% | 10.8hPa | 2.7V | 00:00:00 | 00:00:00 | 00:00:00 | i |
| DM0DOS-11 | 2026-09-03 13:20:03 | 51.65821 | 6.90726 | 359° | 27km/h | 31048m | 3.8m/s | -42.3°C | 2.5% | 10.9hPa | 2.7V | 08:30:00 | 02:30:21 | 00:00:00 | i |
| HSKMA3-T | 2026-09-03 13:20:03 | 51.65838 | 6.90712 | 103° | 20km/h | 31076m | 3.3m/s | -42.5°C | 0% | 10.8hPa | 2.6V | 18:12:15 | 02:30:26 | 00:00:00 | i |
| DO2JMG | 2026-09-03 13:20:02 | 51.65839 | 6.90707 | 92° | 4km/h | 31071m | 5.5m/s | -42.6°C | 0% | 10.8hPa | 2.6V | 18:12:15 | 02:30:25 | 00:00:00 | i |
| AA1-15 | 2026-09-03 13:19:57 | 51.65816 | 6.90722 | 42° | 24km/h | 31044m | 4.8m/s | -42.3°C | 0% | 10.9hPa | 2.6V | 18:12:15 | 02:30:20 | 00:00:00 | |
| HSKMA3-T | 2026-09-03 13:19:53 | 51.65822 | 6.90672 | 127° | 31km/h | 31021m | 3.4m/s | -42.6°C | 0% | 10.9hPa | 2.6V | 18:12:15 | 02:30:16 | 00:00:00 | i |
| BIOWL1-15 | 2026-09-03 13:19:53 | 51.65826 | 6.90661 | 46° | 7km/h | 31012m | 6.1m/s | -42.3°C | 0% | 10.9hPa | 2.6V | 18:12:15 | 02:30:14 | 00:00:00 | i |
| DO2JMG | 2026-09-03 13:19:52 | 51.65825 | 6.90665 | 122° | 16km/h | 31018m | 4m/s | -42.4°C | 0% | 10.9hPa | 2.6V | 18:12:15 | 02:30:15 | 00:00:00 | i |
| AA1-15 | 2026-09-03 13:19:47 | 51.65802 | 6.90651 | 42° | 27km/h | 30991m | 3.7m/s | -42.2°C | 0% | 11hPa | 2.6V | 18:12:15 | 02:30:10 | 00:00:00 | i |
| SONDE2-11 | 2026-09-03 13:19:47 | 51.65799 | 6.90643 | 78° | 22km/h | 30987m | 5.2m/s | -42.2°C | 0.5% | 11.0hPa | 2.5V | 00:00:00 | 00:00:00 | 00:00:00 | i |
| DL1XH-west | 2026-09-03 13:19:43 | 51.65810 | 6.90616 | 145° | 31km/h | 30968m | 4.5m/s | -42.2°C | 0% | 11hPa | 2.5V | 18:12:15 | 02:30:06 | 00:00:00 | i |
| BIOWL1-15 | 2026-09-03 13:19:42 | 51.65799 | 6.90585 | 30° | 42km/h | 30944m | 5.2m/s | -42.2°C | 0% | 11.1hPa | 2.5V | 18:12:15 | 02:30:01 | 00:00:00 | i |
| DO2JMG | 2026-09-03 13:19:41 | 51.65817 | 6.90604 | 81° | 13km/h | 30961m | 4.1m/s | -42.5°C | 0% | 11hPa | 2.6V | 18:12:15 | 02:30:04 | 00:00:00 | i |
| AA1-15 | 2026-09-03 13:19:36 | 51.65786 | 6.90567 | 57° | 24km/h | 30936m | 4.1m/s | -42.3°C | 0% | 11.1hPa | 2.6V | 18:12:15 | 02:29:59 | 00:00:00 | i |
| HSKMA3-T | 2026-09-03 13:19:32 | 51.65796 | 6.90557 | 196° | 16km/h | 30913m | 4m/s | -42.3°C | 0% | 11.1hPa | 2.5V | 18:12:15 | 02:29:55 | 00:00:00 | i |
| DO2JMG | 2026-09-03 13:19:31 | 51.65799 | 6.90557 | 156° | 4km/h | 30909m | 3.7m/s | -42.2°C | 0% | 11.1hPa | 2.6V | 18:12:15 | 02:29:54 | 00:00:00 | i |
| BIOWL1-15 | 2026-09-03 13:19:27 | 51.65779 | 6.90478 | 232° | 7km/h | 30866m | 7m/s | -42.3°C | 0% | 11.2hPa | 2.6V | 18:12:15 | 02:29:46 | 00:00:00 | i |
| DL1XH-15 | 2026-09-03 13:19:27 | 51.65777 | 6.90486 | 86° | 26km/h | 30877m | 4.2m/s | -42.2°C | 2.4% | 11.1hPa | 2.6V | 08:30:00 | 02:29:48 | 00:00:00 | i |
| AA1-15 | 2026-09-03 13:19:25 | 51.65777 | 6.90486 | 86° | 26km/h | 30878m | 4.2m/s | -42.2°C | 0% | 11.1hPa | 2.6V | 18:12:15 | 02:29:48 | 00:00:00 | i |
| DL1XH-west | 2026-09-03 13:19:22 | 51.65779 | 6.90483 | 267° | 15km/h | 30859m | 5.7m/s | -42.3°C | 0% | 11.2hPa | 2.5V | 18:12:15 | 02:29:45 | 00:00:00 | i |
| HSKMA3-T | 2026-09-03 13:19:21 | 51.65779 | 6.90488 | 301° | 13km/h | 30855m | 3.6m/s | -42.1°C | 0% | 11.2hPa | 2.5V | 18:12:15 | 02:29:44 | 00:00:00 | i |
| DO2JMG | 2026-09-03 13:19:20 | 51.65776 | 6.90490 | 19° | 11km/h | 30852m | 3.2m/s | -42.1°C | 0% | 11.2hPa | 2.6V | 18:12:15 | 02:29:43 | 00:00:00 | i |
| AA1-15 | 2026-09-03 13:19:15 | 51.65771 | 6.90417 | 102° | 38km/h | 30825m | 3.3m/s | -42.3°C | 0% | 11.2hPa | 2.6V | 18:12:15 | 02:29:38 | 00:00:00 | i |
| BIOWL1-15 | 2026-09-03 13:19:14 | 51.65772 | 6.90398 | 342° | 11km/h | 30810m | 6.6m/s | -42.3°C | 0% | 11.3hPa | 2.6V | 18:12:15 | 02:29:35 | 00:00:00 | i |
| DM0DOS-11 | 2026-09-03 13:19:13 | 51.65755 | 6.90390 | 76° | 27km/h | 30791m | 5.3m/s | -42.1°C | 2.4% | 11.3hPa | 2.6V | 08:30:00 | 02:29:31 | 00:00:00 | i |
| DL1XH-west | 2026-09-03 13:19:11 | 51.65768 | 6.90400 | 343° | 22km/h | 30804m | 5.8m/s | -42.3°C | 0% | 11.3hPa | 2.5V | 18:12:15 | 02:29:34 | 00:00:00 | i |
| DO2JMG | 2026-09-03 13:19:10 | 51.65763 | 6.90401 | 4° | 22km/h | 30799m | 4m/s | -42.3°C | 0% | 11.3hPa | 2.5V | 18:12:15 | 02:29:33 | 00:00:00 | i |
| AA1-15 | 2026-09-03 13:19:04 | 51.65766 | 6.90339 | 115° | 22km/h | 30769m | 3.7m/s | -42.5°C | 0% | 11.3hPa | 2.6V | 18:12:15 | 02:29:27 | 00:00:00 | i |
| BIOWL1-15 | 2026-09-03 13:19:02 | 51.65763 | 6.90329 | 19° | 22km/h | 30759m | 6.7m/s | -42.5°C | 0% | 11.3hPa | 2.6V | 18:12:15 | 02:29:25 | 00:00:00 | i |
| DM0DOS-11 | 2026-09-03 13:19:02 | 51.65732 | 6.90309 | 53° | 26km/h | 30738m | 3.7m/s | -42.3°C | 2.4% | 11.4hPa | 2.6V | 08:30:00 | 02:29:21 | 00:00:00 | i |
| DO2JMG | 2026-09-03 13:19:00 | 51.65747 | 6.90322 | 16° | 40km/h | 30746m | 5.2m/s | -42.2°C | 0% | 11.4hPa | 2.5V | 18:12:15 | 02:29:23 | 00:00:00 | i |
| HSKMA3-T | 2026-09-03 13:18:59 | 51.65738 | 6.90316 | 30° | 35km/h | 30742m | 3.2m/s | -42.3°C | 0% | 11.4hPa | 2.5V | 18:12:15 | 02:29:22 | 00:00:00 | i |
| GOEST3-10 | 2026-09-03 13:18:58 | 51.65732 | 6.90308 | 54° | 24km/h | 30739m | 3.7m/s | -42.3°C | 2.4% | 11.4hPa | 2.5V | 00:00:00 | 02:29:21 | 00:00:00 | |
| DL1XH-15 | 2026-09-03 13:18:57 | 51.65739 | 6.90288 | 160° | 27km/h | 30720m | 6m/s | -42.6°C | 2.6% | 11.4hPa | 2.5V | 08:30:00 | 02:29:18 | 00:00:00 | |
| AA1-15 | 2026-09-03 13:18:54 | 51.65745 | 6.90285 | 170° | 22km/h | 30716m | 3.8m/s | -42.5°C | 0% | 11.4hPa | 2.5V | 18:12:15 | 02:29:17 | 00:00:00 | i |
| DL8DAS-14 | 2026-09-03 13:18:53 | 51.65748 | 6.90283 | 147° | 7km/h | 30712m | 3.3m/s | -42.4°C | 0.5% | 11.4hPa | 2.5V | 00:00:00 | 00:00:00 | 00:00:00 | i |
| BIOWL1-15 | 2026-09-03 13:18:53 | 51.65744 | 6.90274 | 38° | 29km/h | 30702m | 7m/s | -42.5°C | 0% | 11.4hPa | 2.6V | 18:12:15 | 02:29:14 | 00:00:00 | i |
| DD1CC8 | 2026-09-03 13:18:52 | 51.65748 | 6.90280 | 49° | 13km/h | 30708m | 5.2m/s | -42.4°C | 0.5% | 11.4hPa | 2.5V | 00:00:00 | 00:00:00 | 00:00:00 | |
| DM0DOS-11 | 2026-09-03 13:18:51 | 51.65723 | 6.90240 | 57° | 35km/h | 30685m | 3.6m/s | -42.6°C | 2.5% | 11.5hPa | 2.5V | 08:30:00 | 02:29:11 | 00:00:00 | i |
| DL1XH-west | 2026-09-03 13:18:50 | 51.65737 | 6.90265 | 40° | 44km/h | 30695m | 6.6m/s | -42.6°C | 0% | 11.5hPa | 2.6V | 18:12:15 | 02:29:13 | 00:00:00 | |
| HSKMA3-T | 2026-09-03 13:18:49 | 51.65729 | 6.90252 | 47° | 46km/h | 30689m | 4.8m/s | -42.6°C | 0% | 11.5hPa | 2.5V | 18:12:15 | 02:29:12 | 00:00:00 | i |
| SONCRA | 2026-09-03 13:18:47 | 51.65720 | 6.90230 | 74° | 18km/h | 30681m | 4.7m/s | -42.8°C | 0.5% | 11.5hPa | 2.5V | 00:00:00 | 00:00:00 | 00:00:00 | |
| SONDE2-11 | 2026-09-03 13:18:45 | 51.65725 | 6.90232 | 239° | 22km/h | 30661m | 6.0m/s | -42.9°C | -1.0% | 11.5hPa | 2.5V | 00:00:00 | 00:00:00 | 00:00:00 | |
| DO2KSM | 2026-09-03 13:18:44 | 51.65722 | 6.90226 | 219° | 16km/h | 30668m | 7.6m/s | -42.9°C | 0.6% | 11.5hPa | 2.5V | 00:00:00 | 00:00:00 | 00:00:00 | |
| DM0DOS-11 | 2026-09-03 13:18:43 | 51.65711 | 6.90204 | 78° | 44km/h | 30630m | 4.4m/s | -42.9°C | 2.5% | 11.6hPa | 2.5V | 08:30:00 | 02:29:01 | 00:00:00 | i |
| AA1-15 | 2026-09-03 13:18:43 | 51.65727 | 6.90240 | 262° | 18km/h | 30656m | 3.8m/s | -42.8°C | 0% | 11.5hPa | 2.5V | 18:12:15 | 02:29:06 | 00:00:00 | i |
| DL1XH-west | 2026-09-03 13:18:40 | 51.65719 | 6.90235 | 56° | 35km/h | 30642m | 7m/s | -42.9°C | 0% | 11.6hPa | 2.6V | 18:12:15 | 02:29:03 | 00:00:00 | i |
| DO2JMG | 2026-09-03 13:18:38 | 51.65711 | 6.90204 | 78° | 44km/h | 30630m | 4.4m/s | -42.9°C | 0% | 11.6hPa | 2.5V | 18:12:15 | 02:29:01 | 00:00:00 | i |
| GOEST3-10 | 2026-09-03 13:18:38 | 51.65711 | 6.90204 | 79° | 20km/h | 30630m | 4.4m/s | -42.8°C | 2.5% | 11.5hPa | 2.5V | 00:00:00 | 02:29:01 | 08:30:00 | i |
| DL1XH-15 | 2026-09-03 13:18:37 | 51.65710 | 6.90177 | 287° | 4km/h | 30615m | 7.2m/s | -43.1°C | 2.6% | 11.6hPa | 2.6V | 08:30:00 | 02:28:58 | 00:00:00 | i |
| AA1-15 | 2026-09-03 13:18:33 | 51.65706 | 6.90190 | 300° | 29km/h | 30601m | 5.8m/s | -42.9°C | 0% | 11.6hPa | 2.5V | 18:12:15 | 02:28:56 | 00:00:00 | |
| BIOWL1-15 | 2026-09-03 13:18:31 | 51.65697 | 6.90203 | 356° | 18km/h | 30593m | 3.6m/s | -42.9°C | 0% | 11.6hPa | 2.6V | 18:12:15 | 02:28:54 | 00:00:00 | i |
| DL1XH-west | 2026-09-03 13:18:29 | 51.65691 | 6.90191 | 84° | 29km/h | 30582m | 7.2m/s | -43°C | 0% | 11.6hPa | 2.6V | 18:12:15 | 02:28:52 | 00:00:00 | i |
| HSKMA3-T | 2026-09-03 13:18:28 | 51.65692 | 6.90178 | 103° | 37km/h | 30575m | 6.7m/s | -43°C | 0% | 11.7hPa | 2.5V | 18:12:15 | 02:28:51 | 00:00:00 | i |
| DO2JMG | 2026-09-03 13:18:27 | 51.65695 | 6.90165 | 116° | 35km/h | 30569m | 4.5m/s | -43.1°C | 0% | 11.7hPa | 2.5V | 18:12:15 | 02:28:50 | 00:00:00 | |
| AA1-15 | 2026-09-03 13:18:23 | 51.65694 | 6.90164 | 319° | 35km/h | 30550m | 6.5m/s | -43.3°C | 0% | 11.7hPa | 2.6V | 18:12:15 | 02:28:46 | 00:00:00 | i |
| BIOWL1-15 | 2026-09-03 13:18:20 | 51.65670 | 6.90178 | 19° | 24km/h | 30536m | 4.4m/s | -43.3°C | 0% | 11.8hPa | 2.6V | 18:12:15 | 02:28:43 | 00:00:00 | i |
| DL1XH-west | 2026-09-03 13:18:18 | 51.65667 | 6.90164 | 116° | 26km/h | 30524m | 6.9m/s | -43.3°C | 0% | 11.8hPa | 2.6V | 18:12:15 | 02:28:41 | 00:00:00 | i |
| GOEST3-10 | 2026-09-03 13:18:18 | 51.65667 | 6.90164 | 116° | 22km/h | 30525m | 6.8m/s | -43.2°C | 2.6% | 11.7hPa | 2.6V | 00:00:00 | 02:28:41 | 00:00:00 | i |
| DL1XH-15 | 2026-09-03 13:18:17 | 51.65681 | 6.90149 | 196° | 13km/h | 30509m | 4.5m/s | -43.5°C | 2.7% | 11.8hPa | 2.6V | 08:30:00 | 02:28:38 | 00:00:00 | i |
| HSKMA3-T | 2026-09-03 13:18:17 | 51.65671 | 6.90156 | 140° | 31km/h | 30518m | 5.3m/s | -43.4°C | 0% | 11.8hPa | 2.5V | 18:12:15 | 02:28:40 | 00:00:00 | i |
| DO2JMG | 2026-09-03 13:18:16 | 51.65677 | 6.90150 | 161° | 26km/h | 30513m | 4m/s | -43.5°C | 0% | 11.8hPa | 2.5V | 18:12:15 | 02:28:39 | 00:00:00 | |
| BIOWL1-15 | 2026-09-03 13:18:15 | 51.65657 | 6.90156 | 88° | 13km/h | 30476m | 5.7m/s | -43.5°C | 0% | 11.9hPa | 2.6V | 18:12:15 | 02:28:32 | 00:00:00 | i |
| AA1-15 | 2026-09-03 13:18:12 | 51.65673 | 6.90161 | 345° | 33km/h | 30491m | 5.9m/s | -43.4°C | 0% | 11.8hPa | 2.6V | 18:12:15 | 02:28:35 | 00:00:00 | i |
| DO8TBO-1 | 2026-09-03 13:18:12 | 51.65673 | 6.90161 | 345° | 22km/h | 30491m | 5.8m/s | 0°C | 0% | 0hPa | 2.6V | 00:00:00 | 02:28:35 | 08:30:00 | i |
| DM0DOS-11 | 2026-09-03 13:18:11 | 51.65659 | 6.90151 | 144° | 20km/h | 30470m | 6.9m/s | -43.6°C | 2.6% | 11.9hPa | 2.6V | 08:30:00 | 02:28:31 | 00:00:00 | i |
| HSKMA3-T | 2026-09-03 13:18:07 | 51.65665 | 6.90147 | 167° | 29km/h | 30464m | 6.1m/s | -43.7°C | 0% | 11.9hPa | 2.6V | 18:12:15 | 02:28:30 | 00:00:00 | i |
| DL1XH-15 | 2026-09-03 13:18:07 | 51.65677 | 6.90148 | 201° | 16km/h | 30453m | 4.4m/s | -43.9°C | 2.8% | 11.9hPa | 2.5V | 08:30:00 | 02:28:28 | 00:00:00 | i |
| DO2JMG | 2026-09-03 13:18:05 | 51.65677 | 6.90148 | 202° | 16km/h | 30453m | 4.4m/s | -43.9°C | 0% | 11.9hPa | 2.5V | 18:12:15 | 02:28:28 | 00:00:00 | i |
| AA1-15 | 2026-09-03 13:18:02 | 51.65672 | 6.90150 | 13° | 29km/h | 30435m | 6.1m/s | -43.7°C | 0% | 11.9hPa | 2.6V | 18:12:15 | 02:28:25 | 00:00:00 | i |
| GOEST3-10 | 2026-09-03 13:18:02 | 51.65671 | 6.90150 | 14° | 22km/h | 30436m | 6.1m/s | -43.7°C | 2.7% | 11.9hPa | 2.6V | 00:00:00 | 00:00:00 | 00:00:00 | i |
| DM0DOS-11 | 2026-09-03 13:18:01 | 51.65662 | 6.90130 | 167° | 20km/h | 30414m | 7.1m/s | -43.9°C | 2.7% | 11.9hPa | 2.6V | 08:30:00 | 02:28:21 | 00:00:00 | i |
| BIOWL1-15 | 2026-09-03 13:17:58 | 51.65661 | 6.90130 | 167° | 20km/h | 30414m | 7.1m/s | -43.9°C | 0% | 11.9hPa | 2.6V | 18:12:15 | 02:28:21 | 00:00:00 | i |
| DL1XH-west | 2026-09-03 13:17:57 | 51.65668 | 6.90131 | 193° | 31km/h | 30407m | 6.6m/s | -43.9°C | 0% | 12hPa | 2.6V | 18:12:15 | 02:28:20 | 00:00:00 | i |
| DL1XH-15 | 2026-09-03 13:17:57 | 51.65680 | 6.90141 | 224° | 20km/h | 30398m | 3.7m/s | -43.7°C | 2.7% | 12hPa | 2.5V | 08:30:00 | 02:28:18 | 00:00:00 | i |
| HSKMA3-T | 2026-09-03 13:17:56 | 51.65675 | 6.90135 | 209° | 31km/h | 30402m | 4.6m/s | -43.8°C | 0% | 12hPa | 2.6V | 18:12:15 | 02:28:19 | 00:00:00 | i |
| DO2JMG | 2026-09-03 13:17:54 | 51.65682 | 6.90145 | 270° | 5km/h | 30393m | 4.8m/s | -43.7°C | 0% | 12hPa | 2.5V | 18:12:15 | 02:28:17 | 00:00:00 | |
| AA1-15 | 2026-09-03 13:17:51 | 51.65672 | 6.90128 | 63° | 37km/h | 30374m | 5.7m/s | -43.7°C | 0% | 12hPa | 2.6V | 18:12:15 | 02:28:14 | 00:00:00 | i |
| DD1CC8 | 2026-09-03 13:17:50 | 51.65670 | 6.90104 | 114° | 20km/h | 30365m | 4.5m/s | -43.9°C | 0.6% | 12.0hPa | 2.6V | 00:00:00 | 00:00:00 | 00:00:00 | |
| DM0DOS-11 | 2026-09-03 13:17:49 | 51.65673 | 6.90100 | 174° | 18km/h | 30359m | 6.4m/s | -44°C | 2.7% | 12.1hPa | 2.6V | 08:30:00 | 02:28:11 | 00:00:00 | i |
| EDDB2-11 | 2026-09-03 13:17:49 | 51.65673 | 6.90100 | 174° | 16km/h | 30360m | 6.4m/s | -44.0°C | 0.6% | 12.1hPa | 2.6V | 00:00:00 | 00:00:00 | 00:00:00 | i |
| DL1XH-15 | 2026-09-03 13:17:47 | 51.65685 | 6.90123 | 257° | 26km/h | 30342m | 3.9m/s | -43.8°C | 2.8% | 12.1hPa | 2.6V | 08:30:00 | 02:28:08 | 00:00:00 | i |
| DL1XH-west | 2026-09-03 13:17:47 | 51.65678 | 6.90103 | 218° | 27km/h | 30353m | 6.8m/s | -44°C | 0% | 12.1hPa | 2.6V | 18:12:15 | 02:28:10 | 00:00:00 | i |
| HSKMA3-T | 2026-09-03 13:17:46 | 51.65683 | 6.90112 | 239° | 31km/h | 30347m | 5.6m/s | -43.9°C | 0% | 12.1hPa | 2.6V | 18:12:15 | 02:28:09 | 00:00:00 | i |
| SONCRA | 2026-09-03 13:17:45 | 51.65686 | 6.90130 | 289° | 9km/h | 30338m | 3.9m/s | -43.9°C | 0.6% | 12.1hPa | 2.5V | 00:00:00 | 00:00:00 | 00:00:00 | |
| DO2JMG | 2026-09-03 13:17:43 | 51.65684 | 6.90130 | 53° | 11km/h | 30333m | 6m/s | -43.9°C | 0% | 12.1hPa | 2.5V | 18:12:15 | 02:28:06 | 00:00:00 | i |
| AA1-15 | 2026-09-03 13:17:41 | 51.65683 | 6.90109 | 96° | 42km/h | 30319m | 7.4m/s | -43.8°C | 0% | 12.1hPa | 2.6V | 18:12:15 | 02:28:04 | 00:00:00 | i |
| DL1XH-west | 2026-09-03 13:17:37 | 51.65701 | 6.90068 | 205° | 16km/h | 30298m | 5.9m/s | -44.1°C | 0% | 12.2hPa | 2.6V | 18:12:15 | 02:28:00 | 00:00:00 | i |
| HSKMA3-T | 2026-09-03 13:17:35 | 51.65703 | 6.90083 | 286° | 24km/h | 30287m | 4.9m/s | -43.9°C | 0% | 12.2hPa | 2.6V | 18:12:15 | 02:27:58 | 00:00:00 | i |
| DO2JMG | 2026-09-03 13:17:33 | 51.65698 | 6.90090 | 37° | 9km/h | 30279m | 4.6m/s | -44°C | 0% | 12.2hPa | 2.5V | 18:12:15 | 02:27:56 | 00:00:00 | i |
| AA1-15 | 2026-09-03 13:17:30 | 51.65705 | 6.90059 | 126° | 47km/h | 30258m | 6.7m/s | -43.9°C | 0% | 12.2hPa | 2.6V | 18:12:15 | 02:27:53 | 00:00:00 | i |
| BIOWL1-15 | 2026-09-03 13:17:28 | 51.65724 | 6.90034 | 303° | 9km/h | 30238m | 7.3m/s | -44.3°C | 0% | 12.2hPa | 2.6V | 18:12:15 | 02:27:49 | 00:00:00 | i |
| GOEST3-10 | 2026-09-03 13:17:27 | 51.65724 | 6.90033 | 171° | 18km/h | 30245m | 5.5m/s | -44.2°C | 2.8% | 12.2hPa | 2.6V | 00:00:00 | 02:27:50 | 00:00:00 | |
| DL1XH-15 | 2026-09-03 13:17:26 | 51.65718 | 6.90018 | 143° | 44km/h | 30202m | 7m/s | -44.4°C | 2.8% | 12.3hPa | 2.6V | 08:30:00 | 02:27:43 | 00:00:00 | i |
| HSKMA3-T | 2026-09-03 13:17:25 | 51.65721 | 6.90038 | 331° | 22km/h | 30231m | 7m/s | -44.1°C | 0% | 12.3hPa | 2.6V | 18:12:15 | 02:27:48 | 00:00:00 | |
| DL4BBY-15 | 2026-09-03 13:17:24 | 51.65716 | 6.90041 | 349° | 27km/h | 30225m | 4.8m/s | -43.8°C | 0% | 0hPa | 2.6V | 00:00:00 | 00:00:00 | 00:00:00 | |
| DM0DOS-11 | 2026-09-03 13:17:23 | 51.65738 | 6.90002 | 159° | 35km/h | 30192m | 3.7m/s | -44.2°C | 2.8% | 12.4hPa | 2.6V | 08:30:00 | 02:27:41 | 00:00:00 | i |
| DO2JMG | 2026-09-03 13:17:22 | 51.65709 | 6.90036 | 93° | 16km/h | 30216m | 5.4m/s | -44.1°C | 0% | 12.3hPa | 2.5V | 18:12:15 | 02:27:45 | 00:00:00 | i |
| AA1-15 | 2026-09-03 13:17:20 | 51.65719 | 6.90018 | 143° | 44km/h | 30202m | 7m/s | -44.4°C | 0% | 12.3hPa | 2.6V | 18:12:15 | 02:27:43 | 00:00:00 | i |
| BIOWL1-15 | 2026-09-03 13:17:18 | 51.65746 | 6.89997 | 46° | 2km/h | 30181m | 7.7m/s | -43.9°C | 0% | 12.4hPa | 2.5V | 18:12:15 | 02:27:39 | 00:00:00 | i |
| HSKMA3-T | 2026-09-03 13:17:15 | 51.65737 | 6.89994 | 15° | 29km/h | 30167m | 5.4m/s | -44°C | 0% | 12.4hPa | 2.6V | 18:12:15 | 02:27:37 | 00:00:00 | i |
| DO2JMG | 2026-09-03 13:17:12 | 51.65729 | 6.89982 | 87° | 20km/h | 30158m | 5m/s | -44°C | 0% | 12.4hPa | 2.5V | 18:12:15 | 02:27:35 | 00:00:00 | i |
| GOEST3-10 | 2026-09-03 13:17:12 | 51.65729 | 6.89982 | 88° | 35km/h | 30158m | 5.0m/s | -43.9°C | 2.7% | 12.4hPa | 2.6V | 00:00:00 | 00:00:00 | 00:00:00 | i |
| DL1XH-15 | 2026-09-03 13:17:11 | 51.65738 | 6.89966 | 151° | 40km/h | 30144m | 8m/s | -43.8°C | 2.7% | 12.4hPa | 2.6V | 08:30:00 | 02:27:33 | 00:00:00 | |
| AA1-15 | 2026-09-03 13:17:09 | 51.65748 | 6.89959 | 163° | 49km/h | 30136m | 6.1m/s | -43.7°C | 0% | 12.5hPa | 2.6V | 18:12:15 | 02:27:32 | 00:00:00 | i |
| BIOWL1-15 | 2026-09-03 13:17:06 | 51.65770 | 6.89951 | 124° | 7km/h | 30122m | 6.5m/s | -43.7°C | 0% | 12.5hPa | 2.5V | 18:12:15 | 02:27:29 | 00:00:00 | i |
| HSKMA3-T | 2026-09-03 13:17:03 | 51.65758 | 6.89931 | 55° | 35km/h | 30103m | 4m/s | -43.7°C | 0% | 12.5hPa | 2.6V | 18:12:15 | 02:27:26 | 00:00:00 | i |
| GOEST3-10 | 2026-09-03 13:17:02 | 51.65755 | 6.89919 | 82° | 33km/h | 30099m | 4.5m/s | -43.6°C | 2.6% | 12.5hPa | 2.6V | 00:00:00 | 00:00:00 | 00:00:00 | |
| DM0DOS-11 | 2026-09-03 13:17:01 | 51.65779 | 6.89890 | 172° | 35km/h | 30072m | 4.9m/s | -43.7°C | 2.7% | 12.6hPa | 2.6V | 08:30:00 | 02:27:21 | 00:00:00 | i |
| DO2JMG | 2026-09-03 13:17:01 | 51.65756 | 6.89907 | 116° | 29km/h | 30093m | 6.7m/s | -43.7°C | 0% | 12.6hPa | 2.5V | 18:12:15 | 02:27:24 | 00:00:00 | i |
| AA1-15 | 2026-09-03 13:16:59 | 51.65770 | 6.89892 | 166° | 40km/h | 30078m | 7.1m/s | -43.8°C | 0% | 12.6hPa | 2.6V | 18:12:15 | 02:27:22 | 00:00:00 | i |
| BIOWL1-15 | 2026-09-03 13:16:55 | 51.65788 | 6.89876 | 63° | 27km/h | 30055m | 7m/s | -43.5°C | 0% | 12.6hPa | 2.5V | 18:12:15 | 02:27:18 | 00:00:00 | i |
| HSKMA3-T | 2026-09-03 13:16:52 | 51.65776 | 6.89833 | 84° | 37km/h | 30039m | 4.4m/s | -43.7°C | 0% | 12.7hPa | 2.6V | 18:12:15 | 02:27:15 | 00:00:00 | |
| DO2JMG | 2026-09-03 13:16:51 | 51.65777 | 6.89820 | 110° | 29km/h | 30033m | 6.3m/s | -43.7°C | 0% | 12.7hPa | 2.6V | 18:12:15 | 02:27:14 | 00:00:00 | i |
| DD1CC1-15 | 2026-09-03 13:16:50 | 51.65777 | 6.89820 | 111° | 29km/h | 30034m | 6.3m/s | -43.7°C | 0.6% | 12.7hPa | 2.6V | 00:00:00 | 00:00:00 | 00:00:00 | |
| DM0DOS-11 | 2026-09-03 13:16:49 | 51.65795 | 6.89805 | 175° | 27km/h | 30013m | 4.7m/s | -43.7°C | 2.7% | 12.7hPa | 2.6V | 08:30:00 | 02:27:11 | 00:00:00 | i |
| AA1-15 | 2026-09-03 13:16:49 | 51.65788 | 6.89806 | 168° | 31km/h | 30019m | 6.8m/s | -43.6°C | 0% | 12.7hPa | 2.5V | 18:12:15 | 02:27:12 | 00:00:00 | i |
| BIOWL1-15 | 2026-09-03 13:16:46 | 51.65800 | 6.89773 | 69° | 46km/h | 29990m | 7.2m/s | -43.8°C | 0% | 12.7hPa | 2.5V | 18:12:15 | 02:27:07 | 00:00:00 | i |
| DK5PH-5 | 2026-09-03 13:16:46 | 51.65803 | 6.89798 | 103° | 27km/h | 30005m | 5.6m/s | -43.6°C | 2.6% | 12.7hPa | 2.6V | 00:00:00 | 02:27:09 | 00:00:00 | i |
| DL1XH-15 | 2026-09-03 13:16:45 | 51.65795 | 6.89715 | 132° | 18km/h | 29968m | 6.9m/s | -43.9°C | 2.8% | 12.8hPa | 2.6V | 08:30:00 | 02:27:03 | 00:00:00 | i |
| DM0DOS-11 | 2026-09-03 13:16:43 | 51.65802 | 6.89714 | 208° | 16km/h | 29955m | 5.3m/s | -43.8°C | 2.8% | 12.8hPa | 2.5V | 08:30:00 | 02:27:01 | 00:00:00 | i |
| DO2JMG | 2026-09-03 13:16:41 | 51.65793 | 6.89723 | 97° | 29km/h | 29975m | 5.4m/s | -43.9°C | 0% | 12.8hPa | 2.6V | 18:12:15 | 02:27:04 | 00:00:00 | |
| AA1-15 | 2026-09-03 13:16:39 | 51.65798 | 6.89712 | 184° | 18km/h | 29962m | 6.7m/s | -43.9°C | 0% | 12.8hPa | 2.5V | 18:12:15 | 02:27:02 | 00:00:00 | i |
| BIOWL1-15 | 2026-09-03 13:16:34 | 51.65803 | 6.89694 | 80° | 40km/h | 29934m | 6.3m/s | -43.5°C | 0% | 12.8hPa | 2.5V | 18:12:15 | 02:26:57 | 00:00:00 | i |
| DO3DL | 2026-09-03 13:16:32 | 51.65802 | 6.89676 | 89° | 46km/h | 29929m | 4.7m/s | -43.6°C | 0.6% | 12.9hPa | 2.6V | 00:00:00 | 00:00:00 | 00:00:00 | i |
| DL1XH-15 | 2026-09-03 13:16:31 | 51.65808 | 6.89639 | 138° | 15km/h | 29913m | 6.9m/s | -44°C | 2.8% | 12.9hPa | 2.6V | 08:30:00 | 02:26:53 | 00:00:00 | i |
| HSKMA3-T | 2026-09-03 13:16:31 | 51.65805 | 6.89646 | 112° | 27km/h | 29919m | 5.2m/s | -43.8°C | 0% | 12.9hPa | 2.6V | 18:12:15 | 02:26:54 | 00:00:00 | i |
| DO2JMG | 2026-09-03 13:16:30 | 51.65808 | 6.89639 | 139° | 15km/h | 29913m | 6.9m/s | -44°C | 0% | 12.9hPa | 2.6V | 18:12:15 | 02:26:53 | 00:00:00 | i |
| DM0DOS-11 | 2026-09-03 13:16:29 | 51.65811 | 6.89640 | 267° | 9km/h | 29899m | 5.9m/s | -44°C | 2.8% | 12.9hPa | 2.5V | 08:30:00 | 02:26:51 | 00:00:00 | i |
| AA1-15 | 2026-09-03 13:16:28 | 51.65811 | 6.89640 | 268° | 9km/h | 29900m | 5.9m/s | -44°C | 0% | 12.9hPa | 2.5V | 18:12:15 | 02:26:51 | 00:00:00 | i |
| AU51GT2 | 2026-09-03 13:16:26 | 51.65808 | 6.89632 | 86° | 29km/h | 29885m | 6.1m/s | -44.0°C | 0.6% | 12.9hPa | 2.6V | 00:00:00 | 00:00:00 | 00:00:00 | |
| DL1XH-15 | 2026-09-03 13:16:25 | 51.65820 | 6.89551 | 117° | 15km/h | 29858m | 5.8m/s | -44°C | 2.8% | 13hPa | 2.6V | 08:30:00 | 02:26:43 | 00:00:00 | i |
| BIOWL1-15 | 2026-09-03 13:16:23 | 51.65810 | 6.89596 | 101° | 55km/h | 29872m | 5.6m/s | -44.2°C | 0% | 13hPa | 2.5V | 18:12:15 | 02:26:46 | 00:00:00 | i |
| HSKMA3-T | 2026-09-03 13:16:21 | 51.65817 | 6.89560 | 115° | 33km/h | 29863m | 4m/s | -44.1°C | 0% | 13hPa | 2.6V | 18:12:15 | 02:26:44 | 00:00:00 | i |
| DO2JMG | 2026-09-03 13:16:20 | 51.65820 | 6.89551 | 117° | 15km/h | 29858m | 5.8m/s | -44°C | 0% | 13hPa | 2.6V | 18:12:15 | 02:26:43 | 00:00:00 | i |
| AA1-15 | 2026-09-03 13:16:17 | 51.65812 | 6.89556 | 345° | 26km/h | 29839m | 4.6m/s | -43.8°C | 0% | 13.1hPa | 2.5V | 18:12:15 | 02:26:40 | 00:00:00 | i |
| BIOWL1-15 | 2026-09-03 13:16:15 | 51.65805 | 6.89521 | 117° | 46km/h | 29816m | 7.4m/s | -43.6°C | 0% | 13.1hPa | 2.5V | 18:12:15 | 02:26:36 | 00:00:00 | i |
| GOEST3-10 | 2026-09-03 13:16:14 | 51.65802 | 6.89536 | 98° | 35km/h | 29824m | 7.6m/s | -43.5°C | 2.6% | 13.0hPa | 2.6V | 00:00:00 | 02:26:37 | 00:00:00 | |
| DL3AQ-11 | 2026-09-03 13:16:13 | 51.65812 | 6.89505 | 129° | 46km/h | 29810m | 5.2m/s | -43.6°C | 0.6% | 13.1hPa | 2.6V | 00:00:00 | 00:00:00 | 00:00:00 | |
| SONCRA | 2026-09-03 13:16:12 | 51.65818 | 6.89493 | 135° | 33km/h | 29806m | 3.5m/s | -43.7°C | 0.6% | 13.1hPa | 2.6V | 00:00:00 | 00:00:00 | 00:00:00 | |
| DM0DOS-11 | 2026-09-03 13:16:11 | 51.65819 | 6.89482 | 1° | 24km/h | 29788m | 7.5m/s | -43.9°C | 2.7% | 13.1hPa | 2.6V | 08:30:00 | 02:26:31 | 00:00:00 | i |
| DL1XH-15 | 2026-09-03 13:16:11 | 51.65823 | 6.89486 | 129° | 15km/h | 29802m | 4.7m/s | -43.8°C | 2.7% | 13.1hPa | 2.6V | 08:30:00 | 02:26:33 | 00:00:00 | i |
| HSKMA3-T | 2026-09-03 13:16:11 | 51.65818 | 6.89493 | 136° | 33km/h | 29806m | 3.5m/s | -43.7°C | 0% | 13.1hPa | 2.6V | 18:12:15 | 02:26:34 | 00:00:00 | i |
| DL1XH-west | 2026-09-03 13:16:10 | 51.65823 | 6.89486 | 129° | 15km/h | 29802m | 4.7m/s | -43.8°C | 0% | 13.1hPa | 2.6V | 18:12:15 | 02:26:33 | 00:00:00 | i |
| AA1-15 | 2026-09-03 13:16:07 | 51.65812 | 6.89481 | 8° | 35km/h | 29782m | 5.5m/s | -43.7°C | 0% | 13.1hPa | 2.5V | 18:12:15 | 02:26:30 | 00:00:00 | i |
| BIOWL1-15 | 2026-09-03 13:16:05 | 51.65807 | 6.89439 | 145° | 38km/h | 29754m | 6.1m/s | -44.1°C | 0% | 13.2hPa | 2.5V | 18:12:15 | 02:26:25 | 00:00:00 | i |
| DL1XH-15 | 2026-09-03 13:16:05 | 51.65819 | 6.89426 | 134° | 16km/h | 29745m | 4.6m/s | -43.8°C | 2.8% | 13.2hPa | 2.6V | 08:30:00 | 02:26:23 | 00:00:00 | i |
| DO9LL-15 | 2026-09-03 13:16:05 | 51.65798 | 6.89470 | 59° | 27km/h | 29774m | 4.3m/s | -43.7°C | 2.6% | 13.1hPa | 2.6V | 00:00:00 | 02:26:28 | 00:00:00 | i |
| GOEST3-10 | 2026-09-03 13:16:04 | 51.65797 | 6.89460 | 99° | 29km/h | 29769m | 6.4m/s | -43.8°C | 2.7% | 13.1hPa | 2.6V | 00:00:00 | 02:26:27 | 00:00:00 | |
| DO3DL | 2026-09-03 13:16:03 | 51.65797 | 6.89460 | 100° | 27km/h | 29769m | 6.5m/s | -43.8°C | 0.6% | 13.2hPa | 2.6V | 00:00:00 | 00:00:00 | 00:00:00 | |
| DL3AQ-11 | 2026-09-03 13:16:02 | 51.65814 | 6.89432 | 150° | 31km/h | 29749m | 3.9m/s | -43.9°C | 0.6% | 13.2hPa | 2.6V | 00:00:00 | 00:00:00 | 00:00:00 | |
| DM0DOS-11 | 2026-09-03 13:16:01 | 51.65816 | 6.89417 | 26° | 27km/h | 29732m | 7.5m/s | -43.8°C | 2.7% | 13.2hPa | 2.6V | 08:30:00 | 02:26:21 | 00:00:00 | i |
| HSKMA3-T | 2026-09-03 13:16:00 | 51.65819 | 6.89426 | 135° | 16km/h | 29745m | 4.6m/s | -43.8°C | 0% | 13.2hPa | 2.6V | 18:12:15 | 02:26:23 | 00:00:00 | i |
| DO2JMG | 2026-09-03 13:15:59 | 51.65820 | 6.89422 | 56° | 13km/h | 29739m | 6.7m/s | -43.8°C | 0% | 13.2hPa | 2.6V | 18:12:15 | 02:26:22 | 00:00:00 | i |
| AA1-15 | 2026-09-03 13:15:56 | 51.65800 | 6.89403 | 37° | 38km/h | 29721m | 4.1m/s | -43.7°C | 0% | 13.3hPa | 2.5V | 18:12:15 | 02:26:19 | 00:00:00 | i |
| HTAHTA | 2026-09-03 13:15:55 | 51.65793 | 6.89383 | 103° | 24km/h | 29711m | 6.8m/s | -43.7°C | 0.6% | 13.3hPa | 2.6V | 00:00:00 | 00:00:00 | 00:00:00 | |
| DL4BBY-15 | 2026-09-03 13:15:54 | 51.65793 | 6.89383 | 104° | 26km/h | 29711m | 6.8m/s | -43.4°C | 0% | 0hPa | 2.6V | 00:00:00 | 00:00:00 | 00:00:00 | |
| DM0DOS-11 | 2026-09-03 13:15:53 | 51.65818 | 6.89360 | 19° | 22km/h | 29674m | 7.5m/s | -43.8°C | 2.7% | 13.4hPa | 2.6V | 08:30:00 | 02:26:11 | 00:00:00 | i |
| DL1XH-15 | 2026-09-03 13:15:51 | 51.65819 | 6.89363 | 171° | 16km/h | 29686m | 4.5m/s | -43.9°C | 2.7% | 13.3hPa | 2.5V | 08:30:00 | 02:26:13 | 00:00:00 | i |
| BIOWL1-15 | 2026-09-03 13:15:51 | 51.65813 | 6.89364 | 171° | 31km/h | 29691m | 4.3m/s | -43.8°C | 0% | 13.3hPa | 2.5V | 18:12:15 | 02:26:14 | 00:00:00 | i |
| DO2JMG | 2026-09-03 13:15:49 | 51.65821 | 6.89362 | 53° | 4km/h | 29681m | 6.3m/s | -43.9°C | 0% | 13.3hPa | 2.6V | 18:12:15 | 02:26:12 | 00:00:00 | i |
| AA1-15 | 2026-09-03 13:15:45 | 51.65798 | 6.89340 | 55° | 26km/h | 29658m | 4.3m/s | -43.7°C | 0% | 13.4hPa | 2.5V | 18:12:15 | 02:26:08 | 00:00:00 | i |
| WPPR-10 | 2026-09-03 13:15:45 | 51.65796 | 6.89332 | 100° | 18km/h | 29653m | 6.1m/s | -43.7°C | 0.6% | 13.4hPa | 2.6V | 00:00:00 | 00:00:00 | 00:00:00 | i |
| GOEST3-10 | 2026-09-03 13:15:44 | 51.65796 | 6.89332 | 101° | 26km/h | 29653m | 6.1m/s | -43.6°C | 2.7% | 13.4hPa | 2.6V | 00:00:00 | 02:26:07 | 00:00:00 | |
| DM0DOS-11 | 2026-09-03 13:15:43 | 51.65822 | 6.89318 | 45° | 18km/h | 29619m | 7.5m/s | -43.7°C | 2.7% | 13.5hPa | 2.6V | 08:30:00 | 02:26:01 | 00:00:00 | i |
| BIOWL1-15 | 2026-09-03 13:15:41 | 51.65814 | 6.89322 | 184° | 33km/h | 29633m | 4m/s | -43.8°C | 0% | 13.4hPa | 2.5V | 18:12:15 | 02:26:04 | 00:00:00 | i |
| HSKMA3-T | 2026-09-03 13:15:39 | 51.65824 | 6.89322 | 119° | 5km/h | 29625m | 5.5m/s | -43.6°C | 0% | 13.5hPa | 2.6V | 18:12:15 | 02:26:02 | 00:00:00 | i |
| DO2JMG | 2026-09-03 13:15:38 | 51.65822 | 6.89318 | 46° | 18km/h | 29619m | 7.5m/s | -43.7°C | 0% | 13.5hPa | 2.6V | 18:12:15 | 02:26:01 | 00:00:00 | i |
| AA1-15 | 2026-09-03 13:15:35 | 51.65806 | 6.89294 | 55° | 24km/h | 29602m | 3.7m/s | -43.7°C | 0% | 13.5hPa | 2.5V | 18:12:15 | 02:25:58 | 00:00:00 | i |
| BIOWL1-15 | 2026-09-03 13:15:32 | 51.65828 | 6.89295 | 203° | 24km/h | 29574m | 4m/s | -44°C | 0% | 13.6hPa | 2.5V | 18:12:15 | 02:25:53 | 00:00:00 | i |
| DM0DOS-11 | 2026-09-03 13:15:31 | 51.65832 | 6.89294 | 68° | 13km/h | 29562m | 7.5m/s | -44°C | 2.7% | 13.6hPa | 2.6V | 08:30:00 | 02:25:51 | 00:00:00 | i |
| DL1XH-west | 2026-09-03 13:15:28 | 51.65832 | 6.89294 | 68° | 13km/h | 29562m | 7.5m/s | -44°C | 0% | 13.6hPa | 2.6V | 18:12:15 | 02:25:51 | 00:00:00 | i |
| DO2JMG | 2026-09-03 13:15:27 | 51.65830 | 6.89287 | 56° | 29km/h | 29555m | 7.4m/s | -43.8°C | 0% | 13.6hPa | 2.6V | 18:12:15 | 02:25:50 | 00:00:00 | i |
| AA1-15 | 2026-09-03 13:15:24 | 51.65821 | 6.89253 | 101° | 20km/h | 29539m | 5.1m/s | -43.9°C | 0% | 13.6hPa | 2.5V | 18:12:15 | 02:25:47 | 00:00:00 | i |
| DL4BBY-15 | 2026-09-03 13:15:24 | 51.65821 | 6.89253 | 102° | 22km/h | 29540m | 5.0m/s | -43.7°C | 0% | 0hPa | 2.5V | 00:00:00 | 00:00:00 | 00:00:00 | i |
| DJ2DS-15 | 2026-09-03 13:15:23 | 51.65823 | 6.89248 | 161° | 16km/h | 29534m | 6.6m/s | -44.0°C | 0.6% | 13.7hPa | 2.5V | 00:00:00 | 00:00:00 | 00:00:00 | |
| DL3AQ-11 | 2026-09-03 13:15:22 | 51.65834 | 6.89255 | 218° | 29km/h | 29522m | 4.3m/s | -44.0°C | 0.6% | 13.7hPa | 2.5V | 00:00:00 | 00:00:00 | 00:00:00 | |
| DM0DOS-11 | 2026-09-03 13:15:21 | 51.65840 | 6.89265 | 50° | 15km/h | 29507m | 7.2m/s | -43.9°C | 2.7% | 13.7hPa | 2.5V | 08:30:00 | 02:25:41 | 00:00:00 | i |
| BIOWL1-15 | 2026-09-03 13:15:19 | 51.65841 | 6.89267 | 260° | 5km/h | 29513m | 5m/s | -43.9°C | 0% | 13.7hPa | 2.5V | 18:12:15 | 02:25:42 | 00:00:00 | i |
| HSKMA3-T | 2026-09-03 13:15:18 | 51.65840 | 6.89265 | 51° | 15km/h | 29507m | 7.2m/s | -43.9°C | 0% | 13.7hPa | 2.5V | 18:12:15 | 02:25:41 | 00:00:00 | i |
| DO2JMG | 2026-09-03 13:15:17 | 51.65837 | 6.89258 | 61° | 31km/h | 29500m | 7.5m/s | -44°C | 0% | 13.7hPa | 2.6V | 18:12:15 | 02:25:40 | 00:00:00 | i |
| AA1-15 | 2026-09-03 13:15:14 | 51.65831 | 6.89219 | 101° | 20km/h | 29485m | 4.4m/s | -44°C | 0% | 13.7hPa | 2.5V | 18:12:15 | 02:25:37 | 00:00:00 | i |
| EDDB2-11 | 2026-09-03 13:15:14 | 51.65833 | 6.89214 | 160° | 9km/h | 29480m | 6.5m/s | -44.1°C | 0.6% | 13.8hPa | 2.5V | 00:00:00 | 00:00:00 | 00:00:00 | i |
| DM0DOS-11 | 2026-09-03 13:15:13 | 51.65842 | 6.89236 | 89° | 13km/h | 29452m | 6.5m/s | -44.2°C | 2.7% | 13.8hPa | 2.5V | 08:30:00 | 02:25:31 | 00:00:00 | i |
| BIOWL1-15 | 2026-09-03 13:15:10 | 51.65843 | 6.89236 | 89° | 13km/h | 29452m | 6.5m/s | -44.2°C | 0% | 13.8hPa | 2.5V | 18:12:15 | 02:25:31 | 00:00:00 | i |
| DL1XH-west | 2026-09-03 13:15:07 | 51.65843 | 6.89227 | 90° | 29km/h | 29445m | 7.3m/s | -44.3°C | 0% | 13.8hPa | 2.6V | 18:12:15 | 02:25:30 | 00:00:00 | i |
| AA1-15 | 2026-09-03 13:15:04 | 51.65850 | 6.89182 | 169° | 11km/h | 29425m | 6.5m/s | -44.4°C | 0% | 13.9hPa | 2.5V | 18:12:15 | 02:25:26 | 00:00:00 | i |
| DM0DOS-11 | 2026-09-03 13:15:01 | 51.65852 | 6.89211 | 123° | 9km/h | 29398m | 5.3m/s | -44.7°C | 2.8% | 13.9hPa | 2.5V | 08:30:00 | 02:25:21 | 00:00:00 | i |
| BIOWL1-15 | 2026-09-03 13:15:00 | 51.65852 | 6.89211 | 124° | 9km/h | 29398m | 5.3m/s | -44.7°C | 0% | 13.9hPa | 2.5V | 18:12:15 | 02:25:21 | 00:00:00 | i |
| DO2JMG | 2026-09-03 13:14:56 | 51.65858 | 6.89193 | 116° | 40km/h | 29385m | 6.1m/s | -44.8°C | 0% | 13.9hPa | 2.6V | 18:12:15 | 02:25:19 | 00:00:00 | i |
| AA1-15 | 2026-09-03 13:14:53 | 51.65869 | 6.89162 | 139° | 7km/h | 29371m | 6m/s | -44.6°C | 0% | 14hPa | 2.5V | 18:12:15 | 02:25:16 | 00:00:00 | i |
| DL3AQ-11 | 2026-09-03 13:14:53 | 51.65869 | 6.89164 | 286° | 11km/h | 29364m | 7.3m/s | -44.6°C | 0.6% | 14.0hPa | 2.6V | 00:00:00 | 00:00:00 | 00:00:00 | i |
| AU51GT2 | 2026-09-03 13:14:52 | 51.65869 | 6.89164 | 286° | 11km/h | 29364m | 7.3m/s | -44.6°C | 0.6% | 14.0hPa | 2.6V | 00:00:00 | 00:00:00 | 00:00:00 | |
| DL1XH-15 | 2026-09-03 13:14:50 | 51.65862 | 6.89185 | 322° | 11km/h | 29350m | 3.6m/s | -44.6°C | 2.8% | 14hPa | 2.6V | 08:30:00 | 02:25:12 | 00:00:00 | i |
| BIOWL1-15 | 2026-09-03 13:14:47 | 51.65861 | 6.89178 | 112° | 26km/h | 29338m | 8.4m/s | -44.6°C | 0% | 14.1hPa | 2.5V | 18:12:15 | 02:25:10 | 00:00:00 | i |
| DL1XH-west | 2026-09-03 13:14:46 | 51.65865 | 6.89166 | 117° | 40km/h | 29330m | 7.5m/s | -44.6°C | 0% | 14.1hPa | 2.5V | 18:12:15 | 02:25:09 | 00:00:00 | i |
| DL8DAS-14 | 2026-09-03 13:14:45 | 51.65874 | 6.89139 | 120° | 29km/h | 29320m | 3.6m/s | -44.5°C | 0.6% | 14.1hPa | 2.6V | 00:00:00 | 00:00:00 | 00:00:00 | |
| DL1XH-15 | 2026-09-03 13:14:44 | 51.65863 | 6.89144 | 336° | 18km/h | 29295m | 3.2m/s | -44.7°C | 2.8% | 14.2hPa | 2.6V | 08:30:00 | 02:25:02 | 00:00:00 | i |
| AA1-15 | 2026-09-03 13:14:43 | 51.65877 | 6.89132 | 112° | 13km/h | 29315m | 5.1m/s | -44.5°C | 0% | 14.1hPa | 2.6V | 18:12:15 | 02:25:06 | 00:00:00 | i |
| BIOWL1-15 | 2026-09-03 13:14:36 | 51.65876 | 6.89105 | 128° | 31km/h | 29266m | 3.5m/s | -44.8°C | 0% | 14.2hPa | 2.5V | 18:12:15 | 02:24:57 | 00:00:00 | i |
| DL1XH-west | 2026-09-03 13:14:36 | 51.65865 | 6.89129 | 124° | 37km/h | 29276m | 7.5m/s | -44.7°C | 0% | 14.2hPa | 2.5V | 18:12:15 | 02:24:59 | 00:00:00 | i |
| DO2JMG | 2026-09-03 13:14:35 | 51.65870 | 6.89116 | 127° | 42km/h | 29270m | 4.7m/s | -44.7°C | 0% | 14.2hPa | 2.5V | 18:12:15 | 02:24:58 | 00:00:00 | i |
| AA1-15 | 2026-09-03 13:14:32 | 51.65879 | 6.89095 | 357° | 7km/h | 29255m | 7.1m/s | -45.1°C | 0% | 14.2hPa | 2.6V | 18:12:15 | 02:24:55 | 00:00:00 | i |
| BIOWL1-15 | 2026-09-03 13:14:25 | 51.65860 | 6.89074 | 124° | 40km/h | 29215m | 4.4m/s | -45.2°C | 0% | 14.3hPa | 2.6V | 18:12:15 | 02:24:48 | 00:00:00 | i |
| HSKMA3-T | 2026-09-03 13:14:24 | 51.65865 | 6.89062 | 128° | 31km/h | 29211m | 3.3m/s | -45.1°C | 0% | 14.3hPa | 2.7V | 18:12:15 | 02:24:47 | 00:00:00 | i |
| AA1-15 | 2026-09-03 13:14:22 | 51.65869 | 6.89052 | 6° | 7km/h | 29201m | 7.2m/s | -44.9°C | 0% | 14.3hPa | 2.6V | 18:12:15 | 02:24:45 | 00:00:00 | i |
| DL1XH-west | 2026-09-03 13:14:15 | 51.65844 | 6.89016 | 6° | 31km/h | 29129m | 3.3m/s | -45.1°C | 0% | 14.5hPa | 2.6V | 18:12:15 | 02:24:32 | 00:00:00 | i |
| DO2JMG | 2026-09-03 13:14:14 | 51.65858 | 6.89022 | 140° | 31km/h | 29155m | 3.9m/s | -45°C | 0% | 14.4hPa | 2.5V | 18:12:15 | 02:24:37 | 00:00:00 | i |
| HSKMA3-T | 2026-09-03 13:14:13 | 51.65862 | 6.89017 | 137° | 15km/h | 29151m | 4.9m/s | -45.2°C | 0% | 14.5hPa | 2.5V | 18:12:15 | 02:24:36 | 00:00:00 | i |
| AA1-15 | 2026-09-03 13:14:12 | 51.65862 | 6.89014 | 22° | 5km/h | 29146m | 6.4m/s | -45.2°C | 0% | 14.5hPa | 2.6V | 18:12:15 | 02:24:35 | 00:00:00 | i |
| DO2JMG | 2026-09-03 13:14:03 | 51.65854 | 6.88984 | 149° | 11km/h | 29098m | 4.9m/s | -45.2°C | 0% | 14.6hPa | 2.6V | 18:12:15 | 02:24:26 | 00:00:00 | i |
| AA1-15 | 2026-09-03 13:14:02 | 51.65854 | 6.88983 | 11° | 9km/h | 29092m | 6.9m/s | -45.1°C | 0% | 14.6hPa | 2.5V | 18:12:15 | 02:24:25 | 00:00:00 | i |
| DL1XH-west | 2026-09-03 13:13:59 | 51.65832 | 6.88978 | 18° | 35km/h | 29075m | 3.3m/s | -45.2°C | 0% | 14.6hPa | 2.6V | 18:12:15 | 02:24:22 | 00:00:00 | i |
| GOEST3-10 | 2026-09-03 13:13:59 | 51.65832 | 6.88978 | 18° | 26km/h | 29075m | 3.2m/s | -45.1°C | 2.8% | 14.6hPa | 2.5V | 00:00:00 | 00:00:00 | 00:00:00 | i |
| DL8DAS-15 | 2026-09-03 13:13:58 | 51.65832 | 6.88978 | 19° | 35km/h | 29075m | 3.3m/s | -45.2°C | 0.7% | 14.6hPa | 2.5V | 00:00:00 | 00:00:00 | 00:00:00 | |
| DL1XH-15 | 2026-09-03 13:13:57 | 51.65833 | 6.88957 | 169° | 29km/h | 29053m | 4.6m/s | -45.4°C | 3% | 14.7hPa | 2.5V | 08:30:00 | 02:24:18 | 00:00:00 | i |
| DO2JMG | 2026-09-03 13:13:53 | 51.65844 | 6.88959 | 227° | 11km/h | 29045m | 4.8m/s | -45.1°C | 0% | 14.7hPa | 2.6V | 18:12:15 | 02:24:16 | 00:00:00 | i |
| AA1-15 | 2026-09-03 13:13:52 | 51.65843 | 6.88963 | 323° | 13km/h | 29039m | 6.8m/s | -45°C | 0% | 14.7hPa | 2.6V | 18:12:15 | 02:24:15 | 00:00:00 | i |
| BIOWL1-15 | 2026-09-03 13:13:52 | 51.65815 | 6.88946 | 111° | 13km/h | 29013m | 5.9m/s | -45.3°C | 0% | 14.8hPa | 2.5V | 18:12:15 | 02:24:10 | 00:00:00 | i |
| BUE01 | 2026-09-03 13:13:51 | 51.65838 | 6.88965 | 355° | 27km/h | 29033m | 7.3m/s | -45.1°C | 0.6% | 14.7hPa | 2.6V | 00:00:00 | 00:00:00 | 00:00:00 | |
| AU51GT2 | 2026-09-03 13:13:50 | 51.65830 | 6.88964 | 12° | 37km/h | 29026m | 5.4m/s | -45.1°C | 0.7% | 14.7hPa | 2.6V | 00:00:00 | 00:00:00 | 00:00:00 | |
| GOEST3-10 | 2026-09-03 13:13:49 | 51.65821 | 6.88959 | 29° | 24km/h | 29022m | 3.5m/s | -45.2°C | 2.8% | 14.7hPa | 2.6V | 00:00:00 | 00:00:00 | 00:00:00 | i |
| DL1XH-west | 2026-09-03 13:13:49 | 51.65822 | 6.88959 | 28° | 35km/h | 29022m | 3.5m/s | -45.3°C | 0% | 14.8hPa | 2.5V | 18:12:15 | 02:24:12 | 00:00:00 | i |
| DL1XH-15 | 2026-09-03 13:13:47 | 51.65824 | 6.88944 | 197° | 27km/h | 29000m | 5.9m/s | -45.4°C | 2.9% | 14.8hPa | 2.6V | 08:30:00 | 02:24:08 | 00:00:00 | i |
| DL3AQ-11 | 2026-09-03 13:13:46 | 51.65824 | 6.88944 | 197° | 27km/h | 29000m | 5.9m/s | -45.4°C | 0.7% | 14.8hPa | 2.6V | 00:00:00 | 00:00:00 | 00:00:00 | |
| DL9SK-14 | 2026-09-03 13:13:45 | 51.65824 | 6.88944 | 197° | 27km/h | 29000m | 5.9m/s | -45.4°C | 0.7% | 14.8hPa | 2.6V | 00:00:00 | 00:00:00 | 00:00:00 | |
| DO2JMG | 2026-09-03 13:13:43 | 51.65833 | 6.88955 | 257° | 15km/h | 28991m | 4.3m/s | -45.4°C | 0% | 14.8hPa | 2.6V | 18:12:15 | 02:24:06 | 00:00:00 | i |
| HSKMA3-T | 2026-09-03 13:13:42 | 51.65831 | 6.88959 | 332° | 15km/h | 28986m | 5.5m/s | -45.4°C | 0% | 14.8hPa | 2.5V | 18:12:15 | 02:24:05 | 00:00:00 | i |
| DM0DOS-11 | 2026-09-03 13:13:42 | 51.65809 | 6.88941 | 57° | 18km/h | 28966m | 4.5m/s | -45.7°C | 3% | 14.8hPa | 2.6V | 08:30:00 | 02:24:01 | 00:00:00 | i |
| AA1-15 | 2026-09-03 13:13:41 | 51.65827 | 6.88960 | 9° | 24km/h | 28980m | 6.3m/s | -45.5°C | 0% | 14.8hPa | 2.5V | 18:12:15 | 02:24:04 | 00:00:00 | i |
| BIOWL1-15 | 2026-09-03 13:13:38 | 51.65809 | 6.88941 | 57° | 18km/h | 28966m | 4.5m/s | -45.7°C | 0% | 14.8hPa | 2.6V | 18:12:15 | 02:24:01 | 00:00:00 | i |
| DL1XH-15 | 2026-09-03 13:13:37 | 51.65815 | 6.88943 | 225° | 27km/h | 28947m | 5.6m/s | -45.5°C | 3.1% | 14.9hPa | 2.5V | 08:30:00 | 02:23:58 | 00:00:00 | i |
| DO2JMG | 2026-09-03 13:13:32 | 51.65820 | 6.88959 | 21° | 9km/h | 28935m | 6.2m/s | -45.3°C | 0% | 14.9hPa | 2.6V | 18:12:15 | 02:23:55 | 00:00:00 | i |
| DM0DOS-11 | 2026-09-03 13:13:31 | 51.65805 | 6.88925 | 63° | 18km/h | 28913m | 4.5m/s | -45.4°C | 2.8% | 15hPa | 2.5V | 08:30:00 | 02:23:51 | 00:00:00 | i |
| AA1-15 | 2026-09-03 13:13:31 | 51.65817 | 6.88955 | 48° | 24km/h | 28928m | 7.2m/s | -45.3°C | 0% | 14.9hPa | 2.6V | 18:12:15 | 02:23:54 | 00:00:00 | i |
| BIOWL1-15 | 2026-09-03 13:13:28 | 51.65805 | 6.88924 | 63° | 18km/h | 28913m | 4.5m/s | -45.4°C | 0% | 15hPa | 2.5V | 18:12:15 | 02:23:51 | 00:00:00 | i |
| DL1XH-west | 2026-09-03 13:13:27 | 51.65804 | 6.88921 | 91° | 2km/h | 28908m | 6.4m/s | -45.5°C | 0% | 15hPa | 2.6V | 18:12:15 | 02:23:50 | 00:00:00 | i |
| DF5WG-10 | 2026-09-03 13:13:27 | 51.65804 | 6.88921 | 92° | 16km/h | 28908m | 6.4m/s | -45.4°C | 2.9% | 14.9hPa | 2.5V | 00:00:00 | 02:23:50 | 00:00:00 | i |
| DO3DL | 2026-09-03 13:13:26 | 51.65804 | 6.88921 | 0° | 0km/h | 28908m | 6.4m/s | -45.5°C | 0.7% | 15.0hPa | 2.5V | 00:00:00 | 00:00:00 | 00:00:00 | |
| DD1CC1-15 | 2026-09-03 13:13:25 | 51.65805 | 6.88924 | 246° | 16km/h | 28901m | 7.3m/s | -45.5°C | 0.7% | 15.0hPa | 2.5V | 00:00:00 | 00:00:00 | 00:00:00 | |
| DL4BBY-15 | 2026-09-03 13:13:24 | 51.65809 | 6.88942 | 254° | 22km/h | 28891m | 2.8m/s | -45.1°C | 0% | 0hPa | 2.5V | 00:00:00 | 00:00:00 | 00:00:00 | |
| DM0DOS-11 | 2026-09-03 13:13:23 | 51.65797 | 6.88906 | 65° | 22km/h | 28860m | 4.3m/s | -45.6°C | 3% | 15.1hPa | 2.5V | 08:30:00 | 02:23:41 | 00:00:00 | i |
| DO2JMG | 2026-09-03 13:13:21 | 51.65807 | 6.88943 | 65° | 27km/h | 28876m | 7.2m/s | -45.3°C | 0% | 15.1hPa | 2.6V | 18:12:15 | 02:23:44 | 00:00:00 | i |
| AA1-15 | 2026-09-03 13:13:20 | 51.65804 | 6.88931 | 69° | 38km/h | 28869m | 6m/s | -45.4°C | 0% | 15.1hPa | 2.6V | 18:12:15 | 02:23:43 | 00:00:00 | i |
| BIOWL1-15 | 2026-09-03 13:13:18 | 51.65798 | 6.88906 | 66° | 22km/h | 28860m | 4.3m/s | -45.6°C | 0% | 15.1hPa | 2.5V | 18:12:15 | 02:23:41 | 00:00:00 | i |
| DL1XH-west | 2026-09-03 13:13:16 | 51.65795 | 6.88904 | 273° | 15km/h | 28848m | 7.4m/s | -45.6°C | 0% | 15.2hPa | 2.6V | 18:12:15 | 02:23:39 | 00:00:00 | i |
| DK5PH-5 | 2026-09-03 13:13:16 | 51.65795 | 6.88904 | 273° | 22km/h | 28848m | 7.3m/s | -45.6°C | 3.0% | 15.1hPa | 2.6V | 00:00:00 | 02:23:39 | 08:30:00 | i |
| GOEST3-10 | 2026-09-03 13:13:14 | 51.65796 | 6.88922 | 270° | 22km/h | 28837m | 3.4m/s | -45.5°C | 3.0% | 15.1hPa | 2.5V | 00:00:00 | 02:23:37 | 00:00:00 | |
| DO3MHA-11 | 2026-09-03 13:13:13 | 51.65795 | 6.88930 | 289° | 18km/h | 28833m | 4.5m/s | -45.5°C | 2.9% | 15.1hPa | 2.5V | 00:00:00 | 02:23:36 | 00:00:00 | |
| DL8DAS-14 | 2026-09-03 13:13:12 | 51.65791 | 6.88925 | 59° | 26km/h | 28821m | 7.5m/s | -45.9°C | 0.7% | 15.2hPa | 2.5V | 00:00:00 | 00:00:00 | 00:00:00 | |
| DM0DOS-11 | 2026-09-03 13:13:11 | 51.65778 | 6.88889 | 51° | 24km/h | 28805m | 4.4m/s | -45.8°C | 3% | 15.2hPa | 2.5V | 08:30:00 | 02:23:31 | 00:00:00 | i |
| DO2JMG | 2026-09-03 13:13:11 | 51.65791 | 6.88925 | 59° | 26km/h | 28821m | 7.5m/s | -45.9°C | 0% | 15.2hPa | 2.6V | 18:12:15 | 02:23:34 | 00:00:00 | i |
| AA1-15 | 2026-09-03 13:13:09 | 51.65783 | 6.88899 | 61° | 38km/h | 28809m | 3.6m/s | -45.9°C | 0% | 15.2hPa | 2.6V | 18:12:15 | 02:23:32 | 00:00:00 | i |
| BIOWL1-15 | 2026-09-03 13:13:08 | 51.65779 | 6.88889 | 51° | 24km/h | 28805m | 4.4m/s | -45.8°C | 0% | 15.2hPa | 2.5V | 18:12:15 | 02:23:31 | 00:00:00 | i |
| DL1XH-15 | 2026-09-03 13:13:07 | 51.65772 | 6.88895 | 276° | 27km/h | 28786m | 6.7m/s | -45.7°C | 3.1% | 15.3hPa | 2.6V | 08:30:00 | 02:23:28 | 00:00:00 | i |
| DL1XH-west | 2026-09-03 13:13:06 | 51.65773 | 6.88887 | 296° | 16km/h | 28793m | 7.6m/s | -45.8°C | 0% | 15.2hPa | 2.6V | 18:12:15 | 02:23:29 | 00:00:00 | i |
| DL3AQ-11 | 2026-09-03 13:13:06 | 51.65772 | 6.88895 | 276° | 26km/h | 28786m | 6.7m/s | -45.7°C | 0.7% | 15.3hPa | 2.6V | 00:00:00 | 00:00:00 | 00:00:00 | i |
| DO9LL-15 | 2026-09-03 13:13:05 | 51.65772 | 6.88895 | 277° | 20km/h | 28786m | 6.6m/s | -45.7°C | 3.1% | 15.2hPa | 2.6V | 00:00:00 | 02:23:28 | 00:00:00 | |
| GOEST3-10 | 2026-09-03 13:13:04 | 51.65771 | 6.88906 | 274° | 22km/h | 28781m | 3.8m/s | -45.6°C | 3.1% | 15.2hPa | 2.6V | 00:00:00 | 02:23:27 | 00:00:00 | |
| DM0DOS-11 | 2026-09-03 13:13:03 | 51.65757 | 6.88876 | 61° | 22km/h | 28750m | 4.4m/s | -45.7°C | 2.9% | 15.3hPa | 2.6V | 08:30:00 | 02:23:21 | 00:00:00 | i |
| DO2JMG | 2026-09-03 13:13:01 | 51.65767 | 6.88910 | 63° | 24km/h | 28764m | 7.1m/s | -45.7°C | 0% | 15.3hPa | 2.6V | 18:12:15 | 02:23:24 | 00:00:00 | i |
| HSKMA3-T | 2026-09-03 13:12:59 | 51.65760 | 6.88886 | 67° | 35km/h | 28753m | 2.9m/s | -45.7°C | 0% | 15.3hPa | 2.6V | 18:12:15 | 02:23:22 | 00:00:00 | |
| BIOWL1-15 | 2026-09-03 13:12:57 | 51.65755 | 6.88871 | 21° | 7km/h | 28744m | 6.5m/s | -45.7°C | 0% | 15.4hPa | 2.5V | 18:12:15 | 02:23:20 | 00:00:00 | i |
| DL1XH-west | 2026-09-03 13:12:56 | 51.65754 | 6.88874 | 280° | 15km/h | 28737m | 7.9m/s | -45.7°C | 0% | 15.4hPa | 2.5V | 18:12:15 | 02:23:19 | 00:00:00 | i |
| DO2JMG | 2026-09-03 13:12:51 | 51.65749 | 6.88896 | 59° | 26km/h | 28708m | 7.1m/s | -45.5°C | 0% | 15.4hPa | 2.6V | 18:12:15 | 02:23:14 | 00:00:00 | i |
| BIOWL1-15 | 2026-09-03 13:12:49 | 51.65740 | 6.88856 | 112° | 5km/h | 28687m | 6m/s | -45.8°C | 0% | 15.5hPa | 2.6V | 18:12:15 | 02:23:10 | 00:00:00 | i |
| AA1-15 | 2026-09-03 13:12:48 | 51.65741 | 6.88861 | 79° | 22km/h | 28692m | 4.7m/s | -45.8°C | 0% | 15.5hPa | 2.6V | 18:12:15 | 02:23:11 | 00:00:00 | i |
| DL1XH-west | 2026-09-03 13:12:46 | 51.65741 | 6.88857 | 241° | 13km/h | 28680m | 6.9m/s | -45.7°C | 0% | 15.5hPa | 2.6V | 18:12:15 | 02:23:09 | 00:00:00 | i |
| DO2JMG | 2026-09-03 13:12:40 | 51.65743 | 6.88866 | 73° | 33km/h | 28646m | 5.9m/s | -46.1°C | 0% | 15.6hPa | 2.6V | 18:12:15 | 02:23:03 | 00:00:00 | i |
| DM0DOS-11 | 2026-09-03 13:12:39 | 51.65738 | 6.88845 | 58° | 16km/h | 28637m | 4.9m/s | -45.9°C | 3% | 15.6hPa | 2.5V | 08:30:00 | 02:23:01 | 00:00:00 | i |
| AA1-15 | 2026-09-03 13:12:38 | 51.65738 | 6.88845 | 58° | 16km/h | 28637m | 4.9m/s | -45.9°C | 0% | 15.6hPa | 2.5V | 18:12:15 | 02:23:01 | 00:00:00 | i |
| HSKMA3-T | 2026-09-03 13:12:38 | 51.65736 | 6.88843 | 344° | 7km/h | 28631m | 6.6m/s | -45.8°C | 0% | 15.6hPa | 2.5V | 18:12:15 | 02:23:00 | 00:00:00 | i |
| BIOWL1-15 | 2026-09-03 13:12:36 | 51.65738 | 6.88878 | 94° | 4km/h | 28602m | 6.5m/s | -45.5°C | 0% | 15.7hPa | 2.5V | 18:12:15 | 02:22:55 | 00:00:00 | i |
| DL1XH-west | 2026-09-03 13:12:35 | 51.65735 | 6.88856 | 265° | 29km/h | 28618m | 6m/s | -45.8°C | 0% | 15.7hPa | 2.6V | 18:12:15 | 02:22:58 | 00:00:00 | i |
| DO9LL-15 | 2026-09-03 13:12:35 | 51.65735 | 6.88856 | 266° | 18km/h | 28618m | 5.9m/s | -45.7°C | 3.0% | 15.6hPa | 2.6V | 00:00:00 | 02:22:58 | 00:00:00 | i |
| DO3MHA-11 | 2026-09-03 13:12:34 | 51.65736 | 6.88868 | 261° | 18km/h | 28613m | 3.9m/s | -45.7°C | 3.0% | 15.6hPa | 2.6V | 00:00:00 | 02:22:57 | 00:00:00 | |
| DM0DOS-11 | 2026-09-03 13:12:33 | 51.65735 | 6.88843 | 88° | 13km/h | 28580m | 4.8m/s | -45.6°C | 2.9% | 15.8hPa | 2.6V | 08:30:00 | 02:22:51 | 00:00:00 | i |
| DO2JMG | 2026-09-03 13:12:30 | 51.65736 | 6.88863 | 81° | 31km/h | 28589m | 5.8m/s | -45.5°C | 0% | 15.8hPa | 2.6V | 18:12:15 | 02:22:53 | 00:00:00 | i |
| AA1-15 | 2026-09-03 13:12:28 | 51.65735 | 6.88843 | 88° | 13km/h | 28580m | 4.8m/s | -45.6°C | 0% | 15.8hPa | 2.6V | 18:12:15 | 02:22:51 | 00:00:00 | i |
| HSKMA3-T | 2026-09-03 13:12:27 | 51.65735 | 6.88841 | 239° | 5km/h | 28574m | 6.7m/s | -45.7°C | 0% | 15.8hPa | 2.5V | 18:12:15 | 02:22:50 | 00:00:00 | i |
| DL1XH-15 | 2026-09-03 13:12:27 | 51.65740 | 6.88869 | 253° | 29km/h | 28555m | 4.4m/s | -45.6°C | 3% | 15.8hPa | 2.6V | 08:30:00 | 02:22:47 | 00:00:00 | i |
| BIOWL1-15 | 2026-09-03 13:12:26 | 51.65736 | 6.88846 | 254° | 22km/h | 28567m | 7.5m/s | -45.7°C | 0% | 15.8hPa | 2.5V | 18:12:15 | 02:22:49 | 00:00:00 | i |
| DL1XH-west | 2026-09-03 13:12:25 | 51.65738 | 6.88857 | 256° | 33km/h | 28560m | 6.3m/s | -45.7°C | 0% | 15.8hPa | 2.6V | 18:12:15 | 02:22:48 | 00:00:00 | i |
| DL4BBY-15 | 2026-09-03 13:12:24 | 51.65740 | 6.88869 | 254° | 20km/h | 28555m | 4.4m/s | -45.4°C | 0% | 0hPa | 2.6V | 00:00:00 | 00:00:00 | 00:00:00 | |
| DJ2DS-15 | 2026-09-03 13:12:23 | 51.65742 | 6.88878 | 246° | 16km/h | 28550m | 4.8m/s | -45.6°C | 0.7% | 15.8hPa | 2.6V | 00:00:00 | 00:00:00 | 00:00:00 | |
| DL8DAS-15 | 2026-09-03 13:12:22 | 51.65742 | 6.88878 | 247° | 16km/h | 28550m | 4.8m/s | -45.6°C | 0.7% | 15.8hPa | 2.6V | 00:00:00 | 00:00:00 | 00:00:00 | |
| DM0DOS-11 | 2026-09-03 13:12:20 | 51.65744 | 6.88861 | 57° | 4km/h | 28522m | 5.5m/s | -45.7°C | 3% | 15.9hPa | 2.6V | 08:30:00 | 02:22:41 | 00:00:00 | i |
| DO2JMG | 2026-09-03 13:12:19 | 51.65744 | 6.88864 | 87° | 16km/h | 28527m | 4.6m/s | -45.8°C | 0% | 15.8hPa | 2.5V | 18:12:15 | 02:22:42 | 00:00:00 | i |
| AA1-15 | 2026-09-03 13:12:18 | 51.65744 | 6.88861 | 57° | 4km/h | 28522m | 5.5m/s | -45.7°C | 0% | 15.9hPa | 2.6V | 18:12:15 | 02:22:41 | 00:00:00 | i |
| HSKMA3-T | 2026-09-03 13:12:16 | 51.65743 | 6.88871 | 275° | 27km/h | 28509m | 6.6m/s | -45.6°C | 0% | 15.9hPa | 2.6V | 18:12:15 | 02:22:39 | 00:00:00 | i |
| DL1XH-west | 2026-09-03 13:12:15 | 51.65742 | 6.88884 | 272° | 35km/h | 28503m | 4.8m/s | -45.6°C | 0% | 15.9hPa | 2.6V | 18:12:15 | 02:22:38 | 00:00:00 | i |
| GOEST3-10 | 2026-09-03 13:12:14 | 51.65742 | 6.88897 | 272° | 18km/h | 28499m | 4.6m/s | -45.5°C | 3.0% | 15.9hPa | 2.5V | 00:00:00 | 02:22:37 | 00:00:00 | |
| DL3AQ-11 | 2026-09-03 13:12:13 | 51.65743 | 6.88908 | 164° | 5km/h | 28488m | 6.7m/s | -45.6°C | 0.7% | 16.0hPa | 2.5V | 00:00:00 | 00:00:00 | 00:00:00 | |
| DO3DL | 2026-09-03 13:12:12 | 51.65743 | 6.88908 | 165° | 5km/h | 28488m | 6.7m/s | -45.6°C | 0.7% | 16.0hPa | 2.5V | 00:00:00 | 00:00:00 | 00:00:00 | |
| DL8DAS-15 | 2026-09-03 13:12:11 | 51.65743 | 6.88908 | 165° | 5km/h | 28488m | 6.7m/s | -45.6°C | 0.7% | 16.0hPa | 2.5V | 00:00:00 | 00:00:00 | 00:00:00 | |
| DM0DOS-11 | 2026-09-03 13:12:10 | 51.65753 | 6.88885 | 164° | 9km/h | 28465m | 5.3m/s | -45.3°C | 2.9% | 16hPa | 2.5V | 08:30:00 | 02:22:31 | 00:00:00 | i |
| DO2JMG | 2026-09-03 13:12:09 | 51.65750 | 6.88889 | 125° | 20km/h | 28470m | 4.4m/s | -45.3°C | 0% | 16hPa | 2.5V | 18:12:15 | 02:22:32 | 00:00:00 | i |
| GOEST3-10 | 2026-09-03 13:12:09 | 51.65750 | 6.88889 | 126° | 20km/h | 28470m | 4.3m/s | -45.3°C | 2.9% | 16.0hPa | 2.5V | 00:00:00 | 00:00:00 | 00:00:00 | i |
| DD1CC8 | 2026-09-03 13:12:08 | 51.65753 | 6.88885 | 164° | 7km/h | 28465m | 5.3m/s | -45.3°C | 0.7% | 16.0hPa | 2.5V | 00:00:00 | 00:00:00 | 00:00:00 | |
| DL1XH-15 | 2026-09-03 13:12:07 | 51.65751 | 6.88917 | 285° | 26km/h | 28441m | 4.2m/s | -45.3°C | 2.9% | 16.1hPa | 2.5V | 08:30:00 | 02:22:27 | 00:00:00 | i |
| AA1-15 | 2026-09-03 13:12:07 | 51.65754 | 6.88887 | 258° | 13km/h | 28459m | 6.9m/s | -45.4°C | 0% | 16hPa | 2.6V | 18:12:15 | 02:22:30 | 00:00:00 | i |
| HSKMA3-T | 2026-09-03 13:12:06 | 51.65753 | 6.88906 | 282° | 33km/h | 28446m | 5.5m/s | -45.3°C | 0% | 16.1hPa | 2.6V | 18:12:15 | 02:22:28 | 00:00:00 | i |
| DL1XH-west | 2026-09-03 13:12:04 | 51.65751 | 6.88917 | 285° | 26km/h | 28441m | 4.2m/s | -45.3°C | 0% | 16.1hPa | 2.5V | 18:12:15 | 02:22:27 | 00:00:00 | i |
| DO3MHA-11 | 2026-09-03 13:12:03 | 51.65751 | 6.88924 | 269° | 22km/h | 28437m | 5.0m/s | -45.4°C | 2.9% | 16.1hPa | 2.5V | 00:00:00 | 02:22:26 | 00:00:00 | |
| DL3AQ-11 | 2026-09-03 13:12:02 | 51.65756 | 6.88920 | 141° | 27km/h | 28424m | 6.8m/s | -45.5°C | 0.7% | 16.1hPa | 2.5V | 00:00:00 | 00:00:00 | 00:00:00 | |
| DO1YAY-16 | 2026-09-03 13:12:01 | 51.65756 | 6.88920 | 141° | 27km/h | 28424m | 6.8m/s | -45.5°C | 0.7% | 16.1hPa | 2.5V | 00:00:00 | 00:00:00 | 00:00:00 | |
| DM0DOS-11 | 2026-09-03 13:11:59 | 51.65777 | 6.88901 | 178° | 22km/h | 28410m | 5.1m/s | -45.5°C | 3% | 16.1hPa | 2.5V | 08:30:00 | 02:22:21 | 00:00:00 | i |
| DO2JMG | 2026-09-03 13:11:58 | 51.65777 | 6.88901 | 179° | 22km/h | 28410m | 5.1m/s | -45.5°C | 0% | 16.1hPa | 2.5V | 18:12:15 | 02:22:21 | 00:00:00 | i |
| AA1-15 | 2026-09-03 13:11:56 | 51.65782 | 6.88912 | 276° | 26km/h | 28396m | 7.9m/s | -45.6°C | 0% | 16.2hPa | 2.5V | 18:12:15 | 02:22:19 | 00:00:00 | i |
| BIOWL1-15 | 2026-09-03 13:11:55 | 51.65773 | 6.88939 | 313° | 11km/h | 28380m | 4.2m/s | -45.8°C | 0% | 16.2hPa | 2.6V | 18:12:15 | 02:22:16 | 00:00:00 | i |
| DL1XH-west | 2026-09-03 13:11:54 | 51.65776 | 6.88933 | 310° | 27km/h | 28384m | 4m/s | -45.7°C | 0% | 16.2hPa | 2.6V | 18:12:15 | 02:22:17 | 00:00:00 | i |
| DL4BBY-15 | 2026-09-03 13:11:54 | 51.65776 | 6.88933 | 310° | 24km/h | 28384m | 3.9m/s | -45.5°C | 0% | 0hPa | 2.6V | 00:00:00 | 00:00:00 | 00:00:00 | i |
| GOEST3-10 | 2026-09-03 13:11:53 | 51.65773 | 6.88939 | 313° | 22km/h | 28381m | 4.1m/s | -45.7°C | 3.0% | 16.2hPa | 2.6V | 00:00:00 | 02:22:16 | 00:00:00 | |
| DF5WG-10 | 2026-09-03 13:11:52 | 51.65773 | 6.88940 | 159° | 15km/h | 28375m | 6.2m/s | -45.8°C | 3.1% | 16.2hPa | 2.6V | 00:00:00 | 02:22:15 | 00:00:00 | |
| DO3DL | 2026-09-03 13:11:51 | 51.65773 | 6.88940 | 160° | 9km/h | 28375m | 6.2m/s | -45.9°C | 0.8% | 16.3hPa | 2.6V | 00:00:00 | 00:00:00 | 00:00:00 | |
| DM0DOS-11 | 2026-09-03 13:11:49 | 51.65805 | 6.88926 | 183° | 31km/h | 28351m | 4.3m/s | -45.9°C | 3.1% | 16.3hPa | 2.6V | 08:30:00 | 02:22:11 | 00:00:00 | i |
| DO2JMG | 2026-09-03 13:11:47 | 51.65811 | 6.88928 | 211° | 18km/h | 28346m | 6.3m/s | -45.9°C | 0% | 16.3hPa | 2.6V | 18:12:15 | 02:22:10 | 00:00:00 | i |
| AA1-15 | 2026-09-03 13:11:45 | 51.65811 | 6.88939 | 316° | 20km/h | 28332m | 6.9m/s | -45.9°C | 0% | 16.4hPa | 2.5V | 18:12:15 | 02:22:08 | 00:00:00 | i |
| DL1XH-west | 2026-09-03 13:11:43 | 51.65804 | 6.88945 | 353° | 5km/h | 28321m | 4.5m/s | -45.6°C | 0% | 16.4hPa | 2.6V | 18:12:15 | 02:22:06 | 00:00:00 | i |
| BIOWL1-15 | 2026-09-03 13:11:42 | 51.65830 | 6.88940 | 182° | 46km/h | 28298m | 4.5m/s | -45.3°C | 0% | 16.4hPa | 2.6V | 18:12:15 | 02:22:02 | 00:00:00 | i |
| DO2JMG | 2026-09-03 13:11:37 | 51.65847 | 6.88946 | 213° | 24km/h | 28288m | 6.1m/s | -45.2°C | 0% | 16.4hPa | 2.6V | 18:12:15 | 02:22:00 | 00:00:00 | i |
| AA1-15 | 2026-09-03 13:11:35 | 51.65849 | 6.88955 | 319° | 15km/h | 28274m | 6.7m/s | -45.2°C | 0% | 16.5hPa | 2.5V | 18:12:15 | 02:21:58 | 00:00:00 | |
| DL1XH-west | 2026-09-03 13:11:33 | 51.65845 | 6.88957 | 78° | 5km/h | 28263m | 5.4m/s | -45°C | 0% | 16.6hPa | 2.5V | 18:12:15 | 02:21:56 | 00:00:00 | i |
| DO2JMG | 2026-09-03 13:11:27 | 51.65886 | 6.88948 | 207° | 13km/h | 28229m | 6.4m/s | -45.3°C | 0% | 16.6hPa | 2.5V | 18:12:15 | 02:21:50 | 00:00:00 | i |
| AA1-15 | 2026-09-03 13:11:25 | 51.65885 | 6.88952 | 352° | 15km/h | 28216m | 6.1m/s | -45.5°C | 0% | 16.6hPa | 2.6V | 18:12:15 | 02:21:48 | 00:00:00 | i |
| DL4BBY-15 | 2026-09-03 13:11:24 | 51.65882 | 6.88952 | 12° | 20km/h | 28210m | 4.0m/s | -45.3°C | 0% | 0hPa | 2.5V | 00:00:00 | 00:00:00 | 00:00:00 | |
| DL1XH-15 | 2026-09-03 13:11:23 | 51.65919 | 6.88955 | 191° | 26km/h | 28177m | 5.3m/s | -45.5°C | 3.1% | 16.7hPa | 2.5V | 08:30:00 | 02:21:41 | 00:00:00 | i |
| DL1XH-west | 2026-09-03 13:11:22 | 51.65884 | 6.88950 | 174° | 18km/h | 28200m | 6.6m/s | -45.6°C | 0% | 16.7hPa | 2.5V | 18:12:15 | 02:21:45 | 00:00:00 | i |
| DO2JMG | 2026-09-03 13:11:17 | 51.65923 | 6.88957 | 196° | 9km/h | 28171m | 7m/s | -45.6°C | 0% | 16.8hPa | 2.5V | 18:12:15 | 02:21:40 | 00:00:00 | i |
| AA1-15 | 2026-09-03 13:11:15 | 51.65920 | 6.88956 | 17° | 18km/h | 28157m | 5.8m/s | -45.5°C | 0% | 16.8hPa | 2.6V | 18:12:15 | 02:21:38 | 00:00:00 | i |
| HSKMA3-T | 2026-09-03 13:11:12 | 51.65917 | 6.88950 | 175° | 18km/h | 28141m | 7.3m/s | -45.3°C | 0% | 16.8hPa | 2.5V | 18:12:15 | 02:21:35 | 00:00:00 | i |
| DL1XH-west | 2026-09-03 13:11:11 | 51.65924 | 6.88950 | 184° | 33km/h | 28134m | 7.4m/s | -45.3°C | 0% | 16.9hPa | 2.5V | 18:12:15 | 02:21:34 | 00:00:00 | i |
| BIOWL1-15 | 2026-09-03 13:11:07 | 51.65954 | 6.88955 | 169° | 5km/h | 28111m | 6.9m/s | -45.1°C | 0% | 16.9hPa | 2.6V | 18:12:15 | 02:21:30 | 00:00:00 | i |
| AA1-15 | 2026-09-03 13:11:04 | 51.65945 | 6.88948 | 25° | 15km/h | 28093m | 4.2m/s | -45.2°C | 0% | 16.9hPa | 2.5V | 18:12:15 | 02:21:27 | 00:00:00 | i |
| DL1XH-west | 2026-09-03 13:11:01 | 51.65951 | 6.88948 | 191° | 31km/h | 28074m | 6.8m/s | -45.1°C | 0% | 17hPa | 2.6V | 18:12:15 | 02:21:24 | 00:00:00 | i |
| DO2JMG | 2026-09-03 13:10:56 | 51.65973 | 6.88948 | 34° | 20km/h | 28044m | 7.2m/s | -45.1°C | 0% | 17.1hPa | 2.6V | 18:12:15 | 02:21:19 | 00:00:00 | i |
| AA1-15 | 2026-09-03 13:10:53 | 51.65960 | 6.88935 | 49° | 7km/h | 28028m | 5.6m/s | -45.1°C | 0% | 17.1hPa | 2.6V | 18:12:15 | 02:21:16 | 00:00:00 | |
| DL1XH-west | 2026-09-03 13:10:51 | 51.65964 | 6.88935 | 192° | 24km/h | 28015m | 6.7m/s | -45.1°C | 0% | 17.2hPa | 2.6V | 18:12:15 | 02:21:14 | 00:00:00 | i |
| BIOWL1-15 | 2026-09-03 13:10:46 | 51.65977 | 6.88935 | 29° | 22km/h | 27986m | 6.7m/s | -45.5°C | 0% | 17.2hPa | 2.6V | 18:12:15 | 02:21:09 | 00:00:00 | i |
| DO2JMG | 2026-09-03 13:10:45 | 51.65972 | 6.88930 | 31° | 27km/h | 27980m | 4m/s | -45.5°C | 0% | 17.2hPa | 2.6V | 18:12:15 | 02:21:08 | 00:00:00 | i |
| BUE01 | 2026-09-03 13:10:45 | 51.65967 | 6.88925 | 40° | 18km/h | 27976m | 4.8m/s | -45.5°C | 0.7% | 17.2hPa | 2.5V | 00:00:00 | 00:00:00 | 00:00:00 | i |
| AU51GT2 | 2026-09-03 13:10:44 | 51.65967 | 6.88925 | 40° | 18km/h | 27976m | 4.8m/s | -45.5°C | 0.7% | 17.2hPa | 2.5V | 00:00:00 | 00:00:00 | 00:00:00 | |
| AA1-15 | 2026-09-03 13:10:43 | 51.65965 | 6.88921 | 93° | 7km/h | 27970m | 6.6m/s | -45.5°C | 0% | 17.2hPa | 2.5V | 18:12:15 | 02:21:06 | 00:00:00 | i |
| DM0DOS-11 | 2026-09-03 13:10:42 | 51.65983 | 6.88896 | 33° | 29km/h | 27927m | 6.2m/s | -45.4°C | 2.9% | 17.4hPa | 2.5V | 08:30:00 | 02:20:59 | 00:00:00 | i |
| HSKMA3-T | 2026-09-03 13:10:41 | 51.65973 | 6.88917 | 174° | 27km/h | 27956m | 6.9m/s | -45.3°C | 0% | 17.3hPa | 2.6V | 18:12:15 | 02:21:04 | 00:00:00 | i |
| DL1XH-15 | 2026-09-03 13:10:40 | 51.65980 | 6.88915 | 172° | 29km/h | 27950m | 4.9m/s | -45.1°C | 2.9% | 17.3hPa | 2.6V | 08:30:00 | 02:21:03 | 00:00:00 | i |
| DL1XH-west | 2026-09-03 13:10:40 | 51.65980 | 6.88915 | 172° | 29km/h | 27950m | 4.9m/s | -45.1°C | 0% | 17.3hPa | 2.6V | 18:12:15 | 02:21:03 | 00:00:00 | i |
| BIOWL1-15 | 2026-09-03 13:10:36 | 51.65983 | 6.88896 | 33° | 29km/h | 27927m | 6.2m/s | -45.4°C | 0% | 17.4hPa | 2.5V | 18:12:15 | 02:20:59 | 00:00:00 | i |
| DB0UT-7 | 2026-09-03 13:10:36 | 51.65983 | 6.88895 | 34° | 20km/h | 27927m | 6.1m/s | -45.3°C | 2.9% | 17.4hPa | 2.6V | 00:00:00 | 00:00:00 | 00:00:00 | i |
| DL1XH-15 | 2026-09-03 13:10:35 | 51.65979 | 6.88892 | 186° | 20km/h | 27893m | 4.1m/s | -45.3°C | 2.9% | 17.4hPa | 2.6V | 08:30:00 | 02:20:53 | 00:00:00 | i |
| DO2JMG | 2026-09-03 13:10:34 | 51.65971 | 6.88887 | 13° | 18km/h | 27918m | 5.3m/s | -45.5°C | 0% | 17.4hPa | 2.6V | 18:12:15 | 02:20:57 | 00:00:00 | i |
| AA1-15 | 2026-09-03 13:10:32 | 51.65970 | 6.88888 | 204° | 13km/h | 27904m | 7.2m/s | -45.3°C | 0% | 17.4hPa | 2.5V | 18:12:15 | 02:20:55 | 00:00:00 | i |
| DM0DOS-11 | 2026-09-03 13:10:31 | 51.65970 | 6.88888 | 7° | 35km/h | 27870m | 5.7m/s | -45.7°C | 3% | 17.5hPa | 2.5V | 08:30:00 | 02:20:49 | 00:00:00 | i |
| HSKMA3-T | 2026-09-03 13:10:31 | 51.65974 | 6.88891 | 194° | 24km/h | 27898m | 5.9m/s | -45.3°C | 0% | 17.4hPa | 2.5V | 18:12:15 | 02:20:54 | 00:00:00 | i |
| DL1XH-west | 2026-09-03 13:10:30 | 51.65979 | 6.88892 | 186° | 20km/h | 27893m | 4.1m/s | -45.3°C | 0% | 17.4hPa | 2.6V | 18:12:15 | 02:20:53 | 00:00:00 | i |
| BIOWL1-15 | 2026-09-03 13:10:26 | 51.65970 | 6.88888 | 7° | 35km/h | 27870m | 5.7m/s | -45.7°C | 0% | 17.5hPa | 2.5V | 18:12:15 | 02:20:49 | 00:00:00 | i |
| DL3AQ-11 | 2026-09-03 13:10:26 | 51.65962 | 6.88887 | 3° | 29km/h | 27865m | 4.0m/s | -45.7°C | 0.7% | 17.5hPa | 2.6V | 00:00:00 | 00:00:00 | 00:00:00 | i |
| DL1XH-15 | 2026-09-03 13:10:24 | 51.65972 | 6.88883 | 128° | 13km/h | 27832m | 5.4m/s | -45.5°C | 3% | 17.6hPa | 2.6V | 08:30:00 | 02:20:42 | 00:00:00 | i |
| DO2JMG | 2026-09-03 13:10:23 | 51.65954 | 6.88887 | 271° | 2km/h | 27854m | 6.8m/s | -45.6°C | 0% | 17.6hPa | 2.6V | 18:12:15 | 02:20:46 | 00:00:00 | i |
| AA1-15 | 2026-09-03 13:10:22 | 51.65956 | 6.88888 | 184° | 16km/h | 27847m | 6.8m/s | -45.6°C | 0% | 17.6hPa | 2.5V | 18:12:15 | 02:20:45 | 00:00:00 | i |
| HSKMA3-T | 2026-09-03 13:10:20 | 51.65968 | 6.88886 | 164° | 22km/h | 27836m | 3.6m/s | -45.4°C | 0% | 17.6hPa | 2.6V | 18:12:15 | 02:20:43 | 00:00:00 | i |
| DL1XH-west | 2026-09-03 13:10:19 | 51.65972 | 6.88883 | 128° | 13km/h | 27832m | 5.4m/s | -45.5°C | 0% | 17.6hPa | 2.6V | 18:12:15 | 02:20:42 | 00:00:00 | i |
| DM0DOS-11 | 2026-09-03 13:10:17 | 51.65960 | 6.88870 | 15° | 35km/h | 27812m | 5.1m/s | -45.5°C | 3% | 17.7hPa | 2.5V | 08:30:00 | 02:20:39 | 00:00:00 | i |
| DO2JMG | 2026-09-03 13:10:13 | 51.65947 | 6.88864 | 148° | 5km/h | 27796m | 6.9m/s | -45.6°C | 0% | 17.7hPa | 2.6V | 18:12:15 | 02:20:36 | 00:00:00 | i |
| AA1-15 | 2026-09-03 13:10:12 | 51.65951 | 6.88862 | 167° | 22km/h | 27789m | 6.6m/s | -45.5°C | 0.1% | 17.8hPa | 2.7V | 18:12:15 | 02:20:35 | 00:00:00 | i |
| HSKMA3-T | 2026-09-03 13:10:10 | 51.65964 | 6.88851 | 91° | 13km/h | 27774m | 5.6m/s | -45.2°C | 0% | 17.8hPa | 2.5V | 18:12:15 | 02:20:32 | 00:00:00 | i |
| BIOWL1-15 | 2026-09-03 13:10:09 | 51.65939 | 6.88840 | 358° | 26km/h | 27750m | 4.5m/s | -45.4°C | 0% | 17.8hPa | 2.6V | 18:12:15 | 02:20:28 | 00:00:00 | i |
| DL1XH-west | 2026-09-03 13:10:08 | 51.65962 | 6.88846 | 33° | 20km/h | 27768m | 7.3m/s | -45.3°C | 0% | 17.8hPa | 2.6V | 18:12:15 | 02:20:31 | 00:00:00 | |
| DL1XH-15 | 2026-09-03 13:10:07 | 51.65947 | 6.88841 | 4° | 35km/h | 27755m | 4.4m/s | -45.5°C | 2.9% | 17.8hPa | 2.6V | 08:30:00 | 02:20:29 | 00:00:00 | i |
| AA1-15 | 2026-09-03 13:10:02 | 51.65938 | 6.88838 | 163° | 20km/h | 27732m | 6.2m/s | -45.1°C | 0% | 17.9hPa | 2.6V | 18:12:15 | 02:20:25 | 00:00:00 | i |
| HSKMA3-T | 2026-09-03 13:09:58 | 51.65943 | 6.88827 | 359° | 22km/h | 27712m | 7.3m/s | -45.6°C | 0% | 17.9hPa | 2.5V | 18:12:15 | 02:20:21 | 00:00:00 | i |
| DL1XH-west | 2026-09-03 13:09:57 | 51.65935 | 6.88829 | 349° | 35km/h | 27705m | 6.1m/s | -45.5°C | 0% | 18hPa | 2.6V | 18:12:15 | 02:20:20 | 00:00:00 | i |
| BIOWL1-15 | 2026-09-03 13:09:54 | 51.65917 | 6.88838 | 356° | 5km/h | 27690m | 5.5m/s | -45.4°C | 0% | 18hPa | 2.5V | 18:12:15 | 02:20:17 | 00:00:00 | i |
| DO2JMG | 2026-09-03 13:09:52 | 51.65921 | 6.88830 | 131° | 27km/h | 27679m | 5.2m/s | -45.5°C | 0% | 18.1hPa | 2.6V | 18:12:15 | 02:20:15 | 00:00:00 | i |
| AA1-15 | 2026-09-03 13:09:51 | 51.65925 | 6.88821 | 119° | 27km/h | 27674m | 3.6m/s | -45.5°C | 0% | 18hPa | 2.6V | 18:12:15 | 02:20:14 | 00:00:00 | i |
| HSKMA3-T | 2026-09-03 13:09:48 | 51.65921 | 6.88806 | 347° | 24km/h | 27659m | 7.6m/s | -45.4°C | 0% | 18.1hPa | 2.5V | 18:12:15 | 02:20:11 | 00:00:00 | |
| DL1XH-west | 2026-09-03 13:09:47 | 51.65914 | 6.88811 | 326° | 35km/h | 27651m | 7.1m/s | -45.5°C | 0% | 18.1hPa | 2.6V | 18:12:15 | 02:20:10 | 00:00:00 | i |
| BIOWL1-15 | 2026-09-03 13:09:46 | 51.65901 | 6.88836 | 273° | 7km/h | 27636m | 5.6m/s | -45.7°C | 0% | 18.1hPa | 2.5V | 18:12:15 | 02:20:07 | 00:00:00 | i |
| DL3AQ-11 | 2026-09-03 13:09:45 | 51.65902 | 6.88830 | 301° | 24km/h | 27641m | 4.4m/s | -45.6°C | 0.7% | 18.1hPa | 2.6V | 00:00:00 | 00:00:00 | 00:00:00 | |
| DO2JMG | 2026-09-03 13:09:41 | 51.65908 | 6.88820 | 112° | 29km/h | 27618m | 4.1m/s | -45.6°C | 0% | 18.2hPa | 2.6V | 18:12:15 | 02:20:04 | 00:00:00 | i |
| AA1-15 | 2026-09-03 13:09:40 | 51.65909 | 6.88811 | 94° | 20km/h | 27614m | 3.9m/s | -45.5°C | 0% | 18.2hPa | 2.6V | 18:12:15 | 02:20:03 | 00:00:00 | i |
| HSKMA3-T | 2026-09-03 13:09:37 | 51.65901 | 6.88812 | 306° | 29km/h | 27596m | 6.8m/s | -45.9°C | 0% | 18.3hPa | 2.6V | 18:12:15 | 02:20:00 | 00:00:00 | i |
| DL1XH-west | 2026-09-03 13:09:36 | 51.65897 | 6.88823 | 294° | 33km/h | 27590m | 4.9m/s | -45.8°C | 0% | 18.3hPa | 2.6V | 18:12:15 | 02:19:59 | 00:00:00 | i |
| BIOWL1-15 | 2026-09-03 13:09:33 | 51.65895 | 6.88841 | 126° | 9km/h | 27574m | 6.7m/s | -45.8°C | 0% | 18.3hPa | 2.5V | 18:12:15 | 02:19:56 | 00:00:00 | i |
| DO2JMG | 2026-09-03 13:09:32 | 51.65898 | 6.88826 | 97° | 26km/h | 27562m | 4.1m/s | -45.8°C | 0% | 18.3hPa | 2.6V | 18:12:15 | 02:19:54 | 00:00:00 | i |
| AA1-15 | 2026-09-03 13:09:30 | 51.65898 | 6.88817 | 78° | 18km/h | 27558m | 4.5m/s | -45.8°C | 0% | 18.4hPa | 2.6V | 18:12:15 | 02:19:53 | 00:00:00 | i |
| HSKMA3-T | 2026-09-03 13:09:27 | 51.65891 | 6.88825 | 288° | 29km/h | 27540m | 5.8m/s | -45.7°C | 0% | 18.5hPa | 2.6V | 18:12:15 | 02:19:50 | 00:00:00 | i |
| DL1XH-west | 2026-09-03 13:09:25 | 51.65890 | 6.88848 | 259° | 24km/h | 27531m | 5m/s | -45.9°C | 0% | 18.4hPa | 2.6V | 18:12:15 | 02:19:48 | 00:00:00 | i |
| BIOWL1-15 | 2026-09-03 13:09:23 | 51.65894 | 6.88854 | 145° | 13km/h | 27519m | 6.5m/s | -46°C | 0% | 18.5hPa | 2.5V | 18:12:15 | 02:19:46 | 00:00:00 | i |
| DO2JMG | 2026-09-03 13:09:20 | 51.65899 | 6.88837 | 91° | 5km/h | 27504m | 4.7m/s | -45.7°C | 0% | 18.5hPa | 2.6V | 18:12:15 | 02:19:43 | 00:00:00 | i |
| AA1-15 | 2026-09-03 13:09:19 | 51.65899 | 6.88837 | 275° | 7km/h | 27498m | 6.3m/s | -45.8°C | 0% | 18.5hPa | 2.5V | 18:12:15 | 02:19:42 | 00:00:00 | i |
| DO3DL | 2026-09-03 13:09:18 | 51.65899 | 6.88837 | 276° | 7km/h | 27499m | 6.3m/s | -45.8°C | 0.7% | 18.5hPa | 2.6V | 00:00:00 | 00:00:00 | 00:00:00 | |
| DL1XH-15 | 2026-09-03 13:09:17 | 51.65901 | 6.88865 | 254° | 27km/h | 27480m | 4.5m/s | -45.9°C | 3% | 18.6hPa | 2.6V | 08:30:00 | 02:19:39 | 00:00:00 | i |
| HSKMA3-T | 2026-09-03 13:09:17 | 51.65899 | 6.88853 | 264° | 31km/h | 27486m | 5.6m/s | -45.9°C | 0% | 18.6hPa | 2.6V | 18:12:15 | 02:19:40 | 00:00:00 | i |
| DL1XH-west | 2026-09-03 13:09:15 | 51.65903 | 6.88873 | 233° | 18km/h | 27476m | 5.5m/s | -45.8°C | 0% | 18.6hPa | 2.6V | 18:12:15 | 02:19:38 | 00:00:00 | i |
| BIOWL1-15 | 2026-09-03 13:09:13 | 51.65908 | 6.88872 | 110° | 18km/h | 27464m | 5.8m/s | -46.1°C | 0% | 18.6hPa | 2.5V | 18:12:15 | 02:19:36 | 00:00:00 | i |
| DO2JMG | 2026-09-03 13:09:10 | 51.65907 | 6.88852 | 25° | 4km/h | 27449m | 5.4m/s | -46°C | 0% | 18.7hPa | 2.6V | 18:12:15 | 02:19:33 | 00:00:00 | i |
| AA1-15 | 2026-09-03 13:09:08 | 51.65908 | 6.88862 | 255° | 24km/h | 27437m | 6.1m/s | -46.2°C | 0% | 18.7hPa | 2.5V | 18:12:15 | 02:19:31 | 00:00:00 | i |
| DL1XH-west | 2026-09-03 13:09:04 | 51.65922 | 6.88881 | 129° | 18km/h | 27416m | 6.3m/s | -46.2°C | 0% | 18.7hPa | 2.5V | 18:12:15 | 02:19:27 | 00:00:00 | i |
| BIOWL1-15 | 2026-09-03 13:09:03 | 51.65924 | 6.88873 | 96° | 24km/h | 27409m | 5.8m/s | -46.4°C | 0% | 18.8hPa | 2.5V | 18:12:15 | 02:19:26 | 00:00:00 | i |
| HSKMA3-T | 2026-09-03 13:09:01 | 51.65922 | 6.88858 | 57° | 11km/h | 27401m | 4.9m/s | -46.3°C | 0% | 18.8hPa | 2.6V | 18:12:15 | 02:19:24 | 00:00:00 | i |
| DO2JMG | 2026-09-03 13:08:59 | 51.65922 | 6.88863 | 256° | 20km/h | 27389m | 6.6m/s | -46.1°C | 0% | 18.9hPa | 2.5V | 18:12:15 | 02:19:22 | 00:00:00 | i |
| DL1XH-15 | 2026-09-03 13:08:57 | 51.65932 | 6.88888 | 205° | 18km/h | 27374m | 5.1m/s | -46.1°C | 2.9% | 18.9hPa | 2.6V | 08:30:00 | 02:19:19 | 00:00:00 | i |
| AA1-15 | 2026-09-03 13:08:57 | 51.65928 | 6.88882 | 229° | 27km/h | 27378m | 3.3m/s | -46.1°C | 0% | 18.9hPa | 2.6V | 18:12:15 | 02:19:20 | 00:00:00 | i |
| DL1XH-west | 2026-09-03 13:08:54 | 51.65937 | 6.88882 | 97° | 22km/h | 27362m | 6.9m/s | -46.2°C | 0% | 18.9hPa | 2.5V | 18:12:15 | 02:19:17 | 00:00:00 | i |
| BIOWL1-15 | 2026-09-03 13:08:52 | 51.65935 | 6.88861 | 72° | 24km/h | 27351m | 3.7m/s | -46.3°C | 0% | 19hPa | 2.6V | 18:12:15 | 02:19:15 | 00:00:00 | i |
| HSKMA3-T | 2026-09-03 13:08:51 | 51.65934 | 6.88854 | 223° | 7km/h | 27340m | 6.7m/s | -46.5°C | 0% | 19hPa | 2.6V | 18:12:15 | 02:19:13 | 00:00:00 | i |
| DO2JMG | 2026-09-03 13:08:49 | 51.65937 | 6.88858 | 229° | 22km/h | 27333m | 6.3m/s | -46.5°C | 0% | 19hPa | 2.5V | 18:12:15 | 02:19:12 | 00:00:00 | i |
| DL1XH-15 | 2026-09-03 13:08:47 | 51.65951 | 6.88873 | 168° | 16km/h | 27319m | 6m/s | -46.7°C | 3% | 19.1hPa | 2.6V | 08:30:00 | 02:19:09 | 00:00:00 | i |
| AA1-15 | 2026-09-03 13:08:46 | 51.65951 | 6.88873 | 169° | 16km/h | 27319m | 6m/s | -46.7°C | 0% | 19.1hPa | 2.6V | 18:12:15 | 02:19:09 | 00:00:00 | i |
| BIOWL1-15 | 2026-09-03 13:08:45 | 51.65951 | 6.88828 | 103° | 11km/h | 27290m | 5.5m/s | -47°C | 0.1% | 19.1hPa | 2.6V | 18:12:15 | 02:19:04 | 00:00:00 | i |
| DL1XH-west | 2026-09-03 13:08:43 | 51.65953 | 6.88846 | 76° | 33km/h | 27299m | 4.7m/s | -47.1°C | 0% | 19.1hPa | 2.5V | 18:12:15 | 02:19:06 | 00:00:00 | i |
| DO2JMG | 2026-09-03 13:08:38 | 51.65963 | 6.88831 | 199° | 29km/h | 27271m | 5m/s | -47.2°C | 0.1% | 19.2hPa | 2.5V | 18:12:15 | 02:19:01 | 00:00:00 | i |
| DM0DOS-11 | 2026-09-03 13:08:38 | 51.65976 | 6.88831 | 145° | 24km/h | 27261m | 5.5m/s | -47.4°C | 3.1% | 19.2hPa | 2.6V | 08:30:00 | 02:18:59 | 00:00:00 | i |
| DL1XH-15 | 2026-09-03 13:08:37 | 51.65981 | 6.88813 | 89° | 31km/h | 27249m | 5.5m/s | -47.6°C | 3.1% | 19.3hPa | 2.5V | 08:30:00 | 02:18:57 | 00:00:00 | i |
| HSKMA3-T | 2026-09-03 13:08:37 | 51.65970 | 6.88834 | 181° | 26km/h | 27266m | 5m/s | -47.3°C | 0% | 19.2hPa | 2.6V | 18:12:15 | 02:19:00 | 00:00:00 | i |
| AA1-15 | 2026-09-03 13:08:36 | 51.65976 | 6.88831 | 146° | 24km/h | 27261m | 5.5m/s | -47.4°C | 0% | 19.2hPa | 2.6V | 18:12:15 | 02:18:59 | 00:00:00 | i |
| BIOWL1-15 | 2026-09-03 13:08:33 | 51.65979 | 6.88786 | 114° | 5km/h | 27234m | 6.6m/s | -47.6°C | 0.1% | 19.3hPa | 2.6V | 18:12:15 | 02:18:54 | 00:00:00 | i |
| DL1XH-west | 2026-09-03 13:08:32 | 51.65979 | 6.88791 | 77° | 18km/h | 27240m | 4.8m/s | -47.6°C | 0% | 19.3hPa | 2.6V | 18:12:15 | 02:18:55 | 00:00:00 | i |
| GOEST3-10 | 2026-09-03 13:08:31 | 51.65979 | 6.88786 | 114° | 18km/h | 27235m | 6.5m/s | -47.6°C | 3.2% | 19.2hPa | 2.5V | 00:00:00 | 02:18:54 | 00:00:00 | |
| EDDB2-11 | 2026-09-03 13:08:30 | 51.65980 | 6.88787 | 208° | 13km/h | 27228m | 6.8m/s | -47.8°C | 0.8% | 19.3hPa | 2.5V | 00:00:00 | 00:00:00 | 00:00:00 | |
| BIOWL7-15 | 2026-09-03 13:08:29 | 51.65980 | 6.88786 | 209° | 13km/h | 27228m | 6.8m/s | -47.8°C | 0.8% | 19.3hPa | 2.5V | 00:00:00 | 00:00:00 | 00:00:00 | |
| DL1XH-15 | 2026-09-03 13:08:27 | 51.66002 | 6.88744 | 82° | 33km/h | 27190m | 3.9m/s | -47.7°C | 3.2% | 19.4hPa | 2.5V | 08:30:00 | 02:18:46 | 00:00:00 | i |
| DO2JMG | 2026-09-03 13:08:27 | 51.65996 | 6.88793 | 158° | 22km/h | 27212m | 5.3m/s | -47.7°C | 0.2% | 19.4hPa | 2.6V | 18:12:15 | 02:18:50 | 00:00:00 | i |
| AA1-15 | 2026-09-03 13:08:25 | 51.66002 | 6.88774 | 97° | 35km/h | 27200m | 6.3m/s | -47.6°C | 0.2% | 19.4hPa | 2.6V | 18:12:15 | 02:18:48 | 00:00:00 | i |
| HSKMA3-T | 2026-09-03 13:08:24 | 51.66002 | 6.88759 | 86° | 40km/h | 27195m | 4.9m/s | -47.6°C | 0.2% | 19.4hPa | 2.5V | 18:12:15 | 02:18:47 | 00:00:00 | i |
| DL1XH-west | 2026-09-03 13:08:21 | 51.66002 | 6.88728 | 144° | 7km/h | 27179m | 6.9m/s | -47.9°C | 0.1% | 19.4hPa | 2.6V | 18:12:15 | 02:18:44 | 00:00:00 | i |
| DJ3KS | 2026-09-03 13:08:19 | 51.66004 | 6.88729 | 209° | 15km/h | 27173m | 6.5m/s | -48.0°C | 0.9% | 19.5hPa | 2.5V | 00:00:00 | 00:00:00 | 00:00:00 | |
| BIOWL9-15 | 2026-09-03 13:08:18 | 51.66017 | 6.88735 | 139° | 15km/h | 27158m | 5.8m/s | -47.9°C | 0.8% | 19.5hPa | 2.5V | 00:00:00 | 00:00:00 | 00:00:00 | |
| DL1XH-15 | 2026-09-03 13:08:17 | 51.66011 | 6.88681 | 73° | 38km/h | 27135m | 3.1m/s | -48.1°C | 3.3% | 19.6hPa | 2.5V | 08:30:00 | 02:18:36 | 00:00:00 | i |
| DO2JMG | 2026-09-03 13:08:17 | 51.66017 | 6.88735 | 139° | 15km/h | 27158m | 5.8m/s | -47.9°C | 0.1% | 19.5hPa | 2.6V | 18:12:15 | 02:18:40 | 00:00:00 | i |
| AA1-15 | 2026-09-03 13:08:15 | 51.66017 | 6.88714 | 78° | 40km/h | 27144m | 6.9m/s | -47.9°C | 0.1% | 19.6hPa | 2.6V | 18:12:15 | 02:18:38 | 00:00:00 | i |
| DL1XH-west | 2026-09-03 13:08:11 | 51.66010 | 6.88663 | 124° | 11km/h | 27124m | 7.3m/s | -48.1°C | 0.2% | 19.6hPa | 2.6V | 18:12:15 | 02:18:34 | 00:00:00 | i |
| HSKMA3-T | 2026-09-03 13:08:10 | 51.66012 | 6.88662 | 193° | 16km/h | 27117m | 6.8m/s | -48.1°C | 0.2% | 19.6hPa | 2.6V | 18:12:15 | 02:18:33 | 00:00:00 | i |
| AU51GT2 | 2026-09-03 13:08:09 | 51.66017 | 6.88664 | 199° | 20km/h | 27112m | 4.0m/s | -48.1°C | 0.8% | 19.7hPa | 2.6V | 00:00:00 | 00:00:00 | 00:00:00 | |
| DM0DOS-11 | 2026-09-03 13:08:08 | 51.66023 | 6.88652 | 77° | 31km/h | 27096m | 7.5m/s | -48.1°C | 3.4% | 19.7hPa | 2.6V | 08:30:00 | 02:18:29 | 00:00:00 | i |
| DL1XH-15 | 2026-09-03 13:08:08 | 51.66010 | 6.88607 | 56° | 37km/h | 27079m | 4.2m/s | -48°C | 3.2% | 19.8hPa | 2.5V | 08:30:00 | 02:18:26 | 00:00:00 | i |
| DO2JMG | 2026-09-03 13:08:06 | 51.66023 | 6.88652 | 78° | 31km/h | 27096m | 7.5m/s | -48.1°C | 0.2% | 19.7hPa | 2.6V | 18:12:15 | 02:18:29 | 00:00:00 | i |
| AA1-15 | 2026-09-03 13:08:04 | 51.66015 | 6.88621 | 60° | 47km/h | 27083m | 4.6m/s | -48°C | 0.1% | 19.7hPa | 2.5V | 18:12:15 | 02:18:27 | 00:00:00 | i |
| DL3AQ-11 | 2026-09-03 13:08:02 | 51.66004 | 6.88594 | 55° | 2km/h | 27068m | 6.8m/s | -48.1°C | 0.8% | 19.8hPa | 2.6V | 00:00:00 | 00:00:00 | 00:00:00 | |
| DM0DOS-11 | 2026-09-03 13:08:01 | 51.66008 | 6.88587 | 65° | 31km/h | 27040m | 6.8m/s | -48.1°C | 3.2% | 19.9hPa | 2.6V | 08:30:00 | 02:18:19 | 00:00:00 | i |
| DL1XH-west | 2026-09-03 13:08:00 | 51.66005 | 6.88595 | 222° | 11km/h | 27061m | 6.3m/s | -48.2°C | 0.2% | 19.8hPa | 2.6V | 18:12:15 | 02:18:23 | 00:00:00 | i |
| HSKMA3-T | 2026-09-03 13:07:59 | 51.66007 | 6.88598 | 211° | 15km/h | 27056m | 4.1m/s | -48.2°C | 0.2% | 19.8hPa | 2.5V | 18:12:15 | 02:18:22 | 00:00:00 | i |
| DO2JMG | 2026-09-03 13:07:56 | 51.66008 | 6.88587 | 65° | 31km/h | 27040m | 6.8m/s | -48.1°C | 0.1% | 19.9hPa | 2.6V | 18:12:15 | 02:18:19 | 00:00:00 | i |
| AA1-15 | 2026-09-03 13:07:54 | 51.65999 | 6.88559 | 57° | 42km/h | 27028m | 3.9m/s | -48.2°C | 0.2% | 19.9hPa | 2.5V | 18:12:15 | 02:18:17 | 00:00:00 | i |
| BIOWL1-15 | 2026-09-03 13:07:49 | 51.65995 | 6.88538 | 199° | 7km/h | 27002m | 3.4m/s | -48.3°C | 0.3% | 20hPa | 2.5V | 18:12:15 | 02:18:12 | 00:00:00 | i |
| DM0DOS-11 | 2026-09-03 13:07:48 | 51.65988 | 6.88523 | 44° | 38km/h | 26985m | 6.8m/s | -48.6°C | 3.4% | 20hPa | 2.6V | 08:30:00 | 02:18:09 | 00:00:00 | i |
| HSKMA3-T | 2026-09-03 13:07:48 | 51.65996 | 6.88537 | 70° | 7km/h | 26998m | 5.4m/s | -48.4°C | 0.3% | 20hPa | 2.5V | 18:12:15 | 02:18:11 | 00:00:00 | i |
| DL1XH-15 | 2026-09-03 13:07:47 | 51.65965 | 6.88492 | 34° | 26km/h | 26970m | 5.4m/s | -48.4°C | 3.3% | 20.1hPa | 2.5V | 08:30:00 | 02:18:06 | 00:00:00 | i |
| DO2JMG | 2026-09-03 13:07:46 | 51.65980 | 6.88512 | 42° | 47km/h | 26979m | 5m/s | -48.6°C | 0.2% | 20.1hPa | 2.6V | 18:12:15 | 02:18:08 | 00:00:00 | i |
| DL3AQ-11 | 2026-09-03 13:07:45 | 51.65980 | 6.88512 | 41° | 46km/h | 26979m | 5.0m/s | -48.6°C | 0.8% | 20.1hPa | 2.5V | 00:00:00 | 00:00:00 | 00:00:00 | |
| AA1-15 | 2026-09-03 13:07:43 | 51.65965 | 6.88492 | 35° | 26km/h | 26970m | 5.4m/s | -48.4°C | 0.2% | 20.1hPa | 2.5V | 18:12:15 | 02:18:06 | 00:00:00 | i |
| DM0DOS-11 | 2026-09-03 13:07:41 | 51.65956 | 6.88472 | 45° | 40km/h | 26929m | 6.1m/s | -48.3°C | 3.3% | 20.2hPa | 2.6V | 08:30:00 | 02:17:59 | 00:00:00 | i |
| BIOWL1-15 | 2026-09-03 13:07:39 | 51.65964 | 6.88491 | 171° | 5km/h | 26947m | 4.2m/s | -48.3°C | 0.2% | 20.2hPa | 2.5V | 18:12:15 | 02:18:02 | 00:00:00 | i |
| DL1XH-west | 2026-09-03 13:07:38 | 51.65964 | 6.88488 | 69° | 13km/h | 26942m | 5.9m/s | -48.2°C | 0.2% | 20.2hPa | 2.5V | 18:12:15 | 02:18:01 | 00:00:00 | i |
| HSKMA3-T | 2026-09-03 13:07:37 | 51.65961 | 6.88482 | 52° | 27km/h | 26935m | 6.7m/s | -48.3°C | 0.2% | 20.2hPa | 2.6V | 18:12:15 | 02:18:00 | 00:00:00 | i |
| DO2JMG | 2026-09-03 13:07:34 | 51.65940 | 6.88449 | 37° | 37km/h | 26920m | 4.1m/s | -48.5°C | 0.2% | 20.3hPa | 2.5V | 18:12:15 | 02:17:57 | 00:00:00 | i |
| AA1-15 | 2026-09-03 13:07:33 | 51.65934 | 6.88443 | 30° | 20km/h | 26915m | 5.6m/s | -48.5°C | 0.2% | 20.2hPa | 2.5V | 18:12:15 | 02:17:56 | 00:00:00 | i |
| DO3DL | 2026-09-03 13:07:32 | 51.65934 | 6.88443 | 31° | 20km/h | 26915m | 5.6m/s | -48.5°C | 0% | 20.3hPa | 2.6V | 00:00:00 | 00:00:00 | 00:00:00 | |
| DL8DAS-14 | 2026-09-03 13:07:31 | 51.65933 | 6.88445 | 215° | 9km/h | 26898m | 2.9m/s | -48.4°C | 0.9% | 20.3hPa | 2.6V | 00:00:00 | 00:00:00 | 00:00:00 | |
| DF5WG-10 | 2026-09-03 13:07:30 | 51.65932 | 6.88445 | 216° | 20km/h | 26898m | 2.8m/s | -48.4°C | 3.5% | 20.2hPa | 2.6V | 00:00:00 | 02:17:53 | 00:00:00 | |
| DD1CC8 | 2026-09-03 13:07:29 | 51.65932 | 6.88441 | 52° | 18km/h | 26889m | 6.7m/s | -48.6°C | 0.8% | 20.3hPa | 2.6V | 00:00:00 | 00:00:00 | 00:00:00 | |
| DM0DOS-11 | 2026-09-03 13:07:28 | 51.65919 | 6.88421 | 42° | 49km/h | 26875m | 6.1m/s | -48.8°C | 3.4% | 20.4hPa | 2.6V | 08:30:00 | 02:17:49 | 00:00:00 | i |
| DL1XH-west | 2026-09-03 13:07:28 | 51.65932 | 6.88441 | 52° | 20km/h | 26889m | 6.7m/s | -48.6°C | 0.2% | 20.3hPa | 2.5V | 18:12:15 | 02:17:51 | 00:00:00 | i |
| HSKMA3-T | 2026-09-03 13:07:26 | 51.65919 | 6.88421 | 43° | 49km/h | 26875m | 6.1m/s | -48.8°C | 0.3% | 20.4hPa | 2.6V | 18:12:15 | 02:17:49 | 00:00:00 | i |
| DO2JMG | 2026-09-03 13:07:24 | 51.65903 | 6.88397 | 40° | 33km/h | 26866m | 4.7m/s | -48.6°C | 0.2% | 20.4hPa | 2.6V | 18:12:15 | 02:17:47 | 00:00:00 | i |
| AA1-15 | 2026-09-03 13:07:22 | 51.65897 | 6.88389 | 152° | 4km/h | 26854m | 6.9m/s | -48.6°C | 0.2% | 20.4hPa | 2.6V | 18:12:15 | 02:17:45 | 00:00:00 | i |
| DL3AQ-11 | 2026-09-03 13:07:22 | 51.65899 | 6.88389 | 193° | 13km/h | 26848m | 5.6m/s | -48.6°C | 0.8% | 20.5hPa | 2.6V | 00:00:00 | 00:00:00 | 00:00:00 | i |
| DM0DOS-11 | 2026-09-03 13:07:21 | 51.65891 | 6.88364 | 34° | 46km/h | 26820m | 5m/s | -48.5°C | 3.4% | 20.5hPa | 2.6V | 08:30:00 | 02:17:39 | 00:00:00 | i |
| BIOWL1-15 | 2026-09-03 13:07:19 | 51.65881 | 6.88354 | 29° | 40km/h | 26816m | 3.1m/s | -48.5°C | 0.2% | 20.6hPa | 2.6V | 18:12:15 | 02:17:38 | 00:00:00 | i |
| DL1XH-15 | 2026-09-03 13:07:17 | 51.65870 | 6.88346 | 15° | 9km/h | 26807m | 6.7m/s | -48.6°C | 3.4% | 20.6hPa | 2.5V | 08:30:00 | 02:17:36 | 00:00:00 | i |
| DL1XH-west | 2026-09-03 13:07:17 | 51.65899 | 6.88374 | 43° | 37km/h | 26826m | 6.9m/s | -48.5°C | 0.2% | 20.5hPa | 2.6V | 18:12:15 | 02:17:40 | 00:00:00 | i |
| HSKMA3-T | 2026-09-03 13:07:16 | 51.65891 | 6.88364 | 35° | 46km/h | 26820m | 5m/s | -48.5°C | 0.2% | 20.5hPa | 2.6V | 18:12:15 | 02:17:39 | 00:00:00 | i |
| DO2JMG | 2026-09-03 13:07:14 | 51.65874 | 6.88348 | 23° | 27km/h | 26812m | 4.7m/s | -48.5°C | 0.2% | 20.6hPa | 2.5V | 18:12:15 | 02:17:37 | 00:00:00 | i |
| AA1-15 | 2026-09-03 13:07:11 | 51.65872 | 6.88347 | 194° | 16km/h | 26793m | 5.7m/s | -48.5°C | 0.2% | 20.6hPa | 2.6V | 18:12:15 | 02:17:34 | 00:00:00 | i |
| GOEST3-10 | 2026-09-03 13:07:11 | 51.65872 | 6.88347 | 194° | 18km/h | 26793m | 5.7m/s | -48.5°C | 3.4% | 20.6hPa | 2.5V | 00:00:00 | 02:17:34 | 00:00:00 | i |
| DL8DAS-15 | 2026-09-03 13:07:10 | 51.65872 | 6.88347 | 195° | 16km/h | 26793m | 5.7m/s | -48.5°C | 0.9% | 20.6hPa | 2.5V | 00:00:00 | 00:00:00 | 00:00:00 | |
| DL1XH-15 | 2026-09-03 13:07:08 | 51.65839 | 6.88326 | 325° | 9km/h | 26751m | 6.5m/s | -48.7°C | 3.4% | 20.8hPa | 2.5V | 08:30:00 | 02:17:26 | 00:00:00 | i |
| DL1XH-west | 2026-09-03 13:07:07 | 51.65870 | 6.88336 | 26° | 35km/h | 26772m | 6.6m/s | -48.4°C | 0.2% | 20.7hPa | 2.6V | 18:12:15 | 02:17:30 | 00:00:00 | |
| HSKMA3-T | 2026-09-03 13:07:06 | 51.65861 | 6.88330 | 19° | 44km/h | 26766m | 4.8m/s | -48.5°C | 0.2% | 20.7hPa | 2.6V | 18:12:15 | 02:17:29 | 00:00:00 | i |
| DO2JMG | 2026-09-03 13:07:04 | 51.65843 | 6.88324 | 359° | 24km/h | 26757m | 5.1m/s | -48.6°C | 0.2% | 20.7hPa | 2.5V | 18:12:15 | 02:17:27 | 00:00:00 | i |
| DJ2KF-10 | 2026-09-03 13:07:04 | 51.65843 | 6.88324 | 359° | 24km/h | 26758m | 5.1m/s | -48.6°C | 3.4% | 20.7hPa | 2.5V | 00:00:00 | 02:17:27 | 08:30:00 | i |
| HTAHTA | 2026-09-03 13:07:02 | 51.65842 | 6.88330 | 190° | 15km/h | 26740m | 4.0m/s | -48.7°C | 0.9% | 20.8hPa | 2.6V | 00:00:00 | 00:00:00 | 00:00:00 | |
| DM0DOS-11 | 2026-09-03 13:07:01 | 51.65820 | 6.88315 | 0° | 51km/h | 26714m | 4.7m/s | -48.9°C | 3.4% | 20.9hPa | 2.6V | 08:30:00 | 02:17:19 | 00:00:00 | i |
| AA1-15 | 2026-09-03 13:07:01 | 51.65842 | 6.88330 | 190° | 15km/h | 26740m | 4m/s | -48.7°C | 0.3% | 20.8hPa | 2.6V | 18:12:15 | 02:17:24 | 00:00:00 | i |
| DL8DAS-14 | 2026-09-03 13:07:00 | 51.65844 | 6.88326 | 54° | 13km/h | 26732m | 5.3m/s | -48.6°C | 0.8% | 20.8hPa | 2.5V | 00:00:00 | 00:00:00 | 00:00:00 | |
| DD1CC8 | 2026-09-03 13:06:58 | 51.65831 | 6.88317 | 12° | 42km/h | 26719m | 6.4m/s | -48.8°C | 0.8% | 20.9hPa | 2.5V | 00:00:00 | 00:00:00 | 00:00:00 | |
| DL1XH-15 | 2026-09-03 13:06:57 | 51.65795 | 6.88327 | 308° | 16km/h | 26698m | 6.1m/s | -48.9°C | 3.5% | 20.9hPa | 2.5V | 08:30:00 | 02:17:16 | 00:00:00 | i |
| DL1XH-west | 2026-09-03 13:06:57 | 51.65820 | 6.88315 | 1° | 51km/h | 26714m | 4.7m/s | -48.9°C | 0.2% | 20.9hPa | 2.6V | 18:12:15 | 02:17:19 | 00:00:00 | i |
| HSKMA3-T | 2026-09-03 13:06:55 | 51.65808 | 6.88317 | 348° | 44km/h | 26709m | 4.4m/s | -49°C | 0.4% | 20.9hPa | 2.6V | 18:12:15 | 02:17:18 | 00:00:00 | i |
| DO2JMG | 2026-09-03 13:06:53 | 51.65795 | 6.88327 | 308° | 16km/h | 26698m | 6.1m/s | -48.9°C | 0.3% | 20.9hPa | 2.5V | 18:12:15 | 02:17:16 | 00:00:00 | i |
| AA1-15 | 2026-09-03 13:06:50 | 51.65795 | 6.88328 | 70° | 13km/h | 26683m | 4.7m/s | -48.9°C | 0.3% | 21hPa | 2.6V | 18:12:15 | 02:17:13 | 00:00:00 | i |
| DH3RM | 2026-09-03 13:06:49 | 51.65795 | 6.88327 | 70° | 13km/h | 26684m | 4.7m/s | -48.9°C | 0.8% | 21.0hPa | 2.6V | 00:00:00 | 00:00:00 | 00:00:00 | |
| DB0NH | 2026-09-03 13:06:48 | 51.65784 | 6.88316 | 19° | 31km/h | 26673m | 5.9m/s | -48.8°C | 3.4% | 21.0hPa | 2.6V | 00:00:00 | 02:17:11 | 00:00:00 | |
| DM0DOS-11 | 2026-09-03 13:06:47 | 51.65762 | 6.88313 | 353° | 46km/h | 26662m | 4m/s | -48.9°C | 3.3% | 21.1hPa | 2.6V | 08:30:00 | 02:17:09 | 00:00:00 | i |
| DL1XH-15 | 2026-09-03 13:06:47 | 51.65743 | 6.88322 | 319° | 5km/h | 26646m | 6.6m/s | -49.1°C | 3.5% | 21.1hPa | 2.5V | 08:30:00 | 02:17:06 | 00:00:00 | i |
| BIOWL9-15 | 2026-09-03 13:06:45 | 51.65746 | 6.88320 | 335° | 20km/h | 26653m | 5.8m/s | -49.0°C | 0.8% | 21.1hPa | 2.6V | 00:00:00 | 00:00:00 | 00:00:00 | i |
| DL1XH-west | 2026-09-03 13:06:45 | 51.65752 | 6.88316 | 345° | 35km/h | 26658m | 4.5m/s | -48.9°C | 0.3% | 21.1hPa | 2.6V | 18:12:15 | 02:17:08 | 00:00:00 | i |
| DO2JMG | 2026-09-03 13:06:42 | 51.65743 | 6.88322 | 152° | 5km/h | 26640m | 6.3m/s | -49.1°C | 0.3% | 21.1hPa | 2.6V | 18:12:15 | 02:17:05 | 00:00:00 | i |
| AA1-15 | 2026-09-03 13:06:39 | 51.65740 | 6.88311 | 21° | 24km/h | 26623m | 5.6m/s | -48.8°C | 0.2% | 21.2hPa | 2.5V | 18:12:15 | 02:17:02 | 00:00:00 | i |
| DL1XH-15 | 2026-09-03 13:06:38 | 51.65701 | 6.88328 | 263° | 5km/h | 26592m | 5.7m/s | -49.2°C | 3.6% | 21.3hPa | 2.5V | 08:30:00 | 02:16:56 | 00:00:00 | i |
| DL1XH-west | 2026-09-03 13:06:34 | 51.65702 | 6.88325 | 311° | 15km/h | 26597m | 5.9m/s | -49.1°C | 0.4% | 21.3hPa | 2.5V | 18:12:15 | 02:16:57 | 00:00:00 | i |
| DO2JMG | 2026-09-03 13:06:32 | 51.65701 | 6.88329 | 135° | 4km/h | 26586m | 4.4m/s | -49.3°C | 0.3% | 21.3hPa | 2.6V | 18:12:15 | 02:16:55 | 00:00:00 | i |
| HSKMA3-T | 2026-09-03 13:06:31 | 51.65701 | 6.88327 | 48° | 9km/h | 26582m | 5.4m/s | -49.4°C | 0.4% | 21.3hPa | 2.6V | 18:12:15 | 02:16:54 | 00:00:00 | |
| AA1-15 | 2026-09-03 13:06:29 | 51.65692 | 6.88323 | 3° | 27km/h | 26570m | 6m/s | -49.2°C | 0.3% | 21.4hPa | 2.5V | 18:12:15 | 02:16:52 | 00:00:00 | i |
| DL1XH-west | 2026-09-03 13:06:23 | 51.65668 | 6.88339 | 172° | 9km/h | 26537m | 4.7m/s | -49.4°C | 0.4% | 21.4hPa | 2.5V | 18:12:15 | 02:16:46 | 00:00:00 | i |
| DO2JMG | 2026-09-03 13:06:22 | 51.65670 | 6.88338 | 129° | 4km/h | 26533m | 4.1m/s | -49.3°C | 0.3% | 21.5hPa | 2.6V | 18:12:15 | 02:16:45 | 00:00:00 | i |
| SONCRA | 2026-09-03 13:06:22 | 51.65669 | 6.88337 | 15° | 9km/h | 26528m | 6.1m/s | -49.3°C | 0.9% | 21.5hPa | 2.6V | 00:00:00 | 00:00:00 | 00:00:00 | i |
| DM0DOS-11 | 2026-09-03 13:06:21 | 51.65639 | 6.88355 | 314° | 13km/h | 26500m | 6.2m/s | -49.3°C | 3.6% | 21.6hPa | 2.6V | 08:30:00 | 02:16:39 | 00:00:00 | i |
| BIOWL1-15 | 2026-09-03 13:06:21 | 51.65669 | 6.88337 | 15° | 9km/h | 26528m | 6.1m/s | -49.3°C | 0.3% | 21.5hPa | 2.6V | 18:12:15 | 02:16:44 | 00:00:00 | i |
| HSKMA3-T | 2026-09-03 13:06:20 | 51.65665 | 6.88337 | 353° | 22km/h | 26521m | 6.8m/s | -49.4°C | 0.3% | 21.5hPa | 2.6V | 18:12:15 | 02:16:43 | 00:00:00 | i |
| AA1-15 | 2026-09-03 13:06:18 | 51.65650 | 6.88345 | 335° | 35km/h | 26510m | 4m/s | -49.3°C | 0.3% | 21.5hPa | 2.5V | 18:12:15 | 02:16:41 | 00:00:00 | |
| DL1XH-west | 2026-09-03 13:06:13 | 51.65643 | 6.88356 | 142° | 15km/h | 26482m | 4.2m/s | -49.4°C | 0.4% | 21.6hPa | 2.5V | 18:12:15 | 02:16:36 | 00:00:00 | i |
| DO2JMG | 2026-09-03 13:06:12 | 51.65645 | 6.88352 | 90° | 7km/h | 26477m | 5.7m/s | -49.4°C | 0.4% | 21.7hPa | 2.6V | 18:12:15 | 02:16:35 | 00:00:00 | i |
| BIOWL1-15 | 2026-09-03 13:06:10 | 51.65638 | 6.88352 | 344° | 26km/h | 26465m | 6.2m/s | -49.2°C | 0.4% | 21.7hPa | 2.6V | 18:12:15 | 02:16:33 | 00:00:00 | i |
| HSKMA3-T | 2026-09-03 13:06:09 | 51.65631 | 6.88356 | 336° | 35km/h | 26459m | 4.8m/s | -49.3°C | 0.4% | 21.7hPa | 2.5V | 18:12:15 | 02:16:32 | 00:00:00 | i |
| AA1-15 | 2026-09-03 13:06:07 | 51.65619 | 6.88367 | 320° | 16km/h | 26451m | 5.2m/s | -49.3°C | 0.4% | 21.7hPa | 2.6V | 18:12:15 | 02:16:30 | 00:00:00 | i |
| DL1XH-west | 2026-09-03 13:06:02 | 51.65625 | 6.88350 | 56° | 15km/h | 26423m | 5.8m/s | -49.2°C | 0.3% | 21.8hPa | 2.6V | 18:12:15 | 02:16:25 | 00:00:00 | i |
| DO2JMG | 2026-09-03 13:06:01 | 51.65621 | 6.88348 | 4° | 20km/h | 26417m | 6.3m/s | -49.2°C | 0.4% | 21.9hPa | 2.7V | 18:12:15 | 02:16:24 | 00:00:00 | i |
| HSKMA3-T | 2026-09-03 13:05:57 | 51.65599 | 6.88369 | 280° | 11km/h | 26399m | 5.9m/s | -49.2°C | 0.3% | 21.9hPa | 2.6V | 18:12:15 | 02:16:20 | 00:00:00 | i |
| DL1XH-15 | 2026-09-03 13:05:57 | 51.65610 | 6.88350 | 90° | 20km/h | 26375m | 4.6m/s | -49°C | 3.5% | 22hPa | 2.5V | 08:30:00 | 02:16:16 | 00:00:00 | i |
| AA1-15 | 2026-09-03 13:05:56 | 51.65601 | 6.88371 | 169° | 11km/h | 26392m | 7.6m/s | -49.2°C | 0.4% | 21.9hPa | 2.6V | 18:12:15 | 02:16:19 | 00:00:00 | i |
| DL1XH-west | 2026-09-03 13:05:52 | 51.65608 | 6.88343 | 38° | 16km/h | 26369m | 5.7m/s | -48.9°C | 0.2% | 22hPa | 2.6V | 18:12:15 | 02:16:15 | 00:00:00 | i |
| DO2JMG | 2026-09-03 13:05:50 | 51.65597 | 6.88346 | 331° | 33km/h | 26358m | 5.5m/s | -48.9°C | 0.2% | 22.1hPa | 2.6V | 18:12:15 | 02:16:13 | 00:00:00 | i |
| BIOWL1-15 | 2026-09-03 13:05:48 | 51.65586 | 6.88364 | 140° | 15km/h | 26337m | 6.8m/s | -49.1°C | 0.3% | 22.1hPa | 2.6V | 18:12:15 | 02:16:09 | 00:00:00 | i |
| HSKMA3-T | 2026-09-03 13:05:47 | 51.65585 | 6.88365 | 253° | 5km/h | 26343m | 5.9m/s | -49°C | 0.3% | 22.1hPa | 2.6V | 18:12:15 | 02:16:10 | 00:00:00 | i |
| DL1XH-15 | 2026-09-03 13:05:47 | 51.65592 | 6.88340 | 75° | 18km/h | 26321m | 5m/s | -49.2°C | 3.6% | 22.2hPa | 2.5V | 08:30:00 | 02:16:06 | 00:00:00 | i |
| AA1-15 | 2026-09-03 13:05:45 | 51.65589 | 6.88358 | 123° | 26km/h | 26331m | 5.8m/s | -49.2°C | 0.4% | 22.2hPa | 2.6V | 18:12:15 | 02:16:08 | 00:00:00 | |
| DF5WG-10 | 2026-09-03 13:05:44 | 51.65592 | 6.88349 | 105° | 22km/h | 26326m | 4.1m/s | -49.2°C | 3.6% | 22.1hPa | 2.5V | 00:00:00 | 02:16:07 | 00:00:00 | |
| BIOWL9-15 | 2026-09-03 13:05:42 | 51.65590 | 6.88335 | 19° | 16km/h | 26316m | 6.5m/s | -49.2°C | 0.9% | 22.2hPa | 2.6V | 00:00:00 | 00:00:00 | 00:00:00 | |
| DM0DOS-11 | 2026-09-03 13:05:41 | 51.65564 | 6.88355 | 103° | 11km/h | 26280m | 6.6m/s | -48.8°C | 3.3% | 22.3hPa | 2.6V | 08:30:00 | 02:15:59 | 00:00:00 | i |
| DL1XH-west | 2026-09-03 13:05:41 | 51.65584 | 6.88336 | 343° | 26km/h | 26309m | 6.9m/s | -49.1°C | 0.4% | 22.2hPa | 2.6V | 18:12:15 | 02:16:04 | 00:00:00 | i |
| DO2JMG | 2026-09-03 13:05:40 | 51.65578 | 6.88341 | 327° | 33km/h | 26302m | 5.8m/s | -48.8°C | 0.3% | 22.2hPa | 2.6V | 18:12:15 | 02:16:03 | 00:00:00 | i |
| DL8DAS-15 | 2026-09-03 13:05:39 | 51.65578 | 6.88341 | 328° | 33km/h | 26302m | 5.8m/s | -48.8°C | 0.9% | 22.3hPa | 2.5V | 00:00:00 | 00:00:00 | 00:00:00 | |
| DL1XH-15 | 2026-09-03 13:05:37 | 51.65565 | 6.88337 | 51° | 9km/h | 26263m | 6m/s | -48.9°C | 3.5% | 22.4hPa | 2.5V | 08:30:00 | 02:15:56 | 00:00:00 | i |
| BIOWL1-15 | 2026-09-03 13:05:36 | 51.65564 | 6.88355 | 103° | 11km/h | 26280m | 6.6m/s | -48.8°C | 0.2% | 22.3hPa | 2.6V | 18:12:15 | 02:15:59 | 00:00:00 | i |
| AA1-15 | 2026-09-03 13:05:35 | 51.65565 | 6.88349 | 106° | 20km/h | 26274m | 5.7m/s | -49°C | 0.3% | 22.4hPa | 2.6V | 18:12:15 | 02:15:58 | 00:00:00 | i |
| DL1XH-west | 2026-09-03 13:05:31 | 51.65558 | 6.88341 | 326° | 27km/h | 26252m | 5.3m/s | -48.9°C | 0.4% | 22.4hPa | 2.6V | 18:12:15 | 02:15:54 | 00:00:00 | i |
| DO2JMG | 2026-09-03 13:05:30 | 51.65552 | 6.88348 | 321° | 33km/h | 26247m | 4.1m/s | -48.9°C | 0.3% | 22.4hPa | 2.6V | 18:12:15 | 02:15:53 | 00:00:00 | i |
| DH3RM | 2026-09-03 13:05:29 | 51.65546 | 6.88355 | 324° | 27km/h | 26244m | 3.6m/s | -48.7°C | 0.9% | 22.5hPa | 2.5V | 00:00:00 | 00:00:00 | 00:00:00 | i |
| BIOWL1-15 | 2026-09-03 13:05:29 | 51.65537 | 6.88354 | 83° | 18km/h | 26225m | 6.6m/s | -48.6°C | 0.2% | 22.5hPa | 2.6V | 18:12:15 | 02:15:49 | 00:00:00 | i |
| DJ3KS | 2026-09-03 13:05:28 | 51.65546 | 6.88355 | 324° | 27km/h | 26244m | 3.6m/s | -48.7°C | 0.9% | 22.5hPa | 2.5V | 00:00:00 | 00:00:00 | 00:00:00 | |
| DL1XH-15 | 2026-09-03 13:05:27 | 51.65536 | 6.88332 | 42° | 11km/h | 26209m | 6m/s | -48.6°C | 3.4% | 22.6hPa | 2.5V | 08:30:00 | 02:15:46 | 00:00:00 | i |
| AA1-15 | 2026-09-03 13:05:24 | 51.65537 | 6.88337 | 85° | 18km/h | 26214m | 4.8m/s | -48.6°C | 0.2% | 22.5hPa | 2.5V | 18:12:15 | 02:15:47 | 00:00:00 | i |
| DL4BBY-15 | 2026-09-03 13:05:24 | 51.65537 | 6.88337 | 86° | 22km/h | 26214m | 4.7m/s | -48.4°C | 0% | 0hPa | 2.6V | 00:00:00 | 00:00:00 | 00:00:00 | i |
| DO3MHA-11 | 2026-09-03 13:05:23 | 51.65536 | 6.88332 | 43° | 20km/h | 26209m | 5.9m/s | -48.6°C | 3.4% | 22.5hPa | 2.6V | 00:00:00 | 02:15:46 | 00:00:00 | |
| DL3AQ-11 | 2026-09-03 13:05:22 | 51.65528 | 6.88335 | 324° | 26km/h | 26197m | 5.4m/s | -48.7°C | 0.9% | 22.6hPa | 2.6V | 00:00:00 | 00:00:00 | 00:00:00 | |
| DM0DOS-11 | 2026-09-03 13:05:21 | 51.65509 | 6.88338 | 82° | 26km/h | 26169m | 6.2m/s | -48.8°C | 3.4% | 22.7hPa | 2.6V | 08:30:00 | 02:15:39 | 00:00:00 | i |
| DL1XH-west | 2026-09-03 13:05:21 | 51.65528 | 6.88335 | 325° | 26km/h | 26197m | 5.4m/s | -48.7°C | 0.2% | 22.6hPa | 2.6V | 18:12:15 | 02:15:44 | 00:00:00 | i |
| DO2JMG | 2026-09-03 13:05:19 | 51.65517 | 6.88347 | 331° | 22km/h | 26188m | 4.2m/s | -48.7°C | 0.2% | 22.6hPa | 2.5V | 18:12:15 | 02:15:42 | 00:00:00 | i |
| BIOWL1-15 | 2026-09-03 13:05:18 | 51.65509 | 6.88338 | 83° | 26km/h | 26169m | 6.2m/s | -48.8°C | 0.2% | 22.7hPa | 2.6V | 18:12:15 | 02:15:39 | 00:00:00 | i |
| AA1-15 | 2026-09-03 13:05:14 | 51.65507 | 6.88320 | 63° | 18km/h | 26160m | 5.3m/s | -49.1°C | 0.3% | 22.7hPa | 2.5V | 18:12:15 | 02:15:37 | 00:00:00 | i |
| DL1XH-west | 2026-09-03 13:05:10 | 51.65490 | 6.88332 | 312° | 22km/h | 26138m | 2.6m/s | -49.1°C | 0.3% | 22.8hPa | 2.6V | 18:12:15 | 02:15:33 | 00:00:00 | i |
| DM0DOS-11 | 2026-09-03 13:05:09 | 51.65487 | 6.88317 | 91° | 33km/h | 26114m | 5.2m/s | -49°C | 3.3% | 22.9hPa | 2.6V | 08:30:00 | 02:15:29 | 00:00:00 | i |
| DO2JMG | 2026-09-03 13:05:08 | 51.65486 | 6.88335 | 82° | 9km/h | 26128m | 7.3m/s | -49.3°C | 0.3% | 22.9hPa | 2.5V | 18:12:15 | 02:15:31 | 00:00:00 | i |
| AA1-15 | 2026-09-03 13:05:04 | 51.65483 | 6.88296 | 42° | 20km/h | 26105m | 5.3m/s | -49.2°C | 0.3% | 22.9hPa | 2.5V | 18:12:15 | 02:15:27 | 00:00:00 | i |
| DJ2KF-10 | 2026-09-03 13:05:04 | 51.65483 | 6.88296 | 43° | 24km/h | 26105m | 5.3m/s | -49.2°C | 3.4% | 22.9hPa | 2.6V | 00:00:00 | 02:15:27 | 00:00:00 | i |
| AU51GT2 | 2026-09-03 13:05:03 | 51.65470 | 6.88308 | 301° | 31km/h | 26088m | 3.8m/s | -49.0°C | 0.9% | 23.0hPa | 2.6V | 00:00:00 | 00:00:00 | 00:00:00 | |
| DM0DOS-11 | 2026-09-03 13:05:01 | 51.65455 | 6.88294 | 51° | 24km/h | 26058m | 3.7m/s | -49.1°C | 3.5% | 23.1hPa | 2.6V | 08:30:00 | 02:15:18 | 00:00:00 | i |
| HSKMA3-T | 2026-09-03 13:04:59 | 51.65464 | 6.88323 | 326° | 9km/h | 26080m | 5.1m/s | -49.2°C | 0.4% | 23hPa | 2.5V | 18:12:15 | 02:15:22 | 00:00:00 | i |
| DO2JMG | 2026-09-03 13:04:57 | 51.65461 | 6.88314 | 74° | 26km/h | 26067m | 6.6m/s | -49.3°C | 0.4% | 23.1hPa | 2.6V | 18:12:15 | 02:15:20 | 00:00:00 | i |
| AA1-15 | 2026-09-03 13:04:53 | 51.65448 | 6.88292 | 310° | 22km/h | 26048m | 7m/s | -49.4°C | 0.3% | 23.1hPa | 2.5V | 18:12:15 | 02:15:16 | 00:00:00 | i |
| DL3AQ-11 | 2026-09-03 13:04:53 | 51.65445 | 6.88302 | 281° | 33km/h | 26041m | 6.6m/s | -49.4°C | 0.9% | 23.1hPa | 2.6V | 00:00:00 | 00:00:00 | 00:00:00 | i |
| WPPR-10 | 2026-09-03 13:04:52 | 51.65445 | 6.88302 | 281° | 33km/h | 26041m | 6.6m/s | -49.4°C | 0.9% | 23.1hPa | 2.6V | 00:00:00 | 00:00:00 | 00:00:00 | |
| GOEST3-10 | 2026-09-03 13:04:51 | 51.65444 | 6.88316 | 268° | 20km/h | 26036m | 4.4m/s | -49.2°C | 3.4% | 23.1hPa | 2.6V | 00:00:00 | 02:15:14 | 08:30:00 | |
| DM0DOS-11 | 2026-09-03 13:04:50 | 51.65440 | 6.88317 | 40° | 35km/h | 26010m | 5.8m/s | -49.3°C | 3.5% | 23.3hPa | 2.6V | 08:30:00 | 02:15:09 | 00:00:00 | i |
| HSKMA3-T | 2026-09-03 13:04:49 | 51.65447 | 6.88334 | 231° | 7km/h | 26027m | 4.3m/s | -49.2°C | 0.3% | 23.2hPa | 2.5V | 18:12:15 | 02:15:12 | 00:00:00 | i |
| DL1XH-west | 2026-09-03 13:04:48 | 51.65447 | 6.88333 | 76° | 11km/h | 26022m | 5.8m/s | -49.2°C | 0.3% | 23.2hPa | 2.5V | 18:12:15 | 02:15:11 | 00:00:00 | i |
| BIOWL1-15 | 2026-09-03 13:04:48 | 51.65440 | 6.88317 | 41° | 35km/h | 26010m | 5.8m/s | -49.3°C | 0.3% | 23.3hPa | 2.6V | 18:12:15 | 02:15:09 | 00:00:00 | i |
| DL1XH-15 | 2026-09-03 13:04:47 | 51.65418 | 6.88314 | 316° | 27km/h | 25995m | 5.2m/s | -49.6°C | 3.7% | 23.3hPa | 2.5V | 08:30:00 | 02:15:06 | 00:00:00 | i |
| DO2JMG | 2026-09-03 13:04:47 | 51.65445 | 6.88326 | 57° | 26km/h | 26017m | 6m/s | -49.2°C | 0.3% | 23.2hPa | 2.6V | 18:12:15 | 02:15:10 | 00:00:00 | i |
| DO1YAY-16 | 2026-09-03 13:04:47 | 51.65440 | 6.88317 | 40° | 33km/h | 26011m | 5.8m/s | -49.3°C | 0.9% | 23.3hPa | 2.5V | 00:00:00 | 00:00:00 | 00:00:00 | i |
| AA1-15 | 2026-09-03 13:04:43 | 51.65418 | 6.88314 | 317° | 27km/h | 25995m | 5.2m/s | -49.6°C | 0.5% | 23.3hPa | 2.5V | 18:12:15 | 02:15:06 | 00:00:00 | i |
| HSKMA3-T | 2026-09-03 13:04:39 | 51.65421 | 6.88341 | 156° | 11km/h | 25976m | 5.7m/s | -49.6°C | 0.4% | 23.4hPa | 2.5V | 18:12:15 | 02:15:02 | 00:00:00 | i |
| DL1XH-west | 2026-09-03 13:04:38 | 51.65422 | 6.88337 | 89° | 16km/h | 25970m | 6.2m/s | -49.5°C | 0.4% | 23.4hPa | 2.5V | 18:12:15 | 02:15:01 | 00:00:00 | i |
| DO2JMG | 2026-09-03 13:04:37 | 51.65420 | 6.88329 | 58° | 26km/h | 25964m | 5.7m/s | -49.5°C | 0.4% | 23.4hPa | 2.7V | 18:12:15 | 02:15:00 | 00:00:00 | i |
| BIOWL1-15 | 2026-09-03 13:04:35 | 51.65409 | 6.88317 | 7° | 27km/h | 25954m | 4.6m/s | -49.8°C | 0.4% | 23.5hPa | 2.6V | 18:12:15 | 02:14:58 | 00:00:00 | i |
| AA1-15 | 2026-09-03 13:04:33 | 51.65399 | 6.88331 | 250° | 20km/h | 25939m | 5m/s | -49.4°C | 0.3% | 23.5hPa | 2.6V | 18:12:15 | 02:14:55 | 00:00:00 | i |
| DL1XH-west | 2026-09-03 13:04:28 | 51.65408 | 6.88330 | 70° | 20km/h | 25919m | 5.9m/s | -49.3°C | 0.4% | 23.6hPa | 2.5V | 18:12:15 | 02:14:51 | 00:00:00 | i |
| DO2JMG | 2026-09-03 13:04:26 | 51.65400 | 6.88318 | 20° | 24km/h | 25908m | 4.8m/s | -49.3°C | 0.3% | 23.6hPa | 2.6V | 18:12:15 | 02:14:49 | 00:00:00 | i |
| BIOWL1-15 | 2026-09-03 13:04:24 | 51.65402 | 6.88337 | 132° | 7km/h | 25877m | 6.1m/s | -49.1°C | 0.3% | 23.7hPa | 2.6V | 18:12:15 | 02:14:43 | 00:00:00 | i |
| AA1-15 | 2026-09-03 13:04:21 | 51.65399 | 6.88337 | 200° | 15km/h | 25882m | 4.4m/s | -49.2°C | 0.4% | 23.7hPa | 2.6V | 18:12:15 | 02:14:44 | 00:00:00 | i |
| HSKMA3-T | 2026-09-03 13:04:18 | 51.65398 | 6.88328 | 35° | 24km/h | 25865m | 5.8m/s | -49.2°C | 0.3% | 23.8hPa | 2.5V | 18:12:15 | 02:14:41 | 00:00:00 | i |
| DL1XH-west | 2026-09-03 13:04:17 | 51.65393 | 6.88324 | 16° | 24km/h | 25860m | 4.5m/s | -49.3°C | 0.4% | 23.8hPa | 2.6V | 18:12:15 | 02:14:40 | 00:00:00 | i |
| DL1XH-15 | 2026-09-03 13:04:17 | 51.65388 | 6.88337 | 215° | 22km/h | 25837m | 5.1m/s | -49.2°C | 3.6% | 23.9hPa | 2.5V | 08:30:00 | 02:14:36 | 00:00:00 | i |
| BIOWL1-15 | 2026-09-03 13:04:16 | 51.65385 | 6.88331 | 240° | 16km/h | 25843m | 5.8m/s | -49.3°C | 0.4% | 23.9hPa | 2.5V | 18:12:15 | 02:14:37 | 00:00:00 | i |
| DO2JMG | 2026-09-03 13:04:15 | 51.65385 | 6.88326 | 293° | 11km/h | 25849m | 6m/s | -49.3°C | 0.4% | 23.9hPa | 2.6V | 18:12:15 | 02:14:38 | 00:00:00 | i |
| AA1-15 | 2026-09-03 13:04:10 | 51.65397 | 6.88339 | 65° | 7km/h | 25823m | 6.1m/s | -49.1°C | 0.4% | 23.9hPa | 2.6V | 18:12:15 | 02:14:33 | 00:00:00 | i |
| DB0NH | 2026-09-03 13:04:10 | 51.65397 | 6.88339 | 66° | 15km/h | 25823m | 6.1m/s | -49.0°C | 3.5% | 23.9hPa | 2.6V | 00:00:00 | 02:14:33 | 00:00:00 | i |
| DM0DOS-11 | 2026-09-03 13:04:09 | 51.65383 | 6.88337 | 284° | 11km/h | 25801m | 6.4m/s | -49.2°C | 3.6% | 24hPa | 2.6V | 08:30:00 | 02:14:29 | 00:00:00 | i |
| DL1XH-15 | 2026-09-03 13:04:07 | 51.65395 | 6.88347 | 181° | 26km/h | 25784m | 4.2m/s | -49.1°C | 3.5% | 24.1hPa | 2.5V | 08:30:00 | 02:14:26 | 00:00:00 | i |
| DL1XH-west | 2026-09-03 13:04:07 | 51.65386 | 6.88334 | 344° | 16km/h | 25807m | 5m/s | -49.2°C | 0.3% | 24hPa | 2.6V | 18:12:15 | 02:14:30 | 00:00:00 | i |
| DO2JMG | 2026-09-03 13:04:04 | 51.65389 | 6.88346 | 199° | 24km/h | 25789m | 5.4m/s | -49.1°C | 0.3% | 24.1hPa | 2.5V | 18:12:15 | 02:14:27 | 00:00:00 | i |
| BIOWL1-15 | 2026-09-03 13:04:03 | 51.65395 | 6.88347 | 182° | 26km/h | 25784m | 4.2m/s | -49.1°C | 0.4% | 24.1hPa | 2.5V | 18:12:15 | 02:14:26 | 00:00:00 | i |
| DO9LL-15 | 2026-09-03 13:04:03 | 51.65395 | 6.88347 | 182° | 16km/h | 25785m | 4.2m/s | -49.1°C | 3.5% | 24.0hPa | 2.6V | 00:00:00 | 02:14:26 | 00:00:00 | i |
| DL3AQ-11 | 2026-09-03 13:04:02 | 51.65402 | 6.88343 | 105° | 9km/h | 25774m | 6.0m/s | -49.2°C | 0.9% | 24.1hPa | 2.6V | 00:00:00 | 00:00:00 | 00:00:00 | |
| DM0DOS-11 | 2026-09-03 13:04:01 | 51.65393 | 6.88333 | 202° | 11km/h | 25747m | 6m/s | -49.2°C | 3.5% | 24.2hPa | 2.6V | 08:30:00 | 02:14:19 | 00:00:00 | i |
| AA1-15 | 2026-09-03 13:04:00 | 51.65402 | 6.88338 | 52° | 15km/h | 25768m | 5.9m/s | -49.1°C | 0.3% | 24.1hPa | 2.6V | 18:12:15 | 02:14:23 | 00:00:00 | i |
| DL1XH-15 | 2026-09-03 13:03:57 | 51.65409 | 6.88333 | 165° | 24km/h | 25732m | 4.2m/s | -49.2°C | 3.6% | 24.3hPa | 2.5V | 08:30:00 | 02:14:16 | 00:00:00 | i |
| HSKMA3-T | 2026-09-03 13:03:56 | 51.65393 | 6.88333 | 203° | 11km/h | 25747m | 6m/s | -49.2°C | 0.3% | 24.2hPa | 2.6V | 18:12:15 | 02:14:19 | 00:00:00 | i |
| BIOWL1-15 | 2026-09-03 13:03:54 | 51.65414 | 6.88330 | 141° | 13km/h | 25726m | 5.7m/s | -49.4°C | 0.4% | 24.3hPa | 2.6V | 18:12:15 | 02:14:15 | 00:00:00 | i |
| DO2JMG | 2026-09-03 13:03:54 | 51.65403 | 6.88334 | 177° | 29km/h | 25736m | 4.8m/s | -49.2°C | 0.4% | 24.2hPa | 2.5V | 18:12:15 | 02:14:17 | 00:00:00 | i |
| DL8DAS-14 | 2026-09-03 13:03:54 | 51.65409 | 6.88333 | 165° | 22km/h | 25732m | 4.2m/s | -49.3°C | 0.9% | 24.3hPa | 2.6V | 00:00:00 | 00:00:00 | 00:00:00 | i |
| EDDB2-11 | 2026-09-03 13:03:51 | 51.65412 | 6.88324 | 23° | 15km/h | 25714m | 5.7m/s | -49.4°C | 0.9% | 24.3hPa | 2.6V | 00:00:00 | 00:00:00 | 00:00:00 | |
| WPPR-10 | 2026-09-03 13:03:50 | 51.65412 | 6.88324 | 23° | 15km/h | 25714m | 5.7m/s | -49.4°C | 0.9% | 24.3hPa | 2.6V | 00:00:00 | 00:00:00 | 00:00:00 | |
| DM0DOS-11 | 2026-09-03 13:03:49 | 51.65407 | 6.88315 | 149° | 20km/h | 25694m | 6m/s | -49.4°C | 3.6% | 24.4hPa | 2.6V | 08:30:00 | 02:14:09 | 00:00:00 | i |
| AA1-15 | 2026-09-03 13:03:49 | 51.65408 | 6.88322 | 13° | 18km/h | 25710m | 3.6m/s | -49.3°C | 0.4% | 24.4hPa | 2.5V | 18:12:15 | 02:14:12 | 00:00:00 | i |
| DD1CC1-15 | 2026-09-03 13:03:48 | 51.65408 | 6.88322 | 14° | 18km/h | 25710m | 3.6m/s | -49.3°C | 0.9% | 24.4hPa | 2.5V | 00:00:00 | 00:00:00 | 00:00:00 | |
| DL1XH-15 | 2026-09-03 13:03:47 | 51.65423 | 6.88298 | 129° | 18km/h | 25678m | 5.3m/s | -49.2°C | 3.5% | 24.5hPa | 2.5V | 08:30:00 | 02:14:06 | 00:00:00 | i |
| DL1XH-west | 2026-09-03 13:03:46 | 51.65407 | 6.88315 | 149° | 20km/h | 25694m | 6m/s | -49.4°C | 0.4% | 24.4hPa | 2.6V | 18:12:15 | 02:14:09 | 00:00:00 | i |
| HSKMA3-T | 2026-09-03 13:03:45 | 51.65412 | 6.88310 | 152° | 29km/h | 25688m | 5.3m/s | -49.3°C | 0.5% | 24.4hPa | 2.6V | 18:12:15 | 02:14:08 | 00:00:00 | i |
| BIOWL1-15 | 2026-09-03 13:03:44 | 51.65424 | 6.88293 | 85° | 11km/h | 25673m | 5.9m/s | -49.1°C | 0.3% | 24.5hPa | 2.6V | 18:12:15 | 02:14:05 | 00:00:00 | i |
| NBG1-10 | 2026-09-03 13:03:43 | 51.65423 | 6.88298 | 130° | 16km/h | 25679m | 5.3m/s | 0°C | 0% | 0hPa | 2.6V | 00:00:00 | 02:14:06 | 00:00:00 | i |
| DO2JMG | 2026-09-03 13:03:43 | 51.65423 | 6.88298 | 130° | 20km/h | 25678m | 5.3m/s | -49.2°C | 0.4% | 24.5hPa | 2.5V | 18:12:15 | 02:14:06 | 00:00:00 | i |
| DM0DOS-11 | 2026-09-03 13:03:41 | 51.65414 | 6.88288 | 148° | 16km/h | 25639m | 5.2m/s | -49.2°C | 3.6% | 24.6hPa | 2.6V | 08:30:00 | 02:13:59 | 00:00:00 | i |
| AA1-15 | 2026-09-03 13:03:38 | 51.65411 | 6.88290 | 342° | 5km/h | 25650m | 5.7m/s | -49.2°C | 0.4% | 24.6hPa | 2.5V | 18:12:15 | 02:14:01 | 00:00:00 | i |
| DL1XH-15 | 2026-09-03 13:03:37 | 51.65421 | 6.88271 | 71° | 15km/h | 25625m | 5.7m/s | -49.1°C | 3.6% | 24.7hPa | 2.5V | 08:30:00 | 02:13:56 | 00:00:00 | i |
| HSKMA3-T | 2026-09-03 13:03:35 | 51.65417 | 6.88283 | 136° | 22km/h | 25635m | 3.8m/s | -49.1°C | 0.4% | 24.6hPa | 2.6V | 18:12:15 | 02:13:58 | 00:00:00 | i |
| DO2JMG | 2026-09-03 13:03:33 | 51.65420 | 6.88271 | 72° | 15km/h | 25625m | 5.7m/s | -49.1°C | 0.4% | 24.7hPa | 2.5V | 18:12:15 | 02:13:56 | 00:00:00 | i |
| BIOWL1-15 | 2026-09-03 13:03:32 | 51.65418 | 6.88266 | 31° | 18km/h | 25619m | 5.7m/s | -49.1°C | 0.4% | 24.7hPa | 2.5V | 18:12:15 | 02:13:55 | 00:00:00 | i |
| AA1-15 | 2026-09-03 13:03:28 | 51.65405 | 6.88262 | 151° | 5km/h | 25599m | 6.5m/s | -49°C | 0.4% | 24.8hPa | 2.6V | 18:12:15 | 02:13:51 | 00:00:00 | i |
| HSKMA3-T | 2026-09-03 13:03:24 | 51.65413 | 6.88243 | 62° | 18km/h | 25577m | 6.1m/s | -49.2°C | 0.3% | 24.9hPa | 2.6V | 18:12:15 | 02:13:47 | 00:00:00 | i |
| DO2JMG | 2026-09-03 13:03:22 | 51.65404 | 6.88232 | 19° | 26km/h | 25565m | 4.8m/s | -48.9°C | 0.3% | 24.9hPa | 2.5V | 18:12:15 | 02:13:45 | 00:00:00 | i |
| DM0DOS-11 | 2026-09-03 13:03:21 | 51.65407 | 6.88225 | 80° | 2km/h | 25530m | 5.8m/s | -48.6°C | 3.5% | 25hPa | 2.6V | 08:30:00 | 02:13:38 | 00:00:00 | i |
| AA1-15 | 2026-09-03 13:03:18 | 51.65397 | 6.88227 | 176° | 16km/h | 25544m | 5.1m/s | -48.6°C | 0.3% | 25hPa | 2.6V | 18:12:15 | 02:13:41 | 00:00:00 | i |
| BIOWL1-15 | 2026-09-03 13:03:16 | 51.65389 | 6.88209 | 91° | 11km/h | 25505m | 6m/s | -48.7°C | 0.3% | 25.1hPa | 2.6V | 18:12:15 | 02:13:33 | 00:00:00 | i |
| DL1XH-west | 2026-09-03 13:03:13 | 51.65401 | 6.88221 | 16° | 24km/h | 25519m | 4.9m/s | -48.5°C | 0.2% | 25.1hPa | 2.6V | 18:12:15 | 02:13:36 | 00:00:00 | i |
| DO2JMG | 2026-09-03 13:03:12 | 51.65395 | 6.88218 | 23° | 26km/h | 25515m | 3.4m/s | -48.6°C | 0.3% | 25.1hPa | 2.6V | 18:12:15 | 02:13:35 | 00:00:00 | i |
| GOEST3-10 | 2026-09-03 13:03:11 | 51.65390 | 6.88214 | 40° | 15km/h | 25511m | 5.0m/s | -48.6°C | 3.4% | 25.1hPa | 2.6V | 00:00:00 | 02:13:34 | 00:00:00 | |
| DL8DAS-15 | 2026-09-03 13:03:09 | 51.65389 | 6.88209 | 92° | 11km/h | 25505m | 6.0m/s | -48.7°C | 0.9% | 25.1hPa | 2.6V | 00:00:00 | 00:00:00 | 00:00:00 | |
| DL1XH-15 | 2026-09-03 13:03:07 | 51.65390 | 6.88208 | 24° | 27km/h | 25467m | 4.3m/s | -48.6°C | 3.4% | 25.2hPa | 2.6V | 08:30:00 | 02:13:26 | 00:00:00 | i |
| AA1-15 | 2026-09-03 13:03:07 | 51.65398 | 6.88206 | 202° | 16km/h | 25488m | 4.4m/s | -48.7°C | 0.3% | 25.2hPa | 2.5V | 18:12:15 | 02:13:30 | 00:00:00 | i |
| DL1XH-west | 2026-09-03 13:03:03 | 51.65390 | 6.88208 | 24° | 27km/h | 25467m | 4.3m/s | -48.6°C | 0.3% | 25.3hPa | 2.6V | 18:12:15 | 02:13:26 | 00:00:00 | i |
| DO2JMG | 2026-09-03 13:03:02 | 51.65385 | 6.88202 | 40° | 22km/h | 25463m | 4.6m/s | -48.6°C | 0.3% | 25.3hPa | 2.5V | 18:12:15 | 02:13:25 | 00:00:00 | i |
| BIOWL1-15 | 2026-09-03 13:02:59 | 51.65386 | 6.88192 | 183° | 16km/h | 25445m | 5.1m/s | -48.7°C | 0.2% | 25.4hPa | 2.6V | 18:12:15 | 02:13:22 | 00:00:00 | i |
| BUE01 | 2026-09-03 13:02:59 | 51.65390 | 6.88194 | 210° | 16km/h | 25441m | 3.8m/s | -48.7°C | 0.9% | 25.4hPa | 2.6V | 00:00:00 | 00:00:00 | 00:00:00 | i |
| AU51GT2 | 2026-09-03 13:02:58 | 51.65390 | 6.88194 | 210° | 16km/h | 25441m | 3.8m/s | -48.7°C | 0.9% | 25.4hPa | 2.6V | 00:00:00 | 00:00:00 | 00:00:00 | |
| DL1XH-15 | 2026-09-03 13:02:57 | 51.65372 | 6.88206 | 9° | 26km/h | 25413m | 3.7m/s | -48.6°C | 3.3% | 25.4hPa | 2.6V | 08:30:00 | 02:13:16 | 00:00:00 | i |
| AA1-15 | 2026-09-03 13:02:57 | 51.65392 | 6.88198 | 254° | 13km/h | 25436m | 5.2m/s | -48.6°C | 0.3% | 25.4hPa | 2.6V | 18:12:15 | 02:13:20 | 00:00:00 | i |
| DL1XH-west | 2026-09-03 13:02:52 | 51.65367 | 6.88205 | 17° | 13km/h | 25409m | 5.9m/s | -48.6°C | 0.3% | 25.5hPa | 2.6V | 18:12:15 | 02:13:15 | 00:00:00 | i |
| DO2JMG | 2026-09-03 13:02:51 | 51.65366 | 6.88203 | 147° | 4km/h | 25402m | 6.7m/s | -48.6°C | 0.3% | 25.5hPa | 2.6V | 18:12:15 | 02:13:14 | 00:00:00 | i |
| GOEST3-10 | 2026-09-03 13:02:51 | 51.65366 | 6.88203 | 147° | 11km/h | 25403m | 6.6m/s | -48.6°C | 3.4% | 25.5hPa | 2.6V | 00:00:00 | 02:13:14 | 00:00:00 | i |
| DM0DOS-11 | 2026-09-03 13:02:50 | 51.65372 | 6.88206 | 13° | 26km/h | 25369m | 5.7m/s | -49.2°C | 3.5% | 25.7hPa | 2.5V | 08:30:00 | 02:13:08 | 00:00:00 | i |
| BIOWL1-15 | 2026-09-03 13:02:49 | 51.65373 | 6.88205 | 193° | 22km/h | 25391m | 4.6m/s | -48.7°C | 0.3% | 25.6hPa | 2.5V | 18:12:15 | 02:13:12 | 00:00:00 | i |
| AA1-15 | 2026-09-03 13:02:46 | 51.65377 | 6.88208 | 7° | 15km/h | 25375m | 6.4m/s | -49.1°C | 0.3% | 25.6hPa | 2.6V | 18:12:15 | 02:13:09 | 00:00:00 | i |
| DK5PH-5 | 2026-09-03 13:02:46 | 51.65377 | 6.88208 | 8° | 15km/h | 25376m | 6.3m/s | -49.1°C | 3.4% | 25.6hPa | 2.6V | 00:00:00 | 02:13:09 | 00:00:00 | i |
| DL1XH-15 | 2026-09-03 13:02:44 | 51.65360 | 6.88201 | 22° | 16km/h | 25360m | 5m/s | -49.1°C | 3.5% | 25.7hPa | 2.6V | 08:30:00 | 02:13:06 | 00:00:00 | |
| DL1XH-west | 2026-09-03 13:02:42 | 51.65358 | 6.88198 | 84° | 4km/h | 25354m | 6.2m/s | -49.2°C | 0.4% | 25.7hPa | 2.6V | 18:12:15 | 02:13:05 | 00:00:00 | i |
| DO2JMG | 2026-09-03 13:02:41 | 51.65360 | 6.88198 | 180° | 15km/h | 25348m | 6.5m/s | -49.2°C | 0.4% | 25.7hPa | 2.6V | 18:12:15 | 02:13:04 | 00:00:00 | i |
| GOEST3-10 | 2026-09-03 13:02:41 | 51.65360 | 6.88198 | 181° | 15km/h | 25348m | 6.5m/s | -49.1°C | 3.6% | 25.7hPa | 2.5V | 00:00:00 | 02:13:04 | 00:00:00 | i |
| DM0DOS-11 | 2026-09-03 13:02:40 | 51.65365 | 6.88203 | 9° | 26km/h | 25315m | 5.1m/s | -49.3°C | 3.6% | 25.9hPa | 2.5V | 08:30:00 | 02:12:58 | 00:00:00 | i |
| HSKMA3-T | 2026-09-03 13:02:39 | 51.65370 | 6.88200 | 196° | 22km/h | 25337m | 3.9m/s | -49.1°C | 0.4% | 25.8hPa | 2.5V | 18:12:15 | 02:13:02 | 00:00:00 | i |
| BIOWL1-15 | 2026-09-03 13:02:38 | 51.65374 | 6.88203 | 209° | 9km/h | 25333m | 5m/s | -49.2°C | 0.4% | 25.8hPa | 2.6V | 18:12:15 | 02:13:01 | 00:00:00 | i |
| DL1XH-15 | 2026-09-03 13:02:37 | 51.65356 | 6.88199 | 36° | 9km/h | 25305m | 5.3m/s | -49.3°C | 3.5% | 25.9hPa | 2.6V | 08:30:00 | 02:12:56 | 00:00:00 | i |
| AA1-15 | 2026-09-03 13:02:36 | 51.65371 | 6.88204 | 3° | 20km/h | 25321m | 6.3m/s | -49.3°C | 0.4% | 25.9hPa | 2.6V | 18:12:15 | 02:12:59 | 00:00:00 | i |
| DO2JMG | 2026-09-03 13:02:31 | 51.65359 | 6.88196 | 175° | 18km/h | 25295m | 4.8m/s | -49.2°C | 0.3% | 25.9hPa | 2.6V | 18:12:15 | 02:12:54 | 00:00:00 | i |
| BIOWL1-15 | 2026-09-03 13:02:28 | 51.65369 | 6.88198 | 276° | 4km/h | 25280m | 6.1m/s | -49.2°C | 0.3% | 26hPa | 2.5V | 18:12:15 | 02:12:51 | 00:00:00 | i |
| BUE01 | 2026-09-03 13:02:28 | 51.65368 | 6.88200 | 335° | 11km/h | 25274m | 6.2m/s | -49.1°C | 0.9% | 26.0hPa | 2.5V | 00:00:00 | 00:00:00 | 00:00:00 | i |
| DL1XH-15 | 2026-09-03 13:02:27 | 51.65358 | 6.88207 | 194° | 7km/h | 25252m | 5.7m/s | -49.2°C | 3.6% | 26.1hPa | 2.5V | 08:30:00 | 02:12:46 | 00:00:00 | i |
| AA1-15 | 2026-09-03 13:02:25 | 51.65360 | 6.88204 | 342° | 16km/h | 25263m | 5m/s | -49.1°C | 0.3% | 26.1hPa | 2.6V | 18:12:15 | 02:12:48 | 00:00:00 | i |
| DO2JMG | 2026-09-03 13:02:20 | 51.65371 | 6.88206 | 171° | 20km/h | 25237m | 4.4m/s | -49.2°C | 0.3% | 26.2hPa | 2.6V | 18:12:15 | 02:12:43 | 00:00:00 | i |
| HSKMA3-T | 2026-09-03 13:02:18 | 51.65376 | 6.88205 | 40° | 2km/h | 25226m | 5.5m/s | -49.3°C | 0.4% | 26.2hPa | 2.5V | 18:12:15 | 02:12:41 | 00:00:00 | i |
| AA1-15 | 2026-09-03 13:02:15 | 51.65368 | 6.88208 | 335° | 13km/h | 25212m | 4.5m/s | -49.4°C | 0.3% | 26.3hPa | 2.6V | 18:12:15 | 02:12:38 | 00:00:00 | i |
| DO2JMG | 2026-09-03 13:02:10 | 51.65385 | 6.88214 | 183° | 20km/h | 25183m | 5.6m/s | -49.3°C | 0.3% | 26.4hPa | 2.6V | 18:12:15 | 02:12:33 | 00:00:00 | i |
| DL1XH-west | 2026-09-03 13:02:09 | 51.65388 | 6.88215 | 193° | 9km/h | 25177m | 6.1m/s | -49.3°C | 0.3% | 26.4hPa | 2.6V | 18:12:15 | 02:12:32 | 00:00:00 | i |
| BIOWL1-15 | 2026-09-03 13:02:08 | 51.65389 | 6.88216 | 306° | 4km/h | 25171m | 5.9m/s | -49.3°C | 0.3% | 26.4hPa | 2.6V | 18:12:15 | 02:12:31 | 00:00:00 | i |
| AA1-15 | 2026-09-03 13:02:04 | 51.65387 | 6.88222 | 190° | 15km/h | 25150m | 6.4m/s | -49.5°C | 0.4% | 26.5hPa | 2.6V | 18:12:15 | 02:12:27 | 00:00:00 | i |
| DO2JMG | 2026-09-03 13:02:00 | 51.65409 | 6.88225 | 305° | 4km/h | 25122m | 6.5m/s | -49.9°C | 0.5% | 26.6hPa | 2.6V | 18:12:15 | 02:12:22 | 00:00:00 | i |
| DL1XH-west | 2026-09-03 13:01:58 | 51.65407 | 6.88226 | 343° | 11km/h | 25116m | 5.6m/s | -50°C | 0.4% | 26.6hPa | 2.6V | 18:12:15 | 02:12:21 | 00:00:00 | i |
| HSKMA3-T | 2026-09-03 13:01:57 | 51.65405 | 6.88227 | 352° | 7km/h | 25111m | 4.1m/s | -49.9°C | 0.4% | 0hPa | 2.6V | 18:12:15 | 02:12:20 | 00:00:00 | i |
| BUE01 | 2026-09-03 13:01:57 | 51.65405 | 6.88227 | 154° | 2km/h | 25106m | 6.3m/s | -49.8°C | 1.0% | 26.7hPa | 2.5V | 00:00:00 | 00:00:00 | 00:00:00 | i |
| AU51GT2 | 2026-09-03 13:01:56 | 51.65405 | 6.88227 | 154° | 2km/h | 25106m | 6.3m/s | -49.8°C | 1.0% | 26.7hPa | 2.5V | 00:00:00 | 00:00:00 | 00:00:00 | |
| DM0DOS-11 | 2026-09-03 13:01:55 | 51.65407 | 6.88225 | 163° | 16km/h | 25100m | 6.2m/s | -49.6°C | 3.6% | 26.7hPa | 2.5V | 08:30:00 | 02:12:18 | 00:00:00 | i |
| AA1-15 | 2026-09-03 13:01:54 | 51.65412 | 6.88223 | 163° | 27km/h | 25094m | 5.3m/s | -49.6°C | 0.4% | 26.8hPa | 2.6V | 18:12:15 | 02:12:17 | 00:00:00 | i |
| DL4BBY-15 | 2026-09-03 13:01:54 | 51.65412 | 6.88223 | 164° | 15km/h | 25094m | 5.2m/s | -49.4°C | 0% | 0hPa | 2.6V | 00:00:00 | 00:00:00 | 00:00:00 | i |
| GOEST3-10 | 2026-09-03 13:01:51 | 51.65430 | 6.88213 | 154° | 7km/h | 25079m | 6.3m/s | -49.7°C | 3.6% | 26.8hPa | 2.6V | 00:00:00 | 02:12:14 | 08:30:00 | |
| DM0DOS-11 | 2026-09-03 13:01:50 | 51.65430 | 6.88216 | 178° | 22km/h | 25045m | 5.9m/s | -49.7°C | 3.6% | 27hPa | 2.6V | 08:30:00 | 02:12:08 | 00:00:00 | i |
| DO2JMG | 2026-09-03 13:01:49 | 51.65430 | 6.88211 | 351° | 11km/h | 25066m | 5.7m/s | -49.9°C | 0.4% | 26.9hPa | 2.5V | 18:12:15 | 02:12:12 | 00:00:00 | i |
| DL1XH-west | 2026-09-03 13:01:48 | 51.65427 | 6.88213 | 339° | 13km/h | 25061m | 3.8m/s | -50°C | 0.4% | 26.9hPa | 2.6V | 18:12:15 | 02:12:11 | 00:00:00 | i |
| BIOWL1-15 | 2026-09-03 13:01:48 | 51.65425 | 6.88214 | 304° | 5km/h | 25057m | 5.6m/s | -49.9°C | 0.4% | 26.9hPa | 2.6V | 18:12:15 | 02:12:10 | 00:00:00 | i |
| HSKMA3-T | 2026-09-03 13:01:46 | 51.65426 | 6.88216 | 194° | 11km/h | 25051m | 6.2m/s | -49.8°C | 0.4% | 0hPa | 2.6V | 18:12:15 | 02:12:09 | 00:00:00 | i |
| DL3AQ-11 | 2026-09-03 13:01:46 | 51.65430 | 6.88216 | 178° | 20km/h | 25045m | 5.9m/s | -49.7°C | 1.0% | 27.0hPa | 2.5V | 00:00:00 | 00:00:00 | 00:00:00 | i |
| AA1-15 | 2026-09-03 13:01:43 | 51.65443 | 6.88214 | 172° | 22km/h | 25034m | 5m/s | -49.8°C | 0.5% | 27hPa | 2.5V | 18:12:15 | 02:12:06 | 00:00:00 | i |
| SONCRA | 2026-09-03 13:01:43 | 51.65447 | 6.88213 | 179° | 11km/h | 25028m | 5.8m/s | -49.8°C | 0.9% | 27.0hPa | 2.6V | 00:00:00 | 00:00:00 | 00:00:00 | i |
| GOEST3-10 | 2026-09-03 13:01:41 | 51.65449 | 6.88214 | 248° | 9km/h | 25022m | 6.4m/s | -49.7°C | 3.6% | 27.0hPa | 2.6V | 00:00:00 | 02:12:04 | 00:00:00 | |
| DM0DOS-11 | 2026-09-03 13:01:40 | 51.65449 | 6.88226 | 164° | 22km/h | 24988m | 5.4m/s | -49.6°C | 3.7% | 27.2hPa | 2.6V | 08:30:00 | 02:11:58 | 00:00:00 | i |
| DO2JMG | 2026-09-03 13:01:38 | 51.65443 | 6.88224 | 309° | 11km/h | 25006m | 5.3m/s | -49.8°C | 0.4% | 27.1hPa | 2.5V | 18:12:15 | 02:12:01 | 00:00:00 | i |
| DL1XH-west | 2026-09-03 13:01:37 | 51.65442 | 6.88227 | 232° | 5km/h | 25000m | 6.1m/s | -49.8°C | 0.4% | 27.2hPa | 2.6V | 18:12:15 | 02:12:00 | 00:00:00 | i |
| HSKMA3-T | 2026-09-03 13:01:36 | 51.65444 | 6.88228 | 174° | 15km/h | 24994m | 5.9m/s | -49.8°C | 0.4% | 0hPa | 2.6V | 18:12:15 | 02:11:59 | 00:00:00 | i |
| AA1-15 | 2026-09-03 13:01:32 | 51.65459 | 6.88218 | 71° | 4km/h | 24973m | 6.8m/s | -49.7°C | 0.4% | 27.2hPa | 2.5V | 18:12:15 | 02:11:55 | 00:00:00 | i |
| GOEST3-10 | 2026-09-03 13:01:31 | 51.65457 | 6.88217 | 1° | 11km/h | 24967m | 6.4m/s | -49.7°C | 3.6% | 27.2hPa | 2.6V | 00:00:00 | 02:11:54 | 00:00:00 | |
| DO3MHA-11 | 2026-09-03 13:01:30 | 51.65453 | 6.88217 | 351° | 13km/h | 24961m | 5.2m/s | -49.8°C | 3.7% | 27.3hPa | 2.6V | 00:00:00 | 02:11:53 | 00:00:00 | |
| DM0DOS-11 | 2026-09-03 13:01:29 | 51.65458 | 6.88210 | 143° | 22km/h | 24932m | 4.2m/s | -49.8°C | 3.7% | 27.4hPa | 2.6V | 08:30:00 | 02:11:48 | 00:00:00 | i |
| DO2JMG | 2026-09-03 13:01:28 | 51.65448 | 6.88219 | 83° | 0km/h | 24949m | 6.6m/s | -49.9°C | 0.5% | 27.3hPa | 2.6V | 18:12:15 | 02:11:51 | 00:00:00 | i |
| DL1XH-west | 2026-09-03 13:01:27 | 51.65450 | 6.88218 | 156° | 11km/h | 24943m | 6.2m/s | -49.7°C | 0.5% | 27.4hPa | 2.5V | 18:12:15 | 02:11:50 | 00:00:00 | i |
| BIOWL1-15 | 2026-09-03 13:01:25 | 51.65458 | 6.88210 | 143° | 22km/h | 24932m | 4.2m/s | -49.8°C | 0.5% | 27.4hPa | 2.6V | 18:12:15 | 02:11:48 | 00:00:00 | i |
| HSKMA3-T | 2026-09-03 13:01:23 | 51.65461 | 6.88202 | 63° | 7km/h | 24921m | 6.4m/s | -49.8°C | 0.5% | 0hPa | 2.6V | 18:12:15 | 02:11:46 | 00:00:00 | |
| DB0ND-19 | 2026-09-03 13:01:22 | 51.65455 | 6.88202 | 346° | 18km/h | 24909m | 5.1m/s | 0°C | -1.0% | -1.0hPa | 2.5V | 00:00:00 | 00:00:00 | 00:00:00 | i |
| AA1-15 | 2026-09-03 13:01:22 | 51.65459 | 6.88201 | 2° | 13km/h | 24915m | 6.2m/s | -49.9°C | 0.5% | 27.5hPa | 2.5V | 18:12:15 | 02:11:45 | 00:00:00 | i |
| GOEST3-10 | 2026-09-03 13:01:21 | 51.65455 | 6.88201 | 347° | 13km/h | 24909m | 5.0m/s | -49.9°C | 3.8% | 27.5hPa | 2.5V | 00:00:00 | 02:11:44 | 00:00:00 | |
| DO3MHA-11 | 2026-09-03 13:01:20 | 51.65451 | 6.88203 | 339° | 15km/h | 24905m | 4.4m/s | -49.9°C | 3.8% | 27.5hPa | 2.6V | 00:00:00 | 02:11:43 | 08:30:00 | |
| DM0DOS-11 | 2026-09-03 13:01:19 | 51.65463 | 6.88190 | 124° | 18km/h | 24876m | 5.8m/s | -49.5°C | 3.6% | 27.6hPa | 2.5V | 08:30:00 | 02:11:38 | 00:00:00 | i |
| DO9LL-15 | 2026-09-03 13:01:19 | 51.65449 | 6.88205 | 325° | 15km/h | 24899m | 6.4m/s | -49.8°C | 3.7% | 27.5hPa | 2.6V | 00:00:00 | 02:11:42 | 00:00:00 | i |
| DL8DAS-14 | 2026-09-03 13:01:18 | 51.65450 | 6.88204 | 157° | 9km/h | 24893m | 6.6m/s | -49.8°C | 1.0% | 27.6hPa | 2.6V | 00:00:00 | 00:00:00 | 00:00:00 | |
| DL1XH-15 | 2026-09-03 13:01:17 | 51.65462 | 6.88180 | 31° | 15km/h | 24863m | 6.1m/s | -49.4°C | 3.5% | 27.7hPa | 2.6V | 08:30:00 | 02:11:36 | 00:00:00 | i |
| DO2JMG | 2026-09-03 13:01:17 | 51.65454 | 6.88201 | 150° | 22km/h | 24886m | 5.8m/s | -49.8°C | 0.5% | 27.6hPa | 2.6V | 18:12:15 | 02:11:40 | 00:00:00 | i |
| DL1XH-west | 2026-09-03 13:01:16 | 51.65459 | 6.88196 | 141° | 26km/h | 24881m | 4.7m/s | -49.6°C | 0.4% | 27.6hPa | 2.5V | 18:12:15 | 02:11:39 | 00:00:00 | i |
| BIOWL1-15 | 2026-09-03 13:01:15 | 51.65455 | 6.88170 | 148° | 20km/h | 24835m | 5.6m/s | -49.3°C | 0.5% | 27.8hPa | 2.6V | 18:12:15 | 02:11:31 | 00:00:00 | i |
| HSKMA3-T | 2026-09-03 13:01:13 | 51.65462 | 6.88180 | 32° | 15km/h | 24863m | 6.1m/s | -49.4°C | 0.3% | 0hPa | 2.6V | 18:12:15 | 02:11:36 | 00:00:00 | i |
| AA1-15 | 2026-09-03 13:01:12 | 51.65458 | 6.88178 | 9° | 18km/h | 24858m | 5.3m/s | -49.4°C | 0.4% | 27.8hPa | 2.6V | 18:12:15 | 02:11:35 | 00:00:00 | i |
| GOEST3-10 | 2026-09-03 13:01:11 | 51.65454 | 6.88177 | 6° | 15km/h | 24853m | 4.4m/s | -49.2°C | 3.6% | 27.7hPa | 2.6V | 00:00:00 | 02:11:34 | 00:00:00 | |
| DO3MHA-11 | 2026-09-03 13:01:10 | 51.65451 | 6.88176 | 42° | 15km/h | 24848m | 6.3m/s | -49.2°C | 3.6% | 27.7hPa | 2.6V | 00:00:00 | 02:11:33 | 00:00:00 | |
| DO1YAY-16 | 2026-09-03 13:01:09 | 51.65452 | 6.88174 | 134° | 9km/h | 24842m | 6.4m/s | -49.2°C | 1.0% | 27.8hPa | 2.6V | 00:00:00 | 00:00:00 | 00:00:00 | |
| DL1XH-15 | 2026-09-03 13:01:08 | 51.65462 | 6.88159 | 340° | 15km/h | 24806m | 5.8m/s | -49.2°C | 3.4% | 27.9hPa | 2.6V | 08:30:00 | 02:11:26 | 00:00:00 | i |
| DO2JMG | 2026-09-03 13:01:07 | 51.65460 | 6.88165 | 149° | 24km/h | 24830m | 4.7m/s | -49.3°C | 0.4% | 27.9hPa | 2.6V | 18:12:15 | 02:11:30 | 00:00:00 | i |
| DL1XH-west | 2026-09-03 13:01:06 | 51.65464 | 6.88161 | 146° | 16km/h | 24825m | 5.2m/s | -49.2°C | 0.5% | 27.8hPa | 2.6V | 18:12:15 | 02:11:29 | 00:00:00 | i |
| Es werden nur die letzten 3500 von 5807 Frames angezeigt. GPX/KML und Diagramme bleiben verfügbar. | |||||||||||||||